<?xml version="1.0" encoding="UTF-8" standalone="no" ?>
<gpx xmlns="http://www.topografix.com/GPX/1/1" xmlns:xsi="http://www.w3.org/2001/XMLSchema-instance" xsi:schemaLocation="http://www.topografix.com/GPX/1/1 http://www.topografix.com/GPX/1/1/gpx.xsd" version="1.1" creator="VisuGPX - https://www.visugpx.com">
  <metadata>
    <name>Sortie autour de St leger</name>
  </metadata>
  <trk>
    <name><![CDATA[Sortie autour de St leger_1]]></name>
    <trkseg>
      <trkpt lat="48.71157" lon="1.7819">
        <ele>164.3</ele>
        <time>2026-01-31T10:36:48Z</time>
      </trkpt>
      <trkpt lat="48.71156" lon="1.78182">
        <ele>164.4</ele>
        <time>2026-01-31T10:36:49Z</time>
      </trkpt>
      <trkpt lat="48.71156" lon="1.78175">
        <ele>92.4</ele>
        <time>2026-01-31T10:36:50Z</time>
      </trkpt>
      <trkpt lat="48.71156" lon="1.78169">
        <ele>93.4</ele>
        <time>2026-01-31T10:36:51Z</time>
      </trkpt>
      <trkpt lat="48.71156" lon="1.78162">
        <ele>95.2</ele>
        <time>2026-01-31T10:36:53Z</time>
      </trkpt>
      <trkpt lat="48.71156" lon="1.7816">
        <ele>98.2</ele>
        <time>2026-01-31T10:36:56Z</time>
      </trkpt>
      <trkpt lat="48.71157" lon="1.78156">
        <ele>103.6</ele>
        <time>2026-01-31T10:37:02Z</time>
      </trkpt>
      <trkpt lat="48.71159" lon="1.78153">
        <ele>105.4</ele>
        <time>2026-01-31T10:37:04Z</time>
      </trkpt>
      <trkpt lat="48.71159" lon="1.78148">
        <ele>107</ele>
        <time>2026-01-31T10:37:06Z</time>
      </trkpt>
      <trkpt lat="48.7116" lon="1.78143">
        <ele>108.6</ele>
        <time>2026-01-31T10:37:08Z</time>
      </trkpt>
      <trkpt lat="48.7116" lon="1.7814">
        <ele>109.4</ele>
        <time>2026-01-31T10:37:09Z</time>
      </trkpt>
      <trkpt lat="48.71161" lon="1.78137">
        <ele>110.2</ele>
        <time>2026-01-31T10:37:10Z</time>
      </trkpt>
      <trkpt lat="48.71161" lon="1.78133">
        <ele>111</ele>
        <time>2026-01-31T10:37:11Z</time>
      </trkpt>
      <trkpt lat="48.71161" lon="1.7813">
        <ele>111.6</ele>
        <time>2026-01-31T10:37:12Z</time>
      </trkpt>
      <trkpt lat="48.7116" lon="1.78126">
        <ele>112.4</ele>
        <time>2026-01-31T10:37:13Z</time>
      </trkpt>
      <trkpt lat="48.7116" lon="1.78121">
        <ele>113.2</ele>
        <time>2026-01-31T10:37:14Z</time>
      </trkpt>
      <trkpt lat="48.71158" lon="1.78113">
        <ele>114</ele>
        <time>2026-01-31T10:37:15Z</time>
      </trkpt>
      <trkpt lat="48.71156" lon="1.78102">
        <ele>114.6</ele>
        <time>2026-01-31T10:37:16Z</time>
      </trkpt>
      <trkpt lat="48.71153" lon="1.78088">
        <ele>115.4</ele>
        <time>2026-01-31T10:37:17Z</time>
      </trkpt>
      <trkpt lat="48.7115" lon="1.78073">
        <ele>116.2</ele>
        <time>2026-01-31T10:37:18Z</time>
      </trkpt>
      <trkpt lat="48.71147" lon="1.78059">
        <ele>117</ele>
        <time>2026-01-31T10:37:19Z</time>
      </trkpt>
      <trkpt lat="48.71145" lon="1.78047">
        <ele>117.8</ele>
        <time>2026-01-31T10:37:20Z</time>
      </trkpt>
      <trkpt lat="48.71143" lon="1.78037">
        <ele>118.4</ele>
        <time>2026-01-31T10:37:21Z</time>
      </trkpt>
      <trkpt lat="48.71142" lon="1.78029">
        <ele>119.2</ele>
        <time>2026-01-31T10:37:22Z</time>
      </trkpt>
      <trkpt lat="48.71141" lon="1.78023">
        <ele>120</ele>
        <time>2026-01-31T10:37:23Z</time>
      </trkpt>
      <trkpt lat="48.71141" lon="1.78019">
        <ele>120.8</ele>
        <time>2026-01-31T10:37:24Z</time>
      </trkpt>
      <trkpt lat="48.71141" lon="1.78015">
        <ele>121.6</ele>
        <time>2026-01-31T10:37:25Z</time>
      </trkpt>
      <trkpt lat="48.71141" lon="1.78011">
        <ele>122.2</ele>
        <time>2026-01-31T10:37:26Z</time>
      </trkpt>
      <trkpt lat="48.71141" lon="1.78008">
        <ele>123</ele>
        <time>2026-01-31T10:37:27Z</time>
      </trkpt>
      <trkpt lat="48.71141" lon="1.78005">
        <ele>123.8</ele>
        <time>2026-01-31T10:37:28Z</time>
      </trkpt>
      <trkpt lat="48.71142" lon="1.78001">
        <ele>124.4</ele>
        <time>2026-01-31T10:37:29Z</time>
      </trkpt>
      <trkpt lat="48.71143" lon="1.77997">
        <ele>125.2</ele>
        <time>2026-01-31T10:37:30Z</time>
      </trkpt>
      <trkpt lat="48.71143" lon="1.77993">
        <ele>125.8</ele>
        <time>2026-01-31T10:37:31Z</time>
      </trkpt>
      <trkpt lat="48.71144" lon="1.77989">
        <ele>126.6</ele>
        <time>2026-01-31T10:37:32Z</time>
      </trkpt>
      <trkpt lat="48.71144" lon="1.77984">
        <ele>127.2</ele>
        <time>2026-01-31T10:37:33Z</time>
      </trkpt>
      <trkpt lat="48.71145" lon="1.77979">
        <ele>127.8</ele>
        <time>2026-01-31T10:37:34Z</time>
      </trkpt>
      <trkpt lat="48.71146" lon="1.77974">
        <ele>128.4</ele>
        <time>2026-01-31T10:37:35Z</time>
      </trkpt>
      <trkpt lat="48.71146" lon="1.77969">
        <ele>129</ele>
        <time>2026-01-31T10:37:36Z</time>
      </trkpt>
      <trkpt lat="48.71148" lon="1.77964">
        <ele>129.6</ele>
        <time>2026-01-31T10:37:37Z</time>
      </trkpt>
      <trkpt lat="48.71149" lon="1.7796">
        <ele>130.2</ele>
        <time>2026-01-31T10:37:38Z</time>
      </trkpt>
      <trkpt lat="48.7115" lon="1.77955">
        <ele>130.8</ele>
        <time>2026-01-31T10:37:39Z</time>
      </trkpt>
      <trkpt lat="48.71151" lon="1.77951">
        <ele>131.2</ele>
        <time>2026-01-31T10:37:40Z</time>
      </trkpt>
      <trkpt lat="48.71153" lon="1.77947">
        <ele>131.8</ele>
        <time>2026-01-31T10:37:41Z</time>
      </trkpt>
      <trkpt lat="48.71155" lon="1.77944">
        <ele>132.2</ele>
        <time>2026-01-31T10:37:42Z</time>
      </trkpt>
      <trkpt lat="48.71156" lon="1.77941">
        <ele>132.8</ele>
        <time>2026-01-31T10:37:43Z</time>
      </trkpt>
      <trkpt lat="48.71159" lon="1.77938">
        <ele>133.6</ele>
        <time>2026-01-31T10:37:45Z</time>
      </trkpt>
      <trkpt lat="48.71161" lon="1.77937">
        <ele>134.4</ele>
        <time>2026-01-31T10:37:47Z</time>
      </trkpt>
      <trkpt lat="48.71163" lon="1.77935">
        <ele>135.2</ele>
        <time>2026-01-31T10:37:49Z</time>
      </trkpt>
      <trkpt lat="48.71165" lon="1.77933">
        <ele>136</ele>
        <time>2026-01-31T10:37:51Z</time>
      </trkpt>
      <trkpt lat="48.71167" lon="1.77931">
        <ele>136.8</ele>
        <time>2026-01-31T10:37:53Z</time>
      </trkpt>
      <trkpt lat="48.71168" lon="1.77928">
        <ele>137.6</ele>
        <time>2026-01-31T10:37:55Z</time>
      </trkpt>
      <trkpt lat="48.7117" lon="1.77926">
        <ele>138.2</ele>
        <time>2026-01-31T10:37:57Z</time>
      </trkpt>
      <trkpt lat="48.71172" lon="1.77924">
        <ele>138.8</ele>
        <time>2026-01-31T10:37:59Z</time>
      </trkpt>
      <trkpt lat="48.71175" lon="1.77922">
        <ele>139.2</ele>
        <time>2026-01-31T10:38:01Z</time>
      </trkpt>
      <trkpt lat="48.71177" lon="1.77919">
        <ele>139.8</ele>
        <time>2026-01-31T10:38:03Z</time>
      </trkpt>
      <trkpt lat="48.71179" lon="1.77917">
        <ele>140.4</ele>
        <time>2026-01-31T10:38:05Z</time>
      </trkpt>
      <trkpt lat="48.7118" lon="1.77913">
        <ele>140.8</ele>
        <time>2026-01-31T10:38:07Z</time>
      </trkpt>
      <trkpt lat="48.71182" lon="1.7791">
        <ele>141.2</ele>
        <time>2026-01-31T10:38:09Z</time>
      </trkpt>
      <trkpt lat="48.71184" lon="1.77907">
        <ele>141.6</ele>
        <time>2026-01-31T10:38:11Z</time>
      </trkpt>
      <trkpt lat="48.71186" lon="1.77904">
        <ele>142</ele>
        <time>2026-01-31T10:38:13Z</time>
      </trkpt>
      <trkpt lat="48.71188" lon="1.77901">
        <ele>142.4</ele>
        <time>2026-01-31T10:38:15Z</time>
      </trkpt>
      <trkpt lat="48.71189" lon="1.77898">
        <ele>142.8</ele>
        <time>2026-01-31T10:38:17Z</time>
      </trkpt>
      <trkpt lat="48.71191" lon="1.77894">
        <ele>143.2</ele>
        <time>2026-01-31T10:38:19Z</time>
      </trkpt>
      <trkpt lat="48.71193" lon="1.77891">
        <ele>143.6</ele>
        <time>2026-01-31T10:38:21Z</time>
      </trkpt>
      <trkpt lat="48.71195" lon="1.77888">
        <ele>144</ele>
        <time>2026-01-31T10:38:23Z</time>
      </trkpt>
      <trkpt lat="48.71196" lon="1.77886">
        <ele>144.4</ele>
        <time>2026-01-31T10:38:25Z</time>
        <extensions>
          <gpxtpx:TrackPointExtension xmlns:gpxtpx="http://www.garmin.com/xmlschemas/TrackPointExtension/v1">
            <gpxtpx:hr>105</gpxtpx:hr>
          </gpxtpx:TrackPointExtension>
        </extensions>
      </trkpt>
      <trkpt lat="48.71199" lon="1.77883">
        <ele>144.8</ele>
        <time>2026-01-31T10:38:27Z</time>
        <extensions>
          <gpxtpx:TrackPointExtension xmlns:gpxtpx="http://www.garmin.com/xmlschemas/TrackPointExtension/v1">
            <gpxtpx:hr>105</gpxtpx:hr>
          </gpxtpx:TrackPointExtension>
        </extensions>
      </trkpt>
      <trkpt lat="48.71201" lon="1.7788">
        <ele>145.2</ele>
        <time>2026-01-31T10:38:29Z</time>
        <extensions>
          <gpxtpx:TrackPointExtension xmlns:gpxtpx="http://www.garmin.com/xmlschemas/TrackPointExtension/v1">
            <gpxtpx:hr>105</gpxtpx:hr>
          </gpxtpx:TrackPointExtension>
        </extensions>
      </trkpt>
      <trkpt lat="48.71203" lon="1.77877">
        <ele>145.6</ele>
        <time>2026-01-31T10:38:31Z</time>
        <extensions>
          <gpxtpx:TrackPointExtension xmlns:gpxtpx="http://www.garmin.com/xmlschemas/TrackPointExtension/v1">
            <gpxtpx:hr>105</gpxtpx:hr>
          </gpxtpx:TrackPointExtension>
        </extensions>
      </trkpt>
      <trkpt lat="48.71205" lon="1.77874">
        <ele>146</ele>
        <time>2026-01-31T10:38:33Z</time>
        <extensions>
          <gpxtpx:TrackPointExtension xmlns:gpxtpx="http://www.garmin.com/xmlschemas/TrackPointExtension/v1">
            <gpxtpx:hr>105</gpxtpx:hr>
          </gpxtpx:TrackPointExtension>
        </extensions>
      </trkpt>
      <trkpt lat="48.71206" lon="1.77872">
        <ele>146.4</ele>
        <time>2026-01-31T10:38:35Z</time>
        <extensions>
          <gpxtpx:TrackPointExtension xmlns:gpxtpx="http://www.garmin.com/xmlschemas/TrackPointExtension/v1">
            <gpxtpx:hr>105</gpxtpx:hr>
          </gpxtpx:TrackPointExtension>
        </extensions>
      </trkpt>
      <trkpt lat="48.71208" lon="1.77869">
        <ele>146.6</ele>
        <time>2026-01-31T10:38:37Z</time>
        <extensions>
          <gpxtpx:TrackPointExtension xmlns:gpxtpx="http://www.garmin.com/xmlschemas/TrackPointExtension/v1">
            <gpxtpx:hr>105</gpxtpx:hr>
          </gpxtpx:TrackPointExtension>
        </extensions>
      </trkpt>
      <trkpt lat="48.7121" lon="1.77866">
        <ele>147</ele>
        <time>2026-01-31T10:38:39Z</time>
        <extensions>
          <gpxtpx:TrackPointExtension xmlns:gpxtpx="http://www.garmin.com/xmlschemas/TrackPointExtension/v1">
            <gpxtpx:hr>105</gpxtpx:hr>
          </gpxtpx:TrackPointExtension>
        </extensions>
      </trkpt>
      <trkpt lat="48.71212" lon="1.77862">
        <ele>147.4</ele>
        <time>2026-01-31T10:38:41Z</time>
        <extensions>
          <gpxtpx:TrackPointExtension xmlns:gpxtpx="http://www.garmin.com/xmlschemas/TrackPointExtension/v1">
            <gpxtpx:hr>105</gpxtpx:hr>
          </gpxtpx:TrackPointExtension>
        </extensions>
      </trkpt>
      <trkpt lat="48.71215" lon="1.77858">
        <ele>148</ele>
        <time>2026-01-31T10:38:45Z</time>
        <extensions>
          <gpxtpx:TrackPointExtension xmlns:gpxtpx="http://www.garmin.com/xmlschemas/TrackPointExtension/v1">
            <gpxtpx:hr>105</gpxtpx:hr>
          </gpxtpx:TrackPointExtension>
        </extensions>
      </trkpt>
      <trkpt lat="48.71217" lon="1.7786">
        <ele>150.2</ele>
        <time>2026-01-31T10:38:57Z</time>
        <extensions>
          <gpxtpx:TrackPointExtension xmlns:gpxtpx="http://www.garmin.com/xmlschemas/TrackPointExtension/v1">
            <gpxtpx:hr>104</gpxtpx:hr>
          </gpxtpx:TrackPointExtension>
        </extensions>
      </trkpt>
      <trkpt lat="48.71216" lon="1.77863">
        <ele>150.6</ele>
        <time>2026-01-31T10:38:59Z</time>
        <extensions>
          <gpxtpx:TrackPointExtension xmlns:gpxtpx="http://www.garmin.com/xmlschemas/TrackPointExtension/v1">
            <gpxtpx:hr>103</gpxtpx:hr>
          </gpxtpx:TrackPointExtension>
        </extensions>
      </trkpt>
      <trkpt lat="48.71215" lon="1.77867">
        <ele>151</ele>
        <time>2026-01-31T10:39:01Z</time>
        <extensions>
          <gpxtpx:TrackPointExtension xmlns:gpxtpx="http://www.garmin.com/xmlschemas/TrackPointExtension/v1">
            <gpxtpx:hr>104</gpxtpx:hr>
          </gpxtpx:TrackPointExtension>
        </extensions>
      </trkpt>
      <trkpt lat="48.71214" lon="1.77871">
        <ele>151.4</ele>
        <time>2026-01-31T10:39:03Z</time>
        <extensions>
          <gpxtpx:TrackPointExtension xmlns:gpxtpx="http://www.garmin.com/xmlschemas/TrackPointExtension/v1">
            <gpxtpx:hr>104</gpxtpx:hr>
          </gpxtpx:TrackPointExtension>
        </extensions>
      </trkpt>
      <trkpt lat="48.71213" lon="1.77873">
        <ele>151.8</ele>
        <time>2026-01-31T10:39:05Z</time>
        <extensions>
          <gpxtpx:TrackPointExtension xmlns:gpxtpx="http://www.garmin.com/xmlschemas/TrackPointExtension/v1">
            <gpxtpx:hr>104</gpxtpx:hr>
          </gpxtpx:TrackPointExtension>
        </extensions>
      </trkpt>
      <trkpt lat="48.71213" lon="1.77877">
        <ele>152.4</ele>
        <time>2026-01-31T10:39:08Z</time>
        <extensions>
          <gpxtpx:TrackPointExtension xmlns:gpxtpx="http://www.garmin.com/xmlschemas/TrackPointExtension/v1">
            <gpxtpx:hr>104</gpxtpx:hr>
          </gpxtpx:TrackPointExtension>
        </extensions>
      </trkpt>
      <trkpt lat="48.71212" lon="1.7788">
        <ele>152.8</ele>
        <time>2026-01-31T10:39:10Z</time>
        <extensions>
          <gpxtpx:TrackPointExtension xmlns:gpxtpx="http://www.garmin.com/xmlschemas/TrackPointExtension/v1">
            <gpxtpx:hr>104</gpxtpx:hr>
          </gpxtpx:TrackPointExtension>
        </extensions>
      </trkpt>
      <trkpt lat="48.71212" lon="1.77883">
        <ele>153.4</ele>
        <time>2026-01-31T10:39:12Z</time>
        <extensions>
          <gpxtpx:TrackPointExtension xmlns:gpxtpx="http://www.garmin.com/xmlschemas/TrackPointExtension/v1">
            <gpxtpx:hr>104</gpxtpx:hr>
          </gpxtpx:TrackPointExtension>
        </extensions>
      </trkpt>
      <trkpt lat="48.71211" lon="1.77886">
        <ele>153.8</ele>
        <time>2026-01-31T10:39:14Z</time>
        <extensions>
          <gpxtpx:TrackPointExtension xmlns:gpxtpx="http://www.garmin.com/xmlschemas/TrackPointExtension/v1">
            <gpxtpx:hr>104</gpxtpx:hr>
          </gpxtpx:TrackPointExtension>
        </extensions>
      </trkpt>
      <trkpt lat="48.7121" lon="1.77889">
        <ele>154.4</ele>
        <time>2026-01-31T10:39:16Z</time>
        <extensions>
          <gpxtpx:TrackPointExtension xmlns:gpxtpx="http://www.garmin.com/xmlschemas/TrackPointExtension/v1">
            <gpxtpx:hr>104</gpxtpx:hr>
          </gpxtpx:TrackPointExtension>
        </extensions>
      </trkpt>
      <trkpt lat="48.71209" lon="1.77892">
        <ele>154.8</ele>
        <time>2026-01-31T10:39:18Z</time>
        <extensions>
          <gpxtpx:TrackPointExtension xmlns:gpxtpx="http://www.garmin.com/xmlschemas/TrackPointExtension/v1">
            <gpxtpx:hr>105</gpxtpx:hr>
          </gpxtpx:TrackPointExtension>
        </extensions>
      </trkpt>
      <trkpt lat="48.71207" lon="1.77895">
        <ele>155.2</ele>
        <time>2026-01-31T10:39:20Z</time>
        <extensions>
          <gpxtpx:TrackPointExtension xmlns:gpxtpx="http://www.garmin.com/xmlschemas/TrackPointExtension/v1">
            <gpxtpx:hr>105</gpxtpx:hr>
          </gpxtpx:TrackPointExtension>
        </extensions>
      </trkpt>
      <trkpt lat="48.71205" lon="1.77899">
        <ele>155.4</ele>
        <time>2026-01-31T10:39:22Z</time>
        <extensions>
          <gpxtpx:TrackPointExtension xmlns:gpxtpx="http://www.garmin.com/xmlschemas/TrackPointExtension/v1">
            <gpxtpx:hr>105</gpxtpx:hr>
          </gpxtpx:TrackPointExtension>
        </extensions>
      </trkpt>
      <trkpt lat="48.71204" lon="1.77902">
        <ele>155.8</ele>
        <time>2026-01-31T10:39:24Z</time>
        <extensions>
          <gpxtpx:TrackPointExtension xmlns:gpxtpx="http://www.garmin.com/xmlschemas/TrackPointExtension/v1">
            <gpxtpx:hr>105</gpxtpx:hr>
          </gpxtpx:TrackPointExtension>
        </extensions>
      </trkpt>
      <trkpt lat="48.71202" lon="1.77906">
        <ele>156</ele>
        <time>2026-01-31T10:39:26Z</time>
        <extensions>
          <gpxtpx:TrackPointExtension xmlns:gpxtpx="http://www.garmin.com/xmlschemas/TrackPointExtension/v1">
            <gpxtpx:hr>105</gpxtpx:hr>
          </gpxtpx:TrackPointExtension>
        </extensions>
      </trkpt>
      <trkpt lat="48.712" lon="1.77909">
        <ele>156.4</ele>
        <time>2026-01-31T10:39:28Z</time>
        <extensions>
          <gpxtpx:TrackPointExtension xmlns:gpxtpx="http://www.garmin.com/xmlschemas/TrackPointExtension/v1">
            <gpxtpx:hr>105</gpxtpx:hr>
          </gpxtpx:TrackPointExtension>
        </extensions>
      </trkpt>
      <trkpt lat="48.71198" lon="1.77912">
        <ele>156.8</ele>
        <time>2026-01-31T10:39:30Z</time>
        <extensions>
          <gpxtpx:TrackPointExtension xmlns:gpxtpx="http://www.garmin.com/xmlschemas/TrackPointExtension/v1">
            <gpxtpx:hr>105</gpxtpx:hr>
          </gpxtpx:TrackPointExtension>
        </extensions>
      </trkpt>
      <trkpt lat="48.71196" lon="1.77915">
        <ele>157</ele>
        <time>2026-01-31T10:39:32Z</time>
        <extensions>
          <gpxtpx:TrackPointExtension xmlns:gpxtpx="http://www.garmin.com/xmlschemas/TrackPointExtension/v1">
            <gpxtpx:hr>105</gpxtpx:hr>
          </gpxtpx:TrackPointExtension>
        </extensions>
      </trkpt>
      <trkpt lat="48.71195" lon="1.77918">
        <ele>157.4</ele>
        <time>2026-01-31T10:39:34Z</time>
        <extensions>
          <gpxtpx:TrackPointExtension xmlns:gpxtpx="http://www.garmin.com/xmlschemas/TrackPointExtension/v1">
            <gpxtpx:hr>105</gpxtpx:hr>
          </gpxtpx:TrackPointExtension>
        </extensions>
      </trkpt>
      <trkpt lat="48.71194" lon="1.7792">
        <ele>157.8</ele>
        <time>2026-01-31T10:39:36Z</time>
        <extensions>
          <gpxtpx:TrackPointExtension xmlns:gpxtpx="http://www.garmin.com/xmlschemas/TrackPointExtension/v1">
            <gpxtpx:hr>105</gpxtpx:hr>
          </gpxtpx:TrackPointExtension>
        </extensions>
      </trkpt>
      <trkpt lat="48.71192" lon="1.77922">
        <ele>158.2</ele>
        <time>2026-01-31T10:39:38Z</time>
        <extensions>
          <gpxtpx:TrackPointExtension xmlns:gpxtpx="http://www.garmin.com/xmlschemas/TrackPointExtension/v1">
            <gpxtpx:hr>105</gpxtpx:hr>
          </gpxtpx:TrackPointExtension>
        </extensions>
      </trkpt>
      <trkpt lat="48.71191" lon="1.77924">
        <ele>158.6</ele>
        <time>2026-01-31T10:39:40Z</time>
        <extensions>
          <gpxtpx:TrackPointExtension xmlns:gpxtpx="http://www.garmin.com/xmlschemas/TrackPointExtension/v1">
            <gpxtpx:hr>105</gpxtpx:hr>
          </gpxtpx:TrackPointExtension>
        </extensions>
      </trkpt>
      <trkpt lat="48.71189" lon="1.77926">
        <ele>159.2</ele>
        <time>2026-01-31T10:39:42Z</time>
        <extensions>
          <gpxtpx:TrackPointExtension xmlns:gpxtpx="http://www.garmin.com/xmlschemas/TrackPointExtension/v1">
            <gpxtpx:hr>105</gpxtpx:hr>
          </gpxtpx:TrackPointExtension>
        </extensions>
      </trkpt>
      <trkpt lat="48.71188" lon="1.77927">
        <ele>159.8</ele>
        <time>2026-01-31T10:39:44Z</time>
        <extensions>
          <gpxtpx:TrackPointExtension xmlns:gpxtpx="http://www.garmin.com/xmlschemas/TrackPointExtension/v1">
            <gpxtpx:hr>105</gpxtpx:hr>
          </gpxtpx:TrackPointExtension>
        </extensions>
      </trkpt>
      <trkpt lat="48.71186" lon="1.77929">
        <ele>160.2</ele>
        <time>2026-01-31T10:39:46Z</time>
        <extensions>
          <gpxtpx:TrackPointExtension xmlns:gpxtpx="http://www.garmin.com/xmlschemas/TrackPointExtension/v1">
            <gpxtpx:hr>106</gpxtpx:hr>
          </gpxtpx:TrackPointExtension>
        </extensions>
      </trkpt>
      <trkpt lat="48.71184" lon="1.77931">
        <ele>160.4</ele>
        <time>2026-01-31T10:39:48Z</time>
        <extensions>
          <gpxtpx:TrackPointExtension xmlns:gpxtpx="http://www.garmin.com/xmlschemas/TrackPointExtension/v1">
            <gpxtpx:hr>106</gpxtpx:hr>
          </gpxtpx:TrackPointExtension>
        </extensions>
      </trkpt>
      <trkpt lat="48.71182" lon="1.77933">
        <ele>160.8</ele>
        <time>2026-01-31T10:39:50Z</time>
        <extensions>
          <gpxtpx:TrackPointExtension xmlns:gpxtpx="http://www.garmin.com/xmlschemas/TrackPointExtension/v1">
            <gpxtpx:hr>106</gpxtpx:hr>
          </gpxtpx:TrackPointExtension>
        </extensions>
      </trkpt>
      <trkpt lat="48.71179" lon="1.77935">
        <ele>161.2</ele>
        <time>2026-01-31T10:39:52Z</time>
        <extensions>
          <gpxtpx:TrackPointExtension xmlns:gpxtpx="http://www.garmin.com/xmlschemas/TrackPointExtension/v1">
            <gpxtpx:hr>106</gpxtpx:hr>
          </gpxtpx:TrackPointExtension>
        </extensions>
      </trkpt>
      <trkpt lat="48.71175" lon="1.77936">
        <ele>162</ele>
        <time>2026-01-31T10:39:54Z</time>
        <extensions>
          <gpxtpx:TrackPointExtension xmlns:gpxtpx="http://www.garmin.com/xmlschemas/TrackPointExtension/v1">
            <gpxtpx:hr>106</gpxtpx:hr>
          </gpxtpx:TrackPointExtension>
        </extensions>
      </trkpt>
      <trkpt lat="48.71172" lon="1.77938">
        <ele>162.6</ele>
        <time>2026-01-31T10:39:56Z</time>
        <extensions>
          <gpxtpx:TrackPointExtension xmlns:gpxtpx="http://www.garmin.com/xmlschemas/TrackPointExtension/v1">
            <gpxtpx:hr>107</gpxtpx:hr>
          </gpxtpx:TrackPointExtension>
        </extensions>
      </trkpt>
      <trkpt lat="48.7117" lon="1.7794">
        <ele>163</ele>
        <time>2026-01-31T10:39:58Z</time>
        <extensions>
          <gpxtpx:TrackPointExtension xmlns:gpxtpx="http://www.garmin.com/xmlschemas/TrackPointExtension/v1">
            <gpxtpx:hr>107</gpxtpx:hr>
          </gpxtpx:TrackPointExtension>
        </extensions>
      </trkpt>
      <trkpt lat="48.71168" lon="1.77941">
        <ele>163.6</ele>
        <time>2026-01-31T10:40:00Z</time>
        <extensions>
          <gpxtpx:TrackPointExtension xmlns:gpxtpx="http://www.garmin.com/xmlschemas/TrackPointExtension/v1">
            <gpxtpx:hr>107</gpxtpx:hr>
          </gpxtpx:TrackPointExtension>
        </extensions>
      </trkpt>
      <trkpt lat="48.71165" lon="1.77943">
        <ele>164.2</ele>
        <time>2026-01-31T10:40:02Z</time>
        <extensions>
          <gpxtpx:TrackPointExtension xmlns:gpxtpx="http://www.garmin.com/xmlschemas/TrackPointExtension/v1">
            <gpxtpx:hr>107</gpxtpx:hr>
          </gpxtpx:TrackPointExtension>
        </extensions>
      </trkpt>
      <trkpt lat="48.71163" lon="1.77945">
        <ele>164.8</ele>
        <time>2026-01-31T10:40:04Z</time>
        <extensions>
          <gpxtpx:TrackPointExtension xmlns:gpxtpx="http://www.garmin.com/xmlschemas/TrackPointExtension/v1">
            <gpxtpx:hr>107</gpxtpx:hr>
          </gpxtpx:TrackPointExtension>
        </extensions>
      </trkpt>
      <trkpt lat="48.71161" lon="1.77946">
        <ele>165</ele>
        <time>2026-01-31T10:40:05Z</time>
        <extensions>
          <gpxtpx:TrackPointExtension xmlns:gpxtpx="http://www.garmin.com/xmlschemas/TrackPointExtension/v1">
            <gpxtpx:hr>107</gpxtpx:hr>
          </gpxtpx:TrackPointExtension>
        </extensions>
      </trkpt>
      <trkpt lat="48.71159" lon="1.77948">
        <ele>165.2</ele>
        <time>2026-01-31T10:40:06Z</time>
        <extensions>
          <gpxtpx:TrackPointExtension xmlns:gpxtpx="http://www.garmin.com/xmlschemas/TrackPointExtension/v1">
            <gpxtpx:hr>106</gpxtpx:hr>
          </gpxtpx:TrackPointExtension>
        </extensions>
      </trkpt>
      <trkpt lat="48.71157" lon="1.77949">
        <ele>165.6</ele>
        <time>2026-01-31T10:40:07Z</time>
        <extensions>
          <gpxtpx:TrackPointExtension xmlns:gpxtpx="http://www.garmin.com/xmlschemas/TrackPointExtension/v1">
            <gpxtpx:hr>106</gpxtpx:hr>
          </gpxtpx:TrackPointExtension>
        </extensions>
      </trkpt>
      <trkpt lat="48.71156" lon="1.77951">
        <ele>165.8</ele>
        <time>2026-01-31T10:40:08Z</time>
        <extensions>
          <gpxtpx:TrackPointExtension xmlns:gpxtpx="http://www.garmin.com/xmlschemas/TrackPointExtension/v1">
            <gpxtpx:hr>106</gpxtpx:hr>
          </gpxtpx:TrackPointExtension>
        </extensions>
      </trkpt>
      <trkpt lat="48.71154" lon="1.77952">
        <ele>166.2</ele>
        <time>2026-01-31T10:40:09Z</time>
        <extensions>
          <gpxtpx:TrackPointExtension xmlns:gpxtpx="http://www.garmin.com/xmlschemas/TrackPointExtension/v1">
            <gpxtpx:hr>106</gpxtpx:hr>
          </gpxtpx:TrackPointExtension>
        </extensions>
      </trkpt>
      <trkpt lat="48.71152" lon="1.77953">
        <ele>166.4</ele>
        <time>2026-01-31T10:40:10Z</time>
        <extensions>
          <gpxtpx:TrackPointExtension xmlns:gpxtpx="http://www.garmin.com/xmlschemas/TrackPointExtension/v1">
            <gpxtpx:hr>105</gpxtpx:hr>
          </gpxtpx:TrackPointExtension>
        </extensions>
      </trkpt>
      <trkpt lat="48.71149" lon="1.77956">
        <ele>167</ele>
        <time>2026-01-31T10:40:12Z</time>
        <extensions>
          <gpxtpx:TrackPointExtension xmlns:gpxtpx="http://www.garmin.com/xmlschemas/TrackPointExtension/v1">
            <gpxtpx:hr>104</gpxtpx:hr>
          </gpxtpx:TrackPointExtension>
        </extensions>
      </trkpt>
      <trkpt lat="48.71148" lon="1.77958">
        <ele>167.4</ele>
        <time>2026-01-31T10:40:13Z</time>
        <extensions>
          <gpxtpx:TrackPointExtension xmlns:gpxtpx="http://www.garmin.com/xmlschemas/TrackPointExtension/v1">
            <gpxtpx:hr>104</gpxtpx:hr>
          </gpxtpx:TrackPointExtension>
        </extensions>
      </trkpt>
      <trkpt lat="48.71146" lon="1.77959">
        <ele>167.8</ele>
        <time>2026-01-31T10:40:14Z</time>
        <extensions>
          <gpxtpx:TrackPointExtension xmlns:gpxtpx="http://www.garmin.com/xmlschemas/TrackPointExtension/v1">
            <gpxtpx:hr>104</gpxtpx:hr>
          </gpxtpx:TrackPointExtension>
        </extensions>
      </trkpt>
      <trkpt lat="48.71145" lon="1.7796">
        <ele>168.2</ele>
        <time>2026-01-31T10:40:15Z</time>
        <extensions>
          <gpxtpx:TrackPointExtension xmlns:gpxtpx="http://www.garmin.com/xmlschemas/TrackPointExtension/v1">
            <gpxtpx:hr>104</gpxtpx:hr>
          </gpxtpx:TrackPointExtension>
        </extensions>
      </trkpt>
      <trkpt lat="48.71143" lon="1.77961">
        <ele>168.6</ele>
        <time>2026-01-31T10:40:16Z</time>
        <extensions>
          <gpxtpx:TrackPointExtension xmlns:gpxtpx="http://www.garmin.com/xmlschemas/TrackPointExtension/v1">
            <gpxtpx:hr>104</gpxtpx:hr>
          </gpxtpx:TrackPointExtension>
        </extensions>
      </trkpt>
      <trkpt lat="48.71141" lon="1.77963">
        <ele>168.8</ele>
        <time>2026-01-31T10:40:17Z</time>
        <extensions>
          <gpxtpx:TrackPointExtension xmlns:gpxtpx="http://www.garmin.com/xmlschemas/TrackPointExtension/v1">
            <gpxtpx:hr>104</gpxtpx:hr>
          </gpxtpx:TrackPointExtension>
        </extensions>
      </trkpt>
      <trkpt lat="48.71139" lon="1.77964">
        <ele>169.2</ele>
        <time>2026-01-31T10:40:18Z</time>
        <extensions>
          <gpxtpx:TrackPointExtension xmlns:gpxtpx="http://www.garmin.com/xmlschemas/TrackPointExtension/v1">
            <gpxtpx:hr>104</gpxtpx:hr>
          </gpxtpx:TrackPointExtension>
        </extensions>
      </trkpt>
      <trkpt lat="48.71138" lon="1.77966">
        <ele>169.4</ele>
        <time>2026-01-31T10:40:19Z</time>
        <extensions>
          <gpxtpx:TrackPointExtension xmlns:gpxtpx="http://www.garmin.com/xmlschemas/TrackPointExtension/v1">
            <gpxtpx:hr>104</gpxtpx:hr>
          </gpxtpx:TrackPointExtension>
        </extensions>
      </trkpt>
      <trkpt lat="48.71136" lon="1.77968">
        <ele>169.6</ele>
        <time>2026-01-31T10:40:20Z</time>
        <extensions>
          <gpxtpx:TrackPointExtension xmlns:gpxtpx="http://www.garmin.com/xmlschemas/TrackPointExtension/v1">
            <gpxtpx:hr>104</gpxtpx:hr>
          </gpxtpx:TrackPointExtension>
        </extensions>
      </trkpt>
      <trkpt lat="48.71135" lon="1.77971">
        <ele>169.8</ele>
        <time>2026-01-31T10:40:21Z</time>
        <extensions>
          <gpxtpx:TrackPointExtension xmlns:gpxtpx="http://www.garmin.com/xmlschemas/TrackPointExtension/v1">
            <gpxtpx:hr>104</gpxtpx:hr>
          </gpxtpx:TrackPointExtension>
        </extensions>
      </trkpt>
      <trkpt lat="48.71133" lon="1.77974">
        <ele>170</ele>
        <time>2026-01-31T10:40:22Z</time>
        <extensions>
          <gpxtpx:TrackPointExtension xmlns:gpxtpx="http://www.garmin.com/xmlschemas/TrackPointExtension/v1">
            <gpxtpx:hr>104</gpxtpx:hr>
          </gpxtpx:TrackPointExtension>
        </extensions>
      </trkpt>
      <trkpt lat="48.71132" lon="1.77977">
        <ele>170.2</ele>
        <time>2026-01-31T10:40:23Z</time>
        <extensions>
          <gpxtpx:TrackPointExtension xmlns:gpxtpx="http://www.garmin.com/xmlschemas/TrackPointExtension/v1">
            <gpxtpx:hr>104</gpxtpx:hr>
          </gpxtpx:TrackPointExtension>
        </extensions>
      </trkpt>
      <trkpt lat="48.71132" lon="1.7798">
        <ele>170.4</ele>
        <time>2026-01-31T10:40:24Z</time>
        <extensions>
          <gpxtpx:TrackPointExtension xmlns:gpxtpx="http://www.garmin.com/xmlschemas/TrackPointExtension/v1">
            <gpxtpx:hr>104</gpxtpx:hr>
          </gpxtpx:TrackPointExtension>
        </extensions>
      </trkpt>
      <trkpt lat="48.71131" lon="1.77983">
        <ele>170.6</ele>
        <time>2026-01-31T10:40:25Z</time>
        <extensions>
          <gpxtpx:TrackPointExtension xmlns:gpxtpx="http://www.garmin.com/xmlschemas/TrackPointExtension/v1">
            <gpxtpx:hr>104</gpxtpx:hr>
          </gpxtpx:TrackPointExtension>
        </extensions>
      </trkpt>
      <trkpt lat="48.7113" lon="1.77986">
        <ele>170.8</ele>
        <time>2026-01-31T10:40:26Z</time>
        <extensions>
          <gpxtpx:TrackPointExtension xmlns:gpxtpx="http://www.garmin.com/xmlschemas/TrackPointExtension/v1">
            <gpxtpx:hr>104</gpxtpx:hr>
          </gpxtpx:TrackPointExtension>
        </extensions>
      </trkpt>
      <trkpt lat="48.71128" lon="1.7799">
        <ele>171</ele>
        <time>2026-01-31T10:40:28Z</time>
        <extensions>
          <gpxtpx:TrackPointExtension xmlns:gpxtpx="http://www.garmin.com/xmlschemas/TrackPointExtension/v1">
            <gpxtpx:hr>104</gpxtpx:hr>
          </gpxtpx:TrackPointExtension>
        </extensions>
      </trkpt>
      <trkpt lat="48.71127" lon="1.77996">
        <ele>171.4</ele>
        <time>2026-01-31T10:40:30Z</time>
        <extensions>
          <gpxtpx:TrackPointExtension xmlns:gpxtpx="http://www.garmin.com/xmlschemas/TrackPointExtension/v1">
            <gpxtpx:hr>104</gpxtpx:hr>
          </gpxtpx:TrackPointExtension>
        </extensions>
      </trkpt>
      <trkpt lat="48.71127" lon="1.77999">
        <ele>171.4</ele>
        <time>2026-01-31T10:40:31Z</time>
        <extensions>
          <gpxtpx:TrackPointExtension xmlns:gpxtpx="http://www.garmin.com/xmlschemas/TrackPointExtension/v1">
            <gpxtpx:hr>104</gpxtpx:hr>
          </gpxtpx:TrackPointExtension>
        </extensions>
      </trkpt>
      <trkpt lat="48.71127" lon="1.78002">
        <ele>171.6</ele>
        <time>2026-01-31T10:40:32Z</time>
        <extensions>
          <gpxtpx:TrackPointExtension xmlns:gpxtpx="http://www.garmin.com/xmlschemas/TrackPointExtension/v1">
            <gpxtpx:hr>104</gpxtpx:hr>
          </gpxtpx:TrackPointExtension>
        </extensions>
      </trkpt>
      <trkpt lat="48.71128" lon="1.78006">
        <ele>171.6</ele>
        <time>2026-01-31T10:40:34Z</time>
        <extensions>
          <gpxtpx:TrackPointExtension xmlns:gpxtpx="http://www.garmin.com/xmlschemas/TrackPointExtension/v1">
            <gpxtpx:hr>104</gpxtpx:hr>
          </gpxtpx:TrackPointExtension>
        </extensions>
      </trkpt>
      <trkpt lat="48.7113" lon="1.78008">
        <ele>171.6</ele>
        <time>2026-01-31T10:40:36Z</time>
        <extensions>
          <gpxtpx:TrackPointExtension xmlns:gpxtpx="http://www.garmin.com/xmlschemas/TrackPointExtension/v1">
            <gpxtpx:hr>104</gpxtpx:hr>
          </gpxtpx:TrackPointExtension>
        </extensions>
      </trkpt>
      <trkpt lat="48.71133" lon="1.78007">
        <ele>171.8</ele>
        <time>2026-01-31T10:40:38Z</time>
        <extensions>
          <gpxtpx:TrackPointExtension xmlns:gpxtpx="http://www.garmin.com/xmlschemas/TrackPointExtension/v1">
            <gpxtpx:hr>104</gpxtpx:hr>
          </gpxtpx:TrackPointExtension>
        </extensions>
      </trkpt>
      <trkpt lat="48.71135" lon="1.78007">
        <ele>171.8</ele>
        <time>2026-01-31T10:40:39Z</time>
        <extensions>
          <gpxtpx:TrackPointExtension xmlns:gpxtpx="http://www.garmin.com/xmlschemas/TrackPointExtension/v1">
            <gpxtpx:hr>104</gpxtpx:hr>
          </gpxtpx:TrackPointExtension>
        </extensions>
      </trkpt>
      <trkpt lat="48.71137" lon="1.78008">
        <ele>171.8</ele>
        <time>2026-01-31T10:40:40Z</time>
        <extensions>
          <gpxtpx:TrackPointExtension xmlns:gpxtpx="http://www.garmin.com/xmlschemas/TrackPointExtension/v1">
            <gpxtpx:hr>104</gpxtpx:hr>
          </gpxtpx:TrackPointExtension>
        </extensions>
      </trkpt>
      <trkpt lat="48.7114" lon="1.78009">
        <ele>171.8</ele>
        <time>2026-01-31T10:40:41Z</time>
        <extensions>
          <gpxtpx:TrackPointExtension xmlns:gpxtpx="http://www.garmin.com/xmlschemas/TrackPointExtension/v1">
            <gpxtpx:hr>104</gpxtpx:hr>
          </gpxtpx:TrackPointExtension>
        </extensions>
      </trkpt>
      <trkpt lat="48.71142" lon="1.7801">
        <ele>171.8</ele>
        <time>2026-01-31T10:40:42Z</time>
        <extensions>
          <gpxtpx:TrackPointExtension xmlns:gpxtpx="http://www.garmin.com/xmlschemas/TrackPointExtension/v1">
            <gpxtpx:hr>104</gpxtpx:hr>
          </gpxtpx:TrackPointExtension>
        </extensions>
      </trkpt>
      <trkpt lat="48.71144" lon="1.78011">
        <ele>171.8</ele>
        <time>2026-01-31T10:40:43Z</time>
        <extensions>
          <gpxtpx:TrackPointExtension xmlns:gpxtpx="http://www.garmin.com/xmlschemas/TrackPointExtension/v1">
            <gpxtpx:hr>104</gpxtpx:hr>
          </gpxtpx:TrackPointExtension>
        </extensions>
      </trkpt>
      <trkpt lat="48.71146" lon="1.78013">
        <ele>171.8</ele>
        <time>2026-01-31T10:40:44Z</time>
        <extensions>
          <gpxtpx:TrackPointExtension xmlns:gpxtpx="http://www.garmin.com/xmlschemas/TrackPointExtension/v1">
            <gpxtpx:hr>104</gpxtpx:hr>
          </gpxtpx:TrackPointExtension>
        </extensions>
      </trkpt>
      <trkpt lat="48.71147" lon="1.78014">
        <ele>171.8</ele>
        <time>2026-01-31T10:40:45Z</time>
        <extensions>
          <gpxtpx:TrackPointExtension xmlns:gpxtpx="http://www.garmin.com/xmlschemas/TrackPointExtension/v1">
            <gpxtpx:hr>104</gpxtpx:hr>
          </gpxtpx:TrackPointExtension>
        </extensions>
      </trkpt>
      <trkpt lat="48.71149" lon="1.78017">
        <ele>171.8</ele>
        <time>2026-01-31T10:40:47Z</time>
        <extensions>
          <gpxtpx:TrackPointExtension xmlns:gpxtpx="http://www.garmin.com/xmlschemas/TrackPointExtension/v1">
            <gpxtpx:hr>103</gpxtpx:hr>
          </gpxtpx:TrackPointExtension>
        </extensions>
      </trkpt>
      <trkpt lat="48.7115" lon="1.7802">
        <ele>172</ele>
        <time>2026-01-31T10:40:49Z</time>
        <extensions>
          <gpxtpx:TrackPointExtension xmlns:gpxtpx="http://www.garmin.com/xmlschemas/TrackPointExtension/v1">
            <gpxtpx:hr>103</gpxtpx:hr>
          </gpxtpx:TrackPointExtension>
        </extensions>
      </trkpt>
      <trkpt lat="48.7115" lon="1.78024">
        <ele>172</ele>
        <time>2026-01-31T10:40:51Z</time>
        <extensions>
          <gpxtpx:TrackPointExtension xmlns:gpxtpx="http://www.garmin.com/xmlschemas/TrackPointExtension/v1">
            <gpxtpx:hr>102</gpxtpx:hr>
          </gpxtpx:TrackPointExtension>
        </extensions>
      </trkpt>
      <trkpt lat="48.71151" lon="1.78029">
        <ele>172</ele>
        <time>2026-01-31T10:40:53Z</time>
        <extensions>
          <gpxtpx:TrackPointExtension xmlns:gpxtpx="http://www.garmin.com/xmlschemas/TrackPointExtension/v1">
            <gpxtpx:hr>102</gpxtpx:hr>
          </gpxtpx:TrackPointExtension>
        </extensions>
      </trkpt>
      <trkpt lat="48.71151" lon="1.78033">
        <ele>171.8</ele>
        <time>2026-01-31T10:40:55Z</time>
        <extensions>
          <gpxtpx:TrackPointExtension xmlns:gpxtpx="http://www.garmin.com/xmlschemas/TrackPointExtension/v1">
            <gpxtpx:hr>103</gpxtpx:hr>
          </gpxtpx:TrackPointExtension>
        </extensions>
      </trkpt>
      <trkpt lat="48.71153" lon="1.78036">
        <ele>171.8</ele>
        <time>2026-01-31T10:40:57Z</time>
        <extensions>
          <gpxtpx:TrackPointExtension xmlns:gpxtpx="http://www.garmin.com/xmlschemas/TrackPointExtension/v1">
            <gpxtpx:hr>103</gpxtpx:hr>
          </gpxtpx:TrackPointExtension>
        </extensions>
      </trkpt>
      <trkpt lat="48.71155" lon="1.78039">
        <ele>171.8</ele>
        <time>2026-01-31T10:40:59Z</time>
        <extensions>
          <gpxtpx:TrackPointExtension xmlns:gpxtpx="http://www.garmin.com/xmlschemas/TrackPointExtension/v1">
            <gpxtpx:hr>103</gpxtpx:hr>
          </gpxtpx:TrackPointExtension>
        </extensions>
      </trkpt>
      <trkpt lat="48.71156" lon="1.78042">
        <ele>171.6</ele>
        <time>2026-01-31T10:41:01Z</time>
        <extensions>
          <gpxtpx:TrackPointExtension xmlns:gpxtpx="http://www.garmin.com/xmlschemas/TrackPointExtension/v1">
            <gpxtpx:hr>104</gpxtpx:hr>
          </gpxtpx:TrackPointExtension>
        </extensions>
      </trkpt>
      <trkpt lat="48.71157" lon="1.78045">
        <ele>171.6</ele>
        <time>2026-01-31T10:41:03Z</time>
        <extensions>
          <gpxtpx:TrackPointExtension xmlns:gpxtpx="http://www.garmin.com/xmlschemas/TrackPointExtension/v1">
            <gpxtpx:hr>106</gpxtpx:hr>
          </gpxtpx:TrackPointExtension>
        </extensions>
      </trkpt>
      <trkpt lat="48.71159" lon="1.78048">
        <ele>171.6</ele>
        <time>2026-01-31T10:41:05Z</time>
        <extensions>
          <gpxtpx:TrackPointExtension xmlns:gpxtpx="http://www.garmin.com/xmlschemas/TrackPointExtension/v1">
            <gpxtpx:hr>107</gpxtpx:hr>
          </gpxtpx:TrackPointExtension>
        </extensions>
      </trkpt>
      <trkpt lat="48.71161" lon="1.78051">
        <ele>171.4</ele>
        <time>2026-01-31T10:41:07Z</time>
        <extensions>
          <gpxtpx:TrackPointExtension xmlns:gpxtpx="http://www.garmin.com/xmlschemas/TrackPointExtension/v1">
            <gpxtpx:hr>108</gpxtpx:hr>
          </gpxtpx:TrackPointExtension>
        </extensions>
      </trkpt>
      <trkpt lat="48.71163" lon="1.78054">
        <ele>171.2</ele>
        <time>2026-01-31T10:41:09Z</time>
        <extensions>
          <gpxtpx:TrackPointExtension xmlns:gpxtpx="http://www.garmin.com/xmlschemas/TrackPointExtension/v1">
            <gpxtpx:hr>108</gpxtpx:hr>
          </gpxtpx:TrackPointExtension>
        </extensions>
      </trkpt>
      <trkpt lat="48.71164" lon="1.78057">
        <ele>171.2</ele>
        <time>2026-01-31T10:41:11Z</time>
        <extensions>
          <gpxtpx:TrackPointExtension xmlns:gpxtpx="http://www.garmin.com/xmlschemas/TrackPointExtension/v1">
            <gpxtpx:hr>108</gpxtpx:hr>
          </gpxtpx:TrackPointExtension>
        </extensions>
      </trkpt>
      <trkpt lat="48.71165" lon="1.7806">
        <ele>170.8</ele>
        <time>2026-01-31T10:41:13Z</time>
        <extensions>
          <gpxtpx:TrackPointExtension xmlns:gpxtpx="http://www.garmin.com/xmlschemas/TrackPointExtension/v1">
            <gpxtpx:hr>108</gpxtpx:hr>
          </gpxtpx:TrackPointExtension>
        </extensions>
      </trkpt>
      <trkpt lat="48.71167" lon="1.78063">
        <ele>170.6</ele>
        <time>2026-01-31T10:41:15Z</time>
        <extensions>
          <gpxtpx:TrackPointExtension xmlns:gpxtpx="http://www.garmin.com/xmlschemas/TrackPointExtension/v1">
            <gpxtpx:hr>108</gpxtpx:hr>
          </gpxtpx:TrackPointExtension>
        </extensions>
      </trkpt>
      <trkpt lat="48.71168" lon="1.78065">
        <ele>170.2</ele>
        <time>2026-01-31T10:41:17Z</time>
        <extensions>
          <gpxtpx:TrackPointExtension xmlns:gpxtpx="http://www.garmin.com/xmlschemas/TrackPointExtension/v1">
            <gpxtpx:hr>107</gpxtpx:hr>
          </gpxtpx:TrackPointExtension>
        </extensions>
      </trkpt>
      <trkpt lat="48.7117" lon="1.78068">
        <ele>169.8</ele>
        <time>2026-01-31T10:41:19Z</time>
        <extensions>
          <gpxtpx:TrackPointExtension xmlns:gpxtpx="http://www.garmin.com/xmlschemas/TrackPointExtension/v1">
            <gpxtpx:hr>107</gpxtpx:hr>
          </gpxtpx:TrackPointExtension>
        </extensions>
      </trkpt>
      <trkpt lat="48.71172" lon="1.78071">
        <ele>169.6</ele>
        <time>2026-01-31T10:41:21Z</time>
        <extensions>
          <gpxtpx:TrackPointExtension xmlns:gpxtpx="http://www.garmin.com/xmlschemas/TrackPointExtension/v1">
            <gpxtpx:hr>107</gpxtpx:hr>
          </gpxtpx:TrackPointExtension>
        </extensions>
      </trkpt>
      <trkpt lat="48.71173" lon="1.78074">
        <ele>169.2</ele>
        <time>2026-01-31T10:41:23Z</time>
        <extensions>
          <gpxtpx:TrackPointExtension xmlns:gpxtpx="http://www.garmin.com/xmlschemas/TrackPointExtension/v1">
            <gpxtpx:hr>107</gpxtpx:hr>
          </gpxtpx:TrackPointExtension>
        </extensions>
      </trkpt>
      <trkpt lat="48.71175" lon="1.78076">
        <ele>169</ele>
        <time>2026-01-31T10:41:25Z</time>
        <extensions>
          <gpxtpx:TrackPointExtension xmlns:gpxtpx="http://www.garmin.com/xmlschemas/TrackPointExtension/v1">
            <gpxtpx:hr>107</gpxtpx:hr>
          </gpxtpx:TrackPointExtension>
        </extensions>
      </trkpt>
      <trkpt lat="48.71178" lon="1.78078">
        <ele>168.6</ele>
        <time>2026-01-31T10:41:27Z</time>
        <extensions>
          <gpxtpx:TrackPointExtension xmlns:gpxtpx="http://www.garmin.com/xmlschemas/TrackPointExtension/v1">
            <gpxtpx:hr>107</gpxtpx:hr>
          </gpxtpx:TrackPointExtension>
        </extensions>
      </trkpt>
      <trkpt lat="48.7118" lon="1.78081">
        <ele>168.4</ele>
        <time>2026-01-31T10:41:29Z</time>
        <extensions>
          <gpxtpx:TrackPointExtension xmlns:gpxtpx="http://www.garmin.com/xmlschemas/TrackPointExtension/v1">
            <gpxtpx:hr>107</gpxtpx:hr>
          </gpxtpx:TrackPointExtension>
        </extensions>
      </trkpt>
      <trkpt lat="48.71182" lon="1.78084">
        <ele>168</ele>
        <time>2026-01-31T10:41:31Z</time>
        <extensions>
          <gpxtpx:TrackPointExtension xmlns:gpxtpx="http://www.garmin.com/xmlschemas/TrackPointExtension/v1">
            <gpxtpx:hr>107</gpxtpx:hr>
          </gpxtpx:TrackPointExtension>
        </extensions>
      </trkpt>
      <trkpt lat="48.71184" lon="1.78086">
        <ele>167.8</ele>
        <time>2026-01-31T10:41:33Z</time>
        <extensions>
          <gpxtpx:TrackPointExtension xmlns:gpxtpx="http://www.garmin.com/xmlschemas/TrackPointExtension/v1">
            <gpxtpx:hr>107</gpxtpx:hr>
          </gpxtpx:TrackPointExtension>
        </extensions>
      </trkpt>
      <trkpt lat="48.71186" lon="1.78089">
        <ele>167.6</ele>
        <time>2026-01-31T10:41:35Z</time>
        <extensions>
          <gpxtpx:TrackPointExtension xmlns:gpxtpx="http://www.garmin.com/xmlschemas/TrackPointExtension/v1">
            <gpxtpx:hr>107</gpxtpx:hr>
          </gpxtpx:TrackPointExtension>
        </extensions>
      </trkpt>
      <trkpt lat="48.71187" lon="1.78092">
        <ele>167.2</ele>
        <time>2026-01-31T10:41:37Z</time>
        <extensions>
          <gpxtpx:TrackPointExtension xmlns:gpxtpx="http://www.garmin.com/xmlschemas/TrackPointExtension/v1">
            <gpxtpx:hr>107</gpxtpx:hr>
          </gpxtpx:TrackPointExtension>
        </extensions>
      </trkpt>
      <trkpt lat="48.71189" lon="1.78094">
        <ele>167</ele>
        <time>2026-01-31T10:41:39Z</time>
        <extensions>
          <gpxtpx:TrackPointExtension xmlns:gpxtpx="http://www.garmin.com/xmlschemas/TrackPointExtension/v1">
            <gpxtpx:hr>107</gpxtpx:hr>
          </gpxtpx:TrackPointExtension>
        </extensions>
      </trkpt>
      <trkpt lat="48.71191" lon="1.78097">
        <ele>167</ele>
        <time>2026-01-31T10:41:41Z</time>
        <extensions>
          <gpxtpx:TrackPointExtension xmlns:gpxtpx="http://www.garmin.com/xmlschemas/TrackPointExtension/v1">
            <gpxtpx:hr>107</gpxtpx:hr>
          </gpxtpx:TrackPointExtension>
        </extensions>
      </trkpt>
      <trkpt lat="48.71193" lon="1.78099">
        <ele>166.6</ele>
        <time>2026-01-31T10:41:43Z</time>
        <extensions>
          <gpxtpx:TrackPointExtension xmlns:gpxtpx="http://www.garmin.com/xmlschemas/TrackPointExtension/v1">
            <gpxtpx:hr>107</gpxtpx:hr>
          </gpxtpx:TrackPointExtension>
        </extensions>
      </trkpt>
      <trkpt lat="48.71195" lon="1.78101">
        <ele>166.6</ele>
        <time>2026-01-31T10:41:45Z</time>
        <extensions>
          <gpxtpx:TrackPointExtension xmlns:gpxtpx="http://www.garmin.com/xmlschemas/TrackPointExtension/v1">
            <gpxtpx:hr>107</gpxtpx:hr>
          </gpxtpx:TrackPointExtension>
        </extensions>
      </trkpt>
      <trkpt lat="48.71197" lon="1.78104">
        <ele>166.2</ele>
        <time>2026-01-31T10:41:47Z</time>
        <extensions>
          <gpxtpx:TrackPointExtension xmlns:gpxtpx="http://www.garmin.com/xmlschemas/TrackPointExtension/v1">
            <gpxtpx:hr>108</gpxtpx:hr>
          </gpxtpx:TrackPointExtension>
        </extensions>
      </trkpt>
      <trkpt lat="48.71199" lon="1.78106">
        <ele>166</ele>
        <time>2026-01-31T10:41:49Z</time>
        <extensions>
          <gpxtpx:TrackPointExtension xmlns:gpxtpx="http://www.garmin.com/xmlschemas/TrackPointExtension/v1">
            <gpxtpx:hr>108</gpxtpx:hr>
          </gpxtpx:TrackPointExtension>
        </extensions>
      </trkpt>
      <trkpt lat="48.71201" lon="1.78109">
        <ele>165.8</ele>
        <time>2026-01-31T10:41:51Z</time>
        <extensions>
          <gpxtpx:TrackPointExtension xmlns:gpxtpx="http://www.garmin.com/xmlschemas/TrackPointExtension/v1">
            <gpxtpx:hr>108</gpxtpx:hr>
          </gpxtpx:TrackPointExtension>
        </extensions>
      </trkpt>
      <trkpt lat="48.71203" lon="1.7811">
        <ele>165.6</ele>
        <time>2026-01-31T10:41:53Z</time>
        <extensions>
          <gpxtpx:TrackPointExtension xmlns:gpxtpx="http://www.garmin.com/xmlschemas/TrackPointExtension/v1">
            <gpxtpx:hr>108</gpxtpx:hr>
          </gpxtpx:TrackPointExtension>
        </extensions>
      </trkpt>
      <trkpt lat="48.71205" lon="1.78112">
        <ele>165.6</ele>
        <time>2026-01-31T10:41:55Z</time>
        <extensions>
          <gpxtpx:TrackPointExtension xmlns:gpxtpx="http://www.garmin.com/xmlschemas/TrackPointExtension/v1">
            <gpxtpx:hr>108</gpxtpx:hr>
          </gpxtpx:TrackPointExtension>
        </extensions>
      </trkpt>
      <trkpt lat="48.71208" lon="1.78113">
        <ele>165.4</ele>
        <time>2026-01-31T10:41:57Z</time>
        <extensions>
          <gpxtpx:TrackPointExtension xmlns:gpxtpx="http://www.garmin.com/xmlschemas/TrackPointExtension/v1">
            <gpxtpx:hr>108</gpxtpx:hr>
          </gpxtpx:TrackPointExtension>
        </extensions>
      </trkpt>
      <trkpt lat="48.7121" lon="1.78116">
        <ele>165.2</ele>
        <time>2026-01-31T10:41:59Z</time>
        <extensions>
          <gpxtpx:TrackPointExtension xmlns:gpxtpx="http://www.garmin.com/xmlschemas/TrackPointExtension/v1">
            <gpxtpx:hr>108</gpxtpx:hr>
          </gpxtpx:TrackPointExtension>
        </extensions>
      </trkpt>
      <trkpt lat="48.71212" lon="1.78119">
        <ele>164.8</ele>
        <time>2026-01-31T10:42:01Z</time>
        <extensions>
          <gpxtpx:TrackPointExtension xmlns:gpxtpx="http://www.garmin.com/xmlschemas/TrackPointExtension/v1">
            <gpxtpx:hr>108</gpxtpx:hr>
          </gpxtpx:TrackPointExtension>
        </extensions>
      </trkpt>
      <trkpt lat="48.71213" lon="1.78121">
        <ele>164.6</ele>
        <time>2026-01-31T10:42:03Z</time>
        <extensions>
          <gpxtpx:TrackPointExtension xmlns:gpxtpx="http://www.garmin.com/xmlschemas/TrackPointExtension/v1">
            <gpxtpx:hr>108</gpxtpx:hr>
          </gpxtpx:TrackPointExtension>
        </extensions>
      </trkpt>
      <trkpt lat="48.71216" lon="1.78124">
        <ele>164.4</ele>
        <time>2026-01-31T10:42:05Z</time>
        <extensions>
          <gpxtpx:TrackPointExtension xmlns:gpxtpx="http://www.garmin.com/xmlschemas/TrackPointExtension/v1">
            <gpxtpx:hr>108</gpxtpx:hr>
          </gpxtpx:TrackPointExtension>
        </extensions>
      </trkpt>
      <trkpt lat="48.71218" lon="1.78126">
        <ele>164.4</ele>
        <time>2026-01-31T10:42:07Z</time>
        <extensions>
          <gpxtpx:TrackPointExtension xmlns:gpxtpx="http://www.garmin.com/xmlschemas/TrackPointExtension/v1">
            <gpxtpx:hr>108</gpxtpx:hr>
          </gpxtpx:TrackPointExtension>
        </extensions>
      </trkpt>
      <trkpt lat="48.7122" lon="1.78128">
        <ele>164.4</ele>
        <time>2026-01-31T10:42:09Z</time>
        <extensions>
          <gpxtpx:TrackPointExtension xmlns:gpxtpx="http://www.garmin.com/xmlschemas/TrackPointExtension/v1">
            <gpxtpx:hr>109</gpxtpx:hr>
          </gpxtpx:TrackPointExtension>
        </extensions>
      </trkpt>
      <trkpt lat="48.71223" lon="1.7813">
        <ele>164.2</ele>
        <time>2026-01-31T10:42:11Z</time>
        <extensions>
          <gpxtpx:TrackPointExtension xmlns:gpxtpx="http://www.garmin.com/xmlschemas/TrackPointExtension/v1">
            <gpxtpx:hr>109</gpxtpx:hr>
          </gpxtpx:TrackPointExtension>
        </extensions>
      </trkpt>
      <trkpt lat="48.71225" lon="1.78133">
        <ele>164</ele>
        <time>2026-01-31T10:42:13Z</time>
        <extensions>
          <gpxtpx:TrackPointExtension xmlns:gpxtpx="http://www.garmin.com/xmlschemas/TrackPointExtension/v1">
            <gpxtpx:hr>109</gpxtpx:hr>
          </gpxtpx:TrackPointExtension>
        </extensions>
      </trkpt>
      <trkpt lat="48.71227" lon="1.78135">
        <ele>163.8</ele>
        <time>2026-01-31T10:42:14Z</time>
        <extensions>
          <gpxtpx:TrackPointExtension xmlns:gpxtpx="http://www.garmin.com/xmlschemas/TrackPointExtension/v1">
            <gpxtpx:hr>109</gpxtpx:hr>
          </gpxtpx:TrackPointExtension>
        </extensions>
      </trkpt>
      <trkpt lat="48.71229" lon="1.78137">
        <ele>163.8</ele>
        <time>2026-01-31T10:42:16Z</time>
        <extensions>
          <gpxtpx:TrackPointExtension xmlns:gpxtpx="http://www.garmin.com/xmlschemas/TrackPointExtension/v1">
            <gpxtpx:hr>109</gpxtpx:hr>
          </gpxtpx:TrackPointExtension>
        </extensions>
      </trkpt>
      <trkpt lat="48.71231" lon="1.7814">
        <ele>163.6</ele>
        <time>2026-01-31T10:42:18Z</time>
        <extensions>
          <gpxtpx:TrackPointExtension xmlns:gpxtpx="http://www.garmin.com/xmlschemas/TrackPointExtension/v1">
            <gpxtpx:hr>109</gpxtpx:hr>
          </gpxtpx:TrackPointExtension>
        </extensions>
      </trkpt>
      <trkpt lat="48.71233" lon="1.78144">
        <ele>163.4</ele>
        <time>2026-01-31T10:42:20Z</time>
        <extensions>
          <gpxtpx:TrackPointExtension xmlns:gpxtpx="http://www.garmin.com/xmlschemas/TrackPointExtension/v1">
            <gpxtpx:hr>109</gpxtpx:hr>
          </gpxtpx:TrackPointExtension>
        </extensions>
      </trkpt>
      <trkpt lat="48.71235" lon="1.78147">
        <ele>163.4</ele>
        <time>2026-01-31T10:42:22Z</time>
        <extensions>
          <gpxtpx:TrackPointExtension xmlns:gpxtpx="http://www.garmin.com/xmlschemas/TrackPointExtension/v1">
            <gpxtpx:hr>109</gpxtpx:hr>
          </gpxtpx:TrackPointExtension>
        </extensions>
      </trkpt>
      <trkpt lat="48.71237" lon="1.78151">
        <ele>163.2</ele>
        <time>2026-01-31T10:42:24Z</time>
        <extensions>
          <gpxtpx:TrackPointExtension xmlns:gpxtpx="http://www.garmin.com/xmlschemas/TrackPointExtension/v1">
            <gpxtpx:hr>109</gpxtpx:hr>
          </gpxtpx:TrackPointExtension>
        </extensions>
      </trkpt>
      <trkpt lat="48.71239" lon="1.78153">
        <ele>163.2</ele>
        <time>2026-01-31T10:42:26Z</time>
        <extensions>
          <gpxtpx:TrackPointExtension xmlns:gpxtpx="http://www.garmin.com/xmlschemas/TrackPointExtension/v1">
            <gpxtpx:hr>109</gpxtpx:hr>
          </gpxtpx:TrackPointExtension>
        </extensions>
      </trkpt>
      <trkpt lat="48.71241" lon="1.78156">
        <ele>163.2</ele>
        <time>2026-01-31T10:42:28Z</time>
        <extensions>
          <gpxtpx:TrackPointExtension xmlns:gpxtpx="http://www.garmin.com/xmlschemas/TrackPointExtension/v1">
            <gpxtpx:hr>109</gpxtpx:hr>
          </gpxtpx:TrackPointExtension>
        </extensions>
      </trkpt>
      <trkpt lat="48.71243" lon="1.78158">
        <ele>163.2</ele>
        <time>2026-01-31T10:42:30Z</time>
        <extensions>
          <gpxtpx:TrackPointExtension xmlns:gpxtpx="http://www.garmin.com/xmlschemas/TrackPointExtension/v1">
            <gpxtpx:hr>109</gpxtpx:hr>
          </gpxtpx:TrackPointExtension>
        </extensions>
      </trkpt>
      <trkpt lat="48.71245" lon="1.78161">
        <ele>163.2</ele>
        <time>2026-01-31T10:42:32Z</time>
        <extensions>
          <gpxtpx:TrackPointExtension xmlns:gpxtpx="http://www.garmin.com/xmlschemas/TrackPointExtension/v1">
            <gpxtpx:hr>109</gpxtpx:hr>
          </gpxtpx:TrackPointExtension>
        </extensions>
      </trkpt>
      <trkpt lat="48.71248" lon="1.78163">
        <ele>163.2</ele>
        <time>2026-01-31T10:42:34Z</time>
        <extensions>
          <gpxtpx:TrackPointExtension xmlns:gpxtpx="http://www.garmin.com/xmlschemas/TrackPointExtension/v1">
            <gpxtpx:hr>109</gpxtpx:hr>
          </gpxtpx:TrackPointExtension>
        </extensions>
      </trkpt>
      <trkpt lat="48.7125" lon="1.78165">
        <ele>163.2</ele>
        <time>2026-01-31T10:42:36Z</time>
        <extensions>
          <gpxtpx:TrackPointExtension xmlns:gpxtpx="http://www.garmin.com/xmlschemas/TrackPointExtension/v1">
            <gpxtpx:hr>109</gpxtpx:hr>
          </gpxtpx:TrackPointExtension>
        </extensions>
      </trkpt>
      <trkpt lat="48.71253" lon="1.78167">
        <ele>163.2</ele>
        <time>2026-01-31T10:42:38Z</time>
        <extensions>
          <gpxtpx:TrackPointExtension xmlns:gpxtpx="http://www.garmin.com/xmlschemas/TrackPointExtension/v1">
            <gpxtpx:hr>109</gpxtpx:hr>
          </gpxtpx:TrackPointExtension>
        </extensions>
      </trkpt>
      <trkpt lat="48.71255" lon="1.7817">
        <ele>163.2</ele>
        <time>2026-01-31T10:42:40Z</time>
        <extensions>
          <gpxtpx:TrackPointExtension xmlns:gpxtpx="http://www.garmin.com/xmlschemas/TrackPointExtension/v1">
            <gpxtpx:hr>109</gpxtpx:hr>
          </gpxtpx:TrackPointExtension>
        </extensions>
      </trkpt>
      <trkpt lat="48.71258" lon="1.78173">
        <ele>163.2</ele>
        <time>2026-01-31T10:42:42Z</time>
        <extensions>
          <gpxtpx:TrackPointExtension xmlns:gpxtpx="http://www.garmin.com/xmlschemas/TrackPointExtension/v1">
            <gpxtpx:hr>109</gpxtpx:hr>
          </gpxtpx:TrackPointExtension>
        </extensions>
      </trkpt>
      <trkpt lat="48.7126" lon="1.78175">
        <ele>163.2</ele>
        <time>2026-01-31T10:42:44Z</time>
        <extensions>
          <gpxtpx:TrackPointExtension xmlns:gpxtpx="http://www.garmin.com/xmlschemas/TrackPointExtension/v1">
            <gpxtpx:hr>109</gpxtpx:hr>
          </gpxtpx:TrackPointExtension>
        </extensions>
      </trkpt>
      <trkpt lat="48.71262" lon="1.78178">
        <ele>163.2</ele>
        <time>2026-01-31T10:42:46Z</time>
        <extensions>
          <gpxtpx:TrackPointExtension xmlns:gpxtpx="http://www.garmin.com/xmlschemas/TrackPointExtension/v1">
            <gpxtpx:hr>109</gpxtpx:hr>
          </gpxtpx:TrackPointExtension>
        </extensions>
      </trkpt>
      <trkpt lat="48.71264" lon="1.78181">
        <ele>163</ele>
        <time>2026-01-31T10:42:48Z</time>
        <extensions>
          <gpxtpx:TrackPointExtension xmlns:gpxtpx="http://www.garmin.com/xmlschemas/TrackPointExtension/v1">
            <gpxtpx:hr>109</gpxtpx:hr>
          </gpxtpx:TrackPointExtension>
        </extensions>
      </trkpt>
      <trkpt lat="48.71266" lon="1.78183">
        <ele>163</ele>
        <time>2026-01-31T10:42:50Z</time>
        <extensions>
          <gpxtpx:TrackPointExtension xmlns:gpxtpx="http://www.garmin.com/xmlschemas/TrackPointExtension/v1">
            <gpxtpx:hr>109</gpxtpx:hr>
          </gpxtpx:TrackPointExtension>
        </extensions>
      </trkpt>
      <trkpt lat="48.71267" lon="1.78186">
        <ele>163</ele>
        <time>2026-01-31T10:42:52Z</time>
        <extensions>
          <gpxtpx:TrackPointExtension xmlns:gpxtpx="http://www.garmin.com/xmlschemas/TrackPointExtension/v1">
            <gpxtpx:hr>109</gpxtpx:hr>
          </gpxtpx:TrackPointExtension>
        </extensions>
      </trkpt>
      <trkpt lat="48.71269" lon="1.78189">
        <ele>163</ele>
        <time>2026-01-31T10:42:54Z</time>
        <extensions>
          <gpxtpx:TrackPointExtension xmlns:gpxtpx="http://www.garmin.com/xmlschemas/TrackPointExtension/v1">
            <gpxtpx:hr>109</gpxtpx:hr>
          </gpxtpx:TrackPointExtension>
        </extensions>
      </trkpt>
      <trkpt lat="48.71271" lon="1.78191">
        <ele>163.2</ele>
        <time>2026-01-31T10:42:56Z</time>
        <extensions>
          <gpxtpx:TrackPointExtension xmlns:gpxtpx="http://www.garmin.com/xmlschemas/TrackPointExtension/v1">
            <gpxtpx:hr>109</gpxtpx:hr>
          </gpxtpx:TrackPointExtension>
        </extensions>
      </trkpt>
      <trkpt lat="48.71273" lon="1.78193">
        <ele>163.4</ele>
        <time>2026-01-31T10:42:58Z</time>
        <extensions>
          <gpxtpx:TrackPointExtension xmlns:gpxtpx="http://www.garmin.com/xmlschemas/TrackPointExtension/v1">
            <gpxtpx:hr>109</gpxtpx:hr>
          </gpxtpx:TrackPointExtension>
        </extensions>
      </trkpt>
      <trkpt lat="48.71275" lon="1.78195">
        <ele>163.2</ele>
        <time>2026-01-31T10:43:00Z</time>
        <extensions>
          <gpxtpx:TrackPointExtension xmlns:gpxtpx="http://www.garmin.com/xmlschemas/TrackPointExtension/v1">
            <gpxtpx:hr>109</gpxtpx:hr>
          </gpxtpx:TrackPointExtension>
        </extensions>
      </trkpt>
      <trkpt lat="48.71277" lon="1.78198">
        <ele>163</ele>
        <time>2026-01-31T10:43:03Z</time>
        <extensions>
          <gpxtpx:TrackPointExtension xmlns:gpxtpx="http://www.garmin.com/xmlschemas/TrackPointExtension/v1">
            <gpxtpx:hr>109</gpxtpx:hr>
          </gpxtpx:TrackPointExtension>
        </extensions>
      </trkpt>
      <trkpt lat="48.71279" lon="1.78199">
        <ele>162.8</ele>
        <time>2026-01-31T10:43:05Z</time>
        <extensions>
          <gpxtpx:TrackPointExtension xmlns:gpxtpx="http://www.garmin.com/xmlschemas/TrackPointExtension/v1">
            <gpxtpx:hr>109</gpxtpx:hr>
          </gpxtpx:TrackPointExtension>
        </extensions>
      </trkpt>
      <trkpt lat="48.71281" lon="1.78199">
        <ele>162.8</ele>
        <time>2026-01-31T10:43:07Z</time>
        <extensions>
          <gpxtpx:TrackPointExtension xmlns:gpxtpx="http://www.garmin.com/xmlschemas/TrackPointExtension/v1">
            <gpxtpx:hr>109</gpxtpx:hr>
          </gpxtpx:TrackPointExtension>
        </extensions>
      </trkpt>
      <trkpt lat="48.71283" lon="1.78199">
        <ele>162.6</ele>
        <time>2026-01-31T10:43:09Z</time>
        <extensions>
          <gpxtpx:TrackPointExtension xmlns:gpxtpx="http://www.garmin.com/xmlschemas/TrackPointExtension/v1">
            <gpxtpx:hr>109</gpxtpx:hr>
          </gpxtpx:TrackPointExtension>
        </extensions>
      </trkpt>
      <trkpt lat="48.71285" lon="1.782">
        <ele>162.4</ele>
        <time>2026-01-31T10:43:11Z</time>
        <extensions>
          <gpxtpx:TrackPointExtension xmlns:gpxtpx="http://www.garmin.com/xmlschemas/TrackPointExtension/v1">
            <gpxtpx:hr>108</gpxtpx:hr>
          </gpxtpx:TrackPointExtension>
        </extensions>
      </trkpt>
      <trkpt lat="48.71288" lon="1.78201">
        <ele>162.4</ele>
        <time>2026-01-31T10:43:13Z</time>
        <extensions>
          <gpxtpx:TrackPointExtension xmlns:gpxtpx="http://www.garmin.com/xmlschemas/TrackPointExtension/v1">
            <gpxtpx:hr>108</gpxtpx:hr>
          </gpxtpx:TrackPointExtension>
        </extensions>
      </trkpt>
      <trkpt lat="48.7129" lon="1.78202">
        <ele>162.2</ele>
        <time>2026-01-31T10:43:15Z</time>
      </trkpt>
      <trkpt lat="48.71292" lon="1.78204">
        <ele>162.4</ele>
        <time>2026-01-31T10:43:17Z</time>
        <extensions>
          <gpxtpx:TrackPointExtension xmlns:gpxtpx="http://www.garmin.com/xmlschemas/TrackPointExtension/v1">
            <gpxtpx:hr>108</gpxtpx:hr>
          </gpxtpx:TrackPointExtension>
        </extensions>
      </trkpt>
      <trkpt lat="48.71295" lon="1.78204">
        <ele>162.4</ele>
        <time>2026-01-31T10:43:19Z</time>
        <extensions>
          <gpxtpx:TrackPointExtension xmlns:gpxtpx="http://www.garmin.com/xmlschemas/TrackPointExtension/v1">
            <gpxtpx:hr>108</gpxtpx:hr>
          </gpxtpx:TrackPointExtension>
        </extensions>
      </trkpt>
      <trkpt lat="48.71297" lon="1.78206">
        <ele>162.4</ele>
        <time>2026-01-31T10:43:21Z</time>
        <extensions>
          <gpxtpx:TrackPointExtension xmlns:gpxtpx="http://www.garmin.com/xmlschemas/TrackPointExtension/v1">
            <gpxtpx:hr>108</gpxtpx:hr>
          </gpxtpx:TrackPointExtension>
        </extensions>
      </trkpt>
      <trkpt lat="48.71299" lon="1.78207">
        <ele>162.6</ele>
        <time>2026-01-31T10:43:23Z</time>
        <extensions>
          <gpxtpx:TrackPointExtension xmlns:gpxtpx="http://www.garmin.com/xmlschemas/TrackPointExtension/v1">
            <gpxtpx:hr>108</gpxtpx:hr>
          </gpxtpx:TrackPointExtension>
        </extensions>
      </trkpt>
      <trkpt lat="48.71301" lon="1.78208">
        <ele>162.6</ele>
        <time>2026-01-31T10:43:25Z</time>
        <extensions>
          <gpxtpx:TrackPointExtension xmlns:gpxtpx="http://www.garmin.com/xmlschemas/TrackPointExtension/v1">
            <gpxtpx:hr>108</gpxtpx:hr>
          </gpxtpx:TrackPointExtension>
        </extensions>
      </trkpt>
      <trkpt lat="48.71303" lon="1.78209">
        <ele>162.8</ele>
        <time>2026-01-31T10:43:27Z</time>
        <extensions>
          <gpxtpx:TrackPointExtension xmlns:gpxtpx="http://www.garmin.com/xmlschemas/TrackPointExtension/v1">
            <gpxtpx:hr>108</gpxtpx:hr>
          </gpxtpx:TrackPointExtension>
        </extensions>
      </trkpt>
      <trkpt lat="48.71306" lon="1.78209">
        <ele>162.8</ele>
        <time>2026-01-31T10:43:29Z</time>
        <extensions>
          <gpxtpx:TrackPointExtension xmlns:gpxtpx="http://www.garmin.com/xmlschemas/TrackPointExtension/v1">
            <gpxtpx:hr>108</gpxtpx:hr>
          </gpxtpx:TrackPointExtension>
        </extensions>
      </trkpt>
      <trkpt lat="48.71308" lon="1.7821">
        <ele>162.8</ele>
        <time>2026-01-31T10:43:31Z</time>
        <extensions>
          <gpxtpx:TrackPointExtension xmlns:gpxtpx="http://www.garmin.com/xmlschemas/TrackPointExtension/v1">
            <gpxtpx:hr>107</gpxtpx:hr>
          </gpxtpx:TrackPointExtension>
        </extensions>
      </trkpt>
      <trkpt lat="48.7131" lon="1.78211">
        <ele>163</ele>
        <time>2026-01-31T10:43:33Z</time>
        <extensions>
          <gpxtpx:TrackPointExtension xmlns:gpxtpx="http://www.garmin.com/xmlschemas/TrackPointExtension/v1">
            <gpxtpx:hr>107</gpxtpx:hr>
          </gpxtpx:TrackPointExtension>
        </extensions>
      </trkpt>
      <trkpt lat="48.71312" lon="1.78211">
        <ele>163</ele>
        <time>2026-01-31T10:43:35Z</time>
        <extensions>
          <gpxtpx:TrackPointExtension xmlns:gpxtpx="http://www.garmin.com/xmlschemas/TrackPointExtension/v1">
            <gpxtpx:hr>107</gpxtpx:hr>
          </gpxtpx:TrackPointExtension>
        </extensions>
      </trkpt>
      <trkpt lat="48.71315" lon="1.78212">
        <ele>163.2</ele>
        <time>2026-01-31T10:43:38Z</time>
        <extensions>
          <gpxtpx:TrackPointExtension xmlns:gpxtpx="http://www.garmin.com/xmlschemas/TrackPointExtension/v1">
            <gpxtpx:hr>107</gpxtpx:hr>
          </gpxtpx:TrackPointExtension>
        </extensions>
      </trkpt>
      <trkpt lat="48.71317" lon="1.78212">
        <ele>164</ele>
        <time>2026-01-31T10:43:44Z</time>
        <extensions>
          <gpxtpx:TrackPointExtension xmlns:gpxtpx="http://www.garmin.com/xmlschemas/TrackPointExtension/v1">
            <gpxtpx:hr>107</gpxtpx:hr>
          </gpxtpx:TrackPointExtension>
        </extensions>
      </trkpt>
      <trkpt lat="48.7132" lon="1.78212">
        <ele>165.2</ele>
        <time>2026-01-31T10:43:59Z</time>
        <extensions>
          <gpxtpx:TrackPointExtension xmlns:gpxtpx="http://www.garmin.com/xmlschemas/TrackPointExtension/v1">
            <gpxtpx:hr>104</gpxtpx:hr>
          </gpxtpx:TrackPointExtension>
        </extensions>
      </trkpt>
      <trkpt lat="48.71322" lon="1.78213">
        <ele>165.2</ele>
        <time>2026-01-31T10:44:01Z</time>
        <extensions>
          <gpxtpx:TrackPointExtension xmlns:gpxtpx="http://www.garmin.com/xmlschemas/TrackPointExtension/v1">
            <gpxtpx:hr>104</gpxtpx:hr>
          </gpxtpx:TrackPointExtension>
        </extensions>
      </trkpt>
      <trkpt lat="48.71324" lon="1.78213">
        <ele>165.2</ele>
        <time>2026-01-31T10:44:02Z</time>
        <extensions>
          <gpxtpx:TrackPointExtension xmlns:gpxtpx="http://www.garmin.com/xmlschemas/TrackPointExtension/v1">
            <gpxtpx:hr>104</gpxtpx:hr>
          </gpxtpx:TrackPointExtension>
        </extensions>
      </trkpt>
      <trkpt lat="48.71326" lon="1.78214">
        <ele>165.2</ele>
        <time>2026-01-31T10:44:03Z</time>
        <extensions>
          <gpxtpx:TrackPointExtension xmlns:gpxtpx="http://www.garmin.com/xmlschemas/TrackPointExtension/v1">
            <gpxtpx:hr>104</gpxtpx:hr>
          </gpxtpx:TrackPointExtension>
        </extensions>
      </trkpt>
      <trkpt lat="48.71328" lon="1.78214">
        <ele>165.2</ele>
        <time>2026-01-31T10:44:04Z</time>
        <extensions>
          <gpxtpx:TrackPointExtension xmlns:gpxtpx="http://www.garmin.com/xmlschemas/TrackPointExtension/v1">
            <gpxtpx:hr>104</gpxtpx:hr>
          </gpxtpx:TrackPointExtension>
        </extensions>
      </trkpt>
      <trkpt lat="48.7133" lon="1.78215">
        <ele>165.2</ele>
        <time>2026-01-31T10:44:05Z</time>
        <extensions>
          <gpxtpx:TrackPointExtension xmlns:gpxtpx="http://www.garmin.com/xmlschemas/TrackPointExtension/v1">
            <gpxtpx:hr>103</gpxtpx:hr>
          </gpxtpx:TrackPointExtension>
        </extensions>
      </trkpt>
      <trkpt lat="48.71332" lon="1.78216">
        <ele>165.2</ele>
        <time>2026-01-31T10:44:06Z</time>
        <extensions>
          <gpxtpx:TrackPointExtension xmlns:gpxtpx="http://www.garmin.com/xmlschemas/TrackPointExtension/v1">
            <gpxtpx:hr>103</gpxtpx:hr>
          </gpxtpx:TrackPointExtension>
        </extensions>
      </trkpt>
      <trkpt lat="48.71335" lon="1.78217">
        <ele>165.4</ele>
        <time>2026-01-31T10:44:08Z</time>
        <extensions>
          <gpxtpx:TrackPointExtension xmlns:gpxtpx="http://www.garmin.com/xmlschemas/TrackPointExtension/v1">
            <gpxtpx:hr>103</gpxtpx:hr>
          </gpxtpx:TrackPointExtension>
        </extensions>
      </trkpt>
      <trkpt lat="48.71337" lon="1.78218">
        <ele>165.4</ele>
        <time>2026-01-31T10:44:10Z</time>
        <extensions>
          <gpxtpx:TrackPointExtension xmlns:gpxtpx="http://www.garmin.com/xmlschemas/TrackPointExtension/v1">
            <gpxtpx:hr>103</gpxtpx:hr>
          </gpxtpx:TrackPointExtension>
        </extensions>
      </trkpt>
      <trkpt lat="48.7134" lon="1.78219">
        <ele>165.6</ele>
        <time>2026-01-31T10:44:12Z</time>
        <extensions>
          <gpxtpx:TrackPointExtension xmlns:gpxtpx="http://www.garmin.com/xmlschemas/TrackPointExtension/v1">
            <gpxtpx:hr>103</gpxtpx:hr>
          </gpxtpx:TrackPointExtension>
        </extensions>
      </trkpt>
      <trkpt lat="48.71342" lon="1.7822">
        <ele>165.6</ele>
        <time>2026-01-31T10:44:14Z</time>
        <extensions>
          <gpxtpx:TrackPointExtension xmlns:gpxtpx="http://www.garmin.com/xmlschemas/TrackPointExtension/v1">
            <gpxtpx:hr>103</gpxtpx:hr>
          </gpxtpx:TrackPointExtension>
        </extensions>
      </trkpt>
      <trkpt lat="48.71344" lon="1.78221">
        <ele>165.8</ele>
        <time>2026-01-31T10:44:16Z</time>
        <extensions>
          <gpxtpx:TrackPointExtension xmlns:gpxtpx="http://www.garmin.com/xmlschemas/TrackPointExtension/v1">
            <gpxtpx:hr>102</gpxtpx:hr>
          </gpxtpx:TrackPointExtension>
        </extensions>
      </trkpt>
      <trkpt lat="48.71346" lon="1.78222">
        <ele>165.8</ele>
        <time>2026-01-31T10:44:18Z</time>
        <extensions>
          <gpxtpx:TrackPointExtension xmlns:gpxtpx="http://www.garmin.com/xmlschemas/TrackPointExtension/v1">
            <gpxtpx:hr>102</gpxtpx:hr>
          </gpxtpx:TrackPointExtension>
        </extensions>
      </trkpt>
      <trkpt lat="48.71349" lon="1.78224">
        <ele>165.8</ele>
        <time>2026-01-31T10:44:20Z</time>
        <extensions>
          <gpxtpx:TrackPointExtension xmlns:gpxtpx="http://www.garmin.com/xmlschemas/TrackPointExtension/v1">
            <gpxtpx:hr>102</gpxtpx:hr>
          </gpxtpx:TrackPointExtension>
        </extensions>
      </trkpt>
      <trkpt lat="48.71351" lon="1.78225">
        <ele>165.8</ele>
        <time>2026-01-31T10:44:22Z</time>
        <extensions>
          <gpxtpx:TrackPointExtension xmlns:gpxtpx="http://www.garmin.com/xmlschemas/TrackPointExtension/v1">
            <gpxtpx:hr>102</gpxtpx:hr>
          </gpxtpx:TrackPointExtension>
        </extensions>
      </trkpt>
      <trkpt lat="48.71354" lon="1.78226">
        <ele>166</ele>
        <time>2026-01-31T10:44:24Z</time>
        <extensions>
          <gpxtpx:TrackPointExtension xmlns:gpxtpx="http://www.garmin.com/xmlschemas/TrackPointExtension/v1">
            <gpxtpx:hr>102</gpxtpx:hr>
          </gpxtpx:TrackPointExtension>
        </extensions>
      </trkpt>
      <trkpt lat="48.71356" lon="1.78227">
        <ele>166</ele>
        <time>2026-01-31T10:44:26Z</time>
        <extensions>
          <gpxtpx:TrackPointExtension xmlns:gpxtpx="http://www.garmin.com/xmlschemas/TrackPointExtension/v1">
            <gpxtpx:hr>102</gpxtpx:hr>
          </gpxtpx:TrackPointExtension>
        </extensions>
      </trkpt>
      <trkpt lat="48.71359" lon="1.78228">
        <ele>166</ele>
        <time>2026-01-31T10:44:28Z</time>
        <extensions>
          <gpxtpx:TrackPointExtension xmlns:gpxtpx="http://www.garmin.com/xmlschemas/TrackPointExtension/v1">
            <gpxtpx:hr>102</gpxtpx:hr>
          </gpxtpx:TrackPointExtension>
        </extensions>
      </trkpt>
      <trkpt lat="48.71362" lon="1.7823">
        <ele>166.2</ele>
        <time>2026-01-31T10:44:30Z</time>
        <extensions>
          <gpxtpx:TrackPointExtension xmlns:gpxtpx="http://www.garmin.com/xmlschemas/TrackPointExtension/v1">
            <gpxtpx:hr>101</gpxtpx:hr>
          </gpxtpx:TrackPointExtension>
        </extensions>
      </trkpt>
      <trkpt lat="48.71364" lon="1.78231">
        <ele>166.4</ele>
        <time>2026-01-31T10:44:32Z</time>
        <extensions>
          <gpxtpx:TrackPointExtension xmlns:gpxtpx="http://www.garmin.com/xmlschemas/TrackPointExtension/v1">
            <gpxtpx:hr>101</gpxtpx:hr>
          </gpxtpx:TrackPointExtension>
        </extensions>
      </trkpt>
      <trkpt lat="48.71366" lon="1.78232">
        <ele>166.6</ele>
        <time>2026-01-31T10:44:34Z</time>
        <extensions>
          <gpxtpx:TrackPointExtension xmlns:gpxtpx="http://www.garmin.com/xmlschemas/TrackPointExtension/v1">
            <gpxtpx:hr>101</gpxtpx:hr>
          </gpxtpx:TrackPointExtension>
        </extensions>
      </trkpt>
      <trkpt lat="48.71368" lon="1.78232">
        <ele>166.8</ele>
        <time>2026-01-31T10:44:36Z</time>
        <extensions>
          <gpxtpx:TrackPointExtension xmlns:gpxtpx="http://www.garmin.com/xmlschemas/TrackPointExtension/v1">
            <gpxtpx:hr>101</gpxtpx:hr>
          </gpxtpx:TrackPointExtension>
        </extensions>
      </trkpt>
      <trkpt lat="48.71371" lon="1.78232">
        <ele>167.2</ele>
        <time>2026-01-31T10:44:38Z</time>
        <extensions>
          <gpxtpx:TrackPointExtension xmlns:gpxtpx="http://www.garmin.com/xmlschemas/TrackPointExtension/v1">
            <gpxtpx:hr>101</gpxtpx:hr>
          </gpxtpx:TrackPointExtension>
        </extensions>
      </trkpt>
      <trkpt lat="48.71373" lon="1.78233">
        <ele>167.6</ele>
        <time>2026-01-31T10:44:40Z</time>
        <extensions>
          <gpxtpx:TrackPointExtension xmlns:gpxtpx="http://www.garmin.com/xmlschemas/TrackPointExtension/v1">
            <gpxtpx:hr>101</gpxtpx:hr>
          </gpxtpx:TrackPointExtension>
        </extensions>
      </trkpt>
      <trkpt lat="48.71376" lon="1.78234">
        <ele>168</ele>
        <time>2026-01-31T10:44:42Z</time>
        <extensions>
          <gpxtpx:TrackPointExtension xmlns:gpxtpx="http://www.garmin.com/xmlschemas/TrackPointExtension/v1">
            <gpxtpx:hr>101</gpxtpx:hr>
          </gpxtpx:TrackPointExtension>
        </extensions>
      </trkpt>
      <trkpt lat="48.71378" lon="1.78236">
        <ele>168.4</ele>
        <time>2026-01-31T10:44:44Z</time>
        <extensions>
          <gpxtpx:TrackPointExtension xmlns:gpxtpx="http://www.garmin.com/xmlschemas/TrackPointExtension/v1">
            <gpxtpx:hr>100</gpxtpx:hr>
          </gpxtpx:TrackPointExtension>
        </extensions>
      </trkpt>
      <trkpt lat="48.71381" lon="1.78236">
        <ele>168.6</ele>
        <time>2026-01-31T10:44:46Z</time>
        <extensions>
          <gpxtpx:TrackPointExtension xmlns:gpxtpx="http://www.garmin.com/xmlschemas/TrackPointExtension/v1">
            <gpxtpx:hr>101</gpxtpx:hr>
          </gpxtpx:TrackPointExtension>
        </extensions>
      </trkpt>
      <trkpt lat="48.71386" lon="1.78237">
        <ele>169.4</ele>
        <time>2026-01-31T10:44:51Z</time>
        <extensions>
          <gpxtpx:TrackPointExtension xmlns:gpxtpx="http://www.garmin.com/xmlschemas/TrackPointExtension/v1">
            <gpxtpx:hr>101</gpxtpx:hr>
          </gpxtpx:TrackPointExtension>
        </extensions>
      </trkpt>
      <trkpt lat="48.71388" lon="1.78234">
        <ele>175.4</ele>
        <time>2026-01-31T10:45:22Z</time>
        <extensions>
          <gpxtpx:TrackPointExtension xmlns:gpxtpx="http://www.garmin.com/xmlschemas/TrackPointExtension/v1">
            <gpxtpx:hr>95</gpxtpx:hr>
          </gpxtpx:TrackPointExtension>
        </extensions>
      </trkpt>
      <trkpt lat="48.7139" lon="1.78233">
        <ele>175.6</ele>
        <time>2026-01-31T10:45:26Z</time>
        <extensions>
          <gpxtpx:TrackPointExtension xmlns:gpxtpx="http://www.garmin.com/xmlschemas/TrackPointExtension/v1">
            <gpxtpx:hr>96</gpxtpx:hr>
          </gpxtpx:TrackPointExtension>
        </extensions>
      </trkpt>
      <trkpt lat="48.71392" lon="1.78235">
        <ele>175.4</ele>
        <time>2026-01-31T10:45:45Z</time>
        <extensions>
          <gpxtpx:TrackPointExtension xmlns:gpxtpx="http://www.garmin.com/xmlschemas/TrackPointExtension/v1">
            <gpxtpx:hr>95</gpxtpx:hr>
          </gpxtpx:TrackPointExtension>
        </extensions>
      </trkpt>
      <trkpt lat="48.71394" lon="1.78238">
        <ele>175.4</ele>
        <time>2026-01-31T10:45:48Z</time>
        <extensions>
          <gpxtpx:TrackPointExtension xmlns:gpxtpx="http://www.garmin.com/xmlschemas/TrackPointExtension/v1">
            <gpxtpx:hr>95</gpxtpx:hr>
          </gpxtpx:TrackPointExtension>
        </extensions>
      </trkpt>
      <trkpt lat="48.71396" lon="1.7824">
        <ele>175.4</ele>
        <time>2026-01-31T10:45:50Z</time>
        <extensions>
          <gpxtpx:TrackPointExtension xmlns:gpxtpx="http://www.garmin.com/xmlschemas/TrackPointExtension/v1">
            <gpxtpx:hr>95</gpxtpx:hr>
          </gpxtpx:TrackPointExtension>
        </extensions>
      </trkpt>
      <trkpt lat="48.71398" lon="1.78242">
        <ele>175.4</ele>
        <time>2026-01-31T10:45:52Z</time>
        <extensions>
          <gpxtpx:TrackPointExtension xmlns:gpxtpx="http://www.garmin.com/xmlschemas/TrackPointExtension/v1">
            <gpxtpx:hr>95</gpxtpx:hr>
          </gpxtpx:TrackPointExtension>
        </extensions>
      </trkpt>
      <trkpt lat="48.71401" lon="1.78245">
        <ele>175.2</ele>
        <time>2026-01-31T10:45:54Z</time>
        <extensions>
          <gpxtpx:TrackPointExtension xmlns:gpxtpx="http://www.garmin.com/xmlschemas/TrackPointExtension/v1">
            <gpxtpx:hr>96</gpxtpx:hr>
          </gpxtpx:TrackPointExtension>
        </extensions>
      </trkpt>
      <trkpt lat="48.71403" lon="1.78247">
        <ele>175.2</ele>
        <time>2026-01-31T10:45:56Z</time>
        <extensions>
          <gpxtpx:TrackPointExtension xmlns:gpxtpx="http://www.garmin.com/xmlschemas/TrackPointExtension/v1">
            <gpxtpx:hr>96</gpxtpx:hr>
          </gpxtpx:TrackPointExtension>
        </extensions>
      </trkpt>
      <trkpt lat="48.71405" lon="1.78248">
        <ele>175.2</ele>
        <time>2026-01-31T10:45:59Z</time>
        <extensions>
          <gpxtpx:TrackPointExtension xmlns:gpxtpx="http://www.garmin.com/xmlschemas/TrackPointExtension/v1">
            <gpxtpx:hr>96</gpxtpx:hr>
          </gpxtpx:TrackPointExtension>
        </extensions>
      </trkpt>
      <trkpt lat="48.71407" lon="1.78249">
        <ele>175.2</ele>
        <time>2026-01-31T10:46:06Z</time>
        <extensions>
          <gpxtpx:TrackPointExtension xmlns:gpxtpx="http://www.garmin.com/xmlschemas/TrackPointExtension/v1">
            <gpxtpx:hr>96</gpxtpx:hr>
          </gpxtpx:TrackPointExtension>
        </extensions>
      </trkpt>
      <trkpt lat="48.71409" lon="1.78249">
        <ele>175.2</ele>
        <time>2026-01-31T10:46:08Z</time>
        <extensions>
          <gpxtpx:TrackPointExtension xmlns:gpxtpx="http://www.garmin.com/xmlschemas/TrackPointExtension/v1">
            <gpxtpx:hr>95</gpxtpx:hr>
          </gpxtpx:TrackPointExtension>
        </extensions>
      </trkpt>
      <trkpt lat="48.71411" lon="1.78249">
        <ele>175.2</ele>
        <time>2026-01-31T10:46:10Z</time>
        <extensions>
          <gpxtpx:TrackPointExtension xmlns:gpxtpx="http://www.garmin.com/xmlschemas/TrackPointExtension/v1">
            <gpxtpx:hr>96</gpxtpx:hr>
          </gpxtpx:TrackPointExtension>
        </extensions>
      </trkpt>
      <trkpt lat="48.71413" lon="1.7825">
        <ele>175.2</ele>
        <time>2026-01-31T10:46:12Z</time>
        <extensions>
          <gpxtpx:TrackPointExtension xmlns:gpxtpx="http://www.garmin.com/xmlschemas/TrackPointExtension/v1">
            <gpxtpx:hr>97</gpxtpx:hr>
          </gpxtpx:TrackPointExtension>
        </extensions>
      </trkpt>
      <trkpt lat="48.71416" lon="1.78251">
        <ele>175.2</ele>
        <time>2026-01-31T10:46:14Z</time>
        <extensions>
          <gpxtpx:TrackPointExtension xmlns:gpxtpx="http://www.garmin.com/xmlschemas/TrackPointExtension/v1">
            <gpxtpx:hr>97</gpxtpx:hr>
          </gpxtpx:TrackPointExtension>
        </extensions>
      </trkpt>
      <trkpt lat="48.71418" lon="1.78253">
        <ele>175</ele>
        <time>2026-01-31T10:46:16Z</time>
        <extensions>
          <gpxtpx:TrackPointExtension xmlns:gpxtpx="http://www.garmin.com/xmlschemas/TrackPointExtension/v1">
            <gpxtpx:hr>98</gpxtpx:hr>
          </gpxtpx:TrackPointExtension>
        </extensions>
      </trkpt>
      <trkpt lat="48.7142" lon="1.78255">
        <ele>174.8</ele>
        <time>2026-01-31T10:46:18Z</time>
        <extensions>
          <gpxtpx:TrackPointExtension xmlns:gpxtpx="http://www.garmin.com/xmlschemas/TrackPointExtension/v1">
            <gpxtpx:hr>98</gpxtpx:hr>
          </gpxtpx:TrackPointExtension>
        </extensions>
      </trkpt>
      <trkpt lat="48.71422" lon="1.78257">
        <ele>174.6</ele>
        <time>2026-01-31T10:46:20Z</time>
        <extensions>
          <gpxtpx:TrackPointExtension xmlns:gpxtpx="http://www.garmin.com/xmlschemas/TrackPointExtension/v1">
            <gpxtpx:hr>98</gpxtpx:hr>
          </gpxtpx:TrackPointExtension>
        </extensions>
      </trkpt>
      <trkpt lat="48.71425" lon="1.78258">
        <ele>174.6</ele>
        <time>2026-01-31T10:46:22Z</time>
        <extensions>
          <gpxtpx:TrackPointExtension xmlns:gpxtpx="http://www.garmin.com/xmlschemas/TrackPointExtension/v1">
            <gpxtpx:hr>98</gpxtpx:hr>
          </gpxtpx:TrackPointExtension>
        </extensions>
      </trkpt>
      <trkpt lat="48.71426" lon="1.7826">
        <ele>174.4</ele>
        <time>2026-01-31T10:46:24Z</time>
        <extensions>
          <gpxtpx:TrackPointExtension xmlns:gpxtpx="http://www.garmin.com/xmlschemas/TrackPointExtension/v1">
            <gpxtpx:hr>97</gpxtpx:hr>
          </gpxtpx:TrackPointExtension>
        </extensions>
      </trkpt>
      <trkpt lat="48.71429" lon="1.78262">
        <ele>174.4</ele>
        <time>2026-01-31T10:46:26Z</time>
        <extensions>
          <gpxtpx:TrackPointExtension xmlns:gpxtpx="http://www.garmin.com/xmlschemas/TrackPointExtension/v1">
            <gpxtpx:hr>97</gpxtpx:hr>
          </gpxtpx:TrackPointExtension>
        </extensions>
      </trkpt>
      <trkpt lat="48.71431" lon="1.78263">
        <ele>174.2</ele>
        <time>2026-01-31T10:46:28Z</time>
        <extensions>
          <gpxtpx:TrackPointExtension xmlns:gpxtpx="http://www.garmin.com/xmlschemas/TrackPointExtension/v1">
            <gpxtpx:hr>97</gpxtpx:hr>
          </gpxtpx:TrackPointExtension>
        </extensions>
      </trkpt>
      <trkpt lat="48.71434" lon="1.78264">
        <ele>174</ele>
        <time>2026-01-31T10:46:30Z</time>
        <extensions>
          <gpxtpx:TrackPointExtension xmlns:gpxtpx="http://www.garmin.com/xmlschemas/TrackPointExtension/v1">
            <gpxtpx:hr>97</gpxtpx:hr>
          </gpxtpx:TrackPointExtension>
        </extensions>
      </trkpt>
      <trkpt lat="48.71437" lon="1.78265">
        <ele>174</ele>
        <time>2026-01-31T10:46:32Z</time>
        <extensions>
          <gpxtpx:TrackPointExtension xmlns:gpxtpx="http://www.garmin.com/xmlschemas/TrackPointExtension/v1">
            <gpxtpx:hr>98</gpxtpx:hr>
          </gpxtpx:TrackPointExtension>
        </extensions>
      </trkpt>
      <trkpt lat="48.71439" lon="1.78266">
        <ele>173.8</ele>
        <time>2026-01-31T10:46:34Z</time>
        <extensions>
          <gpxtpx:TrackPointExtension xmlns:gpxtpx="http://www.garmin.com/xmlschemas/TrackPointExtension/v1">
            <gpxtpx:hr>98</gpxtpx:hr>
          </gpxtpx:TrackPointExtension>
        </extensions>
      </trkpt>
      <trkpt lat="48.71442" lon="1.78268">
        <ele>173.4</ele>
        <time>2026-01-31T10:46:36Z</time>
        <extensions>
          <gpxtpx:TrackPointExtension xmlns:gpxtpx="http://www.garmin.com/xmlschemas/TrackPointExtension/v1">
            <gpxtpx:hr>98</gpxtpx:hr>
          </gpxtpx:TrackPointExtension>
        </extensions>
      </trkpt>
      <trkpt lat="48.71445" lon="1.78269">
        <ele>173.4</ele>
        <time>2026-01-31T10:46:38Z</time>
        <extensions>
          <gpxtpx:TrackPointExtension xmlns:gpxtpx="http://www.garmin.com/xmlschemas/TrackPointExtension/v1">
            <gpxtpx:hr>98</gpxtpx:hr>
          </gpxtpx:TrackPointExtension>
        </extensions>
      </trkpt>
      <trkpt lat="48.71447" lon="1.7827">
        <ele>173.2</ele>
        <time>2026-01-31T10:46:40Z</time>
        <extensions>
          <gpxtpx:TrackPointExtension xmlns:gpxtpx="http://www.garmin.com/xmlschemas/TrackPointExtension/v1">
            <gpxtpx:hr>98</gpxtpx:hr>
          </gpxtpx:TrackPointExtension>
        </extensions>
      </trkpt>
      <trkpt lat="48.7145" lon="1.78271">
        <ele>173.2</ele>
        <time>2026-01-31T10:46:42Z</time>
        <extensions>
          <gpxtpx:TrackPointExtension xmlns:gpxtpx="http://www.garmin.com/xmlschemas/TrackPointExtension/v1">
            <gpxtpx:hr>98</gpxtpx:hr>
          </gpxtpx:TrackPointExtension>
        </extensions>
      </trkpt>
      <trkpt lat="48.71453" lon="1.78271">
        <ele>173.2</ele>
        <time>2026-01-31T10:46:44Z</time>
        <extensions>
          <gpxtpx:TrackPointExtension xmlns:gpxtpx="http://www.garmin.com/xmlschemas/TrackPointExtension/v1">
            <gpxtpx:hr>98</gpxtpx:hr>
          </gpxtpx:TrackPointExtension>
        </extensions>
      </trkpt>
      <trkpt lat="48.71455" lon="1.78272">
        <ele>173.2</ele>
        <time>2026-01-31T10:46:46Z</time>
        <extensions>
          <gpxtpx:TrackPointExtension xmlns:gpxtpx="http://www.garmin.com/xmlschemas/TrackPointExtension/v1">
            <gpxtpx:hr>98</gpxtpx:hr>
          </gpxtpx:TrackPointExtension>
        </extensions>
      </trkpt>
      <trkpt lat="48.71458" lon="1.78273">
        <ele>173.2</ele>
        <time>2026-01-31T10:46:48Z</time>
        <extensions>
          <gpxtpx:TrackPointExtension xmlns:gpxtpx="http://www.garmin.com/xmlschemas/TrackPointExtension/v1">
            <gpxtpx:hr>98</gpxtpx:hr>
          </gpxtpx:TrackPointExtension>
        </extensions>
      </trkpt>
      <trkpt lat="48.7146" lon="1.78274">
        <ele>173.4</ele>
        <time>2026-01-31T10:46:50Z</time>
        <extensions>
          <gpxtpx:TrackPointExtension xmlns:gpxtpx="http://www.garmin.com/xmlschemas/TrackPointExtension/v1">
            <gpxtpx:hr>98</gpxtpx:hr>
          </gpxtpx:TrackPointExtension>
        </extensions>
      </trkpt>
      <trkpt lat="48.71463" lon="1.78275">
        <ele>173.2</ele>
        <time>2026-01-31T10:46:52Z</time>
        <extensions>
          <gpxtpx:TrackPointExtension xmlns:gpxtpx="http://www.garmin.com/xmlschemas/TrackPointExtension/v1">
            <gpxtpx:hr>99</gpxtpx:hr>
          </gpxtpx:TrackPointExtension>
        </extensions>
      </trkpt>
      <trkpt lat="48.71466" lon="1.78277">
        <ele>173.2</ele>
        <time>2026-01-31T10:46:54Z</time>
        <extensions>
          <gpxtpx:TrackPointExtension xmlns:gpxtpx="http://www.garmin.com/xmlschemas/TrackPointExtension/v1">
            <gpxtpx:hr>99</gpxtpx:hr>
          </gpxtpx:TrackPointExtension>
        </extensions>
      </trkpt>
      <trkpt lat="48.71468" lon="1.78279">
        <ele>173.2</ele>
        <time>2026-01-31T10:46:56Z</time>
        <extensions>
          <gpxtpx:TrackPointExtension xmlns:gpxtpx="http://www.garmin.com/xmlschemas/TrackPointExtension/v1">
            <gpxtpx:hr>100</gpxtpx:hr>
          </gpxtpx:TrackPointExtension>
        </extensions>
      </trkpt>
      <trkpt lat="48.71471" lon="1.7828">
        <ele>173.2</ele>
        <time>2026-01-31T10:46:58Z</time>
        <extensions>
          <gpxtpx:TrackPointExtension xmlns:gpxtpx="http://www.garmin.com/xmlschemas/TrackPointExtension/v1">
            <gpxtpx:hr>100</gpxtpx:hr>
          </gpxtpx:TrackPointExtension>
        </extensions>
      </trkpt>
      <trkpt lat="48.71475" lon="1.78281">
        <ele>173.2</ele>
        <time>2026-01-31T10:47:00Z</time>
        <extensions>
          <gpxtpx:TrackPointExtension xmlns:gpxtpx="http://www.garmin.com/xmlschemas/TrackPointExtension/v1">
            <gpxtpx:hr>100</gpxtpx:hr>
          </gpxtpx:TrackPointExtension>
        </extensions>
      </trkpt>
      <trkpt lat="48.71477" lon="1.78282">
        <ele>173</ele>
        <time>2026-01-31T10:47:02Z</time>
        <extensions>
          <gpxtpx:TrackPointExtension xmlns:gpxtpx="http://www.garmin.com/xmlschemas/TrackPointExtension/v1">
            <gpxtpx:hr>100</gpxtpx:hr>
          </gpxtpx:TrackPointExtension>
        </extensions>
      </trkpt>
      <trkpt lat="48.71479" lon="1.78284">
        <ele>172.8</ele>
        <time>2026-01-31T10:47:04Z</time>
        <extensions>
          <gpxtpx:TrackPointExtension xmlns:gpxtpx="http://www.garmin.com/xmlschemas/TrackPointExtension/v1">
            <gpxtpx:hr>100</gpxtpx:hr>
          </gpxtpx:TrackPointExtension>
        </extensions>
      </trkpt>
      <trkpt lat="48.71482" lon="1.78285">
        <ele>172.8</ele>
        <time>2026-01-31T10:47:06Z</time>
        <extensions>
          <gpxtpx:TrackPointExtension xmlns:gpxtpx="http://www.garmin.com/xmlschemas/TrackPointExtension/v1">
            <gpxtpx:hr>100</gpxtpx:hr>
          </gpxtpx:TrackPointExtension>
        </extensions>
      </trkpt>
      <trkpt lat="48.71485" lon="1.78285">
        <ele>172.8</ele>
        <time>2026-01-31T10:47:08Z</time>
        <extensions>
          <gpxtpx:TrackPointExtension xmlns:gpxtpx="http://www.garmin.com/xmlschemas/TrackPointExtension/v1">
            <gpxtpx:hr>100</gpxtpx:hr>
          </gpxtpx:TrackPointExtension>
        </extensions>
      </trkpt>
      <trkpt lat="48.71488" lon="1.78286">
        <ele>172.8</ele>
        <time>2026-01-31T10:47:10Z</time>
        <extensions>
          <gpxtpx:TrackPointExtension xmlns:gpxtpx="http://www.garmin.com/xmlschemas/TrackPointExtension/v1">
            <gpxtpx:hr>100</gpxtpx:hr>
          </gpxtpx:TrackPointExtension>
        </extensions>
      </trkpt>
      <trkpt lat="48.71491" lon="1.78286">
        <ele>172.8</ele>
        <time>2026-01-31T10:47:12Z</time>
        <extensions>
          <gpxtpx:TrackPointExtension xmlns:gpxtpx="http://www.garmin.com/xmlschemas/TrackPointExtension/v1">
            <gpxtpx:hr>100</gpxtpx:hr>
          </gpxtpx:TrackPointExtension>
        </extensions>
      </trkpt>
      <trkpt lat="48.71494" lon="1.78285">
        <ele>172.8</ele>
        <time>2026-01-31T10:47:14Z</time>
        <extensions>
          <gpxtpx:TrackPointExtension xmlns:gpxtpx="http://www.garmin.com/xmlschemas/TrackPointExtension/v1">
            <gpxtpx:hr>100</gpxtpx:hr>
          </gpxtpx:TrackPointExtension>
        </extensions>
      </trkpt>
      <trkpt lat="48.71497" lon="1.78285">
        <ele>173</ele>
        <time>2026-01-31T10:47:16Z</time>
        <extensions>
          <gpxtpx:TrackPointExtension xmlns:gpxtpx="http://www.garmin.com/xmlschemas/TrackPointExtension/v1">
            <gpxtpx:hr>100</gpxtpx:hr>
          </gpxtpx:TrackPointExtension>
        </extensions>
      </trkpt>
      <trkpt lat="48.71499" lon="1.78284">
        <ele>173.2</ele>
        <time>2026-01-31T10:47:18Z</time>
        <extensions>
          <gpxtpx:TrackPointExtension xmlns:gpxtpx="http://www.garmin.com/xmlschemas/TrackPointExtension/v1">
            <gpxtpx:hr>100</gpxtpx:hr>
          </gpxtpx:TrackPointExtension>
        </extensions>
      </trkpt>
      <trkpt lat="48.71502" lon="1.78285">
        <ele>173.4</ele>
        <time>2026-01-31T10:47:20Z</time>
        <extensions>
          <gpxtpx:TrackPointExtension xmlns:gpxtpx="http://www.garmin.com/xmlschemas/TrackPointExtension/v1">
            <gpxtpx:hr>100</gpxtpx:hr>
          </gpxtpx:TrackPointExtension>
        </extensions>
      </trkpt>
      <trkpt lat="48.71505" lon="1.78286">
        <ele>173.4</ele>
        <time>2026-01-31T10:47:22Z</time>
        <extensions>
          <gpxtpx:TrackPointExtension xmlns:gpxtpx="http://www.garmin.com/xmlschemas/TrackPointExtension/v1">
            <gpxtpx:hr>100</gpxtpx:hr>
          </gpxtpx:TrackPointExtension>
        </extensions>
      </trkpt>
      <trkpt lat="48.71508" lon="1.78287">
        <ele>173.4</ele>
        <time>2026-01-31T10:47:24Z</time>
        <extensions>
          <gpxtpx:TrackPointExtension xmlns:gpxtpx="http://www.garmin.com/xmlschemas/TrackPointExtension/v1">
            <gpxtpx:hr>100</gpxtpx:hr>
          </gpxtpx:TrackPointExtension>
        </extensions>
      </trkpt>
      <trkpt lat="48.71511" lon="1.78288">
        <ele>173.4</ele>
        <time>2026-01-31T10:47:26Z</time>
        <extensions>
          <gpxtpx:TrackPointExtension xmlns:gpxtpx="http://www.garmin.com/xmlschemas/TrackPointExtension/v1">
            <gpxtpx:hr>100</gpxtpx:hr>
          </gpxtpx:TrackPointExtension>
        </extensions>
      </trkpt>
      <trkpt lat="48.71513" lon="1.7829">
        <ele>173.2</ele>
        <time>2026-01-31T10:47:28Z</time>
        <extensions>
          <gpxtpx:TrackPointExtension xmlns:gpxtpx="http://www.garmin.com/xmlschemas/TrackPointExtension/v1">
            <gpxtpx:hr>100</gpxtpx:hr>
          </gpxtpx:TrackPointExtension>
        </extensions>
      </trkpt>
      <trkpt lat="48.71516" lon="1.78292">
        <ele>173.2</ele>
        <time>2026-01-31T10:47:30Z</time>
        <extensions>
          <gpxtpx:TrackPointExtension xmlns:gpxtpx="http://www.garmin.com/xmlschemas/TrackPointExtension/v1">
            <gpxtpx:hr>100</gpxtpx:hr>
          </gpxtpx:TrackPointExtension>
        </extensions>
      </trkpt>
      <trkpt lat="48.71519" lon="1.78294">
        <ele>173.2</ele>
        <time>2026-01-31T10:47:32Z</time>
        <extensions>
          <gpxtpx:TrackPointExtension xmlns:gpxtpx="http://www.garmin.com/xmlschemas/TrackPointExtension/v1">
            <gpxtpx:hr>100</gpxtpx:hr>
          </gpxtpx:TrackPointExtension>
        </extensions>
      </trkpt>
      <trkpt lat="48.71521" lon="1.78295">
        <ele>173</ele>
        <time>2026-01-31T10:47:34Z</time>
        <extensions>
          <gpxtpx:TrackPointExtension xmlns:gpxtpx="http://www.garmin.com/xmlschemas/TrackPointExtension/v1">
            <gpxtpx:hr>100</gpxtpx:hr>
          </gpxtpx:TrackPointExtension>
        </extensions>
      </trkpt>
      <trkpt lat="48.71524" lon="1.78297">
        <ele>172.8</ele>
        <time>2026-01-31T10:47:36Z</time>
        <extensions>
          <gpxtpx:TrackPointExtension xmlns:gpxtpx="http://www.garmin.com/xmlschemas/TrackPointExtension/v1">
            <gpxtpx:hr>100</gpxtpx:hr>
          </gpxtpx:TrackPointExtension>
        </extensions>
      </trkpt>
      <trkpt lat="48.71526" lon="1.78299">
        <ele>172.8</ele>
        <time>2026-01-31T10:47:38Z</time>
        <extensions>
          <gpxtpx:TrackPointExtension xmlns:gpxtpx="http://www.garmin.com/xmlschemas/TrackPointExtension/v1">
            <gpxtpx:hr>100</gpxtpx:hr>
          </gpxtpx:TrackPointExtension>
        </extensions>
      </trkpt>
      <trkpt lat="48.71528" lon="1.783">
        <ele>172.8</ele>
        <time>2026-01-31T10:47:40Z</time>
        <extensions>
          <gpxtpx:TrackPointExtension xmlns:gpxtpx="http://www.garmin.com/xmlschemas/TrackPointExtension/v1">
            <gpxtpx:hr>100</gpxtpx:hr>
          </gpxtpx:TrackPointExtension>
        </extensions>
      </trkpt>
      <trkpt lat="48.71531" lon="1.78302">
        <ele>172.8</ele>
        <time>2026-01-31T10:47:42Z</time>
        <extensions>
          <gpxtpx:TrackPointExtension xmlns:gpxtpx="http://www.garmin.com/xmlschemas/TrackPointExtension/v1">
            <gpxtpx:hr>100</gpxtpx:hr>
          </gpxtpx:TrackPointExtension>
        </extensions>
      </trkpt>
      <trkpt lat="48.71533" lon="1.78303">
        <ele>173</ele>
        <time>2026-01-31T10:47:44Z</time>
        <extensions>
          <gpxtpx:TrackPointExtension xmlns:gpxtpx="http://www.garmin.com/xmlschemas/TrackPointExtension/v1">
            <gpxtpx:hr>100</gpxtpx:hr>
          </gpxtpx:TrackPointExtension>
        </extensions>
      </trkpt>
      <trkpt lat="48.71536" lon="1.78305">
        <ele>173</ele>
        <time>2026-01-31T10:47:46Z</time>
        <extensions>
          <gpxtpx:TrackPointExtension xmlns:gpxtpx="http://www.garmin.com/xmlschemas/TrackPointExtension/v1">
            <gpxtpx:hr>101</gpxtpx:hr>
          </gpxtpx:TrackPointExtension>
        </extensions>
      </trkpt>
      <trkpt lat="48.71539" lon="1.78306">
        <ele>173</ele>
        <time>2026-01-31T10:47:48Z</time>
        <extensions>
          <gpxtpx:TrackPointExtension xmlns:gpxtpx="http://www.garmin.com/xmlschemas/TrackPointExtension/v1">
            <gpxtpx:hr>101</gpxtpx:hr>
          </gpxtpx:TrackPointExtension>
        </extensions>
      </trkpt>
      <trkpt lat="48.71542" lon="1.78308">
        <ele>173</ele>
        <time>2026-01-31T10:47:50Z</time>
        <extensions>
          <gpxtpx:TrackPointExtension xmlns:gpxtpx="http://www.garmin.com/xmlschemas/TrackPointExtension/v1">
            <gpxtpx:hr>101</gpxtpx:hr>
          </gpxtpx:TrackPointExtension>
        </extensions>
      </trkpt>
      <trkpt lat="48.71545" lon="1.78309">
        <ele>173.2</ele>
        <time>2026-01-31T10:47:52Z</time>
        <extensions>
          <gpxtpx:TrackPointExtension xmlns:gpxtpx="http://www.garmin.com/xmlschemas/TrackPointExtension/v1">
            <gpxtpx:hr>101</gpxtpx:hr>
          </gpxtpx:TrackPointExtension>
        </extensions>
      </trkpt>
      <trkpt lat="48.71548" lon="1.78311">
        <ele>173.2</ele>
        <time>2026-01-31T10:47:54Z</time>
        <extensions>
          <gpxtpx:TrackPointExtension xmlns:gpxtpx="http://www.garmin.com/xmlschemas/TrackPointExtension/v1">
            <gpxtpx:hr>101</gpxtpx:hr>
          </gpxtpx:TrackPointExtension>
        </extensions>
      </trkpt>
      <trkpt lat="48.7155" lon="1.78312">
        <ele>173.4</ele>
        <time>2026-01-31T10:47:56Z</time>
        <extensions>
          <gpxtpx:TrackPointExtension xmlns:gpxtpx="http://www.garmin.com/xmlschemas/TrackPointExtension/v1">
            <gpxtpx:hr>101</gpxtpx:hr>
          </gpxtpx:TrackPointExtension>
        </extensions>
      </trkpt>
      <trkpt lat="48.71553" lon="1.78314">
        <ele>173.6</ele>
        <time>2026-01-31T10:47:58Z</time>
        <extensions>
          <gpxtpx:TrackPointExtension xmlns:gpxtpx="http://www.garmin.com/xmlschemas/TrackPointExtension/v1">
            <gpxtpx:hr>101</gpxtpx:hr>
          </gpxtpx:TrackPointExtension>
        </extensions>
      </trkpt>
      <trkpt lat="48.71555" lon="1.78316">
        <ele>174</ele>
        <time>2026-01-31T10:48:00Z</time>
        <extensions>
          <gpxtpx:TrackPointExtension xmlns:gpxtpx="http://www.garmin.com/xmlschemas/TrackPointExtension/v1">
            <gpxtpx:hr>101</gpxtpx:hr>
          </gpxtpx:TrackPointExtension>
        </extensions>
      </trkpt>
      <trkpt lat="48.71558" lon="1.78317">
        <ele>174.2</ele>
        <time>2026-01-31T10:48:02Z</time>
        <extensions>
          <gpxtpx:TrackPointExtension xmlns:gpxtpx="http://www.garmin.com/xmlschemas/TrackPointExtension/v1">
            <gpxtpx:hr>101</gpxtpx:hr>
          </gpxtpx:TrackPointExtension>
        </extensions>
      </trkpt>
      <trkpt lat="48.7156" lon="1.78318">
        <ele>174.6</ele>
        <time>2026-01-31T10:48:04Z</time>
        <extensions>
          <gpxtpx:TrackPointExtension xmlns:gpxtpx="http://www.garmin.com/xmlschemas/TrackPointExtension/v1">
            <gpxtpx:hr>101</gpxtpx:hr>
          </gpxtpx:TrackPointExtension>
        </extensions>
      </trkpt>
      <trkpt lat="48.71563" lon="1.78319">
        <ele>175</ele>
        <time>2026-01-31T10:48:06Z</time>
        <extensions>
          <gpxtpx:TrackPointExtension xmlns:gpxtpx="http://www.garmin.com/xmlschemas/TrackPointExtension/v1">
            <gpxtpx:hr>101</gpxtpx:hr>
          </gpxtpx:TrackPointExtension>
        </extensions>
      </trkpt>
      <trkpt lat="48.71566" lon="1.7832">
        <ele>175.4</ele>
        <time>2026-01-31T10:48:08Z</time>
        <extensions>
          <gpxtpx:TrackPointExtension xmlns:gpxtpx="http://www.garmin.com/xmlschemas/TrackPointExtension/v1">
            <gpxtpx:hr>101</gpxtpx:hr>
          </gpxtpx:TrackPointExtension>
        </extensions>
      </trkpt>
      <trkpt lat="48.71569" lon="1.78322">
        <ele>175.6</ele>
        <time>2026-01-31T10:48:10Z</time>
        <extensions>
          <gpxtpx:TrackPointExtension xmlns:gpxtpx="http://www.garmin.com/xmlschemas/TrackPointExtension/v1">
            <gpxtpx:hr>101</gpxtpx:hr>
          </gpxtpx:TrackPointExtension>
        </extensions>
      </trkpt>
      <trkpt lat="48.71571" lon="1.78323">
        <ele>176</ele>
        <time>2026-01-31T10:48:12Z</time>
        <extensions>
          <gpxtpx:TrackPointExtension xmlns:gpxtpx="http://www.garmin.com/xmlschemas/TrackPointExtension/v1">
            <gpxtpx:hr>101</gpxtpx:hr>
          </gpxtpx:TrackPointExtension>
        </extensions>
      </trkpt>
      <trkpt lat="48.71574" lon="1.78323">
        <ele>176.2</ele>
        <time>2026-01-31T10:48:14Z</time>
        <extensions>
          <gpxtpx:TrackPointExtension xmlns:gpxtpx="http://www.garmin.com/xmlschemas/TrackPointExtension/v1">
            <gpxtpx:hr>101</gpxtpx:hr>
          </gpxtpx:TrackPointExtension>
        </extensions>
      </trkpt>
      <trkpt lat="48.71576" lon="1.78325">
        <ele>176.4</ele>
        <time>2026-01-31T10:48:16Z</time>
        <extensions>
          <gpxtpx:TrackPointExtension xmlns:gpxtpx="http://www.garmin.com/xmlschemas/TrackPointExtension/v1">
            <gpxtpx:hr>101</gpxtpx:hr>
          </gpxtpx:TrackPointExtension>
        </extensions>
      </trkpt>
      <trkpt lat="48.71579" lon="1.78327">
        <ele>176.6</ele>
        <time>2026-01-31T10:48:18Z</time>
        <extensions>
          <gpxtpx:TrackPointExtension xmlns:gpxtpx="http://www.garmin.com/xmlschemas/TrackPointExtension/v1">
            <gpxtpx:hr>101</gpxtpx:hr>
          </gpxtpx:TrackPointExtension>
        </extensions>
      </trkpt>
      <trkpt lat="48.71582" lon="1.78329">
        <ele>176.8</ele>
        <time>2026-01-31T10:48:20Z</time>
        <extensions>
          <gpxtpx:TrackPointExtension xmlns:gpxtpx="http://www.garmin.com/xmlschemas/TrackPointExtension/v1">
            <gpxtpx:hr>101</gpxtpx:hr>
          </gpxtpx:TrackPointExtension>
        </extensions>
      </trkpt>
      <trkpt lat="48.71585" lon="1.78331">
        <ele>176.8</ele>
        <time>2026-01-31T10:48:22Z</time>
        <extensions>
          <gpxtpx:TrackPointExtension xmlns:gpxtpx="http://www.garmin.com/xmlschemas/TrackPointExtension/v1">
            <gpxtpx:hr>101</gpxtpx:hr>
          </gpxtpx:TrackPointExtension>
        </extensions>
      </trkpt>
      <trkpt lat="48.71588" lon="1.78333">
        <ele>176.8</ele>
        <time>2026-01-31T10:48:24Z</time>
        <extensions>
          <gpxtpx:TrackPointExtension xmlns:gpxtpx="http://www.garmin.com/xmlschemas/TrackPointExtension/v1">
            <gpxtpx:hr>102</gpxtpx:hr>
          </gpxtpx:TrackPointExtension>
        </extensions>
      </trkpt>
      <trkpt lat="48.7159" lon="1.78334">
        <ele>176.8</ele>
        <time>2026-01-31T10:48:26Z</time>
        <extensions>
          <gpxtpx:TrackPointExtension xmlns:gpxtpx="http://www.garmin.com/xmlschemas/TrackPointExtension/v1">
            <gpxtpx:hr>102</gpxtpx:hr>
          </gpxtpx:TrackPointExtension>
        </extensions>
      </trkpt>
      <trkpt lat="48.71593" lon="1.78335">
        <ele>177</ele>
        <time>2026-01-31T10:48:28Z</time>
        <extensions>
          <gpxtpx:TrackPointExtension xmlns:gpxtpx="http://www.garmin.com/xmlschemas/TrackPointExtension/v1">
            <gpxtpx:hr>101</gpxtpx:hr>
          </gpxtpx:TrackPointExtension>
        </extensions>
      </trkpt>
      <trkpt lat="48.71596" lon="1.78335">
        <ele>177</ele>
        <time>2026-01-31T10:48:30Z</time>
        <extensions>
          <gpxtpx:TrackPointExtension xmlns:gpxtpx="http://www.garmin.com/xmlschemas/TrackPointExtension/v1">
            <gpxtpx:hr>101</gpxtpx:hr>
          </gpxtpx:TrackPointExtension>
        </extensions>
      </trkpt>
      <trkpt lat="48.71598" lon="1.78336">
        <ele>177</ele>
        <time>2026-01-31T10:48:32Z</time>
        <extensions>
          <gpxtpx:TrackPointExtension xmlns:gpxtpx="http://www.garmin.com/xmlschemas/TrackPointExtension/v1">
            <gpxtpx:hr>101</gpxtpx:hr>
          </gpxtpx:TrackPointExtension>
        </extensions>
      </trkpt>
      <trkpt lat="48.71601" lon="1.78337">
        <ele>176.8</ele>
        <time>2026-01-31T10:48:34Z</time>
        <extensions>
          <gpxtpx:TrackPointExtension xmlns:gpxtpx="http://www.garmin.com/xmlschemas/TrackPointExtension/v1">
            <gpxtpx:hr>101</gpxtpx:hr>
          </gpxtpx:TrackPointExtension>
        </extensions>
      </trkpt>
      <trkpt lat="48.71604" lon="1.78339">
        <ele>176.6</ele>
        <time>2026-01-31T10:48:36Z</time>
        <extensions>
          <gpxtpx:TrackPointExtension xmlns:gpxtpx="http://www.garmin.com/xmlschemas/TrackPointExtension/v1">
            <gpxtpx:hr>101</gpxtpx:hr>
          </gpxtpx:TrackPointExtension>
        </extensions>
      </trkpt>
      <trkpt lat="48.71607" lon="1.78341">
        <ele>176.6</ele>
        <time>2026-01-31T10:48:38Z</time>
        <extensions>
          <gpxtpx:TrackPointExtension xmlns:gpxtpx="http://www.garmin.com/xmlschemas/TrackPointExtension/v1">
            <gpxtpx:hr>101</gpxtpx:hr>
          </gpxtpx:TrackPointExtension>
        </extensions>
      </trkpt>
      <trkpt lat="48.7161" lon="1.78341">
        <ele>176.6</ele>
        <time>2026-01-31T10:48:40Z</time>
        <extensions>
          <gpxtpx:TrackPointExtension xmlns:gpxtpx="http://www.garmin.com/xmlschemas/TrackPointExtension/v1">
            <gpxtpx:hr>101</gpxtpx:hr>
          </gpxtpx:TrackPointExtension>
        </extensions>
      </trkpt>
      <trkpt lat="48.71612" lon="1.78342">
        <ele>176.4</ele>
        <time>2026-01-31T10:48:42Z</time>
        <extensions>
          <gpxtpx:TrackPointExtension xmlns:gpxtpx="http://www.garmin.com/xmlschemas/TrackPointExtension/v1">
            <gpxtpx:hr>101</gpxtpx:hr>
          </gpxtpx:TrackPointExtension>
        </extensions>
      </trkpt>
      <trkpt lat="48.71615" lon="1.78343">
        <ele>176.4</ele>
        <time>2026-01-31T10:48:44Z</time>
        <extensions>
          <gpxtpx:TrackPointExtension xmlns:gpxtpx="http://www.garmin.com/xmlschemas/TrackPointExtension/v1">
            <gpxtpx:hr>102</gpxtpx:hr>
          </gpxtpx:TrackPointExtension>
        </extensions>
      </trkpt>
      <trkpt lat="48.71618" lon="1.78344">
        <ele>176.4</ele>
        <time>2026-01-31T10:48:46Z</time>
        <extensions>
          <gpxtpx:TrackPointExtension xmlns:gpxtpx="http://www.garmin.com/xmlschemas/TrackPointExtension/v1">
            <gpxtpx:hr>102</gpxtpx:hr>
          </gpxtpx:TrackPointExtension>
        </extensions>
      </trkpt>
      <trkpt lat="48.7162" lon="1.78345">
        <ele>176.6</ele>
        <time>2026-01-31T10:48:48Z</time>
        <extensions>
          <gpxtpx:TrackPointExtension xmlns:gpxtpx="http://www.garmin.com/xmlschemas/TrackPointExtension/v1">
            <gpxtpx:hr>102</gpxtpx:hr>
          </gpxtpx:TrackPointExtension>
        </extensions>
      </trkpt>
      <trkpt lat="48.71623" lon="1.78347">
        <ele>176.6</ele>
        <time>2026-01-31T10:48:50Z</time>
        <extensions>
          <gpxtpx:TrackPointExtension xmlns:gpxtpx="http://www.garmin.com/xmlschemas/TrackPointExtension/v1">
            <gpxtpx:hr>102</gpxtpx:hr>
          </gpxtpx:TrackPointExtension>
        </extensions>
      </trkpt>
      <trkpt lat="48.71626" lon="1.78349">
        <ele>176.6</ele>
        <time>2026-01-31T10:48:52Z</time>
        <extensions>
          <gpxtpx:TrackPointExtension xmlns:gpxtpx="http://www.garmin.com/xmlschemas/TrackPointExtension/v1">
            <gpxtpx:hr>102</gpxtpx:hr>
          </gpxtpx:TrackPointExtension>
        </extensions>
      </trkpt>
      <trkpt lat="48.71628" lon="1.78351">
        <ele>176.6</ele>
        <time>2026-01-31T10:48:54Z</time>
        <extensions>
          <gpxtpx:TrackPointExtension xmlns:gpxtpx="http://www.garmin.com/xmlschemas/TrackPointExtension/v1">
            <gpxtpx:hr>102</gpxtpx:hr>
          </gpxtpx:TrackPointExtension>
        </extensions>
      </trkpt>
      <trkpt lat="48.71631" lon="1.78353">
        <ele>176.8</ele>
        <time>2026-01-31T10:48:56Z</time>
        <extensions>
          <gpxtpx:TrackPointExtension xmlns:gpxtpx="http://www.garmin.com/xmlschemas/TrackPointExtension/v1">
            <gpxtpx:hr>102</gpxtpx:hr>
          </gpxtpx:TrackPointExtension>
        </extensions>
      </trkpt>
      <trkpt lat="48.71634" lon="1.78356">
        <ele>176.6</ele>
        <time>2026-01-31T10:48:58Z</time>
        <extensions>
          <gpxtpx:TrackPointExtension xmlns:gpxtpx="http://www.garmin.com/xmlschemas/TrackPointExtension/v1">
            <gpxtpx:hr>102</gpxtpx:hr>
          </gpxtpx:TrackPointExtension>
        </extensions>
      </trkpt>
      <trkpt lat="48.71636" lon="1.78359">
        <ele>176.6</ele>
        <time>2026-01-31T10:49:00Z</time>
        <extensions>
          <gpxtpx:TrackPointExtension xmlns:gpxtpx="http://www.garmin.com/xmlschemas/TrackPointExtension/v1">
            <gpxtpx:hr>102</gpxtpx:hr>
          </gpxtpx:TrackPointExtension>
        </extensions>
      </trkpt>
      <trkpt lat="48.71638" lon="1.78363">
        <ele>176.6</ele>
        <time>2026-01-31T10:49:02Z</time>
        <extensions>
          <gpxtpx:TrackPointExtension xmlns:gpxtpx="http://www.garmin.com/xmlschemas/TrackPointExtension/v1">
            <gpxtpx:hr>102</gpxtpx:hr>
          </gpxtpx:TrackPointExtension>
        </extensions>
      </trkpt>
      <trkpt lat="48.71639" lon="1.78366">
        <ele>176.6</ele>
        <time>2026-01-31T10:49:04Z</time>
        <extensions>
          <gpxtpx:TrackPointExtension xmlns:gpxtpx="http://www.garmin.com/xmlschemas/TrackPointExtension/v1">
            <gpxtpx:hr>102</gpxtpx:hr>
          </gpxtpx:TrackPointExtension>
        </extensions>
      </trkpt>
      <trkpt lat="48.7164" lon="1.7837">
        <ele>176.6</ele>
        <time>2026-01-31T10:49:06Z</time>
        <extensions>
          <gpxtpx:TrackPointExtension xmlns:gpxtpx="http://www.garmin.com/xmlschemas/TrackPointExtension/v1">
            <gpxtpx:hr>102</gpxtpx:hr>
          </gpxtpx:TrackPointExtension>
        </extensions>
      </trkpt>
      <trkpt lat="48.71642" lon="1.78375">
        <ele>176.4</ele>
        <time>2026-01-31T10:49:08Z</time>
        <extensions>
          <gpxtpx:TrackPointExtension xmlns:gpxtpx="http://www.garmin.com/xmlschemas/TrackPointExtension/v1">
            <gpxtpx:hr>102</gpxtpx:hr>
          </gpxtpx:TrackPointExtension>
        </extensions>
      </trkpt>
      <trkpt lat="48.71643" lon="1.78379">
        <ele>176.4</ele>
        <time>2026-01-31T10:49:10Z</time>
        <extensions>
          <gpxtpx:TrackPointExtension xmlns:gpxtpx="http://www.garmin.com/xmlschemas/TrackPointExtension/v1">
            <gpxtpx:hr>102</gpxtpx:hr>
          </gpxtpx:TrackPointExtension>
        </extensions>
      </trkpt>
      <trkpt lat="48.71644" lon="1.78384">
        <ele>176.6</ele>
        <time>2026-01-31T10:49:12Z</time>
        <extensions>
          <gpxtpx:TrackPointExtension xmlns:gpxtpx="http://www.garmin.com/xmlschemas/TrackPointExtension/v1">
            <gpxtpx:hr>102</gpxtpx:hr>
          </gpxtpx:TrackPointExtension>
        </extensions>
      </trkpt>
      <trkpt lat="48.71644" lon="1.78389">
        <ele>176.6</ele>
        <time>2026-01-31T10:49:14Z</time>
        <extensions>
          <gpxtpx:TrackPointExtension xmlns:gpxtpx="http://www.garmin.com/xmlschemas/TrackPointExtension/v1">
            <gpxtpx:hr>102</gpxtpx:hr>
          </gpxtpx:TrackPointExtension>
        </extensions>
      </trkpt>
      <trkpt lat="48.71645" lon="1.78393">
        <ele>176.6</ele>
        <time>2026-01-31T10:49:16Z</time>
        <extensions>
          <gpxtpx:TrackPointExtension xmlns:gpxtpx="http://www.garmin.com/xmlschemas/TrackPointExtension/v1">
            <gpxtpx:hr>102</gpxtpx:hr>
          </gpxtpx:TrackPointExtension>
        </extensions>
      </trkpt>
      <trkpt lat="48.71646" lon="1.78398">
        <ele>176.6</ele>
        <time>2026-01-31T10:49:18Z</time>
        <extensions>
          <gpxtpx:TrackPointExtension xmlns:gpxtpx="http://www.garmin.com/xmlschemas/TrackPointExtension/v1">
            <gpxtpx:hr>102</gpxtpx:hr>
          </gpxtpx:TrackPointExtension>
        </extensions>
      </trkpt>
      <trkpt lat="48.71646" lon="1.78402">
        <ele>176.6</ele>
        <time>2026-01-31T10:49:20Z</time>
        <extensions>
          <gpxtpx:TrackPointExtension xmlns:gpxtpx="http://www.garmin.com/xmlschemas/TrackPointExtension/v1">
            <gpxtpx:hr>102</gpxtpx:hr>
          </gpxtpx:TrackPointExtension>
        </extensions>
      </trkpt>
      <trkpt lat="48.71646" lon="1.78407">
        <ele>176.6</ele>
        <time>2026-01-31T10:49:22Z</time>
        <extensions>
          <gpxtpx:TrackPointExtension xmlns:gpxtpx="http://www.garmin.com/xmlschemas/TrackPointExtension/v1">
            <gpxtpx:hr>102</gpxtpx:hr>
          </gpxtpx:TrackPointExtension>
        </extensions>
      </trkpt>
      <trkpt lat="48.71646" lon="1.78411">
        <ele>176.6</ele>
        <time>2026-01-31T10:49:24Z</time>
        <extensions>
          <gpxtpx:TrackPointExtension xmlns:gpxtpx="http://www.garmin.com/xmlschemas/TrackPointExtension/v1">
            <gpxtpx:hr>103</gpxtpx:hr>
          </gpxtpx:TrackPointExtension>
        </extensions>
      </trkpt>
      <trkpt lat="48.71646" lon="1.78416">
        <ele>176.6</ele>
        <time>2026-01-31T10:49:26Z</time>
        <extensions>
          <gpxtpx:TrackPointExtension xmlns:gpxtpx="http://www.garmin.com/xmlschemas/TrackPointExtension/v1">
            <gpxtpx:hr>103</gpxtpx:hr>
          </gpxtpx:TrackPointExtension>
        </extensions>
      </trkpt>
      <trkpt lat="48.71646" lon="1.7842">
        <ele>176.4</ele>
        <time>2026-01-31T10:49:28Z</time>
        <extensions>
          <gpxtpx:TrackPointExtension xmlns:gpxtpx="http://www.garmin.com/xmlschemas/TrackPointExtension/v1">
            <gpxtpx:hr>103</gpxtpx:hr>
          </gpxtpx:TrackPointExtension>
        </extensions>
      </trkpt>
      <trkpt lat="48.71647" lon="1.78425">
        <ele>176.4</ele>
        <time>2026-01-31T10:49:30Z</time>
        <extensions>
          <gpxtpx:TrackPointExtension xmlns:gpxtpx="http://www.garmin.com/xmlschemas/TrackPointExtension/v1">
            <gpxtpx:hr>103</gpxtpx:hr>
          </gpxtpx:TrackPointExtension>
        </extensions>
      </trkpt>
      <trkpt lat="48.71648" lon="1.78429">
        <ele>176.6</ele>
        <time>2026-01-31T10:49:32Z</time>
        <extensions>
          <gpxtpx:TrackPointExtension xmlns:gpxtpx="http://www.garmin.com/xmlschemas/TrackPointExtension/v1">
            <gpxtpx:hr>103</gpxtpx:hr>
          </gpxtpx:TrackPointExtension>
        </extensions>
      </trkpt>
      <trkpt lat="48.71649" lon="1.78433">
        <ele>176.6</ele>
        <time>2026-01-31T10:49:34Z</time>
        <extensions>
          <gpxtpx:TrackPointExtension xmlns:gpxtpx="http://www.garmin.com/xmlschemas/TrackPointExtension/v1">
            <gpxtpx:hr>103</gpxtpx:hr>
          </gpxtpx:TrackPointExtension>
        </extensions>
      </trkpt>
      <trkpt lat="48.7165" lon="1.78437">
        <ele>176.6</ele>
        <time>2026-01-31T10:49:36Z</time>
        <extensions>
          <gpxtpx:TrackPointExtension xmlns:gpxtpx="http://www.garmin.com/xmlschemas/TrackPointExtension/v1">
            <gpxtpx:hr>103</gpxtpx:hr>
          </gpxtpx:TrackPointExtension>
        </extensions>
      </trkpt>
      <trkpt lat="48.71651" lon="1.78441">
        <ele>176.4</ele>
        <time>2026-01-31T10:49:38Z</time>
        <extensions>
          <gpxtpx:TrackPointExtension xmlns:gpxtpx="http://www.garmin.com/xmlschemas/TrackPointExtension/v1">
            <gpxtpx:hr>103</gpxtpx:hr>
          </gpxtpx:TrackPointExtension>
        </extensions>
      </trkpt>
      <trkpt lat="48.71652" lon="1.78446">
        <ele>176.6</ele>
        <time>2026-01-31T10:49:40Z</time>
        <extensions>
          <gpxtpx:TrackPointExtension xmlns:gpxtpx="http://www.garmin.com/xmlschemas/TrackPointExtension/v1">
            <gpxtpx:hr>104</gpxtpx:hr>
          </gpxtpx:TrackPointExtension>
        </extensions>
      </trkpt>
      <trkpt lat="48.71652" lon="1.7845">
        <ele>176.6</ele>
        <time>2026-01-31T10:49:42Z</time>
        <extensions>
          <gpxtpx:TrackPointExtension xmlns:gpxtpx="http://www.garmin.com/xmlschemas/TrackPointExtension/v1">
            <gpxtpx:hr>104</gpxtpx:hr>
          </gpxtpx:TrackPointExtension>
        </extensions>
      </trkpt>
      <trkpt lat="48.71651" lon="1.78454">
        <ele>176.8</ele>
        <time>2026-01-31T10:49:44Z</time>
        <extensions>
          <gpxtpx:TrackPointExtension xmlns:gpxtpx="http://www.garmin.com/xmlschemas/TrackPointExtension/v1">
            <gpxtpx:hr>104</gpxtpx:hr>
          </gpxtpx:TrackPointExtension>
        </extensions>
      </trkpt>
      <trkpt lat="48.71652" lon="1.78459">
        <ele>176.8</ele>
        <time>2026-01-31T10:49:46Z</time>
        <extensions>
          <gpxtpx:TrackPointExtension xmlns:gpxtpx="http://www.garmin.com/xmlschemas/TrackPointExtension/v1">
            <gpxtpx:hr>104</gpxtpx:hr>
          </gpxtpx:TrackPointExtension>
        </extensions>
      </trkpt>
      <trkpt lat="48.71652" lon="1.78463">
        <ele>176.8</ele>
        <time>2026-01-31T10:49:48Z</time>
        <extensions>
          <gpxtpx:TrackPointExtension xmlns:gpxtpx="http://www.garmin.com/xmlschemas/TrackPointExtension/v1">
            <gpxtpx:hr>104</gpxtpx:hr>
          </gpxtpx:TrackPointExtension>
        </extensions>
      </trkpt>
      <trkpt lat="48.71654" lon="1.78467">
        <ele>176.8</ele>
        <time>2026-01-31T10:49:50Z</time>
        <extensions>
          <gpxtpx:TrackPointExtension xmlns:gpxtpx="http://www.garmin.com/xmlschemas/TrackPointExtension/v1">
            <gpxtpx:hr>104</gpxtpx:hr>
          </gpxtpx:TrackPointExtension>
        </extensions>
      </trkpt>
      <trkpt lat="48.71655" lon="1.78472">
        <ele>176.6</ele>
        <time>2026-01-31T10:49:52Z</time>
        <extensions>
          <gpxtpx:TrackPointExtension xmlns:gpxtpx="http://www.garmin.com/xmlschemas/TrackPointExtension/v1">
            <gpxtpx:hr>104</gpxtpx:hr>
          </gpxtpx:TrackPointExtension>
        </extensions>
      </trkpt>
      <trkpt lat="48.71656" lon="1.78476">
        <ele>176.6</ele>
        <time>2026-01-31T10:49:54Z</time>
        <extensions>
          <gpxtpx:TrackPointExtension xmlns:gpxtpx="http://www.garmin.com/xmlschemas/TrackPointExtension/v1">
            <gpxtpx:hr>104</gpxtpx:hr>
          </gpxtpx:TrackPointExtension>
        </extensions>
      </trkpt>
      <trkpt lat="48.71658" lon="1.78479">
        <ele>176.6</ele>
        <time>2026-01-31T10:49:56Z</time>
        <extensions>
          <gpxtpx:TrackPointExtension xmlns:gpxtpx="http://www.garmin.com/xmlschemas/TrackPointExtension/v1">
            <gpxtpx:hr>104</gpxtpx:hr>
          </gpxtpx:TrackPointExtension>
        </extensions>
      </trkpt>
      <trkpt lat="48.71659" lon="1.78483">
        <ele>176.6</ele>
        <time>2026-01-31T10:49:58Z</time>
        <extensions>
          <gpxtpx:TrackPointExtension xmlns:gpxtpx="http://www.garmin.com/xmlschemas/TrackPointExtension/v1">
            <gpxtpx:hr>104</gpxtpx:hr>
          </gpxtpx:TrackPointExtension>
        </extensions>
      </trkpt>
      <trkpt lat="48.7166" lon="1.78486">
        <ele>176.6</ele>
        <time>2026-01-31T10:50:00Z</time>
        <extensions>
          <gpxtpx:TrackPointExtension xmlns:gpxtpx="http://www.garmin.com/xmlschemas/TrackPointExtension/v1">
            <gpxtpx:hr>104</gpxtpx:hr>
          </gpxtpx:TrackPointExtension>
        </extensions>
      </trkpt>
      <trkpt lat="48.71662" lon="1.7849">
        <ele>176.6</ele>
        <time>2026-01-31T10:50:02Z</time>
        <extensions>
          <gpxtpx:TrackPointExtension xmlns:gpxtpx="http://www.garmin.com/xmlschemas/TrackPointExtension/v1">
            <gpxtpx:hr>104</gpxtpx:hr>
          </gpxtpx:TrackPointExtension>
        </extensions>
      </trkpt>
      <trkpt lat="48.71664" lon="1.78494">
        <ele>176.4</ele>
        <time>2026-01-31T10:50:04Z</time>
        <extensions>
          <gpxtpx:TrackPointExtension xmlns:gpxtpx="http://www.garmin.com/xmlschemas/TrackPointExtension/v1">
            <gpxtpx:hr>104</gpxtpx:hr>
          </gpxtpx:TrackPointExtension>
        </extensions>
      </trkpt>
      <trkpt lat="48.71665" lon="1.78497">
        <ele>176.6</ele>
        <time>2026-01-31T10:50:06Z</time>
        <extensions>
          <gpxtpx:TrackPointExtension xmlns:gpxtpx="http://www.garmin.com/xmlschemas/TrackPointExtension/v1">
            <gpxtpx:hr>104</gpxtpx:hr>
          </gpxtpx:TrackPointExtension>
        </extensions>
      </trkpt>
      <trkpt lat="48.71668" lon="1.78499">
        <ele>176.6</ele>
        <time>2026-01-31T10:50:08Z</time>
        <extensions>
          <gpxtpx:TrackPointExtension xmlns:gpxtpx="http://www.garmin.com/xmlschemas/TrackPointExtension/v1">
            <gpxtpx:hr>104</gpxtpx:hr>
          </gpxtpx:TrackPointExtension>
        </extensions>
      </trkpt>
      <trkpt lat="48.7167" lon="1.78501">
        <ele>176.6</ele>
        <time>2026-01-31T10:50:10Z</time>
        <extensions>
          <gpxtpx:TrackPointExtension xmlns:gpxtpx="http://www.garmin.com/xmlschemas/TrackPointExtension/v1">
            <gpxtpx:hr>104</gpxtpx:hr>
          </gpxtpx:TrackPointExtension>
        </extensions>
      </trkpt>
      <trkpt lat="48.71673" lon="1.78503">
        <ele>176.6</ele>
        <time>2026-01-31T10:50:12Z</time>
        <extensions>
          <gpxtpx:TrackPointExtension xmlns:gpxtpx="http://www.garmin.com/xmlschemas/TrackPointExtension/v1">
            <gpxtpx:hr>104</gpxtpx:hr>
          </gpxtpx:TrackPointExtension>
        </extensions>
      </trkpt>
      <trkpt lat="48.71676" lon="1.78505">
        <ele>176.8</ele>
        <time>2026-01-31T10:50:14Z</time>
        <extensions>
          <gpxtpx:TrackPointExtension xmlns:gpxtpx="http://www.garmin.com/xmlschemas/TrackPointExtension/v1">
            <gpxtpx:hr>104</gpxtpx:hr>
          </gpxtpx:TrackPointExtension>
        </extensions>
      </trkpt>
      <trkpt lat="48.71678" lon="1.78507">
        <ele>176.8</ele>
        <time>2026-01-31T10:50:16Z</time>
        <extensions>
          <gpxtpx:TrackPointExtension xmlns:gpxtpx="http://www.garmin.com/xmlschemas/TrackPointExtension/v1">
            <gpxtpx:hr>104</gpxtpx:hr>
          </gpxtpx:TrackPointExtension>
        </extensions>
      </trkpt>
      <trkpt lat="48.7168" lon="1.78508">
        <ele>177</ele>
        <time>2026-01-31T10:50:18Z</time>
        <extensions>
          <gpxtpx:TrackPointExtension xmlns:gpxtpx="http://www.garmin.com/xmlschemas/TrackPointExtension/v1">
            <gpxtpx:hr>104</gpxtpx:hr>
          </gpxtpx:TrackPointExtension>
        </extensions>
      </trkpt>
      <trkpt lat="48.71682" lon="1.7851">
        <ele>177.2</ele>
        <time>2026-01-31T10:50:20Z</time>
        <extensions>
          <gpxtpx:TrackPointExtension xmlns:gpxtpx="http://www.garmin.com/xmlschemas/TrackPointExtension/v1">
            <gpxtpx:hr>104</gpxtpx:hr>
          </gpxtpx:TrackPointExtension>
        </extensions>
      </trkpt>
      <trkpt lat="48.71684" lon="1.78512">
        <ele>177.2</ele>
        <time>2026-01-31T10:50:22Z</time>
        <extensions>
          <gpxtpx:TrackPointExtension xmlns:gpxtpx="http://www.garmin.com/xmlschemas/TrackPointExtension/v1">
            <gpxtpx:hr>104</gpxtpx:hr>
          </gpxtpx:TrackPointExtension>
        </extensions>
      </trkpt>
      <trkpt lat="48.71687" lon="1.78513">
        <ele>177.4</ele>
        <time>2026-01-31T10:50:24Z</time>
        <extensions>
          <gpxtpx:TrackPointExtension xmlns:gpxtpx="http://www.garmin.com/xmlschemas/TrackPointExtension/v1">
            <gpxtpx:hr>104</gpxtpx:hr>
          </gpxtpx:TrackPointExtension>
        </extensions>
      </trkpt>
      <trkpt lat="48.71689" lon="1.78515">
        <ele>177.6</ele>
        <time>2026-01-31T10:50:26Z</time>
        <extensions>
          <gpxtpx:TrackPointExtension xmlns:gpxtpx="http://www.garmin.com/xmlschemas/TrackPointExtension/v1">
            <gpxtpx:hr>104</gpxtpx:hr>
          </gpxtpx:TrackPointExtension>
        </extensions>
      </trkpt>
      <trkpt lat="48.71692" lon="1.78516">
        <ele>177.6</ele>
        <time>2026-01-31T10:50:28Z</time>
        <extensions>
          <gpxtpx:TrackPointExtension xmlns:gpxtpx="http://www.garmin.com/xmlschemas/TrackPointExtension/v1">
            <gpxtpx:hr>104</gpxtpx:hr>
          </gpxtpx:TrackPointExtension>
        </extensions>
      </trkpt>
      <trkpt lat="48.71694" lon="1.78518">
        <ele>177.4</ele>
        <time>2026-01-31T10:50:30Z</time>
        <extensions>
          <gpxtpx:TrackPointExtension xmlns:gpxtpx="http://www.garmin.com/xmlschemas/TrackPointExtension/v1">
            <gpxtpx:hr>104</gpxtpx:hr>
          </gpxtpx:TrackPointExtension>
        </extensions>
      </trkpt>
      <trkpt lat="48.71697" lon="1.7852">
        <ele>177.4</ele>
        <time>2026-01-31T10:50:32Z</time>
        <extensions>
          <gpxtpx:TrackPointExtension xmlns:gpxtpx="http://www.garmin.com/xmlschemas/TrackPointExtension/v1">
            <gpxtpx:hr>104</gpxtpx:hr>
          </gpxtpx:TrackPointExtension>
        </extensions>
      </trkpt>
      <trkpt lat="48.717" lon="1.78522">
        <ele>177.2</ele>
        <time>2026-01-31T10:50:34Z</time>
        <extensions>
          <gpxtpx:TrackPointExtension xmlns:gpxtpx="http://www.garmin.com/xmlschemas/TrackPointExtension/v1">
            <gpxtpx:hr>103</gpxtpx:hr>
          </gpxtpx:TrackPointExtension>
        </extensions>
      </trkpt>
      <trkpt lat="48.71703" lon="1.78524">
        <ele>177</ele>
        <time>2026-01-31T10:50:36Z</time>
        <extensions>
          <gpxtpx:TrackPointExtension xmlns:gpxtpx="http://www.garmin.com/xmlschemas/TrackPointExtension/v1">
            <gpxtpx:hr>103</gpxtpx:hr>
          </gpxtpx:TrackPointExtension>
        </extensions>
      </trkpt>
      <trkpt lat="48.71705" lon="1.78526">
        <ele>177</ele>
        <time>2026-01-31T10:50:38Z</time>
        <extensions>
          <gpxtpx:TrackPointExtension xmlns:gpxtpx="http://www.garmin.com/xmlschemas/TrackPointExtension/v1">
            <gpxtpx:hr>103</gpxtpx:hr>
          </gpxtpx:TrackPointExtension>
        </extensions>
      </trkpt>
      <trkpt lat="48.71708" lon="1.78528">
        <ele>176.8</ele>
        <time>2026-01-31T10:50:40Z</time>
        <extensions>
          <gpxtpx:TrackPointExtension xmlns:gpxtpx="http://www.garmin.com/xmlschemas/TrackPointExtension/v1">
            <gpxtpx:hr>103</gpxtpx:hr>
          </gpxtpx:TrackPointExtension>
        </extensions>
      </trkpt>
      <trkpt lat="48.71709" lon="1.7853">
        <ele>176.8</ele>
        <time>2026-01-31T10:50:41Z</time>
        <extensions>
          <gpxtpx:TrackPointExtension xmlns:gpxtpx="http://www.garmin.com/xmlschemas/TrackPointExtension/v1">
            <gpxtpx:hr>103</gpxtpx:hr>
          </gpxtpx:TrackPointExtension>
        </extensions>
      </trkpt>
      <trkpt lat="48.71711" lon="1.78531">
        <ele>176.8</ele>
        <time>2026-01-31T10:50:42Z</time>
        <extensions>
          <gpxtpx:TrackPointExtension xmlns:gpxtpx="http://www.garmin.com/xmlschemas/TrackPointExtension/v1">
            <gpxtpx:hr>103</gpxtpx:hr>
          </gpxtpx:TrackPointExtension>
        </extensions>
      </trkpt>
      <trkpt lat="48.71714" lon="1.78534">
        <ele>176.8</ele>
        <time>2026-01-31T10:50:44Z</time>
        <extensions>
          <gpxtpx:TrackPointExtension xmlns:gpxtpx="http://www.garmin.com/xmlschemas/TrackPointExtension/v1">
            <gpxtpx:hr>103</gpxtpx:hr>
          </gpxtpx:TrackPointExtension>
        </extensions>
      </trkpt>
      <trkpt lat="48.71715" lon="1.78536">
        <ele>176.6</ele>
        <time>2026-01-31T10:50:45Z</time>
        <extensions>
          <gpxtpx:TrackPointExtension xmlns:gpxtpx="http://www.garmin.com/xmlschemas/TrackPointExtension/v1">
            <gpxtpx:hr>103</gpxtpx:hr>
          </gpxtpx:TrackPointExtension>
        </extensions>
      </trkpt>
      <trkpt lat="48.71718" lon="1.78539">
        <ele>176.4</ele>
        <time>2026-01-31T10:50:47Z</time>
        <extensions>
          <gpxtpx:TrackPointExtension xmlns:gpxtpx="http://www.garmin.com/xmlschemas/TrackPointExtension/v1">
            <gpxtpx:hr>103</gpxtpx:hr>
          </gpxtpx:TrackPointExtension>
        </extensions>
      </trkpt>
      <trkpt lat="48.7172" lon="1.78542">
        <ele>176.2</ele>
        <time>2026-01-31T10:50:49Z</time>
        <extensions>
          <gpxtpx:TrackPointExtension xmlns:gpxtpx="http://www.garmin.com/xmlschemas/TrackPointExtension/v1">
            <gpxtpx:hr>104</gpxtpx:hr>
          </gpxtpx:TrackPointExtension>
        </extensions>
      </trkpt>
      <trkpt lat="48.71722" lon="1.78545">
        <ele>176</ele>
        <time>2026-01-31T10:50:51Z</time>
        <extensions>
          <gpxtpx:TrackPointExtension xmlns:gpxtpx="http://www.garmin.com/xmlschemas/TrackPointExtension/v1">
            <gpxtpx:hr>104</gpxtpx:hr>
          </gpxtpx:TrackPointExtension>
        </extensions>
      </trkpt>
      <trkpt lat="48.71724" lon="1.78548">
        <ele>175.8</ele>
        <time>2026-01-31T10:50:53Z</time>
        <extensions>
          <gpxtpx:TrackPointExtension xmlns:gpxtpx="http://www.garmin.com/xmlschemas/TrackPointExtension/v1">
            <gpxtpx:hr>104</gpxtpx:hr>
          </gpxtpx:TrackPointExtension>
        </extensions>
      </trkpt>
      <trkpt lat="48.71727" lon="1.78552">
        <ele>175.4</ele>
        <time>2026-01-31T10:50:55Z</time>
        <extensions>
          <gpxtpx:TrackPointExtension xmlns:gpxtpx="http://www.garmin.com/xmlschemas/TrackPointExtension/v1">
            <gpxtpx:hr>104</gpxtpx:hr>
          </gpxtpx:TrackPointExtension>
        </extensions>
      </trkpt>
      <trkpt lat="48.71729" lon="1.78555">
        <ele>175</ele>
        <time>2026-01-31T10:50:57Z</time>
        <extensions>
          <gpxtpx:TrackPointExtension xmlns:gpxtpx="http://www.garmin.com/xmlschemas/TrackPointExtension/v1">
            <gpxtpx:hr>104</gpxtpx:hr>
          </gpxtpx:TrackPointExtension>
        </extensions>
      </trkpt>
      <trkpt lat="48.71731" lon="1.78559">
        <ele>175</ele>
        <time>2026-01-31T10:50:59Z</time>
        <extensions>
          <gpxtpx:TrackPointExtension xmlns:gpxtpx="http://www.garmin.com/xmlschemas/TrackPointExtension/v1">
            <gpxtpx:hr>104</gpxtpx:hr>
          </gpxtpx:TrackPointExtension>
        </extensions>
      </trkpt>
      <trkpt lat="48.71732" lon="1.78563">
        <ele>174.8</ele>
        <time>2026-01-31T10:51:01Z</time>
        <extensions>
          <gpxtpx:TrackPointExtension xmlns:gpxtpx="http://www.garmin.com/xmlschemas/TrackPointExtension/v1">
            <gpxtpx:hr>104</gpxtpx:hr>
          </gpxtpx:TrackPointExtension>
        </extensions>
      </trkpt>
      <trkpt lat="48.71734" lon="1.78567">
        <ele>174.8</ele>
        <time>2026-01-31T10:51:03Z</time>
        <extensions>
          <gpxtpx:TrackPointExtension xmlns:gpxtpx="http://www.garmin.com/xmlschemas/TrackPointExtension/v1">
            <gpxtpx:hr>104</gpxtpx:hr>
          </gpxtpx:TrackPointExtension>
        </extensions>
      </trkpt>
      <trkpt lat="48.71735" lon="1.78572">
        <ele>174.8</ele>
        <time>2026-01-31T10:51:05Z</time>
        <extensions>
          <gpxtpx:TrackPointExtension xmlns:gpxtpx="http://www.garmin.com/xmlschemas/TrackPointExtension/v1">
            <gpxtpx:hr>104</gpxtpx:hr>
          </gpxtpx:TrackPointExtension>
        </extensions>
      </trkpt>
      <trkpt lat="48.71737" lon="1.78574">
        <ele>174.8</ele>
        <time>2026-01-31T10:51:06Z</time>
        <extensions>
          <gpxtpx:TrackPointExtension xmlns:gpxtpx="http://www.garmin.com/xmlschemas/TrackPointExtension/v1">
            <gpxtpx:hr>104</gpxtpx:hr>
          </gpxtpx:TrackPointExtension>
        </extensions>
      </trkpt>
      <trkpt lat="48.71738" lon="1.78577">
        <ele>174.8</ele>
        <time>2026-01-31T10:51:08Z</time>
        <extensions>
          <gpxtpx:TrackPointExtension xmlns:gpxtpx="http://www.garmin.com/xmlschemas/TrackPointExtension/v1">
            <gpxtpx:hr>104</gpxtpx:hr>
          </gpxtpx:TrackPointExtension>
        </extensions>
      </trkpt>
      <trkpt lat="48.71739" lon="1.7858">
        <ele>174.8</ele>
        <time>2026-01-31T10:51:10Z</time>
        <extensions>
          <gpxtpx:TrackPointExtension xmlns:gpxtpx="http://www.garmin.com/xmlschemas/TrackPointExtension/v1">
            <gpxtpx:hr>104</gpxtpx:hr>
          </gpxtpx:TrackPointExtension>
        </extensions>
      </trkpt>
      <trkpt lat="48.7174" lon="1.78583">
        <ele>174.8</ele>
        <time>2026-01-31T10:51:13Z</time>
        <extensions>
          <gpxtpx:TrackPointExtension xmlns:gpxtpx="http://www.garmin.com/xmlschemas/TrackPointExtension/v1">
            <gpxtpx:hr>103</gpxtpx:hr>
          </gpxtpx:TrackPointExtension>
        </extensions>
      </trkpt>
      <trkpt lat="48.7174" lon="1.78586">
        <ele>174.6</ele>
        <time>2026-01-31T10:51:15Z</time>
        <extensions>
          <gpxtpx:TrackPointExtension xmlns:gpxtpx="http://www.garmin.com/xmlschemas/TrackPointExtension/v1">
            <gpxtpx:hr>103</gpxtpx:hr>
          </gpxtpx:TrackPointExtension>
        </extensions>
      </trkpt>
      <trkpt lat="48.7174" lon="1.7859">
        <ele>174.6</ele>
        <time>2026-01-31T10:51:17Z</time>
        <extensions>
          <gpxtpx:TrackPointExtension xmlns:gpxtpx="http://www.garmin.com/xmlschemas/TrackPointExtension/v1">
            <gpxtpx:hr>103</gpxtpx:hr>
          </gpxtpx:TrackPointExtension>
        </extensions>
      </trkpt>
      <trkpt lat="48.71739" lon="1.78594">
        <ele>174.4</ele>
        <time>2026-01-31T10:51:19Z</time>
        <extensions>
          <gpxtpx:TrackPointExtension xmlns:gpxtpx="http://www.garmin.com/xmlschemas/TrackPointExtension/v1">
            <gpxtpx:hr>103</gpxtpx:hr>
          </gpxtpx:TrackPointExtension>
        </extensions>
      </trkpt>
      <trkpt lat="48.71739" lon="1.78599">
        <ele>174.4</ele>
        <time>2026-01-31T10:51:21Z</time>
        <extensions>
          <gpxtpx:TrackPointExtension xmlns:gpxtpx="http://www.garmin.com/xmlschemas/TrackPointExtension/v1">
            <gpxtpx:hr>103</gpxtpx:hr>
          </gpxtpx:TrackPointExtension>
        </extensions>
      </trkpt>
      <trkpt lat="48.71738" lon="1.78603">
        <ele>174.2</ele>
        <time>2026-01-31T10:51:23Z</time>
        <extensions>
          <gpxtpx:TrackPointExtension xmlns:gpxtpx="http://www.garmin.com/xmlschemas/TrackPointExtension/v1">
            <gpxtpx:hr>103</gpxtpx:hr>
          </gpxtpx:TrackPointExtension>
        </extensions>
      </trkpt>
      <trkpt lat="48.71737" lon="1.78608">
        <ele>174</ele>
        <time>2026-01-31T10:51:25Z</time>
        <extensions>
          <gpxtpx:TrackPointExtension xmlns:gpxtpx="http://www.garmin.com/xmlschemas/TrackPointExtension/v1">
            <gpxtpx:hr>103</gpxtpx:hr>
          </gpxtpx:TrackPointExtension>
        </extensions>
      </trkpt>
      <trkpt lat="48.71736" lon="1.78612">
        <ele>174.2</ele>
        <time>2026-01-31T10:51:27Z</time>
        <extensions>
          <gpxtpx:TrackPointExtension xmlns:gpxtpx="http://www.garmin.com/xmlschemas/TrackPointExtension/v1">
            <gpxtpx:hr>103</gpxtpx:hr>
          </gpxtpx:TrackPointExtension>
        </extensions>
      </trkpt>
      <trkpt lat="48.71735" lon="1.78615">
        <ele>174.2</ele>
        <time>2026-01-31T10:51:29Z</time>
        <extensions>
          <gpxtpx:TrackPointExtension xmlns:gpxtpx="http://www.garmin.com/xmlschemas/TrackPointExtension/v1">
            <gpxtpx:hr>103</gpxtpx:hr>
          </gpxtpx:TrackPointExtension>
        </extensions>
      </trkpt>
      <trkpt lat="48.71735" lon="1.78619">
        <ele>174.2</ele>
        <time>2026-01-31T10:51:31Z</time>
        <extensions>
          <gpxtpx:TrackPointExtension xmlns:gpxtpx="http://www.garmin.com/xmlschemas/TrackPointExtension/v1">
            <gpxtpx:hr>103</gpxtpx:hr>
          </gpxtpx:TrackPointExtension>
        </extensions>
      </trkpt>
      <trkpt lat="48.71734" lon="1.78623">
        <ele>174.2</ele>
        <time>2026-01-31T10:51:33Z</time>
        <extensions>
          <gpxtpx:TrackPointExtension xmlns:gpxtpx="http://www.garmin.com/xmlschemas/TrackPointExtension/v1">
            <gpxtpx:hr>103</gpxtpx:hr>
          </gpxtpx:TrackPointExtension>
        </extensions>
      </trkpt>
      <trkpt lat="48.71733" lon="1.78628">
        <ele>174.4</ele>
        <time>2026-01-31T10:51:35Z</time>
        <extensions>
          <gpxtpx:TrackPointExtension xmlns:gpxtpx="http://www.garmin.com/xmlschemas/TrackPointExtension/v1">
            <gpxtpx:hr>103</gpxtpx:hr>
          </gpxtpx:TrackPointExtension>
        </extensions>
      </trkpt>
      <trkpt lat="48.71732" lon="1.78633">
        <ele>174.4</ele>
        <time>2026-01-31T10:51:37Z</time>
        <extensions>
          <gpxtpx:TrackPointExtension xmlns:gpxtpx="http://www.garmin.com/xmlschemas/TrackPointExtension/v1">
            <gpxtpx:hr>103</gpxtpx:hr>
          </gpxtpx:TrackPointExtension>
        </extensions>
      </trkpt>
      <trkpt lat="48.71732" lon="1.78637">
        <ele>174.6</ele>
        <time>2026-01-31T10:51:39Z</time>
        <extensions>
          <gpxtpx:TrackPointExtension xmlns:gpxtpx="http://www.garmin.com/xmlschemas/TrackPointExtension/v1">
            <gpxtpx:hr>103</gpxtpx:hr>
          </gpxtpx:TrackPointExtension>
        </extensions>
      </trkpt>
      <trkpt lat="48.71732" lon="1.78641">
        <ele>174.8</ele>
        <time>2026-01-31T10:51:41Z</time>
        <extensions>
          <gpxtpx:TrackPointExtension xmlns:gpxtpx="http://www.garmin.com/xmlschemas/TrackPointExtension/v1">
            <gpxtpx:hr>103</gpxtpx:hr>
          </gpxtpx:TrackPointExtension>
        </extensions>
      </trkpt>
      <trkpt lat="48.71731" lon="1.78644">
        <ele>175.2</ele>
        <time>2026-01-31T10:51:43Z</time>
        <extensions>
          <gpxtpx:TrackPointExtension xmlns:gpxtpx="http://www.garmin.com/xmlschemas/TrackPointExtension/v1">
            <gpxtpx:hr>103</gpxtpx:hr>
          </gpxtpx:TrackPointExtension>
        </extensions>
      </trkpt>
      <trkpt lat="48.71731" lon="1.78648">
        <ele>175.6</ele>
        <time>2026-01-31T10:51:45Z</time>
        <extensions>
          <gpxtpx:TrackPointExtension xmlns:gpxtpx="http://www.garmin.com/xmlschemas/TrackPointExtension/v1">
            <gpxtpx:hr>103</gpxtpx:hr>
          </gpxtpx:TrackPointExtension>
        </extensions>
      </trkpt>
      <trkpt lat="48.7173" lon="1.78652">
        <ele>175.8</ele>
        <time>2026-01-31T10:51:47Z</time>
        <extensions>
          <gpxtpx:TrackPointExtension xmlns:gpxtpx="http://www.garmin.com/xmlschemas/TrackPointExtension/v1">
            <gpxtpx:hr>103</gpxtpx:hr>
          </gpxtpx:TrackPointExtension>
        </extensions>
      </trkpt>
      <trkpt lat="48.71729" lon="1.78656">
        <ele>176</ele>
        <time>2026-01-31T10:51:49Z</time>
        <extensions>
          <gpxtpx:TrackPointExtension xmlns:gpxtpx="http://www.garmin.com/xmlschemas/TrackPointExtension/v1">
            <gpxtpx:hr>103</gpxtpx:hr>
          </gpxtpx:TrackPointExtension>
        </extensions>
      </trkpt>
      <trkpt lat="48.71728" lon="1.7866">
        <ele>176.2</ele>
        <time>2026-01-31T10:51:51Z</time>
        <extensions>
          <gpxtpx:TrackPointExtension xmlns:gpxtpx="http://www.garmin.com/xmlschemas/TrackPointExtension/v1">
            <gpxtpx:hr>104</gpxtpx:hr>
          </gpxtpx:TrackPointExtension>
        </extensions>
      </trkpt>
      <trkpt lat="48.71726" lon="1.78664">
        <ele>176.6</ele>
        <time>2026-01-31T10:51:53Z</time>
        <extensions>
          <gpxtpx:TrackPointExtension xmlns:gpxtpx="http://www.garmin.com/xmlschemas/TrackPointExtension/v1">
            <gpxtpx:hr>104</gpxtpx:hr>
          </gpxtpx:TrackPointExtension>
        </extensions>
      </trkpt>
      <trkpt lat="48.71726" lon="1.78667">
        <ele>176.6</ele>
        <time>2026-01-31T10:51:54Z</time>
        <extensions>
          <gpxtpx:TrackPointExtension xmlns:gpxtpx="http://www.garmin.com/xmlschemas/TrackPointExtension/v1">
            <gpxtpx:hr>104</gpxtpx:hr>
          </gpxtpx:TrackPointExtension>
        </extensions>
      </trkpt>
      <trkpt lat="48.71725" lon="1.7867">
        <ele>176.8</ele>
        <time>2026-01-31T10:51:55Z</time>
        <extensions>
          <gpxtpx:TrackPointExtension xmlns:gpxtpx="http://www.garmin.com/xmlschemas/TrackPointExtension/v1">
            <gpxtpx:hr>104</gpxtpx:hr>
          </gpxtpx:TrackPointExtension>
        </extensions>
      </trkpt>
      <trkpt lat="48.71724" lon="1.78674">
        <ele>176.8</ele>
        <time>2026-01-31T10:51:56Z</time>
        <extensions>
          <gpxtpx:TrackPointExtension xmlns:gpxtpx="http://www.garmin.com/xmlschemas/TrackPointExtension/v1">
            <gpxtpx:hr>104</gpxtpx:hr>
          </gpxtpx:TrackPointExtension>
        </extensions>
      </trkpt>
      <trkpt lat="48.71723" lon="1.78678">
        <ele>176.8</ele>
        <time>2026-01-31T10:51:57Z</time>
        <extensions>
          <gpxtpx:TrackPointExtension xmlns:gpxtpx="http://www.garmin.com/xmlschemas/TrackPointExtension/v1">
            <gpxtpx:hr>104</gpxtpx:hr>
          </gpxtpx:TrackPointExtension>
        </extensions>
      </trkpt>
      <trkpt lat="48.71722" lon="1.78682">
        <ele>177</ele>
        <time>2026-01-31T10:51:58Z</time>
        <extensions>
          <gpxtpx:TrackPointExtension xmlns:gpxtpx="http://www.garmin.com/xmlschemas/TrackPointExtension/v1">
            <gpxtpx:hr>104</gpxtpx:hr>
          </gpxtpx:TrackPointExtension>
        </extensions>
      </trkpt>
      <trkpt lat="48.7172" lon="1.78686">
        <ele>177</ele>
        <time>2026-01-31T10:51:59Z</time>
        <extensions>
          <gpxtpx:TrackPointExtension xmlns:gpxtpx="http://www.garmin.com/xmlschemas/TrackPointExtension/v1">
            <gpxtpx:hr>104</gpxtpx:hr>
          </gpxtpx:TrackPointExtension>
        </extensions>
      </trkpt>
      <trkpt lat="48.71719" lon="1.78691">
        <ele>176.8</ele>
        <time>2026-01-31T10:52:00Z</time>
        <extensions>
          <gpxtpx:TrackPointExtension xmlns:gpxtpx="http://www.garmin.com/xmlschemas/TrackPointExtension/v1">
            <gpxtpx:hr>105</gpxtpx:hr>
          </gpxtpx:TrackPointExtension>
        </extensions>
      </trkpt>
      <trkpt lat="48.71717" lon="1.78696">
        <ele>176.8</ele>
        <time>2026-01-31T10:52:01Z</time>
        <extensions>
          <gpxtpx:TrackPointExtension xmlns:gpxtpx="http://www.garmin.com/xmlschemas/TrackPointExtension/v1">
            <gpxtpx:hr>105</gpxtpx:hr>
          </gpxtpx:TrackPointExtension>
        </extensions>
      </trkpt>
      <trkpt lat="48.71716" lon="1.787">
        <ele>176.8</ele>
        <time>2026-01-31T10:52:02Z</time>
        <extensions>
          <gpxtpx:TrackPointExtension xmlns:gpxtpx="http://www.garmin.com/xmlschemas/TrackPointExtension/v1">
            <gpxtpx:hr>105</gpxtpx:hr>
          </gpxtpx:TrackPointExtension>
        </extensions>
      </trkpt>
      <trkpt lat="48.71715" lon="1.78705">
        <ele>176.6</ele>
        <time>2026-01-31T10:52:03Z</time>
        <extensions>
          <gpxtpx:TrackPointExtension xmlns:gpxtpx="http://www.garmin.com/xmlschemas/TrackPointExtension/v1">
            <gpxtpx:hr>105</gpxtpx:hr>
          </gpxtpx:TrackPointExtension>
        </extensions>
      </trkpt>
      <trkpt lat="48.71713" lon="1.7871">
        <ele>176.6</ele>
        <time>2026-01-31T10:52:04Z</time>
        <extensions>
          <gpxtpx:TrackPointExtension xmlns:gpxtpx="http://www.garmin.com/xmlschemas/TrackPointExtension/v1">
            <gpxtpx:hr>106</gpxtpx:hr>
          </gpxtpx:TrackPointExtension>
        </extensions>
      </trkpt>
      <trkpt lat="48.71711" lon="1.78715">
        <ele>176.6</ele>
        <time>2026-01-31T10:52:05Z</time>
        <extensions>
          <gpxtpx:TrackPointExtension xmlns:gpxtpx="http://www.garmin.com/xmlschemas/TrackPointExtension/v1">
            <gpxtpx:hr>106</gpxtpx:hr>
          </gpxtpx:TrackPointExtension>
        </extensions>
      </trkpt>
      <trkpt lat="48.7171" lon="1.7872">
        <ele>176.6</ele>
        <time>2026-01-31T10:52:06Z</time>
        <extensions>
          <gpxtpx:TrackPointExtension xmlns:gpxtpx="http://www.garmin.com/xmlschemas/TrackPointExtension/v1">
            <gpxtpx:hr>106</gpxtpx:hr>
          </gpxtpx:TrackPointExtension>
        </extensions>
      </trkpt>
      <trkpt lat="48.71708" lon="1.78725">
        <ele>176.6</ele>
        <time>2026-01-31T10:52:07Z</time>
        <extensions>
          <gpxtpx:TrackPointExtension xmlns:gpxtpx="http://www.garmin.com/xmlschemas/TrackPointExtension/v1">
            <gpxtpx:hr>106</gpxtpx:hr>
          </gpxtpx:TrackPointExtension>
        </extensions>
      </trkpt>
      <trkpt lat="48.71706" lon="1.7873">
        <ele>176.6</ele>
        <time>2026-01-31T10:52:08Z</time>
        <extensions>
          <gpxtpx:TrackPointExtension xmlns:gpxtpx="http://www.garmin.com/xmlschemas/TrackPointExtension/v1">
            <gpxtpx:hr>106</gpxtpx:hr>
          </gpxtpx:TrackPointExtension>
        </extensions>
      </trkpt>
      <trkpt lat="48.71705" lon="1.78735">
        <ele>176.6</ele>
        <time>2026-01-31T10:52:09Z</time>
        <extensions>
          <gpxtpx:TrackPointExtension xmlns:gpxtpx="http://www.garmin.com/xmlschemas/TrackPointExtension/v1">
            <gpxtpx:hr>106</gpxtpx:hr>
          </gpxtpx:TrackPointExtension>
        </extensions>
      </trkpt>
      <trkpt lat="48.71704" lon="1.78739">
        <ele>176.6</ele>
        <time>2026-01-31T10:52:10Z</time>
        <extensions>
          <gpxtpx:TrackPointExtension xmlns:gpxtpx="http://www.garmin.com/xmlschemas/TrackPointExtension/v1">
            <gpxtpx:hr>107</gpxtpx:hr>
          </gpxtpx:TrackPointExtension>
        </extensions>
      </trkpt>
      <trkpt lat="48.71702" lon="1.78744">
        <ele>176.6</ele>
        <time>2026-01-31T10:52:11Z</time>
        <extensions>
          <gpxtpx:TrackPointExtension xmlns:gpxtpx="http://www.garmin.com/xmlschemas/TrackPointExtension/v1">
            <gpxtpx:hr>107</gpxtpx:hr>
          </gpxtpx:TrackPointExtension>
        </extensions>
      </trkpt>
      <trkpt lat="48.71701" lon="1.78749">
        <ele>176.6</ele>
        <time>2026-01-31T10:52:12Z</time>
        <extensions>
          <gpxtpx:TrackPointExtension xmlns:gpxtpx="http://www.garmin.com/xmlschemas/TrackPointExtension/v1">
            <gpxtpx:hr>107</gpxtpx:hr>
          </gpxtpx:TrackPointExtension>
        </extensions>
      </trkpt>
      <trkpt lat="48.717" lon="1.78754">
        <ele>176.6</ele>
        <time>2026-01-31T10:52:13Z</time>
        <extensions>
          <gpxtpx:TrackPointExtension xmlns:gpxtpx="http://www.garmin.com/xmlschemas/TrackPointExtension/v1">
            <gpxtpx:hr>108</gpxtpx:hr>
          </gpxtpx:TrackPointExtension>
        </extensions>
      </trkpt>
      <trkpt lat="48.71699" lon="1.78759">
        <ele>176.6</ele>
        <time>2026-01-31T10:52:14Z</time>
        <extensions>
          <gpxtpx:TrackPointExtension xmlns:gpxtpx="http://www.garmin.com/xmlschemas/TrackPointExtension/v1">
            <gpxtpx:hr>108</gpxtpx:hr>
          </gpxtpx:TrackPointExtension>
        </extensions>
      </trkpt>
      <trkpt lat="48.71698" lon="1.78764">
        <ele>176.6</ele>
        <time>2026-01-31T10:52:15Z</time>
        <extensions>
          <gpxtpx:TrackPointExtension xmlns:gpxtpx="http://www.garmin.com/xmlschemas/TrackPointExtension/v1">
            <gpxtpx:hr>108</gpxtpx:hr>
          </gpxtpx:TrackPointExtension>
        </extensions>
      </trkpt>
      <trkpt lat="48.71697" lon="1.78769">
        <ele>176.6</ele>
        <time>2026-01-31T10:52:16Z</time>
        <extensions>
          <gpxtpx:TrackPointExtension xmlns:gpxtpx="http://www.garmin.com/xmlschemas/TrackPointExtension/v1">
            <gpxtpx:hr>108</gpxtpx:hr>
          </gpxtpx:TrackPointExtension>
        </extensions>
      </trkpt>
      <trkpt lat="48.71696" lon="1.78774">
        <ele>176.8</ele>
        <time>2026-01-31T10:52:17Z</time>
        <extensions>
          <gpxtpx:TrackPointExtension xmlns:gpxtpx="http://www.garmin.com/xmlschemas/TrackPointExtension/v1">
            <gpxtpx:hr>109</gpxtpx:hr>
          </gpxtpx:TrackPointExtension>
        </extensions>
      </trkpt>
      <trkpt lat="48.71694" lon="1.7878">
        <ele>176.8</ele>
        <time>2026-01-31T10:52:18Z</time>
        <extensions>
          <gpxtpx:TrackPointExtension xmlns:gpxtpx="http://www.garmin.com/xmlschemas/TrackPointExtension/v1">
            <gpxtpx:hr>109</gpxtpx:hr>
          </gpxtpx:TrackPointExtension>
        </extensions>
      </trkpt>
      <trkpt lat="48.71693" lon="1.78785">
        <ele>176.8</ele>
        <time>2026-01-31T10:52:19Z</time>
        <extensions>
          <gpxtpx:TrackPointExtension xmlns:gpxtpx="http://www.garmin.com/xmlschemas/TrackPointExtension/v1">
            <gpxtpx:hr>109</gpxtpx:hr>
          </gpxtpx:TrackPointExtension>
        </extensions>
      </trkpt>
      <trkpt lat="48.71692" lon="1.7879">
        <ele>176.8</ele>
        <time>2026-01-31T10:52:20Z</time>
        <extensions>
          <gpxtpx:TrackPointExtension xmlns:gpxtpx="http://www.garmin.com/xmlschemas/TrackPointExtension/v1">
            <gpxtpx:hr>110</gpxtpx:hr>
          </gpxtpx:TrackPointExtension>
        </extensions>
      </trkpt>
      <trkpt lat="48.7169" lon="1.78795">
        <ele>176.8</ele>
        <time>2026-01-31T10:52:21Z</time>
        <extensions>
          <gpxtpx:TrackPointExtension xmlns:gpxtpx="http://www.garmin.com/xmlschemas/TrackPointExtension/v1">
            <gpxtpx:hr>110</gpxtpx:hr>
          </gpxtpx:TrackPointExtension>
        </extensions>
      </trkpt>
      <trkpt lat="48.71688" lon="1.788">
        <ele>177</ele>
        <time>2026-01-31T10:52:22Z</time>
        <extensions>
          <gpxtpx:TrackPointExtension xmlns:gpxtpx="http://www.garmin.com/xmlschemas/TrackPointExtension/v1">
            <gpxtpx:hr>110</gpxtpx:hr>
          </gpxtpx:TrackPointExtension>
        </extensions>
      </trkpt>
      <trkpt lat="48.71687" lon="1.78804">
        <ele>177</ele>
        <time>2026-01-31T10:52:23Z</time>
        <extensions>
          <gpxtpx:TrackPointExtension xmlns:gpxtpx="http://www.garmin.com/xmlschemas/TrackPointExtension/v1">
            <gpxtpx:hr>110</gpxtpx:hr>
          </gpxtpx:TrackPointExtension>
        </extensions>
      </trkpt>
      <trkpt lat="48.71686" lon="1.78809">
        <ele>177</ele>
        <time>2026-01-31T10:52:24Z</time>
        <extensions>
          <gpxtpx:TrackPointExtension xmlns:gpxtpx="http://www.garmin.com/xmlschemas/TrackPointExtension/v1">
            <gpxtpx:hr>111</gpxtpx:hr>
          </gpxtpx:TrackPointExtension>
        </extensions>
      </trkpt>
      <trkpt lat="48.71684" lon="1.78814">
        <ele>177.2</ele>
        <time>2026-01-31T10:52:25Z</time>
        <extensions>
          <gpxtpx:TrackPointExtension xmlns:gpxtpx="http://www.garmin.com/xmlschemas/TrackPointExtension/v1">
            <gpxtpx:hr>111</gpxtpx:hr>
          </gpxtpx:TrackPointExtension>
        </extensions>
      </trkpt>
      <trkpt lat="48.71683" lon="1.78818">
        <ele>177.2</ele>
        <time>2026-01-31T10:52:26Z</time>
        <extensions>
          <gpxtpx:TrackPointExtension xmlns:gpxtpx="http://www.garmin.com/xmlschemas/TrackPointExtension/v1">
            <gpxtpx:hr>111</gpxtpx:hr>
          </gpxtpx:TrackPointExtension>
        </extensions>
      </trkpt>
      <trkpt lat="48.71682" lon="1.78823">
        <ele>177.2</ele>
        <time>2026-01-31T10:52:27Z</time>
      </trkpt>
      <trkpt lat="48.7168" lon="1.78827">
        <ele>177.2</ele>
        <time>2026-01-31T10:52:28Z</time>
        <extensions>
          <gpxtpx:TrackPointExtension xmlns:gpxtpx="http://www.garmin.com/xmlschemas/TrackPointExtension/v1">
            <gpxtpx:hr>112</gpxtpx:hr>
          </gpxtpx:TrackPointExtension>
        </extensions>
      </trkpt>
      <trkpt lat="48.71679" lon="1.78832">
        <ele>177.2</ele>
        <time>2026-01-31T10:52:29Z</time>
        <extensions>
          <gpxtpx:TrackPointExtension xmlns:gpxtpx="http://www.garmin.com/xmlschemas/TrackPointExtension/v1">
            <gpxtpx:hr>112</gpxtpx:hr>
          </gpxtpx:TrackPointExtension>
        </extensions>
      </trkpt>
      <trkpt lat="48.71678" lon="1.78836">
        <ele>177.2</ele>
        <time>2026-01-31T10:52:30Z</time>
        <extensions>
          <gpxtpx:TrackPointExtension xmlns:gpxtpx="http://www.garmin.com/xmlschemas/TrackPointExtension/v1">
            <gpxtpx:hr>112</gpxtpx:hr>
          </gpxtpx:TrackPointExtension>
        </extensions>
      </trkpt>
      <trkpt lat="48.71677" lon="1.78841">
        <ele>177.2</ele>
        <time>2026-01-31T10:52:31Z</time>
        <extensions>
          <gpxtpx:TrackPointExtension xmlns:gpxtpx="http://www.garmin.com/xmlschemas/TrackPointExtension/v1">
            <gpxtpx:hr>112</gpxtpx:hr>
          </gpxtpx:TrackPointExtension>
        </extensions>
      </trkpt>
      <trkpt lat="48.71676" lon="1.78845">
        <ele>177</ele>
        <time>2026-01-31T10:52:32Z</time>
        <extensions>
          <gpxtpx:TrackPointExtension xmlns:gpxtpx="http://www.garmin.com/xmlschemas/TrackPointExtension/v1">
            <gpxtpx:hr>113</gpxtpx:hr>
          </gpxtpx:TrackPointExtension>
        </extensions>
      </trkpt>
      <trkpt lat="48.71675" lon="1.78849">
        <ele>177</ele>
        <time>2026-01-31T10:52:33Z</time>
        <extensions>
          <gpxtpx:TrackPointExtension xmlns:gpxtpx="http://www.garmin.com/xmlschemas/TrackPointExtension/v1">
            <gpxtpx:hr>113</gpxtpx:hr>
          </gpxtpx:TrackPointExtension>
        </extensions>
      </trkpt>
      <trkpt lat="48.71674" lon="1.78854">
        <ele>177</ele>
        <time>2026-01-31T10:52:34Z</time>
        <extensions>
          <gpxtpx:TrackPointExtension xmlns:gpxtpx="http://www.garmin.com/xmlschemas/TrackPointExtension/v1">
            <gpxtpx:hr>113</gpxtpx:hr>
          </gpxtpx:TrackPointExtension>
        </extensions>
      </trkpt>
      <trkpt lat="48.71673" lon="1.78858">
        <ele>177</ele>
        <time>2026-01-31T10:52:35Z</time>
        <extensions>
          <gpxtpx:TrackPointExtension xmlns:gpxtpx="http://www.garmin.com/xmlschemas/TrackPointExtension/v1">
            <gpxtpx:hr>113</gpxtpx:hr>
          </gpxtpx:TrackPointExtension>
        </extensions>
      </trkpt>
      <trkpt lat="48.71672" lon="1.78862">
        <ele>177</ele>
        <time>2026-01-31T10:52:36Z</time>
        <extensions>
          <gpxtpx:TrackPointExtension xmlns:gpxtpx="http://www.garmin.com/xmlschemas/TrackPointExtension/v1">
            <gpxtpx:hr>113</gpxtpx:hr>
          </gpxtpx:TrackPointExtension>
        </extensions>
      </trkpt>
      <trkpt lat="48.71671" lon="1.78866">
        <ele>177</ele>
        <time>2026-01-31T10:52:37Z</time>
        <extensions>
          <gpxtpx:TrackPointExtension xmlns:gpxtpx="http://www.garmin.com/xmlschemas/TrackPointExtension/v1">
            <gpxtpx:hr>113</gpxtpx:hr>
          </gpxtpx:TrackPointExtension>
        </extensions>
      </trkpt>
      <trkpt lat="48.71669" lon="1.7887">
        <ele>177</ele>
        <time>2026-01-31T10:52:38Z</time>
        <extensions>
          <gpxtpx:TrackPointExtension xmlns:gpxtpx="http://www.garmin.com/xmlschemas/TrackPointExtension/v1">
            <gpxtpx:hr>114</gpxtpx:hr>
          </gpxtpx:TrackPointExtension>
        </extensions>
      </trkpt>
      <trkpt lat="48.71668" lon="1.78874">
        <ele>176.8</ele>
        <time>2026-01-31T10:52:39Z</time>
        <extensions>
          <gpxtpx:TrackPointExtension xmlns:gpxtpx="http://www.garmin.com/xmlschemas/TrackPointExtension/v1">
            <gpxtpx:hr>114</gpxtpx:hr>
          </gpxtpx:TrackPointExtension>
        </extensions>
      </trkpt>
      <trkpt lat="48.71667" lon="1.78878">
        <ele>176.8</ele>
        <time>2026-01-31T10:52:40Z</time>
        <extensions>
          <gpxtpx:TrackPointExtension xmlns:gpxtpx="http://www.garmin.com/xmlschemas/TrackPointExtension/v1">
            <gpxtpx:hr>114</gpxtpx:hr>
          </gpxtpx:TrackPointExtension>
        </extensions>
      </trkpt>
      <trkpt lat="48.71666" lon="1.78883">
        <ele>176.8</ele>
        <time>2026-01-31T10:52:41Z</time>
        <extensions>
          <gpxtpx:TrackPointExtension xmlns:gpxtpx="http://www.garmin.com/xmlschemas/TrackPointExtension/v1">
            <gpxtpx:hr>114</gpxtpx:hr>
          </gpxtpx:TrackPointExtension>
        </extensions>
      </trkpt>
      <trkpt lat="48.71664" lon="1.78887">
        <ele>176.8</ele>
        <time>2026-01-31T10:52:42Z</time>
        <extensions>
          <gpxtpx:TrackPointExtension xmlns:gpxtpx="http://www.garmin.com/xmlschemas/TrackPointExtension/v1">
            <gpxtpx:hr>114</gpxtpx:hr>
          </gpxtpx:TrackPointExtension>
        </extensions>
      </trkpt>
      <trkpt lat="48.71663" lon="1.78891">
        <ele>176.8</ele>
        <time>2026-01-31T10:52:43Z</time>
        <extensions>
          <gpxtpx:TrackPointExtension xmlns:gpxtpx="http://www.garmin.com/xmlschemas/TrackPointExtension/v1">
            <gpxtpx:hr>114</gpxtpx:hr>
          </gpxtpx:TrackPointExtension>
        </extensions>
      </trkpt>
      <trkpt lat="48.71662" lon="1.78896">
        <ele>176.8</ele>
        <time>2026-01-31T10:52:44Z</time>
        <extensions>
          <gpxtpx:TrackPointExtension xmlns:gpxtpx="http://www.garmin.com/xmlschemas/TrackPointExtension/v1">
            <gpxtpx:hr>114</gpxtpx:hr>
          </gpxtpx:TrackPointExtension>
        </extensions>
      </trkpt>
      <trkpt lat="48.71661" lon="1.789">
        <ele>176.8</ele>
        <time>2026-01-31T10:52:45Z</time>
        <extensions>
          <gpxtpx:TrackPointExtension xmlns:gpxtpx="http://www.garmin.com/xmlschemas/TrackPointExtension/v1">
            <gpxtpx:hr>114</gpxtpx:hr>
          </gpxtpx:TrackPointExtension>
        </extensions>
      </trkpt>
      <trkpt lat="48.7166" lon="1.78905">
        <ele>176.8</ele>
        <time>2026-01-31T10:52:46Z</time>
        <extensions>
          <gpxtpx:TrackPointExtension xmlns:gpxtpx="http://www.garmin.com/xmlschemas/TrackPointExtension/v1">
            <gpxtpx:hr>114</gpxtpx:hr>
          </gpxtpx:TrackPointExtension>
        </extensions>
      </trkpt>
      <trkpt lat="48.7166" lon="1.78909">
        <ele>176.8</ele>
        <time>2026-01-31T10:52:47Z</time>
        <extensions>
          <gpxtpx:TrackPointExtension xmlns:gpxtpx="http://www.garmin.com/xmlschemas/TrackPointExtension/v1">
            <gpxtpx:hr>114</gpxtpx:hr>
          </gpxtpx:TrackPointExtension>
        </extensions>
      </trkpt>
      <trkpt lat="48.71659" lon="1.78914">
        <ele>176.8</ele>
        <time>2026-01-31T10:52:48Z</time>
        <extensions>
          <gpxtpx:TrackPointExtension xmlns:gpxtpx="http://www.garmin.com/xmlschemas/TrackPointExtension/v1">
            <gpxtpx:hr>114</gpxtpx:hr>
          </gpxtpx:TrackPointExtension>
        </extensions>
      </trkpt>
      <trkpt lat="48.71658" lon="1.78918">
        <ele>176.8</ele>
        <time>2026-01-31T10:52:49Z</time>
        <extensions>
          <gpxtpx:TrackPointExtension xmlns:gpxtpx="http://www.garmin.com/xmlschemas/TrackPointExtension/v1">
            <gpxtpx:hr>114</gpxtpx:hr>
          </gpxtpx:TrackPointExtension>
        </extensions>
      </trkpt>
      <trkpt lat="48.71657" lon="1.78923">
        <ele>176.8</ele>
        <time>2026-01-31T10:52:50Z</time>
        <extensions>
          <gpxtpx:TrackPointExtension xmlns:gpxtpx="http://www.garmin.com/xmlschemas/TrackPointExtension/v1">
            <gpxtpx:hr>114</gpxtpx:hr>
          </gpxtpx:TrackPointExtension>
        </extensions>
      </trkpt>
      <trkpt lat="48.71656" lon="1.78927">
        <ele>176.8</ele>
        <time>2026-01-31T10:52:51Z</time>
        <extensions>
          <gpxtpx:TrackPointExtension xmlns:gpxtpx="http://www.garmin.com/xmlschemas/TrackPointExtension/v1">
            <gpxtpx:hr>114</gpxtpx:hr>
          </gpxtpx:TrackPointExtension>
        </extensions>
      </trkpt>
      <trkpt lat="48.71655" lon="1.78932">
        <ele>176.8</ele>
        <time>2026-01-31T10:52:52Z</time>
        <extensions>
          <gpxtpx:TrackPointExtension xmlns:gpxtpx="http://www.garmin.com/xmlschemas/TrackPointExtension/v1">
            <gpxtpx:hr>115</gpxtpx:hr>
          </gpxtpx:TrackPointExtension>
        </extensions>
      </trkpt>
      <trkpt lat="48.71653" lon="1.78937">
        <ele>176.8</ele>
        <time>2026-01-31T10:52:53Z</time>
        <extensions>
          <gpxtpx:TrackPointExtension xmlns:gpxtpx="http://www.garmin.com/xmlschemas/TrackPointExtension/v1">
            <gpxtpx:hr>115</gpxtpx:hr>
          </gpxtpx:TrackPointExtension>
        </extensions>
      </trkpt>
      <trkpt lat="48.71652" lon="1.78941">
        <ele>176.8</ele>
        <time>2026-01-31T10:52:54Z</time>
        <extensions>
          <gpxtpx:TrackPointExtension xmlns:gpxtpx="http://www.garmin.com/xmlschemas/TrackPointExtension/v1">
            <gpxtpx:hr>115</gpxtpx:hr>
          </gpxtpx:TrackPointExtension>
        </extensions>
      </trkpt>
      <trkpt lat="48.7165" lon="1.78946">
        <ele>176.8</ele>
        <time>2026-01-31T10:52:55Z</time>
        <extensions>
          <gpxtpx:TrackPointExtension xmlns:gpxtpx="http://www.garmin.com/xmlschemas/TrackPointExtension/v1">
            <gpxtpx:hr>115</gpxtpx:hr>
          </gpxtpx:TrackPointExtension>
        </extensions>
      </trkpt>
      <trkpt lat="48.71649" lon="1.78951">
        <ele>176.8</ele>
        <time>2026-01-31T10:52:56Z</time>
        <extensions>
          <gpxtpx:TrackPointExtension xmlns:gpxtpx="http://www.garmin.com/xmlschemas/TrackPointExtension/v1">
            <gpxtpx:hr>115</gpxtpx:hr>
          </gpxtpx:TrackPointExtension>
        </extensions>
      </trkpt>
      <trkpt lat="48.71647" lon="1.78956">
        <ele>176.8</ele>
        <time>2026-01-31T10:52:57Z</time>
        <extensions>
          <gpxtpx:TrackPointExtension xmlns:gpxtpx="http://www.garmin.com/xmlschemas/TrackPointExtension/v1">
            <gpxtpx:hr>115</gpxtpx:hr>
          </gpxtpx:TrackPointExtension>
        </extensions>
      </trkpt>
      <trkpt lat="48.71645" lon="1.78961">
        <ele>176.8</ele>
        <time>2026-01-31T10:52:58Z</time>
        <extensions>
          <gpxtpx:TrackPointExtension xmlns:gpxtpx="http://www.garmin.com/xmlschemas/TrackPointExtension/v1">
            <gpxtpx:hr>115</gpxtpx:hr>
          </gpxtpx:TrackPointExtension>
        </extensions>
      </trkpt>
      <trkpt lat="48.71644" lon="1.78967">
        <ele>176.8</ele>
        <time>2026-01-31T10:52:59Z</time>
        <extensions>
          <gpxtpx:TrackPointExtension xmlns:gpxtpx="http://www.garmin.com/xmlschemas/TrackPointExtension/v1">
            <gpxtpx:hr>115</gpxtpx:hr>
          </gpxtpx:TrackPointExtension>
        </extensions>
      </trkpt>
      <trkpt lat="48.71642" lon="1.78972">
        <ele>176.8</ele>
        <time>2026-01-31T10:53:00Z</time>
        <extensions>
          <gpxtpx:TrackPointExtension xmlns:gpxtpx="http://www.garmin.com/xmlschemas/TrackPointExtension/v1">
            <gpxtpx:hr>116</gpxtpx:hr>
          </gpxtpx:TrackPointExtension>
        </extensions>
      </trkpt>
      <trkpt lat="48.71641" lon="1.78977">
        <ele>176.8</ele>
        <time>2026-01-31T10:53:01Z</time>
        <extensions>
          <gpxtpx:TrackPointExtension xmlns:gpxtpx="http://www.garmin.com/xmlschemas/TrackPointExtension/v1">
            <gpxtpx:hr>116</gpxtpx:hr>
          </gpxtpx:TrackPointExtension>
        </extensions>
      </trkpt>
      <trkpt lat="48.71639" lon="1.78982">
        <ele>176.8</ele>
        <time>2026-01-31T10:53:02Z</time>
        <extensions>
          <gpxtpx:TrackPointExtension xmlns:gpxtpx="http://www.garmin.com/xmlschemas/TrackPointExtension/v1">
            <gpxtpx:hr>116</gpxtpx:hr>
          </gpxtpx:TrackPointExtension>
        </extensions>
      </trkpt>
      <trkpt lat="48.71638" lon="1.78987">
        <ele>176.8</ele>
        <time>2026-01-31T10:53:03Z</time>
        <extensions>
          <gpxtpx:TrackPointExtension xmlns:gpxtpx="http://www.garmin.com/xmlschemas/TrackPointExtension/v1">
            <gpxtpx:hr>116</gpxtpx:hr>
          </gpxtpx:TrackPointExtension>
        </extensions>
      </trkpt>
      <trkpt lat="48.71636" lon="1.78992">
        <ele>176.8</ele>
        <time>2026-01-31T10:53:04Z</time>
        <extensions>
          <gpxtpx:TrackPointExtension xmlns:gpxtpx="http://www.garmin.com/xmlschemas/TrackPointExtension/v1">
            <gpxtpx:hr>116</gpxtpx:hr>
          </gpxtpx:TrackPointExtension>
        </extensions>
      </trkpt>
      <trkpt lat="48.71635" lon="1.78996">
        <ele>176.8</ele>
        <time>2026-01-31T10:53:05Z</time>
        <extensions>
          <gpxtpx:TrackPointExtension xmlns:gpxtpx="http://www.garmin.com/xmlschemas/TrackPointExtension/v1">
            <gpxtpx:hr>116</gpxtpx:hr>
          </gpxtpx:TrackPointExtension>
        </extensions>
      </trkpt>
      <trkpt lat="48.71634" lon="1.79001">
        <ele>176.8</ele>
        <time>2026-01-31T10:53:06Z</time>
        <extensions>
          <gpxtpx:TrackPointExtension xmlns:gpxtpx="http://www.garmin.com/xmlschemas/TrackPointExtension/v1">
            <gpxtpx:hr>116</gpxtpx:hr>
          </gpxtpx:TrackPointExtension>
        </extensions>
      </trkpt>
      <trkpt lat="48.71633" lon="1.79005">
        <ele>176.8</ele>
        <time>2026-01-31T10:53:07Z</time>
        <extensions>
          <gpxtpx:TrackPointExtension xmlns:gpxtpx="http://www.garmin.com/xmlschemas/TrackPointExtension/v1">
            <gpxtpx:hr>116</gpxtpx:hr>
          </gpxtpx:TrackPointExtension>
        </extensions>
      </trkpt>
      <trkpt lat="48.71631" lon="1.7901">
        <ele>176.8</ele>
        <time>2026-01-31T10:53:08Z</time>
        <extensions>
          <gpxtpx:TrackPointExtension xmlns:gpxtpx="http://www.garmin.com/xmlschemas/TrackPointExtension/v1">
            <gpxtpx:hr>116</gpxtpx:hr>
          </gpxtpx:TrackPointExtension>
        </extensions>
      </trkpt>
      <trkpt lat="48.7163" lon="1.79015">
        <ele>176.8</ele>
        <time>2026-01-31T10:53:09Z</time>
        <extensions>
          <gpxtpx:TrackPointExtension xmlns:gpxtpx="http://www.garmin.com/xmlschemas/TrackPointExtension/v1">
            <gpxtpx:hr>116</gpxtpx:hr>
          </gpxtpx:TrackPointExtension>
        </extensions>
      </trkpt>
      <trkpt lat="48.71628" lon="1.7902">
        <ele>176.8</ele>
        <time>2026-01-31T10:53:10Z</time>
        <extensions>
          <gpxtpx:TrackPointExtension xmlns:gpxtpx="http://www.garmin.com/xmlschemas/TrackPointExtension/v1">
            <gpxtpx:hr>116</gpxtpx:hr>
          </gpxtpx:TrackPointExtension>
        </extensions>
      </trkpt>
      <trkpt lat="48.71626" lon="1.79025">
        <ele>176.8</ele>
        <time>2026-01-31T10:53:11Z</time>
        <extensions>
          <gpxtpx:TrackPointExtension xmlns:gpxtpx="http://www.garmin.com/xmlschemas/TrackPointExtension/v1">
            <gpxtpx:hr>116</gpxtpx:hr>
          </gpxtpx:TrackPointExtension>
        </extensions>
      </trkpt>
      <trkpt lat="48.71624" lon="1.7903">
        <ele>176.8</ele>
        <time>2026-01-31T10:53:12Z</time>
        <extensions>
          <gpxtpx:TrackPointExtension xmlns:gpxtpx="http://www.garmin.com/xmlschemas/TrackPointExtension/v1">
            <gpxtpx:hr>116</gpxtpx:hr>
          </gpxtpx:TrackPointExtension>
        </extensions>
      </trkpt>
      <trkpt lat="48.71622" lon="1.79035">
        <ele>176.8</ele>
        <time>2026-01-31T10:53:13Z</time>
        <extensions>
          <gpxtpx:TrackPointExtension xmlns:gpxtpx="http://www.garmin.com/xmlschemas/TrackPointExtension/v1">
            <gpxtpx:hr>116</gpxtpx:hr>
          </gpxtpx:TrackPointExtension>
        </extensions>
      </trkpt>
      <trkpt lat="48.7162" lon="1.7904">
        <ele>176.8</ele>
        <time>2026-01-31T10:53:14Z</time>
        <extensions>
          <gpxtpx:TrackPointExtension xmlns:gpxtpx="http://www.garmin.com/xmlschemas/TrackPointExtension/v1">
            <gpxtpx:hr>116</gpxtpx:hr>
          </gpxtpx:TrackPointExtension>
        </extensions>
      </trkpt>
      <trkpt lat="48.71617" lon="1.79045">
        <ele>176.8</ele>
        <time>2026-01-31T10:53:15Z</time>
        <extensions>
          <gpxtpx:TrackPointExtension xmlns:gpxtpx="http://www.garmin.com/xmlschemas/TrackPointExtension/v1">
            <gpxtpx:hr>116</gpxtpx:hr>
          </gpxtpx:TrackPointExtension>
        </extensions>
      </trkpt>
      <trkpt lat="48.71615" lon="1.7905">
        <ele>176.8</ele>
        <time>2026-01-31T10:53:16Z</time>
        <extensions>
          <gpxtpx:TrackPointExtension xmlns:gpxtpx="http://www.garmin.com/xmlschemas/TrackPointExtension/v1">
            <gpxtpx:hr>116</gpxtpx:hr>
          </gpxtpx:TrackPointExtension>
        </extensions>
      </trkpt>
      <trkpt lat="48.71613" lon="1.79054">
        <ele>176.8</ele>
        <time>2026-01-31T10:53:17Z</time>
        <extensions>
          <gpxtpx:TrackPointExtension xmlns:gpxtpx="http://www.garmin.com/xmlschemas/TrackPointExtension/v1">
            <gpxtpx:hr>116</gpxtpx:hr>
          </gpxtpx:TrackPointExtension>
        </extensions>
      </trkpt>
      <trkpt lat="48.71611" lon="1.79059">
        <ele>176.8</ele>
        <time>2026-01-31T10:53:18Z</time>
        <extensions>
          <gpxtpx:TrackPointExtension xmlns:gpxtpx="http://www.garmin.com/xmlschemas/TrackPointExtension/v1">
            <gpxtpx:hr>116</gpxtpx:hr>
          </gpxtpx:TrackPointExtension>
        </extensions>
      </trkpt>
      <trkpt lat="48.7161" lon="1.79063">
        <ele>176.8</ele>
        <time>2026-01-31T10:53:19Z</time>
        <extensions>
          <gpxtpx:TrackPointExtension xmlns:gpxtpx="http://www.garmin.com/xmlschemas/TrackPointExtension/v1">
            <gpxtpx:hr>116</gpxtpx:hr>
          </gpxtpx:TrackPointExtension>
        </extensions>
      </trkpt>
      <trkpt lat="48.71608" lon="1.79067">
        <ele>176.8</ele>
        <time>2026-01-31T10:53:20Z</time>
        <extensions>
          <gpxtpx:TrackPointExtension xmlns:gpxtpx="http://www.garmin.com/xmlschemas/TrackPointExtension/v1">
            <gpxtpx:hr>117</gpxtpx:hr>
          </gpxtpx:TrackPointExtension>
        </extensions>
      </trkpt>
      <trkpt lat="48.71608" lon="1.7907">
        <ele>176.8</ele>
        <time>2026-01-31T10:53:21Z</time>
        <extensions>
          <gpxtpx:TrackPointExtension xmlns:gpxtpx="http://www.garmin.com/xmlschemas/TrackPointExtension/v1">
            <gpxtpx:hr>117</gpxtpx:hr>
          </gpxtpx:TrackPointExtension>
        </extensions>
      </trkpt>
      <trkpt lat="48.71606" lon="1.79074">
        <ele>176.8</ele>
        <time>2026-01-31T10:53:22Z</time>
        <extensions>
          <gpxtpx:TrackPointExtension xmlns:gpxtpx="http://www.garmin.com/xmlschemas/TrackPointExtension/v1">
            <gpxtpx:hr>117</gpxtpx:hr>
          </gpxtpx:TrackPointExtension>
        </extensions>
      </trkpt>
      <trkpt lat="48.71606" lon="1.79077">
        <ele>176.8</ele>
        <time>2026-01-31T10:53:23Z</time>
        <extensions>
          <gpxtpx:TrackPointExtension xmlns:gpxtpx="http://www.garmin.com/xmlschemas/TrackPointExtension/v1">
            <gpxtpx:hr>117</gpxtpx:hr>
          </gpxtpx:TrackPointExtension>
        </extensions>
      </trkpt>
      <trkpt lat="48.71605" lon="1.79081">
        <ele>176.8</ele>
        <time>2026-01-31T10:53:24Z</time>
        <extensions>
          <gpxtpx:TrackPointExtension xmlns:gpxtpx="http://www.garmin.com/xmlschemas/TrackPointExtension/v1">
            <gpxtpx:hr>117</gpxtpx:hr>
          </gpxtpx:TrackPointExtension>
        </extensions>
      </trkpt>
      <trkpt lat="48.71604" lon="1.79084">
        <ele>176.8</ele>
        <time>2026-01-31T10:53:25Z</time>
        <extensions>
          <gpxtpx:TrackPointExtension xmlns:gpxtpx="http://www.garmin.com/xmlschemas/TrackPointExtension/v1">
            <gpxtpx:hr>117</gpxtpx:hr>
          </gpxtpx:TrackPointExtension>
        </extensions>
      </trkpt>
      <trkpt lat="48.71604" lon="1.79088">
        <ele>176.8</ele>
        <time>2026-01-31T10:53:26Z</time>
        <extensions>
          <gpxtpx:TrackPointExtension xmlns:gpxtpx="http://www.garmin.com/xmlschemas/TrackPointExtension/v1">
            <gpxtpx:hr>117</gpxtpx:hr>
          </gpxtpx:TrackPointExtension>
        </extensions>
      </trkpt>
      <trkpt lat="48.71603" lon="1.79091">
        <ele>176.8</ele>
        <time>2026-01-31T10:53:27Z</time>
        <extensions>
          <gpxtpx:TrackPointExtension xmlns:gpxtpx="http://www.garmin.com/xmlschemas/TrackPointExtension/v1">
            <gpxtpx:hr>117</gpxtpx:hr>
          </gpxtpx:TrackPointExtension>
        </extensions>
      </trkpt>
      <trkpt lat="48.71602" lon="1.79096">
        <ele>176.8</ele>
        <time>2026-01-31T10:53:28Z</time>
        <extensions>
          <gpxtpx:TrackPointExtension xmlns:gpxtpx="http://www.garmin.com/xmlschemas/TrackPointExtension/v1">
            <gpxtpx:hr>118</gpxtpx:hr>
          </gpxtpx:TrackPointExtension>
        </extensions>
      </trkpt>
      <trkpt lat="48.716" lon="1.791">
        <ele>176.8</ele>
        <time>2026-01-31T10:53:29Z</time>
        <extensions>
          <gpxtpx:TrackPointExtension xmlns:gpxtpx="http://www.garmin.com/xmlschemas/TrackPointExtension/v1">
            <gpxtpx:hr>118</gpxtpx:hr>
          </gpxtpx:TrackPointExtension>
        </extensions>
      </trkpt>
      <trkpt lat="48.71599" lon="1.79105">
        <ele>176.8</ele>
        <time>2026-01-31T10:53:30Z</time>
        <extensions>
          <gpxtpx:TrackPointExtension xmlns:gpxtpx="http://www.garmin.com/xmlschemas/TrackPointExtension/v1">
            <gpxtpx:hr>118</gpxtpx:hr>
          </gpxtpx:TrackPointExtension>
        </extensions>
      </trkpt>
      <trkpt lat="48.71597" lon="1.7911">
        <ele>176.8</ele>
        <time>2026-01-31T10:53:31Z</time>
        <extensions>
          <gpxtpx:TrackPointExtension xmlns:gpxtpx="http://www.garmin.com/xmlschemas/TrackPointExtension/v1">
            <gpxtpx:hr>118</gpxtpx:hr>
          </gpxtpx:TrackPointExtension>
        </extensions>
      </trkpt>
      <trkpt lat="48.71596" lon="1.79115">
        <ele>176.8</ele>
        <time>2026-01-31T10:53:32Z</time>
        <extensions>
          <gpxtpx:TrackPointExtension xmlns:gpxtpx="http://www.garmin.com/xmlschemas/TrackPointExtension/v1">
            <gpxtpx:hr>118</gpxtpx:hr>
          </gpxtpx:TrackPointExtension>
        </extensions>
      </trkpt>
      <trkpt lat="48.71594" lon="1.7912">
        <ele>176.8</ele>
        <time>2026-01-31T10:53:33Z</time>
        <extensions>
          <gpxtpx:TrackPointExtension xmlns:gpxtpx="http://www.garmin.com/xmlschemas/TrackPointExtension/v1">
            <gpxtpx:hr>118</gpxtpx:hr>
          </gpxtpx:TrackPointExtension>
        </extensions>
      </trkpt>
      <trkpt lat="48.71592" lon="1.79125">
        <ele>177</ele>
        <time>2026-01-31T10:53:34Z</time>
        <extensions>
          <gpxtpx:TrackPointExtension xmlns:gpxtpx="http://www.garmin.com/xmlschemas/TrackPointExtension/v1">
            <gpxtpx:hr>118</gpxtpx:hr>
          </gpxtpx:TrackPointExtension>
        </extensions>
      </trkpt>
      <trkpt lat="48.71591" lon="1.7913">
        <ele>177</ele>
        <time>2026-01-31T10:53:35Z</time>
        <extensions>
          <gpxtpx:TrackPointExtension xmlns:gpxtpx="http://www.garmin.com/xmlschemas/TrackPointExtension/v1">
            <gpxtpx:hr>118</gpxtpx:hr>
          </gpxtpx:TrackPointExtension>
        </extensions>
      </trkpt>
      <trkpt lat="48.71589" lon="1.79134">
        <ele>177</ele>
        <time>2026-01-31T10:53:36Z</time>
        <extensions>
          <gpxtpx:TrackPointExtension xmlns:gpxtpx="http://www.garmin.com/xmlschemas/TrackPointExtension/v1">
            <gpxtpx:hr>118</gpxtpx:hr>
          </gpxtpx:TrackPointExtension>
        </extensions>
      </trkpt>
      <trkpt lat="48.71588" lon="1.79139">
        <ele>177</ele>
        <time>2026-01-31T10:53:37Z</time>
        <extensions>
          <gpxtpx:TrackPointExtension xmlns:gpxtpx="http://www.garmin.com/xmlschemas/TrackPointExtension/v1">
            <gpxtpx:hr>118</gpxtpx:hr>
          </gpxtpx:TrackPointExtension>
        </extensions>
      </trkpt>
      <trkpt lat="48.71587" lon="1.79143">
        <ele>177</ele>
        <time>2026-01-31T10:53:38Z</time>
        <extensions>
          <gpxtpx:TrackPointExtension xmlns:gpxtpx="http://www.garmin.com/xmlschemas/TrackPointExtension/v1">
            <gpxtpx:hr>118</gpxtpx:hr>
          </gpxtpx:TrackPointExtension>
        </extensions>
      </trkpt>
      <trkpt lat="48.71585" lon="1.79148">
        <ele>177</ele>
        <time>2026-01-31T10:53:39Z</time>
        <extensions>
          <gpxtpx:TrackPointExtension xmlns:gpxtpx="http://www.garmin.com/xmlschemas/TrackPointExtension/v1">
            <gpxtpx:hr>118</gpxtpx:hr>
          </gpxtpx:TrackPointExtension>
        </extensions>
      </trkpt>
      <trkpt lat="48.71584" lon="1.79152">
        <ele>177</ele>
        <time>2026-01-31T10:53:40Z</time>
        <extensions>
          <gpxtpx:TrackPointExtension xmlns:gpxtpx="http://www.garmin.com/xmlschemas/TrackPointExtension/v1">
            <gpxtpx:hr>118</gpxtpx:hr>
          </gpxtpx:TrackPointExtension>
        </extensions>
      </trkpt>
      <trkpt lat="48.71583" lon="1.79157">
        <ele>177</ele>
        <time>2026-01-31T10:53:41Z</time>
        <extensions>
          <gpxtpx:TrackPointExtension xmlns:gpxtpx="http://www.garmin.com/xmlschemas/TrackPointExtension/v1">
            <gpxtpx:hr>118</gpxtpx:hr>
          </gpxtpx:TrackPointExtension>
        </extensions>
      </trkpt>
      <trkpt lat="48.71581" lon="1.79162">
        <ele>177</ele>
        <time>2026-01-31T10:53:42Z</time>
        <extensions>
          <gpxtpx:TrackPointExtension xmlns:gpxtpx="http://www.garmin.com/xmlschemas/TrackPointExtension/v1">
            <gpxtpx:hr>118</gpxtpx:hr>
          </gpxtpx:TrackPointExtension>
        </extensions>
      </trkpt>
      <trkpt lat="48.7158" lon="1.79167">
        <ele>177</ele>
        <time>2026-01-31T10:53:43Z</time>
        <extensions>
          <gpxtpx:TrackPointExtension xmlns:gpxtpx="http://www.garmin.com/xmlschemas/TrackPointExtension/v1">
            <gpxtpx:hr>118</gpxtpx:hr>
          </gpxtpx:TrackPointExtension>
        </extensions>
      </trkpt>
      <trkpt lat="48.71579" lon="1.79171">
        <ele>177</ele>
        <time>2026-01-31T10:53:44Z</time>
        <extensions>
          <gpxtpx:TrackPointExtension xmlns:gpxtpx="http://www.garmin.com/xmlschemas/TrackPointExtension/v1">
            <gpxtpx:hr>118</gpxtpx:hr>
          </gpxtpx:TrackPointExtension>
        </extensions>
      </trkpt>
      <trkpt lat="48.71578" lon="1.79176">
        <ele>177</ele>
        <time>2026-01-31T10:53:45Z</time>
        <extensions>
          <gpxtpx:TrackPointExtension xmlns:gpxtpx="http://www.garmin.com/xmlschemas/TrackPointExtension/v1">
            <gpxtpx:hr>118</gpxtpx:hr>
          </gpxtpx:TrackPointExtension>
        </extensions>
      </trkpt>
      <trkpt lat="48.71577" lon="1.7918">
        <ele>177</ele>
        <time>2026-01-31T10:53:46Z</time>
        <extensions>
          <gpxtpx:TrackPointExtension xmlns:gpxtpx="http://www.garmin.com/xmlschemas/TrackPointExtension/v1">
            <gpxtpx:hr>118</gpxtpx:hr>
          </gpxtpx:TrackPointExtension>
        </extensions>
      </trkpt>
      <trkpt lat="48.71576" lon="1.79184">
        <ele>177</ele>
        <time>2026-01-31T10:53:47Z</time>
        <extensions>
          <gpxtpx:TrackPointExtension xmlns:gpxtpx="http://www.garmin.com/xmlschemas/TrackPointExtension/v1">
            <gpxtpx:hr>119</gpxtpx:hr>
          </gpxtpx:TrackPointExtension>
        </extensions>
      </trkpt>
      <trkpt lat="48.71575" lon="1.79188">
        <ele>177</ele>
        <time>2026-01-31T10:53:48Z</time>
        <extensions>
          <gpxtpx:TrackPointExtension xmlns:gpxtpx="http://www.garmin.com/xmlschemas/TrackPointExtension/v1">
            <gpxtpx:hr>119</gpxtpx:hr>
          </gpxtpx:TrackPointExtension>
        </extensions>
      </trkpt>
      <trkpt lat="48.71574" lon="1.79191">
        <ele>177.2</ele>
        <time>2026-01-31T10:53:49Z</time>
        <extensions>
          <gpxtpx:TrackPointExtension xmlns:gpxtpx="http://www.garmin.com/xmlschemas/TrackPointExtension/v1">
            <gpxtpx:hr>119</gpxtpx:hr>
          </gpxtpx:TrackPointExtension>
        </extensions>
      </trkpt>
      <trkpt lat="48.71573" lon="1.79196">
        <ele>177.2</ele>
        <time>2026-01-31T10:53:50Z</time>
        <extensions>
          <gpxtpx:TrackPointExtension xmlns:gpxtpx="http://www.garmin.com/xmlschemas/TrackPointExtension/v1">
            <gpxtpx:hr>119</gpxtpx:hr>
          </gpxtpx:TrackPointExtension>
        </extensions>
      </trkpt>
      <trkpt lat="48.71572" lon="1.792">
        <ele>177.2</ele>
        <time>2026-01-31T10:53:51Z</time>
        <extensions>
          <gpxtpx:TrackPointExtension xmlns:gpxtpx="http://www.garmin.com/xmlschemas/TrackPointExtension/v1">
            <gpxtpx:hr>119</gpxtpx:hr>
          </gpxtpx:TrackPointExtension>
        </extensions>
      </trkpt>
      <trkpt lat="48.7157" lon="1.79205">
        <ele>177.2</ele>
        <time>2026-01-31T10:53:52Z</time>
        <extensions>
          <gpxtpx:TrackPointExtension xmlns:gpxtpx="http://www.garmin.com/xmlschemas/TrackPointExtension/v1">
            <gpxtpx:hr>119</gpxtpx:hr>
          </gpxtpx:TrackPointExtension>
        </extensions>
      </trkpt>
      <trkpt lat="48.71569" lon="1.79209">
        <ele>177.2</ele>
        <time>2026-01-31T10:53:53Z</time>
        <extensions>
          <gpxtpx:TrackPointExtension xmlns:gpxtpx="http://www.garmin.com/xmlschemas/TrackPointExtension/v1">
            <gpxtpx:hr>119</gpxtpx:hr>
          </gpxtpx:TrackPointExtension>
        </extensions>
      </trkpt>
      <trkpt lat="48.71567" lon="1.79214">
        <ele>177.2</ele>
        <time>2026-01-31T10:53:54Z</time>
        <extensions>
          <gpxtpx:TrackPointExtension xmlns:gpxtpx="http://www.garmin.com/xmlschemas/TrackPointExtension/v1">
            <gpxtpx:hr>119</gpxtpx:hr>
          </gpxtpx:TrackPointExtension>
        </extensions>
      </trkpt>
      <trkpt lat="48.71566" lon="1.79219">
        <ele>177.2</ele>
        <time>2026-01-31T10:53:55Z</time>
        <extensions>
          <gpxtpx:TrackPointExtension xmlns:gpxtpx="http://www.garmin.com/xmlschemas/TrackPointExtension/v1">
            <gpxtpx:hr>119</gpxtpx:hr>
          </gpxtpx:TrackPointExtension>
        </extensions>
      </trkpt>
      <trkpt lat="48.71564" lon="1.79224">
        <ele>177.4</ele>
        <time>2026-01-31T10:53:56Z</time>
        <extensions>
          <gpxtpx:TrackPointExtension xmlns:gpxtpx="http://www.garmin.com/xmlschemas/TrackPointExtension/v1">
            <gpxtpx:hr>119</gpxtpx:hr>
          </gpxtpx:TrackPointExtension>
        </extensions>
      </trkpt>
      <trkpt lat="48.71563" lon="1.79229">
        <ele>177.4</ele>
        <time>2026-01-31T10:53:57Z</time>
        <extensions>
          <gpxtpx:TrackPointExtension xmlns:gpxtpx="http://www.garmin.com/xmlschemas/TrackPointExtension/v1">
            <gpxtpx:hr>119</gpxtpx:hr>
          </gpxtpx:TrackPointExtension>
        </extensions>
      </trkpt>
      <trkpt lat="48.71561" lon="1.79234">
        <ele>177.4</ele>
        <time>2026-01-31T10:53:58Z</time>
        <extensions>
          <gpxtpx:TrackPointExtension xmlns:gpxtpx="http://www.garmin.com/xmlschemas/TrackPointExtension/v1">
            <gpxtpx:hr>120</gpxtpx:hr>
          </gpxtpx:TrackPointExtension>
        </extensions>
      </trkpt>
      <trkpt lat="48.7156" lon="1.7924">
        <ele>177.4</ele>
        <time>2026-01-31T10:53:59Z</time>
        <extensions>
          <gpxtpx:TrackPointExtension xmlns:gpxtpx="http://www.garmin.com/xmlschemas/TrackPointExtension/v1">
            <gpxtpx:hr>120</gpxtpx:hr>
          </gpxtpx:TrackPointExtension>
        </extensions>
      </trkpt>
      <trkpt lat="48.71558" lon="1.79246">
        <ele>177.4</ele>
        <time>2026-01-31T10:54:00Z</time>
        <extensions>
          <gpxtpx:TrackPointExtension xmlns:gpxtpx="http://www.garmin.com/xmlschemas/TrackPointExtension/v1">
            <gpxtpx:hr>120</gpxtpx:hr>
          </gpxtpx:TrackPointExtension>
        </extensions>
      </trkpt>
      <trkpt lat="48.71555" lon="1.79252">
        <ele>177.4</ele>
        <time>2026-01-31T10:54:01Z</time>
        <extensions>
          <gpxtpx:TrackPointExtension xmlns:gpxtpx="http://www.garmin.com/xmlschemas/TrackPointExtension/v1">
            <gpxtpx:hr>120</gpxtpx:hr>
          </gpxtpx:TrackPointExtension>
        </extensions>
      </trkpt>
      <trkpt lat="48.71552" lon="1.79259">
        <ele>177.4</ele>
        <time>2026-01-31T10:54:02Z</time>
        <extensions>
          <gpxtpx:TrackPointExtension xmlns:gpxtpx="http://www.garmin.com/xmlschemas/TrackPointExtension/v1">
            <gpxtpx:hr>120</gpxtpx:hr>
          </gpxtpx:TrackPointExtension>
        </extensions>
      </trkpt>
      <trkpt lat="48.71549" lon="1.79266">
        <ele>177.4</ele>
        <time>2026-01-31T10:54:03Z</time>
        <extensions>
          <gpxtpx:TrackPointExtension xmlns:gpxtpx="http://www.garmin.com/xmlschemas/TrackPointExtension/v1">
            <gpxtpx:hr>120</gpxtpx:hr>
          </gpxtpx:TrackPointExtension>
        </extensions>
      </trkpt>
      <trkpt lat="48.71546" lon="1.79273">
        <ele>177.4</ele>
        <time>2026-01-31T10:54:04Z</time>
        <extensions>
          <gpxtpx:TrackPointExtension xmlns:gpxtpx="http://www.garmin.com/xmlschemas/TrackPointExtension/v1">
            <gpxtpx:hr>120</gpxtpx:hr>
          </gpxtpx:TrackPointExtension>
        </extensions>
      </trkpt>
      <trkpt lat="48.71543" lon="1.7928">
        <ele>177.4</ele>
        <time>2026-01-31T10:54:05Z</time>
        <extensions>
          <gpxtpx:TrackPointExtension xmlns:gpxtpx="http://www.garmin.com/xmlschemas/TrackPointExtension/v1">
            <gpxtpx:hr>120</gpxtpx:hr>
          </gpxtpx:TrackPointExtension>
        </extensions>
      </trkpt>
      <trkpt lat="48.71541" lon="1.79287">
        <ele>177.4</ele>
        <time>2026-01-31T10:54:06Z</time>
        <extensions>
          <gpxtpx:TrackPointExtension xmlns:gpxtpx="http://www.garmin.com/xmlschemas/TrackPointExtension/v1">
            <gpxtpx:hr>119</gpxtpx:hr>
          </gpxtpx:TrackPointExtension>
        </extensions>
      </trkpt>
      <trkpt lat="48.71539" lon="1.79293">
        <ele>177.4</ele>
        <time>2026-01-31T10:54:07Z</time>
        <extensions>
          <gpxtpx:TrackPointExtension xmlns:gpxtpx="http://www.garmin.com/xmlschemas/TrackPointExtension/v1">
            <gpxtpx:hr>119</gpxtpx:hr>
          </gpxtpx:TrackPointExtension>
        </extensions>
      </trkpt>
      <trkpt lat="48.71537" lon="1.79298">
        <ele>177.4</ele>
        <time>2026-01-31T10:54:08Z</time>
        <extensions>
          <gpxtpx:TrackPointExtension xmlns:gpxtpx="http://www.garmin.com/xmlschemas/TrackPointExtension/v1">
            <gpxtpx:hr>119</gpxtpx:hr>
          </gpxtpx:TrackPointExtension>
        </extensions>
      </trkpt>
      <trkpt lat="48.71535" lon="1.79303">
        <ele>177.4</ele>
        <time>2026-01-31T10:54:09Z</time>
        <extensions>
          <gpxtpx:TrackPointExtension xmlns:gpxtpx="http://www.garmin.com/xmlschemas/TrackPointExtension/v1">
            <gpxtpx:hr>119</gpxtpx:hr>
          </gpxtpx:TrackPointExtension>
        </extensions>
      </trkpt>
      <trkpt lat="48.71533" lon="1.79307">
        <ele>177.4</ele>
        <time>2026-01-31T10:54:10Z</time>
        <extensions>
          <gpxtpx:TrackPointExtension xmlns:gpxtpx="http://www.garmin.com/xmlschemas/TrackPointExtension/v1">
            <gpxtpx:hr>120</gpxtpx:hr>
          </gpxtpx:TrackPointExtension>
        </extensions>
      </trkpt>
      <trkpt lat="48.71532" lon="1.7931">
        <ele>177.4</ele>
        <time>2026-01-31T10:54:11Z</time>
        <extensions>
          <gpxtpx:TrackPointExtension xmlns:gpxtpx="http://www.garmin.com/xmlschemas/TrackPointExtension/v1">
            <gpxtpx:hr>120</gpxtpx:hr>
          </gpxtpx:TrackPointExtension>
        </extensions>
      </trkpt>
      <trkpt lat="48.71532" lon="1.79312">
        <ele>177.4</ele>
        <time>2026-01-31T10:54:12Z</time>
        <extensions>
          <gpxtpx:TrackPointExtension xmlns:gpxtpx="http://www.garmin.com/xmlschemas/TrackPointExtension/v1">
            <gpxtpx:hr>120</gpxtpx:hr>
          </gpxtpx:TrackPointExtension>
        </extensions>
      </trkpt>
      <trkpt lat="48.71532" lon="1.79317">
        <ele>177.4</ele>
        <time>2026-01-31T10:54:14Z</time>
        <extensions>
          <gpxtpx:TrackPointExtension xmlns:gpxtpx="http://www.garmin.com/xmlschemas/TrackPointExtension/v1">
            <gpxtpx:hr>120</gpxtpx:hr>
          </gpxtpx:TrackPointExtension>
        </extensions>
      </trkpt>
      <trkpt lat="48.71534" lon="1.79321">
        <ele>177.2</ele>
        <time>2026-01-31T10:54:22Z</time>
        <extensions>
          <gpxtpx:TrackPointExtension xmlns:gpxtpx="http://www.garmin.com/xmlschemas/TrackPointExtension/v1">
            <gpxtpx:hr>118</gpxtpx:hr>
          </gpxtpx:TrackPointExtension>
        </extensions>
      </trkpt>
      <trkpt lat="48.71536" lon="1.79322">
        <ele>175.8</ele>
        <time>2026-01-31T10:54:35Z</time>
        <extensions>
          <gpxtpx:TrackPointExtension xmlns:gpxtpx="http://www.garmin.com/xmlschemas/TrackPointExtension/v1">
            <gpxtpx:hr>116</gpxtpx:hr>
          </gpxtpx:TrackPointExtension>
        </extensions>
      </trkpt>
      <trkpt lat="48.71539" lon="1.79324">
        <ele>175.6</ele>
        <time>2026-01-31T10:54:37Z</time>
        <extensions>
          <gpxtpx:TrackPointExtension xmlns:gpxtpx="http://www.garmin.com/xmlschemas/TrackPointExtension/v1">
            <gpxtpx:hr>115</gpxtpx:hr>
          </gpxtpx:TrackPointExtension>
        </extensions>
      </trkpt>
      <trkpt lat="48.71541" lon="1.79326">
        <ele>175.4</ele>
        <time>2026-01-31T10:54:39Z</time>
        <extensions>
          <gpxtpx:TrackPointExtension xmlns:gpxtpx="http://www.garmin.com/xmlschemas/TrackPointExtension/v1">
            <gpxtpx:hr>115</gpxtpx:hr>
          </gpxtpx:TrackPointExtension>
        </extensions>
      </trkpt>
      <trkpt lat="48.71544" lon="1.79328">
        <ele>175.4</ele>
        <time>2026-01-31T10:54:41Z</time>
        <extensions>
          <gpxtpx:TrackPointExtension xmlns:gpxtpx="http://www.garmin.com/xmlschemas/TrackPointExtension/v1">
            <gpxtpx:hr>115</gpxtpx:hr>
          </gpxtpx:TrackPointExtension>
        </extensions>
      </trkpt>
      <trkpt lat="48.71547" lon="1.7933">
        <ele>175.2</ele>
        <time>2026-01-31T10:54:43Z</time>
        <extensions>
          <gpxtpx:TrackPointExtension xmlns:gpxtpx="http://www.garmin.com/xmlschemas/TrackPointExtension/v1">
            <gpxtpx:hr>114</gpxtpx:hr>
          </gpxtpx:TrackPointExtension>
        </extensions>
      </trkpt>
      <trkpt lat="48.71549" lon="1.79332">
        <ele>175</ele>
        <time>2026-01-31T10:54:45Z</time>
        <extensions>
          <gpxtpx:TrackPointExtension xmlns:gpxtpx="http://www.garmin.com/xmlschemas/TrackPointExtension/v1">
            <gpxtpx:hr>114</gpxtpx:hr>
          </gpxtpx:TrackPointExtension>
        </extensions>
      </trkpt>
      <trkpt lat="48.71551" lon="1.79333">
        <ele>174.8</ele>
        <time>2026-01-31T10:54:47Z</time>
        <extensions>
          <gpxtpx:TrackPointExtension xmlns:gpxtpx="http://www.garmin.com/xmlschemas/TrackPointExtension/v1">
            <gpxtpx:hr>114</gpxtpx:hr>
          </gpxtpx:TrackPointExtension>
        </extensions>
      </trkpt>
      <trkpt lat="48.71553" lon="1.79335">
        <ele>174.6</ele>
        <time>2026-01-31T10:54:49Z</time>
        <extensions>
          <gpxtpx:TrackPointExtension xmlns:gpxtpx="http://www.garmin.com/xmlschemas/TrackPointExtension/v1">
            <gpxtpx:hr>113</gpxtpx:hr>
          </gpxtpx:TrackPointExtension>
        </extensions>
      </trkpt>
      <trkpt lat="48.71555" lon="1.79337">
        <ele>174.6</ele>
        <time>2026-01-31T10:54:51Z</time>
        <extensions>
          <gpxtpx:TrackPointExtension xmlns:gpxtpx="http://www.garmin.com/xmlschemas/TrackPointExtension/v1">
            <gpxtpx:hr>113</gpxtpx:hr>
          </gpxtpx:TrackPointExtension>
        </extensions>
      </trkpt>
      <trkpt lat="48.71557" lon="1.79338">
        <ele>174.4</ele>
        <time>2026-01-31T10:54:53Z</time>
        <extensions>
          <gpxtpx:TrackPointExtension xmlns:gpxtpx="http://www.garmin.com/xmlschemas/TrackPointExtension/v1">
            <gpxtpx:hr>113</gpxtpx:hr>
          </gpxtpx:TrackPointExtension>
        </extensions>
      </trkpt>
      <trkpt lat="48.71559" lon="1.7934">
        <ele>174.4</ele>
        <time>2026-01-31T10:54:55Z</time>
        <extensions>
          <gpxtpx:TrackPointExtension xmlns:gpxtpx="http://www.garmin.com/xmlschemas/TrackPointExtension/v1">
            <gpxtpx:hr>113</gpxtpx:hr>
          </gpxtpx:TrackPointExtension>
        </extensions>
      </trkpt>
      <trkpt lat="48.71561" lon="1.79342">
        <ele>174.4</ele>
        <time>2026-01-31T10:54:57Z</time>
        <extensions>
          <gpxtpx:TrackPointExtension xmlns:gpxtpx="http://www.garmin.com/xmlschemas/TrackPointExtension/v1">
            <gpxtpx:hr>112</gpxtpx:hr>
          </gpxtpx:TrackPointExtension>
        </extensions>
      </trkpt>
      <trkpt lat="48.71564" lon="1.79343">
        <ele>174.2</ele>
        <time>2026-01-31T10:54:59Z</time>
        <extensions>
          <gpxtpx:TrackPointExtension xmlns:gpxtpx="http://www.garmin.com/xmlschemas/TrackPointExtension/v1">
            <gpxtpx:hr>112</gpxtpx:hr>
          </gpxtpx:TrackPointExtension>
        </extensions>
      </trkpt>
      <trkpt lat="48.71566" lon="1.79345">
        <ele>174</ele>
        <time>2026-01-31T10:55:01Z</time>
        <extensions>
          <gpxtpx:TrackPointExtension xmlns:gpxtpx="http://www.garmin.com/xmlschemas/TrackPointExtension/v1">
            <gpxtpx:hr>112</gpxtpx:hr>
          </gpxtpx:TrackPointExtension>
        </extensions>
      </trkpt>
      <trkpt lat="48.71569" lon="1.79346">
        <ele>173.8</ele>
        <time>2026-01-31T10:55:03Z</time>
        <extensions>
          <gpxtpx:TrackPointExtension xmlns:gpxtpx="http://www.garmin.com/xmlschemas/TrackPointExtension/v1">
            <gpxtpx:hr>111</gpxtpx:hr>
          </gpxtpx:TrackPointExtension>
        </extensions>
      </trkpt>
      <trkpt lat="48.71571" lon="1.79346">
        <ele>173.6</ele>
        <time>2026-01-31T10:55:05Z</time>
        <extensions>
          <gpxtpx:TrackPointExtension xmlns:gpxtpx="http://www.garmin.com/xmlschemas/TrackPointExtension/v1">
            <gpxtpx:hr>111</gpxtpx:hr>
          </gpxtpx:TrackPointExtension>
        </extensions>
      </trkpt>
      <trkpt lat="48.71574" lon="1.79348">
        <ele>173.4</ele>
        <time>2026-01-31T10:55:07Z</time>
        <extensions>
          <gpxtpx:TrackPointExtension xmlns:gpxtpx="http://www.garmin.com/xmlschemas/TrackPointExtension/v1">
            <gpxtpx:hr>111</gpxtpx:hr>
          </gpxtpx:TrackPointExtension>
        </extensions>
      </trkpt>
      <trkpt lat="48.71577" lon="1.79349">
        <ele>173.4</ele>
        <time>2026-01-31T10:55:09Z</time>
        <extensions>
          <gpxtpx:TrackPointExtension xmlns:gpxtpx="http://www.garmin.com/xmlschemas/TrackPointExtension/v1">
            <gpxtpx:hr>111</gpxtpx:hr>
          </gpxtpx:TrackPointExtension>
        </extensions>
      </trkpt>
      <trkpt lat="48.7158" lon="1.79351">
        <ele>173.2</ele>
        <time>2026-01-31T10:55:11Z</time>
        <extensions>
          <gpxtpx:TrackPointExtension xmlns:gpxtpx="http://www.garmin.com/xmlschemas/TrackPointExtension/v1">
            <gpxtpx:hr>111</gpxtpx:hr>
          </gpxtpx:TrackPointExtension>
        </extensions>
      </trkpt>
      <trkpt lat="48.71583" lon="1.79352">
        <ele>173.2</ele>
        <time>2026-01-31T10:55:13Z</time>
        <extensions>
          <gpxtpx:TrackPointExtension xmlns:gpxtpx="http://www.garmin.com/xmlschemas/TrackPointExtension/v1">
            <gpxtpx:hr>111</gpxtpx:hr>
          </gpxtpx:TrackPointExtension>
        </extensions>
      </trkpt>
      <trkpt lat="48.71586" lon="1.79353">
        <ele>173</ele>
        <time>2026-01-31T10:55:15Z</time>
        <extensions>
          <gpxtpx:TrackPointExtension xmlns:gpxtpx="http://www.garmin.com/xmlschemas/TrackPointExtension/v1">
            <gpxtpx:hr>111</gpxtpx:hr>
          </gpxtpx:TrackPointExtension>
        </extensions>
      </trkpt>
      <trkpt lat="48.71588" lon="1.79354">
        <ele>173</ele>
        <time>2026-01-31T10:55:17Z</time>
        <extensions>
          <gpxtpx:TrackPointExtension xmlns:gpxtpx="http://www.garmin.com/xmlschemas/TrackPointExtension/v1">
            <gpxtpx:hr>110</gpxtpx:hr>
          </gpxtpx:TrackPointExtension>
        </extensions>
      </trkpt>
      <trkpt lat="48.71591" lon="1.79356">
        <ele>173</ele>
        <time>2026-01-31T10:55:19Z</time>
        <extensions>
          <gpxtpx:TrackPointExtension xmlns:gpxtpx="http://www.garmin.com/xmlschemas/TrackPointExtension/v1">
            <gpxtpx:hr>110</gpxtpx:hr>
          </gpxtpx:TrackPointExtension>
        </extensions>
      </trkpt>
      <trkpt lat="48.71594" lon="1.79358">
        <ele>172.8</ele>
        <time>2026-01-31T10:55:21Z</time>
        <extensions>
          <gpxtpx:TrackPointExtension xmlns:gpxtpx="http://www.garmin.com/xmlschemas/TrackPointExtension/v1">
            <gpxtpx:hr>110</gpxtpx:hr>
          </gpxtpx:TrackPointExtension>
        </extensions>
      </trkpt>
      <trkpt lat="48.71596" lon="1.7936">
        <ele>172.8</ele>
        <time>2026-01-31T10:55:23Z</time>
        <extensions>
          <gpxtpx:TrackPointExtension xmlns:gpxtpx="http://www.garmin.com/xmlschemas/TrackPointExtension/v1">
            <gpxtpx:hr>110</gpxtpx:hr>
          </gpxtpx:TrackPointExtension>
        </extensions>
      </trkpt>
      <trkpt lat="48.71598" lon="1.79362">
        <ele>172.6</ele>
        <time>2026-01-31T10:55:25Z</time>
        <extensions>
          <gpxtpx:TrackPointExtension xmlns:gpxtpx="http://www.garmin.com/xmlschemas/TrackPointExtension/v1">
            <gpxtpx:hr>110</gpxtpx:hr>
          </gpxtpx:TrackPointExtension>
        </extensions>
      </trkpt>
      <trkpt lat="48.71601" lon="1.79364">
        <ele>172.6</ele>
        <time>2026-01-31T10:55:27Z</time>
        <extensions>
          <gpxtpx:TrackPointExtension xmlns:gpxtpx="http://www.garmin.com/xmlschemas/TrackPointExtension/v1">
            <gpxtpx:hr>110</gpxtpx:hr>
          </gpxtpx:TrackPointExtension>
        </extensions>
      </trkpt>
      <trkpt lat="48.71603" lon="1.79365">
        <ele>172.6</ele>
        <time>2026-01-31T10:55:29Z</time>
        <extensions>
          <gpxtpx:TrackPointExtension xmlns:gpxtpx="http://www.garmin.com/xmlschemas/TrackPointExtension/v1">
            <gpxtpx:hr>110</gpxtpx:hr>
          </gpxtpx:TrackPointExtension>
        </extensions>
      </trkpt>
      <trkpt lat="48.71605" lon="1.79367">
        <ele>172.6</ele>
        <time>2026-01-31T10:55:31Z</time>
        <extensions>
          <gpxtpx:TrackPointExtension xmlns:gpxtpx="http://www.garmin.com/xmlschemas/TrackPointExtension/v1">
            <gpxtpx:hr>110</gpxtpx:hr>
          </gpxtpx:TrackPointExtension>
        </extensions>
      </trkpt>
      <trkpt lat="48.71608" lon="1.79369">
        <ele>172.6</ele>
        <time>2026-01-31T10:55:33Z</time>
        <extensions>
          <gpxtpx:TrackPointExtension xmlns:gpxtpx="http://www.garmin.com/xmlschemas/TrackPointExtension/v1">
            <gpxtpx:hr>109</gpxtpx:hr>
          </gpxtpx:TrackPointExtension>
        </extensions>
      </trkpt>
      <trkpt lat="48.7161" lon="1.7937">
        <ele>172.6</ele>
        <time>2026-01-31T10:55:35Z</time>
        <extensions>
          <gpxtpx:TrackPointExtension xmlns:gpxtpx="http://www.garmin.com/xmlschemas/TrackPointExtension/v1">
            <gpxtpx:hr>109</gpxtpx:hr>
          </gpxtpx:TrackPointExtension>
        </extensions>
      </trkpt>
      <trkpt lat="48.71612" lon="1.79372">
        <ele>172.6</ele>
        <time>2026-01-31T10:55:37Z</time>
        <extensions>
          <gpxtpx:TrackPointExtension xmlns:gpxtpx="http://www.garmin.com/xmlschemas/TrackPointExtension/v1">
            <gpxtpx:hr>109</gpxtpx:hr>
          </gpxtpx:TrackPointExtension>
        </extensions>
      </trkpt>
      <trkpt lat="48.71615" lon="1.79373">
        <ele>172.8</ele>
        <time>2026-01-31T10:55:39Z</time>
        <extensions>
          <gpxtpx:TrackPointExtension xmlns:gpxtpx="http://www.garmin.com/xmlschemas/TrackPointExtension/v1">
            <gpxtpx:hr>109</gpxtpx:hr>
          </gpxtpx:TrackPointExtension>
        </extensions>
      </trkpt>
      <trkpt lat="48.71617" lon="1.79375">
        <ele>172.8</ele>
        <time>2026-01-31T10:55:41Z</time>
        <extensions>
          <gpxtpx:TrackPointExtension xmlns:gpxtpx="http://www.garmin.com/xmlschemas/TrackPointExtension/v1">
            <gpxtpx:hr>109</gpxtpx:hr>
          </gpxtpx:TrackPointExtension>
        </extensions>
      </trkpt>
      <trkpt lat="48.71619" lon="1.79377">
        <ele>172.6</ele>
        <time>2026-01-31T10:55:43Z</time>
        <extensions>
          <gpxtpx:TrackPointExtension xmlns:gpxtpx="http://www.garmin.com/xmlschemas/TrackPointExtension/v1">
            <gpxtpx:hr>109</gpxtpx:hr>
          </gpxtpx:TrackPointExtension>
        </extensions>
      </trkpt>
      <trkpt lat="48.71622" lon="1.79379">
        <ele>172.6</ele>
        <time>2026-01-31T10:55:45Z</time>
        <extensions>
          <gpxtpx:TrackPointExtension xmlns:gpxtpx="http://www.garmin.com/xmlschemas/TrackPointExtension/v1">
            <gpxtpx:hr>109</gpxtpx:hr>
          </gpxtpx:TrackPointExtension>
        </extensions>
      </trkpt>
      <trkpt lat="48.71624" lon="1.7938">
        <ele>172.6</ele>
        <time>2026-01-31T10:55:47Z</time>
        <extensions>
          <gpxtpx:TrackPointExtension xmlns:gpxtpx="http://www.garmin.com/xmlschemas/TrackPointExtension/v1">
            <gpxtpx:hr>109</gpxtpx:hr>
          </gpxtpx:TrackPointExtension>
        </extensions>
      </trkpt>
      <trkpt lat="48.71626" lon="1.79382">
        <ele>172.4</ele>
        <time>2026-01-31T10:55:49Z</time>
        <extensions>
          <gpxtpx:TrackPointExtension xmlns:gpxtpx="http://www.garmin.com/xmlschemas/TrackPointExtension/v1">
            <gpxtpx:hr>109</gpxtpx:hr>
          </gpxtpx:TrackPointExtension>
        </extensions>
      </trkpt>
      <trkpt lat="48.71628" lon="1.79383">
        <ele>172.2</ele>
        <time>2026-01-31T10:55:51Z</time>
        <extensions>
          <gpxtpx:TrackPointExtension xmlns:gpxtpx="http://www.garmin.com/xmlschemas/TrackPointExtension/v1">
            <gpxtpx:hr>109</gpxtpx:hr>
          </gpxtpx:TrackPointExtension>
        </extensions>
      </trkpt>
      <trkpt lat="48.71631" lon="1.79384">
        <ele>172</ele>
        <time>2026-01-31T10:55:53Z</time>
        <extensions>
          <gpxtpx:TrackPointExtension xmlns:gpxtpx="http://www.garmin.com/xmlschemas/TrackPointExtension/v1">
            <gpxtpx:hr>108</gpxtpx:hr>
          </gpxtpx:TrackPointExtension>
        </extensions>
      </trkpt>
      <trkpt lat="48.71633" lon="1.79385">
        <ele>171.8</ele>
        <time>2026-01-31T10:55:55Z</time>
        <extensions>
          <gpxtpx:TrackPointExtension xmlns:gpxtpx="http://www.garmin.com/xmlschemas/TrackPointExtension/v1">
            <gpxtpx:hr>108</gpxtpx:hr>
          </gpxtpx:TrackPointExtension>
        </extensions>
      </trkpt>
      <trkpt lat="48.71636" lon="1.79386">
        <ele>171.6</ele>
        <time>2026-01-31T10:55:57Z</time>
        <extensions>
          <gpxtpx:TrackPointExtension xmlns:gpxtpx="http://www.garmin.com/xmlschemas/TrackPointExtension/v1">
            <gpxtpx:hr>108</gpxtpx:hr>
          </gpxtpx:TrackPointExtension>
        </extensions>
      </trkpt>
      <trkpt lat="48.71638" lon="1.79387">
        <ele>171.6</ele>
        <time>2026-01-31T10:55:59Z</time>
        <extensions>
          <gpxtpx:TrackPointExtension xmlns:gpxtpx="http://www.garmin.com/xmlschemas/TrackPointExtension/v1">
            <gpxtpx:hr>108</gpxtpx:hr>
          </gpxtpx:TrackPointExtension>
        </extensions>
      </trkpt>
      <trkpt lat="48.71642" lon="1.79389">
        <ele>171.6</ele>
        <time>2026-01-31T10:56:01Z</time>
        <extensions>
          <gpxtpx:TrackPointExtension xmlns:gpxtpx="http://www.garmin.com/xmlschemas/TrackPointExtension/v1">
            <gpxtpx:hr>108</gpxtpx:hr>
          </gpxtpx:TrackPointExtension>
        </extensions>
      </trkpt>
      <trkpt lat="48.71644" lon="1.7939">
        <ele>171.6</ele>
        <time>2026-01-31T10:56:02Z</time>
        <extensions>
          <gpxtpx:TrackPointExtension xmlns:gpxtpx="http://www.garmin.com/xmlschemas/TrackPointExtension/v1">
            <gpxtpx:hr>108</gpxtpx:hr>
          </gpxtpx:TrackPointExtension>
        </extensions>
      </trkpt>
      <trkpt lat="48.71646" lon="1.79392">
        <ele>171.4</ele>
        <time>2026-01-31T10:56:04Z</time>
        <extensions>
          <gpxtpx:TrackPointExtension xmlns:gpxtpx="http://www.garmin.com/xmlschemas/TrackPointExtension/v1">
            <gpxtpx:hr>108</gpxtpx:hr>
          </gpxtpx:TrackPointExtension>
        </extensions>
      </trkpt>
      <trkpt lat="48.71649" lon="1.79394">
        <ele>171.4</ele>
        <time>2026-01-31T10:56:06Z</time>
        <extensions>
          <gpxtpx:TrackPointExtension xmlns:gpxtpx="http://www.garmin.com/xmlschemas/TrackPointExtension/v1">
            <gpxtpx:hr>108</gpxtpx:hr>
          </gpxtpx:TrackPointExtension>
        </extensions>
      </trkpt>
      <trkpt lat="48.71652" lon="1.79396">
        <ele>171.2</ele>
        <time>2026-01-31T10:56:08Z</time>
        <extensions>
          <gpxtpx:TrackPointExtension xmlns:gpxtpx="http://www.garmin.com/xmlschemas/TrackPointExtension/v1">
            <gpxtpx:hr>108</gpxtpx:hr>
          </gpxtpx:TrackPointExtension>
        </extensions>
      </trkpt>
      <trkpt lat="48.71654" lon="1.79398">
        <ele>171</ele>
        <time>2026-01-31T10:56:10Z</time>
        <extensions>
          <gpxtpx:TrackPointExtension xmlns:gpxtpx="http://www.garmin.com/xmlschemas/TrackPointExtension/v1">
            <gpxtpx:hr>108</gpxtpx:hr>
          </gpxtpx:TrackPointExtension>
        </extensions>
      </trkpt>
      <trkpt lat="48.71656" lon="1.79399">
        <ele>171.2</ele>
        <time>2026-01-31T10:56:12Z</time>
        <extensions>
          <gpxtpx:TrackPointExtension xmlns:gpxtpx="http://www.garmin.com/xmlschemas/TrackPointExtension/v1">
            <gpxtpx:hr>108</gpxtpx:hr>
          </gpxtpx:TrackPointExtension>
        </extensions>
      </trkpt>
      <trkpt lat="48.71659" lon="1.79401">
        <ele>171.2</ele>
        <time>2026-01-31T10:56:14Z</time>
        <extensions>
          <gpxtpx:TrackPointExtension xmlns:gpxtpx="http://www.garmin.com/xmlschemas/TrackPointExtension/v1">
            <gpxtpx:hr>109</gpxtpx:hr>
          </gpxtpx:TrackPointExtension>
        </extensions>
      </trkpt>
      <trkpt lat="48.71662" lon="1.79404">
        <ele>171.2</ele>
        <time>2026-01-31T10:56:16Z</time>
        <extensions>
          <gpxtpx:TrackPointExtension xmlns:gpxtpx="http://www.garmin.com/xmlschemas/TrackPointExtension/v1">
            <gpxtpx:hr>109</gpxtpx:hr>
          </gpxtpx:TrackPointExtension>
        </extensions>
      </trkpt>
      <trkpt lat="48.71664" lon="1.79406">
        <ele>171.2</ele>
        <time>2026-01-31T10:56:18Z</time>
        <extensions>
          <gpxtpx:TrackPointExtension xmlns:gpxtpx="http://www.garmin.com/xmlschemas/TrackPointExtension/v1">
            <gpxtpx:hr>109</gpxtpx:hr>
          </gpxtpx:TrackPointExtension>
        </extensions>
      </trkpt>
      <trkpt lat="48.71666" lon="1.79408">
        <ele>171.4</ele>
        <time>2026-01-31T10:56:20Z</time>
        <extensions>
          <gpxtpx:TrackPointExtension xmlns:gpxtpx="http://www.garmin.com/xmlschemas/TrackPointExtension/v1">
            <gpxtpx:hr>109</gpxtpx:hr>
          </gpxtpx:TrackPointExtension>
        </extensions>
      </trkpt>
      <trkpt lat="48.71669" lon="1.79409">
        <ele>171.6</ele>
        <time>2026-01-31T10:56:22Z</time>
        <extensions>
          <gpxtpx:TrackPointExtension xmlns:gpxtpx="http://www.garmin.com/xmlschemas/TrackPointExtension/v1">
            <gpxtpx:hr>108</gpxtpx:hr>
          </gpxtpx:TrackPointExtension>
        </extensions>
      </trkpt>
      <trkpt lat="48.71672" lon="1.79411">
        <ele>171.8</ele>
        <time>2026-01-31T10:56:24Z</time>
        <extensions>
          <gpxtpx:TrackPointExtension xmlns:gpxtpx="http://www.garmin.com/xmlschemas/TrackPointExtension/v1">
            <gpxtpx:hr>108</gpxtpx:hr>
          </gpxtpx:TrackPointExtension>
        </extensions>
      </trkpt>
      <trkpt lat="48.71675" lon="1.79413">
        <ele>171.8</ele>
        <time>2026-01-31T10:56:26Z</time>
        <extensions>
          <gpxtpx:TrackPointExtension xmlns:gpxtpx="http://www.garmin.com/xmlschemas/TrackPointExtension/v1">
            <gpxtpx:hr>108</gpxtpx:hr>
          </gpxtpx:TrackPointExtension>
        </extensions>
      </trkpt>
      <trkpt lat="48.71678" lon="1.79415">
        <ele>171.8</ele>
        <time>2026-01-31T10:56:28Z</time>
        <extensions>
          <gpxtpx:TrackPointExtension xmlns:gpxtpx="http://www.garmin.com/xmlschemas/TrackPointExtension/v1">
            <gpxtpx:hr>108</gpxtpx:hr>
          </gpxtpx:TrackPointExtension>
        </extensions>
      </trkpt>
      <trkpt lat="48.7168" lon="1.79417">
        <ele>171.6</ele>
        <time>2026-01-31T10:56:30Z</time>
        <extensions>
          <gpxtpx:TrackPointExtension xmlns:gpxtpx="http://www.garmin.com/xmlschemas/TrackPointExtension/v1">
            <gpxtpx:hr>108</gpxtpx:hr>
          </gpxtpx:TrackPointExtension>
        </extensions>
      </trkpt>
      <trkpt lat="48.71683" lon="1.79419">
        <ele>171.6</ele>
        <time>2026-01-31T10:56:32Z</time>
        <extensions>
          <gpxtpx:TrackPointExtension xmlns:gpxtpx="http://www.garmin.com/xmlschemas/TrackPointExtension/v1">
            <gpxtpx:hr>108</gpxtpx:hr>
          </gpxtpx:TrackPointExtension>
        </extensions>
      </trkpt>
      <trkpt lat="48.71685" lon="1.7942">
        <ele>171.4</ele>
        <time>2026-01-31T10:56:34Z</time>
        <extensions>
          <gpxtpx:TrackPointExtension xmlns:gpxtpx="http://www.garmin.com/xmlschemas/TrackPointExtension/v1">
            <gpxtpx:hr>108</gpxtpx:hr>
          </gpxtpx:TrackPointExtension>
        </extensions>
      </trkpt>
      <trkpt lat="48.71687" lon="1.79421">
        <ele>171.2</ele>
        <time>2026-01-31T10:56:36Z</time>
        <extensions>
          <gpxtpx:TrackPointExtension xmlns:gpxtpx="http://www.garmin.com/xmlschemas/TrackPointExtension/v1">
            <gpxtpx:hr>108</gpxtpx:hr>
          </gpxtpx:TrackPointExtension>
        </extensions>
      </trkpt>
      <trkpt lat="48.7169" lon="1.79423">
        <ele>171</ele>
        <time>2026-01-31T10:56:38Z</time>
        <extensions>
          <gpxtpx:TrackPointExtension xmlns:gpxtpx="http://www.garmin.com/xmlschemas/TrackPointExtension/v1">
            <gpxtpx:hr>108</gpxtpx:hr>
          </gpxtpx:TrackPointExtension>
        </extensions>
      </trkpt>
      <trkpt lat="48.71693" lon="1.79425">
        <ele>170.8</ele>
        <time>2026-01-31T10:56:40Z</time>
        <extensions>
          <gpxtpx:TrackPointExtension xmlns:gpxtpx="http://www.garmin.com/xmlschemas/TrackPointExtension/v1">
            <gpxtpx:hr>108</gpxtpx:hr>
          </gpxtpx:TrackPointExtension>
        </extensions>
      </trkpt>
      <trkpt lat="48.71695" lon="1.79427">
        <ele>170.8</ele>
        <time>2026-01-31T10:56:42Z</time>
        <extensions>
          <gpxtpx:TrackPointExtension xmlns:gpxtpx="http://www.garmin.com/xmlschemas/TrackPointExtension/v1">
            <gpxtpx:hr>108</gpxtpx:hr>
          </gpxtpx:TrackPointExtension>
        </extensions>
      </trkpt>
      <trkpt lat="48.71697" lon="1.79429">
        <ele>170.8</ele>
        <time>2026-01-31T10:56:44Z</time>
        <extensions>
          <gpxtpx:TrackPointExtension xmlns:gpxtpx="http://www.garmin.com/xmlschemas/TrackPointExtension/v1">
            <gpxtpx:hr>108</gpxtpx:hr>
          </gpxtpx:TrackPointExtension>
        </extensions>
      </trkpt>
      <trkpt lat="48.71699" lon="1.79431">
        <ele>170.8</ele>
        <time>2026-01-31T10:56:46Z</time>
        <extensions>
          <gpxtpx:TrackPointExtension xmlns:gpxtpx="http://www.garmin.com/xmlschemas/TrackPointExtension/v1">
            <gpxtpx:hr>108</gpxtpx:hr>
          </gpxtpx:TrackPointExtension>
        </extensions>
      </trkpt>
      <trkpt lat="48.71701" lon="1.79434">
        <ele>170.6</ele>
        <time>2026-01-31T10:56:49Z</time>
        <extensions>
          <gpxtpx:TrackPointExtension xmlns:gpxtpx="http://www.garmin.com/xmlschemas/TrackPointExtension/v1">
            <gpxtpx:hr>108</gpxtpx:hr>
          </gpxtpx:TrackPointExtension>
        </extensions>
      </trkpt>
      <trkpt lat="48.71703" lon="1.79436">
        <ele>170.6</ele>
        <time>2026-01-31T10:56:51Z</time>
        <extensions>
          <gpxtpx:TrackPointExtension xmlns:gpxtpx="http://www.garmin.com/xmlschemas/TrackPointExtension/v1">
            <gpxtpx:hr>108</gpxtpx:hr>
          </gpxtpx:TrackPointExtension>
        </extensions>
      </trkpt>
      <trkpt lat="48.71706" lon="1.79438">
        <ele>170.4</ele>
        <time>2026-01-31T10:56:53Z</time>
        <extensions>
          <gpxtpx:TrackPointExtension xmlns:gpxtpx="http://www.garmin.com/xmlschemas/TrackPointExtension/v1">
            <gpxtpx:hr>108</gpxtpx:hr>
          </gpxtpx:TrackPointExtension>
        </extensions>
      </trkpt>
      <trkpt lat="48.71709" lon="1.7944">
        <ele>170.4</ele>
        <time>2026-01-31T10:56:55Z</time>
        <extensions>
          <gpxtpx:TrackPointExtension xmlns:gpxtpx="http://www.garmin.com/xmlschemas/TrackPointExtension/v1">
            <gpxtpx:hr>108</gpxtpx:hr>
          </gpxtpx:TrackPointExtension>
        </extensions>
      </trkpt>
      <trkpt lat="48.71711" lon="1.79441">
        <ele>170.2</ele>
        <time>2026-01-31T10:56:56Z</time>
        <extensions>
          <gpxtpx:TrackPointExtension xmlns:gpxtpx="http://www.garmin.com/xmlschemas/TrackPointExtension/v1">
            <gpxtpx:hr>108</gpxtpx:hr>
          </gpxtpx:TrackPointExtension>
        </extensions>
      </trkpt>
      <trkpt lat="48.71713" lon="1.79442">
        <ele>170.2</ele>
        <time>2026-01-31T10:56:57Z</time>
        <extensions>
          <gpxtpx:TrackPointExtension xmlns:gpxtpx="http://www.garmin.com/xmlschemas/TrackPointExtension/v1">
            <gpxtpx:hr>108</gpxtpx:hr>
          </gpxtpx:TrackPointExtension>
        </extensions>
      </trkpt>
      <trkpt lat="48.71717" lon="1.79444">
        <ele>170</ele>
        <time>2026-01-31T10:56:59Z</time>
        <extensions>
          <gpxtpx:TrackPointExtension xmlns:gpxtpx="http://www.garmin.com/xmlschemas/TrackPointExtension/v1">
            <gpxtpx:hr>108</gpxtpx:hr>
          </gpxtpx:TrackPointExtension>
        </extensions>
      </trkpt>
      <trkpt lat="48.71719" lon="1.79445">
        <ele>169.8</ele>
        <time>2026-01-31T10:57:00Z</time>
        <extensions>
          <gpxtpx:TrackPointExtension xmlns:gpxtpx="http://www.garmin.com/xmlschemas/TrackPointExtension/v1">
            <gpxtpx:hr>108</gpxtpx:hr>
          </gpxtpx:TrackPointExtension>
        </extensions>
      </trkpt>
      <trkpt lat="48.71722" lon="1.79447">
        <ele>169.6</ele>
        <time>2026-01-31T10:57:02Z</time>
        <extensions>
          <gpxtpx:TrackPointExtension xmlns:gpxtpx="http://www.garmin.com/xmlschemas/TrackPointExtension/v1">
            <gpxtpx:hr>108</gpxtpx:hr>
          </gpxtpx:TrackPointExtension>
        </extensions>
      </trkpt>
      <trkpt lat="48.71724" lon="1.79448">
        <ele>169.6</ele>
        <time>2026-01-31T10:57:04Z</time>
        <extensions>
          <gpxtpx:TrackPointExtension xmlns:gpxtpx="http://www.garmin.com/xmlschemas/TrackPointExtension/v1">
            <gpxtpx:hr>108</gpxtpx:hr>
          </gpxtpx:TrackPointExtension>
        </extensions>
      </trkpt>
      <trkpt lat="48.71726" lon="1.7945">
        <ele>169.2</ele>
        <time>2026-01-31T10:57:06Z</time>
        <extensions>
          <gpxtpx:TrackPointExtension xmlns:gpxtpx="http://www.garmin.com/xmlschemas/TrackPointExtension/v1">
            <gpxtpx:hr>108</gpxtpx:hr>
          </gpxtpx:TrackPointExtension>
        </extensions>
      </trkpt>
      <trkpt lat="48.71728" lon="1.79452">
        <ele>169</ele>
        <time>2026-01-31T10:57:08Z</time>
        <extensions>
          <gpxtpx:TrackPointExtension xmlns:gpxtpx="http://www.garmin.com/xmlschemas/TrackPointExtension/v1">
            <gpxtpx:hr>108</gpxtpx:hr>
          </gpxtpx:TrackPointExtension>
        </extensions>
      </trkpt>
      <trkpt lat="48.7173" lon="1.79453">
        <ele>168.8</ele>
        <time>2026-01-31T10:57:10Z</time>
        <extensions>
          <gpxtpx:TrackPointExtension xmlns:gpxtpx="http://www.garmin.com/xmlschemas/TrackPointExtension/v1">
            <gpxtpx:hr>108</gpxtpx:hr>
          </gpxtpx:TrackPointExtension>
        </extensions>
      </trkpt>
      <trkpt lat="48.71732" lon="1.79454">
        <ele>168.8</ele>
        <time>2026-01-31T10:57:12Z</time>
        <extensions>
          <gpxtpx:TrackPointExtension xmlns:gpxtpx="http://www.garmin.com/xmlschemas/TrackPointExtension/v1">
            <gpxtpx:hr>109</gpxtpx:hr>
          </gpxtpx:TrackPointExtension>
        </extensions>
      </trkpt>
      <trkpt lat="48.71733" lon="1.79457">
        <ele>168.6</ele>
        <time>2026-01-31T10:57:14Z</time>
        <extensions>
          <gpxtpx:TrackPointExtension xmlns:gpxtpx="http://www.garmin.com/xmlschemas/TrackPointExtension/v1">
            <gpxtpx:hr>109</gpxtpx:hr>
          </gpxtpx:TrackPointExtension>
        </extensions>
      </trkpt>
      <trkpt lat="48.71735" lon="1.79459">
        <ele>168.2</ele>
        <time>2026-01-31T10:57:16Z</time>
        <extensions>
          <gpxtpx:TrackPointExtension xmlns:gpxtpx="http://www.garmin.com/xmlschemas/TrackPointExtension/v1">
            <gpxtpx:hr>109</gpxtpx:hr>
          </gpxtpx:TrackPointExtension>
        </extensions>
      </trkpt>
      <trkpt lat="48.71737" lon="1.79461">
        <ele>168</ele>
        <time>2026-01-31T10:57:18Z</time>
        <extensions>
          <gpxtpx:TrackPointExtension xmlns:gpxtpx="http://www.garmin.com/xmlschemas/TrackPointExtension/v1">
            <gpxtpx:hr>108</gpxtpx:hr>
          </gpxtpx:TrackPointExtension>
        </extensions>
      </trkpt>
      <trkpt lat="48.7174" lon="1.79462">
        <ele>167.4</ele>
        <time>2026-01-31T10:57:21Z</time>
        <extensions>
          <gpxtpx:TrackPointExtension xmlns:gpxtpx="http://www.garmin.com/xmlschemas/TrackPointExtension/v1">
            <gpxtpx:hr>109</gpxtpx:hr>
          </gpxtpx:TrackPointExtension>
        </extensions>
      </trkpt>
      <trkpt lat="48.71742" lon="1.79462">
        <ele>167.2</ele>
        <time>2026-01-31T10:57:24Z</time>
        <extensions>
          <gpxtpx:TrackPointExtension xmlns:gpxtpx="http://www.garmin.com/xmlschemas/TrackPointExtension/v1">
            <gpxtpx:hr>109</gpxtpx:hr>
          </gpxtpx:TrackPointExtension>
        </extensions>
      </trkpt>
      <trkpt lat="48.71745" lon="1.79463">
        <ele>167</ele>
        <time>2026-01-31T10:57:26Z</time>
        <extensions>
          <gpxtpx:TrackPointExtension xmlns:gpxtpx="http://www.garmin.com/xmlschemas/TrackPointExtension/v1">
            <gpxtpx:hr>110</gpxtpx:hr>
          </gpxtpx:TrackPointExtension>
        </extensions>
      </trkpt>
      <trkpt lat="48.71747" lon="1.79464">
        <ele>166.8</ele>
        <time>2026-01-31T10:57:28Z</time>
        <extensions>
          <gpxtpx:TrackPointExtension xmlns:gpxtpx="http://www.garmin.com/xmlschemas/TrackPointExtension/v1">
            <gpxtpx:hr>110</gpxtpx:hr>
          </gpxtpx:TrackPointExtension>
        </extensions>
      </trkpt>
      <trkpt lat="48.7175" lon="1.79465">
        <ele>166.8</ele>
        <time>2026-01-31T10:57:30Z</time>
        <extensions>
          <gpxtpx:TrackPointExtension xmlns:gpxtpx="http://www.garmin.com/xmlschemas/TrackPointExtension/v1">
            <gpxtpx:hr>110</gpxtpx:hr>
          </gpxtpx:TrackPointExtension>
        </extensions>
      </trkpt>
      <trkpt lat="48.71753" lon="1.79466">
        <ele>166.6</ele>
        <time>2026-01-31T10:57:32Z</time>
        <extensions>
          <gpxtpx:TrackPointExtension xmlns:gpxtpx="http://www.garmin.com/xmlschemas/TrackPointExtension/v1">
            <gpxtpx:hr>110</gpxtpx:hr>
          </gpxtpx:TrackPointExtension>
        </extensions>
      </trkpt>
      <trkpt lat="48.71756" lon="1.79467">
        <ele>166.6</ele>
        <time>2026-01-31T10:57:34Z</time>
        <extensions>
          <gpxtpx:TrackPointExtension xmlns:gpxtpx="http://www.garmin.com/xmlschemas/TrackPointExtension/v1">
            <gpxtpx:hr>110</gpxtpx:hr>
          </gpxtpx:TrackPointExtension>
        </extensions>
      </trkpt>
      <trkpt lat="48.71758" lon="1.79468">
        <ele>166.6</ele>
        <time>2026-01-31T10:57:35Z</time>
        <extensions>
          <gpxtpx:TrackPointExtension xmlns:gpxtpx="http://www.garmin.com/xmlschemas/TrackPointExtension/v1">
            <gpxtpx:hr>110</gpxtpx:hr>
          </gpxtpx:TrackPointExtension>
        </extensions>
      </trkpt>
      <trkpt lat="48.71761" lon="1.7947">
        <ele>166.6</ele>
        <time>2026-01-31T10:57:37Z</time>
        <extensions>
          <gpxtpx:TrackPointExtension xmlns:gpxtpx="http://www.garmin.com/xmlschemas/TrackPointExtension/v1">
            <gpxtpx:hr>110</gpxtpx:hr>
          </gpxtpx:TrackPointExtension>
        </extensions>
      </trkpt>
      <trkpt lat="48.71764" lon="1.79472">
        <ele>166.6</ele>
        <time>2026-01-31T10:57:39Z</time>
        <extensions>
          <gpxtpx:TrackPointExtension xmlns:gpxtpx="http://www.garmin.com/xmlschemas/TrackPointExtension/v1">
            <gpxtpx:hr>110</gpxtpx:hr>
          </gpxtpx:TrackPointExtension>
        </extensions>
      </trkpt>
      <trkpt lat="48.71767" lon="1.79473">
        <ele>166.4</ele>
        <time>2026-01-31T10:57:41Z</time>
        <extensions>
          <gpxtpx:TrackPointExtension xmlns:gpxtpx="http://www.garmin.com/xmlschemas/TrackPointExtension/v1">
            <gpxtpx:hr>110</gpxtpx:hr>
          </gpxtpx:TrackPointExtension>
        </extensions>
      </trkpt>
      <trkpt lat="48.71769" lon="1.79474">
        <ele>166.4</ele>
        <time>2026-01-31T10:57:43Z</time>
        <extensions>
          <gpxtpx:TrackPointExtension xmlns:gpxtpx="http://www.garmin.com/xmlschemas/TrackPointExtension/v1">
            <gpxtpx:hr>109</gpxtpx:hr>
          </gpxtpx:TrackPointExtension>
        </extensions>
      </trkpt>
      <trkpt lat="48.71771" lon="1.79473">
        <ele>166.6</ele>
        <time>2026-01-31T10:57:45Z</time>
        <extensions>
          <gpxtpx:TrackPointExtension xmlns:gpxtpx="http://www.garmin.com/xmlschemas/TrackPointExtension/v1">
            <gpxtpx:hr>109</gpxtpx:hr>
          </gpxtpx:TrackPointExtension>
        </extensions>
      </trkpt>
      <trkpt lat="48.71773" lon="1.79473">
        <ele>167</ele>
        <time>2026-01-31T10:57:47Z</time>
        <extensions>
          <gpxtpx:TrackPointExtension xmlns:gpxtpx="http://www.garmin.com/xmlschemas/TrackPointExtension/v1">
            <gpxtpx:hr>109</gpxtpx:hr>
          </gpxtpx:TrackPointExtension>
        </extensions>
      </trkpt>
      <trkpt lat="48.71776" lon="1.79474">
        <ele>167.2</ele>
        <time>2026-01-31T10:57:49Z</time>
        <extensions>
          <gpxtpx:TrackPointExtension xmlns:gpxtpx="http://www.garmin.com/xmlschemas/TrackPointExtension/v1">
            <gpxtpx:hr>109</gpxtpx:hr>
          </gpxtpx:TrackPointExtension>
        </extensions>
      </trkpt>
      <trkpt lat="48.71779" lon="1.79475">
        <ele>167.2</ele>
        <time>2026-01-31T10:57:51Z</time>
        <extensions>
          <gpxtpx:TrackPointExtension xmlns:gpxtpx="http://www.garmin.com/xmlschemas/TrackPointExtension/v1">
            <gpxtpx:hr>109</gpxtpx:hr>
          </gpxtpx:TrackPointExtension>
        </extensions>
      </trkpt>
      <trkpt lat="48.7178" lon="1.79477">
        <ele>167.4</ele>
        <time>2026-01-31T10:57:53Z</time>
        <extensions>
          <gpxtpx:TrackPointExtension xmlns:gpxtpx="http://www.garmin.com/xmlschemas/TrackPointExtension/v1">
            <gpxtpx:hr>109</gpxtpx:hr>
          </gpxtpx:TrackPointExtension>
        </extensions>
      </trkpt>
      <trkpt lat="48.71783" lon="1.79479">
        <ele>167.8</ele>
        <time>2026-01-31T10:57:55Z</time>
        <extensions>
          <gpxtpx:TrackPointExtension xmlns:gpxtpx="http://www.garmin.com/xmlschemas/TrackPointExtension/v1">
            <gpxtpx:hr>109</gpxtpx:hr>
          </gpxtpx:TrackPointExtension>
        </extensions>
      </trkpt>
      <trkpt lat="48.71785" lon="1.79481">
        <ele>168</ele>
        <time>2026-01-31T10:57:57Z</time>
        <extensions>
          <gpxtpx:TrackPointExtension xmlns:gpxtpx="http://www.garmin.com/xmlschemas/TrackPointExtension/v1">
            <gpxtpx:hr>109</gpxtpx:hr>
          </gpxtpx:TrackPointExtension>
        </extensions>
      </trkpt>
      <trkpt lat="48.71787" lon="1.79483">
        <ele>168</ele>
        <time>2026-01-31T10:57:59Z</time>
        <extensions>
          <gpxtpx:TrackPointExtension xmlns:gpxtpx="http://www.garmin.com/xmlschemas/TrackPointExtension/v1">
            <gpxtpx:hr>109</gpxtpx:hr>
          </gpxtpx:TrackPointExtension>
        </extensions>
      </trkpt>
      <trkpt lat="48.71789" lon="1.79485">
        <ele>168</ele>
        <time>2026-01-31T10:58:01Z</time>
        <extensions>
          <gpxtpx:TrackPointExtension xmlns:gpxtpx="http://www.garmin.com/xmlschemas/TrackPointExtension/v1">
            <gpxtpx:hr>109</gpxtpx:hr>
          </gpxtpx:TrackPointExtension>
        </extensions>
      </trkpt>
      <trkpt lat="48.71793" lon="1.79487">
        <ele>168.2</ele>
        <time>2026-01-31T10:58:03Z</time>
        <extensions>
          <gpxtpx:TrackPointExtension xmlns:gpxtpx="http://www.garmin.com/xmlschemas/TrackPointExtension/v1">
            <gpxtpx:hr>109</gpxtpx:hr>
          </gpxtpx:TrackPointExtension>
        </extensions>
      </trkpt>
      <trkpt lat="48.71795" lon="1.79489">
        <ele>168.2</ele>
        <time>2026-01-31T10:58:05Z</time>
        <extensions>
          <gpxtpx:TrackPointExtension xmlns:gpxtpx="http://www.garmin.com/xmlschemas/TrackPointExtension/v1">
            <gpxtpx:hr>109</gpxtpx:hr>
          </gpxtpx:TrackPointExtension>
        </extensions>
      </trkpt>
      <trkpt lat="48.71798" lon="1.79491">
        <ele>168.4</ele>
        <time>2026-01-31T10:58:07Z</time>
        <extensions>
          <gpxtpx:TrackPointExtension xmlns:gpxtpx="http://www.garmin.com/xmlschemas/TrackPointExtension/v1">
            <gpxtpx:hr>109</gpxtpx:hr>
          </gpxtpx:TrackPointExtension>
        </extensions>
      </trkpt>
      <trkpt lat="48.71801" lon="1.79493">
        <ele>168.4</ele>
        <time>2026-01-31T10:58:09Z</time>
        <extensions>
          <gpxtpx:TrackPointExtension xmlns:gpxtpx="http://www.garmin.com/xmlschemas/TrackPointExtension/v1">
            <gpxtpx:hr>110</gpxtpx:hr>
          </gpxtpx:TrackPointExtension>
        </extensions>
      </trkpt>
      <trkpt lat="48.71803" lon="1.79494">
        <ele>168.4</ele>
        <time>2026-01-31T10:58:10Z</time>
        <extensions>
          <gpxtpx:TrackPointExtension xmlns:gpxtpx="http://www.garmin.com/xmlschemas/TrackPointExtension/v1">
            <gpxtpx:hr>110</gpxtpx:hr>
          </gpxtpx:TrackPointExtension>
        </extensions>
      </trkpt>
      <trkpt lat="48.71804" lon="1.79495">
        <ele>168.4</ele>
        <time>2026-01-31T10:58:11Z</time>
        <extensions>
          <gpxtpx:TrackPointExtension xmlns:gpxtpx="http://www.garmin.com/xmlschemas/TrackPointExtension/v1">
            <gpxtpx:hr>110</gpxtpx:hr>
          </gpxtpx:TrackPointExtension>
        </extensions>
      </trkpt>
      <trkpt lat="48.71806" lon="1.79497">
        <ele>168.4</ele>
        <time>2026-01-31T10:58:12Z</time>
        <extensions>
          <gpxtpx:TrackPointExtension xmlns:gpxtpx="http://www.garmin.com/xmlschemas/TrackPointExtension/v1">
            <gpxtpx:hr>110</gpxtpx:hr>
          </gpxtpx:TrackPointExtension>
        </extensions>
      </trkpt>
      <trkpt lat="48.71809" lon="1.79499">
        <ele>168.4</ele>
        <time>2026-01-31T10:58:14Z</time>
        <extensions>
          <gpxtpx:TrackPointExtension xmlns:gpxtpx="http://www.garmin.com/xmlschemas/TrackPointExtension/v1">
            <gpxtpx:hr>110</gpxtpx:hr>
          </gpxtpx:TrackPointExtension>
        </extensions>
      </trkpt>
      <trkpt lat="48.71811" lon="1.795">
        <ele>168.4</ele>
        <time>2026-01-31T10:58:15Z</time>
        <extensions>
          <gpxtpx:TrackPointExtension xmlns:gpxtpx="http://www.garmin.com/xmlschemas/TrackPointExtension/v1">
            <gpxtpx:hr>110</gpxtpx:hr>
          </gpxtpx:TrackPointExtension>
        </extensions>
      </trkpt>
      <trkpt lat="48.71814" lon="1.79502">
        <ele>168.4</ele>
        <time>2026-01-31T10:58:17Z</time>
        <extensions>
          <gpxtpx:TrackPointExtension xmlns:gpxtpx="http://www.garmin.com/xmlschemas/TrackPointExtension/v1">
            <gpxtpx:hr>110</gpxtpx:hr>
          </gpxtpx:TrackPointExtension>
        </extensions>
      </trkpt>
      <trkpt lat="48.71816" lon="1.79506">
        <ele>168.6</ele>
        <time>2026-01-31T10:58:19Z</time>
        <extensions>
          <gpxtpx:TrackPointExtension xmlns:gpxtpx="http://www.garmin.com/xmlschemas/TrackPointExtension/v1">
            <gpxtpx:hr>110</gpxtpx:hr>
          </gpxtpx:TrackPointExtension>
        </extensions>
      </trkpt>
      <trkpt lat="48.71818" lon="1.79509">
        <ele>168.8</ele>
        <time>2026-01-31T10:58:21Z</time>
        <extensions>
          <gpxtpx:TrackPointExtension xmlns:gpxtpx="http://www.garmin.com/xmlschemas/TrackPointExtension/v1">
            <gpxtpx:hr>110</gpxtpx:hr>
          </gpxtpx:TrackPointExtension>
        </extensions>
      </trkpt>
      <trkpt lat="48.71821" lon="1.79512">
        <ele>169.2</ele>
        <time>2026-01-31T10:58:23Z</time>
        <extensions>
          <gpxtpx:TrackPointExtension xmlns:gpxtpx="http://www.garmin.com/xmlschemas/TrackPointExtension/v1">
            <gpxtpx:hr>110</gpxtpx:hr>
          </gpxtpx:TrackPointExtension>
        </extensions>
      </trkpt>
      <trkpt lat="48.71823" lon="1.79514">
        <ele>169.6</ele>
        <time>2026-01-31T10:58:25Z</time>
        <extensions>
          <gpxtpx:TrackPointExtension xmlns:gpxtpx="http://www.garmin.com/xmlschemas/TrackPointExtension/v1">
            <gpxtpx:hr>110</gpxtpx:hr>
          </gpxtpx:TrackPointExtension>
        </extensions>
      </trkpt>
      <trkpt lat="48.71826" lon="1.79515">
        <ele>170</ele>
        <time>2026-01-31T10:58:27Z</time>
        <extensions>
          <gpxtpx:TrackPointExtension xmlns:gpxtpx="http://www.garmin.com/xmlschemas/TrackPointExtension/v1">
            <gpxtpx:hr>110</gpxtpx:hr>
          </gpxtpx:TrackPointExtension>
        </extensions>
      </trkpt>
      <trkpt lat="48.71829" lon="1.79517">
        <ele>170.6</ele>
        <time>2026-01-31T10:58:29Z</time>
        <extensions>
          <gpxtpx:TrackPointExtension xmlns:gpxtpx="http://www.garmin.com/xmlschemas/TrackPointExtension/v1">
            <gpxtpx:hr>110</gpxtpx:hr>
          </gpxtpx:TrackPointExtension>
        </extensions>
      </trkpt>
      <trkpt lat="48.71832" lon="1.79518">
        <ele>171</ele>
        <time>2026-01-31T10:58:31Z</time>
        <extensions>
          <gpxtpx:TrackPointExtension xmlns:gpxtpx="http://www.garmin.com/xmlschemas/TrackPointExtension/v1">
            <gpxtpx:hr>110</gpxtpx:hr>
          </gpxtpx:TrackPointExtension>
        </extensions>
      </trkpt>
      <trkpt lat="48.71835" lon="1.79519">
        <ele>171.4</ele>
        <time>2026-01-31T10:58:33Z</time>
        <extensions>
          <gpxtpx:TrackPointExtension xmlns:gpxtpx="http://www.garmin.com/xmlschemas/TrackPointExtension/v1">
            <gpxtpx:hr>110</gpxtpx:hr>
          </gpxtpx:TrackPointExtension>
        </extensions>
      </trkpt>
      <trkpt lat="48.71838" lon="1.7952">
        <ele>171.8</ele>
        <time>2026-01-31T10:58:35Z</time>
        <extensions>
          <gpxtpx:TrackPointExtension xmlns:gpxtpx="http://www.garmin.com/xmlschemas/TrackPointExtension/v1">
            <gpxtpx:hr>110</gpxtpx:hr>
          </gpxtpx:TrackPointExtension>
        </extensions>
      </trkpt>
      <trkpt lat="48.7184" lon="1.7952">
        <ele>172</ele>
        <time>2026-01-31T10:58:37Z</time>
        <extensions>
          <gpxtpx:TrackPointExtension xmlns:gpxtpx="http://www.garmin.com/xmlschemas/TrackPointExtension/v1">
            <gpxtpx:hr>110</gpxtpx:hr>
          </gpxtpx:TrackPointExtension>
        </extensions>
      </trkpt>
      <trkpt lat="48.71843" lon="1.7952">
        <ele>172.4</ele>
        <time>2026-01-31T10:58:39Z</time>
        <extensions>
          <gpxtpx:TrackPointExtension xmlns:gpxtpx="http://www.garmin.com/xmlschemas/TrackPointExtension/v1">
            <gpxtpx:hr>110</gpxtpx:hr>
          </gpxtpx:TrackPointExtension>
        </extensions>
      </trkpt>
      <trkpt lat="48.71846" lon="1.7952">
        <ele>172.4</ele>
        <time>2026-01-31T10:58:41Z</time>
        <extensions>
          <gpxtpx:TrackPointExtension xmlns:gpxtpx="http://www.garmin.com/xmlschemas/TrackPointExtension/v1">
            <gpxtpx:hr>110</gpxtpx:hr>
          </gpxtpx:TrackPointExtension>
        </extensions>
      </trkpt>
      <trkpt lat="48.71849" lon="1.79521">
        <ele>172.6</ele>
        <time>2026-01-31T10:58:43Z</time>
        <extensions>
          <gpxtpx:TrackPointExtension xmlns:gpxtpx="http://www.garmin.com/xmlschemas/TrackPointExtension/v1">
            <gpxtpx:hr>110</gpxtpx:hr>
          </gpxtpx:TrackPointExtension>
        </extensions>
      </trkpt>
      <trkpt lat="48.71851" lon="1.79522">
        <ele>172.8</ele>
        <time>2026-01-31T10:58:45Z</time>
        <extensions>
          <gpxtpx:TrackPointExtension xmlns:gpxtpx="http://www.garmin.com/xmlschemas/TrackPointExtension/v1">
            <gpxtpx:hr>110</gpxtpx:hr>
          </gpxtpx:TrackPointExtension>
        </extensions>
      </trkpt>
      <trkpt lat="48.71854" lon="1.79524">
        <ele>173</ele>
        <time>2026-01-31T10:58:47Z</time>
        <extensions>
          <gpxtpx:TrackPointExtension xmlns:gpxtpx="http://www.garmin.com/xmlschemas/TrackPointExtension/v1">
            <gpxtpx:hr>110</gpxtpx:hr>
          </gpxtpx:TrackPointExtension>
        </extensions>
      </trkpt>
      <trkpt lat="48.71856" lon="1.79525">
        <ele>173.2</ele>
        <time>2026-01-31T10:58:49Z</time>
        <extensions>
          <gpxtpx:TrackPointExtension xmlns:gpxtpx="http://www.garmin.com/xmlschemas/TrackPointExtension/v1">
            <gpxtpx:hr>110</gpxtpx:hr>
          </gpxtpx:TrackPointExtension>
        </extensions>
      </trkpt>
      <trkpt lat="48.71858" lon="1.79526">
        <ele>173.2</ele>
        <time>2026-01-31T10:58:51Z</time>
        <extensions>
          <gpxtpx:TrackPointExtension xmlns:gpxtpx="http://www.garmin.com/xmlschemas/TrackPointExtension/v1">
            <gpxtpx:hr>110</gpxtpx:hr>
          </gpxtpx:TrackPointExtension>
        </extensions>
      </trkpt>
      <trkpt lat="48.7186" lon="1.79526">
        <ele>173.8</ele>
        <time>2026-01-31T10:58:54Z</time>
        <extensions>
          <gpxtpx:TrackPointExtension xmlns:gpxtpx="http://www.garmin.com/xmlschemas/TrackPointExtension/v1">
            <gpxtpx:hr>110</gpxtpx:hr>
          </gpxtpx:TrackPointExtension>
        </extensions>
      </trkpt>
      <trkpt lat="48.71862" lon="1.79527">
        <ele>174.4</ele>
        <time>2026-01-31T10:58:56Z</time>
        <extensions>
          <gpxtpx:TrackPointExtension xmlns:gpxtpx="http://www.garmin.com/xmlschemas/TrackPointExtension/v1">
            <gpxtpx:hr>110</gpxtpx:hr>
          </gpxtpx:TrackPointExtension>
        </extensions>
      </trkpt>
      <trkpt lat="48.71865" lon="1.79529">
        <ele>175</ele>
        <time>2026-01-31T10:58:58Z</time>
        <extensions>
          <gpxtpx:TrackPointExtension xmlns:gpxtpx="http://www.garmin.com/xmlschemas/TrackPointExtension/v1">
            <gpxtpx:hr>110</gpxtpx:hr>
          </gpxtpx:TrackPointExtension>
        </extensions>
      </trkpt>
      <trkpt lat="48.71867" lon="1.79531">
        <ele>175.4</ele>
        <time>2026-01-31T10:59:00Z</time>
        <extensions>
          <gpxtpx:TrackPointExtension xmlns:gpxtpx="http://www.garmin.com/xmlschemas/TrackPointExtension/v1">
            <gpxtpx:hr>110</gpxtpx:hr>
          </gpxtpx:TrackPointExtension>
        </extensions>
      </trkpt>
      <trkpt lat="48.71869" lon="1.79534">
        <ele>175.8</ele>
        <time>2026-01-31T10:59:02Z</time>
        <extensions>
          <gpxtpx:TrackPointExtension xmlns:gpxtpx="http://www.garmin.com/xmlschemas/TrackPointExtension/v1">
            <gpxtpx:hr>110</gpxtpx:hr>
          </gpxtpx:TrackPointExtension>
        </extensions>
      </trkpt>
      <trkpt lat="48.71871" lon="1.79536">
        <ele>176.2</ele>
        <time>2026-01-31T10:59:04Z</time>
        <extensions>
          <gpxtpx:TrackPointExtension xmlns:gpxtpx="http://www.garmin.com/xmlschemas/TrackPointExtension/v1">
            <gpxtpx:hr>110</gpxtpx:hr>
          </gpxtpx:TrackPointExtension>
        </extensions>
      </trkpt>
      <trkpt lat="48.71872" lon="1.79538">
        <ele>176.8</ele>
        <time>2026-01-31T10:59:06Z</time>
        <extensions>
          <gpxtpx:TrackPointExtension xmlns:gpxtpx="http://www.garmin.com/xmlschemas/TrackPointExtension/v1">
            <gpxtpx:hr>110</gpxtpx:hr>
          </gpxtpx:TrackPointExtension>
        </extensions>
      </trkpt>
      <trkpt lat="48.71874" lon="1.79539">
        <ele>177.2</ele>
        <time>2026-01-31T10:59:08Z</time>
        <extensions>
          <gpxtpx:TrackPointExtension xmlns:gpxtpx="http://www.garmin.com/xmlschemas/TrackPointExtension/v1">
            <gpxtpx:hr>110</gpxtpx:hr>
          </gpxtpx:TrackPointExtension>
        </extensions>
      </trkpt>
      <trkpt lat="48.71876" lon="1.7954">
        <ele>177.8</ele>
        <time>2026-01-31T10:59:10Z</time>
        <extensions>
          <gpxtpx:TrackPointExtension xmlns:gpxtpx="http://www.garmin.com/xmlschemas/TrackPointExtension/v1">
            <gpxtpx:hr>110</gpxtpx:hr>
          </gpxtpx:TrackPointExtension>
        </extensions>
      </trkpt>
      <trkpt lat="48.71878" lon="1.79542">
        <ele>178.6</ele>
        <time>2026-01-31T10:59:12Z</time>
        <extensions>
          <gpxtpx:TrackPointExtension xmlns:gpxtpx="http://www.garmin.com/xmlschemas/TrackPointExtension/v1">
            <gpxtpx:hr>109</gpxtpx:hr>
          </gpxtpx:TrackPointExtension>
        </extensions>
      </trkpt>
      <trkpt lat="48.71881" lon="1.79545">
        <ele>179.2</ele>
        <time>2026-01-31T10:59:14Z</time>
        <extensions>
          <gpxtpx:TrackPointExtension xmlns:gpxtpx="http://www.garmin.com/xmlschemas/TrackPointExtension/v1">
            <gpxtpx:hr>109</gpxtpx:hr>
          </gpxtpx:TrackPointExtension>
        </extensions>
      </trkpt>
      <trkpt lat="48.71884" lon="1.79548">
        <ele>179.6</ele>
        <time>2026-01-31T10:59:16Z</time>
        <extensions>
          <gpxtpx:TrackPointExtension xmlns:gpxtpx="http://www.garmin.com/xmlschemas/TrackPointExtension/v1">
            <gpxtpx:hr>109</gpxtpx:hr>
          </gpxtpx:TrackPointExtension>
        </extensions>
      </trkpt>
      <trkpt lat="48.71886" lon="1.79549">
        <ele>179.8</ele>
        <time>2026-01-31T10:59:18Z</time>
        <extensions>
          <gpxtpx:TrackPointExtension xmlns:gpxtpx="http://www.garmin.com/xmlschemas/TrackPointExtension/v1">
            <gpxtpx:hr>109</gpxtpx:hr>
          </gpxtpx:TrackPointExtension>
        </extensions>
      </trkpt>
      <trkpt lat="48.71888" lon="1.79551">
        <ele>180.2</ele>
        <time>2026-01-31T10:59:20Z</time>
        <extensions>
          <gpxtpx:TrackPointExtension xmlns:gpxtpx="http://www.garmin.com/xmlschemas/TrackPointExtension/v1">
            <gpxtpx:hr>110</gpxtpx:hr>
          </gpxtpx:TrackPointExtension>
        </extensions>
      </trkpt>
      <trkpt lat="48.7189" lon="1.79552">
        <ele>180.4</ele>
        <time>2026-01-31T10:59:22Z</time>
        <extensions>
          <gpxtpx:TrackPointExtension xmlns:gpxtpx="http://www.garmin.com/xmlschemas/TrackPointExtension/v1">
            <gpxtpx:hr>110</gpxtpx:hr>
          </gpxtpx:TrackPointExtension>
        </extensions>
      </trkpt>
      <trkpt lat="48.71892" lon="1.79552">
        <ele>180.6</ele>
        <time>2026-01-31T10:59:24Z</time>
        <extensions>
          <gpxtpx:TrackPointExtension xmlns:gpxtpx="http://www.garmin.com/xmlschemas/TrackPointExtension/v1">
            <gpxtpx:hr>110</gpxtpx:hr>
          </gpxtpx:TrackPointExtension>
        </extensions>
      </trkpt>
      <trkpt lat="48.71895" lon="1.79553">
        <ele>180.6</ele>
        <time>2026-01-31T10:59:26Z</time>
        <extensions>
          <gpxtpx:TrackPointExtension xmlns:gpxtpx="http://www.garmin.com/xmlschemas/TrackPointExtension/v1">
            <gpxtpx:hr>110</gpxtpx:hr>
          </gpxtpx:TrackPointExtension>
        </extensions>
      </trkpt>
      <trkpt lat="48.71898" lon="1.79555">
        <ele>180.8</ele>
        <time>2026-01-31T10:59:28Z</time>
        <extensions>
          <gpxtpx:TrackPointExtension xmlns:gpxtpx="http://www.garmin.com/xmlschemas/TrackPointExtension/v1">
            <gpxtpx:hr>110</gpxtpx:hr>
          </gpxtpx:TrackPointExtension>
        </extensions>
      </trkpt>
      <trkpt lat="48.719" lon="1.79557">
        <ele>181</ele>
        <time>2026-01-31T10:59:30Z</time>
        <extensions>
          <gpxtpx:TrackPointExtension xmlns:gpxtpx="http://www.garmin.com/xmlschemas/TrackPointExtension/v1">
            <gpxtpx:hr>110</gpxtpx:hr>
          </gpxtpx:TrackPointExtension>
        </extensions>
      </trkpt>
      <trkpt lat="48.71901" lon="1.79559">
        <ele>181.4</ele>
        <time>2026-01-31T10:59:32Z</time>
        <extensions>
          <gpxtpx:TrackPointExtension xmlns:gpxtpx="http://www.garmin.com/xmlschemas/TrackPointExtension/v1">
            <gpxtpx:hr>109</gpxtpx:hr>
          </gpxtpx:TrackPointExtension>
        </extensions>
      </trkpt>
      <trkpt lat="48.71902" lon="1.7956">
        <ele>181.4</ele>
        <time>2026-01-31T10:59:34Z</time>
        <extensions>
          <gpxtpx:TrackPointExtension xmlns:gpxtpx="http://www.garmin.com/xmlschemas/TrackPointExtension/v1">
            <gpxtpx:hr>109</gpxtpx:hr>
          </gpxtpx:TrackPointExtension>
        </extensions>
      </trkpt>
      <trkpt lat="48.71905" lon="1.79561">
        <ele>181.4</ele>
        <time>2026-01-31T10:59:37Z</time>
        <extensions>
          <gpxtpx:TrackPointExtension xmlns:gpxtpx="http://www.garmin.com/xmlschemas/TrackPointExtension/v1">
            <gpxtpx:hr>108</gpxtpx:hr>
          </gpxtpx:TrackPointExtension>
        </extensions>
      </trkpt>
      <trkpt lat="48.71908" lon="1.79561">
        <ele>181.6</ele>
        <time>2026-01-31T10:59:40Z</time>
        <extensions>
          <gpxtpx:TrackPointExtension xmlns:gpxtpx="http://www.garmin.com/xmlschemas/TrackPointExtension/v1">
            <gpxtpx:hr>108</gpxtpx:hr>
          </gpxtpx:TrackPointExtension>
        </extensions>
      </trkpt>
      <trkpt lat="48.7191" lon="1.79563">
        <ele>181.6</ele>
        <time>2026-01-31T10:59:42Z</time>
        <extensions>
          <gpxtpx:TrackPointExtension xmlns:gpxtpx="http://www.garmin.com/xmlschemas/TrackPointExtension/v1">
            <gpxtpx:hr>108</gpxtpx:hr>
          </gpxtpx:TrackPointExtension>
        </extensions>
      </trkpt>
      <trkpt lat="48.71913" lon="1.79564">
        <ele>181.8</ele>
        <time>2026-01-31T10:59:44Z</time>
        <extensions>
          <gpxtpx:TrackPointExtension xmlns:gpxtpx="http://www.garmin.com/xmlschemas/TrackPointExtension/v1">
            <gpxtpx:hr>108</gpxtpx:hr>
          </gpxtpx:TrackPointExtension>
        </extensions>
      </trkpt>
      <trkpt lat="48.71916" lon="1.79566">
        <ele>181.8</ele>
        <time>2026-01-31T10:59:46Z</time>
        <extensions>
          <gpxtpx:TrackPointExtension xmlns:gpxtpx="http://www.garmin.com/xmlschemas/TrackPointExtension/v1">
            <gpxtpx:hr>108</gpxtpx:hr>
          </gpxtpx:TrackPointExtension>
        </extensions>
      </trkpt>
      <trkpt lat="48.71918" lon="1.79567">
        <ele>181.8</ele>
        <time>2026-01-31T10:59:47Z</time>
        <extensions>
          <gpxtpx:TrackPointExtension xmlns:gpxtpx="http://www.garmin.com/xmlschemas/TrackPointExtension/v1">
            <gpxtpx:hr>108</gpxtpx:hr>
          </gpxtpx:TrackPointExtension>
        </extensions>
      </trkpt>
      <trkpt lat="48.71921" lon="1.7957">
        <ele>181.8</ele>
        <time>2026-01-31T10:59:49Z</time>
        <extensions>
          <gpxtpx:TrackPointExtension xmlns:gpxtpx="http://www.garmin.com/xmlschemas/TrackPointExtension/v1">
            <gpxtpx:hr>108</gpxtpx:hr>
          </gpxtpx:TrackPointExtension>
        </extensions>
      </trkpt>
      <trkpt lat="48.71924" lon="1.79572">
        <ele>182</ele>
        <time>2026-01-31T10:59:51Z</time>
        <extensions>
          <gpxtpx:TrackPointExtension xmlns:gpxtpx="http://www.garmin.com/xmlschemas/TrackPointExtension/v1">
            <gpxtpx:hr>108</gpxtpx:hr>
          </gpxtpx:TrackPointExtension>
        </extensions>
      </trkpt>
      <trkpt lat="48.71926" lon="1.79575">
        <ele>182</ele>
        <time>2026-01-31T10:59:53Z</time>
        <extensions>
          <gpxtpx:TrackPointExtension xmlns:gpxtpx="http://www.garmin.com/xmlschemas/TrackPointExtension/v1">
            <gpxtpx:hr>108</gpxtpx:hr>
          </gpxtpx:TrackPointExtension>
        </extensions>
      </trkpt>
      <trkpt lat="48.71928" lon="1.79577">
        <ele>182</ele>
        <time>2026-01-31T10:59:55Z</time>
        <extensions>
          <gpxtpx:TrackPointExtension xmlns:gpxtpx="http://www.garmin.com/xmlschemas/TrackPointExtension/v1">
            <gpxtpx:hr>108</gpxtpx:hr>
          </gpxtpx:TrackPointExtension>
        </extensions>
      </trkpt>
      <trkpt lat="48.7193" lon="1.7958">
        <ele>182</ele>
        <time>2026-01-31T10:59:57Z</time>
        <extensions>
          <gpxtpx:TrackPointExtension xmlns:gpxtpx="http://www.garmin.com/xmlschemas/TrackPointExtension/v1">
            <gpxtpx:hr>108</gpxtpx:hr>
          </gpxtpx:TrackPointExtension>
        </extensions>
      </trkpt>
      <trkpt lat="48.71932" lon="1.79582">
        <ele>182.2</ele>
        <time>2026-01-31T10:59:59Z</time>
        <extensions>
          <gpxtpx:TrackPointExtension xmlns:gpxtpx="http://www.garmin.com/xmlschemas/TrackPointExtension/v1">
            <gpxtpx:hr>108</gpxtpx:hr>
          </gpxtpx:TrackPointExtension>
        </extensions>
      </trkpt>
      <trkpt lat="48.71933" lon="1.79584">
        <ele>182.2</ele>
        <time>2026-01-31T11:00:01Z</time>
        <extensions>
          <gpxtpx:TrackPointExtension xmlns:gpxtpx="http://www.garmin.com/xmlschemas/TrackPointExtension/v1">
            <gpxtpx:hr>108</gpxtpx:hr>
          </gpxtpx:TrackPointExtension>
        </extensions>
      </trkpt>
      <trkpt lat="48.71936" lon="1.79586">
        <ele>182</ele>
        <time>2026-01-31T11:00:03Z</time>
        <extensions>
          <gpxtpx:TrackPointExtension xmlns:gpxtpx="http://www.garmin.com/xmlschemas/TrackPointExtension/v1">
            <gpxtpx:hr>108</gpxtpx:hr>
          </gpxtpx:TrackPointExtension>
        </extensions>
      </trkpt>
      <trkpt lat="48.71938" lon="1.79587">
        <ele>182</ele>
        <time>2026-01-31T11:00:05Z</time>
        <extensions>
          <gpxtpx:TrackPointExtension xmlns:gpxtpx="http://www.garmin.com/xmlschemas/TrackPointExtension/v1">
            <gpxtpx:hr>108</gpxtpx:hr>
          </gpxtpx:TrackPointExtension>
        </extensions>
      </trkpt>
      <trkpt lat="48.71941" lon="1.79588">
        <ele>181.8</ele>
        <time>2026-01-31T11:00:07Z</time>
        <extensions>
          <gpxtpx:TrackPointExtension xmlns:gpxtpx="http://www.garmin.com/xmlschemas/TrackPointExtension/v1">
            <gpxtpx:hr>108</gpxtpx:hr>
          </gpxtpx:TrackPointExtension>
        </extensions>
      </trkpt>
      <trkpt lat="48.71944" lon="1.79589">
        <ele>181.8</ele>
        <time>2026-01-31T11:00:09Z</time>
        <extensions>
          <gpxtpx:TrackPointExtension xmlns:gpxtpx="http://www.garmin.com/xmlschemas/TrackPointExtension/v1">
            <gpxtpx:hr>108</gpxtpx:hr>
          </gpxtpx:TrackPointExtension>
        </extensions>
      </trkpt>
      <trkpt lat="48.71946" lon="1.79591">
        <ele>181.6</ele>
        <time>2026-01-31T11:00:11Z</time>
        <extensions>
          <gpxtpx:TrackPointExtension xmlns:gpxtpx="http://www.garmin.com/xmlschemas/TrackPointExtension/v1">
            <gpxtpx:hr>108</gpxtpx:hr>
          </gpxtpx:TrackPointExtension>
        </extensions>
      </trkpt>
      <trkpt lat="48.71948" lon="1.79593">
        <ele>181.4</ele>
        <time>2026-01-31T11:00:12Z</time>
        <extensions>
          <gpxtpx:TrackPointExtension xmlns:gpxtpx="http://www.garmin.com/xmlschemas/TrackPointExtension/v1">
            <gpxtpx:hr>108</gpxtpx:hr>
          </gpxtpx:TrackPointExtension>
        </extensions>
      </trkpt>
      <trkpt lat="48.71949" lon="1.79594">
        <ele>181.4</ele>
        <time>2026-01-31T11:00:13Z</time>
        <extensions>
          <gpxtpx:TrackPointExtension xmlns:gpxtpx="http://www.garmin.com/xmlschemas/TrackPointExtension/v1">
            <gpxtpx:hr>108</gpxtpx:hr>
          </gpxtpx:TrackPointExtension>
        </extensions>
      </trkpt>
      <trkpt lat="48.71952" lon="1.79596">
        <ele>181.2</ele>
        <time>2026-01-31T11:00:15Z</time>
        <extensions>
          <gpxtpx:TrackPointExtension xmlns:gpxtpx="http://www.garmin.com/xmlschemas/TrackPointExtension/v1">
            <gpxtpx:hr>108</gpxtpx:hr>
          </gpxtpx:TrackPointExtension>
        </extensions>
      </trkpt>
      <trkpt lat="48.71956" lon="1.79598">
        <ele>181.2</ele>
        <time>2026-01-31T11:00:17Z</time>
        <extensions>
          <gpxtpx:TrackPointExtension xmlns:gpxtpx="http://www.garmin.com/xmlschemas/TrackPointExtension/v1">
            <gpxtpx:hr>108</gpxtpx:hr>
          </gpxtpx:TrackPointExtension>
        </extensions>
      </trkpt>
      <trkpt lat="48.71959" lon="1.79599">
        <ele>181.2</ele>
        <time>2026-01-31T11:00:19Z</time>
        <extensions>
          <gpxtpx:TrackPointExtension xmlns:gpxtpx="http://www.garmin.com/xmlschemas/TrackPointExtension/v1">
            <gpxtpx:hr>109</gpxtpx:hr>
          </gpxtpx:TrackPointExtension>
        </extensions>
      </trkpt>
      <trkpt lat="48.71962" lon="1.796">
        <ele>181.2</ele>
        <time>2026-01-31T11:00:21Z</time>
        <extensions>
          <gpxtpx:TrackPointExtension xmlns:gpxtpx="http://www.garmin.com/xmlschemas/TrackPointExtension/v1">
            <gpxtpx:hr>109</gpxtpx:hr>
          </gpxtpx:TrackPointExtension>
        </extensions>
      </trkpt>
      <trkpt lat="48.71964" lon="1.79601">
        <ele>181.2</ele>
        <time>2026-01-31T11:00:23Z</time>
        <extensions>
          <gpxtpx:TrackPointExtension xmlns:gpxtpx="http://www.garmin.com/xmlschemas/TrackPointExtension/v1">
            <gpxtpx:hr>109</gpxtpx:hr>
          </gpxtpx:TrackPointExtension>
        </extensions>
      </trkpt>
      <trkpt lat="48.71967" lon="1.79603">
        <ele>181.2</ele>
        <time>2026-01-31T11:00:25Z</time>
        <extensions>
          <gpxtpx:TrackPointExtension xmlns:gpxtpx="http://www.garmin.com/xmlschemas/TrackPointExtension/v1">
            <gpxtpx:hr>109</gpxtpx:hr>
          </gpxtpx:TrackPointExtension>
        </extensions>
      </trkpt>
      <trkpt lat="48.7197" lon="1.79605">
        <ele>181.2</ele>
        <time>2026-01-31T11:00:27Z</time>
        <extensions>
          <gpxtpx:TrackPointExtension xmlns:gpxtpx="http://www.garmin.com/xmlschemas/TrackPointExtension/v1">
            <gpxtpx:hr>109</gpxtpx:hr>
          </gpxtpx:TrackPointExtension>
        </extensions>
      </trkpt>
      <trkpt lat="48.71972" lon="1.79607">
        <ele>181.2</ele>
        <time>2026-01-31T11:00:29Z</time>
        <extensions>
          <gpxtpx:TrackPointExtension xmlns:gpxtpx="http://www.garmin.com/xmlschemas/TrackPointExtension/v1">
            <gpxtpx:hr>109</gpxtpx:hr>
          </gpxtpx:TrackPointExtension>
        </extensions>
      </trkpt>
      <trkpt lat="48.71974" lon="1.79608">
        <ele>181.2</ele>
        <time>2026-01-31T11:00:30Z</time>
        <extensions>
          <gpxtpx:TrackPointExtension xmlns:gpxtpx="http://www.garmin.com/xmlschemas/TrackPointExtension/v1">
            <gpxtpx:hr>109</gpxtpx:hr>
          </gpxtpx:TrackPointExtension>
        </extensions>
      </trkpt>
      <trkpt lat="48.71978" lon="1.7961">
        <ele>181.2</ele>
        <time>2026-01-31T11:00:32Z</time>
        <extensions>
          <gpxtpx:TrackPointExtension xmlns:gpxtpx="http://www.garmin.com/xmlschemas/TrackPointExtension/v1">
            <gpxtpx:hr>109</gpxtpx:hr>
          </gpxtpx:TrackPointExtension>
        </extensions>
      </trkpt>
      <trkpt lat="48.7198" lon="1.79612">
        <ele>181.4</ele>
        <time>2026-01-31T11:00:33Z</time>
        <extensions>
          <gpxtpx:TrackPointExtension xmlns:gpxtpx="http://www.garmin.com/xmlschemas/TrackPointExtension/v1">
            <gpxtpx:hr>110</gpxtpx:hr>
          </gpxtpx:TrackPointExtension>
        </extensions>
      </trkpt>
      <trkpt lat="48.71983" lon="1.79614">
        <ele>181.4</ele>
        <time>2026-01-31T11:00:34Z</time>
        <extensions>
          <gpxtpx:TrackPointExtension xmlns:gpxtpx="http://www.garmin.com/xmlschemas/TrackPointExtension/v1">
            <gpxtpx:hr>109</gpxtpx:hr>
          </gpxtpx:TrackPointExtension>
        </extensions>
      </trkpt>
      <trkpt lat="48.71985" lon="1.79616">
        <ele>181.4</ele>
        <time>2026-01-31T11:00:35Z</time>
        <extensions>
          <gpxtpx:TrackPointExtension xmlns:gpxtpx="http://www.garmin.com/xmlschemas/TrackPointExtension/v1">
            <gpxtpx:hr>109</gpxtpx:hr>
          </gpxtpx:TrackPointExtension>
        </extensions>
      </trkpt>
      <trkpt lat="48.71988" lon="1.79618">
        <ele>181.4</ele>
        <time>2026-01-31T11:00:36Z</time>
        <extensions>
          <gpxtpx:TrackPointExtension xmlns:gpxtpx="http://www.garmin.com/xmlschemas/TrackPointExtension/v1">
            <gpxtpx:hr>109</gpxtpx:hr>
          </gpxtpx:TrackPointExtension>
        </extensions>
      </trkpt>
      <trkpt lat="48.71992" lon="1.7962">
        <ele>181.4</ele>
        <time>2026-01-31T11:00:37Z</time>
        <extensions>
          <gpxtpx:TrackPointExtension xmlns:gpxtpx="http://www.garmin.com/xmlschemas/TrackPointExtension/v1">
            <gpxtpx:hr>109</gpxtpx:hr>
          </gpxtpx:TrackPointExtension>
        </extensions>
      </trkpt>
      <trkpt lat="48.71995" lon="1.79623">
        <ele>181.2</ele>
        <time>2026-01-31T11:00:38Z</time>
        <extensions>
          <gpxtpx:TrackPointExtension xmlns:gpxtpx="http://www.garmin.com/xmlschemas/TrackPointExtension/v1">
            <gpxtpx:hr>110</gpxtpx:hr>
          </gpxtpx:TrackPointExtension>
        </extensions>
      </trkpt>
      <trkpt lat="48.71998" lon="1.79626">
        <ele>181.2</ele>
        <time>2026-01-31T11:00:39Z</time>
        <extensions>
          <gpxtpx:TrackPointExtension xmlns:gpxtpx="http://www.garmin.com/xmlschemas/TrackPointExtension/v1">
            <gpxtpx:hr>110</gpxtpx:hr>
          </gpxtpx:TrackPointExtension>
        </extensions>
      </trkpt>
      <trkpt lat="48.72001" lon="1.79628">
        <ele>181.2</ele>
        <time>2026-01-31T11:00:40Z</time>
        <extensions>
          <gpxtpx:TrackPointExtension xmlns:gpxtpx="http://www.garmin.com/xmlschemas/TrackPointExtension/v1">
            <gpxtpx:hr>110</gpxtpx:hr>
          </gpxtpx:TrackPointExtension>
        </extensions>
      </trkpt>
      <trkpt lat="48.72004" lon="1.79631">
        <ele>181.2</ele>
        <time>2026-01-31T11:00:41Z</time>
        <extensions>
          <gpxtpx:TrackPointExtension xmlns:gpxtpx="http://www.garmin.com/xmlschemas/TrackPointExtension/v1">
            <gpxtpx:hr>110</gpxtpx:hr>
          </gpxtpx:TrackPointExtension>
        </extensions>
      </trkpt>
      <trkpt lat="48.72007" lon="1.79633">
        <ele>181.2</ele>
        <time>2026-01-31T11:00:42Z</time>
        <extensions>
          <gpxtpx:TrackPointExtension xmlns:gpxtpx="http://www.garmin.com/xmlschemas/TrackPointExtension/v1">
            <gpxtpx:hr>110</gpxtpx:hr>
          </gpxtpx:TrackPointExtension>
        </extensions>
      </trkpt>
      <trkpt lat="48.72011" lon="1.79636">
        <ele>181.2</ele>
        <time>2026-01-31T11:00:43Z</time>
        <extensions>
          <gpxtpx:TrackPointExtension xmlns:gpxtpx="http://www.garmin.com/xmlschemas/TrackPointExtension/v1">
            <gpxtpx:hr>110</gpxtpx:hr>
          </gpxtpx:TrackPointExtension>
        </extensions>
      </trkpt>
      <trkpt lat="48.72013" lon="1.79639">
        <ele>181</ele>
        <time>2026-01-31T11:00:44Z</time>
        <extensions>
          <gpxtpx:TrackPointExtension xmlns:gpxtpx="http://www.garmin.com/xmlschemas/TrackPointExtension/v1">
            <gpxtpx:hr>110</gpxtpx:hr>
          </gpxtpx:TrackPointExtension>
        </extensions>
      </trkpt>
      <trkpt lat="48.72017" lon="1.79641">
        <ele>181</ele>
        <time>2026-01-31T11:00:45Z</time>
        <extensions>
          <gpxtpx:TrackPointExtension xmlns:gpxtpx="http://www.garmin.com/xmlschemas/TrackPointExtension/v1">
            <gpxtpx:hr>110</gpxtpx:hr>
          </gpxtpx:TrackPointExtension>
        </extensions>
      </trkpt>
      <trkpt lat="48.7202" lon="1.79644">
        <ele>180.8</ele>
        <time>2026-01-31T11:00:46Z</time>
        <extensions>
          <gpxtpx:TrackPointExtension xmlns:gpxtpx="http://www.garmin.com/xmlschemas/TrackPointExtension/v1">
            <gpxtpx:hr>110</gpxtpx:hr>
          </gpxtpx:TrackPointExtension>
        </extensions>
      </trkpt>
      <trkpt lat="48.72023" lon="1.79646">
        <ele>180.8</ele>
        <time>2026-01-31T11:00:47Z</time>
        <extensions>
          <gpxtpx:TrackPointExtension xmlns:gpxtpx="http://www.garmin.com/xmlschemas/TrackPointExtension/v1">
            <gpxtpx:hr>110</gpxtpx:hr>
          </gpxtpx:TrackPointExtension>
        </extensions>
      </trkpt>
      <trkpt lat="48.72027" lon="1.79648">
        <ele>180.6</ele>
        <time>2026-01-31T11:00:48Z</time>
        <extensions>
          <gpxtpx:TrackPointExtension xmlns:gpxtpx="http://www.garmin.com/xmlschemas/TrackPointExtension/v1">
            <gpxtpx:hr>110</gpxtpx:hr>
          </gpxtpx:TrackPointExtension>
        </extensions>
      </trkpt>
      <trkpt lat="48.72029" lon="1.79649">
        <ele>180.4</ele>
        <time>2026-01-31T11:00:49Z</time>
        <extensions>
          <gpxtpx:TrackPointExtension xmlns:gpxtpx="http://www.garmin.com/xmlschemas/TrackPointExtension/v1">
            <gpxtpx:hr>111</gpxtpx:hr>
          </gpxtpx:TrackPointExtension>
        </extensions>
      </trkpt>
      <trkpt lat="48.72033" lon="1.79651">
        <ele>180.2</ele>
        <time>2026-01-31T11:00:50Z</time>
        <extensions>
          <gpxtpx:TrackPointExtension xmlns:gpxtpx="http://www.garmin.com/xmlschemas/TrackPointExtension/v1">
            <gpxtpx:hr>111</gpxtpx:hr>
          </gpxtpx:TrackPointExtension>
        </extensions>
      </trkpt>
      <trkpt lat="48.72036" lon="1.79653">
        <ele>180.2</ele>
        <time>2026-01-31T11:00:51Z</time>
        <extensions>
          <gpxtpx:TrackPointExtension xmlns:gpxtpx="http://www.garmin.com/xmlschemas/TrackPointExtension/v1">
            <gpxtpx:hr>111</gpxtpx:hr>
          </gpxtpx:TrackPointExtension>
        </extensions>
      </trkpt>
      <trkpt lat="48.72039" lon="1.79655">
        <ele>180</ele>
        <time>2026-01-31T11:00:52Z</time>
        <extensions>
          <gpxtpx:TrackPointExtension xmlns:gpxtpx="http://www.garmin.com/xmlschemas/TrackPointExtension/v1">
            <gpxtpx:hr>111</gpxtpx:hr>
          </gpxtpx:TrackPointExtension>
        </extensions>
      </trkpt>
      <trkpt lat="48.72043" lon="1.79657">
        <ele>179.8</ele>
        <time>2026-01-31T11:00:53Z</time>
        <extensions>
          <gpxtpx:TrackPointExtension xmlns:gpxtpx="http://www.garmin.com/xmlschemas/TrackPointExtension/v1">
            <gpxtpx:hr>111</gpxtpx:hr>
          </gpxtpx:TrackPointExtension>
        </extensions>
      </trkpt>
      <trkpt lat="48.72045" lon="1.79659">
        <ele>179.8</ele>
        <time>2026-01-31T11:00:54Z</time>
        <extensions>
          <gpxtpx:TrackPointExtension xmlns:gpxtpx="http://www.garmin.com/xmlschemas/TrackPointExtension/v1">
            <gpxtpx:hr>111</gpxtpx:hr>
          </gpxtpx:TrackPointExtension>
        </extensions>
      </trkpt>
      <trkpt lat="48.72049" lon="1.79661">
        <ele>179.6</ele>
        <time>2026-01-31T11:00:55Z</time>
        <extensions>
          <gpxtpx:TrackPointExtension xmlns:gpxtpx="http://www.garmin.com/xmlschemas/TrackPointExtension/v1">
            <gpxtpx:hr>111</gpxtpx:hr>
          </gpxtpx:TrackPointExtension>
        </extensions>
      </trkpt>
      <trkpt lat="48.72052" lon="1.79664">
        <ele>179.4</ele>
        <time>2026-01-31T11:00:56Z</time>
        <extensions>
          <gpxtpx:TrackPointExtension xmlns:gpxtpx="http://www.garmin.com/xmlschemas/TrackPointExtension/v1">
            <gpxtpx:hr>111</gpxtpx:hr>
          </gpxtpx:TrackPointExtension>
        </extensions>
      </trkpt>
      <trkpt lat="48.72054" lon="1.79667">
        <ele>179.2</ele>
        <time>2026-01-31T11:00:57Z</time>
        <extensions>
          <gpxtpx:TrackPointExtension xmlns:gpxtpx="http://www.garmin.com/xmlschemas/TrackPointExtension/v1">
            <gpxtpx:hr>112</gpxtpx:hr>
          </gpxtpx:TrackPointExtension>
        </extensions>
      </trkpt>
      <trkpt lat="48.72057" lon="1.7967">
        <ele>179.2</ele>
        <time>2026-01-31T11:00:58Z</time>
        <extensions>
          <gpxtpx:TrackPointExtension xmlns:gpxtpx="http://www.garmin.com/xmlschemas/TrackPointExtension/v1">
            <gpxtpx:hr>112</gpxtpx:hr>
          </gpxtpx:TrackPointExtension>
        </extensions>
      </trkpt>
      <trkpt lat="48.72059" lon="1.79673">
        <ele>179</ele>
        <time>2026-01-31T11:00:59Z</time>
        <extensions>
          <gpxtpx:TrackPointExtension xmlns:gpxtpx="http://www.garmin.com/xmlschemas/TrackPointExtension/v1">
            <gpxtpx:hr>112</gpxtpx:hr>
          </gpxtpx:TrackPointExtension>
        </extensions>
      </trkpt>
      <trkpt lat="48.72061" lon="1.79675">
        <ele>179</ele>
        <time>2026-01-31T11:01:00Z</time>
        <extensions>
          <gpxtpx:TrackPointExtension xmlns:gpxtpx="http://www.garmin.com/xmlschemas/TrackPointExtension/v1">
            <gpxtpx:hr>112</gpxtpx:hr>
          </gpxtpx:TrackPointExtension>
        </extensions>
      </trkpt>
      <trkpt lat="48.72063" lon="1.79678">
        <ele>178.8</ele>
        <time>2026-01-31T11:01:01Z</time>
        <extensions>
          <gpxtpx:TrackPointExtension xmlns:gpxtpx="http://www.garmin.com/xmlschemas/TrackPointExtension/v1">
            <gpxtpx:hr>112</gpxtpx:hr>
          </gpxtpx:TrackPointExtension>
        </extensions>
      </trkpt>
      <trkpt lat="48.72065" lon="1.7968">
        <ele>178.8</ele>
        <time>2026-01-31T11:01:02Z</time>
        <extensions>
          <gpxtpx:TrackPointExtension xmlns:gpxtpx="http://www.garmin.com/xmlschemas/TrackPointExtension/v1">
            <gpxtpx:hr>112</gpxtpx:hr>
          </gpxtpx:TrackPointExtension>
        </extensions>
      </trkpt>
      <trkpt lat="48.72068" lon="1.79682">
        <ele>178.8</ele>
        <time>2026-01-31T11:01:03Z</time>
        <extensions>
          <gpxtpx:TrackPointExtension xmlns:gpxtpx="http://www.garmin.com/xmlschemas/TrackPointExtension/v1">
            <gpxtpx:hr>112</gpxtpx:hr>
          </gpxtpx:TrackPointExtension>
        </extensions>
      </trkpt>
      <trkpt lat="48.7207" lon="1.79683">
        <ele>178.8</ele>
        <time>2026-01-31T11:01:04Z</time>
        <extensions>
          <gpxtpx:TrackPointExtension xmlns:gpxtpx="http://www.garmin.com/xmlschemas/TrackPointExtension/v1">
            <gpxtpx:hr>112</gpxtpx:hr>
          </gpxtpx:TrackPointExtension>
        </extensions>
      </trkpt>
      <trkpt lat="48.72073" lon="1.79685">
        <ele>178.8</ele>
        <time>2026-01-31T11:01:05Z</time>
        <extensions>
          <gpxtpx:TrackPointExtension xmlns:gpxtpx="http://www.garmin.com/xmlschemas/TrackPointExtension/v1">
            <gpxtpx:hr>112</gpxtpx:hr>
          </gpxtpx:TrackPointExtension>
        </extensions>
      </trkpt>
      <trkpt lat="48.72075" lon="1.79687">
        <ele>178.8</ele>
        <time>2026-01-31T11:01:06Z</time>
        <extensions>
          <gpxtpx:TrackPointExtension xmlns:gpxtpx="http://www.garmin.com/xmlschemas/TrackPointExtension/v1">
            <gpxtpx:hr>112</gpxtpx:hr>
          </gpxtpx:TrackPointExtension>
        </extensions>
      </trkpt>
      <trkpt lat="48.72077" lon="1.79689">
        <ele>178.8</ele>
        <time>2026-01-31T11:01:07Z</time>
        <extensions>
          <gpxtpx:TrackPointExtension xmlns:gpxtpx="http://www.garmin.com/xmlschemas/TrackPointExtension/v1">
            <gpxtpx:hr>113</gpxtpx:hr>
          </gpxtpx:TrackPointExtension>
        </extensions>
      </trkpt>
      <trkpt lat="48.7208" lon="1.79691">
        <ele>178.8</ele>
        <time>2026-01-31T11:01:08Z</time>
        <extensions>
          <gpxtpx:TrackPointExtension xmlns:gpxtpx="http://www.garmin.com/xmlschemas/TrackPointExtension/v1">
            <gpxtpx:hr>113</gpxtpx:hr>
          </gpxtpx:TrackPointExtension>
        </extensions>
      </trkpt>
      <trkpt lat="48.72083" lon="1.79693">
        <ele>178.8</ele>
        <time>2026-01-31T11:01:09Z</time>
        <extensions>
          <gpxtpx:TrackPointExtension xmlns:gpxtpx="http://www.garmin.com/xmlschemas/TrackPointExtension/v1">
            <gpxtpx:hr>113</gpxtpx:hr>
          </gpxtpx:TrackPointExtension>
        </extensions>
      </trkpt>
      <trkpt lat="48.72085" lon="1.79695">
        <ele>178.8</ele>
        <time>2026-01-31T11:01:10Z</time>
        <extensions>
          <gpxtpx:TrackPointExtension xmlns:gpxtpx="http://www.garmin.com/xmlschemas/TrackPointExtension/v1">
            <gpxtpx:hr>113</gpxtpx:hr>
          </gpxtpx:TrackPointExtension>
        </extensions>
      </trkpt>
      <trkpt lat="48.72088" lon="1.79697">
        <ele>179</ele>
        <time>2026-01-31T11:01:11Z</time>
        <extensions>
          <gpxtpx:TrackPointExtension xmlns:gpxtpx="http://www.garmin.com/xmlschemas/TrackPointExtension/v1">
            <gpxtpx:hr>113</gpxtpx:hr>
          </gpxtpx:TrackPointExtension>
        </extensions>
      </trkpt>
      <trkpt lat="48.72091" lon="1.79699">
        <ele>179</ele>
        <time>2026-01-31T11:01:12Z</time>
        <extensions>
          <gpxtpx:TrackPointExtension xmlns:gpxtpx="http://www.garmin.com/xmlschemas/TrackPointExtension/v1">
            <gpxtpx:hr>113</gpxtpx:hr>
          </gpxtpx:TrackPointExtension>
        </extensions>
      </trkpt>
      <trkpt lat="48.72093" lon="1.79701">
        <ele>179</ele>
        <time>2026-01-31T11:01:13Z</time>
        <extensions>
          <gpxtpx:TrackPointExtension xmlns:gpxtpx="http://www.garmin.com/xmlschemas/TrackPointExtension/v1">
            <gpxtpx:hr>112</gpxtpx:hr>
          </gpxtpx:TrackPointExtension>
        </extensions>
      </trkpt>
      <trkpt lat="48.72095" lon="1.79703">
        <ele>179</ele>
        <time>2026-01-31T11:01:14Z</time>
        <extensions>
          <gpxtpx:TrackPointExtension xmlns:gpxtpx="http://www.garmin.com/xmlschemas/TrackPointExtension/v1">
            <gpxtpx:hr>112</gpxtpx:hr>
          </gpxtpx:TrackPointExtension>
        </extensions>
      </trkpt>
      <trkpt lat="48.72097" lon="1.79705">
        <ele>179.2</ele>
        <time>2026-01-31T11:01:15Z</time>
        <extensions>
          <gpxtpx:TrackPointExtension xmlns:gpxtpx="http://www.garmin.com/xmlschemas/TrackPointExtension/v1">
            <gpxtpx:hr>112</gpxtpx:hr>
          </gpxtpx:TrackPointExtension>
        </extensions>
      </trkpt>
      <trkpt lat="48.721" lon="1.79707">
        <ele>179.2</ele>
        <time>2026-01-31T11:01:16Z</time>
        <extensions>
          <gpxtpx:TrackPointExtension xmlns:gpxtpx="http://www.garmin.com/xmlschemas/TrackPointExtension/v1">
            <gpxtpx:hr>112</gpxtpx:hr>
          </gpxtpx:TrackPointExtension>
        </extensions>
      </trkpt>
      <trkpt lat="48.72102" lon="1.79708">
        <ele>179.2</ele>
        <time>2026-01-31T11:01:17Z</time>
        <extensions>
          <gpxtpx:TrackPointExtension xmlns:gpxtpx="http://www.garmin.com/xmlschemas/TrackPointExtension/v1">
            <gpxtpx:hr>112</gpxtpx:hr>
          </gpxtpx:TrackPointExtension>
        </extensions>
      </trkpt>
      <trkpt lat="48.72105" lon="1.7971">
        <ele>179.2</ele>
        <time>2026-01-31T11:01:18Z</time>
        <extensions>
          <gpxtpx:TrackPointExtension xmlns:gpxtpx="http://www.garmin.com/xmlschemas/TrackPointExtension/v1">
            <gpxtpx:hr>112</gpxtpx:hr>
          </gpxtpx:TrackPointExtension>
        </extensions>
      </trkpt>
      <trkpt lat="48.72108" lon="1.79712">
        <ele>179.2</ele>
        <time>2026-01-31T11:01:19Z</time>
        <extensions>
          <gpxtpx:TrackPointExtension xmlns:gpxtpx="http://www.garmin.com/xmlschemas/TrackPointExtension/v1">
            <gpxtpx:hr>112</gpxtpx:hr>
          </gpxtpx:TrackPointExtension>
        </extensions>
      </trkpt>
      <trkpt lat="48.7211" lon="1.79714">
        <ele>179.4</ele>
        <time>2026-01-31T11:01:20Z</time>
        <extensions>
          <gpxtpx:TrackPointExtension xmlns:gpxtpx="http://www.garmin.com/xmlschemas/TrackPointExtension/v1">
            <gpxtpx:hr>112</gpxtpx:hr>
          </gpxtpx:TrackPointExtension>
        </extensions>
      </trkpt>
      <trkpt lat="48.72113" lon="1.79716">
        <ele>179.4</ele>
        <time>2026-01-31T11:01:21Z</time>
        <extensions>
          <gpxtpx:TrackPointExtension xmlns:gpxtpx="http://www.garmin.com/xmlschemas/TrackPointExtension/v1">
            <gpxtpx:hr>112</gpxtpx:hr>
          </gpxtpx:TrackPointExtension>
        </extensions>
      </trkpt>
      <trkpt lat="48.72116" lon="1.79718">
        <ele>179.4</ele>
        <time>2026-01-31T11:01:22Z</time>
        <extensions>
          <gpxtpx:TrackPointExtension xmlns:gpxtpx="http://www.garmin.com/xmlschemas/TrackPointExtension/v1">
            <gpxtpx:hr>112</gpxtpx:hr>
          </gpxtpx:TrackPointExtension>
        </extensions>
      </trkpt>
      <trkpt lat="48.7212" lon="1.79719">
        <ele>179.4</ele>
        <time>2026-01-31T11:01:23Z</time>
        <extensions>
          <gpxtpx:TrackPointExtension xmlns:gpxtpx="http://www.garmin.com/xmlschemas/TrackPointExtension/v1">
            <gpxtpx:hr>112</gpxtpx:hr>
          </gpxtpx:TrackPointExtension>
        </extensions>
      </trkpt>
      <trkpt lat="48.72123" lon="1.79721">
        <ele>179.4</ele>
        <time>2026-01-31T11:01:24Z</time>
        <extensions>
          <gpxtpx:TrackPointExtension xmlns:gpxtpx="http://www.garmin.com/xmlschemas/TrackPointExtension/v1">
            <gpxtpx:hr>112</gpxtpx:hr>
          </gpxtpx:TrackPointExtension>
        </extensions>
      </trkpt>
      <trkpt lat="48.72126" lon="1.79722">
        <ele>179.4</ele>
        <time>2026-01-31T11:01:25Z</time>
        <extensions>
          <gpxtpx:TrackPointExtension xmlns:gpxtpx="http://www.garmin.com/xmlschemas/TrackPointExtension/v1">
            <gpxtpx:hr>112</gpxtpx:hr>
          </gpxtpx:TrackPointExtension>
        </extensions>
      </trkpt>
      <trkpt lat="48.72129" lon="1.79724">
        <ele>179.6</ele>
        <time>2026-01-31T11:01:26Z</time>
        <extensions>
          <gpxtpx:TrackPointExtension xmlns:gpxtpx="http://www.garmin.com/xmlschemas/TrackPointExtension/v1">
            <gpxtpx:hr>112</gpxtpx:hr>
          </gpxtpx:TrackPointExtension>
        </extensions>
      </trkpt>
      <trkpt lat="48.72132" lon="1.79726">
        <ele>179.6</ele>
        <time>2026-01-31T11:01:27Z</time>
        <extensions>
          <gpxtpx:TrackPointExtension xmlns:gpxtpx="http://www.garmin.com/xmlschemas/TrackPointExtension/v1">
            <gpxtpx:hr>112</gpxtpx:hr>
          </gpxtpx:TrackPointExtension>
        </extensions>
      </trkpt>
      <trkpt lat="48.72134" lon="1.79727">
        <ele>179.4</ele>
        <time>2026-01-31T11:01:28Z</time>
        <extensions>
          <gpxtpx:TrackPointExtension xmlns:gpxtpx="http://www.garmin.com/xmlschemas/TrackPointExtension/v1">
            <gpxtpx:hr>113</gpxtpx:hr>
          </gpxtpx:TrackPointExtension>
        </extensions>
      </trkpt>
      <trkpt lat="48.72138" lon="1.79729">
        <ele>179.4</ele>
        <time>2026-01-31T11:01:29Z</time>
        <extensions>
          <gpxtpx:TrackPointExtension xmlns:gpxtpx="http://www.garmin.com/xmlschemas/TrackPointExtension/v1">
            <gpxtpx:hr>113</gpxtpx:hr>
          </gpxtpx:TrackPointExtension>
        </extensions>
      </trkpt>
      <trkpt lat="48.7214" lon="1.79732">
        <ele>179.6</ele>
        <time>2026-01-31T11:01:30Z</time>
        <extensions>
          <gpxtpx:TrackPointExtension xmlns:gpxtpx="http://www.garmin.com/xmlschemas/TrackPointExtension/v1">
            <gpxtpx:hr>113</gpxtpx:hr>
          </gpxtpx:TrackPointExtension>
        </extensions>
      </trkpt>
      <trkpt lat="48.72144" lon="1.79734">
        <ele>179.6</ele>
        <time>2026-01-31T11:01:31Z</time>
        <extensions>
          <gpxtpx:TrackPointExtension xmlns:gpxtpx="http://www.garmin.com/xmlschemas/TrackPointExtension/v1">
            <gpxtpx:hr>113</gpxtpx:hr>
          </gpxtpx:TrackPointExtension>
        </extensions>
      </trkpt>
      <trkpt lat="48.72147" lon="1.79736">
        <ele>179.6</ele>
        <time>2026-01-31T11:01:32Z</time>
        <extensions>
          <gpxtpx:TrackPointExtension xmlns:gpxtpx="http://www.garmin.com/xmlschemas/TrackPointExtension/v1">
            <gpxtpx:hr>113</gpxtpx:hr>
          </gpxtpx:TrackPointExtension>
        </extensions>
      </trkpt>
      <trkpt lat="48.7215" lon="1.79738">
        <ele>179.6</ele>
        <time>2026-01-31T11:01:33Z</time>
        <extensions>
          <gpxtpx:TrackPointExtension xmlns:gpxtpx="http://www.garmin.com/xmlschemas/TrackPointExtension/v1">
            <gpxtpx:hr>113</gpxtpx:hr>
          </gpxtpx:TrackPointExtension>
        </extensions>
      </trkpt>
      <trkpt lat="48.72153" lon="1.79739">
        <ele>179.8</ele>
        <time>2026-01-31T11:01:34Z</time>
        <extensions>
          <gpxtpx:TrackPointExtension xmlns:gpxtpx="http://www.garmin.com/xmlschemas/TrackPointExtension/v1">
            <gpxtpx:hr>113</gpxtpx:hr>
          </gpxtpx:TrackPointExtension>
        </extensions>
      </trkpt>
      <trkpt lat="48.72156" lon="1.79741">
        <ele>179.8</ele>
        <time>2026-01-31T11:01:35Z</time>
        <extensions>
          <gpxtpx:TrackPointExtension xmlns:gpxtpx="http://www.garmin.com/xmlschemas/TrackPointExtension/v1">
            <gpxtpx:hr>113</gpxtpx:hr>
          </gpxtpx:TrackPointExtension>
        </extensions>
      </trkpt>
      <trkpt lat="48.72159" lon="1.79743">
        <ele>180</ele>
        <time>2026-01-31T11:01:36Z</time>
        <extensions>
          <gpxtpx:TrackPointExtension xmlns:gpxtpx="http://www.garmin.com/xmlschemas/TrackPointExtension/v1">
            <gpxtpx:hr>113</gpxtpx:hr>
          </gpxtpx:TrackPointExtension>
        </extensions>
      </trkpt>
      <trkpt lat="48.72162" lon="1.79745">
        <ele>180</ele>
        <time>2026-01-31T11:01:37Z</time>
        <extensions>
          <gpxtpx:TrackPointExtension xmlns:gpxtpx="http://www.garmin.com/xmlschemas/TrackPointExtension/v1">
            <gpxtpx:hr>113</gpxtpx:hr>
          </gpxtpx:TrackPointExtension>
        </extensions>
      </trkpt>
      <trkpt lat="48.72164" lon="1.79747">
        <ele>180</ele>
        <time>2026-01-31T11:01:38Z</time>
        <extensions>
          <gpxtpx:TrackPointExtension xmlns:gpxtpx="http://www.garmin.com/xmlschemas/TrackPointExtension/v1">
            <gpxtpx:hr>113</gpxtpx:hr>
          </gpxtpx:TrackPointExtension>
        </extensions>
      </trkpt>
      <trkpt lat="48.72168" lon="1.7975">
        <ele>180</ele>
        <time>2026-01-31T11:01:39Z</time>
        <extensions>
          <gpxtpx:TrackPointExtension xmlns:gpxtpx="http://www.garmin.com/xmlschemas/TrackPointExtension/v1">
            <gpxtpx:hr>113</gpxtpx:hr>
          </gpxtpx:TrackPointExtension>
        </extensions>
      </trkpt>
      <trkpt lat="48.72171" lon="1.79751">
        <ele>180</ele>
        <time>2026-01-31T11:01:40Z</time>
        <extensions>
          <gpxtpx:TrackPointExtension xmlns:gpxtpx="http://www.garmin.com/xmlschemas/TrackPointExtension/v1">
            <gpxtpx:hr>113</gpxtpx:hr>
          </gpxtpx:TrackPointExtension>
        </extensions>
      </trkpt>
      <trkpt lat="48.72174" lon="1.79753">
        <ele>180</ele>
        <time>2026-01-31T11:01:41Z</time>
        <extensions>
          <gpxtpx:TrackPointExtension xmlns:gpxtpx="http://www.garmin.com/xmlschemas/TrackPointExtension/v1">
            <gpxtpx:hr>113</gpxtpx:hr>
          </gpxtpx:TrackPointExtension>
        </extensions>
      </trkpt>
      <trkpt lat="48.72176" lon="1.79755">
        <ele>180</ele>
        <time>2026-01-31T11:01:42Z</time>
        <extensions>
          <gpxtpx:TrackPointExtension xmlns:gpxtpx="http://www.garmin.com/xmlschemas/TrackPointExtension/v1">
            <gpxtpx:hr>113</gpxtpx:hr>
          </gpxtpx:TrackPointExtension>
        </extensions>
      </trkpt>
      <trkpt lat="48.7218" lon="1.79757">
        <ele>180</ele>
        <time>2026-01-31T11:01:43Z</time>
        <extensions>
          <gpxtpx:TrackPointExtension xmlns:gpxtpx="http://www.garmin.com/xmlschemas/TrackPointExtension/v1">
            <gpxtpx:hr>113</gpxtpx:hr>
          </gpxtpx:TrackPointExtension>
        </extensions>
      </trkpt>
      <trkpt lat="48.72182" lon="1.79759">
        <ele>180</ele>
        <time>2026-01-31T11:01:44Z</time>
        <extensions>
          <gpxtpx:TrackPointExtension xmlns:gpxtpx="http://www.garmin.com/xmlschemas/TrackPointExtension/v1">
            <gpxtpx:hr>113</gpxtpx:hr>
          </gpxtpx:TrackPointExtension>
        </extensions>
      </trkpt>
      <trkpt lat="48.72185" lon="1.79761">
        <ele>180</ele>
        <time>2026-01-31T11:01:45Z</time>
      </trkpt>
      <trkpt lat="48.72187" lon="1.79762">
        <ele>180</ele>
        <time>2026-01-31T11:01:46Z</time>
        <extensions>
          <gpxtpx:TrackPointExtension xmlns:gpxtpx="http://www.garmin.com/xmlschemas/TrackPointExtension/v1">
            <gpxtpx:hr>113</gpxtpx:hr>
          </gpxtpx:TrackPointExtension>
        </extensions>
      </trkpt>
      <trkpt lat="48.72189" lon="1.79764">
        <ele>179.8</ele>
        <time>2026-01-31T11:01:47Z</time>
        <extensions>
          <gpxtpx:TrackPointExtension xmlns:gpxtpx="http://www.garmin.com/xmlschemas/TrackPointExtension/v1">
            <gpxtpx:hr>113</gpxtpx:hr>
          </gpxtpx:TrackPointExtension>
        </extensions>
      </trkpt>
      <trkpt lat="48.72191" lon="1.79766">
        <ele>179.8</ele>
        <time>2026-01-31T11:01:48Z</time>
        <extensions>
          <gpxtpx:TrackPointExtension xmlns:gpxtpx="http://www.garmin.com/xmlschemas/TrackPointExtension/v1">
            <gpxtpx:hr>113</gpxtpx:hr>
          </gpxtpx:TrackPointExtension>
        </extensions>
      </trkpt>
      <trkpt lat="48.72195" lon="1.79768">
        <ele>179.6</ele>
        <time>2026-01-31T11:01:50Z</time>
        <extensions>
          <gpxtpx:TrackPointExtension xmlns:gpxtpx="http://www.garmin.com/xmlschemas/TrackPointExtension/v1">
            <gpxtpx:hr>113</gpxtpx:hr>
          </gpxtpx:TrackPointExtension>
        </extensions>
      </trkpt>
      <trkpt lat="48.72198" lon="1.7977">
        <ele>179.4</ele>
        <time>2026-01-31T11:01:52Z</time>
        <extensions>
          <gpxtpx:TrackPointExtension xmlns:gpxtpx="http://www.garmin.com/xmlschemas/TrackPointExtension/v1">
            <gpxtpx:hr>113</gpxtpx:hr>
          </gpxtpx:TrackPointExtension>
        </extensions>
      </trkpt>
      <trkpt lat="48.722" lon="1.79772">
        <ele>179</ele>
        <time>2026-01-31T11:01:54Z</time>
        <extensions>
          <gpxtpx:TrackPointExtension xmlns:gpxtpx="http://www.garmin.com/xmlschemas/TrackPointExtension/v1">
            <gpxtpx:hr>112</gpxtpx:hr>
          </gpxtpx:TrackPointExtension>
        </extensions>
      </trkpt>
      <trkpt lat="48.72202" lon="1.79773">
        <ele>178.8</ele>
        <time>2026-01-31T11:01:55Z</time>
        <extensions>
          <gpxtpx:TrackPointExtension xmlns:gpxtpx="http://www.garmin.com/xmlschemas/TrackPointExtension/v1">
            <gpxtpx:hr>112</gpxtpx:hr>
          </gpxtpx:TrackPointExtension>
        </extensions>
      </trkpt>
      <trkpt lat="48.72205" lon="1.79776">
        <ele>178.6</ele>
        <time>2026-01-31T11:01:57Z</time>
        <extensions>
          <gpxtpx:TrackPointExtension xmlns:gpxtpx="http://www.garmin.com/xmlschemas/TrackPointExtension/v1">
            <gpxtpx:hr>112</gpxtpx:hr>
          </gpxtpx:TrackPointExtension>
        </extensions>
      </trkpt>
      <trkpt lat="48.72207" lon="1.79777">
        <ele>178.6</ele>
        <time>2026-01-31T11:01:58Z</time>
        <extensions>
          <gpxtpx:TrackPointExtension xmlns:gpxtpx="http://www.garmin.com/xmlschemas/TrackPointExtension/v1">
            <gpxtpx:hr>112</gpxtpx:hr>
          </gpxtpx:TrackPointExtension>
        </extensions>
      </trkpt>
      <trkpt lat="48.7221" lon="1.79779">
        <ele>178.6</ele>
        <time>2026-01-31T11:01:59Z</time>
        <extensions>
          <gpxtpx:TrackPointExtension xmlns:gpxtpx="http://www.garmin.com/xmlschemas/TrackPointExtension/v1">
            <gpxtpx:hr>112</gpxtpx:hr>
          </gpxtpx:TrackPointExtension>
        </extensions>
      </trkpt>
      <trkpt lat="48.72212" lon="1.7978">
        <ele>178.6</ele>
        <time>2026-01-31T11:02:00Z</time>
        <extensions>
          <gpxtpx:TrackPointExtension xmlns:gpxtpx="http://www.garmin.com/xmlschemas/TrackPointExtension/v1">
            <gpxtpx:hr>112</gpxtpx:hr>
          </gpxtpx:TrackPointExtension>
        </extensions>
      </trkpt>
      <trkpt lat="48.72214" lon="1.79782">
        <ele>178.6</ele>
        <time>2026-01-31T11:02:01Z</time>
        <extensions>
          <gpxtpx:TrackPointExtension xmlns:gpxtpx="http://www.garmin.com/xmlschemas/TrackPointExtension/v1">
            <gpxtpx:hr>112</gpxtpx:hr>
          </gpxtpx:TrackPointExtension>
        </extensions>
      </trkpt>
      <trkpt lat="48.72217" lon="1.79784">
        <ele>178.6</ele>
        <time>2026-01-31T11:02:02Z</time>
        <extensions>
          <gpxtpx:TrackPointExtension xmlns:gpxtpx="http://www.garmin.com/xmlschemas/TrackPointExtension/v1">
            <gpxtpx:hr>112</gpxtpx:hr>
          </gpxtpx:TrackPointExtension>
        </extensions>
      </trkpt>
      <trkpt lat="48.7222" lon="1.79786">
        <ele>178.6</ele>
        <time>2026-01-31T11:02:03Z</time>
        <extensions>
          <gpxtpx:TrackPointExtension xmlns:gpxtpx="http://www.garmin.com/xmlschemas/TrackPointExtension/v1">
            <gpxtpx:hr>112</gpxtpx:hr>
          </gpxtpx:TrackPointExtension>
        </extensions>
      </trkpt>
      <trkpt lat="48.72223" lon="1.79788">
        <ele>178.6</ele>
        <time>2026-01-31T11:02:04Z</time>
        <extensions>
          <gpxtpx:TrackPointExtension xmlns:gpxtpx="http://www.garmin.com/xmlschemas/TrackPointExtension/v1">
            <gpxtpx:hr>112</gpxtpx:hr>
          </gpxtpx:TrackPointExtension>
        </extensions>
      </trkpt>
      <trkpt lat="48.72226" lon="1.7979">
        <ele>178.4</ele>
        <time>2026-01-31T11:02:05Z</time>
        <extensions>
          <gpxtpx:TrackPointExtension xmlns:gpxtpx="http://www.garmin.com/xmlschemas/TrackPointExtension/v1">
            <gpxtpx:hr>112</gpxtpx:hr>
          </gpxtpx:TrackPointExtension>
        </extensions>
      </trkpt>
      <trkpt lat="48.72229" lon="1.79792">
        <ele>178.4</ele>
        <time>2026-01-31T11:02:06Z</time>
        <extensions>
          <gpxtpx:TrackPointExtension xmlns:gpxtpx="http://www.garmin.com/xmlschemas/TrackPointExtension/v1">
            <gpxtpx:hr>112</gpxtpx:hr>
          </gpxtpx:TrackPointExtension>
        </extensions>
      </trkpt>
      <trkpt lat="48.72233" lon="1.79794">
        <ele>178.4</ele>
        <time>2026-01-31T11:02:07Z</time>
        <extensions>
          <gpxtpx:TrackPointExtension xmlns:gpxtpx="http://www.garmin.com/xmlschemas/TrackPointExtension/v1">
            <gpxtpx:hr>112</gpxtpx:hr>
          </gpxtpx:TrackPointExtension>
        </extensions>
      </trkpt>
      <trkpt lat="48.72236" lon="1.79796">
        <ele>178.2</ele>
        <time>2026-01-31T11:02:08Z</time>
        <extensions>
          <gpxtpx:TrackPointExtension xmlns:gpxtpx="http://www.garmin.com/xmlschemas/TrackPointExtension/v1">
            <gpxtpx:hr>112</gpxtpx:hr>
          </gpxtpx:TrackPointExtension>
        </extensions>
      </trkpt>
      <trkpt lat="48.72239" lon="1.79799">
        <ele>178.2</ele>
        <time>2026-01-31T11:02:09Z</time>
        <extensions>
          <gpxtpx:TrackPointExtension xmlns:gpxtpx="http://www.garmin.com/xmlschemas/TrackPointExtension/v1">
            <gpxtpx:hr>112</gpxtpx:hr>
          </gpxtpx:TrackPointExtension>
        </extensions>
      </trkpt>
      <trkpt lat="48.72242" lon="1.79801">
        <ele>178</ele>
        <time>2026-01-31T11:02:10Z</time>
        <extensions>
          <gpxtpx:TrackPointExtension xmlns:gpxtpx="http://www.garmin.com/xmlschemas/TrackPointExtension/v1">
            <gpxtpx:hr>112</gpxtpx:hr>
          </gpxtpx:TrackPointExtension>
        </extensions>
      </trkpt>
      <trkpt lat="48.72245" lon="1.79804">
        <ele>178</ele>
        <time>2026-01-31T11:02:11Z</time>
        <extensions>
          <gpxtpx:TrackPointExtension xmlns:gpxtpx="http://www.garmin.com/xmlschemas/TrackPointExtension/v1">
            <gpxtpx:hr>112</gpxtpx:hr>
          </gpxtpx:TrackPointExtension>
        </extensions>
      </trkpt>
      <trkpt lat="48.72248" lon="1.79806">
        <ele>177.8</ele>
        <time>2026-01-31T11:02:12Z</time>
        <extensions>
          <gpxtpx:TrackPointExtension xmlns:gpxtpx="http://www.garmin.com/xmlschemas/TrackPointExtension/v1">
            <gpxtpx:hr>112</gpxtpx:hr>
          </gpxtpx:TrackPointExtension>
        </extensions>
      </trkpt>
      <trkpt lat="48.72252" lon="1.79809">
        <ele>177.8</ele>
        <time>2026-01-31T11:02:13Z</time>
        <extensions>
          <gpxtpx:TrackPointExtension xmlns:gpxtpx="http://www.garmin.com/xmlschemas/TrackPointExtension/v1">
            <gpxtpx:hr>112</gpxtpx:hr>
          </gpxtpx:TrackPointExtension>
        </extensions>
      </trkpt>
      <trkpt lat="48.72255" lon="1.79811">
        <ele>177.8</ele>
        <time>2026-01-31T11:02:14Z</time>
        <extensions>
          <gpxtpx:TrackPointExtension xmlns:gpxtpx="http://www.garmin.com/xmlschemas/TrackPointExtension/v1">
            <gpxtpx:hr>112</gpxtpx:hr>
          </gpxtpx:TrackPointExtension>
        </extensions>
      </trkpt>
      <trkpt lat="48.72258" lon="1.79813">
        <ele>178</ele>
        <time>2026-01-31T11:02:15Z</time>
        <extensions>
          <gpxtpx:TrackPointExtension xmlns:gpxtpx="http://www.garmin.com/xmlschemas/TrackPointExtension/v1">
            <gpxtpx:hr>112</gpxtpx:hr>
          </gpxtpx:TrackPointExtension>
        </extensions>
      </trkpt>
      <trkpt lat="48.72261" lon="1.79815">
        <ele>178</ele>
        <time>2026-01-31T11:02:16Z</time>
        <extensions>
          <gpxtpx:TrackPointExtension xmlns:gpxtpx="http://www.garmin.com/xmlschemas/TrackPointExtension/v1">
            <gpxtpx:hr>112</gpxtpx:hr>
          </gpxtpx:TrackPointExtension>
        </extensions>
      </trkpt>
      <trkpt lat="48.72264" lon="1.79817">
        <ele>178</ele>
        <time>2026-01-31T11:02:17Z</time>
        <extensions>
          <gpxtpx:TrackPointExtension xmlns:gpxtpx="http://www.garmin.com/xmlschemas/TrackPointExtension/v1">
            <gpxtpx:hr>112</gpxtpx:hr>
          </gpxtpx:TrackPointExtension>
        </extensions>
      </trkpt>
      <trkpt lat="48.72267" lon="1.79818">
        <ele>178</ele>
        <time>2026-01-31T11:02:18Z</time>
        <extensions>
          <gpxtpx:TrackPointExtension xmlns:gpxtpx="http://www.garmin.com/xmlschemas/TrackPointExtension/v1">
            <gpxtpx:hr>112</gpxtpx:hr>
          </gpxtpx:TrackPointExtension>
        </extensions>
      </trkpt>
      <trkpt lat="48.7227" lon="1.7982">
        <ele>178</ele>
        <time>2026-01-31T11:02:19Z</time>
        <extensions>
          <gpxtpx:TrackPointExtension xmlns:gpxtpx="http://www.garmin.com/xmlschemas/TrackPointExtension/v1">
            <gpxtpx:hr>112</gpxtpx:hr>
          </gpxtpx:TrackPointExtension>
        </extensions>
      </trkpt>
      <trkpt lat="48.72273" lon="1.79822">
        <ele>178</ele>
        <time>2026-01-31T11:02:20Z</time>
        <extensions>
          <gpxtpx:TrackPointExtension xmlns:gpxtpx="http://www.garmin.com/xmlschemas/TrackPointExtension/v1">
            <gpxtpx:hr>112</gpxtpx:hr>
          </gpxtpx:TrackPointExtension>
        </extensions>
      </trkpt>
      <trkpt lat="48.72276" lon="1.79824">
        <ele>178</ele>
        <time>2026-01-31T11:02:21Z</time>
        <extensions>
          <gpxtpx:TrackPointExtension xmlns:gpxtpx="http://www.garmin.com/xmlschemas/TrackPointExtension/v1">
            <gpxtpx:hr>112</gpxtpx:hr>
          </gpxtpx:TrackPointExtension>
        </extensions>
      </trkpt>
      <trkpt lat="48.7228" lon="1.79826">
        <ele>178</ele>
        <time>2026-01-31T11:02:22Z</time>
        <extensions>
          <gpxtpx:TrackPointExtension xmlns:gpxtpx="http://www.garmin.com/xmlschemas/TrackPointExtension/v1">
            <gpxtpx:hr>112</gpxtpx:hr>
          </gpxtpx:TrackPointExtension>
        </extensions>
      </trkpt>
      <trkpt lat="48.72283" lon="1.79828">
        <ele>178</ele>
        <time>2026-01-31T11:02:23Z</time>
        <extensions>
          <gpxtpx:TrackPointExtension xmlns:gpxtpx="http://www.garmin.com/xmlschemas/TrackPointExtension/v1">
            <gpxtpx:hr>112</gpxtpx:hr>
          </gpxtpx:TrackPointExtension>
        </extensions>
      </trkpt>
      <trkpt lat="48.72286" lon="1.7983">
        <ele>178.2</ele>
        <time>2026-01-31T11:02:24Z</time>
        <extensions>
          <gpxtpx:TrackPointExtension xmlns:gpxtpx="http://www.garmin.com/xmlschemas/TrackPointExtension/v1">
            <gpxtpx:hr>112</gpxtpx:hr>
          </gpxtpx:TrackPointExtension>
        </extensions>
      </trkpt>
      <trkpt lat="48.7229" lon="1.79833">
        <ele>178.2</ele>
        <time>2026-01-31T11:02:25Z</time>
        <extensions>
          <gpxtpx:TrackPointExtension xmlns:gpxtpx="http://www.garmin.com/xmlschemas/TrackPointExtension/v1">
            <gpxtpx:hr>112</gpxtpx:hr>
          </gpxtpx:TrackPointExtension>
        </extensions>
      </trkpt>
      <trkpt lat="48.72293" lon="1.79835">
        <ele>178.4</ele>
        <time>2026-01-31T11:02:26Z</time>
        <extensions>
          <gpxtpx:TrackPointExtension xmlns:gpxtpx="http://www.garmin.com/xmlschemas/TrackPointExtension/v1">
            <gpxtpx:hr>112</gpxtpx:hr>
          </gpxtpx:TrackPointExtension>
        </extensions>
      </trkpt>
      <trkpt lat="48.72296" lon="1.79837">
        <ele>178.4</ele>
        <time>2026-01-31T11:02:27Z</time>
        <extensions>
          <gpxtpx:TrackPointExtension xmlns:gpxtpx="http://www.garmin.com/xmlschemas/TrackPointExtension/v1">
            <gpxtpx:hr>112</gpxtpx:hr>
          </gpxtpx:TrackPointExtension>
        </extensions>
      </trkpt>
      <trkpt lat="48.72299" lon="1.7984">
        <ele>178.4</ele>
        <time>2026-01-31T11:02:28Z</time>
        <extensions>
          <gpxtpx:TrackPointExtension xmlns:gpxtpx="http://www.garmin.com/xmlschemas/TrackPointExtension/v1">
            <gpxtpx:hr>112</gpxtpx:hr>
          </gpxtpx:TrackPointExtension>
        </extensions>
      </trkpt>
      <trkpt lat="48.72302" lon="1.79842">
        <ele>178.4</ele>
        <time>2026-01-31T11:02:29Z</time>
        <extensions>
          <gpxtpx:TrackPointExtension xmlns:gpxtpx="http://www.garmin.com/xmlschemas/TrackPointExtension/v1">
            <gpxtpx:hr>112</gpxtpx:hr>
          </gpxtpx:TrackPointExtension>
        </extensions>
      </trkpt>
      <trkpt lat="48.72305" lon="1.79845">
        <ele>178.6</ele>
        <time>2026-01-31T11:02:30Z</time>
        <extensions>
          <gpxtpx:TrackPointExtension xmlns:gpxtpx="http://www.garmin.com/xmlschemas/TrackPointExtension/v1">
            <gpxtpx:hr>112</gpxtpx:hr>
          </gpxtpx:TrackPointExtension>
        </extensions>
      </trkpt>
      <trkpt lat="48.72308" lon="1.79847">
        <ele>178.6</ele>
        <time>2026-01-31T11:02:31Z</time>
        <extensions>
          <gpxtpx:TrackPointExtension xmlns:gpxtpx="http://www.garmin.com/xmlschemas/TrackPointExtension/v1">
            <gpxtpx:hr>112</gpxtpx:hr>
          </gpxtpx:TrackPointExtension>
        </extensions>
      </trkpt>
      <trkpt lat="48.72311" lon="1.7985">
        <ele>178.6</ele>
        <time>2026-01-31T11:02:32Z</time>
        <extensions>
          <gpxtpx:TrackPointExtension xmlns:gpxtpx="http://www.garmin.com/xmlschemas/TrackPointExtension/v1">
            <gpxtpx:hr>112</gpxtpx:hr>
          </gpxtpx:TrackPointExtension>
        </extensions>
      </trkpt>
      <trkpt lat="48.72314" lon="1.79852">
        <ele>178.6</ele>
        <time>2026-01-31T11:02:33Z</time>
        <extensions>
          <gpxtpx:TrackPointExtension xmlns:gpxtpx="http://www.garmin.com/xmlschemas/TrackPointExtension/v1">
            <gpxtpx:hr>112</gpxtpx:hr>
          </gpxtpx:TrackPointExtension>
        </extensions>
      </trkpt>
      <trkpt lat="48.72317" lon="1.79854">
        <ele>178.4</ele>
        <time>2026-01-31T11:02:34Z</time>
        <extensions>
          <gpxtpx:TrackPointExtension xmlns:gpxtpx="http://www.garmin.com/xmlschemas/TrackPointExtension/v1">
            <gpxtpx:hr>113</gpxtpx:hr>
          </gpxtpx:TrackPointExtension>
        </extensions>
      </trkpt>
      <trkpt lat="48.72321" lon="1.79856">
        <ele>178.4</ele>
        <time>2026-01-31T11:02:35Z</time>
        <extensions>
          <gpxtpx:TrackPointExtension xmlns:gpxtpx="http://www.garmin.com/xmlschemas/TrackPointExtension/v1">
            <gpxtpx:hr>113</gpxtpx:hr>
          </gpxtpx:TrackPointExtension>
        </extensions>
      </trkpt>
      <trkpt lat="48.72324" lon="1.79858">
        <ele>178.4</ele>
        <time>2026-01-31T11:02:36Z</time>
        <extensions>
          <gpxtpx:TrackPointExtension xmlns:gpxtpx="http://www.garmin.com/xmlschemas/TrackPointExtension/v1">
            <gpxtpx:hr>114</gpxtpx:hr>
          </gpxtpx:TrackPointExtension>
        </extensions>
      </trkpt>
      <trkpt lat="48.72327" lon="1.7986">
        <ele>178.4</ele>
        <time>2026-01-31T11:02:37Z</time>
        <extensions>
          <gpxtpx:TrackPointExtension xmlns:gpxtpx="http://www.garmin.com/xmlschemas/TrackPointExtension/v1">
            <gpxtpx:hr>115</gpxtpx:hr>
          </gpxtpx:TrackPointExtension>
        </extensions>
      </trkpt>
      <trkpt lat="48.72331" lon="1.79863">
        <ele>178.6</ele>
        <time>2026-01-31T11:02:38Z</time>
        <extensions>
          <gpxtpx:TrackPointExtension xmlns:gpxtpx="http://www.garmin.com/xmlschemas/TrackPointExtension/v1">
            <gpxtpx:hr>117</gpxtpx:hr>
          </gpxtpx:TrackPointExtension>
        </extensions>
      </trkpt>
      <trkpt lat="48.72334" lon="1.79865">
        <ele>178.6</ele>
        <time>2026-01-31T11:02:39Z</time>
        <extensions>
          <gpxtpx:TrackPointExtension xmlns:gpxtpx="http://www.garmin.com/xmlschemas/TrackPointExtension/v1">
            <gpxtpx:hr>119</gpxtpx:hr>
          </gpxtpx:TrackPointExtension>
        </extensions>
      </trkpt>
      <trkpt lat="48.72338" lon="1.79867">
        <ele>178.6</ele>
        <time>2026-01-31T11:02:40Z</time>
        <extensions>
          <gpxtpx:TrackPointExtension xmlns:gpxtpx="http://www.garmin.com/xmlschemas/TrackPointExtension/v1">
            <gpxtpx:hr>120</gpxtpx:hr>
          </gpxtpx:TrackPointExtension>
        </extensions>
      </trkpt>
      <trkpt lat="48.72341" lon="1.7987">
        <ele>178.6</ele>
        <time>2026-01-31T11:02:41Z</time>
        <extensions>
          <gpxtpx:TrackPointExtension xmlns:gpxtpx="http://www.garmin.com/xmlschemas/TrackPointExtension/v1">
            <gpxtpx:hr>120</gpxtpx:hr>
          </gpxtpx:TrackPointExtension>
        </extensions>
      </trkpt>
      <trkpt lat="48.72345" lon="1.79873">
        <ele>178.8</ele>
        <time>2026-01-31T11:02:42Z</time>
        <extensions>
          <gpxtpx:TrackPointExtension xmlns:gpxtpx="http://www.garmin.com/xmlschemas/TrackPointExtension/v1">
            <gpxtpx:hr>120</gpxtpx:hr>
          </gpxtpx:TrackPointExtension>
        </extensions>
      </trkpt>
      <trkpt lat="48.72348" lon="1.79875">
        <ele>178.8</ele>
        <time>2026-01-31T11:02:43Z</time>
        <extensions>
          <gpxtpx:TrackPointExtension xmlns:gpxtpx="http://www.garmin.com/xmlschemas/TrackPointExtension/v1">
            <gpxtpx:hr>119</gpxtpx:hr>
          </gpxtpx:TrackPointExtension>
        </extensions>
      </trkpt>
      <trkpt lat="48.72352" lon="1.79878">
        <ele>178.8</ele>
        <time>2026-01-31T11:02:44Z</time>
        <extensions>
          <gpxtpx:TrackPointExtension xmlns:gpxtpx="http://www.garmin.com/xmlschemas/TrackPointExtension/v1">
            <gpxtpx:hr>119</gpxtpx:hr>
          </gpxtpx:TrackPointExtension>
        </extensions>
      </trkpt>
      <trkpt lat="48.72355" lon="1.7988">
        <ele>178.8</ele>
        <time>2026-01-31T11:02:45Z</time>
        <extensions>
          <gpxtpx:TrackPointExtension xmlns:gpxtpx="http://www.garmin.com/xmlschemas/TrackPointExtension/v1">
            <gpxtpx:hr>119</gpxtpx:hr>
          </gpxtpx:TrackPointExtension>
        </extensions>
      </trkpt>
      <trkpt lat="48.72358" lon="1.79882">
        <ele>178.8</ele>
        <time>2026-01-31T11:02:46Z</time>
        <extensions>
          <gpxtpx:TrackPointExtension xmlns:gpxtpx="http://www.garmin.com/xmlschemas/TrackPointExtension/v1">
            <gpxtpx:hr>120</gpxtpx:hr>
          </gpxtpx:TrackPointExtension>
        </extensions>
      </trkpt>
      <trkpt lat="48.72361" lon="1.79885">
        <ele>178.8</ele>
        <time>2026-01-31T11:02:47Z</time>
        <extensions>
          <gpxtpx:TrackPointExtension xmlns:gpxtpx="http://www.garmin.com/xmlschemas/TrackPointExtension/v1">
            <gpxtpx:hr>120</gpxtpx:hr>
          </gpxtpx:TrackPointExtension>
        </extensions>
      </trkpt>
      <trkpt lat="48.72364" lon="1.79887">
        <ele>178.8</ele>
        <time>2026-01-31T11:02:48Z</time>
        <extensions>
          <gpxtpx:TrackPointExtension xmlns:gpxtpx="http://www.garmin.com/xmlschemas/TrackPointExtension/v1">
            <gpxtpx:hr>120</gpxtpx:hr>
          </gpxtpx:TrackPointExtension>
        </extensions>
      </trkpt>
      <trkpt lat="48.72367" lon="1.7989">
        <ele>178.8</ele>
        <time>2026-01-31T11:02:49Z</time>
        <extensions>
          <gpxtpx:TrackPointExtension xmlns:gpxtpx="http://www.garmin.com/xmlschemas/TrackPointExtension/v1">
            <gpxtpx:hr>120</gpxtpx:hr>
          </gpxtpx:TrackPointExtension>
        </extensions>
      </trkpt>
      <trkpt lat="48.72369" lon="1.79892">
        <ele>178.8</ele>
        <time>2026-01-31T11:02:50Z</time>
        <extensions>
          <gpxtpx:TrackPointExtension xmlns:gpxtpx="http://www.garmin.com/xmlschemas/TrackPointExtension/v1">
            <gpxtpx:hr>120</gpxtpx:hr>
          </gpxtpx:TrackPointExtension>
        </extensions>
      </trkpt>
      <trkpt lat="48.72372" lon="1.79895">
        <ele>178.8</ele>
        <time>2026-01-31T11:02:51Z</time>
        <extensions>
          <gpxtpx:TrackPointExtension xmlns:gpxtpx="http://www.garmin.com/xmlschemas/TrackPointExtension/v1">
            <gpxtpx:hr>120</gpxtpx:hr>
          </gpxtpx:TrackPointExtension>
        </extensions>
      </trkpt>
      <trkpt lat="48.72375" lon="1.79897">
        <ele>178.8</ele>
        <time>2026-01-31T11:02:52Z</time>
        <extensions>
          <gpxtpx:TrackPointExtension xmlns:gpxtpx="http://www.garmin.com/xmlschemas/TrackPointExtension/v1">
            <gpxtpx:hr>120</gpxtpx:hr>
          </gpxtpx:TrackPointExtension>
        </extensions>
      </trkpt>
      <trkpt lat="48.72377" lon="1.799">
        <ele>178.6</ele>
        <time>2026-01-31T11:02:53Z</time>
        <extensions>
          <gpxtpx:TrackPointExtension xmlns:gpxtpx="http://www.garmin.com/xmlschemas/TrackPointExtension/v1">
            <gpxtpx:hr>120</gpxtpx:hr>
          </gpxtpx:TrackPointExtension>
        </extensions>
      </trkpt>
      <trkpt lat="48.7238" lon="1.79902">
        <ele>178.6</ele>
        <time>2026-01-31T11:02:54Z</time>
        <extensions>
          <gpxtpx:TrackPointExtension xmlns:gpxtpx="http://www.garmin.com/xmlschemas/TrackPointExtension/v1">
            <gpxtpx:hr>120</gpxtpx:hr>
          </gpxtpx:TrackPointExtension>
        </extensions>
      </trkpt>
      <trkpt lat="48.72383" lon="1.79904">
        <ele>178.6</ele>
        <time>2026-01-31T11:02:55Z</time>
        <extensions>
          <gpxtpx:TrackPointExtension xmlns:gpxtpx="http://www.garmin.com/xmlschemas/TrackPointExtension/v1">
            <gpxtpx:hr>120</gpxtpx:hr>
          </gpxtpx:TrackPointExtension>
        </extensions>
      </trkpt>
      <trkpt lat="48.72386" lon="1.79907">
        <ele>178.4</ele>
        <time>2026-01-31T11:02:56Z</time>
        <extensions>
          <gpxtpx:TrackPointExtension xmlns:gpxtpx="http://www.garmin.com/xmlschemas/TrackPointExtension/v1">
            <gpxtpx:hr>120</gpxtpx:hr>
          </gpxtpx:TrackPointExtension>
        </extensions>
      </trkpt>
      <trkpt lat="48.72389" lon="1.79909">
        <ele>178.4</ele>
        <time>2026-01-31T11:02:57Z</time>
        <extensions>
          <gpxtpx:TrackPointExtension xmlns:gpxtpx="http://www.garmin.com/xmlschemas/TrackPointExtension/v1">
            <gpxtpx:hr>120</gpxtpx:hr>
          </gpxtpx:TrackPointExtension>
        </extensions>
      </trkpt>
      <trkpt lat="48.72392" lon="1.79911">
        <ele>178.4</ele>
        <time>2026-01-31T11:02:58Z</time>
        <extensions>
          <gpxtpx:TrackPointExtension xmlns:gpxtpx="http://www.garmin.com/xmlschemas/TrackPointExtension/v1">
            <gpxtpx:hr>120</gpxtpx:hr>
          </gpxtpx:TrackPointExtension>
        </extensions>
      </trkpt>
      <trkpt lat="48.72395" lon="1.79913">
        <ele>178.6</ele>
        <time>2026-01-31T11:02:59Z</time>
        <extensions>
          <gpxtpx:TrackPointExtension xmlns:gpxtpx="http://www.garmin.com/xmlschemas/TrackPointExtension/v1">
            <gpxtpx:hr>121</gpxtpx:hr>
          </gpxtpx:TrackPointExtension>
        </extensions>
      </trkpt>
      <trkpt lat="48.72398" lon="1.79915">
        <ele>178.6</ele>
        <time>2026-01-31T11:03:00Z</time>
        <extensions>
          <gpxtpx:TrackPointExtension xmlns:gpxtpx="http://www.garmin.com/xmlschemas/TrackPointExtension/v1">
            <gpxtpx:hr>121</gpxtpx:hr>
          </gpxtpx:TrackPointExtension>
        </extensions>
      </trkpt>
      <trkpt lat="48.72402" lon="1.79917">
        <ele>178.6</ele>
        <time>2026-01-31T11:03:01Z</time>
        <extensions>
          <gpxtpx:TrackPointExtension xmlns:gpxtpx="http://www.garmin.com/xmlschemas/TrackPointExtension/v1">
            <gpxtpx:hr>121</gpxtpx:hr>
          </gpxtpx:TrackPointExtension>
        </extensions>
      </trkpt>
      <trkpt lat="48.72405" lon="1.79919">
        <ele>178.6</ele>
        <time>2026-01-31T11:03:02Z</time>
        <extensions>
          <gpxtpx:TrackPointExtension xmlns:gpxtpx="http://www.garmin.com/xmlschemas/TrackPointExtension/v1">
            <gpxtpx:hr>121</gpxtpx:hr>
          </gpxtpx:TrackPointExtension>
        </extensions>
      </trkpt>
      <trkpt lat="48.72408" lon="1.79922">
        <ele>178.8</ele>
        <time>2026-01-31T11:03:03Z</time>
        <extensions>
          <gpxtpx:TrackPointExtension xmlns:gpxtpx="http://www.garmin.com/xmlschemas/TrackPointExtension/v1">
            <gpxtpx:hr>121</gpxtpx:hr>
          </gpxtpx:TrackPointExtension>
        </extensions>
      </trkpt>
      <trkpt lat="48.72412" lon="1.79924">
        <ele>179</ele>
        <time>2026-01-31T11:03:04Z</time>
        <extensions>
          <gpxtpx:TrackPointExtension xmlns:gpxtpx="http://www.garmin.com/xmlschemas/TrackPointExtension/v1">
            <gpxtpx:hr>121</gpxtpx:hr>
          </gpxtpx:TrackPointExtension>
        </extensions>
      </trkpt>
      <trkpt lat="48.72415" lon="1.79926">
        <ele>179</ele>
        <time>2026-01-31T11:03:05Z</time>
        <extensions>
          <gpxtpx:TrackPointExtension xmlns:gpxtpx="http://www.garmin.com/xmlschemas/TrackPointExtension/v1">
            <gpxtpx:hr>121</gpxtpx:hr>
          </gpxtpx:TrackPointExtension>
        </extensions>
      </trkpt>
      <trkpt lat="48.72418" lon="1.79928">
        <ele>179.2</ele>
        <time>2026-01-31T11:03:06Z</time>
        <extensions>
          <gpxtpx:TrackPointExtension xmlns:gpxtpx="http://www.garmin.com/xmlschemas/TrackPointExtension/v1">
            <gpxtpx:hr>121</gpxtpx:hr>
          </gpxtpx:TrackPointExtension>
        </extensions>
      </trkpt>
      <trkpt lat="48.7242" lon="1.7993">
        <ele>179.2</ele>
        <time>2026-01-31T11:03:07Z</time>
        <extensions>
          <gpxtpx:TrackPointExtension xmlns:gpxtpx="http://www.garmin.com/xmlschemas/TrackPointExtension/v1">
            <gpxtpx:hr>121</gpxtpx:hr>
          </gpxtpx:TrackPointExtension>
        </extensions>
      </trkpt>
      <trkpt lat="48.72424" lon="1.79932">
        <ele>179.2</ele>
        <time>2026-01-31T11:03:08Z</time>
        <extensions>
          <gpxtpx:TrackPointExtension xmlns:gpxtpx="http://www.garmin.com/xmlschemas/TrackPointExtension/v1">
            <gpxtpx:hr>121</gpxtpx:hr>
          </gpxtpx:TrackPointExtension>
        </extensions>
      </trkpt>
      <trkpt lat="48.72427" lon="1.79934">
        <ele>179.2</ele>
        <time>2026-01-31T11:03:09Z</time>
        <extensions>
          <gpxtpx:TrackPointExtension xmlns:gpxtpx="http://www.garmin.com/xmlschemas/TrackPointExtension/v1">
            <gpxtpx:hr>122</gpxtpx:hr>
          </gpxtpx:TrackPointExtension>
        </extensions>
      </trkpt>
      <trkpt lat="48.7243" lon="1.79937">
        <ele>179.2</ele>
        <time>2026-01-31T11:03:10Z</time>
        <extensions>
          <gpxtpx:TrackPointExtension xmlns:gpxtpx="http://www.garmin.com/xmlschemas/TrackPointExtension/v1">
            <gpxtpx:hr>122</gpxtpx:hr>
          </gpxtpx:TrackPointExtension>
        </extensions>
      </trkpt>
      <trkpt lat="48.72433" lon="1.79939">
        <ele>179.2</ele>
        <time>2026-01-31T11:03:11Z</time>
        <extensions>
          <gpxtpx:TrackPointExtension xmlns:gpxtpx="http://www.garmin.com/xmlschemas/TrackPointExtension/v1">
            <gpxtpx:hr>122</gpxtpx:hr>
          </gpxtpx:TrackPointExtension>
        </extensions>
      </trkpt>
      <trkpt lat="48.72436" lon="1.79942">
        <ele>179.4</ele>
        <time>2026-01-31T11:03:12Z</time>
        <extensions>
          <gpxtpx:TrackPointExtension xmlns:gpxtpx="http://www.garmin.com/xmlschemas/TrackPointExtension/v1">
            <gpxtpx:hr>122</gpxtpx:hr>
          </gpxtpx:TrackPointExtension>
        </extensions>
      </trkpt>
      <trkpt lat="48.7244" lon="1.79945">
        <ele>179.2</ele>
        <time>2026-01-31T11:03:13Z</time>
        <extensions>
          <gpxtpx:TrackPointExtension xmlns:gpxtpx="http://www.garmin.com/xmlschemas/TrackPointExtension/v1">
            <gpxtpx:hr>122</gpxtpx:hr>
          </gpxtpx:TrackPointExtension>
        </extensions>
      </trkpt>
      <trkpt lat="48.72444" lon="1.79947">
        <ele>179.2</ele>
        <time>2026-01-31T11:03:14Z</time>
        <extensions>
          <gpxtpx:TrackPointExtension xmlns:gpxtpx="http://www.garmin.com/xmlschemas/TrackPointExtension/v1">
            <gpxtpx:hr>122</gpxtpx:hr>
          </gpxtpx:TrackPointExtension>
        </extensions>
      </trkpt>
      <trkpt lat="48.72447" lon="1.7995">
        <ele>179.2</ele>
        <time>2026-01-31T11:03:15Z</time>
        <extensions>
          <gpxtpx:TrackPointExtension xmlns:gpxtpx="http://www.garmin.com/xmlschemas/TrackPointExtension/v1">
            <gpxtpx:hr>122</gpxtpx:hr>
          </gpxtpx:TrackPointExtension>
        </extensions>
      </trkpt>
      <trkpt lat="48.72451" lon="1.79953">
        <ele>179</ele>
        <time>2026-01-31T11:03:16Z</time>
        <extensions>
          <gpxtpx:TrackPointExtension xmlns:gpxtpx="http://www.garmin.com/xmlschemas/TrackPointExtension/v1">
            <gpxtpx:hr>122</gpxtpx:hr>
          </gpxtpx:TrackPointExtension>
        </extensions>
      </trkpt>
      <trkpt lat="48.72455" lon="1.79956">
        <ele>179</ele>
        <time>2026-01-31T11:03:17Z</time>
        <extensions>
          <gpxtpx:TrackPointExtension xmlns:gpxtpx="http://www.garmin.com/xmlschemas/TrackPointExtension/v1">
            <gpxtpx:hr>122</gpxtpx:hr>
          </gpxtpx:TrackPointExtension>
        </extensions>
      </trkpt>
      <trkpt lat="48.72459" lon="1.79959">
        <ele>178.8</ele>
        <time>2026-01-31T11:03:18Z</time>
        <extensions>
          <gpxtpx:TrackPointExtension xmlns:gpxtpx="http://www.garmin.com/xmlschemas/TrackPointExtension/v1">
            <gpxtpx:hr>122</gpxtpx:hr>
          </gpxtpx:TrackPointExtension>
        </extensions>
      </trkpt>
      <trkpt lat="48.72463" lon="1.79962">
        <ele>178.8</ele>
        <time>2026-01-31T11:03:19Z</time>
        <extensions>
          <gpxtpx:TrackPointExtension xmlns:gpxtpx="http://www.garmin.com/xmlschemas/TrackPointExtension/v1">
            <gpxtpx:hr>122</gpxtpx:hr>
          </gpxtpx:TrackPointExtension>
        </extensions>
      </trkpt>
      <trkpt lat="48.72467" lon="1.79964">
        <ele>178.6</ele>
        <time>2026-01-31T11:03:20Z</time>
        <extensions>
          <gpxtpx:TrackPointExtension xmlns:gpxtpx="http://www.garmin.com/xmlschemas/TrackPointExtension/v1">
            <gpxtpx:hr>122</gpxtpx:hr>
          </gpxtpx:TrackPointExtension>
        </extensions>
      </trkpt>
      <trkpt lat="48.72471" lon="1.79967">
        <ele>178.4</ele>
        <time>2026-01-31T11:03:21Z</time>
        <extensions>
          <gpxtpx:TrackPointExtension xmlns:gpxtpx="http://www.garmin.com/xmlschemas/TrackPointExtension/v1">
            <gpxtpx:hr>122</gpxtpx:hr>
          </gpxtpx:TrackPointExtension>
        </extensions>
      </trkpt>
      <trkpt lat="48.72475" lon="1.7997">
        <ele>178.2</ele>
        <time>2026-01-31T11:03:22Z</time>
        <extensions>
          <gpxtpx:TrackPointExtension xmlns:gpxtpx="http://www.garmin.com/xmlschemas/TrackPointExtension/v1">
            <gpxtpx:hr>121</gpxtpx:hr>
          </gpxtpx:TrackPointExtension>
        </extensions>
      </trkpt>
      <trkpt lat="48.72479" lon="1.79973">
        <ele>178.2</ele>
        <time>2026-01-31T11:03:23Z</time>
        <extensions>
          <gpxtpx:TrackPointExtension xmlns:gpxtpx="http://www.garmin.com/xmlschemas/TrackPointExtension/v1">
            <gpxtpx:hr>121</gpxtpx:hr>
          </gpxtpx:TrackPointExtension>
        </extensions>
      </trkpt>
      <trkpt lat="48.72482" lon="1.79975">
        <ele>178</ele>
        <time>2026-01-31T11:03:24Z</time>
        <extensions>
          <gpxtpx:TrackPointExtension xmlns:gpxtpx="http://www.garmin.com/xmlschemas/TrackPointExtension/v1">
            <gpxtpx:hr>121</gpxtpx:hr>
          </gpxtpx:TrackPointExtension>
        </extensions>
      </trkpt>
      <trkpt lat="48.72486" lon="1.79978">
        <ele>177.8</ele>
        <time>2026-01-31T11:03:25Z</time>
        <extensions>
          <gpxtpx:TrackPointExtension xmlns:gpxtpx="http://www.garmin.com/xmlschemas/TrackPointExtension/v1">
            <gpxtpx:hr>121</gpxtpx:hr>
          </gpxtpx:TrackPointExtension>
        </extensions>
      </trkpt>
      <trkpt lat="48.7249" lon="1.79981">
        <ele>177.8</ele>
        <time>2026-01-31T11:03:26Z</time>
        <extensions>
          <gpxtpx:TrackPointExtension xmlns:gpxtpx="http://www.garmin.com/xmlschemas/TrackPointExtension/v1">
            <gpxtpx:hr>120</gpxtpx:hr>
          </gpxtpx:TrackPointExtension>
        </extensions>
      </trkpt>
      <trkpt lat="48.72493" lon="1.79983">
        <ele>177.6</ele>
        <time>2026-01-31T11:03:27Z</time>
        <extensions>
          <gpxtpx:TrackPointExtension xmlns:gpxtpx="http://www.garmin.com/xmlschemas/TrackPointExtension/v1">
            <gpxtpx:hr>120</gpxtpx:hr>
          </gpxtpx:TrackPointExtension>
        </extensions>
      </trkpt>
      <trkpt lat="48.72496" lon="1.79986">
        <ele>177.6</ele>
        <time>2026-01-31T11:03:28Z</time>
        <extensions>
          <gpxtpx:TrackPointExtension xmlns:gpxtpx="http://www.garmin.com/xmlschemas/TrackPointExtension/v1">
            <gpxtpx:hr>120</gpxtpx:hr>
          </gpxtpx:TrackPointExtension>
        </extensions>
      </trkpt>
      <trkpt lat="48.725" lon="1.79988">
        <ele>177.4</ele>
        <time>2026-01-31T11:03:29Z</time>
        <extensions>
          <gpxtpx:TrackPointExtension xmlns:gpxtpx="http://www.garmin.com/xmlschemas/TrackPointExtension/v1">
            <gpxtpx:hr>120</gpxtpx:hr>
          </gpxtpx:TrackPointExtension>
        </extensions>
      </trkpt>
      <trkpt lat="48.72503" lon="1.7999">
        <ele>177.4</ele>
        <time>2026-01-31T11:03:30Z</time>
        <extensions>
          <gpxtpx:TrackPointExtension xmlns:gpxtpx="http://www.garmin.com/xmlschemas/TrackPointExtension/v1">
            <gpxtpx:hr>120</gpxtpx:hr>
          </gpxtpx:TrackPointExtension>
        </extensions>
      </trkpt>
      <trkpt lat="48.72506" lon="1.79992">
        <ele>177.2</ele>
        <time>2026-01-31T11:03:31Z</time>
        <extensions>
          <gpxtpx:TrackPointExtension xmlns:gpxtpx="http://www.garmin.com/xmlschemas/TrackPointExtension/v1">
            <gpxtpx:hr>120</gpxtpx:hr>
          </gpxtpx:TrackPointExtension>
        </extensions>
      </trkpt>
      <trkpt lat="48.72509" lon="1.79995">
        <ele>177</ele>
        <time>2026-01-31T11:03:32Z</time>
        <extensions>
          <gpxtpx:TrackPointExtension xmlns:gpxtpx="http://www.garmin.com/xmlschemas/TrackPointExtension/v1">
            <gpxtpx:hr>120</gpxtpx:hr>
          </gpxtpx:TrackPointExtension>
        </extensions>
      </trkpt>
      <trkpt lat="48.72512" lon="1.79997">
        <ele>177</ele>
        <time>2026-01-31T11:03:33Z</time>
        <extensions>
          <gpxtpx:TrackPointExtension xmlns:gpxtpx="http://www.garmin.com/xmlschemas/TrackPointExtension/v1">
            <gpxtpx:hr>120</gpxtpx:hr>
          </gpxtpx:TrackPointExtension>
        </extensions>
      </trkpt>
      <trkpt lat="48.72515" lon="1.8">
        <ele>176.8</ele>
        <time>2026-01-31T11:03:34Z</time>
        <extensions>
          <gpxtpx:TrackPointExtension xmlns:gpxtpx="http://www.garmin.com/xmlschemas/TrackPointExtension/v1">
            <gpxtpx:hr>120</gpxtpx:hr>
          </gpxtpx:TrackPointExtension>
        </extensions>
      </trkpt>
      <trkpt lat="48.72518" lon="1.80002">
        <ele>176.6</ele>
        <time>2026-01-31T11:03:35Z</time>
        <extensions>
          <gpxtpx:TrackPointExtension xmlns:gpxtpx="http://www.garmin.com/xmlschemas/TrackPointExtension/v1">
            <gpxtpx:hr>120</gpxtpx:hr>
          </gpxtpx:TrackPointExtension>
        </extensions>
      </trkpt>
      <trkpt lat="48.72521" lon="1.80005">
        <ele>176.4</ele>
        <time>2026-01-31T11:03:36Z</time>
        <extensions>
          <gpxtpx:TrackPointExtension xmlns:gpxtpx="http://www.garmin.com/xmlschemas/TrackPointExtension/v1">
            <gpxtpx:hr>120</gpxtpx:hr>
          </gpxtpx:TrackPointExtension>
        </extensions>
      </trkpt>
      <trkpt lat="48.72524" lon="1.80007">
        <ele>176.4</ele>
        <time>2026-01-31T11:03:37Z</time>
        <extensions>
          <gpxtpx:TrackPointExtension xmlns:gpxtpx="http://www.garmin.com/xmlschemas/TrackPointExtension/v1">
            <gpxtpx:hr>120</gpxtpx:hr>
          </gpxtpx:TrackPointExtension>
        </extensions>
      </trkpt>
      <trkpt lat="48.72527" lon="1.80009">
        <ele>176.2</ele>
        <time>2026-01-31T11:03:38Z</time>
        <extensions>
          <gpxtpx:TrackPointExtension xmlns:gpxtpx="http://www.garmin.com/xmlschemas/TrackPointExtension/v1">
            <gpxtpx:hr>120</gpxtpx:hr>
          </gpxtpx:TrackPointExtension>
        </extensions>
      </trkpt>
      <trkpt lat="48.7253" lon="1.8001">
        <ele>176</ele>
        <time>2026-01-31T11:03:39Z</time>
        <extensions>
          <gpxtpx:TrackPointExtension xmlns:gpxtpx="http://www.garmin.com/xmlschemas/TrackPointExtension/v1">
            <gpxtpx:hr>120</gpxtpx:hr>
          </gpxtpx:TrackPointExtension>
        </extensions>
      </trkpt>
      <trkpt lat="48.72533" lon="1.80012">
        <ele>176</ele>
        <time>2026-01-31T11:03:40Z</time>
        <extensions>
          <gpxtpx:TrackPointExtension xmlns:gpxtpx="http://www.garmin.com/xmlschemas/TrackPointExtension/v1">
            <gpxtpx:hr>120</gpxtpx:hr>
          </gpxtpx:TrackPointExtension>
        </extensions>
      </trkpt>
      <trkpt lat="48.72537" lon="1.80014">
        <ele>175.8</ele>
        <time>2026-01-31T11:03:41Z</time>
        <extensions>
          <gpxtpx:TrackPointExtension xmlns:gpxtpx="http://www.garmin.com/xmlschemas/TrackPointExtension/v1">
            <gpxtpx:hr>120</gpxtpx:hr>
          </gpxtpx:TrackPointExtension>
        </extensions>
      </trkpt>
      <trkpt lat="48.7254" lon="1.80016">
        <ele>175.8</ele>
        <time>2026-01-31T11:03:42Z</time>
        <extensions>
          <gpxtpx:TrackPointExtension xmlns:gpxtpx="http://www.garmin.com/xmlschemas/TrackPointExtension/v1">
            <gpxtpx:hr>120</gpxtpx:hr>
          </gpxtpx:TrackPointExtension>
        </extensions>
      </trkpt>
      <trkpt lat="48.72543" lon="1.80019">
        <ele>175.6</ele>
        <time>2026-01-31T11:03:43Z</time>
        <extensions>
          <gpxtpx:TrackPointExtension xmlns:gpxtpx="http://www.garmin.com/xmlschemas/TrackPointExtension/v1">
            <gpxtpx:hr>120</gpxtpx:hr>
          </gpxtpx:TrackPointExtension>
        </extensions>
      </trkpt>
      <trkpt lat="48.72546" lon="1.80021">
        <ele>175.4</ele>
        <time>2026-01-31T11:03:44Z</time>
        <extensions>
          <gpxtpx:TrackPointExtension xmlns:gpxtpx="http://www.garmin.com/xmlschemas/TrackPointExtension/v1">
            <gpxtpx:hr>120</gpxtpx:hr>
          </gpxtpx:TrackPointExtension>
        </extensions>
      </trkpt>
      <trkpt lat="48.72549" lon="1.80023">
        <ele>175.4</ele>
        <time>2026-01-31T11:03:45Z</time>
        <extensions>
          <gpxtpx:TrackPointExtension xmlns:gpxtpx="http://www.garmin.com/xmlschemas/TrackPointExtension/v1">
            <gpxtpx:hr>120</gpxtpx:hr>
          </gpxtpx:TrackPointExtension>
        </extensions>
      </trkpt>
      <trkpt lat="48.72552" lon="1.80025">
        <ele>175.2</ele>
        <time>2026-01-31T11:03:46Z</time>
        <extensions>
          <gpxtpx:TrackPointExtension xmlns:gpxtpx="http://www.garmin.com/xmlschemas/TrackPointExtension/v1">
            <gpxtpx:hr>120</gpxtpx:hr>
          </gpxtpx:TrackPointExtension>
        </extensions>
      </trkpt>
      <trkpt lat="48.72555" lon="1.80027">
        <ele>175.2</ele>
        <time>2026-01-31T11:03:47Z</time>
        <extensions>
          <gpxtpx:TrackPointExtension xmlns:gpxtpx="http://www.garmin.com/xmlschemas/TrackPointExtension/v1">
            <gpxtpx:hr>121</gpxtpx:hr>
          </gpxtpx:TrackPointExtension>
        </extensions>
      </trkpt>
      <trkpt lat="48.72558" lon="1.80029">
        <ele>175</ele>
        <time>2026-01-31T11:03:48Z</time>
        <extensions>
          <gpxtpx:TrackPointExtension xmlns:gpxtpx="http://www.garmin.com/xmlschemas/TrackPointExtension/v1">
            <gpxtpx:hr>120</gpxtpx:hr>
          </gpxtpx:TrackPointExtension>
        </extensions>
      </trkpt>
      <trkpt lat="48.72561" lon="1.80031">
        <ele>175</ele>
        <time>2026-01-31T11:03:49Z</time>
        <extensions>
          <gpxtpx:TrackPointExtension xmlns:gpxtpx="http://www.garmin.com/xmlschemas/TrackPointExtension/v1">
            <gpxtpx:hr>120</gpxtpx:hr>
          </gpxtpx:TrackPointExtension>
        </extensions>
      </trkpt>
      <trkpt lat="48.72564" lon="1.80033">
        <ele>174.8</ele>
        <time>2026-01-31T11:03:50Z</time>
        <extensions>
          <gpxtpx:TrackPointExtension xmlns:gpxtpx="http://www.garmin.com/xmlschemas/TrackPointExtension/v1">
            <gpxtpx:hr>120</gpxtpx:hr>
          </gpxtpx:TrackPointExtension>
        </extensions>
      </trkpt>
      <trkpt lat="48.72567" lon="1.80035">
        <ele>174.8</ele>
        <time>2026-01-31T11:03:51Z</time>
        <extensions>
          <gpxtpx:TrackPointExtension xmlns:gpxtpx="http://www.garmin.com/xmlschemas/TrackPointExtension/v1">
            <gpxtpx:hr>120</gpxtpx:hr>
          </gpxtpx:TrackPointExtension>
        </extensions>
      </trkpt>
      <trkpt lat="48.7257" lon="1.80037">
        <ele>174.6</ele>
        <time>2026-01-31T11:03:52Z</time>
        <extensions>
          <gpxtpx:TrackPointExtension xmlns:gpxtpx="http://www.garmin.com/xmlschemas/TrackPointExtension/v1">
            <gpxtpx:hr>120</gpxtpx:hr>
          </gpxtpx:TrackPointExtension>
        </extensions>
      </trkpt>
      <trkpt lat="48.72573" lon="1.80039">
        <ele>174.4</ele>
        <time>2026-01-31T11:03:53Z</time>
        <extensions>
          <gpxtpx:TrackPointExtension xmlns:gpxtpx="http://www.garmin.com/xmlschemas/TrackPointExtension/v1">
            <gpxtpx:hr>120</gpxtpx:hr>
          </gpxtpx:TrackPointExtension>
        </extensions>
      </trkpt>
      <trkpt lat="48.72576" lon="1.80042">
        <ele>174.2</ele>
        <time>2026-01-31T11:03:54Z</time>
        <extensions>
          <gpxtpx:TrackPointExtension xmlns:gpxtpx="http://www.garmin.com/xmlschemas/TrackPointExtension/v1">
            <gpxtpx:hr>120</gpxtpx:hr>
          </gpxtpx:TrackPointExtension>
        </extensions>
      </trkpt>
      <trkpt lat="48.72579" lon="1.80044">
        <ele>174.2</ele>
        <time>2026-01-31T11:03:55Z</time>
        <extensions>
          <gpxtpx:TrackPointExtension xmlns:gpxtpx="http://www.garmin.com/xmlschemas/TrackPointExtension/v1">
            <gpxtpx:hr>120</gpxtpx:hr>
          </gpxtpx:TrackPointExtension>
        </extensions>
      </trkpt>
      <trkpt lat="48.72582" lon="1.80047">
        <ele>174</ele>
        <time>2026-01-31T11:03:56Z</time>
        <extensions>
          <gpxtpx:TrackPointExtension xmlns:gpxtpx="http://www.garmin.com/xmlschemas/TrackPointExtension/v1">
            <gpxtpx:hr>120</gpxtpx:hr>
          </gpxtpx:TrackPointExtension>
        </extensions>
      </trkpt>
      <trkpt lat="48.72585" lon="1.80049">
        <ele>174</ele>
        <time>2026-01-31T11:03:57Z</time>
        <extensions>
          <gpxtpx:TrackPointExtension xmlns:gpxtpx="http://www.garmin.com/xmlschemas/TrackPointExtension/v1">
            <gpxtpx:hr>120</gpxtpx:hr>
          </gpxtpx:TrackPointExtension>
        </extensions>
      </trkpt>
      <trkpt lat="48.72587" lon="1.80051">
        <ele>173.8</ele>
        <time>2026-01-31T11:03:58Z</time>
        <extensions>
          <gpxtpx:TrackPointExtension xmlns:gpxtpx="http://www.garmin.com/xmlschemas/TrackPointExtension/v1">
            <gpxtpx:hr>120</gpxtpx:hr>
          </gpxtpx:TrackPointExtension>
        </extensions>
      </trkpt>
      <trkpt lat="48.7259" lon="1.80053">
        <ele>173.8</ele>
        <time>2026-01-31T11:03:59Z</time>
        <extensions>
          <gpxtpx:TrackPointExtension xmlns:gpxtpx="http://www.garmin.com/xmlschemas/TrackPointExtension/v1">
            <gpxtpx:hr>120</gpxtpx:hr>
          </gpxtpx:TrackPointExtension>
        </extensions>
      </trkpt>
      <trkpt lat="48.72592" lon="1.80054">
        <ele>173.8</ele>
        <time>2026-01-31T11:04:00Z</time>
        <extensions>
          <gpxtpx:TrackPointExtension xmlns:gpxtpx="http://www.garmin.com/xmlschemas/TrackPointExtension/v1">
            <gpxtpx:hr>120</gpxtpx:hr>
          </gpxtpx:TrackPointExtension>
        </extensions>
      </trkpt>
      <trkpt lat="48.72595" lon="1.80056">
        <ele>173.8</ele>
        <time>2026-01-31T11:04:01Z</time>
        <extensions>
          <gpxtpx:TrackPointExtension xmlns:gpxtpx="http://www.garmin.com/xmlschemas/TrackPointExtension/v1">
            <gpxtpx:hr>120</gpxtpx:hr>
          </gpxtpx:TrackPointExtension>
        </extensions>
      </trkpt>
      <trkpt lat="48.72597" lon="1.80057">
        <ele>173.8</ele>
        <time>2026-01-31T11:04:02Z</time>
        <extensions>
          <gpxtpx:TrackPointExtension xmlns:gpxtpx="http://www.garmin.com/xmlschemas/TrackPointExtension/v1">
            <gpxtpx:hr>120</gpxtpx:hr>
          </gpxtpx:TrackPointExtension>
        </extensions>
      </trkpt>
      <trkpt lat="48.72599" lon="1.80059">
        <ele>173.8</ele>
        <time>2026-01-31T11:04:03Z</time>
        <extensions>
          <gpxtpx:TrackPointExtension xmlns:gpxtpx="http://www.garmin.com/xmlschemas/TrackPointExtension/v1">
            <gpxtpx:hr>120</gpxtpx:hr>
          </gpxtpx:TrackPointExtension>
        </extensions>
      </trkpt>
      <trkpt lat="48.72601" lon="1.8006">
        <ele>173.8</ele>
        <time>2026-01-31T11:04:04Z</time>
        <extensions>
          <gpxtpx:TrackPointExtension xmlns:gpxtpx="http://www.garmin.com/xmlschemas/TrackPointExtension/v1">
            <gpxtpx:hr>121</gpxtpx:hr>
          </gpxtpx:TrackPointExtension>
        </extensions>
      </trkpt>
      <trkpt lat="48.72603" lon="1.80062">
        <ele>173.8</ele>
        <time>2026-01-31T11:04:05Z</time>
        <extensions>
          <gpxtpx:TrackPointExtension xmlns:gpxtpx="http://www.garmin.com/xmlschemas/TrackPointExtension/v1">
            <gpxtpx:hr>121</gpxtpx:hr>
          </gpxtpx:TrackPointExtension>
        </extensions>
      </trkpt>
      <trkpt lat="48.72605" lon="1.80063">
        <ele>174</ele>
        <time>2026-01-31T11:04:06Z</time>
        <extensions>
          <gpxtpx:TrackPointExtension xmlns:gpxtpx="http://www.garmin.com/xmlschemas/TrackPointExtension/v1">
            <gpxtpx:hr>121</gpxtpx:hr>
          </gpxtpx:TrackPointExtension>
        </extensions>
      </trkpt>
      <trkpt lat="48.72607" lon="1.80065">
        <ele>174</ele>
        <time>2026-01-31T11:04:07Z</time>
        <extensions>
          <gpxtpx:TrackPointExtension xmlns:gpxtpx="http://www.garmin.com/xmlschemas/TrackPointExtension/v1">
            <gpxtpx:hr>121</gpxtpx:hr>
          </gpxtpx:TrackPointExtension>
        </extensions>
      </trkpt>
      <trkpt lat="48.72609" lon="1.80066">
        <ele>174</ele>
        <time>2026-01-31T11:04:08Z</time>
        <extensions>
          <gpxtpx:TrackPointExtension xmlns:gpxtpx="http://www.garmin.com/xmlschemas/TrackPointExtension/v1">
            <gpxtpx:hr>121</gpxtpx:hr>
          </gpxtpx:TrackPointExtension>
        </extensions>
      </trkpt>
      <trkpt lat="48.72612" lon="1.80067">
        <ele>174.2</ele>
        <time>2026-01-31T11:04:09Z</time>
        <extensions>
          <gpxtpx:TrackPointExtension xmlns:gpxtpx="http://www.garmin.com/xmlschemas/TrackPointExtension/v1">
            <gpxtpx:hr>121</gpxtpx:hr>
          </gpxtpx:TrackPointExtension>
        </extensions>
      </trkpt>
      <trkpt lat="48.72614" lon="1.80068">
        <ele>174.2</ele>
        <time>2026-01-31T11:04:10Z</time>
        <extensions>
          <gpxtpx:TrackPointExtension xmlns:gpxtpx="http://www.garmin.com/xmlschemas/TrackPointExtension/v1">
            <gpxtpx:hr>121</gpxtpx:hr>
          </gpxtpx:TrackPointExtension>
        </extensions>
      </trkpt>
      <trkpt lat="48.72616" lon="1.80069">
        <ele>174.4</ele>
        <time>2026-01-31T11:04:11Z</time>
        <extensions>
          <gpxtpx:TrackPointExtension xmlns:gpxtpx="http://www.garmin.com/xmlschemas/TrackPointExtension/v1">
            <gpxtpx:hr>121</gpxtpx:hr>
          </gpxtpx:TrackPointExtension>
        </extensions>
      </trkpt>
      <trkpt lat="48.72619" lon="1.80071">
        <ele>174.4</ele>
        <time>2026-01-31T11:04:12Z</time>
        <extensions>
          <gpxtpx:TrackPointExtension xmlns:gpxtpx="http://www.garmin.com/xmlschemas/TrackPointExtension/v1">
            <gpxtpx:hr>121</gpxtpx:hr>
          </gpxtpx:TrackPointExtension>
        </extensions>
      </trkpt>
      <trkpt lat="48.72622" lon="1.80073">
        <ele>174.4</ele>
        <time>2026-01-31T11:04:13Z</time>
        <extensions>
          <gpxtpx:TrackPointExtension xmlns:gpxtpx="http://www.garmin.com/xmlschemas/TrackPointExtension/v1">
            <gpxtpx:hr>121</gpxtpx:hr>
          </gpxtpx:TrackPointExtension>
        </extensions>
      </trkpt>
      <trkpt lat="48.72625" lon="1.80075">
        <ele>174.4</ele>
        <time>2026-01-31T11:04:14Z</time>
        <extensions>
          <gpxtpx:TrackPointExtension xmlns:gpxtpx="http://www.garmin.com/xmlschemas/TrackPointExtension/v1">
            <gpxtpx:hr>121</gpxtpx:hr>
          </gpxtpx:TrackPointExtension>
        </extensions>
      </trkpt>
      <trkpt lat="48.72628" lon="1.80076">
        <ele>174.4</ele>
        <time>2026-01-31T11:04:15Z</time>
        <extensions>
          <gpxtpx:TrackPointExtension xmlns:gpxtpx="http://www.garmin.com/xmlschemas/TrackPointExtension/v1">
            <gpxtpx:hr>121</gpxtpx:hr>
          </gpxtpx:TrackPointExtension>
        </extensions>
      </trkpt>
      <trkpt lat="48.72631" lon="1.80078">
        <ele>174.4</ele>
        <time>2026-01-31T11:04:16Z</time>
        <extensions>
          <gpxtpx:TrackPointExtension xmlns:gpxtpx="http://www.garmin.com/xmlschemas/TrackPointExtension/v1">
            <gpxtpx:hr>121</gpxtpx:hr>
          </gpxtpx:TrackPointExtension>
        </extensions>
      </trkpt>
      <trkpt lat="48.72634" lon="1.8008">
        <ele>174.4</ele>
        <time>2026-01-31T11:04:17Z</time>
        <extensions>
          <gpxtpx:TrackPointExtension xmlns:gpxtpx="http://www.garmin.com/xmlschemas/TrackPointExtension/v1">
            <gpxtpx:hr>121</gpxtpx:hr>
          </gpxtpx:TrackPointExtension>
        </extensions>
      </trkpt>
      <trkpt lat="48.72637" lon="1.80081">
        <ele>174.2</ele>
        <time>2026-01-31T11:04:18Z</time>
        <extensions>
          <gpxtpx:TrackPointExtension xmlns:gpxtpx="http://www.garmin.com/xmlschemas/TrackPointExtension/v1">
            <gpxtpx:hr>121</gpxtpx:hr>
          </gpxtpx:TrackPointExtension>
        </extensions>
      </trkpt>
      <trkpt lat="48.72639" lon="1.80083">
        <ele>174.2</ele>
        <time>2026-01-31T11:04:19Z</time>
        <extensions>
          <gpxtpx:TrackPointExtension xmlns:gpxtpx="http://www.garmin.com/xmlschemas/TrackPointExtension/v1">
            <gpxtpx:hr>121</gpxtpx:hr>
          </gpxtpx:TrackPointExtension>
        </extensions>
      </trkpt>
      <trkpt lat="48.72643" lon="1.80084">
        <ele>174.2</ele>
        <time>2026-01-31T11:04:20Z</time>
        <extensions>
          <gpxtpx:TrackPointExtension xmlns:gpxtpx="http://www.garmin.com/xmlschemas/TrackPointExtension/v1">
            <gpxtpx:hr>121</gpxtpx:hr>
          </gpxtpx:TrackPointExtension>
        </extensions>
      </trkpt>
      <trkpt lat="48.72645" lon="1.80086">
        <ele>174.2</ele>
        <time>2026-01-31T11:04:21Z</time>
        <extensions>
          <gpxtpx:TrackPointExtension xmlns:gpxtpx="http://www.garmin.com/xmlschemas/TrackPointExtension/v1">
            <gpxtpx:hr>121</gpxtpx:hr>
          </gpxtpx:TrackPointExtension>
        </extensions>
      </trkpt>
      <trkpt lat="48.72647" lon="1.80087">
        <ele>174.2</ele>
        <time>2026-01-31T11:04:22Z</time>
        <extensions>
          <gpxtpx:TrackPointExtension xmlns:gpxtpx="http://www.garmin.com/xmlschemas/TrackPointExtension/v1">
            <gpxtpx:hr>121</gpxtpx:hr>
          </gpxtpx:TrackPointExtension>
        </extensions>
      </trkpt>
      <trkpt lat="48.72649" lon="1.80089">
        <ele>174.2</ele>
        <time>2026-01-31T11:04:23Z</time>
        <extensions>
          <gpxtpx:TrackPointExtension xmlns:gpxtpx="http://www.garmin.com/xmlschemas/TrackPointExtension/v1">
            <gpxtpx:hr>121</gpxtpx:hr>
          </gpxtpx:TrackPointExtension>
        </extensions>
      </trkpt>
      <trkpt lat="48.72651" lon="1.80091">
        <ele>174.2</ele>
        <time>2026-01-31T11:04:24Z</time>
        <extensions>
          <gpxtpx:TrackPointExtension xmlns:gpxtpx="http://www.garmin.com/xmlschemas/TrackPointExtension/v1">
            <gpxtpx:hr>121</gpxtpx:hr>
          </gpxtpx:TrackPointExtension>
        </extensions>
      </trkpt>
      <trkpt lat="48.72653" lon="1.80092">
        <ele>174</ele>
        <time>2026-01-31T11:04:25Z</time>
        <extensions>
          <gpxtpx:TrackPointExtension xmlns:gpxtpx="http://www.garmin.com/xmlschemas/TrackPointExtension/v1">
            <gpxtpx:hr>121</gpxtpx:hr>
          </gpxtpx:TrackPointExtension>
        </extensions>
      </trkpt>
      <trkpt lat="48.72654" lon="1.80093">
        <ele>174</ele>
        <time>2026-01-31T11:04:26Z</time>
        <extensions>
          <gpxtpx:TrackPointExtension xmlns:gpxtpx="http://www.garmin.com/xmlschemas/TrackPointExtension/v1">
            <gpxtpx:hr>121</gpxtpx:hr>
          </gpxtpx:TrackPointExtension>
        </extensions>
      </trkpt>
      <trkpt lat="48.72657" lon="1.80096">
        <ele>174</ele>
        <time>2026-01-31T11:04:28Z</time>
        <extensions>
          <gpxtpx:TrackPointExtension xmlns:gpxtpx="http://www.garmin.com/xmlschemas/TrackPointExtension/v1">
            <gpxtpx:hr>121</gpxtpx:hr>
          </gpxtpx:TrackPointExtension>
        </extensions>
      </trkpt>
      <trkpt lat="48.72659" lon="1.80098">
        <ele>174.2</ele>
        <time>2026-01-31T11:04:30Z</time>
        <extensions>
          <gpxtpx:TrackPointExtension xmlns:gpxtpx="http://www.garmin.com/xmlschemas/TrackPointExtension/v1">
            <gpxtpx:hr>120</gpxtpx:hr>
          </gpxtpx:TrackPointExtension>
        </extensions>
      </trkpt>
      <trkpt lat="48.72662" lon="1.80101">
        <ele>174.2</ele>
        <time>2026-01-31T11:04:32Z</time>
        <extensions>
          <gpxtpx:TrackPointExtension xmlns:gpxtpx="http://www.garmin.com/xmlschemas/TrackPointExtension/v1">
            <gpxtpx:hr>120</gpxtpx:hr>
          </gpxtpx:TrackPointExtension>
        </extensions>
      </trkpt>
      <trkpt lat="48.72665" lon="1.80102">
        <ele>174.2</ele>
        <time>2026-01-31T11:04:34Z</time>
        <extensions>
          <gpxtpx:TrackPointExtension xmlns:gpxtpx="http://www.garmin.com/xmlschemas/TrackPointExtension/v1">
            <gpxtpx:hr>120</gpxtpx:hr>
          </gpxtpx:TrackPointExtension>
        </extensions>
      </trkpt>
      <trkpt lat="48.72667" lon="1.80103">
        <ele>174.4</ele>
        <time>2026-01-31T11:04:35Z</time>
        <extensions>
          <gpxtpx:TrackPointExtension xmlns:gpxtpx="http://www.garmin.com/xmlschemas/TrackPointExtension/v1">
            <gpxtpx:hr>120</gpxtpx:hr>
          </gpxtpx:TrackPointExtension>
        </extensions>
      </trkpt>
      <trkpt lat="48.72669" lon="1.80104">
        <ele>174.6</ele>
        <time>2026-01-31T11:04:36Z</time>
        <extensions>
          <gpxtpx:TrackPointExtension xmlns:gpxtpx="http://www.garmin.com/xmlschemas/TrackPointExtension/v1">
            <gpxtpx:hr>119</gpxtpx:hr>
          </gpxtpx:TrackPointExtension>
        </extensions>
      </trkpt>
      <trkpt lat="48.72673" lon="1.80105">
        <ele>174.6</ele>
        <time>2026-01-31T11:04:38Z</time>
        <extensions>
          <gpxtpx:TrackPointExtension xmlns:gpxtpx="http://www.garmin.com/xmlschemas/TrackPointExtension/v1">
            <gpxtpx:hr>119</gpxtpx:hr>
          </gpxtpx:TrackPointExtension>
        </extensions>
      </trkpt>
      <trkpt lat="48.72675" lon="1.80106">
        <ele>174.6</ele>
        <time>2026-01-31T11:04:39Z</time>
        <extensions>
          <gpxtpx:TrackPointExtension xmlns:gpxtpx="http://www.garmin.com/xmlschemas/TrackPointExtension/v1">
            <gpxtpx:hr>119</gpxtpx:hr>
          </gpxtpx:TrackPointExtension>
        </extensions>
      </trkpt>
      <trkpt lat="48.72676" lon="1.80108">
        <ele>174.6</ele>
        <time>2026-01-31T11:04:40Z</time>
        <extensions>
          <gpxtpx:TrackPointExtension xmlns:gpxtpx="http://www.garmin.com/xmlschemas/TrackPointExtension/v1">
            <gpxtpx:hr>119</gpxtpx:hr>
          </gpxtpx:TrackPointExtension>
        </extensions>
      </trkpt>
      <trkpt lat="48.72678" lon="1.80109">
        <ele>174.6</ele>
        <time>2026-01-31T11:04:41Z</time>
        <extensions>
          <gpxtpx:TrackPointExtension xmlns:gpxtpx="http://www.garmin.com/xmlschemas/TrackPointExtension/v1">
            <gpxtpx:hr>119</gpxtpx:hr>
          </gpxtpx:TrackPointExtension>
        </extensions>
      </trkpt>
      <trkpt lat="48.7268" lon="1.8011">
        <ele>174.8</ele>
        <time>2026-01-31T11:04:42Z</time>
        <extensions>
          <gpxtpx:TrackPointExtension xmlns:gpxtpx="http://www.garmin.com/xmlschemas/TrackPointExtension/v1">
            <gpxtpx:hr>119</gpxtpx:hr>
          </gpxtpx:TrackPointExtension>
        </extensions>
      </trkpt>
      <trkpt lat="48.72683" lon="1.80112">
        <ele>175</ele>
        <time>2026-01-31T11:04:44Z</time>
        <extensions>
          <gpxtpx:TrackPointExtension xmlns:gpxtpx="http://www.garmin.com/xmlschemas/TrackPointExtension/v1">
            <gpxtpx:hr>119</gpxtpx:hr>
          </gpxtpx:TrackPointExtension>
        </extensions>
      </trkpt>
      <trkpt lat="48.72685" lon="1.80113">
        <ele>175</ele>
        <time>2026-01-31T11:04:45Z</time>
        <extensions>
          <gpxtpx:TrackPointExtension xmlns:gpxtpx="http://www.garmin.com/xmlschemas/TrackPointExtension/v1">
            <gpxtpx:hr>119</gpxtpx:hr>
          </gpxtpx:TrackPointExtension>
        </extensions>
      </trkpt>
      <trkpt lat="48.72687" lon="1.80113">
        <ele>175.2</ele>
        <time>2026-01-31T11:04:46Z</time>
        <extensions>
          <gpxtpx:TrackPointExtension xmlns:gpxtpx="http://www.garmin.com/xmlschemas/TrackPointExtension/v1">
            <gpxtpx:hr>119</gpxtpx:hr>
          </gpxtpx:TrackPointExtension>
        </extensions>
      </trkpt>
      <trkpt lat="48.7269" lon="1.80115">
        <ele>175.4</ele>
        <time>2026-01-31T11:04:48Z</time>
      </trkpt>
      <trkpt lat="48.72692" lon="1.80115">
        <ele>175.4</ele>
        <time>2026-01-31T11:04:49Z</time>
      </trkpt>
      <trkpt lat="48.72694" lon="1.80116">
        <ele>175.6</ele>
        <time>2026-01-31T11:04:50Z</time>
      </trkpt>
      <trkpt lat="48.72696" lon="1.80116">
        <ele>175.6</ele>
        <time>2026-01-31T11:04:51Z</time>
      </trkpt>
      <trkpt lat="48.72699" lon="1.80118">
        <ele>175.6</ele>
        <time>2026-01-31T11:04:53Z</time>
      </trkpt>
      <trkpt lat="48.72702" lon="1.8012">
        <ele>175.4</ele>
        <time>2026-01-31T11:04:55Z</time>
      </trkpt>
      <trkpt lat="48.72705" lon="1.80122">
        <ele>175.4</ele>
        <time>2026-01-31T11:04:57Z</time>
      </trkpt>
      <trkpt lat="48.72708" lon="1.80125">
        <ele>175.2</ele>
        <time>2026-01-31T11:04:59Z</time>
      </trkpt>
      <trkpt lat="48.7271" lon="1.80126">
        <ele>175</ele>
        <time>2026-01-31T11:05:00Z</time>
      </trkpt>
      <trkpt lat="48.72713" lon="1.80129">
        <ele>174.8</ele>
        <time>2026-01-31T11:05:02Z</time>
      </trkpt>
      <trkpt lat="48.72715" lon="1.80131">
        <ele>174.6</ele>
        <time>2026-01-31T11:05:03Z</time>
      </trkpt>
      <trkpt lat="48.72716" lon="1.80132">
        <ele>174.4</ele>
        <time>2026-01-31T11:05:04Z</time>
      </trkpt>
      <trkpt lat="48.72718" lon="1.80134">
        <ele>174.2</ele>
        <time>2026-01-31T11:05:05Z</time>
      </trkpt>
      <trkpt lat="48.7272" lon="1.80135">
        <ele>174</ele>
        <time>2026-01-31T11:05:06Z</time>
      </trkpt>
      <trkpt lat="48.72722" lon="1.80137">
        <ele>173.8</ele>
        <time>2026-01-31T11:05:07Z</time>
      </trkpt>
      <trkpt lat="48.72724" lon="1.80139">
        <ele>173.2</ele>
        <time>2026-01-31T11:05:09Z</time>
      </trkpt>
      <trkpt lat="48.72728" lon="1.80141">
        <ele>172.8</ele>
        <time>2026-01-31T11:05:11Z</time>
      </trkpt>
      <trkpt lat="48.72731" lon="1.80144">
        <ele>172.2</ele>
        <time>2026-01-31T11:05:13Z</time>
      </trkpt>
      <trkpt lat="48.72733" lon="1.80146">
        <ele>172</ele>
        <time>2026-01-31T11:05:15Z</time>
      </trkpt>
      <trkpt lat="48.72737" lon="1.80149">
        <ele>171.6</ele>
        <time>2026-01-31T11:05:17Z</time>
      </trkpt>
      <trkpt lat="48.72738" lon="1.8015">
        <ele>171.6</ele>
        <time>2026-01-31T11:05:18Z</time>
      </trkpt>
      <trkpt lat="48.72741" lon="1.80152">
        <ele>171.4</ele>
        <time>2026-01-31T11:05:20Z</time>
      </trkpt>
      <trkpt lat="48.72744" lon="1.80155">
        <ele>171.2</ele>
        <time>2026-01-31T11:05:22Z</time>
      </trkpt>
      <trkpt lat="48.72747" lon="1.80157">
        <ele>171.2</ele>
        <time>2026-01-31T11:05:24Z</time>
      </trkpt>
      <trkpt lat="48.7275" lon="1.80159">
        <ele>171</ele>
        <time>2026-01-31T11:05:26Z</time>
      </trkpt>
      <trkpt lat="48.72752" lon="1.80161">
        <ele>170.8</ele>
        <time>2026-01-31T11:05:28Z</time>
      </trkpt>
      <trkpt lat="48.72756" lon="1.80163">
        <ele>170.6</ele>
        <time>2026-01-31T11:05:30Z</time>
      </trkpt>
      <trkpt lat="48.72758" lon="1.80165">
        <ele>170.4</ele>
        <time>2026-01-31T11:05:32Z</time>
      </trkpt>
      <trkpt lat="48.7276" lon="1.80167">
        <ele>170.4</ele>
        <time>2026-01-31T11:05:34Z</time>
      </trkpt>
      <trkpt lat="48.72763" lon="1.80169">
        <ele>170.2</ele>
        <time>2026-01-31T11:05:36Z</time>
      </trkpt>
      <trkpt lat="48.72764" lon="1.80171">
        <ele>170</ele>
        <time>2026-01-31T11:05:38Z</time>
      </trkpt>
      <trkpt lat="48.72767" lon="1.80174">
        <ele>169.6</ele>
        <time>2026-01-31T11:05:40Z</time>
      </trkpt>
      <trkpt lat="48.7277" lon="1.80176">
        <ele>169.2</ele>
        <time>2026-01-31T11:05:42Z</time>
      </trkpt>
      <trkpt lat="48.72772" lon="1.80178">
        <ele>169</ele>
        <time>2026-01-31T11:05:44Z</time>
      </trkpt>
      <trkpt lat="48.72776" lon="1.8018">
        <ele>169</ele>
        <time>2026-01-31T11:05:46Z</time>
      </trkpt>
      <trkpt lat="48.72778" lon="1.8018">
        <ele>168.8</ele>
        <time>2026-01-31T11:05:47Z</time>
      </trkpt>
      <trkpt lat="48.7278" lon="1.80182">
        <ele>168.8</ele>
        <time>2026-01-31T11:05:49Z</time>
      </trkpt>
      <trkpt lat="48.72783" lon="1.80183">
        <ele>168.6</ele>
        <time>2026-01-31T11:05:51Z</time>
      </trkpt>
      <trkpt lat="48.72786" lon="1.80185">
        <ele>168.6</ele>
        <time>2026-01-31T11:05:53Z</time>
      </trkpt>
      <trkpt lat="48.72788" lon="1.80188">
        <ele>168.4</ele>
        <time>2026-01-31T11:05:55Z</time>
      </trkpt>
      <trkpt lat="48.7279" lon="1.8019">
        <ele>168.2</ele>
        <time>2026-01-31T11:05:57Z</time>
      </trkpt>
      <trkpt lat="48.72793" lon="1.80192">
        <ele>168.4</ele>
        <time>2026-01-31T11:05:59Z</time>
      </trkpt>
      <trkpt lat="48.72796" lon="1.80193">
        <ele>168.2</ele>
        <time>2026-01-31T11:06:01Z</time>
      </trkpt>
      <trkpt lat="48.72799" lon="1.80195">
        <ele>168.2</ele>
        <time>2026-01-31T11:06:03Z</time>
      </trkpt>
      <trkpt lat="48.72802" lon="1.80196">
        <ele>168</ele>
        <time>2026-01-31T11:06:05Z</time>
      </trkpt>
      <trkpt lat="48.72804" lon="1.80198">
        <ele>168.2</ele>
        <time>2026-01-31T11:06:07Z</time>
      </trkpt>
      <trkpt lat="48.72806" lon="1.80199">
        <ele>168.2</ele>
        <time>2026-01-31T11:06:09Z</time>
      </trkpt>
      <trkpt lat="48.72809" lon="1.802">
        <ele>168.2</ele>
        <time>2026-01-31T11:06:11Z</time>
      </trkpt>
      <trkpt lat="48.72812" lon="1.80201">
        <ele>168</ele>
        <time>2026-01-31T11:06:13Z</time>
      </trkpt>
      <trkpt lat="48.72814" lon="1.80203">
        <ele>167.8</ele>
        <time>2026-01-31T11:06:15Z</time>
      </trkpt>
      <trkpt lat="48.72817" lon="1.80206">
        <ele>168</ele>
        <time>2026-01-31T11:06:17Z</time>
      </trkpt>
      <trkpt lat="48.7282" lon="1.80208">
        <ele>168</ele>
        <time>2026-01-31T11:06:19Z</time>
      </trkpt>
      <trkpt lat="48.72822" lon="1.8021">
        <ele>168</ele>
        <time>2026-01-31T11:06:21Z</time>
      </trkpt>
      <trkpt lat="48.72825" lon="1.80212">
        <ele>168</ele>
        <time>2026-01-31T11:06:23Z</time>
      </trkpt>
      <trkpt lat="48.72827" lon="1.80214">
        <ele>168</ele>
        <time>2026-01-31T11:06:25Z</time>
      </trkpt>
      <trkpt lat="48.7283" lon="1.80216">
        <ele>168</ele>
        <time>2026-01-31T11:06:27Z</time>
      </trkpt>
      <trkpt lat="48.72832" lon="1.80218">
        <ele>167.8</ele>
        <time>2026-01-31T11:06:29Z</time>
      </trkpt>
      <trkpt lat="48.72835" lon="1.8022">
        <ele>167.8</ele>
        <time>2026-01-31T11:06:31Z</time>
      </trkpt>
      <trkpt lat="48.72837" lon="1.80222">
        <ele>167.6</ele>
        <time>2026-01-31T11:06:33Z</time>
      </trkpt>
      <trkpt lat="48.72839" lon="1.80224">
        <ele>167.6</ele>
        <time>2026-01-31T11:06:34Z</time>
      </trkpt>
      <trkpt lat="48.72842" lon="1.80226">
        <ele>167.4</ele>
        <time>2026-01-31T11:06:36Z</time>
      </trkpt>
      <trkpt lat="48.72844" lon="1.80228">
        <ele>167.4</ele>
        <time>2026-01-31T11:06:38Z</time>
      </trkpt>
      <trkpt lat="48.72847" lon="1.8023">
        <ele>167.2</ele>
        <time>2026-01-31T11:06:40Z</time>
      </trkpt>
      <trkpt lat="48.7285" lon="1.80232">
        <ele>167</ele>
        <time>2026-01-31T11:06:42Z</time>
      </trkpt>
      <trkpt lat="48.72853" lon="1.80234">
        <ele>166.8</ele>
        <time>2026-01-31T11:06:44Z</time>
      </trkpt>
      <trkpt lat="48.72855" lon="1.80236">
        <ele>166.6</ele>
        <time>2026-01-31T11:06:46Z</time>
      </trkpt>
      <trkpt lat="48.72858" lon="1.80238">
        <ele>166.4</ele>
        <time>2026-01-31T11:06:48Z</time>
      </trkpt>
      <trkpt lat="48.72861" lon="1.80239">
        <ele>166.2</ele>
        <time>2026-01-31T11:06:50Z</time>
      </trkpt>
      <trkpt lat="48.72864" lon="1.80241">
        <ele>166.2</ele>
        <time>2026-01-31T11:06:52Z</time>
      </trkpt>
      <trkpt lat="48.72867" lon="1.80242">
        <ele>166.2</ele>
        <time>2026-01-31T11:06:54Z</time>
      </trkpt>
      <trkpt lat="48.7287" lon="1.80244">
        <ele>166.2</ele>
        <time>2026-01-31T11:06:56Z</time>
      </trkpt>
      <trkpt lat="48.72873" lon="1.80246">
        <ele>166.2</ele>
        <time>2026-01-31T11:06:58Z</time>
      </trkpt>
      <trkpt lat="48.72875" lon="1.80247">
        <ele>166.2</ele>
        <time>2026-01-31T11:07:00Z</time>
      </trkpt>
      <trkpt lat="48.72877" lon="1.80249">
        <ele>166.2</ele>
        <time>2026-01-31T11:07:02Z</time>
      </trkpt>
      <trkpt lat="48.7288" lon="1.8025">
        <ele>166.2</ele>
        <time>2026-01-31T11:07:04Z</time>
      </trkpt>
      <trkpt lat="48.72882" lon="1.80252">
        <ele>166.2</ele>
        <time>2026-01-31T11:07:06Z</time>
      </trkpt>
      <trkpt lat="48.72884" lon="1.80254">
        <ele>166.2</ele>
        <time>2026-01-31T11:07:08Z</time>
      </trkpt>
      <trkpt lat="48.72887" lon="1.80256">
        <ele>166.4</ele>
        <time>2026-01-31T11:07:10Z</time>
      </trkpt>
      <trkpt lat="48.7289" lon="1.80257">
        <ele>166.2</ele>
        <time>2026-01-31T11:07:12Z</time>
      </trkpt>
      <trkpt lat="48.72892" lon="1.80259">
        <ele>166.2</ele>
        <time>2026-01-31T11:07:14Z</time>
      </trkpt>
      <trkpt lat="48.72895" lon="1.80261">
        <ele>166.2</ele>
        <time>2026-01-31T11:07:16Z</time>
      </trkpt>
      <trkpt lat="48.72898" lon="1.80263">
        <ele>166</ele>
        <time>2026-01-31T11:07:18Z</time>
      </trkpt>
      <trkpt lat="48.72901" lon="1.80265">
        <ele>166</ele>
        <time>2026-01-31T11:07:20Z</time>
      </trkpt>
      <trkpt lat="48.72904" lon="1.80266">
        <ele>166</ele>
        <time>2026-01-31T11:07:22Z</time>
      </trkpt>
      <trkpt lat="48.72907" lon="1.80268">
        <ele>166.2</ele>
        <time>2026-01-31T11:07:24Z</time>
      </trkpt>
      <trkpt lat="48.72909" lon="1.80269">
        <ele>166.6</ele>
        <time>2026-01-31T11:07:26Z</time>
      </trkpt>
      <trkpt lat="48.72911" lon="1.8027">
        <ele>166.8</ele>
        <time>2026-01-31T11:07:28Z</time>
      </trkpt>
      <trkpt lat="48.72914" lon="1.80271">
        <ele>167.4</ele>
        <time>2026-01-31T11:07:31Z</time>
      </trkpt>
      <trkpt lat="48.72916" lon="1.80271">
        <ele>169.8</ele>
        <time>2026-01-31T11:07:45Z</time>
      </trkpt>
      <trkpt lat="48.72918" lon="1.80271">
        <ele>170.6</ele>
        <time>2026-01-31T11:07:48Z</time>
      </trkpt>
      <trkpt lat="48.7292" lon="1.80272">
        <ele>171</ele>
        <time>2026-01-31T11:07:50Z</time>
      </trkpt>
      <trkpt lat="48.72923" lon="1.80273">
        <ele>171.4</ele>
        <time>2026-01-31T11:07:52Z</time>
      </trkpt>
      <trkpt lat="48.72924" lon="1.80274">
        <ele>171.8</ele>
        <time>2026-01-31T11:07:54Z</time>
      </trkpt>
      <trkpt lat="48.72926" lon="1.80275">
        <ele>172</ele>
        <time>2026-01-31T11:07:56Z</time>
      </trkpt>
      <trkpt lat="48.72928" lon="1.80276">
        <ele>172.2</ele>
        <time>2026-01-31T11:07:58Z</time>
      </trkpt>
      <trkpt lat="48.7293" lon="1.80277">
        <ele>172.6</ele>
        <time>2026-01-31T11:08:00Z</time>
      </trkpt>
      <trkpt lat="48.72932" lon="1.80279">
        <ele>172.6</ele>
        <time>2026-01-31T11:08:02Z</time>
      </trkpt>
      <trkpt lat="48.72935" lon="1.80281">
        <ele>172.6</ele>
        <time>2026-01-31T11:08:04Z</time>
      </trkpt>
      <trkpt lat="48.72937" lon="1.80282">
        <ele>172.8</ele>
        <time>2026-01-31T11:08:06Z</time>
      </trkpt>
      <trkpt lat="48.72939" lon="1.80285">
        <ele>172.8</ele>
        <time>2026-01-31T11:08:08Z</time>
      </trkpt>
      <trkpt lat="48.72942" lon="1.80287">
        <ele>172.8</ele>
        <time>2026-01-31T11:08:10Z</time>
      </trkpt>
      <trkpt lat="48.72944" lon="1.8029">
        <ele>172.6</ele>
        <time>2026-01-31T11:08:12Z</time>
      </trkpt>
      <trkpt lat="48.72947" lon="1.80292">
        <ele>172.6</ele>
        <time>2026-01-31T11:08:14Z</time>
      </trkpt>
      <trkpt lat="48.72949" lon="1.80294">
        <ele>172.6</ele>
        <time>2026-01-31T11:08:16Z</time>
      </trkpt>
      <trkpt lat="48.72951" lon="1.80295">
        <ele>172.8</ele>
        <time>2026-01-31T11:08:18Z</time>
      </trkpt>
      <trkpt lat="48.72953" lon="1.80296">
        <ele>172.8</ele>
        <time>2026-01-31T11:08:20Z</time>
      </trkpt>
      <trkpt lat="48.72956" lon="1.80298">
        <ele>172.8</ele>
        <time>2026-01-31T11:08:22Z</time>
      </trkpt>
      <trkpt lat="48.72959" lon="1.803">
        <ele>172.8</ele>
        <time>2026-01-31T11:08:24Z</time>
      </trkpt>
      <trkpt lat="48.72962" lon="1.80301">
        <ele>173</ele>
        <time>2026-01-31T11:08:26Z</time>
      </trkpt>
      <trkpt lat="48.72964" lon="1.80301">
        <ele>173.4</ele>
        <time>2026-01-31T11:08:28Z</time>
      </trkpt>
      <trkpt lat="48.72967" lon="1.80302">
        <ele>173.8</ele>
        <time>2026-01-31T11:08:30Z</time>
      </trkpt>
      <trkpt lat="48.72969" lon="1.80303">
        <ele>174.2</ele>
        <time>2026-01-31T11:08:32Z</time>
      </trkpt>
      <trkpt lat="48.72971" lon="1.80304">
        <ele>174.6</ele>
        <time>2026-01-31T11:08:34Z</time>
      </trkpt>
      <trkpt lat="48.72972" lon="1.80305">
        <ele>174.8</ele>
        <time>2026-01-31T11:08:36Z</time>
      </trkpt>
      <trkpt lat="48.72974" lon="1.80306">
        <ele>175</ele>
        <time>2026-01-31T11:08:38Z</time>
      </trkpt>
      <trkpt lat="48.72976" lon="1.80307">
        <ele>175.2</ele>
        <time>2026-01-31T11:08:40Z</time>
      </trkpt>
      <trkpt lat="48.72979" lon="1.80307">
        <ele>175.4</ele>
        <time>2026-01-31T11:08:42Z</time>
      </trkpt>
      <trkpt lat="48.72981" lon="1.80308">
        <ele>175.6</ele>
        <time>2026-01-31T11:08:43Z</time>
      </trkpt>
      <trkpt lat="48.72984" lon="1.80308">
        <ele>176</ele>
        <time>2026-01-31T11:08:45Z</time>
      </trkpt>
      <trkpt lat="48.72988" lon="1.80308">
        <ele>176.2</ele>
        <time>2026-01-31T11:08:47Z</time>
      </trkpt>
      <trkpt lat="48.7299" lon="1.80308">
        <ele>176.6</ele>
        <time>2026-01-31T11:08:49Z</time>
      </trkpt>
      <trkpt lat="48.72993" lon="1.8031">
        <ele>176.8</ele>
        <time>2026-01-31T11:08:52Z</time>
      </trkpt>
      <trkpt lat="48.72995" lon="1.80311">
        <ele>177</ele>
        <time>2026-01-31T11:08:54Z</time>
      </trkpt>
      <trkpt lat="48.72997" lon="1.80312">
        <ele>177.2</ele>
        <time>2026-01-31T11:08:56Z</time>
      </trkpt>
      <trkpt lat="48.73" lon="1.80313">
        <ele>177.4</ele>
        <time>2026-01-31T11:08:58Z</time>
      </trkpt>
      <trkpt lat="48.73002" lon="1.80314">
        <ele>177.8</ele>
        <time>2026-01-31T11:09:01Z</time>
      </trkpt>
      <trkpt lat="48.73004" lon="1.80314">
        <ele>178</ele>
        <time>2026-01-31T11:09:03Z</time>
      </trkpt>
      <trkpt lat="48.73006" lon="1.80316">
        <ele>178.6</ele>
        <time>2026-01-31T11:09:06Z</time>
      </trkpt>
      <trkpt lat="48.73009" lon="1.80317">
        <ele>179.4</ele>
        <time>2026-01-31T11:09:09Z</time>
      </trkpt>
      <trkpt lat="48.73011" lon="1.80318">
        <ele>179.8</ele>
        <time>2026-01-31T11:09:11Z</time>
      </trkpt>
      <trkpt lat="48.73013" lon="1.8032">
        <ele>180</ele>
        <time>2026-01-31T11:09:13Z</time>
      </trkpt>
      <trkpt lat="48.73016" lon="1.80324">
        <ele>179.8</ele>
        <time>2026-01-31T11:09:15Z</time>
      </trkpt>
      <trkpt lat="48.73018" lon="1.80326">
        <ele>179.6</ele>
        <time>2026-01-31T11:09:16Z</time>
      </trkpt>
      <trkpt lat="48.73019" lon="1.80328">
        <ele>179.6</ele>
        <time>2026-01-31T11:09:17Z</time>
      </trkpt>
      <trkpt lat="48.7302" lon="1.8033">
        <ele>179.4</ele>
        <time>2026-01-31T11:09:18Z</time>
      </trkpt>
      <trkpt lat="48.73022" lon="1.80332">
        <ele>179.4</ele>
        <time>2026-01-31T11:09:19Z</time>
      </trkpt>
      <trkpt lat="48.73024" lon="1.80333">
        <ele>179.4</ele>
        <time>2026-01-31T11:09:20Z</time>
      </trkpt>
      <trkpt lat="48.73027" lon="1.80336">
        <ele>179.2</ele>
        <time>2026-01-31T11:09:22Z</time>
      </trkpt>
      <trkpt lat="48.73029" lon="1.80337">
        <ele>179.2</ele>
        <time>2026-01-31T11:09:24Z</time>
      </trkpt>
      <trkpt lat="48.73031" lon="1.80339">
        <ele>179.2</ele>
        <time>2026-01-31T11:09:26Z</time>
      </trkpt>
      <trkpt lat="48.73034" lon="1.8034">
        <ele>179.4</ele>
        <time>2026-01-31T11:09:28Z</time>
      </trkpt>
      <trkpt lat="48.73036" lon="1.80341">
        <ele>179.6</ele>
        <time>2026-01-31T11:09:30Z</time>
      </trkpt>
      <trkpt lat="48.73038" lon="1.80343">
        <ele>179.6</ele>
        <time>2026-01-31T11:09:32Z</time>
      </trkpt>
      <trkpt lat="48.7304" lon="1.80345">
        <ele>179.8</ele>
        <time>2026-01-31T11:09:34Z</time>
      </trkpt>
      <trkpt lat="48.73042" lon="1.80347">
        <ele>179.6</ele>
        <time>2026-01-31T11:09:36Z</time>
      </trkpt>
      <trkpt lat="48.73044" lon="1.80349">
        <ele>179.4</ele>
        <time>2026-01-31T11:09:38Z</time>
      </trkpt>
      <trkpt lat="48.73046" lon="1.80351">
        <ele>179</ele>
        <time>2026-01-31T11:09:40Z</time>
      </trkpt>
      <trkpt lat="48.7305" lon="1.80353">
        <ele>178.6</ele>
        <time>2026-01-31T11:09:42Z</time>
      </trkpt>
      <trkpt lat="48.73052" lon="1.80355">
        <ele>178.2</ele>
        <time>2026-01-31T11:09:44Z</time>
      </trkpt>
      <trkpt lat="48.73055" lon="1.80357">
        <ele>177.8</ele>
        <time>2026-01-31T11:09:46Z</time>
      </trkpt>
      <trkpt lat="48.73057" lon="1.80359">
        <ele>177.6</ele>
        <time>2026-01-31T11:09:48Z</time>
      </trkpt>
      <trkpt lat="48.73059" lon="1.80361">
        <ele>177.4</ele>
        <time>2026-01-31T11:09:50Z</time>
      </trkpt>
      <trkpt lat="48.73061" lon="1.80363">
        <ele>177.2</ele>
        <time>2026-01-31T11:09:52Z</time>
      </trkpt>
      <trkpt lat="48.73063" lon="1.80365">
        <ele>177</ele>
        <time>2026-01-31T11:09:54Z</time>
      </trkpt>
      <trkpt lat="48.73066" lon="1.80368">
        <ele>176.6</ele>
        <time>2026-01-31T11:09:56Z</time>
      </trkpt>
      <trkpt lat="48.73068" lon="1.80371">
        <ele>176.4</ele>
        <time>2026-01-31T11:09:58Z</time>
      </trkpt>
      <trkpt lat="48.7307" lon="1.80374">
        <ele>176</ele>
        <time>2026-01-31T11:10:00Z</time>
      </trkpt>
      <trkpt lat="48.73073" lon="1.80376">
        <ele>175.6</ele>
        <time>2026-01-31T11:10:02Z</time>
      </trkpt>
      <trkpt lat="48.73075" lon="1.80378">
        <ele>175.4</ele>
        <time>2026-01-31T11:10:04Z</time>
      </trkpt>
      <trkpt lat="48.73077" lon="1.80379">
        <ele>175.4</ele>
        <time>2026-01-31T11:10:06Z</time>
      </trkpt>
      <trkpt lat="48.7308" lon="1.80381">
        <ele>175.4</ele>
        <time>2026-01-31T11:10:08Z</time>
      </trkpt>
      <trkpt lat="48.73082" lon="1.80382">
        <ele>175.6</ele>
        <time>2026-01-31T11:10:10Z</time>
      </trkpt>
      <trkpt lat="48.73085" lon="1.80383">
        <ele>175.6</ele>
        <time>2026-01-31T11:10:12Z</time>
      </trkpt>
      <trkpt lat="48.73086" lon="1.80385">
        <ele>175.8</ele>
        <time>2026-01-31T11:10:14Z</time>
      </trkpt>
      <trkpt lat="48.73088" lon="1.80386">
        <ele>175.8</ele>
        <time>2026-01-31T11:10:16Z</time>
      </trkpt>
      <trkpt lat="48.73091" lon="1.80388">
        <ele>175.8</ele>
        <time>2026-01-31T11:10:18Z</time>
      </trkpt>
      <trkpt lat="48.73094" lon="1.8039">
        <ele>176</ele>
        <time>2026-01-31T11:10:20Z</time>
      </trkpt>
      <trkpt lat="48.73098" lon="1.80391">
        <ele>176</ele>
        <time>2026-01-31T11:10:22Z</time>
      </trkpt>
      <trkpt lat="48.73101" lon="1.80393">
        <ele>176.2</ele>
        <time>2026-01-31T11:10:24Z</time>
      </trkpt>
      <trkpt lat="48.73103" lon="1.80395">
        <ele>176.2</ele>
        <time>2026-01-31T11:10:26Z</time>
      </trkpt>
      <trkpt lat="48.73105" lon="1.80398">
        <ele>176.4</ele>
        <time>2026-01-31T11:10:28Z</time>
      </trkpt>
      <trkpt lat="48.73107" lon="1.804">
        <ele>176.2</ele>
        <time>2026-01-31T11:10:30Z</time>
      </trkpt>
      <trkpt lat="48.73109" lon="1.80401">
        <ele>176.2</ele>
        <time>2026-01-31T11:10:31Z</time>
      </trkpt>
      <trkpt lat="48.73112" lon="1.80403">
        <ele>176.4</ele>
        <time>2026-01-31T11:10:33Z</time>
      </trkpt>
      <trkpt lat="48.73115" lon="1.80405">
        <ele>176.4</ele>
        <time>2026-01-31T11:10:35Z</time>
      </trkpt>
      <trkpt lat="48.73118" lon="1.80406">
        <ele>176.4</ele>
        <time>2026-01-31T11:10:37Z</time>
      </trkpt>
      <trkpt lat="48.73121" lon="1.80407">
        <ele>176.6</ele>
        <time>2026-01-31T11:10:39Z</time>
      </trkpt>
      <trkpt lat="48.73123" lon="1.80408">
        <ele>176.8</ele>
        <time>2026-01-31T11:10:41Z</time>
      </trkpt>
      <trkpt lat="48.73125" lon="1.80409">
        <ele>177</ele>
        <time>2026-01-31T11:10:43Z</time>
      </trkpt>
      <trkpt lat="48.73127" lon="1.80411">
        <ele>177.2</ele>
        <time>2026-01-31T11:10:45Z</time>
      </trkpt>
      <trkpt lat="48.73129" lon="1.80413">
        <ele>177.4</ele>
        <time>2026-01-31T11:10:47Z</time>
      </trkpt>
      <trkpt lat="48.73131" lon="1.80416">
        <ele>177.6</ele>
        <time>2026-01-31T11:10:49Z</time>
      </trkpt>
      <trkpt lat="48.73133" lon="1.80418">
        <ele>177.6</ele>
        <time>2026-01-31T11:10:51Z</time>
      </trkpt>
      <trkpt lat="48.73135" lon="1.80421">
        <ele>177.8</ele>
        <time>2026-01-31T11:10:53Z</time>
      </trkpt>
      <trkpt lat="48.73137" lon="1.80424">
        <ele>178</ele>
        <time>2026-01-31T11:10:55Z</time>
      </trkpt>
      <trkpt lat="48.73139" lon="1.80425">
        <ele>178</ele>
        <time>2026-01-31T11:10:56Z</time>
      </trkpt>
      <trkpt lat="48.73141" lon="1.80428">
        <ele>178.2</ele>
        <time>2026-01-31T11:10:58Z</time>
      </trkpt>
      <trkpt lat="48.73144" lon="1.8043">
        <ele>178.4</ele>
        <time>2026-01-31T11:11:00Z</time>
      </trkpt>
      <trkpt lat="48.73147" lon="1.80433">
        <ele>178.6</ele>
        <time>2026-01-31T11:11:02Z</time>
      </trkpt>
      <trkpt lat="48.7315" lon="1.80435">
        <ele>178.6</ele>
        <time>2026-01-31T11:11:04Z</time>
      </trkpt>
      <trkpt lat="48.73153" lon="1.80438">
        <ele>178.6</ele>
        <time>2026-01-31T11:11:06Z</time>
      </trkpt>
      <trkpt lat="48.73155" lon="1.80441">
        <ele>178.6</ele>
        <time>2026-01-31T11:11:08Z</time>
      </trkpt>
      <trkpt lat="48.73156" lon="1.80444">
        <ele>178.6</ele>
        <time>2026-01-31T11:11:10Z</time>
      </trkpt>
      <trkpt lat="48.73157" lon="1.80446">
        <ele>178.6</ele>
        <time>2026-01-31T11:11:12Z</time>
      </trkpt>
      <trkpt lat="48.73159" lon="1.80448">
        <ele>178.8</ele>
        <time>2026-01-31T11:11:14Z</time>
      </trkpt>
      <trkpt lat="48.73161" lon="1.80449">
        <ele>179</ele>
        <time>2026-01-31T11:11:16Z</time>
      </trkpt>
      <trkpt lat="48.73164" lon="1.80451">
        <ele>179</ele>
        <time>2026-01-31T11:11:18Z</time>
      </trkpt>
      <trkpt lat="48.73166" lon="1.80452">
        <ele>179.2</ele>
        <time>2026-01-31T11:11:20Z</time>
      </trkpt>
      <trkpt lat="48.73169" lon="1.80454">
        <ele>179.2</ele>
        <time>2026-01-31T11:11:22Z</time>
      </trkpt>
      <trkpt lat="48.73171" lon="1.80456">
        <ele>179.4</ele>
        <time>2026-01-31T11:11:24Z</time>
      </trkpt>
      <trkpt lat="48.73173" lon="1.80458">
        <ele>179.4</ele>
        <time>2026-01-31T11:11:26Z</time>
      </trkpt>
      <trkpt lat="48.73177" lon="1.8046">
        <ele>179.6</ele>
        <time>2026-01-31T11:11:28Z</time>
      </trkpt>
      <trkpt lat="48.7318" lon="1.80462">
        <ele>179.8</ele>
        <time>2026-01-31T11:11:30Z</time>
      </trkpt>
      <trkpt lat="48.73181" lon="1.80464">
        <ele>179.8</ele>
        <time>2026-01-31T11:11:31Z</time>
      </trkpt>
      <trkpt lat="48.73183" lon="1.80466">
        <ele>179.8</ele>
        <time>2026-01-31T11:11:33Z</time>
      </trkpt>
      <trkpt lat="48.73186" lon="1.80467">
        <ele>180</ele>
        <time>2026-01-31T11:11:35Z</time>
      </trkpt>
      <trkpt lat="48.73189" lon="1.80469">
        <ele>180.2</ele>
        <time>2026-01-31T11:11:37Z</time>
      </trkpt>
      <trkpt lat="48.73191" lon="1.8047">
        <ele>180.2</ele>
        <time>2026-01-31T11:11:38Z</time>
      </trkpt>
      <trkpt lat="48.73194" lon="1.80472">
        <ele>180.4</ele>
        <time>2026-01-31T11:11:40Z</time>
      </trkpt>
      <trkpt lat="48.73197" lon="1.80474">
        <ele>180.6</ele>
        <time>2026-01-31T11:11:42Z</time>
      </trkpt>
      <trkpt lat="48.73199" lon="1.80476">
        <ele>181</ele>
        <time>2026-01-31T11:11:44Z</time>
      </trkpt>
      <trkpt lat="48.73202" lon="1.80479">
        <ele>181.4</ele>
        <time>2026-01-31T11:11:46Z</time>
      </trkpt>
      <trkpt lat="48.73204" lon="1.80481">
        <ele>181.6</ele>
        <time>2026-01-31T11:11:48Z</time>
      </trkpt>
      <trkpt lat="48.73205" lon="1.80483">
        <ele>182</ele>
        <time>2026-01-31T11:11:50Z</time>
      </trkpt>
      <trkpt lat="48.73208" lon="1.80484">
        <ele>182.4</ele>
        <time>2026-01-31T11:11:52Z</time>
      </trkpt>
      <trkpt lat="48.73211" lon="1.80486">
        <ele>182.8</ele>
        <time>2026-01-31T11:11:54Z</time>
      </trkpt>
      <trkpt lat="48.73212" lon="1.80488">
        <ele>183</ele>
        <time>2026-01-31T11:11:55Z</time>
      </trkpt>
      <trkpt lat="48.73214" lon="1.80489">
        <ele>183.2</ele>
        <time>2026-01-31T11:11:56Z</time>
      </trkpt>
      <trkpt lat="48.73217" lon="1.80491">
        <ele>183.4</ele>
        <time>2026-01-31T11:11:58Z</time>
      </trkpt>
      <trkpt lat="48.7322" lon="1.80494">
        <ele>183.8</ele>
        <time>2026-01-31T11:12:00Z</time>
      </trkpt>
      <trkpt lat="48.73222" lon="1.80496">
        <ele>183.8</ele>
        <time>2026-01-31T11:12:02Z</time>
      </trkpt>
      <trkpt lat="48.73224" lon="1.80498">
        <ele>184</ele>
        <time>2026-01-31T11:12:04Z</time>
      </trkpt>
      <trkpt lat="48.73225" lon="1.805">
        <ele>183.8</ele>
        <time>2026-01-31T11:12:06Z</time>
      </trkpt>
      <trkpt lat="48.73227" lon="1.80502">
        <ele>183.8</ele>
        <time>2026-01-31T11:12:08Z</time>
      </trkpt>
      <trkpt lat="48.73228" lon="1.80504">
        <ele>183.8</ele>
        <time>2026-01-31T11:12:10Z</time>
      </trkpt>
      <trkpt lat="48.7323" lon="1.80506">
        <ele>183.8</ele>
        <time>2026-01-31T11:12:12Z</time>
      </trkpt>
      <trkpt lat="48.73231" lon="1.80508">
        <ele>183.6</ele>
        <time>2026-01-31T11:12:14Z</time>
      </trkpt>
      <trkpt lat="48.73234" lon="1.80511">
        <ele>183.6</ele>
        <time>2026-01-31T11:12:16Z</time>
      </trkpt>
      <trkpt lat="48.73236" lon="1.80514">
        <ele>183.6</ele>
        <time>2026-01-31T11:12:18Z</time>
      </trkpt>
      <trkpt lat="48.73238" lon="1.80517">
        <ele>183.4</ele>
        <time>2026-01-31T11:12:20Z</time>
      </trkpt>
      <trkpt lat="48.7324" lon="1.8052">
        <ele>183.2</ele>
        <time>2026-01-31T11:12:22Z</time>
      </trkpt>
      <trkpt lat="48.73243" lon="1.80523">
        <ele>182.8</ele>
        <time>2026-01-31T11:12:24Z</time>
      </trkpt>
      <trkpt lat="48.73245" lon="1.80525">
        <ele>182.6</ele>
        <time>2026-01-31T11:12:26Z</time>
      </trkpt>
      <trkpt lat="48.73247" lon="1.80527">
        <ele>182.2</ele>
        <time>2026-01-31T11:12:28Z</time>
      </trkpt>
      <trkpt lat="48.73249" lon="1.80529">
        <ele>181.8</ele>
        <time>2026-01-31T11:12:30Z</time>
      </trkpt>
      <trkpt lat="48.7325" lon="1.8053">
        <ele>181.6</ele>
        <time>2026-01-31T11:12:32Z</time>
      </trkpt>
      <trkpt lat="48.73252" lon="1.80532">
        <ele>181.6</ele>
        <time>2026-01-31T11:12:34Z</time>
      </trkpt>
      <trkpt lat="48.73255" lon="1.80533">
        <ele>181.4</ele>
        <time>2026-01-31T11:12:36Z</time>
      </trkpt>
      <trkpt lat="48.73258" lon="1.80535">
        <ele>181.4</ele>
        <time>2026-01-31T11:12:38Z</time>
      </trkpt>
      <trkpt lat="48.7326" lon="1.80536">
        <ele>181.4</ele>
        <time>2026-01-31T11:12:40Z</time>
      </trkpt>
      <trkpt lat="48.73263" lon="1.80539">
        <ele>181.2</ele>
        <time>2026-01-31T11:12:42Z</time>
      </trkpt>
      <trkpt lat="48.73265" lon="1.8054">
        <ele>181</ele>
        <time>2026-01-31T11:12:43Z</time>
      </trkpt>
      <trkpt lat="48.73266" lon="1.80541">
        <ele>181</ele>
        <time>2026-01-31T11:12:44Z</time>
      </trkpt>
      <trkpt lat="48.73268" lon="1.80542">
        <ele>180.8</ele>
        <time>2026-01-31T11:12:45Z</time>
      </trkpt>
      <trkpt lat="48.73271" lon="1.80545">
        <ele>180.6</ele>
        <time>2026-01-31T11:12:47Z</time>
      </trkpt>
      <trkpt lat="48.73274" lon="1.80547">
        <ele>180.4</ele>
        <time>2026-01-31T11:12:49Z</time>
      </trkpt>
      <trkpt lat="48.73276" lon="1.80549">
        <ele>180</ele>
        <time>2026-01-31T11:12:51Z</time>
      </trkpt>
      <trkpt lat="48.73278" lon="1.80551">
        <ele>179.6</ele>
        <time>2026-01-31T11:12:53Z</time>
      </trkpt>
      <trkpt lat="48.73279" lon="1.80553">
        <ele>179.2</ele>
        <time>2026-01-31T11:12:55Z</time>
      </trkpt>
      <trkpt lat="48.7328" lon="1.80556">
        <ele>178.8</ele>
        <time>2026-01-31T11:12:57Z</time>
      </trkpt>
      <trkpt lat="48.73282" lon="1.80559">
        <ele>178.4</ele>
        <time>2026-01-31T11:12:59Z</time>
      </trkpt>
      <trkpt lat="48.73283" lon="1.80562">
        <ele>178</ele>
        <time>2026-01-31T11:13:01Z</time>
      </trkpt>
      <trkpt lat="48.73285" lon="1.80565">
        <ele>177.8</ele>
        <time>2026-01-31T11:13:03Z</time>
      </trkpt>
      <trkpt lat="48.73287" lon="1.80567">
        <ele>177.4</ele>
        <time>2026-01-31T11:13:05Z</time>
      </trkpt>
      <trkpt lat="48.73289" lon="1.80568">
        <ele>177.4</ele>
        <time>2026-01-31T11:13:07Z</time>
      </trkpt>
      <trkpt lat="48.73291" lon="1.8057">
        <ele>177.2</ele>
        <time>2026-01-31T11:13:10Z</time>
      </trkpt>
      <trkpt lat="48.73292" lon="1.80572">
        <ele>176.8</ele>
        <time>2026-01-31T11:13:12Z</time>
      </trkpt>
      <trkpt lat="48.73294" lon="1.80574">
        <ele>176.6</ele>
        <time>2026-01-31T11:13:14Z</time>
      </trkpt>
      <trkpt lat="48.73296" lon="1.80576">
        <ele>176.4</ele>
        <time>2026-01-31T11:13:16Z</time>
      </trkpt>
      <trkpt lat="48.73299" lon="1.80579">
        <ele>176</ele>
        <time>2026-01-31T11:13:18Z</time>
      </trkpt>
      <trkpt lat="48.73302" lon="1.8058">
        <ele>175.8</ele>
        <time>2026-01-31T11:13:20Z</time>
      </trkpt>
      <trkpt lat="48.73305" lon="1.80582">
        <ele>175.6</ele>
        <time>2026-01-31T11:13:22Z</time>
      </trkpt>
      <trkpt lat="48.73308" lon="1.80584">
        <ele>175.4</ele>
        <time>2026-01-31T11:13:24Z</time>
      </trkpt>
      <trkpt lat="48.7331" lon="1.80586">
        <ele>175.2</ele>
        <time>2026-01-31T11:13:26Z</time>
      </trkpt>
      <trkpt lat="48.73313" lon="1.80588">
        <ele>174.8</ele>
        <time>2026-01-31T11:13:28Z</time>
      </trkpt>
      <trkpt lat="48.73315" lon="1.8059">
        <ele>174.4</ele>
        <time>2026-01-31T11:13:30Z</time>
      </trkpt>
      <trkpt lat="48.73316" lon="1.80592">
        <ele>174</ele>
        <time>2026-01-31T11:13:32Z</time>
      </trkpt>
      <trkpt lat="48.73319" lon="1.80595">
        <ele>173.8</ele>
        <time>2026-01-31T11:13:34Z</time>
      </trkpt>
      <trkpt lat="48.73322" lon="1.80597">
        <ele>173.8</ele>
        <time>2026-01-31T11:13:36Z</time>
      </trkpt>
      <trkpt lat="48.73324" lon="1.80599">
        <ele>173.8</ele>
        <time>2026-01-31T11:13:38Z</time>
      </trkpt>
      <trkpt lat="48.73327" lon="1.80602">
        <ele>173.6</ele>
        <time>2026-01-31T11:13:40Z</time>
      </trkpt>
      <trkpt lat="48.7333" lon="1.80605">
        <ele>173.6</ele>
        <time>2026-01-31T11:13:42Z</time>
      </trkpt>
      <trkpt lat="48.73332" lon="1.80607">
        <ele>173.6</ele>
        <time>2026-01-31T11:13:43Z</time>
      </trkpt>
      <trkpt lat="48.73333" lon="1.80608">
        <ele>173.6</ele>
        <time>2026-01-31T11:13:44Z</time>
      </trkpt>
      <trkpt lat="48.73335" lon="1.8061">
        <ele>173.6</ele>
        <time>2026-01-31T11:13:45Z</time>
      </trkpt>
      <trkpt lat="48.73337" lon="1.80613">
        <ele>173.6</ele>
        <time>2026-01-31T11:13:47Z</time>
      </trkpt>
      <trkpt lat="48.7334" lon="1.80615">
        <ele>173.4</ele>
        <time>2026-01-31T11:13:49Z</time>
      </trkpt>
      <trkpt lat="48.73342" lon="1.80618">
        <ele>173</ele>
        <time>2026-01-31T11:13:51Z</time>
      </trkpt>
      <trkpt lat="48.73344" lon="1.80619">
        <ele>172.8</ele>
        <time>2026-01-31T11:13:53Z</time>
      </trkpt>
      <trkpt lat="48.73347" lon="1.80621">
        <ele>172.8</ele>
        <time>2026-01-31T11:13:55Z</time>
      </trkpt>
      <trkpt lat="48.7335" lon="1.80622">
        <ele>173</ele>
        <time>2026-01-31T11:13:57Z</time>
      </trkpt>
      <trkpt lat="48.73353" lon="1.80623">
        <ele>173.4</ele>
        <time>2026-01-31T11:13:59Z</time>
      </trkpt>
      <trkpt lat="48.73356" lon="1.80625">
        <ele>173.8</ele>
        <time>2026-01-31T11:14:01Z</time>
      </trkpt>
      <trkpt lat="48.73358" lon="1.80625">
        <ele>174</ele>
        <time>2026-01-31T11:14:02Z</time>
      </trkpt>
      <trkpt lat="48.7336" lon="1.80627">
        <ele>174.4</ele>
        <time>2026-01-31T11:14:04Z</time>
      </trkpt>
      <trkpt lat="48.73363" lon="1.80629">
        <ele>174.8</ele>
        <time>2026-01-31T11:14:06Z</time>
      </trkpt>
      <trkpt lat="48.73365" lon="1.80632">
        <ele>175.2</ele>
        <time>2026-01-31T11:14:08Z</time>
      </trkpt>
      <trkpt lat="48.73367" lon="1.80634">
        <ele>175.4</ele>
        <time>2026-01-31T11:14:10Z</time>
      </trkpt>
      <trkpt lat="48.73369" lon="1.80637">
        <ele>175.8</ele>
        <time>2026-01-31T11:14:12Z</time>
      </trkpt>
      <trkpt lat="48.73372" lon="1.80639">
        <ele>176.2</ele>
        <time>2026-01-31T11:14:14Z</time>
      </trkpt>
      <trkpt lat="48.73374" lon="1.80641">
        <ele>176.6</ele>
        <time>2026-01-31T11:14:16Z</time>
      </trkpt>
      <trkpt lat="48.73376" lon="1.80643">
        <ele>177</ele>
        <time>2026-01-31T11:14:18Z</time>
      </trkpt>
      <trkpt lat="48.73379" lon="1.80646">
        <ele>177.4</ele>
        <time>2026-01-31T11:14:20Z</time>
      </trkpt>
      <trkpt lat="48.73381" lon="1.80649">
        <ele>177.6</ele>
        <time>2026-01-31T11:14:22Z</time>
      </trkpt>
      <trkpt lat="48.73383" lon="1.8065">
        <ele>178</ele>
        <time>2026-01-31T11:14:24Z</time>
      </trkpt>
      <trkpt lat="48.73385" lon="1.80652">
        <ele>178.4</ele>
        <time>2026-01-31T11:14:26Z</time>
      </trkpt>
      <trkpt lat="48.73387" lon="1.80654">
        <ele>178.8</ele>
        <time>2026-01-31T11:14:28Z</time>
      </trkpt>
      <trkpt lat="48.7339" lon="1.80657">
        <ele>179</ele>
        <time>2026-01-31T11:14:30Z</time>
      </trkpt>
      <trkpt lat="48.73392" lon="1.80659">
        <ele>179.4</ele>
        <time>2026-01-31T11:14:32Z</time>
      </trkpt>
      <trkpt lat="48.73395" lon="1.80661">
        <ele>179.6</ele>
        <time>2026-01-31T11:14:34Z</time>
      </trkpt>
      <trkpt lat="48.73397" lon="1.80663">
        <ele>180</ele>
        <time>2026-01-31T11:14:36Z</time>
      </trkpt>
      <trkpt lat="48.73399" lon="1.80665">
        <ele>180.6</ele>
        <time>2026-01-31T11:14:39Z</time>
      </trkpt>
      <trkpt lat="48.73403" lon="1.80667">
        <ele>181.6</ele>
        <time>2026-01-31T11:14:43Z</time>
      </trkpt>
      <trkpt lat="48.73405" lon="1.80667">
        <ele>182.6</ele>
        <time>2026-01-31T11:14:46Z</time>
      </trkpt>
      <trkpt lat="48.73407" lon="1.80668">
        <ele>183.2</ele>
        <time>2026-01-31T11:14:48Z</time>
      </trkpt>
      <trkpt lat="48.7341" lon="1.8067">
        <ele>183.8</ele>
        <time>2026-01-31T11:14:50Z</time>
      </trkpt>
      <trkpt lat="48.73413" lon="1.80672">
        <ele>184.4</ele>
        <time>2026-01-31T11:14:52Z</time>
      </trkpt>
      <trkpt lat="48.73415" lon="1.80673">
        <ele>184.8</ele>
        <time>2026-01-31T11:14:53Z</time>
      </trkpt>
      <trkpt lat="48.73417" lon="1.80674">
        <ele>185</ele>
        <time>2026-01-31T11:14:54Z</time>
      </trkpt>
      <trkpt lat="48.7342" lon="1.80677">
        <ele>185.4</ele>
        <time>2026-01-31T11:14:56Z</time>
      </trkpt>
      <trkpt lat="48.73421" lon="1.80679">
        <ele>185.6</ele>
        <time>2026-01-31T11:14:57Z</time>
      </trkpt>
      <trkpt lat="48.73423" lon="1.8068">
        <ele>185.8</ele>
        <time>2026-01-31T11:14:58Z</time>
      </trkpt>
      <trkpt lat="48.73425" lon="1.80683">
        <ele>186</ele>
        <time>2026-01-31T11:15:00Z</time>
      </trkpt>
      <trkpt lat="48.73428" lon="1.80686">
        <ele>186</ele>
        <time>2026-01-31T11:15:02Z</time>
      </trkpt>
      <trkpt lat="48.7343" lon="1.80688">
        <ele>186</ele>
        <time>2026-01-31T11:15:04Z</time>
      </trkpt>
      <trkpt lat="48.73433" lon="1.8069">
        <ele>186</ele>
        <time>2026-01-31T11:15:06Z</time>
      </trkpt>
      <trkpt lat="48.73435" lon="1.80691">
        <ele>186.2</ele>
        <time>2026-01-31T11:15:08Z</time>
      </trkpt>
      <trkpt lat="48.73437" lon="1.80692">
        <ele>186.4</ele>
        <time>2026-01-31T11:15:10Z</time>
      </trkpt>
      <trkpt lat="48.7344" lon="1.80693">
        <ele>186.8</ele>
        <time>2026-01-31T11:15:12Z</time>
      </trkpt>
      <trkpt lat="48.73442" lon="1.80696">
        <ele>186.8</ele>
        <time>2026-01-31T11:15:14Z</time>
      </trkpt>
      <trkpt lat="48.73444" lon="1.80698">
        <ele>187</ele>
        <time>2026-01-31T11:15:16Z</time>
      </trkpt>
      <trkpt lat="48.73446" lon="1.80702">
        <ele>186.8</ele>
        <time>2026-01-31T11:15:18Z</time>
      </trkpt>
      <trkpt lat="48.73447" lon="1.80705">
        <ele>186.8</ele>
        <time>2026-01-31T11:15:20Z</time>
      </trkpt>
      <trkpt lat="48.73449" lon="1.80709">
        <ele>187</ele>
        <time>2026-01-31T11:15:22Z</time>
      </trkpt>
      <trkpt lat="48.73451" lon="1.80712">
        <ele>187.4</ele>
        <time>2026-01-31T11:15:24Z</time>
      </trkpt>
      <trkpt lat="48.73452" lon="1.80713">
        <ele>187.4</ele>
        <time>2026-01-31T11:15:25Z</time>
      </trkpt>
      <trkpt lat="48.73455" lon="1.80716">
        <ele>187.6</ele>
        <time>2026-01-31T11:15:27Z</time>
      </trkpt>
      <trkpt lat="48.73458" lon="1.80719">
        <ele>187.8</ele>
        <time>2026-01-31T11:15:29Z</time>
      </trkpt>
      <trkpt lat="48.7346" lon="1.80721">
        <ele>188</ele>
        <time>2026-01-31T11:15:31Z</time>
      </trkpt>
      <trkpt lat="48.73462" lon="1.80723">
        <ele>188.2</ele>
        <time>2026-01-31T11:15:33Z</time>
      </trkpt>
      <trkpt lat="48.73465" lon="1.80725">
        <ele>188.4</ele>
        <time>2026-01-31T11:15:35Z</time>
      </trkpt>
      <trkpt lat="48.73468" lon="1.80727">
        <ele>188.6</ele>
        <time>2026-01-31T11:15:37Z</time>
      </trkpt>
      <trkpt lat="48.7347" lon="1.80729">
        <ele>189</ele>
        <time>2026-01-31T11:15:39Z</time>
      </trkpt>
      <trkpt lat="48.73472" lon="1.8073">
        <ele>189.6</ele>
        <time>2026-01-31T11:15:42Z</time>
      </trkpt>
      <trkpt lat="48.73474" lon="1.80733">
        <ele>190</ele>
        <time>2026-01-31T11:15:46Z</time>
      </trkpt>
      <trkpt lat="48.73475" lon="1.80736">
        <ele>190.4</ele>
        <time>2026-01-31T11:15:49Z</time>
      </trkpt>
      <trkpt lat="48.73476" lon="1.80738">
        <ele>190.8</ele>
        <time>2026-01-31T11:15:52Z</time>
      </trkpt>
      <trkpt lat="48.73478" lon="1.8074">
        <ele>190.8</ele>
        <time>2026-01-31T11:15:54Z</time>
      </trkpt>
      <trkpt lat="48.73481" lon="1.80743">
        <ele>191</ele>
        <time>2026-01-31T11:15:57Z</time>
      </trkpt>
      <trkpt lat="48.73483" lon="1.80745">
        <ele>191</ele>
        <time>2026-01-31T11:15:59Z</time>
      </trkpt>
      <trkpt lat="48.73484" lon="1.80746">
        <ele>191</ele>
        <time>2026-01-31T11:16:00Z</time>
      </trkpt>
      <trkpt lat="48.73487" lon="1.8075">
        <ele>191</ele>
        <time>2026-01-31T11:16:02Z</time>
      </trkpt>
      <trkpt lat="48.73488" lon="1.80753">
        <ele>191</ele>
        <time>2026-01-31T11:16:03Z</time>
      </trkpt>
      <trkpt lat="48.73489" lon="1.80755">
        <ele>190.8</ele>
        <time>2026-01-31T11:16:04Z</time>
      </trkpt>
      <trkpt lat="48.73491" lon="1.80757">
        <ele>190.8</ele>
        <time>2026-01-31T11:16:05Z</time>
      </trkpt>
      <trkpt lat="48.73492" lon="1.80759">
        <ele>190.8</ele>
        <time>2026-01-31T11:16:06Z</time>
      </trkpt>
      <trkpt lat="48.73494" lon="1.80761">
        <ele>190.6</ele>
        <time>2026-01-31T11:16:07Z</time>
      </trkpt>
      <trkpt lat="48.73497" lon="1.80764">
        <ele>190.6</ele>
        <time>2026-01-31T11:16:09Z</time>
      </trkpt>
      <trkpt lat="48.735" lon="1.80765">
        <ele>190.4</ele>
        <time>2026-01-31T11:16:11Z</time>
      </trkpt>
      <trkpt lat="48.73503" lon="1.80767">
        <ele>190.4</ele>
        <time>2026-01-31T11:16:13Z</time>
      </trkpt>
      <trkpt lat="48.73505" lon="1.80768">
        <ele>190.6</ele>
        <time>2026-01-31T11:16:15Z</time>
      </trkpt>
      <trkpt lat="48.73508" lon="1.8077">
        <ele>190.6</ele>
        <time>2026-01-31T11:16:17Z</time>
      </trkpt>
      <trkpt lat="48.7351" lon="1.80773">
        <ele>190.4</ele>
        <time>2026-01-31T11:16:19Z</time>
      </trkpt>
      <trkpt lat="48.73513" lon="1.80775">
        <ele>190.6</ele>
        <time>2026-01-31T11:16:21Z</time>
      </trkpt>
      <trkpt lat="48.73515" lon="1.80778">
        <ele>190.6</ele>
        <time>2026-01-31T11:16:23Z</time>
      </trkpt>
      <trkpt lat="48.73518" lon="1.80782">
        <ele>190.6</ele>
        <time>2026-01-31T11:16:25Z</time>
      </trkpt>
      <trkpt lat="48.73519" lon="1.80784">
        <ele>190.6</ele>
        <time>2026-01-31T11:16:26Z</time>
      </trkpt>
      <trkpt lat="48.73521" lon="1.80786">
        <ele>190.4</ele>
        <time>2026-01-31T11:16:27Z</time>
      </trkpt>
      <trkpt lat="48.73522" lon="1.80788">
        <ele>190.2</ele>
        <time>2026-01-31T11:16:28Z</time>
      </trkpt>
      <trkpt lat="48.73524" lon="1.8079">
        <ele>190.2</ele>
        <time>2026-01-31T11:16:29Z</time>
      </trkpt>
      <trkpt lat="48.73526" lon="1.80792">
        <ele>190</ele>
        <time>2026-01-31T11:16:30Z</time>
      </trkpt>
      <trkpt lat="48.73528" lon="1.80795">
        <ele>190</ele>
        <time>2026-01-31T11:16:32Z</time>
      </trkpt>
      <trkpt lat="48.7353" lon="1.80797">
        <ele>190</ele>
        <time>2026-01-31T11:16:33Z</time>
      </trkpt>
      <trkpt lat="48.73532" lon="1.80799">
        <ele>190</ele>
        <time>2026-01-31T11:16:35Z</time>
      </trkpt>
      <trkpt lat="48.73535" lon="1.808">
        <ele>190.2</ele>
        <time>2026-01-31T11:16:37Z</time>
      </trkpt>
      <trkpt lat="48.73538" lon="1.80802">
        <ele>190.2</ele>
        <time>2026-01-31T11:16:39Z</time>
      </trkpt>
      <trkpt lat="48.7354" lon="1.80803">
        <ele>190.2</ele>
        <time>2026-01-31T11:16:40Z</time>
      </trkpt>
      <trkpt lat="48.73543" lon="1.80806">
        <ele>190.2</ele>
        <time>2026-01-31T11:16:42Z</time>
      </trkpt>
      <trkpt lat="48.73544" lon="1.80808">
        <ele>190</ele>
        <time>2026-01-31T11:16:43Z</time>
      </trkpt>
      <trkpt lat="48.73546" lon="1.8081">
        <ele>190</ele>
        <time>2026-01-31T11:16:44Z</time>
      </trkpt>
      <trkpt lat="48.73548" lon="1.80811">
        <ele>190</ele>
        <time>2026-01-31T11:16:45Z</time>
      </trkpt>
      <trkpt lat="48.7355" lon="1.80814">
        <ele>189.6</ele>
        <time>2026-01-31T11:16:47Z</time>
      </trkpt>
      <trkpt lat="48.73553" lon="1.80815">
        <ele>189.4</ele>
        <time>2026-01-31T11:16:49Z</time>
      </trkpt>
      <trkpt lat="48.73556" lon="1.80817">
        <ele>189.2</ele>
        <time>2026-01-31T11:16:51Z</time>
      </trkpt>
      <trkpt lat="48.73558" lon="1.80819">
        <ele>189</ele>
        <time>2026-01-31T11:16:53Z</time>
      </trkpt>
      <trkpt lat="48.73561" lon="1.80821">
        <ele>189</ele>
        <time>2026-01-31T11:16:55Z</time>
      </trkpt>
      <trkpt lat="48.73563" lon="1.80822">
        <ele>188.8</ele>
        <time>2026-01-31T11:16:58Z</time>
      </trkpt>
      <trkpt lat="48.73564" lon="1.80823">
        <ele>188.4</ele>
        <time>2026-01-31T11:17:01Z</time>
      </trkpt>
      <trkpt lat="48.73566" lon="1.80826">
        <ele>188.2</ele>
        <time>2026-01-31T11:17:03Z</time>
      </trkpt>
      <trkpt lat="48.73569" lon="1.80828">
        <ele>188.2</ele>
        <time>2026-01-31T11:17:05Z</time>
      </trkpt>
      <trkpt lat="48.73572" lon="1.8083">
        <ele>188.4</ele>
        <time>2026-01-31T11:17:07Z</time>
      </trkpt>
      <trkpt lat="48.73574" lon="1.80831">
        <ele>188.6</ele>
        <time>2026-01-31T11:17:09Z</time>
      </trkpt>
      <trkpt lat="48.73577" lon="1.80831">
        <ele>188.8</ele>
        <time>2026-01-31T11:17:11Z</time>
      </trkpt>
      <trkpt lat="48.7358" lon="1.8083">
        <ele>189</ele>
        <time>2026-01-31T11:17:13Z</time>
      </trkpt>
      <trkpt lat="48.73582" lon="1.8083">
        <ele>189.2</ele>
        <time>2026-01-31T11:17:15Z</time>
      </trkpt>
      <trkpt lat="48.73584" lon="1.80829">
        <ele>189.4</ele>
        <time>2026-01-31T11:17:17Z</time>
      </trkpt>
      <trkpt lat="48.73586" lon="1.80828">
        <ele>189.8</ele>
        <time>2026-01-31T11:17:19Z</time>
      </trkpt>
      <trkpt lat="48.73588" lon="1.80825">
        <ele>190.2</ele>
        <time>2026-01-31T11:17:21Z</time>
      </trkpt>
      <trkpt lat="48.7359" lon="1.80823">
        <ele>190.4</ele>
        <time>2026-01-31T11:17:23Z</time>
      </trkpt>
      <trkpt lat="48.73592" lon="1.80824">
        <ele>190.4</ele>
        <time>2026-01-31T11:17:45Z</time>
      </trkpt>
      <trkpt lat="48.73594" lon="1.80827">
        <ele>190.4</ele>
        <time>2026-01-31T11:17:47Z</time>
      </trkpt>
      <trkpt lat="48.73598" lon="1.80829">
        <ele>190.4</ele>
        <time>2026-01-31T11:17:49Z</time>
      </trkpt>
      <trkpt lat="48.736" lon="1.80829">
        <ele>190.2</ele>
        <time>2026-01-31T11:17:50Z</time>
      </trkpt>
      <trkpt lat="48.73603" lon="1.8083">
        <ele>190.2</ele>
        <time>2026-01-31T11:17:52Z</time>
      </trkpt>
      <trkpt lat="48.73606" lon="1.80831">
        <ele>190.2</ele>
        <time>2026-01-31T11:17:54Z</time>
      </trkpt>
      <trkpt lat="48.73608" lon="1.8083">
        <ele>190.2</ele>
        <time>2026-01-31T11:17:56Z</time>
      </trkpt>
      <trkpt lat="48.7361" lon="1.80829">
        <ele>190.4</ele>
        <time>2026-01-31T11:18:00Z</time>
      </trkpt>
      <trkpt lat="48.73611" lon="1.80831">
        <ele>190.8</ele>
        <time>2026-01-31T11:18:04Z</time>
      </trkpt>
      <trkpt lat="48.7361" lon="1.80834">
        <ele>191</ele>
        <time>2026-01-31T11:18:07Z</time>
      </trkpt>
      <trkpt lat="48.73609" lon="1.80836">
        <ele>191.2</ele>
        <time>2026-01-31T11:18:09Z</time>
      </trkpt>
      <trkpt lat="48.73607" lon="1.80839">
        <ele>191.6</ele>
        <time>2026-01-31T11:18:11Z</time>
      </trkpt>
      <trkpt lat="48.73605" lon="1.8084">
        <ele>191.8</ele>
        <time>2026-01-31T11:18:13Z</time>
      </trkpt>
      <trkpt lat="48.73603" lon="1.80841">
        <ele>192.2</ele>
        <time>2026-01-31T11:18:15Z</time>
      </trkpt>
      <trkpt lat="48.73601" lon="1.80841">
        <ele>192.6</ele>
        <time>2026-01-31T11:18:17Z</time>
      </trkpt>
      <trkpt lat="48.73599" lon="1.80843">
        <ele>194.8</ele>
        <time>2026-01-31T11:18:31Z</time>
      </trkpt>
      <trkpt lat="48.73598" lon="1.80845">
        <ele>196</ele>
        <time>2026-01-31T11:18:38Z</time>
      </trkpt>
      <trkpt lat="48.73596" lon="1.80847">
        <ele>196</ele>
        <time>2026-01-31T11:18:40Z</time>
      </trkpt>
      <trkpt lat="48.73596" lon="1.80844">
        <ele>194</ele>
        <time>2026-01-31T11:19:23Z</time>
      </trkpt>
      <trkpt lat="48.73594" lon="1.80844">
        <ele>193.8</ele>
        <time>2026-01-31T11:19:26Z</time>
      </trkpt>
      <trkpt lat="48.73592" lon="1.80843">
        <ele>193.6</ele>
        <time>2026-01-31T11:19:28Z</time>
      </trkpt>
      <trkpt lat="48.7359" lon="1.80842">
        <ele>193.4</ele>
        <time>2026-01-31T11:19:30Z</time>
      </trkpt>
      <trkpt lat="48.73588" lon="1.80841">
        <ele>193.2</ele>
        <time>2026-01-31T11:19:32Z</time>
      </trkpt>
      <trkpt lat="48.73589" lon="1.80838">
        <ele>192.6</ele>
        <time>2026-01-31T11:19:40Z</time>
      </trkpt>
      <trkpt lat="48.7359" lon="1.80841">
        <ele>191.4</ele>
        <time>2026-01-31T11:19:51Z</time>
      </trkpt>
      <trkpt lat="48.73592" lon="1.80844">
        <ele>191.2</ele>
        <time>2026-01-31T11:19:54Z</time>
      </trkpt>
      <trkpt lat="48.73594" lon="1.80844">
        <ele>190.8</ele>
        <time>2026-01-31T11:19:56Z</time>
      </trkpt>
      <trkpt lat="48.73596" lon="1.80844">
        <ele>190.6</ele>
        <time>2026-01-31T11:19:58Z</time>
      </trkpt>
      <trkpt lat="48.73598" lon="1.80843">
        <ele>190.6</ele>
        <time>2026-01-31T11:20:00Z</time>
      </trkpt>
      <trkpt lat="48.736" lon="1.80841">
        <ele>190.4</ele>
        <time>2026-01-31T11:20:02Z</time>
      </trkpt>
      <trkpt lat="48.73602" lon="1.80839">
        <ele>190.4</ele>
        <time>2026-01-31T11:20:04Z</time>
      </trkpt>
      <trkpt lat="48.73604" lon="1.80837">
        <ele>190.4</ele>
        <time>2026-01-31T11:20:06Z</time>
      </trkpt>
      <trkpt lat="48.73606" lon="1.80836">
        <ele>190.4</ele>
        <time>2026-01-31T11:20:08Z</time>
      </trkpt>
      <trkpt lat="48.73604" lon="1.80836">
        <ele>190.2</ele>
        <time>2026-01-31T11:20:14Z</time>
      </trkpt>
      <trkpt lat="48.73602" lon="1.80837">
        <ele>190.4</ele>
        <time>2026-01-31T11:20:16Z</time>
      </trkpt>
      <trkpt lat="48.736" lon="1.80838">
        <ele>190.4</ele>
        <time>2026-01-31T11:20:19Z</time>
      </trkpt>
      <trkpt lat="48.73598" lon="1.80838">
        <ele>190.8</ele>
        <time>2026-01-31T11:20:22Z</time>
      </trkpt>
      <trkpt lat="48.73596" lon="1.80841">
        <ele>191</ele>
        <time>2026-01-31T11:20:25Z</time>
      </trkpt>
      <trkpt lat="48.73598" lon="1.80843">
        <ele>191.2</ele>
        <time>2026-01-31T11:20:29Z</time>
      </trkpt>
      <trkpt lat="48.736" lon="1.80842">
        <ele>191.4</ele>
        <time>2026-01-31T11:20:31Z</time>
      </trkpt>
      <trkpt lat="48.73602" lon="1.8084">
        <ele>191.6</ele>
        <time>2026-01-31T11:20:33Z</time>
      </trkpt>
      <trkpt lat="48.73605" lon="1.80839">
        <ele>191.8</ele>
        <time>2026-01-31T11:20:35Z</time>
      </trkpt>
      <trkpt lat="48.73608" lon="1.80837">
        <ele>192</ele>
        <time>2026-01-31T11:20:37Z</time>
      </trkpt>
      <trkpt lat="48.73611" lon="1.80836">
        <ele>192</ele>
        <time>2026-01-31T11:20:39Z</time>
      </trkpt>
      <trkpt lat="48.73614" lon="1.80834">
        <ele>192.4</ele>
        <time>2026-01-31T11:20:41Z</time>
      </trkpt>
      <trkpt lat="48.73616" lon="1.80834">
        <ele>192.4</ele>
        <time>2026-01-31T11:20:42Z</time>
      </trkpt>
      <trkpt lat="48.7362" lon="1.80832">
        <ele>192.6</ele>
        <time>2026-01-31T11:20:44Z</time>
      </trkpt>
      <trkpt lat="48.73623" lon="1.80831">
        <ele>192.6</ele>
        <time>2026-01-31T11:20:46Z</time>
      </trkpt>
      <trkpt lat="48.73626" lon="1.80831">
        <ele>192.8</ele>
        <time>2026-01-31T11:20:48Z</time>
      </trkpt>
      <trkpt lat="48.73628" lon="1.80831">
        <ele>192.8</ele>
        <time>2026-01-31T11:20:49Z</time>
      </trkpt>
      <trkpt lat="48.73631" lon="1.8083">
        <ele>192.8</ele>
        <time>2026-01-31T11:20:51Z</time>
      </trkpt>
      <trkpt lat="48.73634" lon="1.80828">
        <ele>192.8</ele>
        <time>2026-01-31T11:20:53Z</time>
      </trkpt>
      <trkpt lat="48.73636" lon="1.80826">
        <ele>192.8</ele>
        <time>2026-01-31T11:20:55Z</time>
      </trkpt>
      <trkpt lat="48.73637" lon="1.80825">
        <ele>192.8</ele>
        <time>2026-01-31T11:20:57Z</time>
      </trkpt>
      <trkpt lat="48.73639" lon="1.80824">
        <ele>193</ele>
        <time>2026-01-31T11:20:59Z</time>
      </trkpt>
      <trkpt lat="48.73642" lon="1.80823">
        <ele>193.4</ele>
        <time>2026-01-31T11:21:01Z</time>
      </trkpt>
      <trkpt lat="48.73644" lon="1.80822">
        <ele>193.6</ele>
        <time>2026-01-31T11:21:03Z</time>
      </trkpt>
      <trkpt lat="48.73647" lon="1.80822">
        <ele>194</ele>
        <time>2026-01-31T11:21:05Z</time>
      </trkpt>
      <trkpt lat="48.7365" lon="1.80821">
        <ele>194.6</ele>
        <time>2026-01-31T11:21:07Z</time>
      </trkpt>
      <trkpt lat="48.73653" lon="1.80821">
        <ele>195</ele>
        <time>2026-01-31T11:21:09Z</time>
      </trkpt>
      <trkpt lat="48.73656" lon="1.8082">
        <ele>195.6</ele>
        <time>2026-01-31T11:21:11Z</time>
      </trkpt>
      <trkpt lat="48.73659" lon="1.80819">
        <ele>196.2</ele>
        <time>2026-01-31T11:21:13Z</time>
      </trkpt>
      <trkpt lat="48.73661" lon="1.80819">
        <ele>196.6</ele>
        <time>2026-01-31T11:21:15Z</time>
      </trkpt>
      <trkpt lat="48.73664" lon="1.80819">
        <ele>197.2</ele>
        <time>2026-01-31T11:21:17Z</time>
      </trkpt>
      <trkpt lat="48.73666" lon="1.80818">
        <ele>197.8</ele>
        <time>2026-01-31T11:21:19Z</time>
      </trkpt>
      <trkpt lat="48.73669" lon="1.80818">
        <ele>198.4</ele>
        <time>2026-01-31T11:21:21Z</time>
      </trkpt>
      <trkpt lat="48.73671" lon="1.80817">
        <ele>198.8</ele>
        <time>2026-01-31T11:21:23Z</time>
      </trkpt>
      <trkpt lat="48.73673" lon="1.80816">
        <ele>199.2</ele>
        <time>2026-01-31T11:21:25Z</time>
      </trkpt>
      <trkpt lat="48.73674" lon="1.80814">
        <ele>200.2</ele>
        <time>2026-01-31T11:21:30Z</time>
      </trkpt>
      <trkpt lat="48.73676" lon="1.80814">
        <ele>200.4</ele>
        <time>2026-01-31T11:21:35Z</time>
      </trkpt>
      <trkpt lat="48.73679" lon="1.80814">
        <ele>200.6</ele>
        <time>2026-01-31T11:21:38Z</time>
      </trkpt>
      <trkpt lat="48.73681" lon="1.80815">
        <ele>200.4</ele>
        <time>2026-01-31T11:21:40Z</time>
      </trkpt>
      <trkpt lat="48.73684" lon="1.80816">
        <ele>200.2</ele>
        <time>2026-01-31T11:21:42Z</time>
      </trkpt>
      <trkpt lat="48.73686" lon="1.80816">
        <ele>200.2</ele>
        <time>2026-01-31T11:21:43Z</time>
      </trkpt>
      <trkpt lat="48.73689" lon="1.80816">
        <ele>200</ele>
        <time>2026-01-31T11:21:45Z</time>
      </trkpt>
      <trkpt lat="48.73692" lon="1.80816">
        <ele>199.8</ele>
        <time>2026-01-31T11:21:47Z</time>
      </trkpt>
      <trkpt lat="48.73695" lon="1.80816">
        <ele>199.4</ele>
        <time>2026-01-31T11:21:49Z</time>
      </trkpt>
      <trkpt lat="48.73698" lon="1.80816">
        <ele>199</ele>
        <time>2026-01-31T11:21:51Z</time>
      </trkpt>
      <trkpt lat="48.73701" lon="1.80816">
        <ele>198.6</ele>
        <time>2026-01-31T11:21:53Z</time>
      </trkpt>
      <trkpt lat="48.73703" lon="1.80816">
        <ele>198.6</ele>
        <time>2026-01-31T11:21:54Z</time>
      </trkpt>
      <trkpt lat="48.73705" lon="1.80816">
        <ele>198.4</ele>
        <time>2026-01-31T11:21:55Z</time>
      </trkpt>
      <trkpt lat="48.73708" lon="1.80816">
        <ele>198.2</ele>
        <time>2026-01-31T11:21:56Z</time>
      </trkpt>
      <trkpt lat="48.7371" lon="1.80815">
        <ele>198.2</ele>
        <time>2026-01-31T11:21:57Z</time>
      </trkpt>
      <trkpt lat="48.73713" lon="1.80815">
        <ele>198.2</ele>
        <time>2026-01-31T11:21:58Z</time>
      </trkpt>
      <trkpt lat="48.73716" lon="1.80814">
        <ele>198</ele>
        <time>2026-01-31T11:21:59Z</time>
      </trkpt>
      <trkpt lat="48.73719" lon="1.80814">
        <ele>198</ele>
        <time>2026-01-31T11:22:00Z</time>
      </trkpt>
      <trkpt lat="48.73722" lon="1.80814">
        <ele>198</ele>
        <time>2026-01-31T11:22:01Z</time>
      </trkpt>
      <trkpt lat="48.73725" lon="1.80813">
        <ele>198</ele>
        <time>2026-01-31T11:22:02Z</time>
      </trkpt>
      <trkpt lat="48.73728" lon="1.80813">
        <ele>198</ele>
        <time>2026-01-31T11:22:03Z</time>
      </trkpt>
      <trkpt lat="48.73731" lon="1.80813">
        <ele>197.8</ele>
        <time>2026-01-31T11:22:04Z</time>
      </trkpt>
      <trkpt lat="48.73733" lon="1.80812">
        <ele>197.8</ele>
        <time>2026-01-31T11:22:05Z</time>
      </trkpt>
      <trkpt lat="48.73737" lon="1.80812">
        <ele>197.6</ele>
        <time>2026-01-31T11:22:06Z</time>
      </trkpt>
      <trkpt lat="48.73741" lon="1.80811">
        <ele>197.4</ele>
        <time>2026-01-31T11:22:07Z</time>
      </trkpt>
      <trkpt lat="48.73745" lon="1.8081">
        <ele>197.2</ele>
        <time>2026-01-31T11:22:08Z</time>
      </trkpt>
      <trkpt lat="48.73749" lon="1.8081">
        <ele>197</ele>
        <time>2026-01-31T11:22:09Z</time>
      </trkpt>
      <trkpt lat="48.73754" lon="1.80809">
        <ele>196.8</ele>
        <time>2026-01-31T11:22:10Z</time>
      </trkpt>
      <trkpt lat="48.73758" lon="1.80808">
        <ele>196.6</ele>
        <time>2026-01-31T11:22:11Z</time>
      </trkpt>
      <trkpt lat="48.73763" lon="1.80807">
        <ele>196.4</ele>
        <time>2026-01-31T11:22:12Z</time>
      </trkpt>
      <trkpt lat="48.73767" lon="1.80806">
        <ele>196.4</ele>
        <time>2026-01-31T11:22:13Z</time>
      </trkpt>
      <trkpt lat="48.73772" lon="1.80805">
        <ele>196.2</ele>
        <time>2026-01-31T11:22:14Z</time>
      </trkpt>
      <trkpt lat="48.73776" lon="1.80805">
        <ele>196</ele>
        <time>2026-01-31T11:22:15Z</time>
      </trkpt>
      <trkpt lat="48.7378" lon="1.80804">
        <ele>195.8</ele>
        <time>2026-01-31T11:22:16Z</time>
      </trkpt>
      <trkpt lat="48.73785" lon="1.80803">
        <ele>195.6</ele>
        <time>2026-01-31T11:22:17Z</time>
      </trkpt>
      <trkpt lat="48.73789" lon="1.80802">
        <ele>195.4</ele>
        <time>2026-01-31T11:22:18Z</time>
      </trkpt>
      <trkpt lat="48.73794" lon="1.80801">
        <ele>195.2</ele>
        <time>2026-01-31T11:22:19Z</time>
      </trkpt>
      <trkpt lat="48.73799" lon="1.808">
        <ele>195.2</ele>
        <time>2026-01-31T11:22:20Z</time>
      </trkpt>
      <trkpt lat="48.73803" lon="1.80799">
        <ele>195</ele>
        <time>2026-01-31T11:22:21Z</time>
      </trkpt>
      <trkpt lat="48.73808" lon="1.80799">
        <ele>195</ele>
        <time>2026-01-31T11:22:22Z</time>
      </trkpt>
      <trkpt lat="48.73813" lon="1.80798">
        <ele>195</ele>
        <time>2026-01-31T11:22:23Z</time>
      </trkpt>
      <trkpt lat="48.73818" lon="1.80797">
        <ele>194.8</ele>
        <time>2026-01-31T11:22:24Z</time>
      </trkpt>
      <trkpt lat="48.73823" lon="1.80797">
        <ele>194.8</ele>
        <time>2026-01-31T11:22:25Z</time>
      </trkpt>
      <trkpt lat="48.73828" lon="1.80796">
        <ele>194.8</ele>
        <time>2026-01-31T11:22:26Z</time>
      </trkpt>
      <trkpt lat="48.73833" lon="1.80795">
        <ele>194.8</ele>
        <time>2026-01-31T11:22:27Z</time>
      </trkpt>
      <trkpt lat="48.73838" lon="1.80794">
        <ele>194.8</ele>
        <time>2026-01-31T11:22:28Z</time>
      </trkpt>
      <trkpt lat="48.73843" lon="1.80794">
        <ele>194.6</ele>
        <time>2026-01-31T11:22:29Z</time>
      </trkpt>
      <trkpt lat="48.73848" lon="1.80793">
        <ele>194.4</ele>
        <time>2026-01-31T11:22:30Z</time>
      </trkpt>
      <trkpt lat="48.73853" lon="1.80792">
        <ele>194.2</ele>
        <time>2026-01-31T11:22:31Z</time>
      </trkpt>
      <trkpt lat="48.73858" lon="1.80791">
        <ele>194.2</ele>
        <time>2026-01-31T11:22:32Z</time>
      </trkpt>
      <trkpt lat="48.73862" lon="1.8079">
        <ele>194</ele>
        <time>2026-01-31T11:22:33Z</time>
      </trkpt>
      <trkpt lat="48.73867" lon="1.80789">
        <ele>194</ele>
        <time>2026-01-31T11:22:34Z</time>
      </trkpt>
      <trkpt lat="48.73872" lon="1.80788">
        <ele>194</ele>
        <time>2026-01-31T11:22:35Z</time>
      </trkpt>
      <trkpt lat="48.73876" lon="1.80787">
        <ele>193.8</ele>
        <time>2026-01-31T11:22:36Z</time>
      </trkpt>
      <trkpt lat="48.7388" lon="1.80786">
        <ele>193.8</ele>
        <time>2026-01-31T11:22:37Z</time>
      </trkpt>
      <trkpt lat="48.73885" lon="1.80784">
        <ele>193.8</ele>
        <time>2026-01-31T11:22:38Z</time>
      </trkpt>
      <trkpt lat="48.7389" lon="1.80783">
        <ele>193.6</ele>
        <time>2026-01-31T11:22:39Z</time>
      </trkpt>
      <trkpt lat="48.73894" lon="1.80782">
        <ele>193.6</ele>
        <time>2026-01-31T11:22:40Z</time>
      </trkpt>
      <trkpt lat="48.739" lon="1.80781">
        <ele>193.4</ele>
        <time>2026-01-31T11:22:41Z</time>
      </trkpt>
      <trkpt lat="48.73904" lon="1.8078">
        <ele>193.4</ele>
        <time>2026-01-31T11:22:42Z</time>
      </trkpt>
      <trkpt lat="48.73909" lon="1.80779">
        <ele>193.4</ele>
        <time>2026-01-31T11:22:43Z</time>
      </trkpt>
      <trkpt lat="48.73914" lon="1.80778">
        <ele>193.4</ele>
        <time>2026-01-31T11:22:44Z</time>
      </trkpt>
      <trkpt lat="48.73919" lon="1.80777">
        <ele>193.4</ele>
        <time>2026-01-31T11:22:45Z</time>
      </trkpt>
      <trkpt lat="48.73923" lon="1.80776">
        <ele>193.4</ele>
        <time>2026-01-31T11:22:46Z</time>
      </trkpt>
      <trkpt lat="48.73927" lon="1.80776">
        <ele>193.4</ele>
        <time>2026-01-31T11:22:47Z</time>
      </trkpt>
      <trkpt lat="48.73932" lon="1.80775">
        <ele>193.4</ele>
        <time>2026-01-31T11:22:48Z</time>
      </trkpt>
      <trkpt lat="48.73935" lon="1.80775">
        <ele>193.2</ele>
        <time>2026-01-31T11:22:49Z</time>
      </trkpt>
      <trkpt lat="48.73938" lon="1.80774">
        <ele>193.2</ele>
        <time>2026-01-31T11:22:50Z</time>
      </trkpt>
      <trkpt lat="48.73942" lon="1.80774">
        <ele>193.2</ele>
        <time>2026-01-31T11:22:51Z</time>
      </trkpt>
      <trkpt lat="48.73945" lon="1.80773">
        <ele>193.2</ele>
        <time>2026-01-31T11:22:52Z</time>
      </trkpt>
      <trkpt lat="48.73948" lon="1.80773">
        <ele>193</ele>
        <time>2026-01-31T11:22:53Z</time>
      </trkpt>
      <trkpt lat="48.73951" lon="1.80772">
        <ele>193</ele>
        <time>2026-01-31T11:22:54Z</time>
      </trkpt>
      <trkpt lat="48.73954" lon="1.80772">
        <ele>192.8</ele>
        <time>2026-01-31T11:22:55Z</time>
      </trkpt>
      <trkpt lat="48.73957" lon="1.80772">
        <ele>192.6</ele>
        <time>2026-01-31T11:22:56Z</time>
      </trkpt>
      <trkpt lat="48.73961" lon="1.80772">
        <ele>192.6</ele>
        <time>2026-01-31T11:22:57Z</time>
      </trkpt>
      <trkpt lat="48.73964" lon="1.80771">
        <ele>192.4</ele>
        <time>2026-01-31T11:22:58Z</time>
      </trkpt>
      <trkpt lat="48.73967" lon="1.80771">
        <ele>192.4</ele>
        <time>2026-01-31T11:22:59Z</time>
      </trkpt>
      <trkpt lat="48.73971" lon="1.80771">
        <ele>192.4</ele>
        <time>2026-01-31T11:23:00Z</time>
      </trkpt>
      <trkpt lat="48.73974" lon="1.8077">
        <ele>192.2</ele>
        <time>2026-01-31T11:23:01Z</time>
      </trkpt>
      <trkpt lat="48.73978" lon="1.8077">
        <ele>192</ele>
        <time>2026-01-31T11:23:02Z</time>
      </trkpt>
      <trkpt lat="48.73981" lon="1.80769">
        <ele>191.8</ele>
        <time>2026-01-31T11:23:03Z</time>
      </trkpt>
      <trkpt lat="48.73984" lon="1.80769">
        <ele>191.6</ele>
        <time>2026-01-31T11:23:04Z</time>
      </trkpt>
      <trkpt lat="48.73987" lon="1.80769">
        <ele>191.4</ele>
        <time>2026-01-31T11:23:05Z</time>
      </trkpt>
      <trkpt lat="48.73989" lon="1.80769">
        <ele>191.4</ele>
        <time>2026-01-31T11:23:06Z</time>
      </trkpt>
      <trkpt lat="48.73991" lon="1.80769">
        <ele>191.4</ele>
        <time>2026-01-31T11:23:07Z</time>
      </trkpt>
      <trkpt lat="48.73994" lon="1.80768">
        <ele>191.2</ele>
        <time>2026-01-31T11:23:08Z</time>
      </trkpt>
      <trkpt lat="48.73996" lon="1.80768">
        <ele>191.2</ele>
        <time>2026-01-31T11:23:09Z</time>
      </trkpt>
      <trkpt lat="48.73998" lon="1.80767">
        <ele>191.4</ele>
        <time>2026-01-31T11:23:10Z</time>
      </trkpt>
      <trkpt lat="48.74001" lon="1.80767">
        <ele>191.4</ele>
        <time>2026-01-31T11:23:11Z</time>
      </trkpt>
      <trkpt lat="48.74003" lon="1.80765">
        <ele>191.4</ele>
        <time>2026-01-31T11:23:12Z</time>
      </trkpt>
      <trkpt lat="48.74006" lon="1.80764">
        <ele>191.4</ele>
        <time>2026-01-31T11:23:13Z</time>
      </trkpt>
      <trkpt lat="48.74009" lon="1.80763">
        <ele>191.4</ele>
        <time>2026-01-31T11:23:14Z</time>
      </trkpt>
      <trkpt lat="48.74012" lon="1.80762">
        <ele>191.4</ele>
        <time>2026-01-31T11:23:15Z</time>
      </trkpt>
      <trkpt lat="48.74015" lon="1.80762">
        <ele>191.6</ele>
        <time>2026-01-31T11:23:16Z</time>
      </trkpt>
      <trkpt lat="48.74019" lon="1.80761">
        <ele>191.6</ele>
        <time>2026-01-31T11:23:17Z</time>
      </trkpt>
      <trkpt lat="48.74021" lon="1.80761">
        <ele>191.6</ele>
        <time>2026-01-31T11:23:18Z</time>
      </trkpt>
      <trkpt lat="48.74024" lon="1.8076">
        <ele>191.6</ele>
        <time>2026-01-31T11:23:19Z</time>
      </trkpt>
      <trkpt lat="48.74027" lon="1.8076">
        <ele>191.6</ele>
        <time>2026-01-31T11:23:20Z</time>
      </trkpt>
      <trkpt lat="48.7403" lon="1.80759">
        <ele>191.6</ele>
        <time>2026-01-31T11:23:21Z</time>
      </trkpt>
      <trkpt lat="48.74033" lon="1.80758">
        <ele>191.6</ele>
        <time>2026-01-31T11:23:22Z</time>
      </trkpt>
      <trkpt lat="48.74037" lon="1.80757">
        <ele>191.6</ele>
        <time>2026-01-31T11:23:23Z</time>
      </trkpt>
      <trkpt lat="48.7404" lon="1.80756">
        <ele>191.8</ele>
        <time>2026-01-31T11:23:24Z</time>
      </trkpt>
      <trkpt lat="48.74043" lon="1.80755">
        <ele>191.8</ele>
        <time>2026-01-31T11:23:25Z</time>
      </trkpt>
      <trkpt lat="48.74046" lon="1.80754">
        <ele>192</ele>
        <time>2026-01-31T11:23:26Z</time>
      </trkpt>
      <trkpt lat="48.7405" lon="1.80754">
        <ele>192</ele>
        <time>2026-01-31T11:23:27Z</time>
      </trkpt>
      <trkpt lat="48.74053" lon="1.80753">
        <ele>192</ele>
        <time>2026-01-31T11:23:28Z</time>
      </trkpt>
      <trkpt lat="48.74056" lon="1.80752">
        <ele>192.2</ele>
        <time>2026-01-31T11:23:29Z</time>
      </trkpt>
      <trkpt lat="48.74059" lon="1.80752">
        <ele>192.2</ele>
        <time>2026-01-31T11:23:30Z</time>
      </trkpt>
      <trkpt lat="48.74062" lon="1.80751">
        <ele>192.2</ele>
        <time>2026-01-31T11:23:31Z</time>
      </trkpt>
      <trkpt lat="48.74065" lon="1.8075">
        <ele>192.2</ele>
        <time>2026-01-31T11:23:32Z</time>
      </trkpt>
      <trkpt lat="48.74068" lon="1.80749">
        <ele>192.2</ele>
        <time>2026-01-31T11:23:33Z</time>
      </trkpt>
      <trkpt lat="48.74071" lon="1.80749">
        <ele>192.2</ele>
        <time>2026-01-31T11:23:34Z</time>
      </trkpt>
      <trkpt lat="48.74075" lon="1.80748">
        <ele>192</ele>
        <time>2026-01-31T11:23:35Z</time>
      </trkpt>
      <trkpt lat="48.74078" lon="1.80747">
        <ele>192</ele>
        <time>2026-01-31T11:23:36Z</time>
      </trkpt>
      <trkpt lat="48.74081" lon="1.80747">
        <ele>192</ele>
        <time>2026-01-31T11:23:37Z</time>
      </trkpt>
      <trkpt lat="48.74085" lon="1.80746">
        <ele>192.2</ele>
        <time>2026-01-31T11:23:38Z</time>
      </trkpt>
      <trkpt lat="48.74088" lon="1.80745">
        <ele>192.2</ele>
        <time>2026-01-31T11:23:39Z</time>
      </trkpt>
      <trkpt lat="48.74092" lon="1.80745">
        <ele>192.2</ele>
        <time>2026-01-31T11:23:40Z</time>
      </trkpt>
      <trkpt lat="48.74096" lon="1.80744">
        <ele>192.2</ele>
        <time>2026-01-31T11:23:41Z</time>
      </trkpt>
      <trkpt lat="48.741" lon="1.80744">
        <ele>192.4</ele>
        <time>2026-01-31T11:23:42Z</time>
      </trkpt>
      <trkpt lat="48.74104" lon="1.80743">
        <ele>192.4</ele>
        <time>2026-01-31T11:23:43Z</time>
      </trkpt>
      <trkpt lat="48.74108" lon="1.80743">
        <ele>192.4</ele>
        <time>2026-01-31T11:23:44Z</time>
      </trkpt>
      <trkpt lat="48.74112" lon="1.80742">
        <ele>192.6</ele>
        <time>2026-01-31T11:23:45Z</time>
      </trkpt>
      <trkpt lat="48.74116" lon="1.80742">
        <ele>192.6</ele>
        <time>2026-01-31T11:23:46Z</time>
      </trkpt>
      <trkpt lat="48.7412" lon="1.80742">
        <ele>192.6</ele>
        <time>2026-01-31T11:23:47Z</time>
      </trkpt>
      <trkpt lat="48.74124" lon="1.80741">
        <ele>192.6</ele>
        <time>2026-01-31T11:23:48Z</time>
      </trkpt>
      <trkpt lat="48.74128" lon="1.8074">
        <ele>192.8</ele>
        <time>2026-01-31T11:23:49Z</time>
      </trkpt>
      <trkpt lat="48.74133" lon="1.80739">
        <ele>192.8</ele>
        <time>2026-01-31T11:23:50Z</time>
      </trkpt>
      <trkpt lat="48.74137" lon="1.80738">
        <ele>192.8</ele>
        <time>2026-01-31T11:23:51Z</time>
      </trkpt>
      <trkpt lat="48.74142" lon="1.80737">
        <ele>192.8</ele>
        <time>2026-01-31T11:23:52Z</time>
      </trkpt>
      <trkpt lat="48.74146" lon="1.80736">
        <ele>192.8</ele>
        <time>2026-01-31T11:23:53Z</time>
      </trkpt>
      <trkpt lat="48.74151" lon="1.80735">
        <ele>192.8</ele>
        <time>2026-01-31T11:23:54Z</time>
      </trkpt>
      <trkpt lat="48.74156" lon="1.80734">
        <ele>192.8</ele>
        <time>2026-01-31T11:23:55Z</time>
      </trkpt>
      <trkpt lat="48.7416" lon="1.80733">
        <ele>192.8</ele>
        <time>2026-01-31T11:23:56Z</time>
      </trkpt>
      <trkpt lat="48.74164" lon="1.80733">
        <ele>192.8</ele>
        <time>2026-01-31T11:23:57Z</time>
      </trkpt>
      <trkpt lat="48.74168" lon="1.80732">
        <ele>192.6</ele>
        <time>2026-01-31T11:23:58Z</time>
      </trkpt>
      <trkpt lat="48.74172" lon="1.80732">
        <ele>192.6</ele>
        <time>2026-01-31T11:23:59Z</time>
      </trkpt>
      <trkpt lat="48.74176" lon="1.80732">
        <ele>192.6</ele>
        <time>2026-01-31T11:24:00Z</time>
      </trkpt>
      <trkpt lat="48.7418" lon="1.80731">
        <ele>192.8</ele>
        <time>2026-01-31T11:24:01Z</time>
      </trkpt>
      <trkpt lat="48.74184" lon="1.80731">
        <ele>192.8</ele>
        <time>2026-01-31T11:24:02Z</time>
      </trkpt>
      <trkpt lat="48.74189" lon="1.8073">
        <ele>192.8</ele>
        <time>2026-01-31T11:24:03Z</time>
      </trkpt>
      <trkpt lat="48.74194" lon="1.80729">
        <ele>192.6</ele>
        <time>2026-01-31T11:24:04Z</time>
      </trkpt>
      <trkpt lat="48.74199" lon="1.80728">
        <ele>192.6</ele>
        <time>2026-01-31T11:24:05Z</time>
      </trkpt>
      <trkpt lat="48.74204" lon="1.80727">
        <ele>192.6</ele>
        <time>2026-01-31T11:24:06Z</time>
      </trkpt>
      <trkpt lat="48.74208" lon="1.80725">
        <ele>192.8</ele>
        <time>2026-01-31T11:24:07Z</time>
      </trkpt>
      <trkpt lat="48.74213" lon="1.80724">
        <ele>192.8</ele>
        <time>2026-01-31T11:24:08Z</time>
      </trkpt>
      <trkpt lat="48.74218" lon="1.80723">
        <ele>192.8</ele>
        <time>2026-01-31T11:24:09Z</time>
      </trkpt>
      <trkpt lat="48.74223" lon="1.80722">
        <ele>193</ele>
        <time>2026-01-31T11:24:10Z</time>
      </trkpt>
      <trkpt lat="48.74227" lon="1.80722">
        <ele>193</ele>
        <time>2026-01-31T11:24:11Z</time>
      </trkpt>
      <trkpt lat="48.74231" lon="1.80721">
        <ele>193.2</ele>
        <time>2026-01-31T11:24:12Z</time>
      </trkpt>
      <trkpt lat="48.74236" lon="1.8072">
        <ele>193.2</ele>
        <time>2026-01-31T11:24:13Z</time>
      </trkpt>
      <trkpt lat="48.7424" lon="1.8072">
        <ele>193.4</ele>
        <time>2026-01-31T11:24:14Z</time>
      </trkpt>
      <trkpt lat="48.74245" lon="1.80719">
        <ele>193.6</ele>
        <time>2026-01-31T11:24:15Z</time>
      </trkpt>
      <trkpt lat="48.74249" lon="1.80718">
        <ele>193.8</ele>
        <time>2026-01-31T11:24:16Z</time>
      </trkpt>
      <trkpt lat="48.74254" lon="1.80717">
        <ele>194</ele>
        <time>2026-01-31T11:24:17Z</time>
      </trkpt>
      <trkpt lat="48.74258" lon="1.80716">
        <ele>194.2</ele>
        <time>2026-01-31T11:24:18Z</time>
      </trkpt>
      <trkpt lat="48.74263" lon="1.80715">
        <ele>194.4</ele>
        <time>2026-01-31T11:24:19Z</time>
      </trkpt>
      <trkpt lat="48.74267" lon="1.80714">
        <ele>194.4</ele>
        <time>2026-01-31T11:24:20Z</time>
      </trkpt>
      <trkpt lat="48.74272" lon="1.80713">
        <ele>194.6</ele>
        <time>2026-01-31T11:24:21Z</time>
      </trkpt>
      <trkpt lat="48.74277" lon="1.80712">
        <ele>194.6</ele>
        <time>2026-01-31T11:24:22Z</time>
      </trkpt>
      <trkpt lat="48.74282" lon="1.80711">
        <ele>194.8</ele>
        <time>2026-01-31T11:24:23Z</time>
      </trkpt>
      <trkpt lat="48.74287" lon="1.8071">
        <ele>194.8</ele>
        <time>2026-01-31T11:24:24Z</time>
      </trkpt>
      <trkpt lat="48.74292" lon="1.80708">
        <ele>194.8</ele>
        <time>2026-01-31T11:24:25Z</time>
      </trkpt>
      <trkpt lat="48.74298" lon="1.80706">
        <ele>194.8</ele>
        <time>2026-01-31T11:24:26Z</time>
      </trkpt>
      <trkpt lat="48.74303" lon="1.80705">
        <ele>194.8</ele>
        <time>2026-01-31T11:24:27Z</time>
      </trkpt>
      <trkpt lat="48.74308" lon="1.80703">
        <ele>194.8</ele>
        <time>2026-01-31T11:24:28Z</time>
      </trkpt>
      <trkpt lat="48.74313" lon="1.80702">
        <ele>195</ele>
        <time>2026-01-31T11:24:29Z</time>
      </trkpt>
      <trkpt lat="48.74317" lon="1.80701">
        <ele>195</ele>
        <time>2026-01-31T11:24:30Z</time>
      </trkpt>
      <trkpt lat="48.74321" lon="1.80701">
        <ele>195</ele>
        <time>2026-01-31T11:24:31Z</time>
      </trkpt>
      <trkpt lat="48.74325" lon="1.807">
        <ele>195</ele>
        <time>2026-01-31T11:24:32Z</time>
      </trkpt>
      <trkpt lat="48.74329" lon="1.807">
        <ele>195</ele>
        <time>2026-01-31T11:24:33Z</time>
      </trkpt>
      <trkpt lat="48.74332" lon="1.807">
        <ele>195</ele>
        <time>2026-01-31T11:24:34Z</time>
      </trkpt>
      <trkpt lat="48.74335" lon="1.807">
        <ele>195</ele>
        <time>2026-01-31T11:24:35Z</time>
      </trkpt>
      <trkpt lat="48.74338" lon="1.80699">
        <ele>195</ele>
        <time>2026-01-31T11:24:36Z</time>
      </trkpt>
      <trkpt lat="48.7434" lon="1.80698">
        <ele>195</ele>
        <time>2026-01-31T11:24:37Z</time>
      </trkpt>
      <trkpt lat="48.74343" lon="1.80698">
        <ele>195</ele>
        <time>2026-01-31T11:24:38Z</time>
      </trkpt>
      <trkpt lat="48.74347" lon="1.80696">
        <ele>195.2</ele>
        <time>2026-01-31T11:24:39Z</time>
      </trkpt>
      <trkpt lat="48.74349" lon="1.80695">
        <ele>195.2</ele>
        <time>2026-01-31T11:24:40Z</time>
      </trkpt>
      <trkpt lat="48.74353" lon="1.80694">
        <ele>195.2</ele>
        <time>2026-01-31T11:24:41Z</time>
      </trkpt>
      <trkpt lat="48.74356" lon="1.80693">
        <ele>195.2</ele>
        <time>2026-01-31T11:24:42Z</time>
      </trkpt>
      <trkpt lat="48.74359" lon="1.80692">
        <ele>195.2</ele>
        <time>2026-01-31T11:24:43Z</time>
      </trkpt>
      <trkpt lat="48.74363" lon="1.80692">
        <ele>195.2</ele>
        <time>2026-01-31T11:24:44Z</time>
      </trkpt>
      <trkpt lat="48.74366" lon="1.80691">
        <ele>195.2</ele>
        <time>2026-01-31T11:24:45Z</time>
      </trkpt>
      <trkpt lat="48.74369" lon="1.8069">
        <ele>195</ele>
        <time>2026-01-31T11:24:46Z</time>
      </trkpt>
      <trkpt lat="48.74373" lon="1.8069">
        <ele>195</ele>
        <time>2026-01-31T11:24:47Z</time>
      </trkpt>
      <trkpt lat="48.74376" lon="1.80689">
        <ele>194.8</ele>
        <time>2026-01-31T11:24:48Z</time>
      </trkpt>
      <trkpt lat="48.74379" lon="1.80688">
        <ele>194.8</ele>
        <time>2026-01-31T11:24:49Z</time>
      </trkpt>
      <trkpt lat="48.74383" lon="1.80687">
        <ele>194.6</ele>
        <time>2026-01-31T11:24:50Z</time>
      </trkpt>
      <trkpt lat="48.74386" lon="1.80686">
        <ele>194.6</ele>
        <time>2026-01-31T11:24:51Z</time>
      </trkpt>
      <trkpt lat="48.7439" lon="1.80685">
        <ele>194.6</ele>
        <time>2026-01-31T11:24:52Z</time>
      </trkpt>
      <trkpt lat="48.74393" lon="1.80684">
        <ele>194.8</ele>
        <time>2026-01-31T11:24:53Z</time>
      </trkpt>
      <trkpt lat="48.74396" lon="1.80683">
        <ele>194.8</ele>
        <time>2026-01-31T11:24:54Z</time>
      </trkpt>
      <trkpt lat="48.744" lon="1.80682">
        <ele>194.8</ele>
        <time>2026-01-31T11:24:55Z</time>
      </trkpt>
      <trkpt lat="48.74404" lon="1.80682">
        <ele>195</ele>
        <time>2026-01-31T11:24:56Z</time>
      </trkpt>
      <trkpt lat="48.74407" lon="1.80681">
        <ele>195</ele>
        <time>2026-01-31T11:24:57Z</time>
      </trkpt>
      <trkpt lat="48.7441" lon="1.80681">
        <ele>195.2</ele>
        <time>2026-01-31T11:24:58Z</time>
      </trkpt>
      <trkpt lat="48.74413" lon="1.8068">
        <ele>195.2</ele>
        <time>2026-01-31T11:24:59Z</time>
      </trkpt>
      <trkpt lat="48.74416" lon="1.80679">
        <ele>195.2</ele>
        <time>2026-01-31T11:25:00Z</time>
      </trkpt>
      <trkpt lat="48.7442" lon="1.80678">
        <ele>195.2</ele>
        <time>2026-01-31T11:25:01Z</time>
      </trkpt>
      <trkpt lat="48.74422" lon="1.80677">
        <ele>195.2</ele>
        <time>2026-01-31T11:25:02Z</time>
      </trkpt>
      <trkpt lat="48.74424" lon="1.80677">
        <ele>195.2</ele>
        <time>2026-01-31T11:25:03Z</time>
      </trkpt>
      <trkpt lat="48.74426" lon="1.80676">
        <ele>195.2</ele>
        <time>2026-01-31T11:25:04Z</time>
      </trkpt>
      <trkpt lat="48.74429" lon="1.80676">
        <ele>195.2</ele>
        <time>2026-01-31T11:25:06Z</time>
      </trkpt>
      <trkpt lat="48.74432" lon="1.80676">
        <ele>195.4</ele>
        <time>2026-01-31T11:25:08Z</time>
      </trkpt>
      <trkpt lat="48.74435" lon="1.80675">
        <ele>195.6</ele>
        <time>2026-01-31T11:25:10Z</time>
      </trkpt>
      <trkpt lat="48.74438" lon="1.80674">
        <ele>195.6</ele>
        <time>2026-01-31T11:25:12Z</time>
      </trkpt>
      <trkpt lat="48.7444" lon="1.80672">
        <ele>195.6</ele>
        <time>2026-01-31T11:25:14Z</time>
      </trkpt>
      <trkpt lat="48.74442" lon="1.80671">
        <ele>195.8</ele>
        <time>2026-01-31T11:25:16Z</time>
      </trkpt>
      <trkpt lat="48.74444" lon="1.8067">
        <ele>195.8</ele>
        <time>2026-01-31T11:25:18Z</time>
      </trkpt>
      <trkpt lat="48.74446" lon="1.8067">
        <ele>196</ele>
        <time>2026-01-31T11:25:20Z</time>
      </trkpt>
      <trkpt lat="48.7445" lon="1.8067">
        <ele>196</ele>
        <time>2026-01-31T11:25:22Z</time>
      </trkpt>
      <trkpt lat="48.74453" lon="1.80671">
        <ele>195.8</ele>
        <time>2026-01-31T11:25:24Z</time>
      </trkpt>
      <trkpt lat="48.74456" lon="1.8067">
        <ele>195.8</ele>
        <time>2026-01-31T11:25:26Z</time>
      </trkpt>
      <trkpt lat="48.7446" lon="1.8067">
        <ele>195.6</ele>
        <time>2026-01-31T11:25:28Z</time>
      </trkpt>
      <trkpt lat="48.74462" lon="1.80669">
        <ele>195.4</ele>
        <time>2026-01-31T11:25:30Z</time>
      </trkpt>
      <trkpt lat="48.74465" lon="1.80668">
        <ele>195.2</ele>
        <time>2026-01-31T11:25:32Z</time>
      </trkpt>
      <trkpt lat="48.74468" lon="1.80667">
        <ele>195</ele>
        <time>2026-01-31T11:25:34Z</time>
      </trkpt>
      <trkpt lat="48.7447" lon="1.80665">
        <ele>194.8</ele>
        <time>2026-01-31T11:25:36Z</time>
      </trkpt>
      <trkpt lat="48.74472" lon="1.80663">
        <ele>194.6</ele>
        <time>2026-01-31T11:25:38Z</time>
      </trkpt>
      <trkpt lat="48.74474" lon="1.8066">
        <ele>194.2</ele>
        <time>2026-01-31T11:25:40Z</time>
      </trkpt>
      <trkpt lat="48.74475" lon="1.80657">
        <ele>194</ele>
        <time>2026-01-31T11:25:42Z</time>
      </trkpt>
      <trkpt lat="48.74475" lon="1.80654">
        <ele>193.8</ele>
        <time>2026-01-31T11:25:44Z</time>
      </trkpt>
      <trkpt lat="48.74475" lon="1.80651">
        <ele>193.8</ele>
        <time>2026-01-31T11:25:46Z</time>
      </trkpt>
      <trkpt lat="48.74476" lon="1.80648">
        <ele>193.6</ele>
        <time>2026-01-31T11:25:48Z</time>
      </trkpt>
      <trkpt lat="48.74477" lon="1.80645">
        <ele>193.6</ele>
        <time>2026-01-31T11:25:50Z</time>
      </trkpt>
      <trkpt lat="48.7448" lon="1.80642">
        <ele>193.6</ele>
        <time>2026-01-31T11:25:52Z</time>
      </trkpt>
      <trkpt lat="48.74481" lon="1.80641">
        <ele>193.6</ele>
        <time>2026-01-31T11:25:53Z</time>
      </trkpt>
      <trkpt lat="48.74484" lon="1.80638">
        <ele>193.6</ele>
        <time>2026-01-31T11:25:55Z</time>
      </trkpt>
      <trkpt lat="48.74485" lon="1.80635">
        <ele>193.6</ele>
        <time>2026-01-31T11:25:57Z</time>
      </trkpt>
      <trkpt lat="48.74486" lon="1.80631">
        <ele>193.4</ele>
        <time>2026-01-31T11:26:00Z</time>
      </trkpt>
      <trkpt lat="48.74486" lon="1.80627">
        <ele>193</ele>
        <time>2026-01-31T11:26:04Z</time>
      </trkpt>
      <trkpt lat="48.74487" lon="1.80624">
        <ele>192.8</ele>
        <time>2026-01-31T11:26:07Z</time>
      </trkpt>
      <trkpt lat="48.74488" lon="1.80621">
        <ele>192.8</ele>
        <time>2026-01-31T11:26:09Z</time>
      </trkpt>
      <trkpt lat="48.74489" lon="1.80618">
        <ele>192.4</ele>
        <time>2026-01-31T11:26:11Z</time>
      </trkpt>
      <trkpt lat="48.74489" lon="1.80615">
        <ele>192</ele>
        <time>2026-01-31T11:26:13Z</time>
      </trkpt>
      <trkpt lat="48.74488" lon="1.80612">
        <ele>191.6</ele>
        <time>2026-01-31T11:26:15Z</time>
      </trkpt>
      <trkpt lat="48.74488" lon="1.80609">
        <ele>191</ele>
        <time>2026-01-31T11:26:17Z</time>
      </trkpt>
      <trkpt lat="48.74488" lon="1.80605">
        <ele>190.6</ele>
        <time>2026-01-31T11:26:19Z</time>
      </trkpt>
      <trkpt lat="48.74487" lon="1.80601">
        <ele>190.2</ele>
        <time>2026-01-31T11:26:21Z</time>
      </trkpt>
      <trkpt lat="48.74486" lon="1.80598">
        <ele>190</ele>
        <time>2026-01-31T11:26:23Z</time>
      </trkpt>
      <trkpt lat="48.74486" lon="1.80595">
        <ele>189.8</ele>
        <time>2026-01-31T11:26:25Z</time>
      </trkpt>
      <trkpt lat="48.74486" lon="1.80591">
        <ele>189.6</ele>
        <time>2026-01-31T11:26:27Z</time>
      </trkpt>
      <trkpt lat="48.74486" lon="1.80588">
        <ele>189.6</ele>
        <time>2026-01-31T11:26:29Z</time>
      </trkpt>
      <trkpt lat="48.74485" lon="1.80585">
        <ele>189.6</ele>
        <time>2026-01-31T11:26:31Z</time>
      </trkpt>
      <trkpt lat="48.74484" lon="1.80582">
        <ele>189.6</ele>
        <time>2026-01-31T11:26:33Z</time>
      </trkpt>
      <trkpt lat="48.74484" lon="1.80578">
        <ele>189.4</ele>
        <time>2026-01-31T11:26:35Z</time>
      </trkpt>
      <trkpt lat="48.74483" lon="1.80573">
        <ele>189.2</ele>
        <time>2026-01-31T11:26:37Z</time>
      </trkpt>
      <trkpt lat="48.74482" lon="1.80568">
        <ele>189</ele>
        <time>2026-01-31T11:26:39Z</time>
      </trkpt>
      <trkpt lat="48.74482" lon="1.80563">
        <ele>188.8</ele>
        <time>2026-01-31T11:26:41Z</time>
      </trkpt>
      <trkpt lat="48.74481" lon="1.80559">
        <ele>188.8</ele>
        <time>2026-01-31T11:26:43Z</time>
      </trkpt>
      <trkpt lat="48.74481" lon="1.80555">
        <ele>188.6</ele>
        <time>2026-01-31T11:26:45Z</time>
      </trkpt>
      <trkpt lat="48.74482" lon="1.80551">
        <ele>188.6</ele>
        <time>2026-01-31T11:26:47Z</time>
      </trkpt>
      <trkpt lat="48.74482" lon="1.80547">
        <ele>188.4</ele>
        <time>2026-01-31T11:26:49Z</time>
      </trkpt>
      <trkpt lat="48.74483" lon="1.80542">
        <ele>188.2</ele>
        <time>2026-01-31T11:26:51Z</time>
      </trkpt>
      <trkpt lat="48.74483" lon="1.80539">
        <ele>188</ele>
        <time>2026-01-31T11:26:52Z</time>
      </trkpt>
      <trkpt lat="48.74483" lon="1.80536">
        <ele>187.8</ele>
        <time>2026-01-31T11:26:53Z</time>
      </trkpt>
      <trkpt lat="48.74483" lon="1.80533">
        <ele>187.6</ele>
        <time>2026-01-31T11:26:54Z</time>
      </trkpt>
      <trkpt lat="48.74482" lon="1.80531">
        <ele>187.4</ele>
        <time>2026-01-31T11:26:55Z</time>
      </trkpt>
      <trkpt lat="48.74481" lon="1.80528">
        <ele>187.4</ele>
        <time>2026-01-31T11:26:56Z</time>
      </trkpt>
      <trkpt lat="48.74481" lon="1.80523">
        <ele>187</ele>
        <time>2026-01-31T11:26:58Z</time>
      </trkpt>
      <trkpt lat="48.74481" lon="1.80519">
        <ele>186.6</ele>
        <time>2026-01-31T11:27:00Z</time>
      </trkpt>
      <trkpt lat="48.74482" lon="1.80516">
        <ele>186.4</ele>
        <time>2026-01-31T11:27:02Z</time>
      </trkpt>
      <trkpt lat="48.74482" lon="1.80512">
        <ele>186</ele>
        <time>2026-01-31T11:27:05Z</time>
      </trkpt>
      <trkpt lat="48.74482" lon="1.80508">
        <ele>186</ele>
        <time>2026-01-31T11:27:08Z</time>
      </trkpt>
      <trkpt lat="48.74482" lon="1.80505">
        <ele>186</ele>
        <time>2026-01-31T11:27:10Z</time>
      </trkpt>
      <trkpt lat="48.74481" lon="1.80501">
        <ele>186.2</ele>
        <time>2026-01-31T11:27:12Z</time>
      </trkpt>
      <trkpt lat="48.74481" lon="1.80498">
        <ele>186.4</ele>
        <time>2026-01-31T11:27:14Z</time>
      </trkpt>
      <trkpt lat="48.7448" lon="1.80494">
        <ele>186.4</ele>
        <time>2026-01-31T11:27:16Z</time>
      </trkpt>
      <trkpt lat="48.7448" lon="1.8049">
        <ele>186.6</ele>
        <time>2026-01-31T11:27:18Z</time>
      </trkpt>
      <trkpt lat="48.7448" lon="1.80487">
        <ele>186.6</ele>
        <time>2026-01-31T11:27:20Z</time>
      </trkpt>
      <trkpt lat="48.7448" lon="1.80484">
        <ele>186.6</ele>
        <time>2026-01-31T11:27:22Z</time>
      </trkpt>
      <trkpt lat="48.7448" lon="1.80481">
        <ele>186.6</ele>
        <time>2026-01-31T11:27:24Z</time>
      </trkpt>
      <trkpt lat="48.74479" lon="1.80477">
        <ele>186.4</ele>
        <time>2026-01-31T11:27:26Z</time>
      </trkpt>
      <trkpt lat="48.74478" lon="1.80473">
        <ele>186.6</ele>
        <time>2026-01-31T11:27:28Z</time>
      </trkpt>
      <trkpt lat="48.74476" lon="1.8047">
        <ele>186.6</ele>
        <time>2026-01-31T11:27:30Z</time>
      </trkpt>
      <trkpt lat="48.74475" lon="1.80467">
        <ele>186.6</ele>
        <time>2026-01-31T11:27:32Z</time>
      </trkpt>
      <trkpt lat="48.74476" lon="1.80464">
        <ele>186.4</ele>
        <time>2026-01-31T11:27:35Z</time>
      </trkpt>
      <trkpt lat="48.74477" lon="1.80461">
        <ele>186.6</ele>
        <time>2026-01-31T11:27:38Z</time>
      </trkpt>
      <trkpt lat="48.74478" lon="1.80457">
        <ele>186.6</ele>
        <time>2026-01-31T11:27:40Z</time>
      </trkpt>
      <trkpt lat="48.7448" lon="1.80454">
        <ele>186.6</ele>
        <time>2026-01-31T11:27:42Z</time>
      </trkpt>
      <trkpt lat="48.7448" lon="1.80449">
        <ele>186.4</ele>
        <time>2026-01-31T11:27:44Z</time>
      </trkpt>
      <trkpt lat="48.74481" lon="1.80447">
        <ele>186.4</ele>
        <time>2026-01-31T11:27:45Z</time>
      </trkpt>
      <trkpt lat="48.74483" lon="1.80441">
        <ele>186.4</ele>
        <time>2026-01-31T11:27:47Z</time>
      </trkpt>
      <trkpt lat="48.74484" lon="1.80439">
        <ele>186.4</ele>
        <time>2026-01-31T11:27:48Z</time>
      </trkpt>
      <trkpt lat="48.74484" lon="1.80436">
        <ele>186.4</ele>
        <time>2026-01-31T11:27:49Z</time>
      </trkpt>
      <trkpt lat="48.74484" lon="1.80433">
        <ele>186.4</ele>
        <time>2026-01-31T11:27:50Z</time>
      </trkpt>
      <trkpt lat="48.74485" lon="1.8043">
        <ele>186.6</ele>
        <time>2026-01-31T11:27:51Z</time>
      </trkpt>
      <trkpt lat="48.74486" lon="1.80425">
        <ele>186.8</ele>
        <time>2026-01-31T11:27:53Z</time>
      </trkpt>
      <trkpt lat="48.74487" lon="1.8042">
        <ele>187</ele>
        <time>2026-01-31T11:27:55Z</time>
      </trkpt>
      <trkpt lat="48.74487" lon="1.80416">
        <ele>187.2</ele>
        <time>2026-01-31T11:27:57Z</time>
      </trkpt>
      <trkpt lat="48.74487" lon="1.80411">
        <ele>187.4</ele>
        <time>2026-01-31T11:27:59Z</time>
      </trkpt>
      <trkpt lat="48.74486" lon="1.80406">
        <ele>187.6</ele>
        <time>2026-01-31T11:28:01Z</time>
      </trkpt>
      <trkpt lat="48.74485" lon="1.80401">
        <ele>187.6</ele>
        <time>2026-01-31T11:28:03Z</time>
      </trkpt>
      <trkpt lat="48.74485" lon="1.80398">
        <ele>187.8</ele>
        <time>2026-01-31T11:28:04Z</time>
      </trkpt>
      <trkpt lat="48.74485" lon="1.80395">
        <ele>187.8</ele>
        <time>2026-01-31T11:28:05Z</time>
      </trkpt>
      <trkpt lat="48.74485" lon="1.80392">
        <ele>187.8</ele>
        <time>2026-01-31T11:28:06Z</time>
      </trkpt>
      <trkpt lat="48.74485" lon="1.80389">
        <ele>188</ele>
        <time>2026-01-31T11:28:07Z</time>
      </trkpt>
      <trkpt lat="48.74485" lon="1.80386">
        <ele>188</ele>
        <time>2026-01-31T11:28:08Z</time>
      </trkpt>
      <trkpt lat="48.74485" lon="1.80383">
        <ele>188</ele>
        <time>2026-01-31T11:28:09Z</time>
      </trkpt>
      <trkpt lat="48.74484" lon="1.80378">
        <ele>188</ele>
        <time>2026-01-31T11:28:11Z</time>
      </trkpt>
      <trkpt lat="48.74484" lon="1.80373">
        <ele>188</ele>
        <time>2026-01-31T11:28:13Z</time>
      </trkpt>
      <trkpt lat="48.74482" lon="1.80369">
        <ele>188</ele>
        <time>2026-01-31T11:28:15Z</time>
      </trkpt>
      <trkpt lat="48.74482" lon="1.80366">
        <ele>188</ele>
        <time>2026-01-31T11:28:17Z</time>
      </trkpt>
      <trkpt lat="48.74482" lon="1.80362">
        <ele>188</ele>
        <time>2026-01-31T11:28:19Z</time>
      </trkpt>
      <trkpt lat="48.74482" lon="1.80359">
        <ele>187.8</ele>
        <time>2026-01-31T11:28:21Z</time>
      </trkpt>
      <trkpt lat="48.74482" lon="1.80356">
        <ele>187.8</ele>
        <time>2026-01-31T11:28:24Z</time>
      </trkpt>
      <trkpt lat="48.74482" lon="1.80353">
        <ele>187.8</ele>
        <time>2026-01-31T11:28:28Z</time>
      </trkpt>
      <trkpt lat="48.74482" lon="1.80349">
        <ele>188.2</ele>
        <time>2026-01-31T11:28:32Z</time>
      </trkpt>
      <trkpt lat="48.74482" lon="1.80345">
        <ele>188.2</ele>
        <time>2026-01-31T11:28:34Z</time>
      </trkpt>
      <trkpt lat="48.7448" lon="1.80341">
        <ele>188.2</ele>
        <time>2026-01-31T11:28:36Z</time>
      </trkpt>
      <trkpt lat="48.74478" lon="1.80336">
        <ele>188</ele>
        <time>2026-01-31T11:28:38Z</time>
      </trkpt>
      <trkpt lat="48.74477" lon="1.80332">
        <ele>188</ele>
        <time>2026-01-31T11:28:40Z</time>
      </trkpt>
      <trkpt lat="48.74477" lon="1.80328">
        <ele>187.8</ele>
        <time>2026-01-31T11:28:42Z</time>
      </trkpt>
      <trkpt lat="48.74477" lon="1.80324">
        <ele>187.8</ele>
        <time>2026-01-31T11:28:44Z</time>
      </trkpt>
      <trkpt lat="48.74477" lon="1.8032">
        <ele>187.6</ele>
        <time>2026-01-31T11:28:46Z</time>
      </trkpt>
      <trkpt lat="48.74477" lon="1.80316">
        <ele>187.6</ele>
        <time>2026-01-31T11:28:48Z</time>
      </trkpt>
      <trkpt lat="48.74478" lon="1.80312">
        <ele>187.4</ele>
        <time>2026-01-31T11:28:50Z</time>
      </trkpt>
      <trkpt lat="48.74479" lon="1.80308">
        <ele>187.4</ele>
        <time>2026-01-31T11:28:52Z</time>
      </trkpt>
      <trkpt lat="48.7448" lon="1.80305">
        <ele>187.4</ele>
        <time>2026-01-31T11:28:54Z</time>
      </trkpt>
      <trkpt lat="48.74481" lon="1.80302">
        <ele>187.2</ele>
        <time>2026-01-31T11:28:56Z</time>
      </trkpt>
      <trkpt lat="48.74481" lon="1.80299">
        <ele>187.2</ele>
        <time>2026-01-31T11:28:58Z</time>
      </trkpt>
      <trkpt lat="48.7448" lon="1.80295">
        <ele>187</ele>
        <time>2026-01-31T11:29:00Z</time>
      </trkpt>
      <trkpt lat="48.7448" lon="1.80291">
        <ele>186.6</ele>
        <time>2026-01-31T11:29:02Z</time>
      </trkpt>
      <trkpt lat="48.7448" lon="1.80287">
        <ele>186.4</ele>
        <time>2026-01-31T11:29:04Z</time>
      </trkpt>
      <trkpt lat="48.7448" lon="1.80284">
        <ele>186.2</ele>
        <time>2026-01-31T11:29:06Z</time>
      </trkpt>
      <trkpt lat="48.74479" lon="1.80281">
        <ele>186</ele>
        <time>2026-01-31T11:29:08Z</time>
      </trkpt>
      <trkpt lat="48.74477" lon="1.80277">
        <ele>185.8</ele>
        <time>2026-01-31T11:29:10Z</time>
      </trkpt>
      <trkpt lat="48.74476" lon="1.80275">
        <ele>185.4</ele>
        <time>2026-01-31T11:29:12Z</time>
      </trkpt>
      <trkpt lat="48.74475" lon="1.80271">
        <ele>185</ele>
        <time>2026-01-31T11:29:15Z</time>
      </trkpt>
      <trkpt lat="48.74474" lon="1.80268">
        <ele>185</ele>
        <time>2026-01-31T11:29:17Z</time>
      </trkpt>
      <trkpt lat="48.74474" lon="1.80264">
        <ele>184.8</ele>
        <time>2026-01-31T11:29:19Z</time>
      </trkpt>
      <trkpt lat="48.74473" lon="1.80258">
        <ele>184.8</ele>
        <time>2026-01-31T11:29:22Z</time>
      </trkpt>
      <trkpt lat="48.74472" lon="1.80256">
        <ele>184.8</ele>
        <time>2026-01-31T11:29:24Z</time>
      </trkpt>
      <trkpt lat="48.74471" lon="1.80253">
        <ele>185</ele>
        <time>2026-01-31T11:29:28Z</time>
      </trkpt>
      <trkpt lat="48.7447" lon="1.80249">
        <ele>185</ele>
        <time>2026-01-31T11:29:30Z</time>
      </trkpt>
      <trkpt lat="48.7447" lon="1.80245">
        <ele>185.2</ele>
        <time>2026-01-31T11:29:32Z</time>
      </trkpt>
      <trkpt lat="48.7447" lon="1.80241">
        <ele>185.2</ele>
        <time>2026-01-31T11:29:34Z</time>
      </trkpt>
      <trkpt lat="48.7447" lon="1.80236">
        <ele>185.2</ele>
        <time>2026-01-31T11:29:36Z</time>
      </trkpt>
      <trkpt lat="48.74469" lon="1.80232">
        <ele>185</ele>
        <time>2026-01-31T11:29:38Z</time>
      </trkpt>
      <trkpt lat="48.74468" lon="1.80229">
        <ele>185</ele>
        <time>2026-01-31T11:29:40Z</time>
      </trkpt>
      <trkpt lat="48.74468" lon="1.80226">
        <ele>185.2</ele>
        <time>2026-01-31T11:29:42Z</time>
      </trkpt>
      <trkpt lat="48.74467" lon="1.80222">
        <ele>185.2</ele>
        <time>2026-01-31T11:29:44Z</time>
      </trkpt>
      <trkpt lat="48.74466" lon="1.80219">
        <ele>185.2</ele>
        <time>2026-01-31T11:29:46Z</time>
      </trkpt>
      <trkpt lat="48.74466" lon="1.80215">
        <ele>185.4</ele>
        <time>2026-01-31T11:29:48Z</time>
      </trkpt>
      <trkpt lat="48.74465" lon="1.80212">
        <ele>185.2</ele>
        <time>2026-01-31T11:29:50Z</time>
      </trkpt>
      <trkpt lat="48.74465" lon="1.80208">
        <ele>185.2</ele>
        <time>2026-01-31T11:29:52Z</time>
      </trkpt>
      <trkpt lat="48.74464" lon="1.80204">
        <ele>185</ele>
        <time>2026-01-31T11:29:54Z</time>
      </trkpt>
      <trkpt lat="48.74465" lon="1.802">
        <ele>184.8</ele>
        <time>2026-01-31T11:29:56Z</time>
      </trkpt>
      <trkpt lat="48.74465" lon="1.80195">
        <ele>184.8</ele>
        <time>2026-01-31T11:29:58Z</time>
      </trkpt>
      <trkpt lat="48.74466" lon="1.8019">
        <ele>184.6</ele>
        <time>2026-01-31T11:30:00Z</time>
      </trkpt>
      <trkpt lat="48.74466" lon="1.80185">
        <ele>184.4</ele>
        <time>2026-01-31T11:30:02Z</time>
      </trkpt>
      <trkpt lat="48.74466" lon="1.80181">
        <ele>184.2</ele>
        <time>2026-01-31T11:30:04Z</time>
      </trkpt>
      <trkpt lat="48.74466" lon="1.80178">
        <ele>184</ele>
        <time>2026-01-31T11:30:06Z</time>
      </trkpt>
      <trkpt lat="48.74464" lon="1.80175">
        <ele>184</ele>
        <time>2026-01-31T11:30:08Z</time>
      </trkpt>
      <trkpt lat="48.74462" lon="1.80173">
        <ele>183.8</ele>
        <time>2026-01-31T11:30:10Z</time>
      </trkpt>
      <trkpt lat="48.74462" lon="1.8017">
        <ele>183.8</ele>
        <time>2026-01-31T11:30:12Z</time>
      </trkpt>
      <trkpt lat="48.74462" lon="1.80167">
        <ele>183.6</ele>
        <time>2026-01-31T11:30:14Z</time>
      </trkpt>
      <trkpt lat="48.74462" lon="1.80163">
        <ele>183.4</ele>
        <time>2026-01-31T11:30:16Z</time>
      </trkpt>
      <trkpt lat="48.74462" lon="1.80158">
        <ele>183.4</ele>
        <time>2026-01-31T11:30:18Z</time>
      </trkpt>
      <trkpt lat="48.74462" lon="1.80154">
        <ele>183.2</ele>
        <time>2026-01-31T11:30:20Z</time>
      </trkpt>
      <trkpt lat="48.74462" lon="1.80149">
        <ele>183.2</ele>
        <time>2026-01-31T11:30:22Z</time>
      </trkpt>
      <trkpt lat="48.74462" lon="1.80143">
        <ele>183</ele>
        <time>2026-01-31T11:30:24Z</time>
      </trkpt>
      <trkpt lat="48.74462" lon="1.80141">
        <ele>183</ele>
        <time>2026-01-31T11:30:25Z</time>
      </trkpt>
      <trkpt lat="48.74463" lon="1.80138">
        <ele>182.8</ele>
        <time>2026-01-31T11:30:26Z</time>
      </trkpt>
      <trkpt lat="48.74463" lon="1.80135">
        <ele>182.8</ele>
        <time>2026-01-31T11:30:27Z</time>
      </trkpt>
      <trkpt lat="48.74464" lon="1.80132">
        <ele>182.8</ele>
        <time>2026-01-31T11:30:28Z</time>
      </trkpt>
      <trkpt lat="48.74464" lon="1.80129">
        <ele>182.8</ele>
        <time>2026-01-31T11:30:29Z</time>
      </trkpt>
      <trkpt lat="48.74464" lon="1.80125">
        <ele>182.6</ele>
        <time>2026-01-31T11:30:31Z</time>
      </trkpt>
      <trkpt lat="48.74464" lon="1.8012">
        <ele>182.6</ele>
        <time>2026-01-31T11:30:33Z</time>
      </trkpt>
      <trkpt lat="48.74462" lon="1.80117">
        <ele>182.6</ele>
        <time>2026-01-31T11:30:35Z</time>
      </trkpt>
      <trkpt lat="48.74461" lon="1.80113">
        <ele>182.6</ele>
        <time>2026-01-31T11:30:37Z</time>
      </trkpt>
      <trkpt lat="48.7446" lon="1.80108">
        <ele>182.6</ele>
        <time>2026-01-31T11:30:39Z</time>
      </trkpt>
      <trkpt lat="48.7446" lon="1.80105">
        <ele>182.8</ele>
        <time>2026-01-31T11:30:40Z</time>
      </trkpt>
      <trkpt lat="48.7446" lon="1.80102">
        <ele>182.8</ele>
        <time>2026-01-31T11:30:41Z</time>
      </trkpt>
      <trkpt lat="48.7446" lon="1.80099">
        <ele>182.8</ele>
        <time>2026-01-31T11:30:42Z</time>
      </trkpt>
      <trkpt lat="48.7446" lon="1.80096">
        <ele>182.8</ele>
        <time>2026-01-31T11:30:43Z</time>
      </trkpt>
      <trkpt lat="48.7446" lon="1.80093">
        <ele>182.8</ele>
        <time>2026-01-31T11:30:44Z</time>
      </trkpt>
      <trkpt lat="48.7446" lon="1.8009">
        <ele>182.8</ele>
        <time>2026-01-31T11:30:45Z</time>
      </trkpt>
      <trkpt lat="48.7446" lon="1.80085">
        <ele>182.8</ele>
        <time>2026-01-31T11:30:47Z</time>
      </trkpt>
      <trkpt lat="48.74461" lon="1.8008">
        <ele>183</ele>
        <time>2026-01-31T11:30:49Z</time>
      </trkpt>
      <trkpt lat="48.7446" lon="1.80076">
        <ele>183.2</ele>
        <time>2026-01-31T11:30:51Z</time>
      </trkpt>
      <trkpt lat="48.7446" lon="1.80073">
        <ele>183.2</ele>
        <time>2026-01-31T11:30:53Z</time>
      </trkpt>
      <trkpt lat="48.7446" lon="1.80069">
        <ele>183.4</ele>
        <time>2026-01-31T11:30:55Z</time>
      </trkpt>
      <trkpt lat="48.7446" lon="1.80065">
        <ele>183.6</ele>
        <time>2026-01-31T11:30:57Z</time>
      </trkpt>
      <trkpt lat="48.74459" lon="1.80061">
        <ele>184</ele>
        <time>2026-01-31T11:30:59Z</time>
      </trkpt>
      <trkpt lat="48.74458" lon="1.80057">
        <ele>184.4</ele>
        <time>2026-01-31T11:31:01Z</time>
      </trkpt>
      <trkpt lat="48.74457" lon="1.80053">
        <ele>184.6</ele>
        <time>2026-01-31T11:31:03Z</time>
      </trkpt>
      <trkpt lat="48.74457" lon="1.80049">
        <ele>184.8</ele>
        <time>2026-01-31T11:31:05Z</time>
      </trkpt>
      <trkpt lat="48.74458" lon="1.80044">
        <ele>185</ele>
        <time>2026-01-31T11:31:07Z</time>
      </trkpt>
      <trkpt lat="48.74459" lon="1.8004">
        <ele>185</ele>
        <time>2026-01-31T11:31:09Z</time>
      </trkpt>
      <trkpt lat="48.74459" lon="1.80037">
        <ele>185.2</ele>
        <time>2026-01-31T11:31:11Z</time>
      </trkpt>
      <trkpt lat="48.74458" lon="1.80034">
        <ele>185.4</ele>
        <time>2026-01-31T11:31:13Z</time>
      </trkpt>
      <trkpt lat="48.74457" lon="1.80031">
        <ele>185.4</ele>
        <time>2026-01-31T11:31:15Z</time>
      </trkpt>
      <trkpt lat="48.74456" lon="1.80028">
        <ele>185.6</ele>
        <time>2026-01-31T11:31:17Z</time>
      </trkpt>
      <trkpt lat="48.74455" lon="1.80024">
        <ele>185.8</ele>
        <time>2026-01-31T11:31:19Z</time>
      </trkpt>
      <trkpt lat="48.74454" lon="1.8002">
        <ele>186</ele>
        <time>2026-01-31T11:31:21Z</time>
      </trkpt>
      <trkpt lat="48.74454" lon="1.80017">
        <ele>186.4</ele>
        <time>2026-01-31T11:31:23Z</time>
      </trkpt>
      <trkpt lat="48.74455" lon="1.80012">
        <ele>186.4</ele>
        <time>2026-01-31T11:31:25Z</time>
      </trkpt>
      <trkpt lat="48.74455" lon="1.80008">
        <ele>186.4</ele>
        <time>2026-01-31T11:31:27Z</time>
      </trkpt>
      <trkpt lat="48.74455" lon="1.80003">
        <ele>186.4</ele>
        <time>2026-01-31T11:31:29Z</time>
      </trkpt>
      <trkpt lat="48.74454" lon="1.79999">
        <ele>186.4</ele>
        <time>2026-01-31T11:31:31Z</time>
      </trkpt>
      <trkpt lat="48.74453" lon="1.79995">
        <ele>186.4</ele>
        <time>2026-01-31T11:31:33Z</time>
      </trkpt>
      <trkpt lat="48.74452" lon="1.79991">
        <ele>186.2</ele>
        <time>2026-01-31T11:31:35Z</time>
      </trkpt>
      <trkpt lat="48.7445" lon="1.79987">
        <ele>186.2</ele>
        <time>2026-01-31T11:31:37Z</time>
      </trkpt>
      <trkpt lat="48.74448" lon="1.79984">
        <ele>186</ele>
        <time>2026-01-31T11:31:39Z</time>
      </trkpt>
      <trkpt lat="48.74446" lon="1.79981">
        <ele>185.8</ele>
        <time>2026-01-31T11:31:41Z</time>
      </trkpt>
      <trkpt lat="48.74444" lon="1.79977">
        <ele>185.6</ele>
        <time>2026-01-31T11:31:43Z</time>
      </trkpt>
      <trkpt lat="48.74444" lon="1.79972">
        <ele>185.4</ele>
        <time>2026-01-31T11:31:45Z</time>
      </trkpt>
      <trkpt lat="48.74444" lon="1.79967">
        <ele>185.2</ele>
        <time>2026-01-31T11:31:47Z</time>
      </trkpt>
      <trkpt lat="48.74444" lon="1.79962">
        <ele>185</ele>
        <time>2026-01-31T11:31:49Z</time>
      </trkpt>
      <trkpt lat="48.74445" lon="1.79957">
        <ele>185</ele>
        <time>2026-01-31T11:31:51Z</time>
      </trkpt>
      <trkpt lat="48.74445" lon="1.79952">
        <ele>184.8</ele>
        <time>2026-01-31T11:31:53Z</time>
      </trkpt>
      <trkpt lat="48.74445" lon="1.79949">
        <ele>184.8</ele>
        <time>2026-01-31T11:31:54Z</time>
      </trkpt>
      <trkpt lat="48.74445" lon="1.79946">
        <ele>184.6</ele>
        <time>2026-01-31T11:31:55Z</time>
      </trkpt>
      <trkpt lat="48.74445" lon="1.79943">
        <ele>184.6</ele>
        <time>2026-01-31T11:31:56Z</time>
      </trkpt>
      <trkpt lat="48.74445" lon="1.7994">
        <ele>184.6</ele>
        <time>2026-01-31T11:31:57Z</time>
      </trkpt>
      <trkpt lat="48.74446" lon="1.79938">
        <ele>184.6</ele>
        <time>2026-01-31T11:31:58Z</time>
      </trkpt>
      <trkpt lat="48.74446" lon="1.79935">
        <ele>184.6</ele>
        <time>2026-01-31T11:31:59Z</time>
      </trkpt>
      <trkpt lat="48.74446" lon="1.7993">
        <ele>184.6</ele>
        <time>2026-01-31T11:32:01Z</time>
      </trkpt>
      <trkpt lat="48.74446" lon="1.79925">
        <ele>184.4</ele>
        <time>2026-01-31T11:32:03Z</time>
      </trkpt>
      <trkpt lat="48.74447" lon="1.7992">
        <ele>184.4</ele>
        <time>2026-01-31T11:32:05Z</time>
      </trkpt>
      <trkpt lat="48.74447" lon="1.79916">
        <ele>184.4</ele>
        <time>2026-01-31T11:32:07Z</time>
      </trkpt>
      <trkpt lat="48.74446" lon="1.79911">
        <ele>184.4</ele>
        <time>2026-01-31T11:32:09Z</time>
      </trkpt>
      <trkpt lat="48.74446" lon="1.79907">
        <ele>184.4</ele>
        <time>2026-01-31T11:32:11Z</time>
      </trkpt>
      <trkpt lat="48.74446" lon="1.79902">
        <ele>184.2</ele>
        <time>2026-01-31T11:32:13Z</time>
      </trkpt>
      <trkpt lat="48.74446" lon="1.79897">
        <ele>184.2</ele>
        <time>2026-01-31T11:32:15Z</time>
      </trkpt>
      <trkpt lat="48.74446" lon="1.79894">
        <ele>184</ele>
        <time>2026-01-31T11:32:16Z</time>
      </trkpt>
      <trkpt lat="48.74447" lon="1.79891">
        <ele>184</ele>
        <time>2026-01-31T11:32:17Z</time>
      </trkpt>
      <trkpt lat="48.74447" lon="1.79889">
        <ele>183.8</ele>
        <time>2026-01-31T11:32:18Z</time>
      </trkpt>
      <trkpt lat="48.74448" lon="1.79884">
        <ele>183.6</ele>
        <time>2026-01-31T11:32:20Z</time>
      </trkpt>
      <trkpt lat="48.74449" lon="1.79879">
        <ele>183.2</ele>
        <time>2026-01-31T11:32:22Z</time>
      </trkpt>
      <trkpt lat="48.74449" lon="1.79874">
        <ele>183</ele>
        <time>2026-01-31T11:32:24Z</time>
      </trkpt>
      <trkpt lat="48.74449" lon="1.79871">
        <ele>183</ele>
        <time>2026-01-31T11:32:25Z</time>
      </trkpt>
      <trkpt lat="48.74449" lon="1.79868">
        <ele>182.8</ele>
        <time>2026-01-31T11:32:26Z</time>
      </trkpt>
      <trkpt lat="48.74448" lon="1.79865">
        <ele>182.8</ele>
        <time>2026-01-31T11:32:27Z</time>
      </trkpt>
      <trkpt lat="48.74448" lon="1.79861">
        <ele>182.6</ele>
        <time>2026-01-31T11:32:28Z</time>
      </trkpt>
      <trkpt lat="48.74447" lon="1.79859">
        <ele>182.4</ele>
        <time>2026-01-31T11:32:29Z</time>
      </trkpt>
      <trkpt lat="48.74447" lon="1.79856">
        <ele>182.4</ele>
        <time>2026-01-31T11:32:30Z</time>
      </trkpt>
      <trkpt lat="48.74446" lon="1.79851">
        <ele>182.2</ele>
        <time>2026-01-31T11:32:32Z</time>
      </trkpt>
      <trkpt lat="48.74448" lon="1.79847">
        <ele>182</ele>
        <time>2026-01-31T11:32:34Z</time>
      </trkpt>
      <trkpt lat="48.74449" lon="1.79842">
        <ele>181.8</ele>
        <time>2026-01-31T11:32:36Z</time>
      </trkpt>
      <trkpt lat="48.74449" lon="1.7984">
        <ele>181.8</ele>
        <time>2026-01-31T11:32:37Z</time>
      </trkpt>
      <trkpt lat="48.74449" lon="1.79836">
        <ele>181.8</ele>
        <time>2026-01-31T11:32:38Z</time>
      </trkpt>
      <trkpt lat="48.74449" lon="1.79832">
        <ele>181.8</ele>
        <time>2026-01-31T11:32:39Z</time>
      </trkpt>
      <trkpt lat="48.74448" lon="1.79828">
        <ele>181.8</ele>
        <time>2026-01-31T11:32:40Z</time>
      </trkpt>
      <trkpt lat="48.74448" lon="1.79824">
        <ele>182</ele>
        <time>2026-01-31T11:32:41Z</time>
      </trkpt>
      <trkpt lat="48.74448" lon="1.7982">
        <ele>182</ele>
        <time>2026-01-31T11:32:42Z</time>
      </trkpt>
      <trkpt lat="48.74449" lon="1.79816">
        <ele>182</ele>
        <time>2026-01-31T11:32:43Z</time>
      </trkpt>
      <trkpt lat="48.74449" lon="1.79813">
        <ele>182.2</ele>
        <time>2026-01-31T11:32:44Z</time>
      </trkpt>
      <trkpt lat="48.7445" lon="1.7981">
        <ele>182.2</ele>
        <time>2026-01-31T11:32:45Z</time>
      </trkpt>
      <trkpt lat="48.7445" lon="1.79807">
        <ele>182.2</ele>
        <time>2026-01-31T11:32:46Z</time>
      </trkpt>
      <trkpt lat="48.74451" lon="1.79802">
        <ele>182.4</ele>
        <time>2026-01-31T11:32:48Z</time>
      </trkpt>
      <trkpt lat="48.74451" lon="1.79799">
        <ele>182.4</ele>
        <time>2026-01-31T11:32:50Z</time>
      </trkpt>
      <trkpt lat="48.7445" lon="1.79796">
        <ele>182.6</ele>
        <time>2026-01-31T11:32:52Z</time>
      </trkpt>
      <trkpt lat="48.74448" lon="1.79791">
        <ele>182.6</ele>
        <time>2026-01-31T11:32:54Z</time>
      </trkpt>
      <trkpt lat="48.74448" lon="1.79788">
        <ele>182.6</ele>
        <time>2026-01-31T11:32:55Z</time>
      </trkpt>
      <trkpt lat="48.74448" lon="1.79785">
        <ele>182.6</ele>
        <time>2026-01-31T11:32:56Z</time>
      </trkpt>
      <trkpt lat="48.74447" lon="1.79783">
        <ele>182.6</ele>
        <time>2026-01-31T11:32:57Z</time>
      </trkpt>
      <trkpt lat="48.74444" lon="1.79779">
        <ele>182.6</ele>
        <time>2026-01-31T11:32:59Z</time>
      </trkpt>
      <trkpt lat="48.74442" lon="1.79777">
        <ele>182.6</ele>
        <time>2026-01-31T11:33:01Z</time>
      </trkpt>
      <trkpt lat="48.74439" lon="1.79776">
        <ele>182.6</ele>
        <time>2026-01-31T11:33:03Z</time>
      </trkpt>
      <trkpt lat="48.74439" lon="1.79772">
        <ele>182.6</ele>
        <time>2026-01-31T11:33:06Z</time>
      </trkpt>
      <trkpt lat="48.74441" lon="1.79769">
        <ele>182.6</ele>
        <time>2026-01-31T11:33:08Z</time>
      </trkpt>
      <trkpt lat="48.74442" lon="1.79765">
        <ele>182.4</ele>
        <time>2026-01-31T11:33:10Z</time>
      </trkpt>
      <trkpt lat="48.74442" lon="1.79762">
        <ele>182.4</ele>
        <time>2026-01-31T11:33:12Z</time>
      </trkpt>
      <trkpt lat="48.74441" lon="1.79758">
        <ele>182.2</ele>
        <time>2026-01-31T11:33:14Z</time>
      </trkpt>
      <trkpt lat="48.7444" lon="1.79754">
        <ele>182</ele>
        <time>2026-01-31T11:33:16Z</time>
      </trkpt>
      <trkpt lat="48.74439" lon="1.7975">
        <ele>181.6</ele>
        <time>2026-01-31T11:33:18Z</time>
      </trkpt>
      <trkpt lat="48.74439" lon="1.79746">
        <ele>181.4</ele>
        <time>2026-01-31T11:33:20Z</time>
      </trkpt>
      <trkpt lat="48.74438" lon="1.79742">
        <ele>181</ele>
        <time>2026-01-31T11:33:22Z</time>
      </trkpt>
      <trkpt lat="48.74437" lon="1.79738">
        <ele>180.8</ele>
        <time>2026-01-31T11:33:24Z</time>
      </trkpt>
      <trkpt lat="48.74437" lon="1.79734">
        <ele>180.6</ele>
        <time>2026-01-31T11:33:26Z</time>
      </trkpt>
      <trkpt lat="48.74437" lon="1.79731">
        <ele>180.6</ele>
        <time>2026-01-31T11:33:28Z</time>
      </trkpt>
      <trkpt lat="48.74438" lon="1.79726">
        <ele>180.4</ele>
        <time>2026-01-31T11:33:30Z</time>
      </trkpt>
      <trkpt lat="48.74439" lon="1.79722">
        <ele>180.4</ele>
        <time>2026-01-31T11:33:32Z</time>
      </trkpt>
      <trkpt lat="48.7444" lon="1.79719">
        <ele>180.4</ele>
        <time>2026-01-31T11:33:34Z</time>
      </trkpt>
      <trkpt lat="48.74442" lon="1.79715">
        <ele>180.4</ele>
        <time>2026-01-31T11:33:36Z</time>
      </trkpt>
      <trkpt lat="48.74443" lon="1.79711">
        <ele>180.2</ele>
        <time>2026-01-31T11:33:38Z</time>
      </trkpt>
      <trkpt lat="48.74443" lon="1.79707">
        <ele>180.2</ele>
        <time>2026-01-31T11:33:40Z</time>
      </trkpt>
      <trkpt lat="48.74443" lon="1.79702">
        <ele>180.2</ele>
        <time>2026-01-31T11:33:42Z</time>
      </trkpt>
      <trkpt lat="48.74442" lon="1.79698">
        <ele>180.2</ele>
        <time>2026-01-31T11:33:44Z</time>
      </trkpt>
      <trkpt lat="48.74441" lon="1.79694">
        <ele>180.2</ele>
        <time>2026-01-31T11:33:46Z</time>
      </trkpt>
      <trkpt lat="48.74439" lon="1.7969">
        <ele>180.2</ele>
        <time>2026-01-31T11:33:48Z</time>
      </trkpt>
      <trkpt lat="48.74437" lon="1.79685">
        <ele>180.2</ele>
        <time>2026-01-31T11:33:50Z</time>
      </trkpt>
      <trkpt lat="48.74437" lon="1.79681">
        <ele>180</ele>
        <time>2026-01-31T11:33:52Z</time>
      </trkpt>
      <trkpt lat="48.74437" lon="1.79676">
        <ele>179.8</ele>
        <time>2026-01-31T11:33:54Z</time>
      </trkpt>
      <trkpt lat="48.74436" lon="1.79672">
        <ele>179.6</ele>
        <time>2026-01-31T11:33:56Z</time>
      </trkpt>
      <trkpt lat="48.74436" lon="1.79669">
        <ele>179.6</ele>
        <time>2026-01-31T11:33:58Z</time>
      </trkpt>
      <trkpt lat="48.74436" lon="1.79667">
        <ele>179.4</ele>
        <time>2026-01-31T11:34:00Z</time>
      </trkpt>
      <trkpt lat="48.74434" lon="1.79664">
        <ele>179.6</ele>
        <time>2026-01-31T11:34:02Z</time>
      </trkpt>
      <trkpt lat="48.74434" lon="1.79661">
        <ele>179.6</ele>
        <time>2026-01-31T11:34:04Z</time>
      </trkpt>
      <trkpt lat="48.74434" lon="1.79656">
        <ele>179.6</ele>
        <time>2026-01-31T11:34:06Z</time>
      </trkpt>
      <trkpt lat="48.74434" lon="1.79654">
        <ele>179.6</ele>
        <time>2026-01-31T11:34:07Z</time>
      </trkpt>
      <trkpt lat="48.74435" lon="1.79651">
        <ele>179.6</ele>
        <time>2026-01-31T11:34:08Z</time>
      </trkpt>
      <trkpt lat="48.74436" lon="1.79648">
        <ele>179.6</ele>
        <time>2026-01-31T11:34:09Z</time>
      </trkpt>
      <trkpt lat="48.74436" lon="1.79645">
        <ele>179.8</ele>
        <time>2026-01-31T11:34:10Z</time>
      </trkpt>
      <trkpt lat="48.74437" lon="1.79641">
        <ele>179.8</ele>
        <time>2026-01-31T11:34:12Z</time>
      </trkpt>
      <trkpt lat="48.74437" lon="1.79637">
        <ele>179.8</ele>
        <time>2026-01-31T11:34:14Z</time>
      </trkpt>
      <trkpt lat="48.74436" lon="1.79633">
        <ele>179.8</ele>
        <time>2026-01-31T11:34:16Z</time>
      </trkpt>
      <trkpt lat="48.74436" lon="1.79628">
        <ele>179.8</ele>
        <time>2026-01-31T11:34:18Z</time>
      </trkpt>
      <trkpt lat="48.74435" lon="1.79624">
        <ele>179.6</ele>
        <time>2026-01-31T11:34:20Z</time>
      </trkpt>
      <trkpt lat="48.74434" lon="1.7962">
        <ele>179.6</ele>
        <time>2026-01-31T11:34:22Z</time>
      </trkpt>
      <trkpt lat="48.74434" lon="1.79616">
        <ele>179.4</ele>
        <time>2026-01-31T11:34:24Z</time>
      </trkpt>
      <trkpt lat="48.74434" lon="1.79612">
        <ele>179.2</ele>
        <time>2026-01-31T11:34:26Z</time>
      </trkpt>
      <trkpt lat="48.74433" lon="1.79608">
        <ele>179</ele>
        <time>2026-01-31T11:34:28Z</time>
      </trkpt>
      <trkpt lat="48.74431" lon="1.79605">
        <ele>179</ele>
        <time>2026-01-31T11:34:30Z</time>
        <extensions>
          <gpxtpx:TrackPointExtension xmlns:gpxtpx="http://www.garmin.com/xmlschemas/TrackPointExtension/v1">
            <gpxtpx:hr>99</gpxtpx:hr>
          </gpxtpx:TrackPointExtension>
        </extensions>
      </trkpt>
      <trkpt lat="48.74429" lon="1.79602">
        <ele>178.8</ele>
        <time>2026-01-31T11:34:32Z</time>
        <extensions>
          <gpxtpx:TrackPointExtension xmlns:gpxtpx="http://www.garmin.com/xmlschemas/TrackPointExtension/v1">
            <gpxtpx:hr>99</gpxtpx:hr>
          </gpxtpx:TrackPointExtension>
        </extensions>
      </trkpt>
      <trkpt lat="48.74428" lon="1.796">
        <ele>178.8</ele>
        <time>2026-01-31T11:34:34Z</time>
        <extensions>
          <gpxtpx:TrackPointExtension xmlns:gpxtpx="http://www.garmin.com/xmlschemas/TrackPointExtension/v1">
            <gpxtpx:hr>99</gpxtpx:hr>
          </gpxtpx:TrackPointExtension>
        </extensions>
      </trkpt>
      <trkpt lat="48.74424" lon="1.79598">
        <ele>178.6</ele>
        <time>2026-01-31T11:34:36Z</time>
        <extensions>
          <gpxtpx:TrackPointExtension xmlns:gpxtpx="http://www.garmin.com/xmlschemas/TrackPointExtension/v1">
            <gpxtpx:hr>99</gpxtpx:hr>
          </gpxtpx:TrackPointExtension>
        </extensions>
      </trkpt>
      <trkpt lat="48.74421" lon="1.79597">
        <ele>178.6</ele>
        <time>2026-01-31T11:34:38Z</time>
        <extensions>
          <gpxtpx:TrackPointExtension xmlns:gpxtpx="http://www.garmin.com/xmlschemas/TrackPointExtension/v1">
            <gpxtpx:hr>99</gpxtpx:hr>
          </gpxtpx:TrackPointExtension>
        </extensions>
      </trkpt>
      <trkpt lat="48.74419" lon="1.79595">
        <ele>178.6</ele>
        <time>2026-01-31T11:34:40Z</time>
        <extensions>
          <gpxtpx:TrackPointExtension xmlns:gpxtpx="http://www.garmin.com/xmlschemas/TrackPointExtension/v1">
            <gpxtpx:hr>98</gpxtpx:hr>
          </gpxtpx:TrackPointExtension>
        </extensions>
      </trkpt>
      <trkpt lat="48.74418" lon="1.79592">
        <ele>178.6</ele>
        <time>2026-01-31T11:34:43Z</time>
        <extensions>
          <gpxtpx:TrackPointExtension xmlns:gpxtpx="http://www.garmin.com/xmlschemas/TrackPointExtension/v1">
            <gpxtpx:hr>98</gpxtpx:hr>
          </gpxtpx:TrackPointExtension>
        </extensions>
      </trkpt>
      <trkpt lat="48.74417" lon="1.79588">
        <ele>178.8</ele>
        <time>2026-01-31T11:34:46Z</time>
        <extensions>
          <gpxtpx:TrackPointExtension xmlns:gpxtpx="http://www.garmin.com/xmlschemas/TrackPointExtension/v1">
            <gpxtpx:hr>98</gpxtpx:hr>
          </gpxtpx:TrackPointExtension>
        </extensions>
      </trkpt>
      <trkpt lat="48.74415" lon="1.79585">
        <ele>179</ele>
        <time>2026-01-31T11:34:48Z</time>
        <extensions>
          <gpxtpx:TrackPointExtension xmlns:gpxtpx="http://www.garmin.com/xmlschemas/TrackPointExtension/v1">
            <gpxtpx:hr>98</gpxtpx:hr>
          </gpxtpx:TrackPointExtension>
        </extensions>
      </trkpt>
      <trkpt lat="48.74412" lon="1.79583">
        <ele>179.6</ele>
        <time>2026-01-31T11:34:50Z</time>
        <extensions>
          <gpxtpx:TrackPointExtension xmlns:gpxtpx="http://www.garmin.com/xmlschemas/TrackPointExtension/v1">
            <gpxtpx:hr>99</gpxtpx:hr>
          </gpxtpx:TrackPointExtension>
        </extensions>
      </trkpt>
      <trkpt lat="48.74411" lon="1.79581">
        <ele>179.8</ele>
        <time>2026-01-31T11:34:51Z</time>
        <extensions>
          <gpxtpx:TrackPointExtension xmlns:gpxtpx="http://www.garmin.com/xmlschemas/TrackPointExtension/v1">
            <gpxtpx:hr>99</gpxtpx:hr>
          </gpxtpx:TrackPointExtension>
        </extensions>
      </trkpt>
      <trkpt lat="48.74408" lon="1.79577">
        <ele>180.2</ele>
        <time>2026-01-31T11:34:53Z</time>
        <extensions>
          <gpxtpx:TrackPointExtension xmlns:gpxtpx="http://www.garmin.com/xmlschemas/TrackPointExtension/v1">
            <gpxtpx:hr>100</gpxtpx:hr>
          </gpxtpx:TrackPointExtension>
        </extensions>
      </trkpt>
      <trkpt lat="48.74407" lon="1.79575">
        <ele>180.2</ele>
        <time>2026-01-31T11:34:54Z</time>
        <extensions>
          <gpxtpx:TrackPointExtension xmlns:gpxtpx="http://www.garmin.com/xmlschemas/TrackPointExtension/v1">
            <gpxtpx:hr>100</gpxtpx:hr>
          </gpxtpx:TrackPointExtension>
        </extensions>
      </trkpt>
      <trkpt lat="48.74404" lon="1.79571">
        <ele>180.4</ele>
        <time>2026-01-31T11:34:56Z</time>
        <extensions>
          <gpxtpx:TrackPointExtension xmlns:gpxtpx="http://www.garmin.com/xmlschemas/TrackPointExtension/v1">
            <gpxtpx:hr>100</gpxtpx:hr>
          </gpxtpx:TrackPointExtension>
        </extensions>
      </trkpt>
      <trkpt lat="48.74402" lon="1.79568">
        <ele>180.6</ele>
        <time>2026-01-31T11:34:58Z</time>
        <extensions>
          <gpxtpx:TrackPointExtension xmlns:gpxtpx="http://www.garmin.com/xmlschemas/TrackPointExtension/v1">
            <gpxtpx:hr>100</gpxtpx:hr>
          </gpxtpx:TrackPointExtension>
        </extensions>
      </trkpt>
      <trkpt lat="48.74399" lon="1.79566">
        <ele>181</ele>
        <time>2026-01-31T11:35:00Z</time>
        <extensions>
          <gpxtpx:TrackPointExtension xmlns:gpxtpx="http://www.garmin.com/xmlschemas/TrackPointExtension/v1">
            <gpxtpx:hr>100</gpxtpx:hr>
          </gpxtpx:TrackPointExtension>
        </extensions>
      </trkpt>
      <trkpt lat="48.74397" lon="1.79564">
        <ele>181</ele>
        <time>2026-01-31T11:35:02Z</time>
        <extensions>
          <gpxtpx:TrackPointExtension xmlns:gpxtpx="http://www.garmin.com/xmlschemas/TrackPointExtension/v1">
            <gpxtpx:hr>100</gpxtpx:hr>
          </gpxtpx:TrackPointExtension>
        </extensions>
      </trkpt>
      <trkpt lat="48.74395" lon="1.79561">
        <ele>181.2</ele>
        <time>2026-01-31T11:35:04Z</time>
        <extensions>
          <gpxtpx:TrackPointExtension xmlns:gpxtpx="http://www.garmin.com/xmlschemas/TrackPointExtension/v1">
            <gpxtpx:hr>100</gpxtpx:hr>
          </gpxtpx:TrackPointExtension>
        </extensions>
      </trkpt>
      <trkpt lat="48.74393" lon="1.79558">
        <ele>181.2</ele>
        <time>2026-01-31T11:35:06Z</time>
        <extensions>
          <gpxtpx:TrackPointExtension xmlns:gpxtpx="http://www.garmin.com/xmlschemas/TrackPointExtension/v1">
            <gpxtpx:hr>100</gpxtpx:hr>
          </gpxtpx:TrackPointExtension>
        </extensions>
      </trkpt>
      <trkpt lat="48.74391" lon="1.79555">
        <ele>181</ele>
        <time>2026-01-31T11:35:08Z</time>
        <extensions>
          <gpxtpx:TrackPointExtension xmlns:gpxtpx="http://www.garmin.com/xmlschemas/TrackPointExtension/v1">
            <gpxtpx:hr>100</gpxtpx:hr>
          </gpxtpx:TrackPointExtension>
        </extensions>
      </trkpt>
      <trkpt lat="48.74389" lon="1.79553">
        <ele>180.8</ele>
        <time>2026-01-31T11:35:10Z</time>
        <extensions>
          <gpxtpx:TrackPointExtension xmlns:gpxtpx="http://www.garmin.com/xmlschemas/TrackPointExtension/v1">
            <gpxtpx:hr>100</gpxtpx:hr>
          </gpxtpx:TrackPointExtension>
        </extensions>
      </trkpt>
      <trkpt lat="48.74387" lon="1.79551">
        <ele>180.8</ele>
        <time>2026-01-31T11:35:12Z</time>
        <extensions>
          <gpxtpx:TrackPointExtension xmlns:gpxtpx="http://www.garmin.com/xmlschemas/TrackPointExtension/v1">
            <gpxtpx:hr>100</gpxtpx:hr>
          </gpxtpx:TrackPointExtension>
        </extensions>
      </trkpt>
      <trkpt lat="48.74386" lon="1.79549">
        <ele>180.6</ele>
        <time>2026-01-31T11:35:14Z</time>
        <extensions>
          <gpxtpx:TrackPointExtension xmlns:gpxtpx="http://www.garmin.com/xmlschemas/TrackPointExtension/v1">
            <gpxtpx:hr>100</gpxtpx:hr>
          </gpxtpx:TrackPointExtension>
        </extensions>
      </trkpt>
      <trkpt lat="48.74384" lon="1.79547">
        <ele>180.6</ele>
        <time>2026-01-31T11:35:16Z</time>
        <extensions>
          <gpxtpx:TrackPointExtension xmlns:gpxtpx="http://www.garmin.com/xmlschemas/TrackPointExtension/v1">
            <gpxtpx:hr>100</gpxtpx:hr>
          </gpxtpx:TrackPointExtension>
        </extensions>
      </trkpt>
      <trkpt lat="48.74381" lon="1.79544">
        <ele>180.4</ele>
        <time>2026-01-31T11:35:18Z</time>
        <extensions>
          <gpxtpx:TrackPointExtension xmlns:gpxtpx="http://www.garmin.com/xmlschemas/TrackPointExtension/v1">
            <gpxtpx:hr>100</gpxtpx:hr>
          </gpxtpx:TrackPointExtension>
        </extensions>
      </trkpt>
      <trkpt lat="48.74379" lon="1.79542">
        <ele>180.4</ele>
        <time>2026-01-31T11:35:20Z</time>
        <extensions>
          <gpxtpx:TrackPointExtension xmlns:gpxtpx="http://www.garmin.com/xmlschemas/TrackPointExtension/v1">
            <gpxtpx:hr>101</gpxtpx:hr>
          </gpxtpx:TrackPointExtension>
        </extensions>
      </trkpt>
      <trkpt lat="48.74376" lon="1.7954">
        <ele>180.4</ele>
        <time>2026-01-31T11:35:22Z</time>
        <extensions>
          <gpxtpx:TrackPointExtension xmlns:gpxtpx="http://www.garmin.com/xmlschemas/TrackPointExtension/v1">
            <gpxtpx:hr>101</gpxtpx:hr>
          </gpxtpx:TrackPointExtension>
        </extensions>
      </trkpt>
      <trkpt lat="48.74374" lon="1.79539">
        <ele>180.4</ele>
        <time>2026-01-31T11:35:24Z</time>
        <extensions>
          <gpxtpx:TrackPointExtension xmlns:gpxtpx="http://www.garmin.com/xmlschemas/TrackPointExtension/v1">
            <gpxtpx:hr>101</gpxtpx:hr>
          </gpxtpx:TrackPointExtension>
        </extensions>
      </trkpt>
      <trkpt lat="48.74371" lon="1.79538">
        <ele>180.4</ele>
        <time>2026-01-31T11:35:26Z</time>
        <extensions>
          <gpxtpx:TrackPointExtension xmlns:gpxtpx="http://www.garmin.com/xmlschemas/TrackPointExtension/v1">
            <gpxtpx:hr>101</gpxtpx:hr>
          </gpxtpx:TrackPointExtension>
        </extensions>
      </trkpt>
      <trkpt lat="48.74369" lon="1.79537">
        <ele>180.4</ele>
        <time>2026-01-31T11:35:27Z</time>
        <extensions>
          <gpxtpx:TrackPointExtension xmlns:gpxtpx="http://www.garmin.com/xmlschemas/TrackPointExtension/v1">
            <gpxtpx:hr>101</gpxtpx:hr>
          </gpxtpx:TrackPointExtension>
        </extensions>
      </trkpt>
      <trkpt lat="48.74365" lon="1.79536">
        <ele>180.4</ele>
        <time>2026-01-31T11:35:29Z</time>
        <extensions>
          <gpxtpx:TrackPointExtension xmlns:gpxtpx="http://www.garmin.com/xmlschemas/TrackPointExtension/v1">
            <gpxtpx:hr>101</gpxtpx:hr>
          </gpxtpx:TrackPointExtension>
        </extensions>
      </trkpt>
      <trkpt lat="48.74363" lon="1.79534">
        <ele>180.4</ele>
        <time>2026-01-31T11:35:31Z</time>
        <extensions>
          <gpxtpx:TrackPointExtension xmlns:gpxtpx="http://www.garmin.com/xmlschemas/TrackPointExtension/v1">
            <gpxtpx:hr>100</gpxtpx:hr>
          </gpxtpx:TrackPointExtension>
        </extensions>
      </trkpt>
      <trkpt lat="48.7436" lon="1.79532">
        <ele>180.6</ele>
        <time>2026-01-31T11:35:33Z</time>
        <extensions>
          <gpxtpx:TrackPointExtension xmlns:gpxtpx="http://www.garmin.com/xmlschemas/TrackPointExtension/v1">
            <gpxtpx:hr>100</gpxtpx:hr>
          </gpxtpx:TrackPointExtension>
        </extensions>
      </trkpt>
      <trkpt lat="48.74358" lon="1.79529">
        <ele>180.6</ele>
        <time>2026-01-31T11:35:35Z</time>
        <extensions>
          <gpxtpx:TrackPointExtension xmlns:gpxtpx="http://www.garmin.com/xmlschemas/TrackPointExtension/v1">
            <gpxtpx:hr>100</gpxtpx:hr>
          </gpxtpx:TrackPointExtension>
        </extensions>
      </trkpt>
      <trkpt lat="48.74356" lon="1.79526">
        <ele>180.6</ele>
        <time>2026-01-31T11:35:37Z</time>
        <extensions>
          <gpxtpx:TrackPointExtension xmlns:gpxtpx="http://www.garmin.com/xmlschemas/TrackPointExtension/v1">
            <gpxtpx:hr>100</gpxtpx:hr>
          </gpxtpx:TrackPointExtension>
        </extensions>
      </trkpt>
      <trkpt lat="48.74354" lon="1.79523">
        <ele>180.6</ele>
        <time>2026-01-31T11:35:39Z</time>
        <extensions>
          <gpxtpx:TrackPointExtension xmlns:gpxtpx="http://www.garmin.com/xmlschemas/TrackPointExtension/v1">
            <gpxtpx:hr>100</gpxtpx:hr>
          </gpxtpx:TrackPointExtension>
        </extensions>
      </trkpt>
      <trkpt lat="48.74351" lon="1.7952">
        <ele>180.8</ele>
        <time>2026-01-31T11:35:41Z</time>
        <extensions>
          <gpxtpx:TrackPointExtension xmlns:gpxtpx="http://www.garmin.com/xmlschemas/TrackPointExtension/v1">
            <gpxtpx:hr>99</gpxtpx:hr>
          </gpxtpx:TrackPointExtension>
        </extensions>
      </trkpt>
      <trkpt lat="48.74349" lon="1.79517">
        <ele>181</ele>
        <time>2026-01-31T11:35:43Z</time>
        <extensions>
          <gpxtpx:TrackPointExtension xmlns:gpxtpx="http://www.garmin.com/xmlschemas/TrackPointExtension/v1">
            <gpxtpx:hr>99</gpxtpx:hr>
          </gpxtpx:TrackPointExtension>
        </extensions>
      </trkpt>
      <trkpt lat="48.74347" lon="1.79516">
        <ele>181</ele>
        <time>2026-01-31T11:35:45Z</time>
        <extensions>
          <gpxtpx:TrackPointExtension xmlns:gpxtpx="http://www.garmin.com/xmlschemas/TrackPointExtension/v1">
            <gpxtpx:hr>99</gpxtpx:hr>
          </gpxtpx:TrackPointExtension>
        </extensions>
      </trkpt>
      <trkpt lat="48.74345" lon="1.79514">
        <ele>181</ele>
        <time>2026-01-31T11:35:47Z</time>
        <extensions>
          <gpxtpx:TrackPointExtension xmlns:gpxtpx="http://www.garmin.com/xmlschemas/TrackPointExtension/v1">
            <gpxtpx:hr>99</gpxtpx:hr>
          </gpxtpx:TrackPointExtension>
        </extensions>
      </trkpt>
      <trkpt lat="48.74343" lon="1.7951">
        <ele>181.2</ele>
        <time>2026-01-31T11:35:50Z</time>
        <extensions>
          <gpxtpx:TrackPointExtension xmlns:gpxtpx="http://www.garmin.com/xmlschemas/TrackPointExtension/v1">
            <gpxtpx:hr>99</gpxtpx:hr>
          </gpxtpx:TrackPointExtension>
        </extensions>
      </trkpt>
      <trkpt lat="48.74341" lon="1.79508">
        <ele>181.4</ele>
        <time>2026-01-31T11:35:52Z</time>
        <extensions>
          <gpxtpx:TrackPointExtension xmlns:gpxtpx="http://www.garmin.com/xmlschemas/TrackPointExtension/v1">
            <gpxtpx:hr>99</gpxtpx:hr>
          </gpxtpx:TrackPointExtension>
        </extensions>
      </trkpt>
      <trkpt lat="48.7434" lon="1.79506">
        <ele>181.6</ele>
        <time>2026-01-31T11:35:53Z</time>
        <extensions>
          <gpxtpx:TrackPointExtension xmlns:gpxtpx="http://www.garmin.com/xmlschemas/TrackPointExtension/v1">
            <gpxtpx:hr>100</gpxtpx:hr>
          </gpxtpx:TrackPointExtension>
        </extensions>
      </trkpt>
      <trkpt lat="48.74338" lon="1.79504">
        <ele>181.6</ele>
        <time>2026-01-31T11:35:54Z</time>
        <extensions>
          <gpxtpx:TrackPointExtension xmlns:gpxtpx="http://www.garmin.com/xmlschemas/TrackPointExtension/v1">
            <gpxtpx:hr>100</gpxtpx:hr>
          </gpxtpx:TrackPointExtension>
        </extensions>
      </trkpt>
      <trkpt lat="48.74336" lon="1.79503">
        <ele>181.6</ele>
        <time>2026-01-31T11:35:55Z</time>
        <extensions>
          <gpxtpx:TrackPointExtension xmlns:gpxtpx="http://www.garmin.com/xmlschemas/TrackPointExtension/v1">
            <gpxtpx:hr>100</gpxtpx:hr>
          </gpxtpx:TrackPointExtension>
        </extensions>
      </trkpt>
      <trkpt lat="48.74334" lon="1.79501">
        <ele>181.6</ele>
        <time>2026-01-31T11:35:56Z</time>
        <extensions>
          <gpxtpx:TrackPointExtension xmlns:gpxtpx="http://www.garmin.com/xmlschemas/TrackPointExtension/v1">
            <gpxtpx:hr>100</gpxtpx:hr>
          </gpxtpx:TrackPointExtension>
        </extensions>
      </trkpt>
      <trkpt lat="48.74333" lon="1.79499">
        <ele>181.6</ele>
        <time>2026-01-31T11:35:57Z</time>
        <extensions>
          <gpxtpx:TrackPointExtension xmlns:gpxtpx="http://www.garmin.com/xmlschemas/TrackPointExtension/v1">
            <gpxtpx:hr>100</gpxtpx:hr>
          </gpxtpx:TrackPointExtension>
        </extensions>
      </trkpt>
      <trkpt lat="48.74331" lon="1.79498">
        <ele>181.4</ele>
        <time>2026-01-31T11:35:58Z</time>
        <extensions>
          <gpxtpx:TrackPointExtension xmlns:gpxtpx="http://www.garmin.com/xmlschemas/TrackPointExtension/v1">
            <gpxtpx:hr>100</gpxtpx:hr>
          </gpxtpx:TrackPointExtension>
        </extensions>
      </trkpt>
      <trkpt lat="48.74329" lon="1.79495">
        <ele>181.4</ele>
        <time>2026-01-31T11:36:00Z</time>
        <extensions>
          <gpxtpx:TrackPointExtension xmlns:gpxtpx="http://www.garmin.com/xmlschemas/TrackPointExtension/v1">
            <gpxtpx:hr>100</gpxtpx:hr>
          </gpxtpx:TrackPointExtension>
        </extensions>
      </trkpt>
      <trkpt lat="48.74325" lon="1.79493">
        <ele>181.4</ele>
        <time>2026-01-31T11:36:02Z</time>
        <extensions>
          <gpxtpx:TrackPointExtension xmlns:gpxtpx="http://www.garmin.com/xmlschemas/TrackPointExtension/v1">
            <gpxtpx:hr>100</gpxtpx:hr>
          </gpxtpx:TrackPointExtension>
        </extensions>
      </trkpt>
      <trkpt lat="48.74323" lon="1.79492">
        <ele>181.2</ele>
        <time>2026-01-31T11:36:03Z</time>
        <extensions>
          <gpxtpx:TrackPointExtension xmlns:gpxtpx="http://www.garmin.com/xmlschemas/TrackPointExtension/v1">
            <gpxtpx:hr>100</gpxtpx:hr>
          </gpxtpx:TrackPointExtension>
        </extensions>
      </trkpt>
      <trkpt lat="48.74321" lon="1.79491">
        <ele>181.2</ele>
        <time>2026-01-31T11:36:04Z</time>
        <extensions>
          <gpxtpx:TrackPointExtension xmlns:gpxtpx="http://www.garmin.com/xmlschemas/TrackPointExtension/v1">
            <gpxtpx:hr>100</gpxtpx:hr>
          </gpxtpx:TrackPointExtension>
        </extensions>
      </trkpt>
      <trkpt lat="48.74319" lon="1.79489">
        <ele>181.2</ele>
        <time>2026-01-31T11:36:05Z</time>
        <extensions>
          <gpxtpx:TrackPointExtension xmlns:gpxtpx="http://www.garmin.com/xmlschemas/TrackPointExtension/v1">
            <gpxtpx:hr>100</gpxtpx:hr>
          </gpxtpx:TrackPointExtension>
        </extensions>
      </trkpt>
      <trkpt lat="48.74316" lon="1.79486">
        <ele>181</ele>
        <time>2026-01-31T11:36:07Z</time>
        <extensions>
          <gpxtpx:TrackPointExtension xmlns:gpxtpx="http://www.garmin.com/xmlschemas/TrackPointExtension/v1">
            <gpxtpx:hr>100</gpxtpx:hr>
          </gpxtpx:TrackPointExtension>
        </extensions>
      </trkpt>
      <trkpt lat="48.74314" lon="1.79483">
        <ele>181</ele>
        <time>2026-01-31T11:36:09Z</time>
        <extensions>
          <gpxtpx:TrackPointExtension xmlns:gpxtpx="http://www.garmin.com/xmlschemas/TrackPointExtension/v1">
            <gpxtpx:hr>100</gpxtpx:hr>
          </gpxtpx:TrackPointExtension>
        </extensions>
      </trkpt>
      <trkpt lat="48.74313" lon="1.7948">
        <ele>181</ele>
        <time>2026-01-31T11:36:11Z</time>
        <extensions>
          <gpxtpx:TrackPointExtension xmlns:gpxtpx="http://www.garmin.com/xmlschemas/TrackPointExtension/v1">
            <gpxtpx:hr>100</gpxtpx:hr>
          </gpxtpx:TrackPointExtension>
        </extensions>
      </trkpt>
      <trkpt lat="48.74311" lon="1.79477">
        <ele>181.2</ele>
        <time>2026-01-31T11:36:13Z</time>
        <extensions>
          <gpxtpx:TrackPointExtension xmlns:gpxtpx="http://www.garmin.com/xmlschemas/TrackPointExtension/v1">
            <gpxtpx:hr>100</gpxtpx:hr>
          </gpxtpx:TrackPointExtension>
        </extensions>
      </trkpt>
      <trkpt lat="48.74309" lon="1.79474">
        <ele>181.2</ele>
        <time>2026-01-31T11:36:15Z</time>
        <extensions>
          <gpxtpx:TrackPointExtension xmlns:gpxtpx="http://www.garmin.com/xmlschemas/TrackPointExtension/v1">
            <gpxtpx:hr>100</gpxtpx:hr>
          </gpxtpx:TrackPointExtension>
        </extensions>
      </trkpt>
      <trkpt lat="48.74307" lon="1.79472">
        <ele>181</ele>
        <time>2026-01-31T11:36:17Z</time>
        <extensions>
          <gpxtpx:TrackPointExtension xmlns:gpxtpx="http://www.garmin.com/xmlschemas/TrackPointExtension/v1">
            <gpxtpx:hr>100</gpxtpx:hr>
          </gpxtpx:TrackPointExtension>
        </extensions>
      </trkpt>
      <trkpt lat="48.74304" lon="1.7947">
        <ele>181</ele>
        <time>2026-01-31T11:36:19Z</time>
        <extensions>
          <gpxtpx:TrackPointExtension xmlns:gpxtpx="http://www.garmin.com/xmlschemas/TrackPointExtension/v1">
            <gpxtpx:hr>100</gpxtpx:hr>
          </gpxtpx:TrackPointExtension>
        </extensions>
      </trkpt>
      <trkpt lat="48.743" lon="1.79467">
        <ele>181</ele>
        <time>2026-01-31T11:36:21Z</time>
        <extensions>
          <gpxtpx:TrackPointExtension xmlns:gpxtpx="http://www.garmin.com/xmlschemas/TrackPointExtension/v1">
            <gpxtpx:hr>100</gpxtpx:hr>
          </gpxtpx:TrackPointExtension>
        </extensions>
      </trkpt>
      <trkpt lat="48.74299" lon="1.79467">
        <ele>181</ele>
        <time>2026-01-31T11:36:22Z</time>
        <extensions>
          <gpxtpx:TrackPointExtension xmlns:gpxtpx="http://www.garmin.com/xmlschemas/TrackPointExtension/v1">
            <gpxtpx:hr>100</gpxtpx:hr>
          </gpxtpx:TrackPointExtension>
        </extensions>
      </trkpt>
      <trkpt lat="48.74297" lon="1.79466">
        <ele>180.8</ele>
        <time>2026-01-31T11:36:23Z</time>
        <extensions>
          <gpxtpx:TrackPointExtension xmlns:gpxtpx="http://www.garmin.com/xmlschemas/TrackPointExtension/v1">
            <gpxtpx:hr>100</gpxtpx:hr>
          </gpxtpx:TrackPointExtension>
        </extensions>
      </trkpt>
      <trkpt lat="48.74294" lon="1.79465">
        <ele>180.8</ele>
        <time>2026-01-31T11:36:24Z</time>
        <extensions>
          <gpxtpx:TrackPointExtension xmlns:gpxtpx="http://www.garmin.com/xmlschemas/TrackPointExtension/v1">
            <gpxtpx:hr>100</gpxtpx:hr>
          </gpxtpx:TrackPointExtension>
        </extensions>
      </trkpt>
      <trkpt lat="48.74291" lon="1.79463">
        <ele>180.8</ele>
        <time>2026-01-31T11:36:26Z</time>
        <extensions>
          <gpxtpx:TrackPointExtension xmlns:gpxtpx="http://www.garmin.com/xmlschemas/TrackPointExtension/v1">
            <gpxtpx:hr>101</gpxtpx:hr>
          </gpxtpx:TrackPointExtension>
        </extensions>
      </trkpt>
      <trkpt lat="48.74289" lon="1.7946">
        <ele>180.6</ele>
        <time>2026-01-31T11:36:28Z</time>
        <extensions>
          <gpxtpx:TrackPointExtension xmlns:gpxtpx="http://www.garmin.com/xmlschemas/TrackPointExtension/v1">
            <gpxtpx:hr>101</gpxtpx:hr>
          </gpxtpx:TrackPointExtension>
        </extensions>
      </trkpt>
      <trkpt lat="48.74287" lon="1.79457">
        <ele>180.6</ele>
        <time>2026-01-31T11:36:30Z</time>
        <extensions>
          <gpxtpx:TrackPointExtension xmlns:gpxtpx="http://www.garmin.com/xmlschemas/TrackPointExtension/v1">
            <gpxtpx:hr>101</gpxtpx:hr>
          </gpxtpx:TrackPointExtension>
        </extensions>
      </trkpt>
      <trkpt lat="48.74285" lon="1.79454">
        <ele>180.6</ele>
        <time>2026-01-31T11:36:32Z</time>
        <extensions>
          <gpxtpx:TrackPointExtension xmlns:gpxtpx="http://www.garmin.com/xmlschemas/TrackPointExtension/v1">
            <gpxtpx:hr>101</gpxtpx:hr>
          </gpxtpx:TrackPointExtension>
        </extensions>
      </trkpt>
      <trkpt lat="48.74283" lon="1.79453">
        <ele>180.6</ele>
        <time>2026-01-31T11:36:34Z</time>
        <extensions>
          <gpxtpx:TrackPointExtension xmlns:gpxtpx="http://www.garmin.com/xmlschemas/TrackPointExtension/v1">
            <gpxtpx:hr>101</gpxtpx:hr>
          </gpxtpx:TrackPointExtension>
        </extensions>
      </trkpt>
      <trkpt lat="48.74279" lon="1.79452">
        <ele>180.6</ele>
        <time>2026-01-31T11:36:36Z</time>
        <extensions>
          <gpxtpx:TrackPointExtension xmlns:gpxtpx="http://www.garmin.com/xmlschemas/TrackPointExtension/v1">
            <gpxtpx:hr>101</gpxtpx:hr>
          </gpxtpx:TrackPointExtension>
        </extensions>
      </trkpt>
      <trkpt lat="48.74277" lon="1.79451">
        <ele>180.6</ele>
        <time>2026-01-31T11:36:37Z</time>
        <extensions>
          <gpxtpx:TrackPointExtension xmlns:gpxtpx="http://www.garmin.com/xmlschemas/TrackPointExtension/v1">
            <gpxtpx:hr>101</gpxtpx:hr>
          </gpxtpx:TrackPointExtension>
        </extensions>
      </trkpt>
      <trkpt lat="48.74275" lon="1.79451">
        <ele>180.6</ele>
        <time>2026-01-31T11:36:38Z</time>
        <extensions>
          <gpxtpx:TrackPointExtension xmlns:gpxtpx="http://www.garmin.com/xmlschemas/TrackPointExtension/v1">
            <gpxtpx:hr>101</gpxtpx:hr>
          </gpxtpx:TrackPointExtension>
        </extensions>
      </trkpt>
      <trkpt lat="48.74273" lon="1.7945">
        <ele>180.4</ele>
        <time>2026-01-31T11:36:39Z</time>
        <extensions>
          <gpxtpx:TrackPointExtension xmlns:gpxtpx="http://www.garmin.com/xmlschemas/TrackPointExtension/v1">
            <gpxtpx:hr>101</gpxtpx:hr>
          </gpxtpx:TrackPointExtension>
        </extensions>
      </trkpt>
      <trkpt lat="48.74271" lon="1.79449">
        <ele>180.4</ele>
        <time>2026-01-31T11:36:40Z</time>
        <extensions>
          <gpxtpx:TrackPointExtension xmlns:gpxtpx="http://www.garmin.com/xmlschemas/TrackPointExtension/v1">
            <gpxtpx:hr>101</gpxtpx:hr>
          </gpxtpx:TrackPointExtension>
        </extensions>
      </trkpt>
      <trkpt lat="48.74268" lon="1.79446">
        <ele>180.4</ele>
        <time>2026-01-31T11:36:42Z</time>
        <extensions>
          <gpxtpx:TrackPointExtension xmlns:gpxtpx="http://www.garmin.com/xmlschemas/TrackPointExtension/v1">
            <gpxtpx:hr>101</gpxtpx:hr>
          </gpxtpx:TrackPointExtension>
        </extensions>
      </trkpt>
      <trkpt lat="48.74266" lon="1.79444">
        <ele>180.2</ele>
        <time>2026-01-31T11:36:44Z</time>
        <extensions>
          <gpxtpx:TrackPointExtension xmlns:gpxtpx="http://www.garmin.com/xmlschemas/TrackPointExtension/v1">
            <gpxtpx:hr>101</gpxtpx:hr>
          </gpxtpx:TrackPointExtension>
        </extensions>
      </trkpt>
      <trkpt lat="48.74263" lon="1.79442">
        <ele>180.2</ele>
        <time>2026-01-31T11:36:46Z</time>
        <extensions>
          <gpxtpx:TrackPointExtension xmlns:gpxtpx="http://www.garmin.com/xmlschemas/TrackPointExtension/v1">
            <gpxtpx:hr>101</gpxtpx:hr>
          </gpxtpx:TrackPointExtension>
        </extensions>
      </trkpt>
      <trkpt lat="48.74261" lon="1.7944">
        <ele>180.2</ele>
        <time>2026-01-31T11:36:48Z</time>
        <extensions>
          <gpxtpx:TrackPointExtension xmlns:gpxtpx="http://www.garmin.com/xmlschemas/TrackPointExtension/v1">
            <gpxtpx:hr>101</gpxtpx:hr>
          </gpxtpx:TrackPointExtension>
        </extensions>
      </trkpt>
      <trkpt lat="48.74259" lon="1.79437">
        <ele>180</ele>
        <time>2026-01-31T11:36:50Z</time>
        <extensions>
          <gpxtpx:TrackPointExtension xmlns:gpxtpx="http://www.garmin.com/xmlschemas/TrackPointExtension/v1">
            <gpxtpx:hr>101</gpxtpx:hr>
          </gpxtpx:TrackPointExtension>
        </extensions>
      </trkpt>
      <trkpt lat="48.74257" lon="1.79437">
        <ele>180</ele>
        <time>2026-01-31T11:36:51Z</time>
        <extensions>
          <gpxtpx:TrackPointExtension xmlns:gpxtpx="http://www.garmin.com/xmlschemas/TrackPointExtension/v1">
            <gpxtpx:hr>101</gpxtpx:hr>
          </gpxtpx:TrackPointExtension>
        </extensions>
      </trkpt>
      <trkpt lat="48.74253" lon="1.79435">
        <ele>180</ele>
        <time>2026-01-31T11:36:53Z</time>
        <extensions>
          <gpxtpx:TrackPointExtension xmlns:gpxtpx="http://www.garmin.com/xmlschemas/TrackPointExtension/v1">
            <gpxtpx:hr>101</gpxtpx:hr>
          </gpxtpx:TrackPointExtension>
        </extensions>
      </trkpt>
      <trkpt lat="48.74252" lon="1.79434">
        <ele>180.2</ele>
        <time>2026-01-31T11:36:54Z</time>
        <extensions>
          <gpxtpx:TrackPointExtension xmlns:gpxtpx="http://www.garmin.com/xmlschemas/TrackPointExtension/v1">
            <gpxtpx:hr>101</gpxtpx:hr>
          </gpxtpx:TrackPointExtension>
        </extensions>
      </trkpt>
      <trkpt lat="48.7425" lon="1.79433">
        <ele>180.2</ele>
        <time>2026-01-31T11:36:55Z</time>
        <extensions>
          <gpxtpx:TrackPointExtension xmlns:gpxtpx="http://www.garmin.com/xmlschemas/TrackPointExtension/v1">
            <gpxtpx:hr>101</gpxtpx:hr>
          </gpxtpx:TrackPointExtension>
        </extensions>
      </trkpt>
      <trkpt lat="48.74247" lon="1.79431">
        <ele>180.2</ele>
        <time>2026-01-31T11:36:57Z</time>
        <extensions>
          <gpxtpx:TrackPointExtension xmlns:gpxtpx="http://www.garmin.com/xmlschemas/TrackPointExtension/v1">
            <gpxtpx:hr>101</gpxtpx:hr>
          </gpxtpx:TrackPointExtension>
        </extensions>
      </trkpt>
      <trkpt lat="48.74245" lon="1.79428">
        <ele>180.2</ele>
        <time>2026-01-31T11:36:59Z</time>
        <extensions>
          <gpxtpx:TrackPointExtension xmlns:gpxtpx="http://www.garmin.com/xmlschemas/TrackPointExtension/v1">
            <gpxtpx:hr>101</gpxtpx:hr>
          </gpxtpx:TrackPointExtension>
        </extensions>
      </trkpt>
      <trkpt lat="48.74243" lon="1.79426">
        <ele>180.2</ele>
        <time>2026-01-31T11:37:01Z</time>
        <extensions>
          <gpxtpx:TrackPointExtension xmlns:gpxtpx="http://www.garmin.com/xmlschemas/TrackPointExtension/v1">
            <gpxtpx:hr>101</gpxtpx:hr>
          </gpxtpx:TrackPointExtension>
        </extensions>
      </trkpt>
      <trkpt lat="48.74241" lon="1.79424">
        <ele>180.2</ele>
        <time>2026-01-31T11:37:03Z</time>
        <extensions>
          <gpxtpx:TrackPointExtension xmlns:gpxtpx="http://www.garmin.com/xmlschemas/TrackPointExtension/v1">
            <gpxtpx:hr>101</gpxtpx:hr>
          </gpxtpx:TrackPointExtension>
        </extensions>
      </trkpt>
      <trkpt lat="48.74237" lon="1.79422">
        <ele>180.2</ele>
        <time>2026-01-31T11:37:05Z</time>
        <extensions>
          <gpxtpx:TrackPointExtension xmlns:gpxtpx="http://www.garmin.com/xmlschemas/TrackPointExtension/v1">
            <gpxtpx:hr>101</gpxtpx:hr>
          </gpxtpx:TrackPointExtension>
        </extensions>
      </trkpt>
      <trkpt lat="48.74234" lon="1.7942">
        <ele>180.2</ele>
        <time>2026-01-31T11:37:07Z</time>
        <extensions>
          <gpxtpx:TrackPointExtension xmlns:gpxtpx="http://www.garmin.com/xmlschemas/TrackPointExtension/v1">
            <gpxtpx:hr>100</gpxtpx:hr>
          </gpxtpx:TrackPointExtension>
        </extensions>
      </trkpt>
      <trkpt lat="48.74232" lon="1.79417">
        <ele>180.4</ele>
        <time>2026-01-31T11:37:09Z</time>
        <extensions>
          <gpxtpx:TrackPointExtension xmlns:gpxtpx="http://www.garmin.com/xmlschemas/TrackPointExtension/v1">
            <gpxtpx:hr>100</gpxtpx:hr>
          </gpxtpx:TrackPointExtension>
        </extensions>
      </trkpt>
      <trkpt lat="48.7423" lon="1.79414">
        <ele>180.4</ele>
        <time>2026-01-31T11:37:11Z</time>
        <extensions>
          <gpxtpx:TrackPointExtension xmlns:gpxtpx="http://www.garmin.com/xmlschemas/TrackPointExtension/v1">
            <gpxtpx:hr>99</gpxtpx:hr>
          </gpxtpx:TrackPointExtension>
        </extensions>
      </trkpt>
      <trkpt lat="48.74228" lon="1.79412">
        <ele>180.4</ele>
        <time>2026-01-31T11:37:13Z</time>
        <extensions>
          <gpxtpx:TrackPointExtension xmlns:gpxtpx="http://www.garmin.com/xmlschemas/TrackPointExtension/v1">
            <gpxtpx:hr>99</gpxtpx:hr>
          </gpxtpx:TrackPointExtension>
        </extensions>
      </trkpt>
      <trkpt lat="48.74226" lon="1.7941">
        <ele>180.4</ele>
        <time>2026-01-31T11:37:16Z</time>
        <extensions>
          <gpxtpx:TrackPointExtension xmlns:gpxtpx="http://www.garmin.com/xmlschemas/TrackPointExtension/v1">
            <gpxtpx:hr>98</gpxtpx:hr>
          </gpxtpx:TrackPointExtension>
        </extensions>
      </trkpt>
      <trkpt lat="48.74224" lon="1.79408">
        <ele>180.6</ele>
        <time>2026-01-31T11:37:18Z</time>
        <extensions>
          <gpxtpx:TrackPointExtension xmlns:gpxtpx="http://www.garmin.com/xmlschemas/TrackPointExtension/v1">
            <gpxtpx:hr>98</gpxtpx:hr>
          </gpxtpx:TrackPointExtension>
        </extensions>
      </trkpt>
      <trkpt lat="48.74223" lon="1.79405">
        <ele>180.6</ele>
        <time>2026-01-31T11:37:20Z</time>
        <extensions>
          <gpxtpx:TrackPointExtension xmlns:gpxtpx="http://www.garmin.com/xmlschemas/TrackPointExtension/v1">
            <gpxtpx:hr>98</gpxtpx:hr>
          </gpxtpx:TrackPointExtension>
        </extensions>
      </trkpt>
      <trkpt lat="48.74221" lon="1.79402">
        <ele>180.6</ele>
        <time>2026-01-31T11:37:22Z</time>
        <extensions>
          <gpxtpx:TrackPointExtension xmlns:gpxtpx="http://www.garmin.com/xmlschemas/TrackPointExtension/v1">
            <gpxtpx:hr>100</gpxtpx:hr>
          </gpxtpx:TrackPointExtension>
        </extensions>
      </trkpt>
      <trkpt lat="48.7422" lon="1.79399">
        <ele>180.6</ele>
        <time>2026-01-31T11:37:24Z</time>
        <extensions>
          <gpxtpx:TrackPointExtension xmlns:gpxtpx="http://www.garmin.com/xmlschemas/TrackPointExtension/v1">
            <gpxtpx:hr>103</gpxtpx:hr>
          </gpxtpx:TrackPointExtension>
        </extensions>
      </trkpt>
      <trkpt lat="48.74218" lon="1.79398">
        <ele>180.8</ele>
        <time>2026-01-31T11:37:26Z</time>
        <extensions>
          <gpxtpx:TrackPointExtension xmlns:gpxtpx="http://www.garmin.com/xmlschemas/TrackPointExtension/v1">
            <gpxtpx:hr>104</gpxtpx:hr>
          </gpxtpx:TrackPointExtension>
        </extensions>
      </trkpt>
      <trkpt lat="48.74215" lon="1.79398">
        <ele>180.8</ele>
        <time>2026-01-31T11:37:28Z</time>
        <extensions>
          <gpxtpx:TrackPointExtension xmlns:gpxtpx="http://www.garmin.com/xmlschemas/TrackPointExtension/v1">
            <gpxtpx:hr>105</gpxtpx:hr>
          </gpxtpx:TrackPointExtension>
        </extensions>
      </trkpt>
      <trkpt lat="48.74213" lon="1.79397">
        <ele>180.8</ele>
        <time>2026-01-31T11:37:29Z</time>
        <extensions>
          <gpxtpx:TrackPointExtension xmlns:gpxtpx="http://www.garmin.com/xmlschemas/TrackPointExtension/v1">
            <gpxtpx:hr>105</gpxtpx:hr>
          </gpxtpx:TrackPointExtension>
        </extensions>
      </trkpt>
      <trkpt lat="48.7421" lon="1.79396">
        <ele>181</ele>
        <time>2026-01-31T11:37:31Z</time>
        <extensions>
          <gpxtpx:TrackPointExtension xmlns:gpxtpx="http://www.garmin.com/xmlschemas/TrackPointExtension/v1">
            <gpxtpx:hr>105</gpxtpx:hr>
          </gpxtpx:TrackPointExtension>
        </extensions>
      </trkpt>
      <trkpt lat="48.74207" lon="1.79394">
        <ele>181</ele>
        <time>2026-01-31T11:37:33Z</time>
        <extensions>
          <gpxtpx:TrackPointExtension xmlns:gpxtpx="http://www.garmin.com/xmlschemas/TrackPointExtension/v1">
            <gpxtpx:hr>105</gpxtpx:hr>
          </gpxtpx:TrackPointExtension>
        </extensions>
      </trkpt>
      <trkpt lat="48.74204" lon="1.79392">
        <ele>181</ele>
        <time>2026-01-31T11:37:35Z</time>
        <extensions>
          <gpxtpx:TrackPointExtension xmlns:gpxtpx="http://www.garmin.com/xmlschemas/TrackPointExtension/v1">
            <gpxtpx:hr>105</gpxtpx:hr>
          </gpxtpx:TrackPointExtension>
        </extensions>
      </trkpt>
      <trkpt lat="48.74202" lon="1.79389">
        <ele>181.2</ele>
        <time>2026-01-31T11:37:37Z</time>
        <extensions>
          <gpxtpx:TrackPointExtension xmlns:gpxtpx="http://www.garmin.com/xmlschemas/TrackPointExtension/v1">
            <gpxtpx:hr>105</gpxtpx:hr>
          </gpxtpx:TrackPointExtension>
        </extensions>
      </trkpt>
      <trkpt lat="48.742" lon="1.79386">
        <ele>181.2</ele>
        <time>2026-01-31T11:37:39Z</time>
        <extensions>
          <gpxtpx:TrackPointExtension xmlns:gpxtpx="http://www.garmin.com/xmlschemas/TrackPointExtension/v1">
            <gpxtpx:hr>105</gpxtpx:hr>
          </gpxtpx:TrackPointExtension>
        </extensions>
      </trkpt>
      <trkpt lat="48.74198" lon="1.79384">
        <ele>181.4</ele>
        <time>2026-01-31T11:37:41Z</time>
        <extensions>
          <gpxtpx:TrackPointExtension xmlns:gpxtpx="http://www.garmin.com/xmlschemas/TrackPointExtension/v1">
            <gpxtpx:hr>105</gpxtpx:hr>
          </gpxtpx:TrackPointExtension>
        </extensions>
      </trkpt>
      <trkpt lat="48.74196" lon="1.79382">
        <ele>181.4</ele>
        <time>2026-01-31T11:37:43Z</time>
        <extensions>
          <gpxtpx:TrackPointExtension xmlns:gpxtpx="http://www.garmin.com/xmlschemas/TrackPointExtension/v1">
            <gpxtpx:hr>105</gpxtpx:hr>
          </gpxtpx:TrackPointExtension>
        </extensions>
      </trkpt>
      <trkpt lat="48.74195" lon="1.7938">
        <ele>181.6</ele>
        <time>2026-01-31T11:37:45Z</time>
        <extensions>
          <gpxtpx:TrackPointExtension xmlns:gpxtpx="http://www.garmin.com/xmlschemas/TrackPointExtension/v1">
            <gpxtpx:hr>106</gpxtpx:hr>
          </gpxtpx:TrackPointExtension>
        </extensions>
      </trkpt>
      <trkpt lat="48.74193" lon="1.79378">
        <ele>181.8</ele>
        <time>2026-01-31T11:37:47Z</time>
        <extensions>
          <gpxtpx:TrackPointExtension xmlns:gpxtpx="http://www.garmin.com/xmlschemas/TrackPointExtension/v1">
            <gpxtpx:hr>106</gpxtpx:hr>
          </gpxtpx:TrackPointExtension>
        </extensions>
      </trkpt>
      <trkpt lat="48.74193" lon="1.79374">
        <ele>182</ele>
        <time>2026-01-31T11:37:50Z</time>
        <extensions>
          <gpxtpx:TrackPointExtension xmlns:gpxtpx="http://www.garmin.com/xmlschemas/TrackPointExtension/v1">
            <gpxtpx:hr>106</gpxtpx:hr>
          </gpxtpx:TrackPointExtension>
        </extensions>
      </trkpt>
      <trkpt lat="48.74193" lon="1.79371">
        <ele>182.6</ele>
        <time>2026-01-31T11:37:58Z</time>
        <extensions>
          <gpxtpx:TrackPointExtension xmlns:gpxtpx="http://www.garmin.com/xmlschemas/TrackPointExtension/v1">
            <gpxtpx:hr>105</gpxtpx:hr>
          </gpxtpx:TrackPointExtension>
        </extensions>
      </trkpt>
      <trkpt lat="48.74191" lon="1.79369">
        <ele>182.8</ele>
        <time>2026-01-31T11:38:00Z</time>
        <extensions>
          <gpxtpx:TrackPointExtension xmlns:gpxtpx="http://www.garmin.com/xmlschemas/TrackPointExtension/v1">
            <gpxtpx:hr>105</gpxtpx:hr>
          </gpxtpx:TrackPointExtension>
        </extensions>
      </trkpt>
      <trkpt lat="48.74188" lon="1.79367">
        <ele>183</ele>
        <time>2026-01-31T11:38:02Z</time>
        <extensions>
          <gpxtpx:TrackPointExtension xmlns:gpxtpx="http://www.garmin.com/xmlschemas/TrackPointExtension/v1">
            <gpxtpx:hr>106</gpxtpx:hr>
          </gpxtpx:TrackPointExtension>
        </extensions>
      </trkpt>
      <trkpt lat="48.74186" lon="1.79365">
        <ele>183</ele>
        <time>2026-01-31T11:38:04Z</time>
        <extensions>
          <gpxtpx:TrackPointExtension xmlns:gpxtpx="http://www.garmin.com/xmlschemas/TrackPointExtension/v1">
            <gpxtpx:hr>106</gpxtpx:hr>
          </gpxtpx:TrackPointExtension>
        </extensions>
      </trkpt>
      <trkpt lat="48.74184" lon="1.79364">
        <ele>183</ele>
        <time>2026-01-31T11:38:05Z</time>
        <extensions>
          <gpxtpx:TrackPointExtension xmlns:gpxtpx="http://www.garmin.com/xmlschemas/TrackPointExtension/v1">
            <gpxtpx:hr>106</gpxtpx:hr>
          </gpxtpx:TrackPointExtension>
        </extensions>
      </trkpt>
      <trkpt lat="48.7418" lon="1.79362">
        <ele>183</ele>
        <time>2026-01-31T11:38:07Z</time>
        <extensions>
          <gpxtpx:TrackPointExtension xmlns:gpxtpx="http://www.garmin.com/xmlschemas/TrackPointExtension/v1">
            <gpxtpx:hr>106</gpxtpx:hr>
          </gpxtpx:TrackPointExtension>
        </extensions>
      </trkpt>
      <trkpt lat="48.74178" lon="1.79361">
        <ele>183.2</ele>
        <time>2026-01-31T11:38:09Z</time>
        <extensions>
          <gpxtpx:TrackPointExtension xmlns:gpxtpx="http://www.garmin.com/xmlschemas/TrackPointExtension/v1">
            <gpxtpx:hr>106</gpxtpx:hr>
          </gpxtpx:TrackPointExtension>
        </extensions>
      </trkpt>
      <trkpt lat="48.74174" lon="1.79359">
        <ele>183.2</ele>
        <time>2026-01-31T11:38:11Z</time>
        <extensions>
          <gpxtpx:TrackPointExtension xmlns:gpxtpx="http://www.garmin.com/xmlschemas/TrackPointExtension/v1">
            <gpxtpx:hr>106</gpxtpx:hr>
          </gpxtpx:TrackPointExtension>
        </extensions>
      </trkpt>
      <trkpt lat="48.74171" lon="1.79358">
        <ele>183.6</ele>
        <time>2026-01-31T11:38:13Z</time>
        <extensions>
          <gpxtpx:TrackPointExtension xmlns:gpxtpx="http://www.garmin.com/xmlschemas/TrackPointExtension/v1">
            <gpxtpx:hr>106</gpxtpx:hr>
          </gpxtpx:TrackPointExtension>
        </extensions>
      </trkpt>
      <trkpt lat="48.74169" lon="1.79357">
        <ele>183.6</ele>
        <time>2026-01-31T11:38:14Z</time>
        <extensions>
          <gpxtpx:TrackPointExtension xmlns:gpxtpx="http://www.garmin.com/xmlschemas/TrackPointExtension/v1">
            <gpxtpx:hr>106</gpxtpx:hr>
          </gpxtpx:TrackPointExtension>
        </extensions>
      </trkpt>
      <trkpt lat="48.74167" lon="1.79356">
        <ele>183.8</ele>
        <time>2026-01-31T11:38:15Z</time>
        <extensions>
          <gpxtpx:TrackPointExtension xmlns:gpxtpx="http://www.garmin.com/xmlschemas/TrackPointExtension/v1">
            <gpxtpx:hr>106</gpxtpx:hr>
          </gpxtpx:TrackPointExtension>
        </extensions>
      </trkpt>
      <trkpt lat="48.74164" lon="1.79354">
        <ele>183.8</ele>
        <time>2026-01-31T11:38:17Z</time>
        <extensions>
          <gpxtpx:TrackPointExtension xmlns:gpxtpx="http://www.garmin.com/xmlschemas/TrackPointExtension/v1">
            <gpxtpx:hr>106</gpxtpx:hr>
          </gpxtpx:TrackPointExtension>
        </extensions>
      </trkpt>
      <trkpt lat="48.74161" lon="1.79352">
        <ele>183.8</ele>
        <time>2026-01-31T11:38:19Z</time>
        <extensions>
          <gpxtpx:TrackPointExtension xmlns:gpxtpx="http://www.garmin.com/xmlschemas/TrackPointExtension/v1">
            <gpxtpx:hr>106</gpxtpx:hr>
          </gpxtpx:TrackPointExtension>
        </extensions>
      </trkpt>
      <trkpt lat="48.74159" lon="1.79351">
        <ele>183.8</ele>
        <time>2026-01-31T11:38:20Z</time>
        <extensions>
          <gpxtpx:TrackPointExtension xmlns:gpxtpx="http://www.garmin.com/xmlschemas/TrackPointExtension/v1">
            <gpxtpx:hr>106</gpxtpx:hr>
          </gpxtpx:TrackPointExtension>
        </extensions>
      </trkpt>
      <trkpt lat="48.74157" lon="1.79351">
        <ele>183.8</ele>
        <time>2026-01-31T11:38:21Z</time>
        <extensions>
          <gpxtpx:TrackPointExtension xmlns:gpxtpx="http://www.garmin.com/xmlschemas/TrackPointExtension/v1">
            <gpxtpx:hr>106</gpxtpx:hr>
          </gpxtpx:TrackPointExtension>
        </extensions>
      </trkpt>
      <trkpt lat="48.74156" lon="1.7935">
        <ele>183.8</ele>
        <time>2026-01-31T11:38:22Z</time>
        <extensions>
          <gpxtpx:TrackPointExtension xmlns:gpxtpx="http://www.garmin.com/xmlschemas/TrackPointExtension/v1">
            <gpxtpx:hr>106</gpxtpx:hr>
          </gpxtpx:TrackPointExtension>
        </extensions>
      </trkpt>
      <trkpt lat="48.74152" lon="1.79349">
        <ele>183.8</ele>
        <time>2026-01-31T11:38:24Z</time>
        <extensions>
          <gpxtpx:TrackPointExtension xmlns:gpxtpx="http://www.garmin.com/xmlschemas/TrackPointExtension/v1">
            <gpxtpx:hr>106</gpxtpx:hr>
          </gpxtpx:TrackPointExtension>
        </extensions>
      </trkpt>
      <trkpt lat="48.7415" lon="1.79347">
        <ele>183.8</ele>
        <time>2026-01-31T11:38:26Z</time>
        <extensions>
          <gpxtpx:TrackPointExtension xmlns:gpxtpx="http://www.garmin.com/xmlschemas/TrackPointExtension/v1">
            <gpxtpx:hr>106</gpxtpx:hr>
          </gpxtpx:TrackPointExtension>
        </extensions>
      </trkpt>
      <trkpt lat="48.74149" lon="1.79345">
        <ele>183.8</ele>
        <time>2026-01-31T11:38:28Z</time>
        <extensions>
          <gpxtpx:TrackPointExtension xmlns:gpxtpx="http://www.garmin.com/xmlschemas/TrackPointExtension/v1">
            <gpxtpx:hr>106</gpxtpx:hr>
          </gpxtpx:TrackPointExtension>
        </extensions>
      </trkpt>
      <trkpt lat="48.74148" lon="1.79342">
        <ele>183.8</ele>
        <time>2026-01-31T11:38:30Z</time>
        <extensions>
          <gpxtpx:TrackPointExtension xmlns:gpxtpx="http://www.garmin.com/xmlschemas/TrackPointExtension/v1">
            <gpxtpx:hr>106</gpxtpx:hr>
          </gpxtpx:TrackPointExtension>
        </extensions>
      </trkpt>
      <trkpt lat="48.74146" lon="1.7934">
        <ele>183.8</ele>
        <time>2026-01-31T11:38:32Z</time>
        <extensions>
          <gpxtpx:TrackPointExtension xmlns:gpxtpx="http://www.garmin.com/xmlschemas/TrackPointExtension/v1">
            <gpxtpx:hr>106</gpxtpx:hr>
          </gpxtpx:TrackPointExtension>
        </extensions>
      </trkpt>
      <trkpt lat="48.74144" lon="1.79338">
        <ele>183.8</ele>
        <time>2026-01-31T11:38:34Z</time>
        <extensions>
          <gpxtpx:TrackPointExtension xmlns:gpxtpx="http://www.garmin.com/xmlschemas/TrackPointExtension/v1">
            <gpxtpx:hr>106</gpxtpx:hr>
          </gpxtpx:TrackPointExtension>
        </extensions>
      </trkpt>
      <trkpt lat="48.74142" lon="1.79337">
        <ele>183.8</ele>
        <time>2026-01-31T11:38:36Z</time>
        <extensions>
          <gpxtpx:TrackPointExtension xmlns:gpxtpx="http://www.garmin.com/xmlschemas/TrackPointExtension/v1">
            <gpxtpx:hr>106</gpxtpx:hr>
          </gpxtpx:TrackPointExtension>
        </extensions>
      </trkpt>
      <trkpt lat="48.74139" lon="1.79336">
        <ele>183.8</ele>
        <time>2026-01-31T11:38:38Z</time>
        <extensions>
          <gpxtpx:TrackPointExtension xmlns:gpxtpx="http://www.garmin.com/xmlschemas/TrackPointExtension/v1">
            <gpxtpx:hr>106</gpxtpx:hr>
          </gpxtpx:TrackPointExtension>
        </extensions>
      </trkpt>
      <trkpt lat="48.74136" lon="1.79335">
        <ele>183.8</ele>
        <time>2026-01-31T11:38:40Z</time>
        <extensions>
          <gpxtpx:TrackPointExtension xmlns:gpxtpx="http://www.garmin.com/xmlschemas/TrackPointExtension/v1">
            <gpxtpx:hr>107</gpxtpx:hr>
          </gpxtpx:TrackPointExtension>
        </extensions>
      </trkpt>
      <trkpt lat="48.74133" lon="1.79333">
        <ele>183.8</ele>
        <time>2026-01-31T11:38:42Z</time>
        <extensions>
          <gpxtpx:TrackPointExtension xmlns:gpxtpx="http://www.garmin.com/xmlschemas/TrackPointExtension/v1">
            <gpxtpx:hr>107</gpxtpx:hr>
          </gpxtpx:TrackPointExtension>
        </extensions>
      </trkpt>
      <trkpt lat="48.74131" lon="1.79331">
        <ele>183.8</ele>
        <time>2026-01-31T11:38:44Z</time>
        <extensions>
          <gpxtpx:TrackPointExtension xmlns:gpxtpx="http://www.garmin.com/xmlschemas/TrackPointExtension/v1">
            <gpxtpx:hr>108</gpxtpx:hr>
          </gpxtpx:TrackPointExtension>
        </extensions>
      </trkpt>
      <trkpt lat="48.74128" lon="1.79329">
        <ele>183.8</ele>
        <time>2026-01-31T11:38:46Z</time>
        <extensions>
          <gpxtpx:TrackPointExtension xmlns:gpxtpx="http://www.garmin.com/xmlschemas/TrackPointExtension/v1">
            <gpxtpx:hr>109</gpxtpx:hr>
          </gpxtpx:TrackPointExtension>
        </extensions>
      </trkpt>
      <trkpt lat="48.74127" lon="1.79328">
        <ele>183.6</ele>
        <time>2026-01-31T11:38:47Z</time>
        <extensions>
          <gpxtpx:TrackPointExtension xmlns:gpxtpx="http://www.garmin.com/xmlschemas/TrackPointExtension/v1">
            <gpxtpx:hr>110</gpxtpx:hr>
          </gpxtpx:TrackPointExtension>
        </extensions>
      </trkpt>
      <trkpt lat="48.74124" lon="1.79325">
        <ele>183.6</ele>
        <time>2026-01-31T11:38:49Z</time>
        <extensions>
          <gpxtpx:TrackPointExtension xmlns:gpxtpx="http://www.garmin.com/xmlschemas/TrackPointExtension/v1">
            <gpxtpx:hr>110</gpxtpx:hr>
          </gpxtpx:TrackPointExtension>
        </extensions>
      </trkpt>
      <trkpt lat="48.74122" lon="1.79323">
        <ele>183.4</ele>
        <time>2026-01-31T11:38:50Z</time>
        <extensions>
          <gpxtpx:TrackPointExtension xmlns:gpxtpx="http://www.garmin.com/xmlschemas/TrackPointExtension/v1">
            <gpxtpx:hr>110</gpxtpx:hr>
          </gpxtpx:TrackPointExtension>
        </extensions>
      </trkpt>
      <trkpt lat="48.7412" lon="1.79322">
        <ele>183.4</ele>
        <time>2026-01-31T11:38:51Z</time>
        <extensions>
          <gpxtpx:TrackPointExtension xmlns:gpxtpx="http://www.garmin.com/xmlschemas/TrackPointExtension/v1">
            <gpxtpx:hr>110</gpxtpx:hr>
          </gpxtpx:TrackPointExtension>
        </extensions>
      </trkpt>
      <trkpt lat="48.74117" lon="1.79321">
        <ele>183.4</ele>
        <time>2026-01-31T11:38:53Z</time>
        <extensions>
          <gpxtpx:TrackPointExtension xmlns:gpxtpx="http://www.garmin.com/xmlschemas/TrackPointExtension/v1">
            <gpxtpx:hr>111</gpxtpx:hr>
          </gpxtpx:TrackPointExtension>
        </extensions>
      </trkpt>
      <trkpt lat="48.74114" lon="1.7932">
        <ele>183.2</ele>
        <time>2026-01-31T11:38:55Z</time>
        <extensions>
          <gpxtpx:TrackPointExtension xmlns:gpxtpx="http://www.garmin.com/xmlschemas/TrackPointExtension/v1">
            <gpxtpx:hr>112</gpxtpx:hr>
          </gpxtpx:TrackPointExtension>
        </extensions>
      </trkpt>
      <trkpt lat="48.74112" lon="1.79319">
        <ele>183.2</ele>
        <time>2026-01-31T11:38:57Z</time>
        <extensions>
          <gpxtpx:TrackPointExtension xmlns:gpxtpx="http://www.garmin.com/xmlschemas/TrackPointExtension/v1">
            <gpxtpx:hr>111</gpxtpx:hr>
          </gpxtpx:TrackPointExtension>
        </extensions>
      </trkpt>
      <trkpt lat="48.74109" lon="1.79318">
        <ele>183.4</ele>
        <time>2026-01-31T11:39:00Z</time>
        <extensions>
          <gpxtpx:TrackPointExtension xmlns:gpxtpx="http://www.garmin.com/xmlschemas/TrackPointExtension/v1">
            <gpxtpx:hr>111</gpxtpx:hr>
          </gpxtpx:TrackPointExtension>
        </extensions>
      </trkpt>
      <trkpt lat="48.74107" lon="1.79317">
        <ele>183.8</ele>
        <time>2026-01-31T11:39:03Z</time>
        <extensions>
          <gpxtpx:TrackPointExtension xmlns:gpxtpx="http://www.garmin.com/xmlschemas/TrackPointExtension/v1">
            <gpxtpx:hr>111</gpxtpx:hr>
          </gpxtpx:TrackPointExtension>
        </extensions>
      </trkpt>
      <trkpt lat="48.74105" lon="1.79315">
        <ele>184</ele>
        <time>2026-01-31T11:39:05Z</time>
        <extensions>
          <gpxtpx:TrackPointExtension xmlns:gpxtpx="http://www.garmin.com/xmlschemas/TrackPointExtension/v1">
            <gpxtpx:hr>111</gpxtpx:hr>
          </gpxtpx:TrackPointExtension>
        </extensions>
      </trkpt>
      <trkpt lat="48.74102" lon="1.79313">
        <ele>184</ele>
        <time>2026-01-31T11:39:07Z</time>
      </trkpt>
      <trkpt lat="48.741" lon="1.79311">
        <ele>184.2</ele>
        <time>2026-01-31T11:39:09Z</time>
      </trkpt>
      <trkpt lat="48.74098" lon="1.79309">
        <ele>184.4</ele>
        <time>2026-01-31T11:39:11Z</time>
      </trkpt>
      <trkpt lat="48.74096" lon="1.79307">
        <ele>184.6</ele>
        <time>2026-01-31T11:39:13Z</time>
      </trkpt>
      <trkpt lat="48.74094" lon="1.79304">
        <ele>184.8</ele>
        <time>2026-01-31T11:39:15Z</time>
      </trkpt>
      <trkpt lat="48.7409" lon="1.79302">
        <ele>185</ele>
        <time>2026-01-31T11:39:17Z</time>
      </trkpt>
      <trkpt lat="48.74088" lon="1.79302">
        <ele>185.2</ele>
        <time>2026-01-31T11:39:18Z</time>
      </trkpt>
      <trkpt lat="48.74086" lon="1.79302">
        <ele>185.2</ele>
        <time>2026-01-31T11:39:19Z</time>
      </trkpt>
      <trkpt lat="48.74084" lon="1.79302">
        <ele>185.4</ele>
        <time>2026-01-31T11:39:20Z</time>
      </trkpt>
      <trkpt lat="48.74082" lon="1.79301">
        <ele>185.6</ele>
        <time>2026-01-31T11:39:21Z</time>
      </trkpt>
      <trkpt lat="48.74079" lon="1.79301">
        <ele>185.8</ele>
        <time>2026-01-31T11:39:23Z</time>
      </trkpt>
      <trkpt lat="48.74077" lon="1.79299">
        <ele>186</ele>
        <time>2026-01-31T11:39:25Z</time>
      </trkpt>
      <trkpt lat="48.74076" lon="1.79297">
        <ele>186</ele>
        <time>2026-01-31T11:39:27Z</time>
      </trkpt>
      <trkpt lat="48.74074" lon="1.79294">
        <ele>186.2</ele>
        <time>2026-01-31T11:39:29Z</time>
      </trkpt>
      <trkpt lat="48.74071" lon="1.79291">
        <ele>186.2</ele>
        <time>2026-01-31T11:39:31Z</time>
      </trkpt>
      <trkpt lat="48.74068" lon="1.79287">
        <ele>186.2</ele>
        <time>2026-01-31T11:39:33Z</time>
      </trkpt>
      <trkpt lat="48.74067" lon="1.79286">
        <ele>186.2</ele>
        <time>2026-01-31T11:39:34Z</time>
      </trkpt>
      <trkpt lat="48.74065" lon="1.79285">
        <ele>186.2</ele>
        <time>2026-01-31T11:39:35Z</time>
      </trkpt>
      <trkpt lat="48.74062" lon="1.79281">
        <ele>186.2</ele>
        <time>2026-01-31T11:39:37Z</time>
      </trkpt>
      <trkpt lat="48.7406" lon="1.79278">
        <ele>186.2</ele>
        <time>2026-01-31T11:39:39Z</time>
      </trkpt>
      <trkpt lat="48.74059" lon="1.79276">
        <ele>186.2</ele>
        <time>2026-01-31T11:39:41Z</time>
      </trkpt>
      <trkpt lat="48.74056" lon="1.79274">
        <ele>186</ele>
        <time>2026-01-31T11:39:43Z</time>
      </trkpt>
      <trkpt lat="48.74053" lon="1.79272">
        <ele>186</ele>
        <time>2026-01-31T11:39:45Z</time>
      </trkpt>
      <trkpt lat="48.74051" lon="1.79269">
        <ele>185.8</ele>
        <time>2026-01-31T11:39:47Z</time>
      </trkpt>
      <trkpt lat="48.7405" lon="1.79267">
        <ele>185.6</ele>
        <time>2026-01-31T11:39:49Z</time>
      </trkpt>
      <trkpt lat="48.74049" lon="1.79263">
        <ele>185.6</ele>
        <time>2026-01-31T11:39:51Z</time>
      </trkpt>
      <trkpt lat="48.74047" lon="1.7926">
        <ele>185.4</ele>
        <time>2026-01-31T11:39:53Z</time>
      </trkpt>
      <trkpt lat="48.74045" lon="1.79257">
        <ele>185.2</ele>
        <time>2026-01-31T11:39:55Z</time>
      </trkpt>
      <trkpt lat="48.74042" lon="1.79254">
        <ele>185</ele>
        <time>2026-01-31T11:39:57Z</time>
      </trkpt>
      <trkpt lat="48.74039" lon="1.79251">
        <ele>185</ele>
        <time>2026-01-31T11:39:59Z</time>
      </trkpt>
      <trkpt lat="48.74037" lon="1.79249">
        <ele>184.8</ele>
        <time>2026-01-31T11:40:01Z</time>
      </trkpt>
      <trkpt lat="48.74035" lon="1.79247">
        <ele>184.8</ele>
        <time>2026-01-31T11:40:03Z</time>
      </trkpt>
      <trkpt lat="48.74032" lon="1.79245">
        <ele>184.8</ele>
        <time>2026-01-31T11:40:05Z</time>
      </trkpt>
      <trkpt lat="48.74029" lon="1.79244">
        <ele>185</ele>
        <time>2026-01-31T11:40:07Z</time>
      </trkpt>
      <trkpt lat="48.74026" lon="1.79242">
        <ele>185</ele>
        <time>2026-01-31T11:40:09Z</time>
      </trkpt>
      <trkpt lat="48.74024" lon="1.79242">
        <ele>185</ele>
        <time>2026-01-31T11:40:10Z</time>
      </trkpt>
      <trkpt lat="48.7402" lon="1.79241">
        <ele>185.2</ele>
        <time>2026-01-31T11:40:12Z</time>
      </trkpt>
      <trkpt lat="48.74018" lon="1.79241">
        <ele>185.2</ele>
        <time>2026-01-31T11:40:13Z</time>
      </trkpt>
      <trkpt lat="48.74015" lon="1.79239">
        <ele>185.4</ele>
        <time>2026-01-31T11:40:15Z</time>
      </trkpt>
      <trkpt lat="48.74014" lon="1.79236">
        <ele>185.6</ele>
        <time>2026-01-31T11:40:17Z</time>
      </trkpt>
      <trkpt lat="48.74012" lon="1.79232">
        <ele>185.8</ele>
        <time>2026-01-31T11:40:19Z</time>
      </trkpt>
      <trkpt lat="48.74011" lon="1.7923">
        <ele>185.8</ele>
        <time>2026-01-31T11:40:20Z</time>
      </trkpt>
      <trkpt lat="48.74009" lon="1.79227">
        <ele>186</ele>
        <time>2026-01-31T11:40:22Z</time>
      </trkpt>
      <trkpt lat="48.74007" lon="1.79224">
        <ele>185.8</ele>
        <time>2026-01-31T11:40:24Z</time>
      </trkpt>
      <trkpt lat="48.74005" lon="1.79222">
        <ele>186</ele>
        <time>2026-01-31T11:40:26Z</time>
      </trkpt>
      <trkpt lat="48.74003" lon="1.7922">
        <ele>186.2</ele>
        <time>2026-01-31T11:40:28Z</time>
      </trkpt>
      <trkpt lat="48.74" lon="1.79219">
        <ele>186.4</ele>
        <time>2026-01-31T11:40:30Z</time>
      </trkpt>
      <trkpt lat="48.73996" lon="1.79218">
        <ele>186.4</ele>
        <time>2026-01-31T11:40:32Z</time>
      </trkpt>
      <trkpt lat="48.73993" lon="1.79216">
        <ele>186.4</ele>
        <time>2026-01-31T11:40:34Z</time>
      </trkpt>
      <trkpt lat="48.7399" lon="1.79214">
        <ele>186.6</ele>
        <time>2026-01-31T11:40:36Z</time>
      </trkpt>
      <trkpt lat="48.73987" lon="1.79212">
        <ele>186.6</ele>
        <time>2026-01-31T11:40:38Z</time>
      </trkpt>
      <trkpt lat="48.73986" lon="1.79211">
        <ele>186.8</ele>
        <time>2026-01-31T11:40:39Z</time>
      </trkpt>
      <trkpt lat="48.73984" lon="1.79209">
        <ele>186.8</ele>
        <time>2026-01-31T11:40:40Z</time>
      </trkpt>
      <trkpt lat="48.73982" lon="1.79208">
        <ele>186.8</ele>
        <time>2026-01-31T11:40:41Z</time>
      </trkpt>
      <trkpt lat="48.7398" lon="1.79207">
        <ele>186.8</ele>
        <time>2026-01-31T11:40:42Z</time>
      </trkpt>
      <trkpt lat="48.73978" lon="1.79205">
        <ele>187</ele>
        <time>2026-01-31T11:40:43Z</time>
      </trkpt>
      <trkpt lat="48.73976" lon="1.79204">
        <ele>187</ele>
        <time>2026-01-31T11:40:44Z</time>
      </trkpt>
      <trkpt lat="48.73974" lon="1.79203">
        <ele>187.2</ele>
        <time>2026-01-31T11:40:45Z</time>
      </trkpt>
      <trkpt lat="48.73971" lon="1.79202">
        <ele>187.4</ele>
        <time>2026-01-31T11:40:47Z</time>
      </trkpt>
      <trkpt lat="48.73968" lon="1.792">
        <ele>187.8</ele>
        <time>2026-01-31T11:40:49Z</time>
      </trkpt>
      <trkpt lat="48.73965" lon="1.79198">
        <ele>188</ele>
        <time>2026-01-31T11:40:51Z</time>
      </trkpt>
      <trkpt lat="48.73963" lon="1.79196">
        <ele>188.2</ele>
        <time>2026-01-31T11:40:53Z</time>
      </trkpt>
      <trkpt lat="48.73961" lon="1.79193">
        <ele>188.4</ele>
        <time>2026-01-31T11:40:55Z</time>
      </trkpt>
      <trkpt lat="48.73958" lon="1.79191">
        <ele>188.6</ele>
        <time>2026-01-31T11:40:57Z</time>
      </trkpt>
      <trkpt lat="48.73956" lon="1.79189">
        <ele>188.6</ele>
        <time>2026-01-31T11:40:59Z</time>
      </trkpt>
      <trkpt lat="48.73954" lon="1.79187">
        <ele>188.4</ele>
        <time>2026-01-31T11:41:01Z</time>
      </trkpt>
      <trkpt lat="48.73952" lon="1.79183">
        <ele>188.4</ele>
        <time>2026-01-31T11:41:03Z</time>
      </trkpt>
      <trkpt lat="48.73952" lon="1.79179">
        <ele>188.2</ele>
        <time>2026-01-31T11:41:05Z</time>
      </trkpt>
      <trkpt lat="48.73953" lon="1.79176">
        <ele>188.4</ele>
        <time>2026-01-31T11:41:08Z</time>
      </trkpt>
      <trkpt lat="48.73952" lon="1.79173">
        <ele>187</ele>
        <time>2026-01-31T11:41:40Z</time>
      </trkpt>
      <trkpt lat="48.73949" lon="1.79169">
        <ele>187</ele>
        <time>2026-01-31T11:41:42Z</time>
      </trkpt>
      <trkpt lat="48.73948" lon="1.79166">
        <ele>186.8</ele>
        <time>2026-01-31T11:41:43Z</time>
      </trkpt>
      <trkpt lat="48.73947" lon="1.79164">
        <ele>186.8</ele>
        <time>2026-01-31T11:41:44Z</time>
      </trkpt>
      <trkpt lat="48.73946" lon="1.79161">
        <ele>186.8</ele>
        <time>2026-01-31T11:41:45Z</time>
      </trkpt>
      <trkpt lat="48.73944" lon="1.79157">
        <ele>186.8</ele>
        <time>2026-01-31T11:41:47Z</time>
      </trkpt>
      <trkpt lat="48.73943" lon="1.79155">
        <ele>186.8</ele>
        <time>2026-01-31T11:41:49Z</time>
      </trkpt>
      <trkpt lat="48.73941" lon="1.79153">
        <ele>187</ele>
        <time>2026-01-31T11:41:52Z</time>
      </trkpt>
      <trkpt lat="48.7394" lon="1.79152">
        <ele>187</ele>
        <time>2026-01-31T11:41:54Z</time>
      </trkpt>
      <trkpt lat="48.73938" lon="1.7915">
        <ele>187</ele>
        <time>2026-01-31T11:41:56Z</time>
      </trkpt>
      <trkpt lat="48.73936" lon="1.79147">
        <ele>187.2</ele>
        <time>2026-01-31T11:41:58Z</time>
      </trkpt>
      <trkpt lat="48.73933" lon="1.79145">
        <ele>187.2</ele>
        <time>2026-01-31T11:42:00Z</time>
      </trkpt>
      <trkpt lat="48.7393" lon="1.79143">
        <ele>187.4</ele>
        <time>2026-01-31T11:42:02Z</time>
      </trkpt>
      <trkpt lat="48.73927" lon="1.79141">
        <ele>187.6</ele>
        <time>2026-01-31T11:42:04Z</time>
      </trkpt>
      <trkpt lat="48.73925" lon="1.7914">
        <ele>187.6</ele>
        <time>2026-01-31T11:42:05Z</time>
      </trkpt>
      <trkpt lat="48.73923" lon="1.79137">
        <ele>187.8</ele>
        <time>2026-01-31T11:42:07Z</time>
      </trkpt>
      <trkpt lat="48.73921" lon="1.79135">
        <ele>188</ele>
        <time>2026-01-31T11:42:09Z</time>
      </trkpt>
      <trkpt lat="48.73919" lon="1.79132">
        <ele>188.2</ele>
        <time>2026-01-31T11:42:11Z</time>
      </trkpt>
      <trkpt lat="48.73917" lon="1.79129">
        <ele>188.4</ele>
        <time>2026-01-31T11:42:13Z</time>
      </trkpt>
      <trkpt lat="48.73915" lon="1.79126">
        <ele>188.4</ele>
        <time>2026-01-31T11:42:15Z</time>
      </trkpt>
      <trkpt lat="48.73912" lon="1.79123">
        <ele>188.4</ele>
        <time>2026-01-31T11:42:17Z</time>
      </trkpt>
      <trkpt lat="48.73909" lon="1.7912">
        <ele>188.4</ele>
        <time>2026-01-31T11:42:19Z</time>
      </trkpt>
      <trkpt lat="48.73907" lon="1.79118">
        <ele>188.4</ele>
        <time>2026-01-31T11:42:21Z</time>
      </trkpt>
      <trkpt lat="48.73905" lon="1.79116">
        <ele>188.2</ele>
        <time>2026-01-31T11:42:23Z</time>
      </trkpt>
      <trkpt lat="48.73903" lon="1.79114">
        <ele>188.2</ele>
        <time>2026-01-31T11:42:25Z</time>
      </trkpt>
      <trkpt lat="48.73901" lon="1.79112">
        <ele>188.2</ele>
        <time>2026-01-31T11:42:27Z</time>
      </trkpt>
      <trkpt lat="48.739" lon="1.7911">
        <ele>188.2</ele>
        <time>2026-01-31T11:42:30Z</time>
      </trkpt>
      <trkpt lat="48.73898" lon="1.79109">
        <ele>188</ele>
        <time>2026-01-31T11:42:32Z</time>
      </trkpt>
      <trkpt lat="48.73896" lon="1.79107">
        <ele>188</ele>
        <time>2026-01-31T11:42:34Z</time>
      </trkpt>
      <trkpt lat="48.73892" lon="1.79105">
        <ele>187.8</ele>
        <time>2026-01-31T11:42:36Z</time>
      </trkpt>
      <trkpt lat="48.73891" lon="1.79104">
        <ele>187.8</ele>
        <time>2026-01-31T11:42:37Z</time>
      </trkpt>
      <trkpt lat="48.73889" lon="1.79103">
        <ele>187.8</ele>
        <time>2026-01-31T11:42:38Z</time>
      </trkpt>
      <trkpt lat="48.73887" lon="1.79102">
        <ele>187.8</ele>
        <time>2026-01-31T11:42:39Z</time>
      </trkpt>
      <trkpt lat="48.73884" lon="1.791">
        <ele>187.6</ele>
        <time>2026-01-31T11:42:41Z</time>
      </trkpt>
      <trkpt lat="48.73881" lon="1.79097">
        <ele>187.6</ele>
        <time>2026-01-31T11:42:43Z</time>
      </trkpt>
      <trkpt lat="48.7388" lon="1.79095">
        <ele>187.4</ele>
        <time>2026-01-31T11:42:45Z</time>
      </trkpt>
      <trkpt lat="48.73877" lon="1.79093">
        <ele>187.4</ele>
        <time>2026-01-31T11:42:48Z</time>
      </trkpt>
      <trkpt lat="48.73874" lon="1.79092">
        <ele>187.4</ele>
        <time>2026-01-31T11:42:50Z</time>
      </trkpt>
      <trkpt lat="48.73872" lon="1.79091">
        <ele>187.4</ele>
        <time>2026-01-31T11:42:51Z</time>
      </trkpt>
      <trkpt lat="48.73869" lon="1.7909">
        <ele>187.2</ele>
        <time>2026-01-31T11:42:53Z</time>
      </trkpt>
      <trkpt lat="48.73866" lon="1.79088">
        <ele>187.2</ele>
        <time>2026-01-31T11:42:55Z</time>
      </trkpt>
      <trkpt lat="48.73864" lon="1.79086">
        <ele>187</ele>
        <time>2026-01-31T11:42:57Z</time>
      </trkpt>
      <trkpt lat="48.73862" lon="1.79084">
        <ele>186.8</ele>
        <time>2026-01-31T11:42:59Z</time>
      </trkpt>
      <trkpt lat="48.7386" lon="1.79081">
        <ele>186.6</ele>
        <time>2026-01-31T11:43:01Z</time>
      </trkpt>
      <trkpt lat="48.73858" lon="1.79078">
        <ele>186.4</ele>
        <time>2026-01-31T11:43:03Z</time>
      </trkpt>
      <trkpt lat="48.73856" lon="1.79074">
        <ele>186.2</ele>
        <time>2026-01-31T11:43:05Z</time>
      </trkpt>
      <trkpt lat="48.73853" lon="1.79071">
        <ele>186</ele>
        <time>2026-01-31T11:43:07Z</time>
      </trkpt>
      <trkpt lat="48.73852" lon="1.79068">
        <ele>185.6</ele>
        <time>2026-01-31T11:43:09Z</time>
      </trkpt>
      <trkpt lat="48.73849" lon="1.79065">
        <ele>185.4</ele>
        <time>2026-01-31T11:43:11Z</time>
      </trkpt>
      <trkpt lat="48.73847" lon="1.79062">
        <ele>185</ele>
        <time>2026-01-31T11:43:13Z</time>
      </trkpt>
      <trkpt lat="48.73846" lon="1.79058">
        <ele>184.8</ele>
        <time>2026-01-31T11:43:15Z</time>
      </trkpt>
      <trkpt lat="48.73845" lon="1.79053">
        <ele>184.6</ele>
        <time>2026-01-31T11:43:17Z</time>
      </trkpt>
      <trkpt lat="48.73844" lon="1.79048">
        <ele>184.4</ele>
        <time>2026-01-31T11:43:19Z</time>
      </trkpt>
      <trkpt lat="48.73844" lon="1.79043">
        <ele>184.2</ele>
        <time>2026-01-31T11:43:21Z</time>
      </trkpt>
      <trkpt lat="48.73844" lon="1.79039">
        <ele>183.8</ele>
        <time>2026-01-31T11:43:23Z</time>
      </trkpt>
      <trkpt lat="48.73843" lon="1.79035">
        <ele>183.6</ele>
        <time>2026-01-31T11:43:25Z</time>
      </trkpt>
      <trkpt lat="48.73842" lon="1.7903">
        <ele>183.4</ele>
        <time>2026-01-31T11:43:27Z</time>
      </trkpt>
      <trkpt lat="48.73842" lon="1.79026">
        <ele>183.4</ele>
        <time>2026-01-31T11:43:29Z</time>
      </trkpt>
      <trkpt lat="48.73841" lon="1.79022">
        <ele>183.2</ele>
        <time>2026-01-31T11:43:31Z</time>
      </trkpt>
      <trkpt lat="48.7384" lon="1.79018">
        <ele>183</ele>
        <time>2026-01-31T11:43:33Z</time>
      </trkpt>
      <trkpt lat="48.73839" lon="1.79014">
        <ele>182.8</ele>
        <time>2026-01-31T11:43:35Z</time>
      </trkpt>
      <trkpt lat="48.73838" lon="1.7901">
        <ele>182.6</ele>
        <time>2026-01-31T11:43:37Z</time>
      </trkpt>
      <trkpt lat="48.73836" lon="1.79006">
        <ele>182.4</ele>
        <time>2026-01-31T11:43:39Z</time>
      </trkpt>
      <trkpt lat="48.73836" lon="1.79002">
        <ele>182.2</ele>
        <time>2026-01-31T11:43:41Z</time>
      </trkpt>
      <trkpt lat="48.73835" lon="1.78998">
        <ele>182</ele>
        <time>2026-01-31T11:43:43Z</time>
      </trkpt>
      <trkpt lat="48.73834" lon="1.78994">
        <ele>182</ele>
        <time>2026-01-31T11:43:45Z</time>
      </trkpt>
      <trkpt lat="48.73834" lon="1.7899">
        <ele>182</ele>
        <time>2026-01-31T11:43:47Z</time>
      </trkpt>
      <trkpt lat="48.73832" lon="1.78986">
        <ele>181.8</ele>
        <time>2026-01-31T11:43:49Z</time>
      </trkpt>
      <trkpt lat="48.73831" lon="1.78983">
        <ele>181.6</ele>
        <time>2026-01-31T11:43:51Z</time>
      </trkpt>
      <trkpt lat="48.7383" lon="1.78979">
        <ele>181.6</ele>
        <time>2026-01-31T11:43:53Z</time>
      </trkpt>
      <trkpt lat="48.7383" lon="1.78976">
        <ele>181.6</ele>
        <time>2026-01-31T11:43:55Z</time>
      </trkpt>
      <trkpt lat="48.73832" lon="1.78975">
        <ele>182.4</ele>
        <time>2026-01-31T11:44:08Z</time>
        <extensions>
          <gpxtpx:TrackPointExtension xmlns:gpxtpx="http://www.garmin.com/xmlschemas/TrackPointExtension/v1">
            <gpxtpx:hr>103</gpxtpx:hr>
          </gpxtpx:TrackPointExtension>
        </extensions>
      </trkpt>
      <trkpt lat="48.73832" lon="1.78972">
        <ele>183.4</ele>
        <time>2026-01-31T11:44:17Z</time>
        <extensions>
          <gpxtpx:TrackPointExtension xmlns:gpxtpx="http://www.garmin.com/xmlschemas/TrackPointExtension/v1">
            <gpxtpx:hr>101</gpxtpx:hr>
          </gpxtpx:TrackPointExtension>
        </extensions>
      </trkpt>
      <trkpt lat="48.73832" lon="1.78968">
        <ele>183.6</ele>
        <time>2026-01-31T11:44:19Z</time>
        <extensions>
          <gpxtpx:TrackPointExtension xmlns:gpxtpx="http://www.garmin.com/xmlschemas/TrackPointExtension/v1">
            <gpxtpx:hr>101</gpxtpx:hr>
          </gpxtpx:TrackPointExtension>
        </extensions>
      </trkpt>
      <trkpt lat="48.73831" lon="1.78965">
        <ele>183.6</ele>
        <time>2026-01-31T11:44:21Z</time>
        <extensions>
          <gpxtpx:TrackPointExtension xmlns:gpxtpx="http://www.garmin.com/xmlschemas/TrackPointExtension/v1">
            <gpxtpx:hr>101</gpxtpx:hr>
          </gpxtpx:TrackPointExtension>
        </extensions>
      </trkpt>
      <trkpt lat="48.7383" lon="1.78962">
        <ele>183.8</ele>
        <time>2026-01-31T11:44:23Z</time>
        <extensions>
          <gpxtpx:TrackPointExtension xmlns:gpxtpx="http://www.garmin.com/xmlschemas/TrackPointExtension/v1">
            <gpxtpx:hr>101</gpxtpx:hr>
          </gpxtpx:TrackPointExtension>
        </extensions>
      </trkpt>
      <trkpt lat="48.73828" lon="1.78958">
        <ele>183.8</ele>
        <time>2026-01-31T11:44:25Z</time>
        <extensions>
          <gpxtpx:TrackPointExtension xmlns:gpxtpx="http://www.garmin.com/xmlschemas/TrackPointExtension/v1">
            <gpxtpx:hr>101</gpxtpx:hr>
          </gpxtpx:TrackPointExtension>
        </extensions>
      </trkpt>
      <trkpt lat="48.73826" lon="1.78954">
        <ele>183.8</ele>
        <time>2026-01-31T11:44:27Z</time>
        <extensions>
          <gpxtpx:TrackPointExtension xmlns:gpxtpx="http://www.garmin.com/xmlschemas/TrackPointExtension/v1">
            <gpxtpx:hr>101</gpxtpx:hr>
          </gpxtpx:TrackPointExtension>
        </extensions>
      </trkpt>
      <trkpt lat="48.73825" lon="1.7895">
        <ele>183.8</ele>
        <time>2026-01-31T11:44:29Z</time>
        <extensions>
          <gpxtpx:TrackPointExtension xmlns:gpxtpx="http://www.garmin.com/xmlschemas/TrackPointExtension/v1">
            <gpxtpx:hr>102</gpxtpx:hr>
          </gpxtpx:TrackPointExtension>
        </extensions>
      </trkpt>
      <trkpt lat="48.73824" lon="1.78946">
        <ele>183.6</ele>
        <time>2026-01-31T11:44:31Z</time>
        <extensions>
          <gpxtpx:TrackPointExtension xmlns:gpxtpx="http://www.garmin.com/xmlschemas/TrackPointExtension/v1">
            <gpxtpx:hr>102</gpxtpx:hr>
          </gpxtpx:TrackPointExtension>
        </extensions>
      </trkpt>
      <trkpt lat="48.73824" lon="1.78941">
        <ele>183.6</ele>
        <time>2026-01-31T11:44:33Z</time>
        <extensions>
          <gpxtpx:TrackPointExtension xmlns:gpxtpx="http://www.garmin.com/xmlschemas/TrackPointExtension/v1">
            <gpxtpx:hr>102</gpxtpx:hr>
          </gpxtpx:TrackPointExtension>
        </extensions>
      </trkpt>
      <trkpt lat="48.73823" lon="1.78936">
        <ele>183.4</ele>
        <time>2026-01-31T11:44:35Z</time>
        <extensions>
          <gpxtpx:TrackPointExtension xmlns:gpxtpx="http://www.garmin.com/xmlschemas/TrackPointExtension/v1">
            <gpxtpx:hr>102</gpxtpx:hr>
          </gpxtpx:TrackPointExtension>
        </extensions>
      </trkpt>
      <trkpt lat="48.73822" lon="1.78932">
        <ele>183.2</ele>
        <time>2026-01-31T11:44:37Z</time>
      </trkpt>
      <trkpt lat="48.73821" lon="1.78928">
        <ele>183.2</ele>
        <time>2026-01-31T11:44:39Z</time>
      </trkpt>
      <trkpt lat="48.7382" lon="1.78924">
        <ele>183.2</ele>
        <time>2026-01-31T11:44:41Z</time>
      </trkpt>
      <trkpt lat="48.7382" lon="1.78919">
        <ele>183.2</ele>
        <time>2026-01-31T11:44:43Z</time>
      </trkpt>
      <trkpt lat="48.73821" lon="1.78914">
        <ele>183</ele>
        <time>2026-01-31T11:44:45Z</time>
      </trkpt>
      <trkpt lat="48.7382" lon="1.7891">
        <ele>183</ele>
        <time>2026-01-31T11:44:47Z</time>
      </trkpt>
      <trkpt lat="48.7382" lon="1.78906">
        <ele>183</ele>
        <time>2026-01-31T11:44:49Z</time>
      </trkpt>
      <trkpt lat="48.7382" lon="1.78903">
        <ele>183.2</ele>
        <time>2026-01-31T11:44:51Z</time>
      </trkpt>
      <trkpt lat="48.73819" lon="1.789">
        <ele>183.2</ele>
        <time>2026-01-31T11:44:53Z</time>
      </trkpt>
      <trkpt lat="48.73819" lon="1.78897">
        <ele>183.2</ele>
        <time>2026-01-31T11:44:55Z</time>
      </trkpt>
      <trkpt lat="48.73818" lon="1.78893">
        <ele>183</ele>
        <time>2026-01-31T11:44:57Z</time>
      </trkpt>
      <trkpt lat="48.73818" lon="1.78889">
        <ele>182.8</ele>
        <time>2026-01-31T11:44:59Z</time>
      </trkpt>
      <trkpt lat="48.73817" lon="1.78885">
        <ele>182.6</ele>
        <time>2026-01-31T11:45:01Z</time>
      </trkpt>
      <trkpt lat="48.73817" lon="1.7888">
        <ele>182.6</ele>
        <time>2026-01-31T11:45:03Z</time>
      </trkpt>
      <trkpt lat="48.73817" lon="1.78876">
        <ele>182.4</ele>
        <time>2026-01-31T11:45:05Z</time>
      </trkpt>
      <trkpt lat="48.73816" lon="1.78871">
        <ele>182.2</ele>
        <time>2026-01-31T11:45:07Z</time>
      </trkpt>
      <trkpt lat="48.73814" lon="1.78867">
        <ele>182</ele>
        <time>2026-01-31T11:45:09Z</time>
      </trkpt>
      <trkpt lat="48.73813" lon="1.78863">
        <ele>182</ele>
        <time>2026-01-31T11:45:11Z</time>
      </trkpt>
      <trkpt lat="48.73812" lon="1.78859">
        <ele>181.8</ele>
        <time>2026-01-31T11:45:13Z</time>
      </trkpt>
      <trkpt lat="48.73811" lon="1.78855">
        <ele>181.6</ele>
        <time>2026-01-31T11:45:15Z</time>
      </trkpt>
      <trkpt lat="48.7381" lon="1.78851">
        <ele>181.4</ele>
        <time>2026-01-31T11:45:17Z</time>
      </trkpt>
      <trkpt lat="48.7381" lon="1.78846">
        <ele>181.2</ele>
        <time>2026-01-31T11:45:19Z</time>
      </trkpt>
      <trkpt lat="48.73809" lon="1.78841">
        <ele>181</ele>
        <time>2026-01-31T11:45:21Z</time>
      </trkpt>
      <trkpt lat="48.73809" lon="1.78837">
        <ele>181</ele>
        <time>2026-01-31T11:45:23Z</time>
      </trkpt>
      <trkpt lat="48.73807" lon="1.78833">
        <ele>180.8</ele>
        <time>2026-01-31T11:45:25Z</time>
      </trkpt>
      <trkpt lat="48.73806" lon="1.78829">
        <ele>180.6</ele>
        <time>2026-01-31T11:45:27Z</time>
      </trkpt>
      <trkpt lat="48.73804" lon="1.78825">
        <ele>180.4</ele>
        <time>2026-01-31T11:45:29Z</time>
      </trkpt>
      <trkpt lat="48.73804" lon="1.78821">
        <ele>180.2</ele>
        <time>2026-01-31T11:45:31Z</time>
      </trkpt>
      <trkpt lat="48.73803" lon="1.78817">
        <ele>180</ele>
        <time>2026-01-31T11:45:33Z</time>
      </trkpt>
      <trkpt lat="48.73803" lon="1.78812">
        <ele>180</ele>
        <time>2026-01-31T11:45:35Z</time>
      </trkpt>
      <trkpt lat="48.73803" lon="1.78807">
        <ele>180</ele>
        <time>2026-01-31T11:45:37Z</time>
      </trkpt>
      <trkpt lat="48.73802" lon="1.78802">
        <ele>179.8</ele>
        <time>2026-01-31T11:45:39Z</time>
      </trkpt>
      <trkpt lat="48.73801" lon="1.78798">
        <ele>179.6</ele>
        <time>2026-01-31T11:45:41Z</time>
      </trkpt>
      <trkpt lat="48.738" lon="1.78794">
        <ele>179.4</ele>
        <time>2026-01-31T11:45:43Z</time>
      </trkpt>
      <trkpt lat="48.73798" lon="1.7879">
        <ele>179</ele>
        <time>2026-01-31T11:45:45Z</time>
      </trkpt>
      <trkpt lat="48.73797" lon="1.78787">
        <ele>178.8</ele>
        <time>2026-01-31T11:45:47Z</time>
      </trkpt>
      <trkpt lat="48.73795" lon="1.78782">
        <ele>178.6</ele>
        <time>2026-01-31T11:45:49Z</time>
      </trkpt>
      <trkpt lat="48.73794" lon="1.78778">
        <ele>178.2</ele>
        <time>2026-01-31T11:45:51Z</time>
      </trkpt>
      <trkpt lat="48.73793" lon="1.78773">
        <ele>178.2</ele>
        <time>2026-01-31T11:45:53Z</time>
      </trkpt>
      <trkpt lat="48.73793" lon="1.78768">
        <ele>178</ele>
        <time>2026-01-31T11:45:55Z</time>
      </trkpt>
      <trkpt lat="48.73793" lon="1.78764">
        <ele>177.8</ele>
        <time>2026-01-31T11:45:57Z</time>
      </trkpt>
      <trkpt lat="48.73792" lon="1.7876">
        <ele>177.8</ele>
        <time>2026-01-31T11:45:59Z</time>
      </trkpt>
      <trkpt lat="48.73791" lon="1.78756">
        <ele>177.8</ele>
        <time>2026-01-31T11:46:01Z</time>
      </trkpt>
      <trkpt lat="48.73791" lon="1.78752">
        <ele>177.8</ele>
        <time>2026-01-31T11:46:03Z</time>
      </trkpt>
      <trkpt lat="48.73789" lon="1.78749">
        <ele>177.6</ele>
        <time>2026-01-31T11:46:05Z</time>
      </trkpt>
      <trkpt lat="48.73788" lon="1.78745">
        <ele>177.4</ele>
        <time>2026-01-31T11:46:08Z</time>
      </trkpt>
      <trkpt lat="48.73788" lon="1.78742">
        <ele>177.4</ele>
        <time>2026-01-31T11:46:11Z</time>
      </trkpt>
      <trkpt lat="48.73788" lon="1.78738">
        <ele>177.4</ele>
        <time>2026-01-31T11:46:13Z</time>
      </trkpt>
      <trkpt lat="48.73788" lon="1.78734">
        <ele>177.4</ele>
        <time>2026-01-31T11:46:15Z</time>
      </trkpt>
      <trkpt lat="48.73787" lon="1.7873">
        <ele>177.4</ele>
        <time>2026-01-31T11:46:17Z</time>
      </trkpt>
      <trkpt lat="48.73786" lon="1.78726">
        <ele>177.4</ele>
        <time>2026-01-31T11:46:19Z</time>
      </trkpt>
      <trkpt lat="48.73785" lon="1.78722">
        <ele>177.2</ele>
        <time>2026-01-31T11:46:21Z</time>
      </trkpt>
      <trkpt lat="48.73785" lon="1.78718">
        <ele>177.2</ele>
        <time>2026-01-31T11:46:23Z</time>
      </trkpt>
      <trkpt lat="48.73786" lon="1.78713">
        <ele>177.2</ele>
        <time>2026-01-31T11:46:25Z</time>
      </trkpt>
      <trkpt lat="48.73786" lon="1.78709">
        <ele>177</ele>
        <time>2026-01-31T11:46:27Z</time>
      </trkpt>
      <trkpt lat="48.73786" lon="1.78704">
        <ele>177</ele>
        <time>2026-01-31T11:46:29Z</time>
      </trkpt>
      <trkpt lat="48.73785" lon="1.78699">
        <ele>177</ele>
        <time>2026-01-31T11:46:31Z</time>
      </trkpt>
      <trkpt lat="48.73784" lon="1.78695">
        <ele>177</ele>
        <time>2026-01-31T11:46:33Z</time>
      </trkpt>
      <trkpt lat="48.73783" lon="1.78691">
        <ele>177</ele>
        <time>2026-01-31T11:46:35Z</time>
      </trkpt>
      <trkpt lat="48.73783" lon="1.78688">
        <ele>177</ele>
        <time>2026-01-31T11:46:37Z</time>
      </trkpt>
      <trkpt lat="48.73783" lon="1.78684">
        <ele>177</ele>
        <time>2026-01-31T11:46:39Z</time>
      </trkpt>
      <trkpt lat="48.73782" lon="1.78681">
        <ele>177</ele>
        <time>2026-01-31T11:46:41Z</time>
      </trkpt>
      <trkpt lat="48.73781" lon="1.78678">
        <ele>177</ele>
        <time>2026-01-31T11:46:43Z</time>
      </trkpt>
      <trkpt lat="48.73781" lon="1.78675">
        <ele>177.2</ele>
        <time>2026-01-31T11:46:45Z</time>
      </trkpt>
      <trkpt lat="48.7378" lon="1.78671">
        <ele>177.2</ele>
        <time>2026-01-31T11:46:47Z</time>
      </trkpt>
      <trkpt lat="48.73779" lon="1.78667">
        <ele>177.2</ele>
        <time>2026-01-31T11:46:49Z</time>
      </trkpt>
      <trkpt lat="48.73779" lon="1.78663">
        <ele>177.2</ele>
        <time>2026-01-31T11:46:51Z</time>
      </trkpt>
      <trkpt lat="48.7378" lon="1.78658">
        <ele>177</ele>
        <time>2026-01-31T11:46:53Z</time>
      </trkpt>
      <trkpt lat="48.73781" lon="1.78654">
        <ele>177</ele>
        <time>2026-01-31T11:46:55Z</time>
      </trkpt>
      <trkpt lat="48.73781" lon="1.7865">
        <ele>177</ele>
        <time>2026-01-31T11:46:57Z</time>
      </trkpt>
      <trkpt lat="48.7378" lon="1.78645">
        <ele>177</ele>
        <time>2026-01-31T11:46:59Z</time>
      </trkpt>
      <trkpt lat="48.7378" lon="1.78641">
        <ele>177</ele>
        <time>2026-01-31T11:47:01Z</time>
      </trkpt>
      <trkpt lat="48.73779" lon="1.78636">
        <ele>177</ele>
        <time>2026-01-31T11:47:03Z</time>
      </trkpt>
      <trkpt lat="48.73777" lon="1.78632">
        <ele>176.8</ele>
        <time>2026-01-31T11:47:05Z</time>
      </trkpt>
      <trkpt lat="48.73776" lon="1.78628">
        <ele>176.6</ele>
        <time>2026-01-31T11:47:07Z</time>
      </trkpt>
      <trkpt lat="48.73775" lon="1.78625">
        <ele>176.6</ele>
        <time>2026-01-31T11:47:09Z</time>
      </trkpt>
      <trkpt lat="48.73775" lon="1.78621">
        <ele>176.4</ele>
        <time>2026-01-31T11:47:11Z</time>
      </trkpt>
      <trkpt lat="48.73773" lon="1.78617">
        <ele>176.2</ele>
        <time>2026-01-31T11:47:13Z</time>
      </trkpt>
      <trkpt lat="48.73772" lon="1.78613">
        <ele>176.2</ele>
        <time>2026-01-31T11:47:15Z</time>
      </trkpt>
      <trkpt lat="48.73771" lon="1.78608">
        <ele>176</ele>
        <time>2026-01-31T11:47:17Z</time>
      </trkpt>
      <trkpt lat="48.7377" lon="1.78604">
        <ele>176</ele>
        <time>2026-01-31T11:47:19Z</time>
      </trkpt>
      <trkpt lat="48.73769" lon="1.786">
        <ele>175.8</ele>
        <time>2026-01-31T11:47:21Z</time>
      </trkpt>
      <trkpt lat="48.73769" lon="1.78596">
        <ele>175.6</ele>
        <time>2026-01-31T11:47:23Z</time>
      </trkpt>
      <trkpt lat="48.73767" lon="1.78591">
        <ele>175.4</ele>
        <time>2026-01-31T11:47:25Z</time>
      </trkpt>
      <trkpt lat="48.73767" lon="1.78587">
        <ele>175.4</ele>
        <time>2026-01-31T11:47:27Z</time>
      </trkpt>
      <trkpt lat="48.73766" lon="1.78583">
        <ele>175.2</ele>
        <time>2026-01-31T11:47:29Z</time>
      </trkpt>
      <trkpt lat="48.73766" lon="1.78579">
        <ele>175.2</ele>
        <time>2026-01-31T11:47:31Z</time>
      </trkpt>
      <trkpt lat="48.73765" lon="1.78575">
        <ele>175</ele>
        <time>2026-01-31T11:47:33Z</time>
      </trkpt>
      <trkpt lat="48.73764" lon="1.78571">
        <ele>175.2</ele>
        <time>2026-01-31T11:47:35Z</time>
      </trkpt>
      <trkpt lat="48.73764" lon="1.78567">
        <ele>175.2</ele>
        <time>2026-01-31T11:47:37Z</time>
      </trkpt>
      <trkpt lat="48.73764" lon="1.78564">
        <ele>175.2</ele>
        <time>2026-01-31T11:47:39Z</time>
      </trkpt>
      <trkpt lat="48.73764" lon="1.7856">
        <ele>175.4</ele>
        <time>2026-01-31T11:47:41Z</time>
      </trkpt>
      <trkpt lat="48.73763" lon="1.78556">
        <ele>175.6</ele>
        <time>2026-01-31T11:47:43Z</time>
      </trkpt>
      <trkpt lat="48.73761" lon="1.78551">
        <ele>175.8</ele>
        <time>2026-01-31T11:47:45Z</time>
      </trkpt>
      <trkpt lat="48.73759" lon="1.78548">
        <ele>176</ele>
        <time>2026-01-31T11:47:47Z</time>
      </trkpt>
      <trkpt lat="48.73758" lon="1.78544">
        <ele>176</ele>
        <time>2026-01-31T11:47:49Z</time>
      </trkpt>
      <trkpt lat="48.73756" lon="1.7854">
        <ele>176</ele>
        <time>2026-01-31T11:47:51Z</time>
      </trkpt>
      <trkpt lat="48.73755" lon="1.78537">
        <ele>176.2</ele>
        <time>2026-01-31T11:47:53Z</time>
      </trkpt>
      <trkpt lat="48.73754" lon="1.78535">
        <ele>176.8</ele>
        <time>2026-01-31T11:47:57Z</time>
      </trkpt>
      <trkpt lat="48.73753" lon="1.78533">
        <ele>177.2</ele>
        <time>2026-01-31T11:48:00Z</time>
      </trkpt>
      <trkpt lat="48.73751" lon="1.78531">
        <ele>177.6</ele>
        <time>2026-01-31T11:48:02Z</time>
      </trkpt>
      <trkpt lat="48.73749" lon="1.78528">
        <ele>177.8</ele>
        <time>2026-01-31T11:48:04Z</time>
      </trkpt>
      <trkpt lat="48.73748" lon="1.78525">
        <ele>178</ele>
        <time>2026-01-31T11:48:06Z</time>
      </trkpt>
      <trkpt lat="48.73747" lon="1.78521">
        <ele>178.2</ele>
        <time>2026-01-31T11:48:08Z</time>
      </trkpt>
      <trkpt lat="48.73746" lon="1.78517">
        <ele>178.2</ele>
        <time>2026-01-31T11:48:10Z</time>
      </trkpt>
      <trkpt lat="48.73745" lon="1.78512">
        <ele>178.2</ele>
        <time>2026-01-31T11:48:12Z</time>
      </trkpt>
      <trkpt lat="48.73745" lon="1.78508">
        <ele>178.2</ele>
        <time>2026-01-31T11:48:14Z</time>
      </trkpt>
      <trkpt lat="48.73744" lon="1.78504">
        <ele>178.2</ele>
        <time>2026-01-31T11:48:16Z</time>
      </trkpt>
      <trkpt lat="48.73743" lon="1.785">
        <ele>178</ele>
        <time>2026-01-31T11:48:18Z</time>
      </trkpt>
      <trkpt lat="48.73742" lon="1.78496">
        <ele>177.8</ele>
        <time>2026-01-31T11:48:20Z</time>
      </trkpt>
      <trkpt lat="48.7374" lon="1.78493">
        <ele>177.6</ele>
        <time>2026-01-31T11:48:22Z</time>
      </trkpt>
      <trkpt lat="48.7374" lon="1.7849">
        <ele>177.6</ele>
        <time>2026-01-31T11:48:24Z</time>
      </trkpt>
      <trkpt lat="48.73739" lon="1.78486">
        <ele>177.4</ele>
        <time>2026-01-31T11:48:26Z</time>
      </trkpt>
      <trkpt lat="48.73738" lon="1.78483">
        <ele>177.4</ele>
        <time>2026-01-31T11:48:28Z</time>
      </trkpt>
      <trkpt lat="48.73736" lon="1.7848">
        <ele>177.4</ele>
        <time>2026-01-31T11:48:30Z</time>
      </trkpt>
      <trkpt lat="48.73734" lon="1.78477">
        <ele>177.2</ele>
        <time>2026-01-31T11:48:32Z</time>
      </trkpt>
      <trkpt lat="48.73733" lon="1.78473">
        <ele>177.2</ele>
        <time>2026-01-31T11:48:34Z</time>
      </trkpt>
      <trkpt lat="48.73733" lon="1.78469">
        <ele>177</ele>
        <time>2026-01-31T11:48:36Z</time>
      </trkpt>
      <trkpt lat="48.73732" lon="1.78465">
        <ele>177</ele>
        <time>2026-01-31T11:48:38Z</time>
      </trkpt>
      <trkpt lat="48.73732" lon="1.7846">
        <ele>177</ele>
        <time>2026-01-31T11:48:40Z</time>
      </trkpt>
      <trkpt lat="48.73733" lon="1.78455">
        <ele>177.2</ele>
        <time>2026-01-31T11:48:42Z</time>
      </trkpt>
      <trkpt lat="48.73733" lon="1.7845">
        <ele>177</ele>
        <time>2026-01-31T11:48:44Z</time>
      </trkpt>
      <trkpt lat="48.73733" lon="1.78445">
        <ele>177</ele>
        <time>2026-01-31T11:48:46Z</time>
      </trkpt>
      <trkpt lat="48.73732" lon="1.78443">
        <ele>177</ele>
        <time>2026-01-31T11:48:47Z</time>
      </trkpt>
      <trkpt lat="48.73731" lon="1.78439">
        <ele>177</ele>
        <time>2026-01-31T11:48:49Z</time>
      </trkpt>
      <trkpt lat="48.7373" lon="1.78435">
        <ele>177</ele>
        <time>2026-01-31T11:48:51Z</time>
      </trkpt>
      <trkpt lat="48.7373" lon="1.78432">
        <ele>176.8</ele>
        <time>2026-01-31T11:48:53Z</time>
      </trkpt>
      <trkpt lat="48.73731" lon="1.78429">
        <ele>177</ele>
        <time>2026-01-31T11:48:55Z</time>
      </trkpt>
      <trkpt lat="48.73731" lon="1.78425">
        <ele>177</ele>
        <time>2026-01-31T11:48:57Z</time>
      </trkpt>
      <trkpt lat="48.73731" lon="1.78422">
        <ele>176.8</ele>
        <time>2026-01-31T11:48:59Z</time>
      </trkpt>
      <trkpt lat="48.7373" lon="1.78418">
        <ele>176.8</ele>
        <time>2026-01-31T11:49:01Z</time>
      </trkpt>
      <trkpt lat="48.73728" lon="1.78415">
        <ele>177</ele>
        <time>2026-01-31T11:49:03Z</time>
      </trkpt>
      <trkpt lat="48.73727" lon="1.78411">
        <ele>177</ele>
        <time>2026-01-31T11:49:05Z</time>
      </trkpt>
      <trkpt lat="48.73725" lon="1.78407">
        <ele>177</ele>
        <time>2026-01-31T11:49:07Z</time>
      </trkpt>
      <trkpt lat="48.73724" lon="1.78404">
        <ele>176.8</ele>
        <time>2026-01-31T11:49:08Z</time>
      </trkpt>
      <trkpt lat="48.73722" lon="1.784">
        <ele>176.8</ele>
        <time>2026-01-31T11:49:10Z</time>
      </trkpt>
      <trkpt lat="48.73721" lon="1.78396">
        <ele>176.8</ele>
        <time>2026-01-31T11:49:12Z</time>
      </trkpt>
      <trkpt lat="48.73721" lon="1.78392">
        <ele>176.8</ele>
        <time>2026-01-31T11:49:14Z</time>
      </trkpt>
      <trkpt lat="48.7372" lon="1.78388">
        <ele>176.8</ele>
        <time>2026-01-31T11:49:16Z</time>
      </trkpt>
      <trkpt lat="48.73721" lon="1.78383">
        <ele>176.8</ele>
        <time>2026-01-31T11:49:18Z</time>
      </trkpt>
      <trkpt lat="48.73721" lon="1.78379">
        <ele>176.8</ele>
        <time>2026-01-31T11:49:20Z</time>
      </trkpt>
      <trkpt lat="48.73723" lon="1.78377">
        <ele>176.8</ele>
        <time>2026-01-31T11:49:21Z</time>
      </trkpt>
      <trkpt lat="48.73724" lon="1.78372">
        <ele>176.6</ele>
        <time>2026-01-31T11:49:23Z</time>
      </trkpt>
      <trkpt lat="48.73725" lon="1.78368">
        <ele>176.6</ele>
        <time>2026-01-31T11:49:25Z</time>
      </trkpt>
      <trkpt lat="48.73725" lon="1.78363">
        <ele>176.6</ele>
        <time>2026-01-31T11:49:27Z</time>
      </trkpt>
      <trkpt lat="48.73725" lon="1.78358">
        <ele>176.4</ele>
        <time>2026-01-31T11:49:29Z</time>
      </trkpt>
      <trkpt lat="48.73726" lon="1.78354">
        <ele>176.4</ele>
        <time>2026-01-31T11:49:31Z</time>
      </trkpt>
      <trkpt lat="48.73727" lon="1.78352">
        <ele>176.2</ele>
        <time>2026-01-31T11:49:33Z</time>
        <extensions>
          <gpxtpx:TrackPointExtension xmlns:gpxtpx="http://www.garmin.com/xmlschemas/TrackPointExtension/v1">
            <gpxtpx:hr>89</gpxtpx:hr>
          </gpxtpx:TrackPointExtension>
        </extensions>
      </trkpt>
      <trkpt lat="48.73727" lon="1.78349">
        <ele>176.2</ele>
        <time>2026-01-31T11:49:35Z</time>
        <extensions>
          <gpxtpx:TrackPointExtension xmlns:gpxtpx="http://www.garmin.com/xmlschemas/TrackPointExtension/v1">
            <gpxtpx:hr>82</gpxtpx:hr>
          </gpxtpx:TrackPointExtension>
        </extensions>
      </trkpt>
      <trkpt lat="48.73729" lon="1.78345">
        <ele>176.2</ele>
        <time>2026-01-31T11:49:37Z</time>
        <extensions>
          <gpxtpx:TrackPointExtension xmlns:gpxtpx="http://www.garmin.com/xmlschemas/TrackPointExtension/v1">
            <gpxtpx:hr>78</gpxtpx:hr>
          </gpxtpx:TrackPointExtension>
        </extensions>
      </trkpt>
      <trkpt lat="48.7373" lon="1.78341">
        <ele>176</ele>
        <time>2026-01-31T11:49:39Z</time>
        <extensions>
          <gpxtpx:TrackPointExtension xmlns:gpxtpx="http://www.garmin.com/xmlschemas/TrackPointExtension/v1">
            <gpxtpx:hr>76</gpxtpx:hr>
          </gpxtpx:TrackPointExtension>
        </extensions>
      </trkpt>
      <trkpt lat="48.73731" lon="1.78336">
        <ele>176</ele>
        <time>2026-01-31T11:49:41Z</time>
        <extensions>
          <gpxtpx:TrackPointExtension xmlns:gpxtpx="http://www.garmin.com/xmlschemas/TrackPointExtension/v1">
            <gpxtpx:hr>74</gpxtpx:hr>
          </gpxtpx:TrackPointExtension>
        </extensions>
      </trkpt>
      <trkpt lat="48.73732" lon="1.78333">
        <ele>175.8</ele>
        <time>2026-01-31T11:49:43Z</time>
        <extensions>
          <gpxtpx:TrackPointExtension xmlns:gpxtpx="http://www.garmin.com/xmlschemas/TrackPointExtension/v1">
            <gpxtpx:hr>75</gpxtpx:hr>
          </gpxtpx:TrackPointExtension>
        </extensions>
      </trkpt>
      <trkpt lat="48.73733" lon="1.7833">
        <ele>175.8</ele>
        <time>2026-01-31T11:49:46Z</time>
        <extensions>
          <gpxtpx:TrackPointExtension xmlns:gpxtpx="http://www.garmin.com/xmlschemas/TrackPointExtension/v1">
            <gpxtpx:hr>75</gpxtpx:hr>
          </gpxtpx:TrackPointExtension>
        </extensions>
      </trkpt>
      <trkpt lat="48.73733" lon="1.78327">
        <ele>176</ele>
        <time>2026-01-31T11:49:48Z</time>
        <extensions>
          <gpxtpx:TrackPointExtension xmlns:gpxtpx="http://www.garmin.com/xmlschemas/TrackPointExtension/v1">
            <gpxtpx:hr>76</gpxtpx:hr>
          </gpxtpx:TrackPointExtension>
        </extensions>
      </trkpt>
      <trkpt lat="48.73733" lon="1.78323">
        <ele>176</ele>
        <time>2026-01-31T11:49:50Z</time>
        <extensions>
          <gpxtpx:TrackPointExtension xmlns:gpxtpx="http://www.garmin.com/xmlschemas/TrackPointExtension/v1">
            <gpxtpx:hr>76</gpxtpx:hr>
          </gpxtpx:TrackPointExtension>
        </extensions>
      </trkpt>
      <trkpt lat="48.73734" lon="1.7832">
        <ele>176</ele>
        <time>2026-01-31T11:49:52Z</time>
        <extensions>
          <gpxtpx:TrackPointExtension xmlns:gpxtpx="http://www.garmin.com/xmlschemas/TrackPointExtension/v1">
            <gpxtpx:hr>76</gpxtpx:hr>
          </gpxtpx:TrackPointExtension>
        </extensions>
      </trkpt>
      <trkpt lat="48.73735" lon="1.78316">
        <ele>176</ele>
        <time>2026-01-31T11:49:54Z</time>
        <extensions>
          <gpxtpx:TrackPointExtension xmlns:gpxtpx="http://www.garmin.com/xmlschemas/TrackPointExtension/v1">
            <gpxtpx:hr>77</gpxtpx:hr>
          </gpxtpx:TrackPointExtension>
        </extensions>
      </trkpt>
      <trkpt lat="48.73735" lon="1.78313">
        <ele>176.2</ele>
        <time>2026-01-31T11:49:56Z</time>
        <extensions>
          <gpxtpx:TrackPointExtension xmlns:gpxtpx="http://www.garmin.com/xmlschemas/TrackPointExtension/v1">
            <gpxtpx:hr>77</gpxtpx:hr>
          </gpxtpx:TrackPointExtension>
        </extensions>
      </trkpt>
      <trkpt lat="48.73735" lon="1.78309">
        <ele>176.2</ele>
        <time>2026-01-31T11:49:58Z</time>
        <extensions>
          <gpxtpx:TrackPointExtension xmlns:gpxtpx="http://www.garmin.com/xmlschemas/TrackPointExtension/v1">
            <gpxtpx:hr>77</gpxtpx:hr>
          </gpxtpx:TrackPointExtension>
        </extensions>
      </trkpt>
      <trkpt lat="48.73735" lon="1.78305">
        <ele>176.4</ele>
        <time>2026-01-31T11:50:00Z</time>
        <extensions>
          <gpxtpx:TrackPointExtension xmlns:gpxtpx="http://www.garmin.com/xmlschemas/TrackPointExtension/v1">
            <gpxtpx:hr>77</gpxtpx:hr>
          </gpxtpx:TrackPointExtension>
        </extensions>
      </trkpt>
      <trkpt lat="48.73735" lon="1.78301">
        <ele>176.4</ele>
        <time>2026-01-31T11:50:02Z</time>
        <extensions>
          <gpxtpx:TrackPointExtension xmlns:gpxtpx="http://www.garmin.com/xmlschemas/TrackPointExtension/v1">
            <gpxtpx:hr>77</gpxtpx:hr>
          </gpxtpx:TrackPointExtension>
        </extensions>
      </trkpt>
      <trkpt lat="48.73735" lon="1.78297">
        <ele>176.2</ele>
        <time>2026-01-31T11:50:04Z</time>
        <extensions>
          <gpxtpx:TrackPointExtension xmlns:gpxtpx="http://www.garmin.com/xmlschemas/TrackPointExtension/v1">
            <gpxtpx:hr>77</gpxtpx:hr>
          </gpxtpx:TrackPointExtension>
        </extensions>
      </trkpt>
      <trkpt lat="48.73735" lon="1.78293">
        <ele>176.2</ele>
        <time>2026-01-31T11:50:06Z</time>
        <extensions>
          <gpxtpx:TrackPointExtension xmlns:gpxtpx="http://www.garmin.com/xmlschemas/TrackPointExtension/v1">
            <gpxtpx:hr>77</gpxtpx:hr>
          </gpxtpx:TrackPointExtension>
        </extensions>
      </trkpt>
      <trkpt lat="48.73736" lon="1.7829">
        <ele>176.2</ele>
        <time>2026-01-31T11:50:08Z</time>
        <extensions>
          <gpxtpx:TrackPointExtension xmlns:gpxtpx="http://www.garmin.com/xmlschemas/TrackPointExtension/v1">
            <gpxtpx:hr>77</gpxtpx:hr>
          </gpxtpx:TrackPointExtension>
        </extensions>
      </trkpt>
      <trkpt lat="48.73737" lon="1.78286">
        <ele>176.2</ele>
        <time>2026-01-31T11:50:10Z</time>
        <extensions>
          <gpxtpx:TrackPointExtension xmlns:gpxtpx="http://www.garmin.com/xmlschemas/TrackPointExtension/v1">
            <gpxtpx:hr>77</gpxtpx:hr>
          </gpxtpx:TrackPointExtension>
        </extensions>
      </trkpt>
      <trkpt lat="48.73739" lon="1.78282">
        <ele>176.2</ele>
        <time>2026-01-31T11:50:12Z</time>
        <extensions>
          <gpxtpx:TrackPointExtension xmlns:gpxtpx="http://www.garmin.com/xmlschemas/TrackPointExtension/v1">
            <gpxtpx:hr>78</gpxtpx:hr>
          </gpxtpx:TrackPointExtension>
        </extensions>
      </trkpt>
      <trkpt lat="48.7374" lon="1.7828">
        <ele>176.2</ele>
        <time>2026-01-31T11:50:13Z</time>
        <extensions>
          <gpxtpx:TrackPointExtension xmlns:gpxtpx="http://www.garmin.com/xmlschemas/TrackPointExtension/v1">
            <gpxtpx:hr>78</gpxtpx:hr>
          </gpxtpx:TrackPointExtension>
        </extensions>
      </trkpt>
      <trkpt lat="48.73742" lon="1.78277">
        <ele>176.2</ele>
        <time>2026-01-31T11:50:15Z</time>
        <extensions>
          <gpxtpx:TrackPointExtension xmlns:gpxtpx="http://www.garmin.com/xmlschemas/TrackPointExtension/v1">
            <gpxtpx:hr>78</gpxtpx:hr>
          </gpxtpx:TrackPointExtension>
        </extensions>
      </trkpt>
      <trkpt lat="48.73744" lon="1.78274">
        <ele>176.2</ele>
        <time>2026-01-31T11:50:17Z</time>
        <extensions>
          <gpxtpx:TrackPointExtension xmlns:gpxtpx="http://www.garmin.com/xmlschemas/TrackPointExtension/v1">
            <gpxtpx:hr>78</gpxtpx:hr>
          </gpxtpx:TrackPointExtension>
        </extensions>
      </trkpt>
      <trkpt lat="48.73746" lon="1.78271">
        <ele>176.2</ele>
        <time>2026-01-31T11:50:19Z</time>
        <extensions>
          <gpxtpx:TrackPointExtension xmlns:gpxtpx="http://www.garmin.com/xmlschemas/TrackPointExtension/v1">
            <gpxtpx:hr>78</gpxtpx:hr>
          </gpxtpx:TrackPointExtension>
        </extensions>
      </trkpt>
      <trkpt lat="48.73748" lon="1.78268">
        <ele>176.2</ele>
        <time>2026-01-31T11:50:21Z</time>
        <extensions>
          <gpxtpx:TrackPointExtension xmlns:gpxtpx="http://www.garmin.com/xmlschemas/TrackPointExtension/v1">
            <gpxtpx:hr>77</gpxtpx:hr>
          </gpxtpx:TrackPointExtension>
        </extensions>
      </trkpt>
      <trkpt lat="48.73749" lon="1.78265">
        <ele>176.2</ele>
        <time>2026-01-31T11:50:23Z</time>
        <extensions>
          <gpxtpx:TrackPointExtension xmlns:gpxtpx="http://www.garmin.com/xmlschemas/TrackPointExtension/v1">
            <gpxtpx:hr>77</gpxtpx:hr>
          </gpxtpx:TrackPointExtension>
        </extensions>
      </trkpt>
      <trkpt lat="48.7375" lon="1.78262">
        <ele>176.2</ele>
        <time>2026-01-31T11:50:25Z</time>
        <extensions>
          <gpxtpx:TrackPointExtension xmlns:gpxtpx="http://www.garmin.com/xmlschemas/TrackPointExtension/v1">
            <gpxtpx:hr>78</gpxtpx:hr>
          </gpxtpx:TrackPointExtension>
        </extensions>
      </trkpt>
      <trkpt lat="48.73751" lon="1.78258">
        <ele>176.2</ele>
        <time>2026-01-31T11:50:27Z</time>
        <extensions>
          <gpxtpx:TrackPointExtension xmlns:gpxtpx="http://www.garmin.com/xmlschemas/TrackPointExtension/v1">
            <gpxtpx:hr>78</gpxtpx:hr>
          </gpxtpx:TrackPointExtension>
        </extensions>
      </trkpt>
      <trkpt lat="48.73752" lon="1.78253">
        <ele>176.2</ele>
        <time>2026-01-31T11:50:29Z</time>
        <extensions>
          <gpxtpx:TrackPointExtension xmlns:gpxtpx="http://www.garmin.com/xmlschemas/TrackPointExtension/v1">
            <gpxtpx:hr>78</gpxtpx:hr>
          </gpxtpx:TrackPointExtension>
        </extensions>
      </trkpt>
      <trkpt lat="48.73752" lon="1.78249">
        <ele>176.2</ele>
        <time>2026-01-31T11:50:31Z</time>
        <extensions>
          <gpxtpx:TrackPointExtension xmlns:gpxtpx="http://www.garmin.com/xmlschemas/TrackPointExtension/v1">
            <gpxtpx:hr>78</gpxtpx:hr>
          </gpxtpx:TrackPointExtension>
        </extensions>
      </trkpt>
      <trkpt lat="48.73752" lon="1.78245">
        <ele>176.2</ele>
        <time>2026-01-31T11:50:33Z</time>
        <extensions>
          <gpxtpx:TrackPointExtension xmlns:gpxtpx="http://www.garmin.com/xmlschemas/TrackPointExtension/v1">
            <gpxtpx:hr>78</gpxtpx:hr>
          </gpxtpx:TrackPointExtension>
        </extensions>
      </trkpt>
      <trkpt lat="48.73751" lon="1.78242">
        <ele>176.2</ele>
        <time>2026-01-31T11:50:35Z</time>
        <extensions>
          <gpxtpx:TrackPointExtension xmlns:gpxtpx="http://www.garmin.com/xmlschemas/TrackPointExtension/v1">
            <gpxtpx:hr>78</gpxtpx:hr>
          </gpxtpx:TrackPointExtension>
        </extensions>
      </trkpt>
      <trkpt lat="48.73752" lon="1.78239">
        <ele>176.2</ele>
        <time>2026-01-31T11:50:37Z</time>
        <extensions>
          <gpxtpx:TrackPointExtension xmlns:gpxtpx="http://www.garmin.com/xmlschemas/TrackPointExtension/v1">
            <gpxtpx:hr>78</gpxtpx:hr>
          </gpxtpx:TrackPointExtension>
        </extensions>
      </trkpt>
      <trkpt lat="48.73753" lon="1.78236">
        <ele>176.2</ele>
        <time>2026-01-31T11:50:39Z</time>
        <extensions>
          <gpxtpx:TrackPointExtension xmlns:gpxtpx="http://www.garmin.com/xmlschemas/TrackPointExtension/v1">
            <gpxtpx:hr>78</gpxtpx:hr>
          </gpxtpx:TrackPointExtension>
        </extensions>
      </trkpt>
      <trkpt lat="48.73755" lon="1.78233">
        <ele>176.2</ele>
        <time>2026-01-31T11:50:41Z</time>
        <extensions>
          <gpxtpx:TrackPointExtension xmlns:gpxtpx="http://www.garmin.com/xmlschemas/TrackPointExtension/v1">
            <gpxtpx:hr>78</gpxtpx:hr>
          </gpxtpx:TrackPointExtension>
        </extensions>
      </trkpt>
      <trkpt lat="48.73756" lon="1.7823">
        <ele>176.2</ele>
        <time>2026-01-31T11:50:43Z</time>
        <extensions>
          <gpxtpx:TrackPointExtension xmlns:gpxtpx="http://www.garmin.com/xmlschemas/TrackPointExtension/v1">
            <gpxtpx:hr>78</gpxtpx:hr>
          </gpxtpx:TrackPointExtension>
        </extensions>
      </trkpt>
      <trkpt lat="48.73756" lon="1.78228">
        <ele>176.2</ele>
        <time>2026-01-31T11:50:45Z</time>
        <extensions>
          <gpxtpx:TrackPointExtension xmlns:gpxtpx="http://www.garmin.com/xmlschemas/TrackPointExtension/v1">
            <gpxtpx:hr>78</gpxtpx:hr>
          </gpxtpx:TrackPointExtension>
        </extensions>
      </trkpt>
      <trkpt lat="48.73756" lon="1.78225">
        <ele>176</ele>
        <time>2026-01-31T11:50:47Z</time>
        <extensions>
          <gpxtpx:TrackPointExtension xmlns:gpxtpx="http://www.garmin.com/xmlschemas/TrackPointExtension/v1">
            <gpxtpx:hr>79</gpxtpx:hr>
          </gpxtpx:TrackPointExtension>
        </extensions>
      </trkpt>
      <trkpt lat="48.73755" lon="1.78221">
        <ele>175.8</ele>
        <time>2026-01-31T11:50:49Z</time>
        <extensions>
          <gpxtpx:TrackPointExtension xmlns:gpxtpx="http://www.garmin.com/xmlschemas/TrackPointExtension/v1">
            <gpxtpx:hr>80</gpxtpx:hr>
          </gpxtpx:TrackPointExtension>
        </extensions>
      </trkpt>
      <trkpt lat="48.73755" lon="1.78218">
        <ele>175.6</ele>
        <time>2026-01-31T11:50:51Z</time>
        <extensions>
          <gpxtpx:TrackPointExtension xmlns:gpxtpx="http://www.garmin.com/xmlschemas/TrackPointExtension/v1">
            <gpxtpx:hr>81</gpxtpx:hr>
          </gpxtpx:TrackPointExtension>
        </extensions>
      </trkpt>
      <trkpt lat="48.73755" lon="1.78215">
        <ele>175.4</ele>
        <time>2026-01-31T11:50:53Z</time>
        <extensions>
          <gpxtpx:TrackPointExtension xmlns:gpxtpx="http://www.garmin.com/xmlschemas/TrackPointExtension/v1">
            <gpxtpx:hr>81</gpxtpx:hr>
          </gpxtpx:TrackPointExtension>
        </extensions>
      </trkpt>
      <trkpt lat="48.73755" lon="1.78212">
        <ele>175.2</ele>
        <time>2026-01-31T11:50:55Z</time>
        <extensions>
          <gpxtpx:TrackPointExtension xmlns:gpxtpx="http://www.garmin.com/xmlschemas/TrackPointExtension/v1">
            <gpxtpx:hr>81</gpxtpx:hr>
          </gpxtpx:TrackPointExtension>
        </extensions>
      </trkpt>
      <trkpt lat="48.73755" lon="1.78207">
        <ele>175</ele>
        <time>2026-01-31T11:50:57Z</time>
        <extensions>
          <gpxtpx:TrackPointExtension xmlns:gpxtpx="http://www.garmin.com/xmlschemas/TrackPointExtension/v1">
            <gpxtpx:hr>81</gpxtpx:hr>
          </gpxtpx:TrackPointExtension>
        </extensions>
      </trkpt>
      <trkpt lat="48.73756" lon="1.78203">
        <ele>174.8</ele>
        <time>2026-01-31T11:50:59Z</time>
        <extensions>
          <gpxtpx:TrackPointExtension xmlns:gpxtpx="http://www.garmin.com/xmlschemas/TrackPointExtension/v1">
            <gpxtpx:hr>82</gpxtpx:hr>
          </gpxtpx:TrackPointExtension>
        </extensions>
      </trkpt>
      <trkpt lat="48.73756" lon="1.78198">
        <ele>174.8</ele>
        <time>2026-01-31T11:51:01Z</time>
        <extensions>
          <gpxtpx:TrackPointExtension xmlns:gpxtpx="http://www.garmin.com/xmlschemas/TrackPointExtension/v1">
            <gpxtpx:hr>82</gpxtpx:hr>
          </gpxtpx:TrackPointExtension>
        </extensions>
      </trkpt>
      <trkpt lat="48.73756" lon="1.78194">
        <ele>174.8</ele>
        <time>2026-01-31T11:51:03Z</time>
        <extensions>
          <gpxtpx:TrackPointExtension xmlns:gpxtpx="http://www.garmin.com/xmlschemas/TrackPointExtension/v1">
            <gpxtpx:hr>82</gpxtpx:hr>
          </gpxtpx:TrackPointExtension>
        </extensions>
      </trkpt>
      <trkpt lat="48.73756" lon="1.78189">
        <ele>174.8</ele>
        <time>2026-01-31T11:51:05Z</time>
        <extensions>
          <gpxtpx:TrackPointExtension xmlns:gpxtpx="http://www.garmin.com/xmlschemas/TrackPointExtension/v1">
            <gpxtpx:hr>82</gpxtpx:hr>
          </gpxtpx:TrackPointExtension>
        </extensions>
      </trkpt>
      <trkpt lat="48.73756" lon="1.78186">
        <ele>174.8</ele>
        <time>2026-01-31T11:51:06Z</time>
        <extensions>
          <gpxtpx:TrackPointExtension xmlns:gpxtpx="http://www.garmin.com/xmlschemas/TrackPointExtension/v1">
            <gpxtpx:hr>82</gpxtpx:hr>
          </gpxtpx:TrackPointExtension>
        </extensions>
      </trkpt>
      <trkpt lat="48.73756" lon="1.78183">
        <ele>174.8</ele>
        <time>2026-01-31T11:51:07Z</time>
        <extensions>
          <gpxtpx:TrackPointExtension xmlns:gpxtpx="http://www.garmin.com/xmlschemas/TrackPointExtension/v1">
            <gpxtpx:hr>83</gpxtpx:hr>
          </gpxtpx:TrackPointExtension>
        </extensions>
      </trkpt>
      <trkpt lat="48.73757" lon="1.7818">
        <ele>174.8</ele>
        <time>2026-01-31T11:51:08Z</time>
        <extensions>
          <gpxtpx:TrackPointExtension xmlns:gpxtpx="http://www.garmin.com/xmlschemas/TrackPointExtension/v1">
            <gpxtpx:hr>83</gpxtpx:hr>
          </gpxtpx:TrackPointExtension>
        </extensions>
      </trkpt>
      <trkpt lat="48.73757" lon="1.78177">
        <ele>174.8</ele>
        <time>2026-01-31T11:51:09Z</time>
        <extensions>
          <gpxtpx:TrackPointExtension xmlns:gpxtpx="http://www.garmin.com/xmlschemas/TrackPointExtension/v1">
            <gpxtpx:hr>83</gpxtpx:hr>
          </gpxtpx:TrackPointExtension>
        </extensions>
      </trkpt>
      <trkpt lat="48.73759" lon="1.78175">
        <ele>174.8</ele>
        <time>2026-01-31T11:51:10Z</time>
        <extensions>
          <gpxtpx:TrackPointExtension xmlns:gpxtpx="http://www.garmin.com/xmlschemas/TrackPointExtension/v1">
            <gpxtpx:hr>83</gpxtpx:hr>
          </gpxtpx:TrackPointExtension>
        </extensions>
      </trkpt>
      <trkpt lat="48.7376" lon="1.78172">
        <ele>174.8</ele>
        <time>2026-01-31T11:51:11Z</time>
        <extensions>
          <gpxtpx:TrackPointExtension xmlns:gpxtpx="http://www.garmin.com/xmlschemas/TrackPointExtension/v1">
            <gpxtpx:hr>83</gpxtpx:hr>
          </gpxtpx:TrackPointExtension>
        </extensions>
      </trkpt>
      <trkpt lat="48.73761" lon="1.78168">
        <ele>174.8</ele>
        <time>2026-01-31T11:51:13Z</time>
        <extensions>
          <gpxtpx:TrackPointExtension xmlns:gpxtpx="http://www.garmin.com/xmlschemas/TrackPointExtension/v1">
            <gpxtpx:hr>83</gpxtpx:hr>
          </gpxtpx:TrackPointExtension>
        </extensions>
      </trkpt>
      <trkpt lat="48.73763" lon="1.78163">
        <ele>174.8</ele>
        <time>2026-01-31T11:51:15Z</time>
        <extensions>
          <gpxtpx:TrackPointExtension xmlns:gpxtpx="http://www.garmin.com/xmlschemas/TrackPointExtension/v1">
            <gpxtpx:hr>84</gpxtpx:hr>
          </gpxtpx:TrackPointExtension>
        </extensions>
      </trkpt>
      <trkpt lat="48.73763" lon="1.78159">
        <ele>174.8</ele>
        <time>2026-01-31T11:51:17Z</time>
        <extensions>
          <gpxtpx:TrackPointExtension xmlns:gpxtpx="http://www.garmin.com/xmlschemas/TrackPointExtension/v1">
            <gpxtpx:hr>85</gpxtpx:hr>
          </gpxtpx:TrackPointExtension>
        </extensions>
      </trkpt>
      <trkpt lat="48.73764" lon="1.78155">
        <ele>174.8</ele>
        <time>2026-01-31T11:51:19Z</time>
        <extensions>
          <gpxtpx:TrackPointExtension xmlns:gpxtpx="http://www.garmin.com/xmlschemas/TrackPointExtension/v1">
            <gpxtpx:hr>87</gpxtpx:hr>
          </gpxtpx:TrackPointExtension>
        </extensions>
      </trkpt>
      <trkpt lat="48.73764" lon="1.78153">
        <ele>174.8</ele>
        <time>2026-01-31T11:51:21Z</time>
        <extensions>
          <gpxtpx:TrackPointExtension xmlns:gpxtpx="http://www.garmin.com/xmlschemas/TrackPointExtension/v1">
            <gpxtpx:hr>89</gpxtpx:hr>
          </gpxtpx:TrackPointExtension>
        </extensions>
      </trkpt>
      <trkpt lat="48.73765" lon="1.78149">
        <ele>174.8</ele>
        <time>2026-01-31T11:51:24Z</time>
        <extensions>
          <gpxtpx:TrackPointExtension xmlns:gpxtpx="http://www.garmin.com/xmlschemas/TrackPointExtension/v1">
            <gpxtpx:hr>91</gpxtpx:hr>
          </gpxtpx:TrackPointExtension>
        </extensions>
      </trkpt>
      <trkpt lat="48.73767" lon="1.78146">
        <ele>174.8</ele>
        <time>2026-01-31T11:51:26Z</time>
        <extensions>
          <gpxtpx:TrackPointExtension xmlns:gpxtpx="http://www.garmin.com/xmlschemas/TrackPointExtension/v1">
            <gpxtpx:hr>91</gpxtpx:hr>
          </gpxtpx:TrackPointExtension>
        </extensions>
      </trkpt>
      <trkpt lat="48.73769" lon="1.78142">
        <ele>174.8</ele>
        <time>2026-01-31T11:51:28Z</time>
        <extensions>
          <gpxtpx:TrackPointExtension xmlns:gpxtpx="http://www.garmin.com/xmlschemas/TrackPointExtension/v1">
            <gpxtpx:hr>91</gpxtpx:hr>
          </gpxtpx:TrackPointExtension>
        </extensions>
      </trkpt>
      <trkpt lat="48.7377" lon="1.78139">
        <ele>174.8</ele>
        <time>2026-01-31T11:51:30Z</time>
        <extensions>
          <gpxtpx:TrackPointExtension xmlns:gpxtpx="http://www.garmin.com/xmlschemas/TrackPointExtension/v1">
            <gpxtpx:hr>91</gpxtpx:hr>
          </gpxtpx:TrackPointExtension>
        </extensions>
      </trkpt>
      <trkpt lat="48.73771" lon="1.78136">
        <ele>174.8</ele>
        <time>2026-01-31T11:51:32Z</time>
        <extensions>
          <gpxtpx:TrackPointExtension xmlns:gpxtpx="http://www.garmin.com/xmlschemas/TrackPointExtension/v1">
            <gpxtpx:hr>91</gpxtpx:hr>
          </gpxtpx:TrackPointExtension>
        </extensions>
      </trkpt>
      <trkpt lat="48.73772" lon="1.78131">
        <ele>174.8</ele>
        <time>2026-01-31T11:51:34Z</time>
        <extensions>
          <gpxtpx:TrackPointExtension xmlns:gpxtpx="http://www.garmin.com/xmlschemas/TrackPointExtension/v1">
            <gpxtpx:hr>91</gpxtpx:hr>
          </gpxtpx:TrackPointExtension>
        </extensions>
      </trkpt>
      <trkpt lat="48.73772" lon="1.78126">
        <ele>174.6</ele>
        <time>2026-01-31T11:51:36Z</time>
        <extensions>
          <gpxtpx:TrackPointExtension xmlns:gpxtpx="http://www.garmin.com/xmlschemas/TrackPointExtension/v1">
            <gpxtpx:hr>91</gpxtpx:hr>
          </gpxtpx:TrackPointExtension>
        </extensions>
      </trkpt>
      <trkpt lat="48.73772" lon="1.78124">
        <ele>174.6</ele>
        <time>2026-01-31T11:51:37Z</time>
        <extensions>
          <gpxtpx:TrackPointExtension xmlns:gpxtpx="http://www.garmin.com/xmlschemas/TrackPointExtension/v1">
            <gpxtpx:hr>91</gpxtpx:hr>
          </gpxtpx:TrackPointExtension>
        </extensions>
      </trkpt>
      <trkpt lat="48.73772" lon="1.78121">
        <ele>174.6</ele>
        <time>2026-01-31T11:51:38Z</time>
        <extensions>
          <gpxtpx:TrackPointExtension xmlns:gpxtpx="http://www.garmin.com/xmlschemas/TrackPointExtension/v1">
            <gpxtpx:hr>92</gpxtpx:hr>
          </gpxtpx:TrackPointExtension>
        </extensions>
      </trkpt>
      <trkpt lat="48.73772" lon="1.78118">
        <ele>174.6</ele>
        <time>2026-01-31T11:51:39Z</time>
        <extensions>
          <gpxtpx:TrackPointExtension xmlns:gpxtpx="http://www.garmin.com/xmlschemas/TrackPointExtension/v1">
            <gpxtpx:hr>92</gpxtpx:hr>
          </gpxtpx:TrackPointExtension>
        </extensions>
      </trkpt>
      <trkpt lat="48.73772" lon="1.78114">
        <ele>174.6</ele>
        <time>2026-01-31T11:51:40Z</time>
        <extensions>
          <gpxtpx:TrackPointExtension xmlns:gpxtpx="http://www.garmin.com/xmlschemas/TrackPointExtension/v1">
            <gpxtpx:hr>92</gpxtpx:hr>
          </gpxtpx:TrackPointExtension>
        </extensions>
      </trkpt>
      <trkpt lat="48.73772" lon="1.78112">
        <ele>174.4</ele>
        <time>2026-01-31T11:51:41Z</time>
        <extensions>
          <gpxtpx:TrackPointExtension xmlns:gpxtpx="http://www.garmin.com/xmlschemas/TrackPointExtension/v1">
            <gpxtpx:hr>92</gpxtpx:hr>
          </gpxtpx:TrackPointExtension>
        </extensions>
      </trkpt>
      <trkpt lat="48.73771" lon="1.78106">
        <ele>174.2</ele>
        <time>2026-01-31T11:51:43Z</time>
        <extensions>
          <gpxtpx:TrackPointExtension xmlns:gpxtpx="http://www.garmin.com/xmlschemas/TrackPointExtension/v1">
            <gpxtpx:hr>92</gpxtpx:hr>
          </gpxtpx:TrackPointExtension>
        </extensions>
      </trkpt>
      <trkpt lat="48.73771" lon="1.78103">
        <ele>174</ele>
        <time>2026-01-31T11:51:45Z</time>
        <extensions>
          <gpxtpx:TrackPointExtension xmlns:gpxtpx="http://www.garmin.com/xmlschemas/TrackPointExtension/v1">
            <gpxtpx:hr>92</gpxtpx:hr>
          </gpxtpx:TrackPointExtension>
        </extensions>
      </trkpt>
      <trkpt lat="48.7377" lon="1.78099">
        <ele>173.8</ele>
        <time>2026-01-31T11:51:47Z</time>
        <extensions>
          <gpxtpx:TrackPointExtension xmlns:gpxtpx="http://www.garmin.com/xmlschemas/TrackPointExtension/v1">
            <gpxtpx:hr>93</gpxtpx:hr>
          </gpxtpx:TrackPointExtension>
        </extensions>
      </trkpt>
      <trkpt lat="48.7377" lon="1.78095">
        <ele>173.8</ele>
        <time>2026-01-31T11:51:49Z</time>
        <extensions>
          <gpxtpx:TrackPointExtension xmlns:gpxtpx="http://www.garmin.com/xmlschemas/TrackPointExtension/v1">
            <gpxtpx:hr>93</gpxtpx:hr>
          </gpxtpx:TrackPointExtension>
        </extensions>
      </trkpt>
      <trkpt lat="48.7377" lon="1.78091">
        <ele>173.4</ele>
        <time>2026-01-31T11:51:51Z</time>
        <extensions>
          <gpxtpx:TrackPointExtension xmlns:gpxtpx="http://www.garmin.com/xmlschemas/TrackPointExtension/v1">
            <gpxtpx:hr>93</gpxtpx:hr>
          </gpxtpx:TrackPointExtension>
        </extensions>
      </trkpt>
      <trkpt lat="48.7377" lon="1.78086">
        <ele>173.2</ele>
        <time>2026-01-31T11:51:53Z</time>
        <extensions>
          <gpxtpx:TrackPointExtension xmlns:gpxtpx="http://www.garmin.com/xmlschemas/TrackPointExtension/v1">
            <gpxtpx:hr>93</gpxtpx:hr>
          </gpxtpx:TrackPointExtension>
        </extensions>
      </trkpt>
      <trkpt lat="48.7377" lon="1.78081">
        <ele>173</ele>
        <time>2026-01-31T11:51:55Z</time>
        <extensions>
          <gpxtpx:TrackPointExtension xmlns:gpxtpx="http://www.garmin.com/xmlschemas/TrackPointExtension/v1">
            <gpxtpx:hr>93</gpxtpx:hr>
          </gpxtpx:TrackPointExtension>
        </extensions>
      </trkpt>
      <trkpt lat="48.73769" lon="1.78076">
        <ele>172.8</ele>
        <time>2026-01-31T11:51:57Z</time>
        <extensions>
          <gpxtpx:TrackPointExtension xmlns:gpxtpx="http://www.garmin.com/xmlschemas/TrackPointExtension/v1">
            <gpxtpx:hr>93</gpxtpx:hr>
          </gpxtpx:TrackPointExtension>
        </extensions>
      </trkpt>
      <trkpt lat="48.73769" lon="1.78071">
        <ele>172.6</ele>
        <time>2026-01-31T11:51:59Z</time>
        <extensions>
          <gpxtpx:TrackPointExtension xmlns:gpxtpx="http://www.garmin.com/xmlschemas/TrackPointExtension/v1">
            <gpxtpx:hr>93</gpxtpx:hr>
          </gpxtpx:TrackPointExtension>
        </extensions>
      </trkpt>
      <trkpt lat="48.73769" lon="1.78065">
        <ele>172.4</ele>
        <time>2026-01-31T11:52:02Z</time>
        <extensions>
          <gpxtpx:TrackPointExtension xmlns:gpxtpx="http://www.garmin.com/xmlschemas/TrackPointExtension/v1">
            <gpxtpx:hr>94</gpxtpx:hr>
          </gpxtpx:TrackPointExtension>
        </extensions>
      </trkpt>
      <trkpt lat="48.7377" lon="1.78063">
        <ele>172.2</ele>
        <time>2026-01-31T11:52:05Z</time>
        <extensions>
          <gpxtpx:TrackPointExtension xmlns:gpxtpx="http://www.garmin.com/xmlschemas/TrackPointExtension/v1">
            <gpxtpx:hr>93</gpxtpx:hr>
          </gpxtpx:TrackPointExtension>
        </extensions>
      </trkpt>
      <trkpt lat="48.7377" lon="1.78059">
        <ele>172</ele>
        <time>2026-01-31T11:52:08Z</time>
        <extensions>
          <gpxtpx:TrackPointExtension xmlns:gpxtpx="http://www.garmin.com/xmlschemas/TrackPointExtension/v1">
            <gpxtpx:hr>93</gpxtpx:hr>
          </gpxtpx:TrackPointExtension>
        </extensions>
      </trkpt>
      <trkpt lat="48.7377" lon="1.78055">
        <ele>171.8</ele>
        <time>2026-01-31T11:52:10Z</time>
        <extensions>
          <gpxtpx:TrackPointExtension xmlns:gpxtpx="http://www.garmin.com/xmlschemas/TrackPointExtension/v1">
            <gpxtpx:hr>93</gpxtpx:hr>
          </gpxtpx:TrackPointExtension>
        </extensions>
      </trkpt>
      <trkpt lat="48.73771" lon="1.78051">
        <ele>171.8</ele>
        <time>2026-01-31T11:52:12Z</time>
        <extensions>
          <gpxtpx:TrackPointExtension xmlns:gpxtpx="http://www.garmin.com/xmlschemas/TrackPointExtension/v1">
            <gpxtpx:hr>93</gpxtpx:hr>
          </gpxtpx:TrackPointExtension>
        </extensions>
      </trkpt>
      <trkpt lat="48.73771" lon="1.78047">
        <ele>171.6</ele>
        <time>2026-01-31T11:52:14Z</time>
        <extensions>
          <gpxtpx:TrackPointExtension xmlns:gpxtpx="http://www.garmin.com/xmlschemas/TrackPointExtension/v1">
            <gpxtpx:hr>93</gpxtpx:hr>
          </gpxtpx:TrackPointExtension>
        </extensions>
      </trkpt>
      <trkpt lat="48.73772" lon="1.78044">
        <ele>171.6</ele>
        <time>2026-01-31T11:52:16Z</time>
        <extensions>
          <gpxtpx:TrackPointExtension xmlns:gpxtpx="http://www.garmin.com/xmlschemas/TrackPointExtension/v1">
            <gpxtpx:hr>93</gpxtpx:hr>
          </gpxtpx:TrackPointExtension>
        </extensions>
      </trkpt>
      <trkpt lat="48.73773" lon="1.78041">
        <ele>171.6</ele>
        <time>2026-01-31T11:52:19Z</time>
        <extensions>
          <gpxtpx:TrackPointExtension xmlns:gpxtpx="http://www.garmin.com/xmlschemas/TrackPointExtension/v1">
            <gpxtpx:hr>93</gpxtpx:hr>
          </gpxtpx:TrackPointExtension>
        </extensions>
      </trkpt>
      <trkpt lat="48.73774" lon="1.78038">
        <ele>171.6</ele>
        <time>2026-01-31T11:52:21Z</time>
        <extensions>
          <gpxtpx:TrackPointExtension xmlns:gpxtpx="http://www.garmin.com/xmlschemas/TrackPointExtension/v1">
            <gpxtpx:hr>93</gpxtpx:hr>
          </gpxtpx:TrackPointExtension>
        </extensions>
      </trkpt>
      <trkpt lat="48.73774" lon="1.78035">
        <ele>171.6</ele>
        <time>2026-01-31T11:52:23Z</time>
        <extensions>
          <gpxtpx:TrackPointExtension xmlns:gpxtpx="http://www.garmin.com/xmlschemas/TrackPointExtension/v1">
            <gpxtpx:hr>94</gpxtpx:hr>
          </gpxtpx:TrackPointExtension>
        </extensions>
      </trkpt>
      <trkpt lat="48.73775" lon="1.78032">
        <ele>171.8</ele>
        <time>2026-01-31T11:52:25Z</time>
        <extensions>
          <gpxtpx:TrackPointExtension xmlns:gpxtpx="http://www.garmin.com/xmlschemas/TrackPointExtension/v1">
            <gpxtpx:hr>94</gpxtpx:hr>
          </gpxtpx:TrackPointExtension>
        </extensions>
      </trkpt>
      <trkpt lat="48.73777" lon="1.78029">
        <ele>171.8</ele>
        <time>2026-01-31T11:52:27Z</time>
        <extensions>
          <gpxtpx:TrackPointExtension xmlns:gpxtpx="http://www.garmin.com/xmlschemas/TrackPointExtension/v1">
            <gpxtpx:hr>94</gpxtpx:hr>
          </gpxtpx:TrackPointExtension>
        </extensions>
      </trkpt>
      <trkpt lat="48.73778" lon="1.78027">
        <ele>172</ele>
        <time>2026-01-31T11:52:28Z</time>
        <extensions>
          <gpxtpx:TrackPointExtension xmlns:gpxtpx="http://www.garmin.com/xmlschemas/TrackPointExtension/v1">
            <gpxtpx:hr>94</gpxtpx:hr>
          </gpxtpx:TrackPointExtension>
        </extensions>
      </trkpt>
      <trkpt lat="48.73779" lon="1.78022">
        <ele>172</ele>
        <time>2026-01-31T11:52:30Z</time>
        <extensions>
          <gpxtpx:TrackPointExtension xmlns:gpxtpx="http://www.garmin.com/xmlschemas/TrackPointExtension/v1">
            <gpxtpx:hr>94</gpxtpx:hr>
          </gpxtpx:TrackPointExtension>
        </extensions>
      </trkpt>
      <trkpt lat="48.7378" lon="1.78018">
        <ele>172</ele>
        <time>2026-01-31T11:52:32Z</time>
        <extensions>
          <gpxtpx:TrackPointExtension xmlns:gpxtpx="http://www.garmin.com/xmlschemas/TrackPointExtension/v1">
            <gpxtpx:hr>94</gpxtpx:hr>
          </gpxtpx:TrackPointExtension>
        </extensions>
      </trkpt>
      <trkpt lat="48.7378" lon="1.78014">
        <ele>172</ele>
        <time>2026-01-31T11:52:34Z</time>
        <extensions>
          <gpxtpx:TrackPointExtension xmlns:gpxtpx="http://www.garmin.com/xmlschemas/TrackPointExtension/v1">
            <gpxtpx:hr>94</gpxtpx:hr>
          </gpxtpx:TrackPointExtension>
        </extensions>
      </trkpt>
      <trkpt lat="48.7378" lon="1.78011">
        <ele>172</ele>
        <time>2026-01-31T11:52:36Z</time>
        <extensions>
          <gpxtpx:TrackPointExtension xmlns:gpxtpx="http://www.garmin.com/xmlschemas/TrackPointExtension/v1">
            <gpxtpx:hr>95</gpxtpx:hr>
          </gpxtpx:TrackPointExtension>
        </extensions>
      </trkpt>
      <trkpt lat="48.7378" lon="1.78008">
        <ele>171.8</ele>
        <time>2026-01-31T11:52:38Z</time>
        <extensions>
          <gpxtpx:TrackPointExtension xmlns:gpxtpx="http://www.garmin.com/xmlschemas/TrackPointExtension/v1">
            <gpxtpx:hr>95</gpxtpx:hr>
          </gpxtpx:TrackPointExtension>
        </extensions>
      </trkpt>
      <trkpt lat="48.73781" lon="1.78004">
        <ele>171.6</ele>
        <time>2026-01-31T11:52:40Z</time>
        <extensions>
          <gpxtpx:TrackPointExtension xmlns:gpxtpx="http://www.garmin.com/xmlschemas/TrackPointExtension/v1">
            <gpxtpx:hr>95</gpxtpx:hr>
          </gpxtpx:TrackPointExtension>
        </extensions>
      </trkpt>
      <trkpt lat="48.73782" lon="1.78001">
        <ele>171.4</ele>
        <time>2026-01-31T11:52:42Z</time>
        <extensions>
          <gpxtpx:TrackPointExtension xmlns:gpxtpx="http://www.garmin.com/xmlschemas/TrackPointExtension/v1">
            <gpxtpx:hr>95</gpxtpx:hr>
          </gpxtpx:TrackPointExtension>
        </extensions>
      </trkpt>
      <trkpt lat="48.73783" lon="1.77997">
        <ele>171.4</ele>
        <time>2026-01-31T11:52:44Z</time>
        <extensions>
          <gpxtpx:TrackPointExtension xmlns:gpxtpx="http://www.garmin.com/xmlschemas/TrackPointExtension/v1">
            <gpxtpx:hr>95</gpxtpx:hr>
          </gpxtpx:TrackPointExtension>
        </extensions>
      </trkpt>
      <trkpt lat="48.73785" lon="1.77994">
        <ele>171.2</ele>
        <time>2026-01-31T11:52:45Z</time>
        <extensions>
          <gpxtpx:TrackPointExtension xmlns:gpxtpx="http://www.garmin.com/xmlschemas/TrackPointExtension/v1">
            <gpxtpx:hr>96</gpxtpx:hr>
          </gpxtpx:TrackPointExtension>
        </extensions>
      </trkpt>
      <trkpt lat="48.73787" lon="1.77989">
        <ele>171.2</ele>
        <time>2026-01-31T11:52:47Z</time>
        <extensions>
          <gpxtpx:TrackPointExtension xmlns:gpxtpx="http://www.garmin.com/xmlschemas/TrackPointExtension/v1">
            <gpxtpx:hr>96</gpxtpx:hr>
          </gpxtpx:TrackPointExtension>
        </extensions>
      </trkpt>
      <trkpt lat="48.73787" lon="1.77986">
        <ele>171</ele>
        <time>2026-01-31T11:52:48Z</time>
        <extensions>
          <gpxtpx:TrackPointExtension xmlns:gpxtpx="http://www.garmin.com/xmlschemas/TrackPointExtension/v1">
            <gpxtpx:hr>96</gpxtpx:hr>
          </gpxtpx:TrackPointExtension>
        </extensions>
      </trkpt>
      <trkpt lat="48.73788" lon="1.77983">
        <ele>171</ele>
        <time>2026-01-31T11:52:49Z</time>
        <extensions>
          <gpxtpx:TrackPointExtension xmlns:gpxtpx="http://www.garmin.com/xmlschemas/TrackPointExtension/v1">
            <gpxtpx:hr>96</gpxtpx:hr>
          </gpxtpx:TrackPointExtension>
        </extensions>
      </trkpt>
      <trkpt lat="48.73789" lon="1.7798">
        <ele>171</ele>
        <time>2026-01-31T11:52:50Z</time>
        <extensions>
          <gpxtpx:TrackPointExtension xmlns:gpxtpx="http://www.garmin.com/xmlschemas/TrackPointExtension/v1">
            <gpxtpx:hr>96</gpxtpx:hr>
          </gpxtpx:TrackPointExtension>
        </extensions>
      </trkpt>
      <trkpt lat="48.73789" lon="1.77977">
        <ele>171</ele>
        <time>2026-01-31T11:52:51Z</time>
        <extensions>
          <gpxtpx:TrackPointExtension xmlns:gpxtpx="http://www.garmin.com/xmlschemas/TrackPointExtension/v1">
            <gpxtpx:hr>96</gpxtpx:hr>
          </gpxtpx:TrackPointExtension>
        </extensions>
      </trkpt>
      <trkpt lat="48.7379" lon="1.77975">
        <ele>170.8</ele>
        <time>2026-01-31T11:52:52Z</time>
        <extensions>
          <gpxtpx:TrackPointExtension xmlns:gpxtpx="http://www.garmin.com/xmlschemas/TrackPointExtension/v1">
            <gpxtpx:hr>96</gpxtpx:hr>
          </gpxtpx:TrackPointExtension>
        </extensions>
      </trkpt>
      <trkpt lat="48.7379" lon="1.77971">
        <ele>170.8</ele>
        <time>2026-01-31T11:52:54Z</time>
        <extensions>
          <gpxtpx:TrackPointExtension xmlns:gpxtpx="http://www.garmin.com/xmlschemas/TrackPointExtension/v1">
            <gpxtpx:hr>96</gpxtpx:hr>
          </gpxtpx:TrackPointExtension>
        </extensions>
      </trkpt>
      <trkpt lat="48.7379" lon="1.77968">
        <ele>170.8</ele>
        <time>2026-01-31T11:52:56Z</time>
        <extensions>
          <gpxtpx:TrackPointExtension xmlns:gpxtpx="http://www.garmin.com/xmlschemas/TrackPointExtension/v1">
            <gpxtpx:hr>96</gpxtpx:hr>
          </gpxtpx:TrackPointExtension>
        </extensions>
      </trkpt>
      <trkpt lat="48.7379" lon="1.77965">
        <ele>170.8</ele>
        <time>2026-01-31T11:52:58Z</time>
        <extensions>
          <gpxtpx:TrackPointExtension xmlns:gpxtpx="http://www.garmin.com/xmlschemas/TrackPointExtension/v1">
            <gpxtpx:hr>96</gpxtpx:hr>
          </gpxtpx:TrackPointExtension>
        </extensions>
      </trkpt>
      <trkpt lat="48.7379" lon="1.77961">
        <ele>170.6</ele>
        <time>2026-01-31T11:53:01Z</time>
        <extensions>
          <gpxtpx:TrackPointExtension xmlns:gpxtpx="http://www.garmin.com/xmlschemas/TrackPointExtension/v1">
            <gpxtpx:hr>97</gpxtpx:hr>
          </gpxtpx:TrackPointExtension>
        </extensions>
      </trkpt>
      <trkpt lat="48.7379" lon="1.77958">
        <ele>170.8</ele>
        <time>2026-01-31T11:53:03Z</time>
        <extensions>
          <gpxtpx:TrackPointExtension xmlns:gpxtpx="http://www.garmin.com/xmlschemas/TrackPointExtension/v1">
            <gpxtpx:hr>97</gpxtpx:hr>
          </gpxtpx:TrackPointExtension>
        </extensions>
      </trkpt>
      <trkpt lat="48.7379" lon="1.77955">
        <ele>170.8</ele>
        <time>2026-01-31T11:53:05Z</time>
        <extensions>
          <gpxtpx:TrackPointExtension xmlns:gpxtpx="http://www.garmin.com/xmlschemas/TrackPointExtension/v1">
            <gpxtpx:hr>97</gpxtpx:hr>
          </gpxtpx:TrackPointExtension>
        </extensions>
      </trkpt>
      <trkpt lat="48.7379" lon="1.77951">
        <ele>170.8</ele>
        <time>2026-01-31T11:53:07Z</time>
        <extensions>
          <gpxtpx:TrackPointExtension xmlns:gpxtpx="http://www.garmin.com/xmlschemas/TrackPointExtension/v1">
            <gpxtpx:hr>96</gpxtpx:hr>
          </gpxtpx:TrackPointExtension>
        </extensions>
      </trkpt>
      <trkpt lat="48.73791" lon="1.77947">
        <ele>170.8</ele>
        <time>2026-01-31T11:53:09Z</time>
        <extensions>
          <gpxtpx:TrackPointExtension xmlns:gpxtpx="http://www.garmin.com/xmlschemas/TrackPointExtension/v1">
            <gpxtpx:hr>96</gpxtpx:hr>
          </gpxtpx:TrackPointExtension>
        </extensions>
      </trkpt>
      <trkpt lat="48.73793" lon="1.77943">
        <ele>170.8</ele>
        <time>2026-01-31T11:53:11Z</time>
        <extensions>
          <gpxtpx:TrackPointExtension xmlns:gpxtpx="http://www.garmin.com/xmlschemas/TrackPointExtension/v1">
            <gpxtpx:hr>97</gpxtpx:hr>
          </gpxtpx:TrackPointExtension>
        </extensions>
      </trkpt>
      <trkpt lat="48.73795" lon="1.77939">
        <ele>170.8</ele>
        <time>2026-01-31T11:53:13Z</time>
        <extensions>
          <gpxtpx:TrackPointExtension xmlns:gpxtpx="http://www.garmin.com/xmlschemas/TrackPointExtension/v1">
            <gpxtpx:hr>97</gpxtpx:hr>
          </gpxtpx:TrackPointExtension>
        </extensions>
      </trkpt>
      <trkpt lat="48.73796" lon="1.77936">
        <ele>170.6</ele>
        <time>2026-01-31T11:53:15Z</time>
        <extensions>
          <gpxtpx:TrackPointExtension xmlns:gpxtpx="http://www.garmin.com/xmlschemas/TrackPointExtension/v1">
            <gpxtpx:hr>99</gpxtpx:hr>
          </gpxtpx:TrackPointExtension>
        </extensions>
      </trkpt>
      <trkpt lat="48.73796" lon="1.77932">
        <ele>170.6</ele>
        <time>2026-01-31T11:53:17Z</time>
        <extensions>
          <gpxtpx:TrackPointExtension xmlns:gpxtpx="http://www.garmin.com/xmlschemas/TrackPointExtension/v1">
            <gpxtpx:hr>101</gpxtpx:hr>
          </gpxtpx:TrackPointExtension>
        </extensions>
      </trkpt>
      <trkpt lat="48.73799" lon="1.77929">
        <ele>170.6</ele>
        <time>2026-01-31T11:53:19Z</time>
        <extensions>
          <gpxtpx:TrackPointExtension xmlns:gpxtpx="http://www.garmin.com/xmlschemas/TrackPointExtension/v1">
            <gpxtpx:hr>104</gpxtpx:hr>
          </gpxtpx:TrackPointExtension>
        </extensions>
      </trkpt>
      <trkpt lat="48.73801" lon="1.77926">
        <ele>170.6</ele>
        <time>2026-01-31T11:53:21Z</time>
        <extensions>
          <gpxtpx:TrackPointExtension xmlns:gpxtpx="http://www.garmin.com/xmlschemas/TrackPointExtension/v1">
            <gpxtpx:hr>107</gpxtpx:hr>
          </gpxtpx:TrackPointExtension>
        </extensions>
      </trkpt>
      <trkpt lat="48.73804" lon="1.77922">
        <ele>170.6</ele>
        <time>2026-01-31T11:53:23Z</time>
        <extensions>
          <gpxtpx:TrackPointExtension xmlns:gpxtpx="http://www.garmin.com/xmlschemas/TrackPointExtension/v1">
            <gpxtpx:hr>110</gpxtpx:hr>
          </gpxtpx:TrackPointExtension>
        </extensions>
      </trkpt>
      <trkpt lat="48.73806" lon="1.7792">
        <ele>170.4</ele>
        <time>2026-01-31T11:53:25Z</time>
        <extensions>
          <gpxtpx:TrackPointExtension xmlns:gpxtpx="http://www.garmin.com/xmlschemas/TrackPointExtension/v1">
            <gpxtpx:hr>110</gpxtpx:hr>
          </gpxtpx:TrackPointExtension>
        </extensions>
      </trkpt>
      <trkpt lat="48.73808" lon="1.77917">
        <ele>170.2</ele>
        <time>2026-01-31T11:53:27Z</time>
        <extensions>
          <gpxtpx:TrackPointExtension xmlns:gpxtpx="http://www.garmin.com/xmlschemas/TrackPointExtension/v1">
            <gpxtpx:hr>110</gpxtpx:hr>
          </gpxtpx:TrackPointExtension>
        </extensions>
      </trkpt>
      <trkpt lat="48.73809" lon="1.77914">
        <ele>170</ele>
        <time>2026-01-31T11:53:29Z</time>
        <extensions>
          <gpxtpx:TrackPointExtension xmlns:gpxtpx="http://www.garmin.com/xmlschemas/TrackPointExtension/v1">
            <gpxtpx:hr>110</gpxtpx:hr>
          </gpxtpx:TrackPointExtension>
        </extensions>
      </trkpt>
      <trkpt lat="48.73809" lon="1.77911">
        <ele>169.8</ele>
        <time>2026-01-31T11:53:31Z</time>
        <extensions>
          <gpxtpx:TrackPointExtension xmlns:gpxtpx="http://www.garmin.com/xmlschemas/TrackPointExtension/v1">
            <gpxtpx:hr>110</gpxtpx:hr>
          </gpxtpx:TrackPointExtension>
        </extensions>
      </trkpt>
      <trkpt lat="48.7381" lon="1.77908">
        <ele>169.8</ele>
        <time>2026-01-31T11:53:33Z</time>
        <extensions>
          <gpxtpx:TrackPointExtension xmlns:gpxtpx="http://www.garmin.com/xmlschemas/TrackPointExtension/v1">
            <gpxtpx:hr>110</gpxtpx:hr>
          </gpxtpx:TrackPointExtension>
        </extensions>
      </trkpt>
      <trkpt lat="48.7381" lon="1.77905">
        <ele>169.6</ele>
        <time>2026-01-31T11:53:35Z</time>
        <extensions>
          <gpxtpx:TrackPointExtension xmlns:gpxtpx="http://www.garmin.com/xmlschemas/TrackPointExtension/v1">
            <gpxtpx:hr>110</gpxtpx:hr>
          </gpxtpx:TrackPointExtension>
        </extensions>
      </trkpt>
      <trkpt lat="48.73811" lon="1.77902">
        <ele>169.2</ele>
        <time>2026-01-31T11:53:37Z</time>
        <extensions>
          <gpxtpx:TrackPointExtension xmlns:gpxtpx="http://www.garmin.com/xmlschemas/TrackPointExtension/v1">
            <gpxtpx:hr>110</gpxtpx:hr>
          </gpxtpx:TrackPointExtension>
        </extensions>
      </trkpt>
      <trkpt lat="48.73813" lon="1.77899">
        <ele>169</ele>
        <time>2026-01-31T11:53:39Z</time>
        <extensions>
          <gpxtpx:TrackPointExtension xmlns:gpxtpx="http://www.garmin.com/xmlschemas/TrackPointExtension/v1">
            <gpxtpx:hr>110</gpxtpx:hr>
          </gpxtpx:TrackPointExtension>
        </extensions>
      </trkpt>
      <trkpt lat="48.73814" lon="1.77897">
        <ele>168.8</ele>
        <time>2026-01-31T11:53:40Z</time>
        <extensions>
          <gpxtpx:TrackPointExtension xmlns:gpxtpx="http://www.garmin.com/xmlschemas/TrackPointExtension/v1">
            <gpxtpx:hr>110</gpxtpx:hr>
          </gpxtpx:TrackPointExtension>
        </extensions>
      </trkpt>
      <trkpt lat="48.73815" lon="1.77894">
        <ele>168.8</ele>
        <time>2026-01-31T11:53:41Z</time>
        <extensions>
          <gpxtpx:TrackPointExtension xmlns:gpxtpx="http://www.garmin.com/xmlschemas/TrackPointExtension/v1">
            <gpxtpx:hr>110</gpxtpx:hr>
          </gpxtpx:TrackPointExtension>
        </extensions>
      </trkpt>
      <trkpt lat="48.73816" lon="1.77892">
        <ele>168.6</ele>
        <time>2026-01-31T11:53:42Z</time>
        <extensions>
          <gpxtpx:TrackPointExtension xmlns:gpxtpx="http://www.garmin.com/xmlschemas/TrackPointExtension/v1">
            <gpxtpx:hr>110</gpxtpx:hr>
          </gpxtpx:TrackPointExtension>
        </extensions>
      </trkpt>
      <trkpt lat="48.73818" lon="1.77887">
        <ele>168.4</ele>
        <time>2026-01-31T11:53:44Z</time>
        <extensions>
          <gpxtpx:TrackPointExtension xmlns:gpxtpx="http://www.garmin.com/xmlschemas/TrackPointExtension/v1">
            <gpxtpx:hr>110</gpxtpx:hr>
          </gpxtpx:TrackPointExtension>
        </extensions>
      </trkpt>
      <trkpt lat="48.73818" lon="1.77883">
        <ele>168.2</ele>
        <time>2026-01-31T11:53:46Z</time>
        <extensions>
          <gpxtpx:TrackPointExtension xmlns:gpxtpx="http://www.garmin.com/xmlschemas/TrackPointExtension/v1">
            <gpxtpx:hr>110</gpxtpx:hr>
          </gpxtpx:TrackPointExtension>
        </extensions>
      </trkpt>
      <trkpt lat="48.73818" lon="1.7788">
        <ele>168.2</ele>
        <time>2026-01-31T11:53:50Z</time>
        <extensions>
          <gpxtpx:TrackPointExtension xmlns:gpxtpx="http://www.garmin.com/xmlschemas/TrackPointExtension/v1">
            <gpxtpx:hr>110</gpxtpx:hr>
          </gpxtpx:TrackPointExtension>
        </extensions>
      </trkpt>
      <trkpt lat="48.73818" lon="1.77877">
        <ele>168</ele>
        <time>2026-01-31T11:53:53Z</time>
        <extensions>
          <gpxtpx:TrackPointExtension xmlns:gpxtpx="http://www.garmin.com/xmlschemas/TrackPointExtension/v1">
            <gpxtpx:hr>110</gpxtpx:hr>
          </gpxtpx:TrackPointExtension>
        </extensions>
      </trkpt>
      <trkpt lat="48.73817" lon="1.77874">
        <ele>168</ele>
        <time>2026-01-31T11:53:55Z</time>
        <extensions>
          <gpxtpx:TrackPointExtension xmlns:gpxtpx="http://www.garmin.com/xmlschemas/TrackPointExtension/v1">
            <gpxtpx:hr>110</gpxtpx:hr>
          </gpxtpx:TrackPointExtension>
        </extensions>
      </trkpt>
      <trkpt lat="48.73817" lon="1.77871">
        <ele>167.8</ele>
        <time>2026-01-31T11:53:57Z</time>
        <extensions>
          <gpxtpx:TrackPointExtension xmlns:gpxtpx="http://www.garmin.com/xmlschemas/TrackPointExtension/v1">
            <gpxtpx:hr>110</gpxtpx:hr>
          </gpxtpx:TrackPointExtension>
        </extensions>
      </trkpt>
      <trkpt lat="48.73817" lon="1.77867">
        <ele>167.8</ele>
        <time>2026-01-31T11:53:59Z</time>
        <extensions>
          <gpxtpx:TrackPointExtension xmlns:gpxtpx="http://www.garmin.com/xmlschemas/TrackPointExtension/v1">
            <gpxtpx:hr>110</gpxtpx:hr>
          </gpxtpx:TrackPointExtension>
        </extensions>
      </trkpt>
      <trkpt lat="48.73817" lon="1.77863">
        <ele>167.6</ele>
        <time>2026-01-31T11:54:01Z</time>
        <extensions>
          <gpxtpx:TrackPointExtension xmlns:gpxtpx="http://www.garmin.com/xmlschemas/TrackPointExtension/v1">
            <gpxtpx:hr>110</gpxtpx:hr>
          </gpxtpx:TrackPointExtension>
        </extensions>
      </trkpt>
      <trkpt lat="48.73817" lon="1.77858">
        <ele>167.4</ele>
        <time>2026-01-31T11:54:03Z</time>
        <extensions>
          <gpxtpx:TrackPointExtension xmlns:gpxtpx="http://www.garmin.com/xmlschemas/TrackPointExtension/v1">
            <gpxtpx:hr>110</gpxtpx:hr>
          </gpxtpx:TrackPointExtension>
        </extensions>
      </trkpt>
      <trkpt lat="48.73818" lon="1.77855">
        <ele>167.4</ele>
        <time>2026-01-31T11:54:04Z</time>
        <extensions>
          <gpxtpx:TrackPointExtension xmlns:gpxtpx="http://www.garmin.com/xmlschemas/TrackPointExtension/v1">
            <gpxtpx:hr>110</gpxtpx:hr>
          </gpxtpx:TrackPointExtension>
        </extensions>
      </trkpt>
      <trkpt lat="48.73818" lon="1.7785">
        <ele>167.2</ele>
        <time>2026-01-31T11:54:06Z</time>
        <extensions>
          <gpxtpx:TrackPointExtension xmlns:gpxtpx="http://www.garmin.com/xmlschemas/TrackPointExtension/v1">
            <gpxtpx:hr>110</gpxtpx:hr>
          </gpxtpx:TrackPointExtension>
        </extensions>
      </trkpt>
      <trkpt lat="48.73819" lon="1.77845">
        <ele>167.2</ele>
        <time>2026-01-31T11:54:08Z</time>
        <extensions>
          <gpxtpx:TrackPointExtension xmlns:gpxtpx="http://www.garmin.com/xmlschemas/TrackPointExtension/v1">
            <gpxtpx:hr>110</gpxtpx:hr>
          </gpxtpx:TrackPointExtension>
        </extensions>
      </trkpt>
      <trkpt lat="48.7382" lon="1.77841">
        <ele>167</ele>
        <time>2026-01-31T11:54:10Z</time>
        <extensions>
          <gpxtpx:TrackPointExtension xmlns:gpxtpx="http://www.garmin.com/xmlschemas/TrackPointExtension/v1">
            <gpxtpx:hr>110</gpxtpx:hr>
          </gpxtpx:TrackPointExtension>
        </extensions>
      </trkpt>
      <trkpt lat="48.73821" lon="1.77837">
        <ele>166.8</ele>
        <time>2026-01-31T11:54:12Z</time>
        <extensions>
          <gpxtpx:TrackPointExtension xmlns:gpxtpx="http://www.garmin.com/xmlschemas/TrackPointExtension/v1">
            <gpxtpx:hr>110</gpxtpx:hr>
          </gpxtpx:TrackPointExtension>
        </extensions>
      </trkpt>
      <trkpt lat="48.73822" lon="1.77834">
        <ele>166.6</ele>
        <time>2026-01-31T11:54:14Z</time>
        <extensions>
          <gpxtpx:TrackPointExtension xmlns:gpxtpx="http://www.garmin.com/xmlschemas/TrackPointExtension/v1">
            <gpxtpx:hr>110</gpxtpx:hr>
          </gpxtpx:TrackPointExtension>
        </extensions>
      </trkpt>
      <trkpt lat="48.73822" lon="1.7783">
        <ele>166.6</ele>
        <time>2026-01-31T11:54:16Z</time>
        <extensions>
          <gpxtpx:TrackPointExtension xmlns:gpxtpx="http://www.garmin.com/xmlschemas/TrackPointExtension/v1">
            <gpxtpx:hr>110</gpxtpx:hr>
          </gpxtpx:TrackPointExtension>
        </extensions>
      </trkpt>
      <trkpt lat="48.73824" lon="1.77826">
        <ele>166.4</ele>
        <time>2026-01-31T11:54:18Z</time>
        <extensions>
          <gpxtpx:TrackPointExtension xmlns:gpxtpx="http://www.garmin.com/xmlschemas/TrackPointExtension/v1">
            <gpxtpx:hr>110</gpxtpx:hr>
          </gpxtpx:TrackPointExtension>
        </extensions>
      </trkpt>
      <trkpt lat="48.73825" lon="1.77822">
        <ele>166.2</ele>
        <time>2026-01-31T11:54:20Z</time>
        <extensions>
          <gpxtpx:TrackPointExtension xmlns:gpxtpx="http://www.garmin.com/xmlschemas/TrackPointExtension/v1">
            <gpxtpx:hr>110</gpxtpx:hr>
          </gpxtpx:TrackPointExtension>
        </extensions>
      </trkpt>
      <trkpt lat="48.73827" lon="1.77818">
        <ele>166.2</ele>
        <time>2026-01-31T11:54:22Z</time>
        <extensions>
          <gpxtpx:TrackPointExtension xmlns:gpxtpx="http://www.garmin.com/xmlschemas/TrackPointExtension/v1">
            <gpxtpx:hr>111</gpxtpx:hr>
          </gpxtpx:TrackPointExtension>
        </extensions>
      </trkpt>
      <trkpt lat="48.73828" lon="1.77815">
        <ele>166.2</ele>
        <time>2026-01-31T11:54:24Z</time>
        <extensions>
          <gpxtpx:TrackPointExtension xmlns:gpxtpx="http://www.garmin.com/xmlschemas/TrackPointExtension/v1">
            <gpxtpx:hr>111</gpxtpx:hr>
          </gpxtpx:TrackPointExtension>
        </extensions>
      </trkpt>
      <trkpt lat="48.73828" lon="1.77811">
        <ele>166</ele>
        <time>2026-01-31T11:54:26Z</time>
        <extensions>
          <gpxtpx:TrackPointExtension xmlns:gpxtpx="http://www.garmin.com/xmlschemas/TrackPointExtension/v1">
            <gpxtpx:hr>111</gpxtpx:hr>
          </gpxtpx:TrackPointExtension>
        </extensions>
      </trkpt>
      <trkpt lat="48.73829" lon="1.77807">
        <ele>165.8</ele>
        <time>2026-01-31T11:54:28Z</time>
        <extensions>
          <gpxtpx:TrackPointExtension xmlns:gpxtpx="http://www.garmin.com/xmlschemas/TrackPointExtension/v1">
            <gpxtpx:hr>110</gpxtpx:hr>
          </gpxtpx:TrackPointExtension>
        </extensions>
      </trkpt>
      <trkpt lat="48.7383" lon="1.77803">
        <ele>165.8</ele>
        <time>2026-01-31T11:54:30Z</time>
        <extensions>
          <gpxtpx:TrackPointExtension xmlns:gpxtpx="http://www.garmin.com/xmlschemas/TrackPointExtension/v1">
            <gpxtpx:hr>110</gpxtpx:hr>
          </gpxtpx:TrackPointExtension>
        </extensions>
      </trkpt>
      <trkpt lat="48.73832" lon="1.778">
        <ele>165.8</ele>
        <time>2026-01-31T11:54:32Z</time>
        <extensions>
          <gpxtpx:TrackPointExtension xmlns:gpxtpx="http://www.garmin.com/xmlschemas/TrackPointExtension/v1">
            <gpxtpx:hr>110</gpxtpx:hr>
          </gpxtpx:TrackPointExtension>
        </extensions>
      </trkpt>
      <trkpt lat="48.73833" lon="1.77796">
        <ele>165.8</ele>
        <time>2026-01-31T11:54:34Z</time>
        <extensions>
          <gpxtpx:TrackPointExtension xmlns:gpxtpx="http://www.garmin.com/xmlschemas/TrackPointExtension/v1">
            <gpxtpx:hr>110</gpxtpx:hr>
          </gpxtpx:TrackPointExtension>
        </extensions>
      </trkpt>
      <trkpt lat="48.73833" lon="1.77792">
        <ele>165.6</ele>
        <time>2026-01-31T11:54:36Z</time>
        <extensions>
          <gpxtpx:TrackPointExtension xmlns:gpxtpx="http://www.garmin.com/xmlschemas/TrackPointExtension/v1">
            <gpxtpx:hr>110</gpxtpx:hr>
          </gpxtpx:TrackPointExtension>
        </extensions>
      </trkpt>
      <trkpt lat="48.73834" lon="1.77788">
        <ele>165.6</ele>
        <time>2026-01-31T11:54:38Z</time>
        <extensions>
          <gpxtpx:TrackPointExtension xmlns:gpxtpx="http://www.garmin.com/xmlschemas/TrackPointExtension/v1">
            <gpxtpx:hr>110</gpxtpx:hr>
          </gpxtpx:TrackPointExtension>
        </extensions>
      </trkpt>
      <trkpt lat="48.73833" lon="1.77785">
        <ele>165.6</ele>
        <time>2026-01-31T11:54:40Z</time>
        <extensions>
          <gpxtpx:TrackPointExtension xmlns:gpxtpx="http://www.garmin.com/xmlschemas/TrackPointExtension/v1">
            <gpxtpx:hr>110</gpxtpx:hr>
          </gpxtpx:TrackPointExtension>
        </extensions>
      </trkpt>
      <trkpt lat="48.73832" lon="1.77781">
        <ele>165.8</ele>
        <time>2026-01-31T11:54:42Z</time>
        <extensions>
          <gpxtpx:TrackPointExtension xmlns:gpxtpx="http://www.garmin.com/xmlschemas/TrackPointExtension/v1">
            <gpxtpx:hr>110</gpxtpx:hr>
          </gpxtpx:TrackPointExtension>
        </extensions>
      </trkpt>
      <trkpt lat="48.73831" lon="1.77778">
        <ele>165.8</ele>
        <time>2026-01-31T11:54:44Z</time>
        <extensions>
          <gpxtpx:TrackPointExtension xmlns:gpxtpx="http://www.garmin.com/xmlschemas/TrackPointExtension/v1">
            <gpxtpx:hr>109</gpxtpx:hr>
          </gpxtpx:TrackPointExtension>
        </extensions>
      </trkpt>
      <trkpt lat="48.7383" lon="1.77773">
        <ele>165.8</ele>
        <time>2026-01-31T11:54:46Z</time>
        <extensions>
          <gpxtpx:TrackPointExtension xmlns:gpxtpx="http://www.garmin.com/xmlschemas/TrackPointExtension/v1">
            <gpxtpx:hr>109</gpxtpx:hr>
          </gpxtpx:TrackPointExtension>
        </extensions>
      </trkpt>
      <trkpt lat="48.7383" lon="1.77769">
        <ele>166</ele>
        <time>2026-01-31T11:54:48Z</time>
        <extensions>
          <gpxtpx:TrackPointExtension xmlns:gpxtpx="http://www.garmin.com/xmlschemas/TrackPointExtension/v1">
            <gpxtpx:hr>109</gpxtpx:hr>
          </gpxtpx:TrackPointExtension>
        </extensions>
      </trkpt>
      <trkpt lat="48.7383" lon="1.77764">
        <ele>166</ele>
        <time>2026-01-31T11:54:50Z</time>
        <extensions>
          <gpxtpx:TrackPointExtension xmlns:gpxtpx="http://www.garmin.com/xmlschemas/TrackPointExtension/v1">
            <gpxtpx:hr>109</gpxtpx:hr>
          </gpxtpx:TrackPointExtension>
        </extensions>
      </trkpt>
      <trkpt lat="48.7383" lon="1.77759">
        <ele>166</ele>
        <time>2026-01-31T11:54:52Z</time>
        <extensions>
          <gpxtpx:TrackPointExtension xmlns:gpxtpx="http://www.garmin.com/xmlschemas/TrackPointExtension/v1">
            <gpxtpx:hr>109</gpxtpx:hr>
          </gpxtpx:TrackPointExtension>
        </extensions>
      </trkpt>
      <trkpt lat="48.7383" lon="1.77755">
        <ele>166</ele>
        <time>2026-01-31T11:54:54Z</time>
        <extensions>
          <gpxtpx:TrackPointExtension xmlns:gpxtpx="http://www.garmin.com/xmlschemas/TrackPointExtension/v1">
            <gpxtpx:hr>109</gpxtpx:hr>
          </gpxtpx:TrackPointExtension>
        </extensions>
      </trkpt>
      <trkpt lat="48.7383" lon="1.77752">
        <ele>166</ele>
        <time>2026-01-31T11:54:56Z</time>
        <extensions>
          <gpxtpx:TrackPointExtension xmlns:gpxtpx="http://www.garmin.com/xmlschemas/TrackPointExtension/v1">
            <gpxtpx:hr>108</gpxtpx:hr>
          </gpxtpx:TrackPointExtension>
        </extensions>
      </trkpt>
      <trkpt lat="48.7383" lon="1.77748">
        <ele>166</ele>
        <time>2026-01-31T11:54:58Z</time>
        <extensions>
          <gpxtpx:TrackPointExtension xmlns:gpxtpx="http://www.garmin.com/xmlschemas/TrackPointExtension/v1">
            <gpxtpx:hr>108</gpxtpx:hr>
          </gpxtpx:TrackPointExtension>
        </extensions>
      </trkpt>
      <trkpt lat="48.7383" lon="1.77744">
        <ele>166.2</ele>
        <time>2026-01-31T11:55:00Z</time>
        <extensions>
          <gpxtpx:TrackPointExtension xmlns:gpxtpx="http://www.garmin.com/xmlschemas/TrackPointExtension/v1">
            <gpxtpx:hr>107</gpxtpx:hr>
          </gpxtpx:TrackPointExtension>
        </extensions>
      </trkpt>
      <trkpt lat="48.7383" lon="1.7774">
        <ele>166</ele>
        <time>2026-01-31T11:55:02Z</time>
        <extensions>
          <gpxtpx:TrackPointExtension xmlns:gpxtpx="http://www.garmin.com/xmlschemas/TrackPointExtension/v1">
            <gpxtpx:hr>107</gpxtpx:hr>
          </gpxtpx:TrackPointExtension>
        </extensions>
      </trkpt>
      <trkpt lat="48.73831" lon="1.77735">
        <ele>166</ele>
        <time>2026-01-31T11:55:04Z</time>
        <extensions>
          <gpxtpx:TrackPointExtension xmlns:gpxtpx="http://www.garmin.com/xmlschemas/TrackPointExtension/v1">
            <gpxtpx:hr>106</gpxtpx:hr>
          </gpxtpx:TrackPointExtension>
        </extensions>
      </trkpt>
      <trkpt lat="48.73832" lon="1.77732">
        <ele>166</ele>
        <time>2026-01-31T11:55:05Z</time>
        <extensions>
          <gpxtpx:TrackPointExtension xmlns:gpxtpx="http://www.garmin.com/xmlschemas/TrackPointExtension/v1">
            <gpxtpx:hr>106</gpxtpx:hr>
          </gpxtpx:TrackPointExtension>
        </extensions>
      </trkpt>
      <trkpt lat="48.73833" lon="1.77729">
        <ele>166</ele>
        <time>2026-01-31T11:55:06Z</time>
        <extensions>
          <gpxtpx:TrackPointExtension xmlns:gpxtpx="http://www.garmin.com/xmlschemas/TrackPointExtension/v1">
            <gpxtpx:hr>106</gpxtpx:hr>
          </gpxtpx:TrackPointExtension>
        </extensions>
      </trkpt>
      <trkpt lat="48.73834" lon="1.77726">
        <ele>166</ele>
        <time>2026-01-31T11:55:07Z</time>
        <extensions>
          <gpxtpx:TrackPointExtension xmlns:gpxtpx="http://www.garmin.com/xmlschemas/TrackPointExtension/v1">
            <gpxtpx:hr>106</gpxtpx:hr>
          </gpxtpx:TrackPointExtension>
        </extensions>
      </trkpt>
      <trkpt lat="48.73836" lon="1.77722">
        <ele>166</ele>
        <time>2026-01-31T11:55:09Z</time>
        <extensions>
          <gpxtpx:TrackPointExtension xmlns:gpxtpx="http://www.garmin.com/xmlschemas/TrackPointExtension/v1">
            <gpxtpx:hr>106</gpxtpx:hr>
          </gpxtpx:TrackPointExtension>
        </extensions>
      </trkpt>
      <trkpt lat="48.73836" lon="1.77718">
        <ele>166</ele>
        <time>2026-01-31T11:55:11Z</time>
        <extensions>
          <gpxtpx:TrackPointExtension xmlns:gpxtpx="http://www.garmin.com/xmlschemas/TrackPointExtension/v1">
            <gpxtpx:hr>106</gpxtpx:hr>
          </gpxtpx:TrackPointExtension>
        </extensions>
      </trkpt>
      <trkpt lat="48.73837" lon="1.77713">
        <ele>166</ele>
        <time>2026-01-31T11:55:13Z</time>
        <extensions>
          <gpxtpx:TrackPointExtension xmlns:gpxtpx="http://www.garmin.com/xmlschemas/TrackPointExtension/v1">
            <gpxtpx:hr>106</gpxtpx:hr>
          </gpxtpx:TrackPointExtension>
        </extensions>
      </trkpt>
      <trkpt lat="48.73838" lon="1.77709">
        <ele>166</ele>
        <time>2026-01-31T11:55:15Z</time>
        <extensions>
          <gpxtpx:TrackPointExtension xmlns:gpxtpx="http://www.garmin.com/xmlschemas/TrackPointExtension/v1">
            <gpxtpx:hr>106</gpxtpx:hr>
          </gpxtpx:TrackPointExtension>
        </extensions>
      </trkpt>
      <trkpt lat="48.73837" lon="1.77705">
        <ele>166</ele>
        <time>2026-01-31T11:55:17Z</time>
        <extensions>
          <gpxtpx:TrackPointExtension xmlns:gpxtpx="http://www.garmin.com/xmlschemas/TrackPointExtension/v1">
            <gpxtpx:hr>106</gpxtpx:hr>
          </gpxtpx:TrackPointExtension>
        </extensions>
      </trkpt>
      <trkpt lat="48.73837" lon="1.77701">
        <ele>166</ele>
        <time>2026-01-31T11:55:19Z</time>
        <extensions>
          <gpxtpx:TrackPointExtension xmlns:gpxtpx="http://www.garmin.com/xmlschemas/TrackPointExtension/v1">
            <gpxtpx:hr>106</gpxtpx:hr>
          </gpxtpx:TrackPointExtension>
        </extensions>
      </trkpt>
      <trkpt lat="48.73837" lon="1.77697">
        <ele>166</ele>
        <time>2026-01-31T11:55:21Z</time>
        <extensions>
          <gpxtpx:TrackPointExtension xmlns:gpxtpx="http://www.garmin.com/xmlschemas/TrackPointExtension/v1">
            <gpxtpx:hr>106</gpxtpx:hr>
          </gpxtpx:TrackPointExtension>
        </extensions>
      </trkpt>
      <trkpt lat="48.73837" lon="1.77692">
        <ele>166.2</ele>
        <time>2026-01-31T11:55:23Z</time>
        <extensions>
          <gpxtpx:TrackPointExtension xmlns:gpxtpx="http://www.garmin.com/xmlschemas/TrackPointExtension/v1">
            <gpxtpx:hr>106</gpxtpx:hr>
          </gpxtpx:TrackPointExtension>
        </extensions>
      </trkpt>
      <trkpt lat="48.73838" lon="1.77688">
        <ele>166.2</ele>
        <time>2026-01-31T11:55:25Z</time>
        <extensions>
          <gpxtpx:TrackPointExtension xmlns:gpxtpx="http://www.garmin.com/xmlschemas/TrackPointExtension/v1">
            <gpxtpx:hr>106</gpxtpx:hr>
          </gpxtpx:TrackPointExtension>
        </extensions>
      </trkpt>
      <trkpt lat="48.7384" lon="1.77684">
        <ele>166.2</ele>
        <time>2026-01-31T11:55:27Z</time>
        <extensions>
          <gpxtpx:TrackPointExtension xmlns:gpxtpx="http://www.garmin.com/xmlschemas/TrackPointExtension/v1">
            <gpxtpx:hr>105</gpxtpx:hr>
          </gpxtpx:TrackPointExtension>
        </extensions>
      </trkpt>
      <trkpt lat="48.73841" lon="1.77679">
        <ele>166.2</ele>
        <time>2026-01-31T11:55:29Z</time>
        <extensions>
          <gpxtpx:TrackPointExtension xmlns:gpxtpx="http://www.garmin.com/xmlschemas/TrackPointExtension/v1">
            <gpxtpx:hr>104</gpxtpx:hr>
          </gpxtpx:TrackPointExtension>
        </extensions>
      </trkpt>
      <trkpt lat="48.73842" lon="1.77675">
        <ele>166.2</ele>
        <time>2026-01-31T11:55:31Z</time>
        <extensions>
          <gpxtpx:TrackPointExtension xmlns:gpxtpx="http://www.garmin.com/xmlschemas/TrackPointExtension/v1">
            <gpxtpx:hr>103</gpxtpx:hr>
          </gpxtpx:TrackPointExtension>
        </extensions>
      </trkpt>
      <trkpt lat="48.73843" lon="1.77671">
        <ele>166.2</ele>
        <time>2026-01-31T11:55:33Z</time>
        <extensions>
          <gpxtpx:TrackPointExtension xmlns:gpxtpx="http://www.garmin.com/xmlschemas/TrackPointExtension/v1">
            <gpxtpx:hr>103</gpxtpx:hr>
          </gpxtpx:TrackPointExtension>
        </extensions>
      </trkpt>
      <trkpt lat="48.73844" lon="1.77666">
        <ele>166.2</ele>
        <time>2026-01-31T11:55:35Z</time>
        <extensions>
          <gpxtpx:TrackPointExtension xmlns:gpxtpx="http://www.garmin.com/xmlschemas/TrackPointExtension/v1">
            <gpxtpx:hr>103</gpxtpx:hr>
          </gpxtpx:TrackPointExtension>
        </extensions>
      </trkpt>
      <trkpt lat="48.73844" lon="1.77662">
        <ele>166.2</ele>
        <time>2026-01-31T11:55:37Z</time>
        <extensions>
          <gpxtpx:TrackPointExtension xmlns:gpxtpx="http://www.garmin.com/xmlschemas/TrackPointExtension/v1">
            <gpxtpx:hr>103</gpxtpx:hr>
          </gpxtpx:TrackPointExtension>
        </extensions>
      </trkpt>
      <trkpt lat="48.73845" lon="1.77657">
        <ele>166.4</ele>
        <time>2026-01-31T11:55:39Z</time>
        <extensions>
          <gpxtpx:TrackPointExtension xmlns:gpxtpx="http://www.garmin.com/xmlschemas/TrackPointExtension/v1">
            <gpxtpx:hr>104</gpxtpx:hr>
          </gpxtpx:TrackPointExtension>
        </extensions>
      </trkpt>
      <trkpt lat="48.73845" lon="1.77654">
        <ele>166.4</ele>
        <time>2026-01-31T11:55:41Z</time>
        <extensions>
          <gpxtpx:TrackPointExtension xmlns:gpxtpx="http://www.garmin.com/xmlschemas/TrackPointExtension/v1">
            <gpxtpx:hr>105</gpxtpx:hr>
          </gpxtpx:TrackPointExtension>
        </extensions>
      </trkpt>
      <trkpt lat="48.73845" lon="1.77651">
        <ele>166.4</ele>
        <time>2026-01-31T11:55:43Z</time>
        <extensions>
          <gpxtpx:TrackPointExtension xmlns:gpxtpx="http://www.garmin.com/xmlschemas/TrackPointExtension/v1">
            <gpxtpx:hr>105</gpxtpx:hr>
          </gpxtpx:TrackPointExtension>
        </extensions>
      </trkpt>
      <trkpt lat="48.73844" lon="1.77648">
        <ele>166.4</ele>
        <time>2026-01-31T11:55:45Z</time>
        <extensions>
          <gpxtpx:TrackPointExtension xmlns:gpxtpx="http://www.garmin.com/xmlschemas/TrackPointExtension/v1">
            <gpxtpx:hr>105</gpxtpx:hr>
          </gpxtpx:TrackPointExtension>
        </extensions>
      </trkpt>
      <trkpt lat="48.73843" lon="1.77644">
        <ele>166.6</ele>
        <time>2026-01-31T11:55:47Z</time>
        <extensions>
          <gpxtpx:TrackPointExtension xmlns:gpxtpx="http://www.garmin.com/xmlschemas/TrackPointExtension/v1">
            <gpxtpx:hr>105</gpxtpx:hr>
          </gpxtpx:TrackPointExtension>
        </extensions>
      </trkpt>
      <trkpt lat="48.73843" lon="1.7764">
        <ele>166.8</ele>
        <time>2026-01-31T11:55:49Z</time>
        <extensions>
          <gpxtpx:TrackPointExtension xmlns:gpxtpx="http://www.garmin.com/xmlschemas/TrackPointExtension/v1">
            <gpxtpx:hr>105</gpxtpx:hr>
          </gpxtpx:TrackPointExtension>
        </extensions>
      </trkpt>
      <trkpt lat="48.73843" lon="1.77635">
        <ele>167</ele>
        <time>2026-01-31T11:55:51Z</time>
        <extensions>
          <gpxtpx:TrackPointExtension xmlns:gpxtpx="http://www.garmin.com/xmlschemas/TrackPointExtension/v1">
            <gpxtpx:hr>105</gpxtpx:hr>
          </gpxtpx:TrackPointExtension>
        </extensions>
      </trkpt>
      <trkpt lat="48.73844" lon="1.77632">
        <ele>167.2</ele>
        <time>2026-01-31T11:55:53Z</time>
        <extensions>
          <gpxtpx:TrackPointExtension xmlns:gpxtpx="http://www.garmin.com/xmlschemas/TrackPointExtension/v1">
            <gpxtpx:hr>106</gpxtpx:hr>
          </gpxtpx:TrackPointExtension>
        </extensions>
      </trkpt>
      <trkpt lat="48.73844" lon="1.77629">
        <ele>167.4</ele>
        <time>2026-01-31T11:55:55Z</time>
        <extensions>
          <gpxtpx:TrackPointExtension xmlns:gpxtpx="http://www.garmin.com/xmlschemas/TrackPointExtension/v1">
            <gpxtpx:hr>106</gpxtpx:hr>
          </gpxtpx:TrackPointExtension>
        </extensions>
      </trkpt>
      <trkpt lat="48.73845" lon="1.77626">
        <ele>167.6</ele>
        <time>2026-01-31T11:55:58Z</time>
        <extensions>
          <gpxtpx:TrackPointExtension xmlns:gpxtpx="http://www.garmin.com/xmlschemas/TrackPointExtension/v1">
            <gpxtpx:hr>106</gpxtpx:hr>
          </gpxtpx:TrackPointExtension>
        </extensions>
      </trkpt>
      <trkpt lat="48.73845" lon="1.77623">
        <ele>167.6</ele>
        <time>2026-01-31T11:56:00Z</time>
        <extensions>
          <gpxtpx:TrackPointExtension xmlns:gpxtpx="http://www.garmin.com/xmlschemas/TrackPointExtension/v1">
            <gpxtpx:hr>106</gpxtpx:hr>
          </gpxtpx:TrackPointExtension>
        </extensions>
      </trkpt>
      <trkpt lat="48.73846" lon="1.77619">
        <ele>167.8</ele>
        <time>2026-01-31T11:56:02Z</time>
        <extensions>
          <gpxtpx:TrackPointExtension xmlns:gpxtpx="http://www.garmin.com/xmlschemas/TrackPointExtension/v1">
            <gpxtpx:hr>106</gpxtpx:hr>
          </gpxtpx:TrackPointExtension>
        </extensions>
      </trkpt>
      <trkpt lat="48.73847" lon="1.77616">
        <ele>167.8</ele>
        <time>2026-01-31T11:56:04Z</time>
        <extensions>
          <gpxtpx:TrackPointExtension xmlns:gpxtpx="http://www.garmin.com/xmlschemas/TrackPointExtension/v1">
            <gpxtpx:hr>106</gpxtpx:hr>
          </gpxtpx:TrackPointExtension>
        </extensions>
      </trkpt>
      <trkpt lat="48.73849" lon="1.77613">
        <ele>168</ele>
        <time>2026-01-31T11:56:06Z</time>
        <extensions>
          <gpxtpx:TrackPointExtension xmlns:gpxtpx="http://www.garmin.com/xmlschemas/TrackPointExtension/v1">
            <gpxtpx:hr>106</gpxtpx:hr>
          </gpxtpx:TrackPointExtension>
        </extensions>
      </trkpt>
      <trkpt lat="48.73851" lon="1.77611">
        <ele>168</ele>
        <time>2026-01-31T11:56:08Z</time>
        <extensions>
          <gpxtpx:TrackPointExtension xmlns:gpxtpx="http://www.garmin.com/xmlschemas/TrackPointExtension/v1">
            <gpxtpx:hr>106</gpxtpx:hr>
          </gpxtpx:TrackPointExtension>
        </extensions>
      </trkpt>
      <trkpt lat="48.73853" lon="1.77608">
        <ele>167.8</ele>
        <time>2026-01-31T11:56:10Z</time>
        <extensions>
          <gpxtpx:TrackPointExtension xmlns:gpxtpx="http://www.garmin.com/xmlschemas/TrackPointExtension/v1">
            <gpxtpx:hr>106</gpxtpx:hr>
          </gpxtpx:TrackPointExtension>
        </extensions>
      </trkpt>
      <trkpt lat="48.73855" lon="1.77605">
        <ele>167.8</ele>
        <time>2026-01-31T11:56:12Z</time>
        <extensions>
          <gpxtpx:TrackPointExtension xmlns:gpxtpx="http://www.garmin.com/xmlschemas/TrackPointExtension/v1">
            <gpxtpx:hr>106</gpxtpx:hr>
          </gpxtpx:TrackPointExtension>
        </extensions>
      </trkpt>
      <trkpt lat="48.73856" lon="1.77602">
        <ele>167.6</ele>
        <time>2026-01-31T11:56:14Z</time>
        <extensions>
          <gpxtpx:TrackPointExtension xmlns:gpxtpx="http://www.garmin.com/xmlschemas/TrackPointExtension/v1">
            <gpxtpx:hr>106</gpxtpx:hr>
          </gpxtpx:TrackPointExtension>
        </extensions>
      </trkpt>
      <trkpt lat="48.73857" lon="1.77599">
        <ele>167.4</ele>
        <time>2026-01-31T11:56:16Z</time>
        <extensions>
          <gpxtpx:TrackPointExtension xmlns:gpxtpx="http://www.garmin.com/xmlschemas/TrackPointExtension/v1">
            <gpxtpx:hr>106</gpxtpx:hr>
          </gpxtpx:TrackPointExtension>
        </extensions>
      </trkpt>
      <trkpt lat="48.73858" lon="1.77596">
        <ele>167.2</ele>
        <time>2026-01-31T11:56:18Z</time>
        <extensions>
          <gpxtpx:TrackPointExtension xmlns:gpxtpx="http://www.garmin.com/xmlschemas/TrackPointExtension/v1">
            <gpxtpx:hr>106</gpxtpx:hr>
          </gpxtpx:TrackPointExtension>
        </extensions>
      </trkpt>
      <trkpt lat="48.73858" lon="1.77593">
        <ele>166.8</ele>
        <time>2026-01-31T11:56:20Z</time>
        <extensions>
          <gpxtpx:TrackPointExtension xmlns:gpxtpx="http://www.garmin.com/xmlschemas/TrackPointExtension/v1">
            <gpxtpx:hr>106</gpxtpx:hr>
          </gpxtpx:TrackPointExtension>
        </extensions>
      </trkpt>
      <trkpt lat="48.73859" lon="1.7759">
        <ele>166.6</ele>
        <time>2026-01-31T11:56:22Z</time>
        <extensions>
          <gpxtpx:TrackPointExtension xmlns:gpxtpx="http://www.garmin.com/xmlschemas/TrackPointExtension/v1">
            <gpxtpx:hr>106</gpxtpx:hr>
          </gpxtpx:TrackPointExtension>
        </extensions>
      </trkpt>
      <trkpt lat="48.7386" lon="1.77585">
        <ele>166.4</ele>
        <time>2026-01-31T11:56:24Z</time>
        <extensions>
          <gpxtpx:TrackPointExtension xmlns:gpxtpx="http://www.garmin.com/xmlschemas/TrackPointExtension/v1">
            <gpxtpx:hr>106</gpxtpx:hr>
          </gpxtpx:TrackPointExtension>
        </extensions>
      </trkpt>
      <trkpt lat="48.7386" lon="1.77581">
        <ele>166.2</ele>
        <time>2026-01-31T11:56:26Z</time>
        <extensions>
          <gpxtpx:TrackPointExtension xmlns:gpxtpx="http://www.garmin.com/xmlschemas/TrackPointExtension/v1">
            <gpxtpx:hr>107</gpxtpx:hr>
          </gpxtpx:TrackPointExtension>
        </extensions>
      </trkpt>
      <trkpt lat="48.73861" lon="1.77575">
        <ele>166</ele>
        <time>2026-01-31T11:56:29Z</time>
        <extensions>
          <gpxtpx:TrackPointExtension xmlns:gpxtpx="http://www.garmin.com/xmlschemas/TrackPointExtension/v1">
            <gpxtpx:hr>107</gpxtpx:hr>
          </gpxtpx:TrackPointExtension>
        </extensions>
      </trkpt>
      <trkpt lat="48.73861" lon="1.77571">
        <ele>165.8</ele>
        <time>2026-01-31T11:56:32Z</time>
        <extensions>
          <gpxtpx:TrackPointExtension xmlns:gpxtpx="http://www.garmin.com/xmlschemas/TrackPointExtension/v1">
            <gpxtpx:hr>108</gpxtpx:hr>
          </gpxtpx:TrackPointExtension>
        </extensions>
      </trkpt>
      <trkpt lat="48.73861" lon="1.77568">
        <ele>165.6</ele>
        <time>2026-01-31T11:56:42Z</time>
        <extensions>
          <gpxtpx:TrackPointExtension xmlns:gpxtpx="http://www.garmin.com/xmlschemas/TrackPointExtension/v1">
            <gpxtpx:hr>107</gpxtpx:hr>
          </gpxtpx:TrackPointExtension>
        </extensions>
      </trkpt>
      <trkpt lat="48.73862" lon="1.77565">
        <ele>165.4</ele>
        <time>2026-01-31T11:56:44Z</time>
        <extensions>
          <gpxtpx:TrackPointExtension xmlns:gpxtpx="http://www.garmin.com/xmlschemas/TrackPointExtension/v1">
            <gpxtpx:hr>107</gpxtpx:hr>
          </gpxtpx:TrackPointExtension>
        </extensions>
      </trkpt>
      <trkpt lat="48.73863" lon="1.77562">
        <ele>165.6</ele>
        <time>2026-01-31T11:56:46Z</time>
        <extensions>
          <gpxtpx:TrackPointExtension xmlns:gpxtpx="http://www.garmin.com/xmlschemas/TrackPointExtension/v1">
            <gpxtpx:hr>107</gpxtpx:hr>
          </gpxtpx:TrackPointExtension>
        </extensions>
      </trkpt>
      <trkpt lat="48.73864" lon="1.77559">
        <ele>165.6</ele>
        <time>2026-01-31T11:56:48Z</time>
        <extensions>
          <gpxtpx:TrackPointExtension xmlns:gpxtpx="http://www.garmin.com/xmlschemas/TrackPointExtension/v1">
            <gpxtpx:hr>107</gpxtpx:hr>
          </gpxtpx:TrackPointExtension>
        </extensions>
      </trkpt>
      <trkpt lat="48.73866" lon="1.77557">
        <ele>165.6</ele>
        <time>2026-01-31T11:56:50Z</time>
        <extensions>
          <gpxtpx:TrackPointExtension xmlns:gpxtpx="http://www.garmin.com/xmlschemas/TrackPointExtension/v1">
            <gpxtpx:hr>107</gpxtpx:hr>
          </gpxtpx:TrackPointExtension>
        </extensions>
      </trkpt>
      <trkpt lat="48.73868" lon="1.77555">
        <ele>165.6</ele>
        <time>2026-01-31T11:56:52Z</time>
        <extensions>
          <gpxtpx:TrackPointExtension xmlns:gpxtpx="http://www.garmin.com/xmlschemas/TrackPointExtension/v1">
            <gpxtpx:hr>107</gpxtpx:hr>
          </gpxtpx:TrackPointExtension>
        </extensions>
      </trkpt>
      <trkpt lat="48.73869" lon="1.77552">
        <ele>165.4</ele>
        <time>2026-01-31T11:56:56Z</time>
        <extensions>
          <gpxtpx:TrackPointExtension xmlns:gpxtpx="http://www.garmin.com/xmlschemas/TrackPointExtension/v1">
            <gpxtpx:hr>107</gpxtpx:hr>
          </gpxtpx:TrackPointExtension>
        </extensions>
      </trkpt>
      <trkpt lat="48.7387" lon="1.77549">
        <ele>164.8</ele>
        <time>2026-01-31T11:57:04Z</time>
        <extensions>
          <gpxtpx:TrackPointExtension xmlns:gpxtpx="http://www.garmin.com/xmlschemas/TrackPointExtension/v1">
            <gpxtpx:hr>107</gpxtpx:hr>
          </gpxtpx:TrackPointExtension>
        </extensions>
      </trkpt>
      <trkpt lat="48.73871" lon="1.77546">
        <ele>164.6</ele>
        <time>2026-01-31T11:57:06Z</time>
        <extensions>
          <gpxtpx:TrackPointExtension xmlns:gpxtpx="http://www.garmin.com/xmlschemas/TrackPointExtension/v1">
            <gpxtpx:hr>107</gpxtpx:hr>
          </gpxtpx:TrackPointExtension>
        </extensions>
      </trkpt>
      <trkpt lat="48.73872" lon="1.77543">
        <ele>164.4</ele>
        <time>2026-01-31T11:57:08Z</time>
        <extensions>
          <gpxtpx:TrackPointExtension xmlns:gpxtpx="http://www.garmin.com/xmlschemas/TrackPointExtension/v1">
            <gpxtpx:hr>107</gpxtpx:hr>
          </gpxtpx:TrackPointExtension>
        </extensions>
      </trkpt>
      <trkpt lat="48.73872" lon="1.7754">
        <ele>164.2</ele>
        <time>2026-01-31T11:57:10Z</time>
        <extensions>
          <gpxtpx:TrackPointExtension xmlns:gpxtpx="http://www.garmin.com/xmlschemas/TrackPointExtension/v1">
            <gpxtpx:hr>107</gpxtpx:hr>
          </gpxtpx:TrackPointExtension>
        </extensions>
      </trkpt>
      <trkpt lat="48.73872" lon="1.77537">
        <ele>164</ele>
        <time>2026-01-31T11:57:12Z</time>
        <extensions>
          <gpxtpx:TrackPointExtension xmlns:gpxtpx="http://www.garmin.com/xmlschemas/TrackPointExtension/v1">
            <gpxtpx:hr>107</gpxtpx:hr>
          </gpxtpx:TrackPointExtension>
        </extensions>
      </trkpt>
      <trkpt lat="48.73872" lon="1.77533">
        <ele>164</ele>
        <time>2026-01-31T11:57:14Z</time>
        <extensions>
          <gpxtpx:TrackPointExtension xmlns:gpxtpx="http://www.garmin.com/xmlschemas/TrackPointExtension/v1">
            <gpxtpx:hr>107</gpxtpx:hr>
          </gpxtpx:TrackPointExtension>
        </extensions>
      </trkpt>
      <trkpt lat="48.73873" lon="1.7753">
        <ele>164</ele>
        <time>2026-01-31T11:57:16Z</time>
        <extensions>
          <gpxtpx:TrackPointExtension xmlns:gpxtpx="http://www.garmin.com/xmlschemas/TrackPointExtension/v1">
            <gpxtpx:hr>107</gpxtpx:hr>
          </gpxtpx:TrackPointExtension>
        </extensions>
      </trkpt>
      <trkpt lat="48.73874" lon="1.77526">
        <ele>164</ele>
        <time>2026-01-31T11:57:18Z</time>
        <extensions>
          <gpxtpx:TrackPointExtension xmlns:gpxtpx="http://www.garmin.com/xmlschemas/TrackPointExtension/v1">
            <gpxtpx:hr>107</gpxtpx:hr>
          </gpxtpx:TrackPointExtension>
        </extensions>
      </trkpt>
      <trkpt lat="48.73875" lon="1.77523">
        <ele>164</ele>
        <time>2026-01-31T11:57:20Z</time>
        <extensions>
          <gpxtpx:TrackPointExtension xmlns:gpxtpx="http://www.garmin.com/xmlschemas/TrackPointExtension/v1">
            <gpxtpx:hr>107</gpxtpx:hr>
          </gpxtpx:TrackPointExtension>
        </extensions>
      </trkpt>
      <trkpt lat="48.73876" lon="1.7752">
        <ele>164</ele>
        <time>2026-01-31T11:57:22Z</time>
        <extensions>
          <gpxtpx:TrackPointExtension xmlns:gpxtpx="http://www.garmin.com/xmlschemas/TrackPointExtension/v1">
            <gpxtpx:hr>107</gpxtpx:hr>
          </gpxtpx:TrackPointExtension>
        </extensions>
      </trkpt>
      <trkpt lat="48.73877" lon="1.77517">
        <ele>164</ele>
        <time>2026-01-31T11:57:24Z</time>
        <extensions>
          <gpxtpx:TrackPointExtension xmlns:gpxtpx="http://www.garmin.com/xmlschemas/TrackPointExtension/v1">
            <gpxtpx:hr>107</gpxtpx:hr>
          </gpxtpx:TrackPointExtension>
        </extensions>
      </trkpt>
      <trkpt lat="48.73878" lon="1.77514">
        <ele>164</ele>
        <time>2026-01-31T11:57:27Z</time>
        <extensions>
          <gpxtpx:TrackPointExtension xmlns:gpxtpx="http://www.garmin.com/xmlschemas/TrackPointExtension/v1">
            <gpxtpx:hr>108</gpxtpx:hr>
          </gpxtpx:TrackPointExtension>
        </extensions>
      </trkpt>
      <trkpt lat="48.73879" lon="1.77511">
        <ele>164</ele>
        <time>2026-01-31T11:57:29Z</time>
        <extensions>
          <gpxtpx:TrackPointExtension xmlns:gpxtpx="http://www.garmin.com/xmlschemas/TrackPointExtension/v1">
            <gpxtpx:hr>109</gpxtpx:hr>
          </gpxtpx:TrackPointExtension>
        </extensions>
      </trkpt>
      <trkpt lat="48.7388" lon="1.77508">
        <ele>163.8</ele>
        <time>2026-01-31T11:57:31Z</time>
        <extensions>
          <gpxtpx:TrackPointExtension xmlns:gpxtpx="http://www.garmin.com/xmlschemas/TrackPointExtension/v1">
            <gpxtpx:hr>110</gpxtpx:hr>
          </gpxtpx:TrackPointExtension>
        </extensions>
      </trkpt>
      <trkpt lat="48.73882" lon="1.77504">
        <ele>163.8</ele>
        <time>2026-01-31T11:57:33Z</time>
        <extensions>
          <gpxtpx:TrackPointExtension xmlns:gpxtpx="http://www.garmin.com/xmlschemas/TrackPointExtension/v1">
            <gpxtpx:hr>110</gpxtpx:hr>
          </gpxtpx:TrackPointExtension>
        </extensions>
      </trkpt>
      <trkpt lat="48.73883" lon="1.775">
        <ele>163.8</ele>
        <time>2026-01-31T11:57:35Z</time>
        <extensions>
          <gpxtpx:TrackPointExtension xmlns:gpxtpx="http://www.garmin.com/xmlschemas/TrackPointExtension/v1">
            <gpxtpx:hr>110</gpxtpx:hr>
          </gpxtpx:TrackPointExtension>
        </extensions>
      </trkpt>
      <trkpt lat="48.73884" lon="1.77496">
        <ele>163.6</ele>
        <time>2026-01-31T11:57:37Z</time>
        <extensions>
          <gpxtpx:TrackPointExtension xmlns:gpxtpx="http://www.garmin.com/xmlschemas/TrackPointExtension/v1">
            <gpxtpx:hr>110</gpxtpx:hr>
          </gpxtpx:TrackPointExtension>
        </extensions>
      </trkpt>
      <trkpt lat="48.73885" lon="1.77493">
        <ele>163.6</ele>
        <time>2026-01-31T11:57:39Z</time>
        <extensions>
          <gpxtpx:TrackPointExtension xmlns:gpxtpx="http://www.garmin.com/xmlschemas/TrackPointExtension/v1">
            <gpxtpx:hr>110</gpxtpx:hr>
          </gpxtpx:TrackPointExtension>
        </extensions>
      </trkpt>
      <trkpt lat="48.73884" lon="1.7749">
        <ele>163.6</ele>
        <time>2026-01-31T11:57:42Z</time>
        <extensions>
          <gpxtpx:TrackPointExtension xmlns:gpxtpx="http://www.garmin.com/xmlschemas/TrackPointExtension/v1">
            <gpxtpx:hr>110</gpxtpx:hr>
          </gpxtpx:TrackPointExtension>
        </extensions>
      </trkpt>
      <trkpt lat="48.73883" lon="1.77487">
        <ele>163.6</ele>
        <time>2026-01-31T11:57:44Z</time>
        <extensions>
          <gpxtpx:TrackPointExtension xmlns:gpxtpx="http://www.garmin.com/xmlschemas/TrackPointExtension/v1">
            <gpxtpx:hr>110</gpxtpx:hr>
          </gpxtpx:TrackPointExtension>
        </extensions>
      </trkpt>
      <trkpt lat="48.73882" lon="1.77484">
        <ele>163.4</ele>
        <time>2026-01-31T11:57:46Z</time>
        <extensions>
          <gpxtpx:TrackPointExtension xmlns:gpxtpx="http://www.garmin.com/xmlschemas/TrackPointExtension/v1">
            <gpxtpx:hr>110</gpxtpx:hr>
          </gpxtpx:TrackPointExtension>
        </extensions>
      </trkpt>
      <trkpt lat="48.73881" lon="1.77481">
        <ele>163.4</ele>
        <time>2026-01-31T11:57:48Z</time>
        <extensions>
          <gpxtpx:TrackPointExtension xmlns:gpxtpx="http://www.garmin.com/xmlschemas/TrackPointExtension/v1">
            <gpxtpx:hr>110</gpxtpx:hr>
          </gpxtpx:TrackPointExtension>
        </extensions>
      </trkpt>
      <trkpt lat="48.73881" lon="1.77478">
        <ele>163.2</ele>
        <time>2026-01-31T11:57:50Z</time>
        <extensions>
          <gpxtpx:TrackPointExtension xmlns:gpxtpx="http://www.garmin.com/xmlschemas/TrackPointExtension/v1">
            <gpxtpx:hr>109</gpxtpx:hr>
          </gpxtpx:TrackPointExtension>
        </extensions>
      </trkpt>
      <trkpt lat="48.73879" lon="1.77475">
        <ele>163</ele>
        <time>2026-01-31T11:57:53Z</time>
        <extensions>
          <gpxtpx:TrackPointExtension xmlns:gpxtpx="http://www.garmin.com/xmlschemas/TrackPointExtension/v1">
            <gpxtpx:hr>109</gpxtpx:hr>
          </gpxtpx:TrackPointExtension>
        </extensions>
      </trkpt>
      <trkpt lat="48.73877" lon="1.77472">
        <ele>162.8</ele>
        <time>2026-01-31T11:57:55Z</time>
        <extensions>
          <gpxtpx:TrackPointExtension xmlns:gpxtpx="http://www.garmin.com/xmlschemas/TrackPointExtension/v1">
            <gpxtpx:hr>109</gpxtpx:hr>
          </gpxtpx:TrackPointExtension>
        </extensions>
      </trkpt>
      <trkpt lat="48.73876" lon="1.77469">
        <ele>162.8</ele>
        <time>2026-01-31T11:57:57Z</time>
        <extensions>
          <gpxtpx:TrackPointExtension xmlns:gpxtpx="http://www.garmin.com/xmlschemas/TrackPointExtension/v1">
            <gpxtpx:hr>109</gpxtpx:hr>
          </gpxtpx:TrackPointExtension>
        </extensions>
      </trkpt>
      <trkpt lat="48.73874" lon="1.77466">
        <ele>162.6</ele>
        <time>2026-01-31T11:57:59Z</time>
        <extensions>
          <gpxtpx:TrackPointExtension xmlns:gpxtpx="http://www.garmin.com/xmlschemas/TrackPointExtension/v1">
            <gpxtpx:hr>109</gpxtpx:hr>
          </gpxtpx:TrackPointExtension>
        </extensions>
      </trkpt>
      <trkpt lat="48.73872" lon="1.77464">
        <ele>162.2</ele>
        <time>2026-01-31T11:58:01Z</time>
        <extensions>
          <gpxtpx:TrackPointExtension xmlns:gpxtpx="http://www.garmin.com/xmlschemas/TrackPointExtension/v1">
            <gpxtpx:hr>108</gpxtpx:hr>
          </gpxtpx:TrackPointExtension>
        </extensions>
      </trkpt>
      <trkpt lat="48.73871" lon="1.77461">
        <ele>161.8</ele>
        <time>2026-01-31T11:58:03Z</time>
        <extensions>
          <gpxtpx:TrackPointExtension xmlns:gpxtpx="http://www.garmin.com/xmlschemas/TrackPointExtension/v1">
            <gpxtpx:hr>108</gpxtpx:hr>
          </gpxtpx:TrackPointExtension>
        </extensions>
      </trkpt>
      <trkpt lat="48.73869" lon="1.77459">
        <ele>161.4</ele>
        <time>2026-01-31T11:58:05Z</time>
        <extensions>
          <gpxtpx:TrackPointExtension xmlns:gpxtpx="http://www.garmin.com/xmlschemas/TrackPointExtension/v1">
            <gpxtpx:hr>108</gpxtpx:hr>
          </gpxtpx:TrackPointExtension>
        </extensions>
      </trkpt>
      <trkpt lat="48.73868" lon="1.77456">
        <ele>160.8</ele>
        <time>2026-01-31T11:58:08Z</time>
        <extensions>
          <gpxtpx:TrackPointExtension xmlns:gpxtpx="http://www.garmin.com/xmlschemas/TrackPointExtension/v1">
            <gpxtpx:hr>107</gpxtpx:hr>
          </gpxtpx:TrackPointExtension>
        </extensions>
      </trkpt>
      <trkpt lat="48.73868" lon="1.77453">
        <ele>160.2</ele>
        <time>2026-01-31T11:58:11Z</time>
      </trkpt>
      <trkpt lat="48.73866" lon="1.7745">
        <ele>159.6</ele>
        <time>2026-01-31T11:58:14Z</time>
        <extensions>
          <gpxtpx:TrackPointExtension xmlns:gpxtpx="http://www.garmin.com/xmlschemas/TrackPointExtension/v1">
            <gpxtpx:hr>106</gpxtpx:hr>
          </gpxtpx:TrackPointExtension>
        </extensions>
      </trkpt>
      <trkpt lat="48.73864" lon="1.77448">
        <ele>159.2</ele>
        <time>2026-01-31T11:58:16Z</time>
        <extensions>
          <gpxtpx:TrackPointExtension xmlns:gpxtpx="http://www.garmin.com/xmlschemas/TrackPointExtension/v1">
            <gpxtpx:hr>106</gpxtpx:hr>
          </gpxtpx:TrackPointExtension>
        </extensions>
      </trkpt>
      <trkpt lat="48.73861" lon="1.77447">
        <ele>158.8</ele>
        <time>2026-01-31T11:58:18Z</time>
        <extensions>
          <gpxtpx:TrackPointExtension xmlns:gpxtpx="http://www.garmin.com/xmlschemas/TrackPointExtension/v1">
            <gpxtpx:hr>106</gpxtpx:hr>
          </gpxtpx:TrackPointExtension>
        </extensions>
      </trkpt>
      <trkpt lat="48.73858" lon="1.77444">
        <ele>158.4</ele>
        <time>2026-01-31T11:58:20Z</time>
        <extensions>
          <gpxtpx:TrackPointExtension xmlns:gpxtpx="http://www.garmin.com/xmlschemas/TrackPointExtension/v1">
            <gpxtpx:hr>106</gpxtpx:hr>
          </gpxtpx:TrackPointExtension>
        </extensions>
      </trkpt>
      <trkpt lat="48.73856" lon="1.77441">
        <ele>158.2</ele>
        <time>2026-01-31T11:58:22Z</time>
        <extensions>
          <gpxtpx:TrackPointExtension xmlns:gpxtpx="http://www.garmin.com/xmlschemas/TrackPointExtension/v1">
            <gpxtpx:hr>106</gpxtpx:hr>
          </gpxtpx:TrackPointExtension>
        </extensions>
      </trkpt>
      <trkpt lat="48.73855" lon="1.77438">
        <ele>158</ele>
        <time>2026-01-31T11:58:24Z</time>
        <extensions>
          <gpxtpx:TrackPointExtension xmlns:gpxtpx="http://www.garmin.com/xmlschemas/TrackPointExtension/v1">
            <gpxtpx:hr>106</gpxtpx:hr>
          </gpxtpx:TrackPointExtension>
        </extensions>
      </trkpt>
      <trkpt lat="48.73854" lon="1.77434">
        <ele>157.8</ele>
        <time>2026-01-31T11:58:26Z</time>
        <extensions>
          <gpxtpx:TrackPointExtension xmlns:gpxtpx="http://www.garmin.com/xmlschemas/TrackPointExtension/v1">
            <gpxtpx:hr>106</gpxtpx:hr>
          </gpxtpx:TrackPointExtension>
        </extensions>
      </trkpt>
      <trkpt lat="48.73854" lon="1.7743">
        <ele>157.6</ele>
        <time>2026-01-31T11:58:28Z</time>
        <extensions>
          <gpxtpx:TrackPointExtension xmlns:gpxtpx="http://www.garmin.com/xmlschemas/TrackPointExtension/v1">
            <gpxtpx:hr>106</gpxtpx:hr>
          </gpxtpx:TrackPointExtension>
        </extensions>
      </trkpt>
      <trkpt lat="48.73852" lon="1.77426">
        <ele>157.4</ele>
        <time>2026-01-31T11:58:30Z</time>
        <extensions>
          <gpxtpx:TrackPointExtension xmlns:gpxtpx="http://www.garmin.com/xmlschemas/TrackPointExtension/v1">
            <gpxtpx:hr>106</gpxtpx:hr>
          </gpxtpx:TrackPointExtension>
        </extensions>
      </trkpt>
      <trkpt lat="48.73852" lon="1.77423">
        <ele>157.2</ele>
        <time>2026-01-31T11:58:32Z</time>
        <extensions>
          <gpxtpx:TrackPointExtension xmlns:gpxtpx="http://www.garmin.com/xmlschemas/TrackPointExtension/v1">
            <gpxtpx:hr>106</gpxtpx:hr>
          </gpxtpx:TrackPointExtension>
        </extensions>
      </trkpt>
      <trkpt lat="48.7385" lon="1.7742">
        <ele>157</ele>
        <time>2026-01-31T11:58:34Z</time>
        <extensions>
          <gpxtpx:TrackPointExtension xmlns:gpxtpx="http://www.garmin.com/xmlschemas/TrackPointExtension/v1">
            <gpxtpx:hr>106</gpxtpx:hr>
          </gpxtpx:TrackPointExtension>
        </extensions>
      </trkpt>
      <trkpt lat="48.73848" lon="1.77417">
        <ele>156.8</ele>
        <time>2026-01-31T11:58:36Z</time>
        <extensions>
          <gpxtpx:TrackPointExtension xmlns:gpxtpx="http://www.garmin.com/xmlschemas/TrackPointExtension/v1">
            <gpxtpx:hr>106</gpxtpx:hr>
          </gpxtpx:TrackPointExtension>
        </extensions>
      </trkpt>
      <trkpt lat="48.73847" lon="1.77413">
        <ele>156.6</ele>
        <time>2026-01-31T11:58:38Z</time>
        <extensions>
          <gpxtpx:TrackPointExtension xmlns:gpxtpx="http://www.garmin.com/xmlschemas/TrackPointExtension/v1">
            <gpxtpx:hr>106</gpxtpx:hr>
          </gpxtpx:TrackPointExtension>
        </extensions>
      </trkpt>
      <trkpt lat="48.73845" lon="1.77409">
        <ele>156.6</ele>
        <time>2026-01-31T11:58:40Z</time>
        <extensions>
          <gpxtpx:TrackPointExtension xmlns:gpxtpx="http://www.garmin.com/xmlschemas/TrackPointExtension/v1">
            <gpxtpx:hr>106</gpxtpx:hr>
          </gpxtpx:TrackPointExtension>
        </extensions>
      </trkpt>
      <trkpt lat="48.73843" lon="1.77406">
        <ele>156.4</ele>
        <time>2026-01-31T11:58:42Z</time>
        <extensions>
          <gpxtpx:TrackPointExtension xmlns:gpxtpx="http://www.garmin.com/xmlschemas/TrackPointExtension/v1">
            <gpxtpx:hr>107</gpxtpx:hr>
          </gpxtpx:TrackPointExtension>
        </extensions>
      </trkpt>
      <trkpt lat="48.73841" lon="1.77403">
        <ele>156.4</ele>
        <time>2026-01-31T11:58:44Z</time>
        <extensions>
          <gpxtpx:TrackPointExtension xmlns:gpxtpx="http://www.garmin.com/xmlschemas/TrackPointExtension/v1">
            <gpxtpx:hr>107</gpxtpx:hr>
          </gpxtpx:TrackPointExtension>
        </extensions>
      </trkpt>
      <trkpt lat="48.73838" lon="1.774">
        <ele>156.6</ele>
        <time>2026-01-31T11:58:46Z</time>
        <extensions>
          <gpxtpx:TrackPointExtension xmlns:gpxtpx="http://www.garmin.com/xmlschemas/TrackPointExtension/v1">
            <gpxtpx:hr>107</gpxtpx:hr>
          </gpxtpx:TrackPointExtension>
        </extensions>
      </trkpt>
      <trkpt lat="48.73836" lon="1.77397">
        <ele>156.6</ele>
        <time>2026-01-31T11:58:48Z</time>
        <extensions>
          <gpxtpx:TrackPointExtension xmlns:gpxtpx="http://www.garmin.com/xmlschemas/TrackPointExtension/v1">
            <gpxtpx:hr>107</gpxtpx:hr>
          </gpxtpx:TrackPointExtension>
        </extensions>
      </trkpt>
      <trkpt lat="48.73834" lon="1.77394">
        <ele>156.8</ele>
        <time>2026-01-31T11:58:50Z</time>
        <extensions>
          <gpxtpx:TrackPointExtension xmlns:gpxtpx="http://www.garmin.com/xmlschemas/TrackPointExtension/v1">
            <gpxtpx:hr>107</gpxtpx:hr>
          </gpxtpx:TrackPointExtension>
        </extensions>
      </trkpt>
      <trkpt lat="48.73832" lon="1.7739">
        <ele>157</ele>
        <time>2026-01-31T11:58:52Z</time>
        <extensions>
          <gpxtpx:TrackPointExtension xmlns:gpxtpx="http://www.garmin.com/xmlschemas/TrackPointExtension/v1">
            <gpxtpx:hr>107</gpxtpx:hr>
          </gpxtpx:TrackPointExtension>
        </extensions>
      </trkpt>
      <trkpt lat="48.7383" lon="1.77387">
        <ele>157.2</ele>
        <time>2026-01-31T11:58:54Z</time>
        <extensions>
          <gpxtpx:TrackPointExtension xmlns:gpxtpx="http://www.garmin.com/xmlschemas/TrackPointExtension/v1">
            <gpxtpx:hr>107</gpxtpx:hr>
          </gpxtpx:TrackPointExtension>
        </extensions>
      </trkpt>
      <trkpt lat="48.73829" lon="1.77384">
        <ele>157.4</ele>
        <time>2026-01-31T11:58:56Z</time>
        <extensions>
          <gpxtpx:TrackPointExtension xmlns:gpxtpx="http://www.garmin.com/xmlschemas/TrackPointExtension/v1">
            <gpxtpx:hr>106</gpxtpx:hr>
          </gpxtpx:TrackPointExtension>
        </extensions>
      </trkpt>
      <trkpt lat="48.73827" lon="1.77381">
        <ele>157.8</ele>
        <time>2026-01-31T11:58:58Z</time>
        <extensions>
          <gpxtpx:TrackPointExtension xmlns:gpxtpx="http://www.garmin.com/xmlschemas/TrackPointExtension/v1">
            <gpxtpx:hr>106</gpxtpx:hr>
          </gpxtpx:TrackPointExtension>
        </extensions>
      </trkpt>
      <trkpt lat="48.73826" lon="1.77378">
        <ele>158.2</ele>
        <time>2026-01-31T11:59:00Z</time>
        <extensions>
          <gpxtpx:TrackPointExtension xmlns:gpxtpx="http://www.garmin.com/xmlschemas/TrackPointExtension/v1">
            <gpxtpx:hr>106</gpxtpx:hr>
          </gpxtpx:TrackPointExtension>
        </extensions>
      </trkpt>
      <trkpt lat="48.73825" lon="1.77374">
        <ele>158.6</ele>
        <time>2026-01-31T11:59:02Z</time>
        <extensions>
          <gpxtpx:TrackPointExtension xmlns:gpxtpx="http://www.garmin.com/xmlschemas/TrackPointExtension/v1">
            <gpxtpx:hr>106</gpxtpx:hr>
          </gpxtpx:TrackPointExtension>
        </extensions>
      </trkpt>
      <trkpt lat="48.73826" lon="1.77369">
        <ele>159</ele>
        <time>2026-01-31T11:59:04Z</time>
        <extensions>
          <gpxtpx:TrackPointExtension xmlns:gpxtpx="http://www.garmin.com/xmlschemas/TrackPointExtension/v1">
            <gpxtpx:hr>106</gpxtpx:hr>
          </gpxtpx:TrackPointExtension>
        </extensions>
      </trkpt>
      <trkpt lat="48.73827" lon="1.77366">
        <ele>159.4</ele>
        <time>2026-01-31T11:59:06Z</time>
        <extensions>
          <gpxtpx:TrackPointExtension xmlns:gpxtpx="http://www.garmin.com/xmlschemas/TrackPointExtension/v1">
            <gpxtpx:hr>106</gpxtpx:hr>
          </gpxtpx:TrackPointExtension>
        </extensions>
      </trkpt>
      <trkpt lat="48.73828" lon="1.77363">
        <ele>159.6</ele>
        <time>2026-01-31T11:59:08Z</time>
        <extensions>
          <gpxtpx:TrackPointExtension xmlns:gpxtpx="http://www.garmin.com/xmlschemas/TrackPointExtension/v1">
            <gpxtpx:hr>106</gpxtpx:hr>
          </gpxtpx:TrackPointExtension>
        </extensions>
      </trkpt>
      <trkpt lat="48.7383" lon="1.7736">
        <ele>159.8</ele>
        <time>2026-01-31T11:59:10Z</time>
        <extensions>
          <gpxtpx:TrackPointExtension xmlns:gpxtpx="http://www.garmin.com/xmlschemas/TrackPointExtension/v1">
            <gpxtpx:hr>106</gpxtpx:hr>
          </gpxtpx:TrackPointExtension>
        </extensions>
      </trkpt>
      <trkpt lat="48.73832" lon="1.77356">
        <ele>160</ele>
        <time>2026-01-31T11:59:12Z</time>
        <extensions>
          <gpxtpx:TrackPointExtension xmlns:gpxtpx="http://www.garmin.com/xmlschemas/TrackPointExtension/v1">
            <gpxtpx:hr>106</gpxtpx:hr>
          </gpxtpx:TrackPointExtension>
        </extensions>
      </trkpt>
      <trkpt lat="48.73834" lon="1.77353">
        <ele>160.2</ele>
        <time>2026-01-31T11:59:14Z</time>
        <extensions>
          <gpxtpx:TrackPointExtension xmlns:gpxtpx="http://www.garmin.com/xmlschemas/TrackPointExtension/v1">
            <gpxtpx:hr>106</gpxtpx:hr>
          </gpxtpx:TrackPointExtension>
        </extensions>
      </trkpt>
      <trkpt lat="48.73835" lon="1.77349">
        <ele>160.2</ele>
        <time>2026-01-31T11:59:16Z</time>
        <extensions>
          <gpxtpx:TrackPointExtension xmlns:gpxtpx="http://www.garmin.com/xmlschemas/TrackPointExtension/v1">
            <gpxtpx:hr>106</gpxtpx:hr>
          </gpxtpx:TrackPointExtension>
        </extensions>
      </trkpt>
      <trkpt lat="48.73836" lon="1.77346">
        <ele>160.4</ele>
        <time>2026-01-31T11:59:18Z</time>
        <extensions>
          <gpxtpx:TrackPointExtension xmlns:gpxtpx="http://www.garmin.com/xmlschemas/TrackPointExtension/v1">
            <gpxtpx:hr>106</gpxtpx:hr>
          </gpxtpx:TrackPointExtension>
        </extensions>
      </trkpt>
      <trkpt lat="48.73837" lon="1.77342">
        <ele>160.6</ele>
        <time>2026-01-31T11:59:20Z</time>
        <extensions>
          <gpxtpx:TrackPointExtension xmlns:gpxtpx="http://www.garmin.com/xmlschemas/TrackPointExtension/v1">
            <gpxtpx:hr>106</gpxtpx:hr>
          </gpxtpx:TrackPointExtension>
        </extensions>
      </trkpt>
      <trkpt lat="48.73839" lon="1.77337">
        <ele>160.6</ele>
        <time>2026-01-31T11:59:22Z</time>
        <extensions>
          <gpxtpx:TrackPointExtension xmlns:gpxtpx="http://www.garmin.com/xmlschemas/TrackPointExtension/v1">
            <gpxtpx:hr>106</gpxtpx:hr>
          </gpxtpx:TrackPointExtension>
        </extensions>
      </trkpt>
      <trkpt lat="48.7384" lon="1.77334">
        <ele>160.6</ele>
        <time>2026-01-31T11:59:23Z</time>
        <extensions>
          <gpxtpx:TrackPointExtension xmlns:gpxtpx="http://www.garmin.com/xmlschemas/TrackPointExtension/v1">
            <gpxtpx:hr>107</gpxtpx:hr>
          </gpxtpx:TrackPointExtension>
        </extensions>
      </trkpt>
      <trkpt lat="48.73841" lon="1.77329">
        <ele>160.6</ele>
        <time>2026-01-31T11:59:25Z</time>
        <extensions>
          <gpxtpx:TrackPointExtension xmlns:gpxtpx="http://www.garmin.com/xmlschemas/TrackPointExtension/v1">
            <gpxtpx:hr>107</gpxtpx:hr>
          </gpxtpx:TrackPointExtension>
        </extensions>
      </trkpt>
      <trkpt lat="48.73842" lon="1.77327">
        <ele>160.6</ele>
        <time>2026-01-31T11:59:26Z</time>
        <extensions>
          <gpxtpx:TrackPointExtension xmlns:gpxtpx="http://www.garmin.com/xmlschemas/TrackPointExtension/v1">
            <gpxtpx:hr>107</gpxtpx:hr>
          </gpxtpx:TrackPointExtension>
        </extensions>
      </trkpt>
      <trkpt lat="48.73844" lon="1.77325">
        <ele>160.6</ele>
        <time>2026-01-31T11:59:27Z</time>
        <extensions>
          <gpxtpx:TrackPointExtension xmlns:gpxtpx="http://www.garmin.com/xmlschemas/TrackPointExtension/v1">
            <gpxtpx:hr>107</gpxtpx:hr>
          </gpxtpx:TrackPointExtension>
        </extensions>
      </trkpt>
      <trkpt lat="48.73846" lon="1.77321">
        <ele>160.6</ele>
        <time>2026-01-31T11:59:29Z</time>
        <extensions>
          <gpxtpx:TrackPointExtension xmlns:gpxtpx="http://www.garmin.com/xmlschemas/TrackPointExtension/v1">
            <gpxtpx:hr>107</gpxtpx:hr>
          </gpxtpx:TrackPointExtension>
        </extensions>
      </trkpt>
      <trkpt lat="48.73847" lon="1.77317">
        <ele>160.6</ele>
        <time>2026-01-31T11:59:31Z</time>
        <extensions>
          <gpxtpx:TrackPointExtension xmlns:gpxtpx="http://www.garmin.com/xmlschemas/TrackPointExtension/v1">
            <gpxtpx:hr>107</gpxtpx:hr>
          </gpxtpx:TrackPointExtension>
        </extensions>
      </trkpt>
      <trkpt lat="48.73849" lon="1.77314">
        <ele>160.6</ele>
        <time>2026-01-31T11:59:33Z</time>
        <extensions>
          <gpxtpx:TrackPointExtension xmlns:gpxtpx="http://www.garmin.com/xmlschemas/TrackPointExtension/v1">
            <gpxtpx:hr>107</gpxtpx:hr>
          </gpxtpx:TrackPointExtension>
        </extensions>
      </trkpt>
      <trkpt lat="48.73851" lon="1.77311">
        <ele>160.6</ele>
        <time>2026-01-31T11:59:35Z</time>
        <extensions>
          <gpxtpx:TrackPointExtension xmlns:gpxtpx="http://www.garmin.com/xmlschemas/TrackPointExtension/v1">
            <gpxtpx:hr>107</gpxtpx:hr>
          </gpxtpx:TrackPointExtension>
        </extensions>
      </trkpt>
      <trkpt lat="48.73852" lon="1.77309">
        <ele>160.6</ele>
        <time>2026-01-31T11:59:37Z</time>
        <extensions>
          <gpxtpx:TrackPointExtension xmlns:gpxtpx="http://www.garmin.com/xmlschemas/TrackPointExtension/v1">
            <gpxtpx:hr>107</gpxtpx:hr>
          </gpxtpx:TrackPointExtension>
        </extensions>
      </trkpt>
      <trkpt lat="48.73854" lon="1.77306">
        <ele>160.6</ele>
        <time>2026-01-31T11:59:39Z</time>
        <extensions>
          <gpxtpx:TrackPointExtension xmlns:gpxtpx="http://www.garmin.com/xmlschemas/TrackPointExtension/v1">
            <gpxtpx:hr>107</gpxtpx:hr>
          </gpxtpx:TrackPointExtension>
        </extensions>
      </trkpt>
      <trkpt lat="48.73856" lon="1.77303">
        <ele>160.6</ele>
        <time>2026-01-31T11:59:41Z</time>
        <extensions>
          <gpxtpx:TrackPointExtension xmlns:gpxtpx="http://www.garmin.com/xmlschemas/TrackPointExtension/v1">
            <gpxtpx:hr>107</gpxtpx:hr>
          </gpxtpx:TrackPointExtension>
        </extensions>
      </trkpt>
      <trkpt lat="48.73859" lon="1.77301">
        <ele>160.8</ele>
        <time>2026-01-31T11:59:43Z</time>
        <extensions>
          <gpxtpx:TrackPointExtension xmlns:gpxtpx="http://www.garmin.com/xmlschemas/TrackPointExtension/v1">
            <gpxtpx:hr>107</gpxtpx:hr>
          </gpxtpx:TrackPointExtension>
        </extensions>
      </trkpt>
      <trkpt lat="48.7386" lon="1.77297">
        <ele>160.8</ele>
        <time>2026-01-31T11:59:45Z</time>
        <extensions>
          <gpxtpx:TrackPointExtension xmlns:gpxtpx="http://www.garmin.com/xmlschemas/TrackPointExtension/v1">
            <gpxtpx:hr>107</gpxtpx:hr>
          </gpxtpx:TrackPointExtension>
        </extensions>
      </trkpt>
      <trkpt lat="48.73862" lon="1.77293">
        <ele>160.8</ele>
        <time>2026-01-31T11:59:47Z</time>
        <extensions>
          <gpxtpx:TrackPointExtension xmlns:gpxtpx="http://www.garmin.com/xmlschemas/TrackPointExtension/v1">
            <gpxtpx:hr>107</gpxtpx:hr>
          </gpxtpx:TrackPointExtension>
        </extensions>
      </trkpt>
      <trkpt lat="48.73864" lon="1.77289">
        <ele>160.8</ele>
        <time>2026-01-31T11:59:49Z</time>
        <extensions>
          <gpxtpx:TrackPointExtension xmlns:gpxtpx="http://www.garmin.com/xmlschemas/TrackPointExtension/v1">
            <gpxtpx:hr>107</gpxtpx:hr>
          </gpxtpx:TrackPointExtension>
        </extensions>
      </trkpt>
      <trkpt lat="48.73865" lon="1.77286">
        <ele>161</ele>
        <time>2026-01-31T11:59:51Z</time>
        <extensions>
          <gpxtpx:TrackPointExtension xmlns:gpxtpx="http://www.garmin.com/xmlschemas/TrackPointExtension/v1">
            <gpxtpx:hr>107</gpxtpx:hr>
          </gpxtpx:TrackPointExtension>
        </extensions>
      </trkpt>
      <trkpt lat="48.73867" lon="1.77282">
        <ele>161</ele>
        <time>2026-01-31T11:59:53Z</time>
        <extensions>
          <gpxtpx:TrackPointExtension xmlns:gpxtpx="http://www.garmin.com/xmlschemas/TrackPointExtension/v1">
            <gpxtpx:hr>107</gpxtpx:hr>
          </gpxtpx:TrackPointExtension>
        </extensions>
      </trkpt>
      <trkpt lat="48.73868" lon="1.77279">
        <ele>161.2</ele>
        <time>2026-01-31T11:59:55Z</time>
        <extensions>
          <gpxtpx:TrackPointExtension xmlns:gpxtpx="http://www.garmin.com/xmlschemas/TrackPointExtension/v1">
            <gpxtpx:hr>107</gpxtpx:hr>
          </gpxtpx:TrackPointExtension>
        </extensions>
      </trkpt>
      <trkpt lat="48.73871" lon="1.77277">
        <ele>161.4</ele>
        <time>2026-01-31T11:59:57Z</time>
        <extensions>
          <gpxtpx:TrackPointExtension xmlns:gpxtpx="http://www.garmin.com/xmlschemas/TrackPointExtension/v1">
            <gpxtpx:hr>107</gpxtpx:hr>
          </gpxtpx:TrackPointExtension>
        </extensions>
      </trkpt>
      <trkpt lat="48.73874" lon="1.77275">
        <ele>161.6</ele>
        <time>2026-01-31T11:59:59Z</time>
        <extensions>
          <gpxtpx:TrackPointExtension xmlns:gpxtpx="http://www.garmin.com/xmlschemas/TrackPointExtension/v1">
            <gpxtpx:hr>107</gpxtpx:hr>
          </gpxtpx:TrackPointExtension>
        </extensions>
      </trkpt>
      <trkpt lat="48.73876" lon="1.77273">
        <ele>161.8</ele>
        <time>2026-01-31T12:00:00Z</time>
        <extensions>
          <gpxtpx:TrackPointExtension xmlns:gpxtpx="http://www.garmin.com/xmlschemas/TrackPointExtension/v1">
            <gpxtpx:hr>107</gpxtpx:hr>
          </gpxtpx:TrackPointExtension>
        </extensions>
      </trkpt>
      <trkpt lat="48.73878" lon="1.7727">
        <ele>162</ele>
        <time>2026-01-31T12:00:02Z</time>
        <extensions>
          <gpxtpx:TrackPointExtension xmlns:gpxtpx="http://www.garmin.com/xmlschemas/TrackPointExtension/v1">
            <gpxtpx:hr>107</gpxtpx:hr>
          </gpxtpx:TrackPointExtension>
        </extensions>
      </trkpt>
      <trkpt lat="48.73881" lon="1.77266">
        <ele>162.2</ele>
        <time>2026-01-31T12:00:04Z</time>
        <extensions>
          <gpxtpx:TrackPointExtension xmlns:gpxtpx="http://www.garmin.com/xmlschemas/TrackPointExtension/v1">
            <gpxtpx:hr>108</gpxtpx:hr>
          </gpxtpx:TrackPointExtension>
        </extensions>
      </trkpt>
      <trkpt lat="48.73882" lon="1.77265">
        <ele>162.4</ele>
        <time>2026-01-31T12:00:05Z</time>
        <extensions>
          <gpxtpx:TrackPointExtension xmlns:gpxtpx="http://www.garmin.com/xmlschemas/TrackPointExtension/v1">
            <gpxtpx:hr>108</gpxtpx:hr>
          </gpxtpx:TrackPointExtension>
        </extensions>
      </trkpt>
      <trkpt lat="48.73885" lon="1.77261">
        <ele>162.6</ele>
        <time>2026-01-31T12:00:07Z</time>
        <extensions>
          <gpxtpx:TrackPointExtension xmlns:gpxtpx="http://www.garmin.com/xmlschemas/TrackPointExtension/v1">
            <gpxtpx:hr>109</gpxtpx:hr>
          </gpxtpx:TrackPointExtension>
        </extensions>
      </trkpt>
      <trkpt lat="48.73887" lon="1.77258">
        <ele>162.8</ele>
        <time>2026-01-31T12:00:09Z</time>
        <extensions>
          <gpxtpx:TrackPointExtension xmlns:gpxtpx="http://www.garmin.com/xmlschemas/TrackPointExtension/v1">
            <gpxtpx:hr>110</gpxtpx:hr>
          </gpxtpx:TrackPointExtension>
        </extensions>
      </trkpt>
      <trkpt lat="48.73889" lon="1.77254">
        <ele>163.2</ele>
        <time>2026-01-31T12:00:11Z</time>
        <extensions>
          <gpxtpx:TrackPointExtension xmlns:gpxtpx="http://www.garmin.com/xmlschemas/TrackPointExtension/v1">
            <gpxtpx:hr>111</gpxtpx:hr>
          </gpxtpx:TrackPointExtension>
        </extensions>
      </trkpt>
      <trkpt lat="48.7389" lon="1.77251">
        <ele>163.4</ele>
        <time>2026-01-31T12:00:13Z</time>
        <extensions>
          <gpxtpx:TrackPointExtension xmlns:gpxtpx="http://www.garmin.com/xmlschemas/TrackPointExtension/v1">
            <gpxtpx:hr>111</gpxtpx:hr>
          </gpxtpx:TrackPointExtension>
        </extensions>
      </trkpt>
      <trkpt lat="48.7389" lon="1.77248">
        <ele>163.6</ele>
        <time>2026-01-31T12:00:15Z</time>
        <extensions>
          <gpxtpx:TrackPointExtension xmlns:gpxtpx="http://www.garmin.com/xmlschemas/TrackPointExtension/v1">
            <gpxtpx:hr>112</gpxtpx:hr>
          </gpxtpx:TrackPointExtension>
        </extensions>
      </trkpt>
      <trkpt lat="48.73891" lon="1.77245">
        <ele>163.8</ele>
        <time>2026-01-31T12:00:17Z</time>
        <extensions>
          <gpxtpx:TrackPointExtension xmlns:gpxtpx="http://www.garmin.com/xmlschemas/TrackPointExtension/v1">
            <gpxtpx:hr>113</gpxtpx:hr>
          </gpxtpx:TrackPointExtension>
        </extensions>
      </trkpt>
      <trkpt lat="48.73892" lon="1.77242">
        <ele>164</ele>
        <time>2026-01-31T12:00:19Z</time>
        <extensions>
          <gpxtpx:TrackPointExtension xmlns:gpxtpx="http://www.garmin.com/xmlschemas/TrackPointExtension/v1">
            <gpxtpx:hr>112</gpxtpx:hr>
          </gpxtpx:TrackPointExtension>
        </extensions>
      </trkpt>
      <trkpt lat="48.73894" lon="1.7724">
        <ele>164</ele>
        <time>2026-01-31T12:00:20Z</time>
        <extensions>
          <gpxtpx:TrackPointExtension xmlns:gpxtpx="http://www.garmin.com/xmlschemas/TrackPointExtension/v1">
            <gpxtpx:hr>112</gpxtpx:hr>
          </gpxtpx:TrackPointExtension>
        </extensions>
      </trkpt>
      <trkpt lat="48.73896" lon="1.77239">
        <ele>164.2</ele>
        <time>2026-01-31T12:00:21Z</time>
        <extensions>
          <gpxtpx:TrackPointExtension xmlns:gpxtpx="http://www.garmin.com/xmlschemas/TrackPointExtension/v1">
            <gpxtpx:hr>112</gpxtpx:hr>
          </gpxtpx:TrackPointExtension>
        </extensions>
      </trkpt>
      <trkpt lat="48.73899" lon="1.77237">
        <ele>164.4</ele>
        <time>2026-01-31T12:00:23Z</time>
        <extensions>
          <gpxtpx:TrackPointExtension xmlns:gpxtpx="http://www.garmin.com/xmlschemas/TrackPointExtension/v1">
            <gpxtpx:hr>112</gpxtpx:hr>
          </gpxtpx:TrackPointExtension>
        </extensions>
      </trkpt>
      <trkpt lat="48.73901" lon="1.77235">
        <ele>164.4</ele>
        <time>2026-01-31T12:00:25Z</time>
        <extensions>
          <gpxtpx:TrackPointExtension xmlns:gpxtpx="http://www.garmin.com/xmlschemas/TrackPointExtension/v1">
            <gpxtpx:hr>112</gpxtpx:hr>
          </gpxtpx:TrackPointExtension>
        </extensions>
      </trkpt>
      <trkpt lat="48.73904" lon="1.77233">
        <ele>164.4</ele>
        <time>2026-01-31T12:00:27Z</time>
        <extensions>
          <gpxtpx:TrackPointExtension xmlns:gpxtpx="http://www.garmin.com/xmlschemas/TrackPointExtension/v1">
            <gpxtpx:hr>112</gpxtpx:hr>
          </gpxtpx:TrackPointExtension>
        </extensions>
      </trkpt>
      <trkpt lat="48.73906" lon="1.7723">
        <ele>164.4</ele>
        <time>2026-01-31T12:00:29Z</time>
        <extensions>
          <gpxtpx:TrackPointExtension xmlns:gpxtpx="http://www.garmin.com/xmlschemas/TrackPointExtension/v1">
            <gpxtpx:hr>111</gpxtpx:hr>
          </gpxtpx:TrackPointExtension>
        </extensions>
      </trkpt>
      <trkpt lat="48.73908" lon="1.77228">
        <ele>164.4</ele>
        <time>2026-01-31T12:00:31Z</time>
        <extensions>
          <gpxtpx:TrackPointExtension xmlns:gpxtpx="http://www.garmin.com/xmlschemas/TrackPointExtension/v1">
            <gpxtpx:hr>111</gpxtpx:hr>
          </gpxtpx:TrackPointExtension>
        </extensions>
      </trkpt>
      <trkpt lat="48.7391" lon="1.77225">
        <ele>164.4</ele>
        <time>2026-01-31T12:00:33Z</time>
        <extensions>
          <gpxtpx:TrackPointExtension xmlns:gpxtpx="http://www.garmin.com/xmlschemas/TrackPointExtension/v1">
            <gpxtpx:hr>111</gpxtpx:hr>
          </gpxtpx:TrackPointExtension>
        </extensions>
      </trkpt>
      <trkpt lat="48.73912" lon="1.77224">
        <ele>164.2</ele>
        <time>2026-01-31T12:00:34Z</time>
        <extensions>
          <gpxtpx:TrackPointExtension xmlns:gpxtpx="http://www.garmin.com/xmlschemas/TrackPointExtension/v1">
            <gpxtpx:hr>111</gpxtpx:hr>
          </gpxtpx:TrackPointExtension>
        </extensions>
      </trkpt>
      <trkpt lat="48.73913" lon="1.77222">
        <ele>164.2</ele>
        <time>2026-01-31T12:00:35Z</time>
        <extensions>
          <gpxtpx:TrackPointExtension xmlns:gpxtpx="http://www.garmin.com/xmlschemas/TrackPointExtension/v1">
            <gpxtpx:hr>111</gpxtpx:hr>
          </gpxtpx:TrackPointExtension>
        </extensions>
      </trkpt>
      <trkpt lat="48.73916" lon="1.77219">
        <ele>164</ele>
        <time>2026-01-31T12:00:37Z</time>
        <extensions>
          <gpxtpx:TrackPointExtension xmlns:gpxtpx="http://www.garmin.com/xmlschemas/TrackPointExtension/v1">
            <gpxtpx:hr>111</gpxtpx:hr>
          </gpxtpx:TrackPointExtension>
        </extensions>
      </trkpt>
      <trkpt lat="48.73917" lon="1.77217">
        <ele>163.8</ele>
        <time>2026-01-31T12:00:39Z</time>
        <extensions>
          <gpxtpx:TrackPointExtension xmlns:gpxtpx="http://www.garmin.com/xmlschemas/TrackPointExtension/v1">
            <gpxtpx:hr>111</gpxtpx:hr>
          </gpxtpx:TrackPointExtension>
        </extensions>
      </trkpt>
      <trkpt lat="48.73918" lon="1.77215">
        <ele>163.6</ele>
        <time>2026-01-31T12:00:41Z</time>
        <extensions>
          <gpxtpx:TrackPointExtension xmlns:gpxtpx="http://www.garmin.com/xmlschemas/TrackPointExtension/v1">
            <gpxtpx:hr>111</gpxtpx:hr>
          </gpxtpx:TrackPointExtension>
        </extensions>
      </trkpt>
      <trkpt lat="48.73921" lon="1.77213">
        <ele>163.4</ele>
        <time>2026-01-31T12:00:43Z</time>
        <extensions>
          <gpxtpx:TrackPointExtension xmlns:gpxtpx="http://www.garmin.com/xmlschemas/TrackPointExtension/v1">
            <gpxtpx:hr>111</gpxtpx:hr>
          </gpxtpx:TrackPointExtension>
        </extensions>
      </trkpt>
      <trkpt lat="48.73924" lon="1.77211">
        <ele>163</ele>
        <time>2026-01-31T12:00:45Z</time>
        <extensions>
          <gpxtpx:TrackPointExtension xmlns:gpxtpx="http://www.garmin.com/xmlschemas/TrackPointExtension/v1">
            <gpxtpx:hr>111</gpxtpx:hr>
          </gpxtpx:TrackPointExtension>
        </extensions>
      </trkpt>
      <trkpt lat="48.73928" lon="1.7721">
        <ele>162.6</ele>
        <time>2026-01-31T12:00:47Z</time>
        <extensions>
          <gpxtpx:TrackPointExtension xmlns:gpxtpx="http://www.garmin.com/xmlschemas/TrackPointExtension/v1">
            <gpxtpx:hr>111</gpxtpx:hr>
          </gpxtpx:TrackPointExtension>
        </extensions>
      </trkpt>
      <trkpt lat="48.73931" lon="1.77208">
        <ele>162.4</ele>
        <time>2026-01-31T12:00:49Z</time>
        <extensions>
          <gpxtpx:TrackPointExtension xmlns:gpxtpx="http://www.garmin.com/xmlschemas/TrackPointExtension/v1">
            <gpxtpx:hr>111</gpxtpx:hr>
          </gpxtpx:TrackPointExtension>
        </extensions>
      </trkpt>
      <trkpt lat="48.73933" lon="1.77208">
        <ele>162.2</ele>
        <time>2026-01-31T12:00:50Z</time>
        <extensions>
          <gpxtpx:TrackPointExtension xmlns:gpxtpx="http://www.garmin.com/xmlschemas/TrackPointExtension/v1">
            <gpxtpx:hr>111</gpxtpx:hr>
          </gpxtpx:TrackPointExtension>
        </extensions>
      </trkpt>
      <trkpt lat="48.73935" lon="1.77207">
        <ele>162.2</ele>
        <time>2026-01-31T12:00:51Z</time>
        <extensions>
          <gpxtpx:TrackPointExtension xmlns:gpxtpx="http://www.garmin.com/xmlschemas/TrackPointExtension/v1">
            <gpxtpx:hr>111</gpxtpx:hr>
          </gpxtpx:TrackPointExtension>
        </extensions>
      </trkpt>
      <trkpt lat="48.73937" lon="1.77207">
        <ele>162</ele>
        <time>2026-01-31T12:00:52Z</time>
        <extensions>
          <gpxtpx:TrackPointExtension xmlns:gpxtpx="http://www.garmin.com/xmlschemas/TrackPointExtension/v1">
            <gpxtpx:hr>111</gpxtpx:hr>
          </gpxtpx:TrackPointExtension>
        </extensions>
      </trkpt>
      <trkpt lat="48.73941" lon="1.77207">
        <ele>161.8</ele>
        <time>2026-01-31T12:00:54Z</time>
        <extensions>
          <gpxtpx:TrackPointExtension xmlns:gpxtpx="http://www.garmin.com/xmlschemas/TrackPointExtension/v1">
            <gpxtpx:hr>111</gpxtpx:hr>
          </gpxtpx:TrackPointExtension>
        </extensions>
      </trkpt>
      <trkpt lat="48.73943" lon="1.77207">
        <ele>161.6</ele>
        <time>2026-01-31T12:00:56Z</time>
        <extensions>
          <gpxtpx:TrackPointExtension xmlns:gpxtpx="http://www.garmin.com/xmlschemas/TrackPointExtension/v1">
            <gpxtpx:hr>111</gpxtpx:hr>
          </gpxtpx:TrackPointExtension>
        </extensions>
      </trkpt>
      <trkpt lat="48.73945" lon="1.77205">
        <ele>161.2</ele>
        <time>2026-01-31T12:00:59Z</time>
        <extensions>
          <gpxtpx:TrackPointExtension xmlns:gpxtpx="http://www.garmin.com/xmlschemas/TrackPointExtension/v1">
            <gpxtpx:hr>111</gpxtpx:hr>
          </gpxtpx:TrackPointExtension>
        </extensions>
      </trkpt>
      <trkpt lat="48.73947" lon="1.77204">
        <ele>161</ele>
        <time>2026-01-31T12:01:02Z</time>
        <extensions>
          <gpxtpx:TrackPointExtension xmlns:gpxtpx="http://www.garmin.com/xmlschemas/TrackPointExtension/v1">
            <gpxtpx:hr>111</gpxtpx:hr>
          </gpxtpx:TrackPointExtension>
        </extensions>
      </trkpt>
      <trkpt lat="48.7395" lon="1.77203">
        <ele>160.8</ele>
        <time>2026-01-31T12:01:04Z</time>
        <extensions>
          <gpxtpx:TrackPointExtension xmlns:gpxtpx="http://www.garmin.com/xmlschemas/TrackPointExtension/v1">
            <gpxtpx:hr>111</gpxtpx:hr>
          </gpxtpx:TrackPointExtension>
        </extensions>
      </trkpt>
      <trkpt lat="48.73953" lon="1.77202">
        <ele>160.8</ele>
        <time>2026-01-31T12:01:06Z</time>
        <extensions>
          <gpxtpx:TrackPointExtension xmlns:gpxtpx="http://www.garmin.com/xmlschemas/TrackPointExtension/v1">
            <gpxtpx:hr>111</gpxtpx:hr>
          </gpxtpx:TrackPointExtension>
        </extensions>
      </trkpt>
      <trkpt lat="48.73957" lon="1.77202">
        <ele>161</ele>
        <time>2026-01-31T12:01:08Z</time>
        <extensions>
          <gpxtpx:TrackPointExtension xmlns:gpxtpx="http://www.garmin.com/xmlschemas/TrackPointExtension/v1">
            <gpxtpx:hr>111</gpxtpx:hr>
          </gpxtpx:TrackPointExtension>
        </extensions>
      </trkpt>
      <trkpt lat="48.7396" lon="1.77201">
        <ele>161.2</ele>
        <time>2026-01-31T12:01:10Z</time>
        <extensions>
          <gpxtpx:TrackPointExtension xmlns:gpxtpx="http://www.garmin.com/xmlschemas/TrackPointExtension/v1">
            <gpxtpx:hr>111</gpxtpx:hr>
          </gpxtpx:TrackPointExtension>
        </extensions>
      </trkpt>
      <trkpt lat="48.73963" lon="1.77201">
        <ele>161.2</ele>
        <time>2026-01-31T12:01:11Z</time>
        <extensions>
          <gpxtpx:TrackPointExtension xmlns:gpxtpx="http://www.garmin.com/xmlschemas/TrackPointExtension/v1">
            <gpxtpx:hr>111</gpxtpx:hr>
          </gpxtpx:TrackPointExtension>
        </extensions>
      </trkpt>
      <trkpt lat="48.73967" lon="1.77199">
        <ele>161.2</ele>
        <time>2026-01-31T12:01:13Z</time>
        <extensions>
          <gpxtpx:TrackPointExtension xmlns:gpxtpx="http://www.garmin.com/xmlschemas/TrackPointExtension/v1">
            <gpxtpx:hr>111</gpxtpx:hr>
          </gpxtpx:TrackPointExtension>
        </extensions>
      </trkpt>
      <trkpt lat="48.73969" lon="1.77197">
        <ele>161.2</ele>
        <time>2026-01-31T12:01:14Z</time>
        <extensions>
          <gpxtpx:TrackPointExtension xmlns:gpxtpx="http://www.garmin.com/xmlschemas/TrackPointExtension/v1">
            <gpxtpx:hr>111</gpxtpx:hr>
          </gpxtpx:TrackPointExtension>
        </extensions>
      </trkpt>
      <trkpt lat="48.73972" lon="1.77195">
        <ele>161.2</ele>
        <time>2026-01-31T12:01:15Z</time>
        <extensions>
          <gpxtpx:TrackPointExtension xmlns:gpxtpx="http://www.garmin.com/xmlschemas/TrackPointExtension/v1">
            <gpxtpx:hr>111</gpxtpx:hr>
          </gpxtpx:TrackPointExtension>
        </extensions>
      </trkpt>
      <trkpt lat="48.73974" lon="1.77193">
        <ele>161.2</ele>
        <time>2026-01-31T12:01:16Z</time>
        <extensions>
          <gpxtpx:TrackPointExtension xmlns:gpxtpx="http://www.garmin.com/xmlschemas/TrackPointExtension/v1">
            <gpxtpx:hr>111</gpxtpx:hr>
          </gpxtpx:TrackPointExtension>
        </extensions>
      </trkpt>
      <trkpt lat="48.73977" lon="1.77191">
        <ele>161.2</ele>
        <time>2026-01-31T12:01:17Z</time>
        <extensions>
          <gpxtpx:TrackPointExtension xmlns:gpxtpx="http://www.garmin.com/xmlschemas/TrackPointExtension/v1">
            <gpxtpx:hr>111</gpxtpx:hr>
          </gpxtpx:TrackPointExtension>
        </extensions>
      </trkpt>
      <trkpt lat="48.73979" lon="1.77189">
        <ele>161.2</ele>
        <time>2026-01-31T12:01:18Z</time>
        <extensions>
          <gpxtpx:TrackPointExtension xmlns:gpxtpx="http://www.garmin.com/xmlschemas/TrackPointExtension/v1">
            <gpxtpx:hr>111</gpxtpx:hr>
          </gpxtpx:TrackPointExtension>
        </extensions>
      </trkpt>
      <trkpt lat="48.73982" lon="1.77186">
        <ele>161.2</ele>
        <time>2026-01-31T12:01:19Z</time>
        <extensions>
          <gpxtpx:TrackPointExtension xmlns:gpxtpx="http://www.garmin.com/xmlschemas/TrackPointExtension/v1">
            <gpxtpx:hr>111</gpxtpx:hr>
          </gpxtpx:TrackPointExtension>
        </extensions>
      </trkpt>
      <trkpt lat="48.73984" lon="1.77184">
        <ele>161.2</ele>
        <time>2026-01-31T12:01:20Z</time>
        <extensions>
          <gpxtpx:TrackPointExtension xmlns:gpxtpx="http://www.garmin.com/xmlschemas/TrackPointExtension/v1">
            <gpxtpx:hr>112</gpxtpx:hr>
          </gpxtpx:TrackPointExtension>
        </extensions>
      </trkpt>
      <trkpt lat="48.73987" lon="1.77182">
        <ele>161.2</ele>
        <time>2026-01-31T12:01:21Z</time>
        <extensions>
          <gpxtpx:TrackPointExtension xmlns:gpxtpx="http://www.garmin.com/xmlschemas/TrackPointExtension/v1">
            <gpxtpx:hr>112</gpxtpx:hr>
          </gpxtpx:TrackPointExtension>
        </extensions>
      </trkpt>
      <trkpt lat="48.73988" lon="1.77179">
        <ele>161</ele>
        <time>2026-01-31T12:01:22Z</time>
        <extensions>
          <gpxtpx:TrackPointExtension xmlns:gpxtpx="http://www.garmin.com/xmlschemas/TrackPointExtension/v1">
            <gpxtpx:hr>112</gpxtpx:hr>
          </gpxtpx:TrackPointExtension>
        </extensions>
      </trkpt>
      <trkpt lat="48.7399" lon="1.77176">
        <ele>161</ele>
        <time>2026-01-31T12:01:23Z</time>
        <extensions>
          <gpxtpx:TrackPointExtension xmlns:gpxtpx="http://www.garmin.com/xmlschemas/TrackPointExtension/v1">
            <gpxtpx:hr>112</gpxtpx:hr>
          </gpxtpx:TrackPointExtension>
        </extensions>
      </trkpt>
      <trkpt lat="48.73992" lon="1.77173">
        <ele>161</ele>
        <time>2026-01-31T12:01:24Z</time>
        <extensions>
          <gpxtpx:TrackPointExtension xmlns:gpxtpx="http://www.garmin.com/xmlschemas/TrackPointExtension/v1">
            <gpxtpx:hr>112</gpxtpx:hr>
          </gpxtpx:TrackPointExtension>
        </extensions>
      </trkpt>
      <trkpt lat="48.73994" lon="1.7717">
        <ele>160.8</ele>
        <time>2026-01-31T12:01:25Z</time>
        <extensions>
          <gpxtpx:TrackPointExtension xmlns:gpxtpx="http://www.garmin.com/xmlschemas/TrackPointExtension/v1">
            <gpxtpx:hr>113</gpxtpx:hr>
          </gpxtpx:TrackPointExtension>
        </extensions>
      </trkpt>
      <trkpt lat="48.73996" lon="1.77167">
        <ele>160.8</ele>
        <time>2026-01-31T12:01:26Z</time>
        <extensions>
          <gpxtpx:TrackPointExtension xmlns:gpxtpx="http://www.garmin.com/xmlschemas/TrackPointExtension/v1">
            <gpxtpx:hr>113</gpxtpx:hr>
          </gpxtpx:TrackPointExtension>
        </extensions>
      </trkpt>
      <trkpt lat="48.73997" lon="1.77164">
        <ele>160.6</ele>
        <time>2026-01-31T12:01:27Z</time>
        <extensions>
          <gpxtpx:TrackPointExtension xmlns:gpxtpx="http://www.garmin.com/xmlschemas/TrackPointExtension/v1">
            <gpxtpx:hr>113</gpxtpx:hr>
          </gpxtpx:TrackPointExtension>
        </extensions>
      </trkpt>
      <trkpt lat="48.73999" lon="1.77161">
        <ele>160.6</ele>
        <time>2026-01-31T12:01:28Z</time>
        <extensions>
          <gpxtpx:TrackPointExtension xmlns:gpxtpx="http://www.garmin.com/xmlschemas/TrackPointExtension/v1">
            <gpxtpx:hr>113</gpxtpx:hr>
          </gpxtpx:TrackPointExtension>
        </extensions>
      </trkpt>
      <trkpt lat="48.74001" lon="1.77157">
        <ele>160.4</ele>
        <time>2026-01-31T12:01:29Z</time>
        <extensions>
          <gpxtpx:TrackPointExtension xmlns:gpxtpx="http://www.garmin.com/xmlschemas/TrackPointExtension/v1">
            <gpxtpx:hr>114</gpxtpx:hr>
          </gpxtpx:TrackPointExtension>
        </extensions>
      </trkpt>
      <trkpt lat="48.74003" lon="1.77154">
        <ele>160.4</ele>
        <time>2026-01-31T12:01:30Z</time>
        <extensions>
          <gpxtpx:TrackPointExtension xmlns:gpxtpx="http://www.garmin.com/xmlschemas/TrackPointExtension/v1">
            <gpxtpx:hr>114</gpxtpx:hr>
          </gpxtpx:TrackPointExtension>
        </extensions>
      </trkpt>
      <trkpt lat="48.74005" lon="1.7715">
        <ele>160.2</ele>
        <time>2026-01-31T12:01:31Z</time>
        <extensions>
          <gpxtpx:TrackPointExtension xmlns:gpxtpx="http://www.garmin.com/xmlschemas/TrackPointExtension/v1">
            <gpxtpx:hr>114</gpxtpx:hr>
          </gpxtpx:TrackPointExtension>
        </extensions>
      </trkpt>
      <trkpt lat="48.74007" lon="1.77146">
        <ele>160.2</ele>
        <time>2026-01-31T12:01:32Z</time>
        <extensions>
          <gpxtpx:TrackPointExtension xmlns:gpxtpx="http://www.garmin.com/xmlschemas/TrackPointExtension/v1">
            <gpxtpx:hr>114</gpxtpx:hr>
          </gpxtpx:TrackPointExtension>
        </extensions>
      </trkpt>
      <trkpt lat="48.74009" lon="1.77142">
        <ele>160</ele>
        <time>2026-01-31T12:01:33Z</time>
        <extensions>
          <gpxtpx:TrackPointExtension xmlns:gpxtpx="http://www.garmin.com/xmlschemas/TrackPointExtension/v1">
            <gpxtpx:hr>114</gpxtpx:hr>
          </gpxtpx:TrackPointExtension>
        </extensions>
      </trkpt>
      <trkpt lat="48.74011" lon="1.77138">
        <ele>160</ele>
        <time>2026-01-31T12:01:34Z</time>
        <extensions>
          <gpxtpx:TrackPointExtension xmlns:gpxtpx="http://www.garmin.com/xmlschemas/TrackPointExtension/v1">
            <gpxtpx:hr>114</gpxtpx:hr>
          </gpxtpx:TrackPointExtension>
        </extensions>
      </trkpt>
      <trkpt lat="48.74013" lon="1.77134">
        <ele>159.8</ele>
        <time>2026-01-31T12:01:35Z</time>
        <extensions>
          <gpxtpx:TrackPointExtension xmlns:gpxtpx="http://www.garmin.com/xmlschemas/TrackPointExtension/v1">
            <gpxtpx:hr>115</gpxtpx:hr>
          </gpxtpx:TrackPointExtension>
        </extensions>
      </trkpt>
      <trkpt lat="48.74015" lon="1.77131">
        <ele>159.8</ele>
        <time>2026-01-31T12:01:36Z</time>
        <extensions>
          <gpxtpx:TrackPointExtension xmlns:gpxtpx="http://www.garmin.com/xmlschemas/TrackPointExtension/v1">
            <gpxtpx:hr>115</gpxtpx:hr>
          </gpxtpx:TrackPointExtension>
        </extensions>
      </trkpt>
      <trkpt lat="48.74017" lon="1.77127">
        <ele>159.8</ele>
        <time>2026-01-31T12:01:37Z</time>
        <extensions>
          <gpxtpx:TrackPointExtension xmlns:gpxtpx="http://www.garmin.com/xmlschemas/TrackPointExtension/v1">
            <gpxtpx:hr>115</gpxtpx:hr>
          </gpxtpx:TrackPointExtension>
        </extensions>
      </trkpt>
      <trkpt lat="48.74019" lon="1.77124">
        <ele>159.6</ele>
        <time>2026-01-31T12:01:38Z</time>
        <extensions>
          <gpxtpx:TrackPointExtension xmlns:gpxtpx="http://www.garmin.com/xmlschemas/TrackPointExtension/v1">
            <gpxtpx:hr>115</gpxtpx:hr>
          </gpxtpx:TrackPointExtension>
        </extensions>
      </trkpt>
      <trkpt lat="48.74021" lon="1.77121">
        <ele>159.6</ele>
        <time>2026-01-31T12:01:39Z</time>
        <extensions>
          <gpxtpx:TrackPointExtension xmlns:gpxtpx="http://www.garmin.com/xmlschemas/TrackPointExtension/v1">
            <gpxtpx:hr>115</gpxtpx:hr>
          </gpxtpx:TrackPointExtension>
        </extensions>
      </trkpt>
      <trkpt lat="48.74023" lon="1.77118">
        <ele>159.6</ele>
        <time>2026-01-31T12:01:40Z</time>
        <extensions>
          <gpxtpx:TrackPointExtension xmlns:gpxtpx="http://www.garmin.com/xmlschemas/TrackPointExtension/v1">
            <gpxtpx:hr>115</gpxtpx:hr>
          </gpxtpx:TrackPointExtension>
        </extensions>
      </trkpt>
      <trkpt lat="48.74025" lon="1.77115">
        <ele>159.6</ele>
        <time>2026-01-31T12:01:41Z</time>
        <extensions>
          <gpxtpx:TrackPointExtension xmlns:gpxtpx="http://www.garmin.com/xmlschemas/TrackPointExtension/v1">
            <gpxtpx:hr>116</gpxtpx:hr>
          </gpxtpx:TrackPointExtension>
        </extensions>
      </trkpt>
      <trkpt lat="48.74027" lon="1.77111">
        <ele>159.6</ele>
        <time>2026-01-31T12:01:42Z</time>
        <extensions>
          <gpxtpx:TrackPointExtension xmlns:gpxtpx="http://www.garmin.com/xmlschemas/TrackPointExtension/v1">
            <gpxtpx:hr>116</gpxtpx:hr>
          </gpxtpx:TrackPointExtension>
        </extensions>
      </trkpt>
      <trkpt lat="48.74029" lon="1.77108">
        <ele>159.6</ele>
        <time>2026-01-31T12:01:43Z</time>
        <extensions>
          <gpxtpx:TrackPointExtension xmlns:gpxtpx="http://www.garmin.com/xmlschemas/TrackPointExtension/v1">
            <gpxtpx:hr>116</gpxtpx:hr>
          </gpxtpx:TrackPointExtension>
        </extensions>
      </trkpt>
      <trkpt lat="48.74031" lon="1.77105">
        <ele>159.6</ele>
        <time>2026-01-31T12:01:44Z</time>
        <extensions>
          <gpxtpx:TrackPointExtension xmlns:gpxtpx="http://www.garmin.com/xmlschemas/TrackPointExtension/v1">
            <gpxtpx:hr>117</gpxtpx:hr>
          </gpxtpx:TrackPointExtension>
        </extensions>
      </trkpt>
      <trkpt lat="48.74034" lon="1.77101">
        <ele>159.6</ele>
        <time>2026-01-31T12:01:45Z</time>
        <extensions>
          <gpxtpx:TrackPointExtension xmlns:gpxtpx="http://www.garmin.com/xmlschemas/TrackPointExtension/v1">
            <gpxtpx:hr>117</gpxtpx:hr>
          </gpxtpx:TrackPointExtension>
        </extensions>
      </trkpt>
      <trkpt lat="48.74036" lon="1.77098">
        <ele>159.6</ele>
        <time>2026-01-31T12:01:46Z</time>
        <extensions>
          <gpxtpx:TrackPointExtension xmlns:gpxtpx="http://www.garmin.com/xmlschemas/TrackPointExtension/v1">
            <gpxtpx:hr>117</gpxtpx:hr>
          </gpxtpx:TrackPointExtension>
        </extensions>
      </trkpt>
      <trkpt lat="48.74039" lon="1.77094">
        <ele>159.4</ele>
        <time>2026-01-31T12:01:47Z</time>
        <extensions>
          <gpxtpx:TrackPointExtension xmlns:gpxtpx="http://www.garmin.com/xmlschemas/TrackPointExtension/v1">
            <gpxtpx:hr>117</gpxtpx:hr>
          </gpxtpx:TrackPointExtension>
        </extensions>
      </trkpt>
      <trkpt lat="48.74041" lon="1.77091">
        <ele>159.4</ele>
        <time>2026-01-31T12:01:48Z</time>
        <extensions>
          <gpxtpx:TrackPointExtension xmlns:gpxtpx="http://www.garmin.com/xmlschemas/TrackPointExtension/v1">
            <gpxtpx:hr>117</gpxtpx:hr>
          </gpxtpx:TrackPointExtension>
        </extensions>
      </trkpt>
      <trkpt lat="48.74043" lon="1.77088">
        <ele>159.4</ele>
        <time>2026-01-31T12:01:49Z</time>
        <extensions>
          <gpxtpx:TrackPointExtension xmlns:gpxtpx="http://www.garmin.com/xmlschemas/TrackPointExtension/v1">
            <gpxtpx:hr>118</gpxtpx:hr>
          </gpxtpx:TrackPointExtension>
        </extensions>
      </trkpt>
      <trkpt lat="48.74045" lon="1.77085">
        <ele>159.4</ele>
        <time>2026-01-31T12:01:50Z</time>
        <extensions>
          <gpxtpx:TrackPointExtension xmlns:gpxtpx="http://www.garmin.com/xmlschemas/TrackPointExtension/v1">
            <gpxtpx:hr>118</gpxtpx:hr>
          </gpxtpx:TrackPointExtension>
        </extensions>
      </trkpt>
      <trkpt lat="48.74048" lon="1.77082">
        <ele>159.4</ele>
        <time>2026-01-31T12:01:51Z</time>
        <extensions>
          <gpxtpx:TrackPointExtension xmlns:gpxtpx="http://www.garmin.com/xmlschemas/TrackPointExtension/v1">
            <gpxtpx:hr>118</gpxtpx:hr>
          </gpxtpx:TrackPointExtension>
        </extensions>
      </trkpt>
      <trkpt lat="48.7405" lon="1.77079">
        <ele>159.4</ele>
        <time>2026-01-31T12:01:52Z</time>
        <extensions>
          <gpxtpx:TrackPointExtension xmlns:gpxtpx="http://www.garmin.com/xmlschemas/TrackPointExtension/v1">
            <gpxtpx:hr>118</gpxtpx:hr>
          </gpxtpx:TrackPointExtension>
        </extensions>
      </trkpt>
      <trkpt lat="48.74052" lon="1.77076">
        <ele>159.4</ele>
        <time>2026-01-31T12:01:53Z</time>
        <extensions>
          <gpxtpx:TrackPointExtension xmlns:gpxtpx="http://www.garmin.com/xmlschemas/TrackPointExtension/v1">
            <gpxtpx:hr>118</gpxtpx:hr>
          </gpxtpx:TrackPointExtension>
        </extensions>
      </trkpt>
      <trkpt lat="48.74054" lon="1.77072">
        <ele>159.2</ele>
        <time>2026-01-31T12:01:54Z</time>
        <extensions>
          <gpxtpx:TrackPointExtension xmlns:gpxtpx="http://www.garmin.com/xmlschemas/TrackPointExtension/v1">
            <gpxtpx:hr>119</gpxtpx:hr>
          </gpxtpx:TrackPointExtension>
        </extensions>
      </trkpt>
      <trkpt lat="48.74057" lon="1.77069">
        <ele>159.2</ele>
        <time>2026-01-31T12:01:55Z</time>
        <extensions>
          <gpxtpx:TrackPointExtension xmlns:gpxtpx="http://www.garmin.com/xmlschemas/TrackPointExtension/v1">
            <gpxtpx:hr>119</gpxtpx:hr>
          </gpxtpx:TrackPointExtension>
        </extensions>
      </trkpt>
      <trkpt lat="48.74059" lon="1.77066">
        <ele>159.2</ele>
        <time>2026-01-31T12:01:56Z</time>
        <extensions>
          <gpxtpx:TrackPointExtension xmlns:gpxtpx="http://www.garmin.com/xmlschemas/TrackPointExtension/v1">
            <gpxtpx:hr>119</gpxtpx:hr>
          </gpxtpx:TrackPointExtension>
        </extensions>
      </trkpt>
      <trkpt lat="48.74061" lon="1.77063">
        <ele>159.2</ele>
        <time>2026-01-31T12:01:57Z</time>
        <extensions>
          <gpxtpx:TrackPointExtension xmlns:gpxtpx="http://www.garmin.com/xmlschemas/TrackPointExtension/v1">
            <gpxtpx:hr>119</gpxtpx:hr>
          </gpxtpx:TrackPointExtension>
        </extensions>
      </trkpt>
      <trkpt lat="48.74063" lon="1.77059">
        <ele>159</ele>
        <time>2026-01-31T12:01:58Z</time>
        <extensions>
          <gpxtpx:TrackPointExtension xmlns:gpxtpx="http://www.garmin.com/xmlschemas/TrackPointExtension/v1">
            <gpxtpx:hr>119</gpxtpx:hr>
          </gpxtpx:TrackPointExtension>
        </extensions>
      </trkpt>
      <trkpt lat="48.74066" lon="1.77056">
        <ele>159</ele>
        <time>2026-01-31T12:01:59Z</time>
        <extensions>
          <gpxtpx:TrackPointExtension xmlns:gpxtpx="http://www.garmin.com/xmlschemas/TrackPointExtension/v1">
            <gpxtpx:hr>119</gpxtpx:hr>
          </gpxtpx:TrackPointExtension>
        </extensions>
      </trkpt>
      <trkpt lat="48.74068" lon="1.77052">
        <ele>159</ele>
        <time>2026-01-31T12:02:00Z</time>
        <extensions>
          <gpxtpx:TrackPointExtension xmlns:gpxtpx="http://www.garmin.com/xmlschemas/TrackPointExtension/v1">
            <gpxtpx:hr>119</gpxtpx:hr>
          </gpxtpx:TrackPointExtension>
        </extensions>
      </trkpt>
      <trkpt lat="48.7407" lon="1.77048">
        <ele>158.8</ele>
        <time>2026-01-31T12:02:01Z</time>
        <extensions>
          <gpxtpx:TrackPointExtension xmlns:gpxtpx="http://www.garmin.com/xmlschemas/TrackPointExtension/v1">
            <gpxtpx:hr>119</gpxtpx:hr>
          </gpxtpx:TrackPointExtension>
        </extensions>
      </trkpt>
      <trkpt lat="48.74072" lon="1.77044">
        <ele>158.8</ele>
        <time>2026-01-31T12:02:02Z</time>
        <extensions>
          <gpxtpx:TrackPointExtension xmlns:gpxtpx="http://www.garmin.com/xmlschemas/TrackPointExtension/v1">
            <gpxtpx:hr>119</gpxtpx:hr>
          </gpxtpx:TrackPointExtension>
        </extensions>
      </trkpt>
      <trkpt lat="48.74075" lon="1.7704">
        <ele>158.8</ele>
        <time>2026-01-31T12:02:03Z</time>
        <extensions>
          <gpxtpx:TrackPointExtension xmlns:gpxtpx="http://www.garmin.com/xmlschemas/TrackPointExtension/v1">
            <gpxtpx:hr>120</gpxtpx:hr>
          </gpxtpx:TrackPointExtension>
        </extensions>
      </trkpt>
      <trkpt lat="48.74076" lon="1.77036">
        <ele>158.8</ele>
        <time>2026-01-31T12:02:04Z</time>
        <extensions>
          <gpxtpx:TrackPointExtension xmlns:gpxtpx="http://www.garmin.com/xmlschemas/TrackPointExtension/v1">
            <gpxtpx:hr>120</gpxtpx:hr>
          </gpxtpx:TrackPointExtension>
        </extensions>
      </trkpt>
      <trkpt lat="48.74078" lon="1.77032">
        <ele>158.8</ele>
        <time>2026-01-31T12:02:05Z</time>
        <extensions>
          <gpxtpx:TrackPointExtension xmlns:gpxtpx="http://www.garmin.com/xmlschemas/TrackPointExtension/v1">
            <gpxtpx:hr>120</gpxtpx:hr>
          </gpxtpx:TrackPointExtension>
        </extensions>
      </trkpt>
      <trkpt lat="48.7408" lon="1.77028">
        <ele>158.6</ele>
        <time>2026-01-31T12:02:06Z</time>
        <extensions>
          <gpxtpx:TrackPointExtension xmlns:gpxtpx="http://www.garmin.com/xmlschemas/TrackPointExtension/v1">
            <gpxtpx:hr>120</gpxtpx:hr>
          </gpxtpx:TrackPointExtension>
        </extensions>
      </trkpt>
      <trkpt lat="48.74082" lon="1.77024">
        <ele>158.6</ele>
        <time>2026-01-31T12:02:07Z</time>
        <extensions>
          <gpxtpx:TrackPointExtension xmlns:gpxtpx="http://www.garmin.com/xmlschemas/TrackPointExtension/v1">
            <gpxtpx:hr>120</gpxtpx:hr>
          </gpxtpx:TrackPointExtension>
        </extensions>
      </trkpt>
      <trkpt lat="48.74083" lon="1.7702">
        <ele>158.6</ele>
        <time>2026-01-31T12:02:08Z</time>
        <extensions>
          <gpxtpx:TrackPointExtension xmlns:gpxtpx="http://www.garmin.com/xmlschemas/TrackPointExtension/v1">
            <gpxtpx:hr>120</gpxtpx:hr>
          </gpxtpx:TrackPointExtension>
        </extensions>
      </trkpt>
      <trkpt lat="48.74085" lon="1.77016">
        <ele>158.6</ele>
        <time>2026-01-31T12:02:09Z</time>
        <extensions>
          <gpxtpx:TrackPointExtension xmlns:gpxtpx="http://www.garmin.com/xmlschemas/TrackPointExtension/v1">
            <gpxtpx:hr>120</gpxtpx:hr>
          </gpxtpx:TrackPointExtension>
        </extensions>
      </trkpt>
      <trkpt lat="48.74087" lon="1.77012">
        <ele>158.6</ele>
        <time>2026-01-31T12:02:10Z</time>
        <extensions>
          <gpxtpx:TrackPointExtension xmlns:gpxtpx="http://www.garmin.com/xmlschemas/TrackPointExtension/v1">
            <gpxtpx:hr>121</gpxtpx:hr>
          </gpxtpx:TrackPointExtension>
        </extensions>
      </trkpt>
      <trkpt lat="48.74089" lon="1.77008">
        <ele>158.6</ele>
        <time>2026-01-31T12:02:11Z</time>
        <extensions>
          <gpxtpx:TrackPointExtension xmlns:gpxtpx="http://www.garmin.com/xmlschemas/TrackPointExtension/v1">
            <gpxtpx:hr>121</gpxtpx:hr>
          </gpxtpx:TrackPointExtension>
        </extensions>
      </trkpt>
      <trkpt lat="48.74091" lon="1.77004">
        <ele>158.6</ele>
        <time>2026-01-31T12:02:12Z</time>
        <extensions>
          <gpxtpx:TrackPointExtension xmlns:gpxtpx="http://www.garmin.com/xmlschemas/TrackPointExtension/v1">
            <gpxtpx:hr>121</gpxtpx:hr>
          </gpxtpx:TrackPointExtension>
        </extensions>
      </trkpt>
      <trkpt lat="48.74093" lon="1.77">
        <ele>158.6</ele>
        <time>2026-01-31T12:02:13Z</time>
        <extensions>
          <gpxtpx:TrackPointExtension xmlns:gpxtpx="http://www.garmin.com/xmlschemas/TrackPointExtension/v1">
            <gpxtpx:hr>121</gpxtpx:hr>
          </gpxtpx:TrackPointExtension>
        </extensions>
      </trkpt>
      <trkpt lat="48.74095" lon="1.76997">
        <ele>158.6</ele>
        <time>2026-01-31T12:02:14Z</time>
        <extensions>
          <gpxtpx:TrackPointExtension xmlns:gpxtpx="http://www.garmin.com/xmlschemas/TrackPointExtension/v1">
            <gpxtpx:hr>121</gpxtpx:hr>
          </gpxtpx:TrackPointExtension>
        </extensions>
      </trkpt>
      <trkpt lat="48.74097" lon="1.76993">
        <ele>158.6</ele>
        <time>2026-01-31T12:02:15Z</time>
        <extensions>
          <gpxtpx:TrackPointExtension xmlns:gpxtpx="http://www.garmin.com/xmlschemas/TrackPointExtension/v1">
            <gpxtpx:hr>121</gpxtpx:hr>
          </gpxtpx:TrackPointExtension>
        </extensions>
      </trkpt>
      <trkpt lat="48.74098" lon="1.76989">
        <ele>158.4</ele>
        <time>2026-01-31T12:02:16Z</time>
        <extensions>
          <gpxtpx:TrackPointExtension xmlns:gpxtpx="http://www.garmin.com/xmlschemas/TrackPointExtension/v1">
            <gpxtpx:hr>121</gpxtpx:hr>
          </gpxtpx:TrackPointExtension>
        </extensions>
      </trkpt>
      <trkpt lat="48.741" lon="1.76986">
        <ele>158.4</ele>
        <time>2026-01-31T12:02:17Z</time>
        <extensions>
          <gpxtpx:TrackPointExtension xmlns:gpxtpx="http://www.garmin.com/xmlschemas/TrackPointExtension/v1">
            <gpxtpx:hr>121</gpxtpx:hr>
          </gpxtpx:TrackPointExtension>
        </extensions>
      </trkpt>
      <trkpt lat="48.74102" lon="1.76982">
        <ele>158.4</ele>
        <time>2026-01-31T12:02:18Z</time>
        <extensions>
          <gpxtpx:TrackPointExtension xmlns:gpxtpx="http://www.garmin.com/xmlschemas/TrackPointExtension/v1">
            <gpxtpx:hr>121</gpxtpx:hr>
          </gpxtpx:TrackPointExtension>
        </extensions>
      </trkpt>
      <trkpt lat="48.74104" lon="1.76978">
        <ele>158.4</ele>
        <time>2026-01-31T12:02:19Z</time>
        <extensions>
          <gpxtpx:TrackPointExtension xmlns:gpxtpx="http://www.garmin.com/xmlschemas/TrackPointExtension/v1">
            <gpxtpx:hr>121</gpxtpx:hr>
          </gpxtpx:TrackPointExtension>
        </extensions>
      </trkpt>
      <trkpt lat="48.74107" lon="1.76974">
        <ele>158.4</ele>
        <time>2026-01-31T12:02:20Z</time>
        <extensions>
          <gpxtpx:TrackPointExtension xmlns:gpxtpx="http://www.garmin.com/xmlschemas/TrackPointExtension/v1">
            <gpxtpx:hr>121</gpxtpx:hr>
          </gpxtpx:TrackPointExtension>
        </extensions>
      </trkpt>
      <trkpt lat="48.74109" lon="1.7697">
        <ele>158.4</ele>
        <time>2026-01-31T12:02:21Z</time>
        <extensions>
          <gpxtpx:TrackPointExtension xmlns:gpxtpx="http://www.garmin.com/xmlschemas/TrackPointExtension/v1">
            <gpxtpx:hr>121</gpxtpx:hr>
          </gpxtpx:TrackPointExtension>
        </extensions>
      </trkpt>
      <trkpt lat="48.74112" lon="1.76967">
        <ele>158.4</ele>
        <time>2026-01-31T12:02:22Z</time>
        <extensions>
          <gpxtpx:TrackPointExtension xmlns:gpxtpx="http://www.garmin.com/xmlschemas/TrackPointExtension/v1">
            <gpxtpx:hr>122</gpxtpx:hr>
          </gpxtpx:TrackPointExtension>
        </extensions>
      </trkpt>
      <trkpt lat="48.74115" lon="1.76963">
        <ele>158.4</ele>
        <time>2026-01-31T12:02:23Z</time>
        <extensions>
          <gpxtpx:TrackPointExtension xmlns:gpxtpx="http://www.garmin.com/xmlschemas/TrackPointExtension/v1">
            <gpxtpx:hr>122</gpxtpx:hr>
          </gpxtpx:TrackPointExtension>
        </extensions>
      </trkpt>
      <trkpt lat="48.74117" lon="1.76959">
        <ele>158.2</ele>
        <time>2026-01-31T12:02:24Z</time>
        <extensions>
          <gpxtpx:TrackPointExtension xmlns:gpxtpx="http://www.garmin.com/xmlschemas/TrackPointExtension/v1">
            <gpxtpx:hr>122</gpxtpx:hr>
          </gpxtpx:TrackPointExtension>
        </extensions>
      </trkpt>
      <trkpt lat="48.7412" lon="1.76955">
        <ele>158.2</ele>
        <time>2026-01-31T12:02:25Z</time>
        <extensions>
          <gpxtpx:TrackPointExtension xmlns:gpxtpx="http://www.garmin.com/xmlschemas/TrackPointExtension/v1">
            <gpxtpx:hr>122</gpxtpx:hr>
          </gpxtpx:TrackPointExtension>
        </extensions>
      </trkpt>
      <trkpt lat="48.74122" lon="1.76952">
        <ele>158.2</ele>
        <time>2026-01-31T12:02:26Z</time>
        <extensions>
          <gpxtpx:TrackPointExtension xmlns:gpxtpx="http://www.garmin.com/xmlschemas/TrackPointExtension/v1">
            <gpxtpx:hr>122</gpxtpx:hr>
          </gpxtpx:TrackPointExtension>
        </extensions>
      </trkpt>
      <trkpt lat="48.74124" lon="1.76948">
        <ele>158.2</ele>
        <time>2026-01-31T12:02:27Z</time>
        <extensions>
          <gpxtpx:TrackPointExtension xmlns:gpxtpx="http://www.garmin.com/xmlschemas/TrackPointExtension/v1">
            <gpxtpx:hr>122</gpxtpx:hr>
          </gpxtpx:TrackPointExtension>
        </extensions>
      </trkpt>
      <trkpt lat="48.74126" lon="1.76944">
        <ele>158.2</ele>
        <time>2026-01-31T12:02:28Z</time>
        <extensions>
          <gpxtpx:TrackPointExtension xmlns:gpxtpx="http://www.garmin.com/xmlschemas/TrackPointExtension/v1">
            <gpxtpx:hr>122</gpxtpx:hr>
          </gpxtpx:TrackPointExtension>
        </extensions>
      </trkpt>
      <trkpt lat="48.74128" lon="1.7694">
        <ele>158</ele>
        <time>2026-01-31T12:02:29Z</time>
        <extensions>
          <gpxtpx:TrackPointExtension xmlns:gpxtpx="http://www.garmin.com/xmlschemas/TrackPointExtension/v1">
            <gpxtpx:hr>122</gpxtpx:hr>
          </gpxtpx:TrackPointExtension>
        </extensions>
      </trkpt>
      <trkpt lat="48.7413" lon="1.76936">
        <ele>158</ele>
        <time>2026-01-31T12:02:30Z</time>
        <extensions>
          <gpxtpx:TrackPointExtension xmlns:gpxtpx="http://www.garmin.com/xmlschemas/TrackPointExtension/v1">
            <gpxtpx:hr>122</gpxtpx:hr>
          </gpxtpx:TrackPointExtension>
        </extensions>
      </trkpt>
      <trkpt lat="48.74132" lon="1.76932">
        <ele>158</ele>
        <time>2026-01-31T12:02:31Z</time>
        <extensions>
          <gpxtpx:TrackPointExtension xmlns:gpxtpx="http://www.garmin.com/xmlschemas/TrackPointExtension/v1">
            <gpxtpx:hr>122</gpxtpx:hr>
          </gpxtpx:TrackPointExtension>
        </extensions>
      </trkpt>
      <trkpt lat="48.74134" lon="1.76928">
        <ele>158</ele>
        <time>2026-01-31T12:02:32Z</time>
        <extensions>
          <gpxtpx:TrackPointExtension xmlns:gpxtpx="http://www.garmin.com/xmlschemas/TrackPointExtension/v1">
            <gpxtpx:hr>123</gpxtpx:hr>
          </gpxtpx:TrackPointExtension>
        </extensions>
      </trkpt>
      <trkpt lat="48.74136" lon="1.76924">
        <ele>157.8</ele>
        <time>2026-01-31T12:02:33Z</time>
        <extensions>
          <gpxtpx:TrackPointExtension xmlns:gpxtpx="http://www.garmin.com/xmlschemas/TrackPointExtension/v1">
            <gpxtpx:hr>123</gpxtpx:hr>
          </gpxtpx:TrackPointExtension>
        </extensions>
      </trkpt>
      <trkpt lat="48.74138" lon="1.7692">
        <ele>157.8</ele>
        <time>2026-01-31T12:02:34Z</time>
        <extensions>
          <gpxtpx:TrackPointExtension xmlns:gpxtpx="http://www.garmin.com/xmlschemas/TrackPointExtension/v1">
            <gpxtpx:hr>123</gpxtpx:hr>
          </gpxtpx:TrackPointExtension>
        </extensions>
      </trkpt>
      <trkpt lat="48.7414" lon="1.76915">
        <ele>157.8</ele>
        <time>2026-01-31T12:02:35Z</time>
        <extensions>
          <gpxtpx:TrackPointExtension xmlns:gpxtpx="http://www.garmin.com/xmlschemas/TrackPointExtension/v1">
            <gpxtpx:hr>123</gpxtpx:hr>
          </gpxtpx:TrackPointExtension>
        </extensions>
      </trkpt>
      <trkpt lat="48.74141" lon="1.76911">
        <ele>157.6</ele>
        <time>2026-01-31T12:02:36Z</time>
        <extensions>
          <gpxtpx:TrackPointExtension xmlns:gpxtpx="http://www.garmin.com/xmlschemas/TrackPointExtension/v1">
            <gpxtpx:hr>123</gpxtpx:hr>
          </gpxtpx:TrackPointExtension>
        </extensions>
      </trkpt>
      <trkpt lat="48.74143" lon="1.76908">
        <ele>157.6</ele>
        <time>2026-01-31T12:02:37Z</time>
        <extensions>
          <gpxtpx:TrackPointExtension xmlns:gpxtpx="http://www.garmin.com/xmlschemas/TrackPointExtension/v1">
            <gpxtpx:hr>123</gpxtpx:hr>
          </gpxtpx:TrackPointExtension>
        </extensions>
      </trkpt>
      <trkpt lat="48.74145" lon="1.76904">
        <ele>157.6</ele>
        <time>2026-01-31T12:02:38Z</time>
        <extensions>
          <gpxtpx:TrackPointExtension xmlns:gpxtpx="http://www.garmin.com/xmlschemas/TrackPointExtension/v1">
            <gpxtpx:hr>123</gpxtpx:hr>
          </gpxtpx:TrackPointExtension>
        </extensions>
      </trkpt>
      <trkpt lat="48.74146" lon="1.76899">
        <ele>157.4</ele>
        <time>2026-01-31T12:02:39Z</time>
        <extensions>
          <gpxtpx:TrackPointExtension xmlns:gpxtpx="http://www.garmin.com/xmlschemas/TrackPointExtension/v1">
            <gpxtpx:hr>123</gpxtpx:hr>
          </gpxtpx:TrackPointExtension>
        </extensions>
      </trkpt>
      <trkpt lat="48.74148" lon="1.76895">
        <ele>157.2</ele>
        <time>2026-01-31T12:02:40Z</time>
        <extensions>
          <gpxtpx:TrackPointExtension xmlns:gpxtpx="http://www.garmin.com/xmlschemas/TrackPointExtension/v1">
            <gpxtpx:hr>123</gpxtpx:hr>
          </gpxtpx:TrackPointExtension>
        </extensions>
      </trkpt>
      <trkpt lat="48.7415" lon="1.76891">
        <ele>157.2</ele>
        <time>2026-01-31T12:02:41Z</time>
        <extensions>
          <gpxtpx:TrackPointExtension xmlns:gpxtpx="http://www.garmin.com/xmlschemas/TrackPointExtension/v1">
            <gpxtpx:hr>124</gpxtpx:hr>
          </gpxtpx:TrackPointExtension>
        </extensions>
      </trkpt>
      <trkpt lat="48.74152" lon="1.76886">
        <ele>157</ele>
        <time>2026-01-31T12:02:42Z</time>
        <extensions>
          <gpxtpx:TrackPointExtension xmlns:gpxtpx="http://www.garmin.com/xmlschemas/TrackPointExtension/v1">
            <gpxtpx:hr>124</gpxtpx:hr>
          </gpxtpx:TrackPointExtension>
        </extensions>
      </trkpt>
      <trkpt lat="48.74153" lon="1.76881">
        <ele>157</ele>
        <time>2026-01-31T12:02:43Z</time>
        <extensions>
          <gpxtpx:TrackPointExtension xmlns:gpxtpx="http://www.garmin.com/xmlschemas/TrackPointExtension/v1">
            <gpxtpx:hr>124</gpxtpx:hr>
          </gpxtpx:TrackPointExtension>
        </extensions>
      </trkpt>
      <trkpt lat="48.74155" lon="1.76877">
        <ele>156.8</ele>
        <time>2026-01-31T12:02:44Z</time>
        <extensions>
          <gpxtpx:TrackPointExtension xmlns:gpxtpx="http://www.garmin.com/xmlschemas/TrackPointExtension/v1">
            <gpxtpx:hr>124</gpxtpx:hr>
          </gpxtpx:TrackPointExtension>
        </extensions>
      </trkpt>
      <trkpt lat="48.74156" lon="1.76872">
        <ele>156.6</ele>
        <time>2026-01-31T12:02:45Z</time>
        <extensions>
          <gpxtpx:TrackPointExtension xmlns:gpxtpx="http://www.garmin.com/xmlschemas/TrackPointExtension/v1">
            <gpxtpx:hr>124</gpxtpx:hr>
          </gpxtpx:TrackPointExtension>
        </extensions>
      </trkpt>
      <trkpt lat="48.74158" lon="1.76868">
        <ele>156.6</ele>
        <time>2026-01-31T12:02:46Z</time>
        <extensions>
          <gpxtpx:TrackPointExtension xmlns:gpxtpx="http://www.garmin.com/xmlschemas/TrackPointExtension/v1">
            <gpxtpx:hr>124</gpxtpx:hr>
          </gpxtpx:TrackPointExtension>
        </extensions>
      </trkpt>
      <trkpt lat="48.7416" lon="1.76863">
        <ele>156.4</ele>
        <time>2026-01-31T12:02:47Z</time>
        <extensions>
          <gpxtpx:TrackPointExtension xmlns:gpxtpx="http://www.garmin.com/xmlschemas/TrackPointExtension/v1">
            <gpxtpx:hr>124</gpxtpx:hr>
          </gpxtpx:TrackPointExtension>
        </extensions>
      </trkpt>
      <trkpt lat="48.74162" lon="1.76859">
        <ele>156.4</ele>
        <time>2026-01-31T12:02:48Z</time>
        <extensions>
          <gpxtpx:TrackPointExtension xmlns:gpxtpx="http://www.garmin.com/xmlschemas/TrackPointExtension/v1">
            <gpxtpx:hr>124</gpxtpx:hr>
          </gpxtpx:TrackPointExtension>
        </extensions>
      </trkpt>
      <trkpt lat="48.74164" lon="1.76855">
        <ele>156.2</ele>
        <time>2026-01-31T12:02:49Z</time>
        <extensions>
          <gpxtpx:TrackPointExtension xmlns:gpxtpx="http://www.garmin.com/xmlschemas/TrackPointExtension/v1">
            <gpxtpx:hr>124</gpxtpx:hr>
          </gpxtpx:TrackPointExtension>
        </extensions>
      </trkpt>
      <trkpt lat="48.74166" lon="1.76851">
        <ele>156.2</ele>
        <time>2026-01-31T12:02:50Z</time>
        <extensions>
          <gpxtpx:TrackPointExtension xmlns:gpxtpx="http://www.garmin.com/xmlschemas/TrackPointExtension/v1">
            <gpxtpx:hr>124</gpxtpx:hr>
          </gpxtpx:TrackPointExtension>
        </extensions>
      </trkpt>
      <trkpt lat="48.74169" lon="1.76847">
        <ele>156</ele>
        <time>2026-01-31T12:02:51Z</time>
        <extensions>
          <gpxtpx:TrackPointExtension xmlns:gpxtpx="http://www.garmin.com/xmlschemas/TrackPointExtension/v1">
            <gpxtpx:hr>124</gpxtpx:hr>
          </gpxtpx:TrackPointExtension>
        </extensions>
      </trkpt>
      <trkpt lat="48.74171" lon="1.76843">
        <ele>155.8</ele>
        <time>2026-01-31T12:02:52Z</time>
        <extensions>
          <gpxtpx:TrackPointExtension xmlns:gpxtpx="http://www.garmin.com/xmlschemas/TrackPointExtension/v1">
            <gpxtpx:hr>124</gpxtpx:hr>
          </gpxtpx:TrackPointExtension>
        </extensions>
      </trkpt>
      <trkpt lat="48.74173" lon="1.76839">
        <ele>155.8</ele>
        <time>2026-01-31T12:02:53Z</time>
        <extensions>
          <gpxtpx:TrackPointExtension xmlns:gpxtpx="http://www.garmin.com/xmlschemas/TrackPointExtension/v1">
            <gpxtpx:hr>124</gpxtpx:hr>
          </gpxtpx:TrackPointExtension>
        </extensions>
      </trkpt>
      <trkpt lat="48.74175" lon="1.76835">
        <ele>155.6</ele>
        <time>2026-01-31T12:02:54Z</time>
        <extensions>
          <gpxtpx:TrackPointExtension xmlns:gpxtpx="http://www.garmin.com/xmlschemas/TrackPointExtension/v1">
            <gpxtpx:hr>124</gpxtpx:hr>
          </gpxtpx:TrackPointExtension>
        </extensions>
      </trkpt>
      <trkpt lat="48.74177" lon="1.7683">
        <ele>155.4</ele>
        <time>2026-01-31T12:02:55Z</time>
        <extensions>
          <gpxtpx:TrackPointExtension xmlns:gpxtpx="http://www.garmin.com/xmlschemas/TrackPointExtension/v1">
            <gpxtpx:hr>124</gpxtpx:hr>
          </gpxtpx:TrackPointExtension>
        </extensions>
      </trkpt>
      <trkpt lat="48.74179" lon="1.76826">
        <ele>155.2</ele>
        <time>2026-01-31T12:02:56Z</time>
        <extensions>
          <gpxtpx:TrackPointExtension xmlns:gpxtpx="http://www.garmin.com/xmlschemas/TrackPointExtension/v1">
            <gpxtpx:hr>125</gpxtpx:hr>
          </gpxtpx:TrackPointExtension>
        </extensions>
      </trkpt>
      <trkpt lat="48.74181" lon="1.76822">
        <ele>155</ele>
        <time>2026-01-31T12:02:57Z</time>
        <extensions>
          <gpxtpx:TrackPointExtension xmlns:gpxtpx="http://www.garmin.com/xmlschemas/TrackPointExtension/v1">
            <gpxtpx:hr>125</gpxtpx:hr>
          </gpxtpx:TrackPointExtension>
        </extensions>
      </trkpt>
      <trkpt lat="48.74182" lon="1.76818">
        <ele>154.8</ele>
        <time>2026-01-31T12:02:58Z</time>
        <extensions>
          <gpxtpx:TrackPointExtension xmlns:gpxtpx="http://www.garmin.com/xmlschemas/TrackPointExtension/v1">
            <gpxtpx:hr>125</gpxtpx:hr>
          </gpxtpx:TrackPointExtension>
        </extensions>
      </trkpt>
      <trkpt lat="48.74184" lon="1.76814">
        <ele>154.6</ele>
        <time>2026-01-31T12:02:59Z</time>
        <extensions>
          <gpxtpx:TrackPointExtension xmlns:gpxtpx="http://www.garmin.com/xmlschemas/TrackPointExtension/v1">
            <gpxtpx:hr>125</gpxtpx:hr>
          </gpxtpx:TrackPointExtension>
        </extensions>
      </trkpt>
      <trkpt lat="48.74186" lon="1.7681">
        <ele>154.6</ele>
        <time>2026-01-31T12:03:00Z</time>
        <extensions>
          <gpxtpx:TrackPointExtension xmlns:gpxtpx="http://www.garmin.com/xmlschemas/TrackPointExtension/v1">
            <gpxtpx:hr>125</gpxtpx:hr>
          </gpxtpx:TrackPointExtension>
        </extensions>
      </trkpt>
      <trkpt lat="48.74188" lon="1.76806">
        <ele>154.4</ele>
        <time>2026-01-31T12:03:01Z</time>
        <extensions>
          <gpxtpx:TrackPointExtension xmlns:gpxtpx="http://www.garmin.com/xmlschemas/TrackPointExtension/v1">
            <gpxtpx:hr>125</gpxtpx:hr>
          </gpxtpx:TrackPointExtension>
        </extensions>
      </trkpt>
      <trkpt lat="48.74189" lon="1.76803">
        <ele>154.2</ele>
        <time>2026-01-31T12:03:02Z</time>
        <extensions>
          <gpxtpx:TrackPointExtension xmlns:gpxtpx="http://www.garmin.com/xmlschemas/TrackPointExtension/v1">
            <gpxtpx:hr>125</gpxtpx:hr>
          </gpxtpx:TrackPointExtension>
        </extensions>
      </trkpt>
      <trkpt lat="48.74191" lon="1.76799">
        <ele>154.2</ele>
        <time>2026-01-31T12:03:03Z</time>
        <extensions>
          <gpxtpx:TrackPointExtension xmlns:gpxtpx="http://www.garmin.com/xmlschemas/TrackPointExtension/v1">
            <gpxtpx:hr>125</gpxtpx:hr>
          </gpxtpx:TrackPointExtension>
        </extensions>
      </trkpt>
      <trkpt lat="48.74192" lon="1.76795">
        <ele>154</ele>
        <time>2026-01-31T12:03:04Z</time>
        <extensions>
          <gpxtpx:TrackPointExtension xmlns:gpxtpx="http://www.garmin.com/xmlschemas/TrackPointExtension/v1">
            <gpxtpx:hr>125</gpxtpx:hr>
          </gpxtpx:TrackPointExtension>
        </extensions>
      </trkpt>
      <trkpt lat="48.74194" lon="1.76791">
        <ele>153.8</ele>
        <time>2026-01-31T12:03:05Z</time>
        <extensions>
          <gpxtpx:TrackPointExtension xmlns:gpxtpx="http://www.garmin.com/xmlschemas/TrackPointExtension/v1">
            <gpxtpx:hr>125</gpxtpx:hr>
          </gpxtpx:TrackPointExtension>
        </extensions>
      </trkpt>
      <trkpt lat="48.74196" lon="1.76787">
        <ele>153.8</ele>
        <time>2026-01-31T12:03:06Z</time>
        <extensions>
          <gpxtpx:TrackPointExtension xmlns:gpxtpx="http://www.garmin.com/xmlschemas/TrackPointExtension/v1">
            <gpxtpx:hr>125</gpxtpx:hr>
          </gpxtpx:TrackPointExtension>
        </extensions>
      </trkpt>
      <trkpt lat="48.74196" lon="1.76783">
        <ele>153.6</ele>
        <time>2026-01-31T12:03:07Z</time>
        <extensions>
          <gpxtpx:TrackPointExtension xmlns:gpxtpx="http://www.garmin.com/xmlschemas/TrackPointExtension/v1">
            <gpxtpx:hr>125</gpxtpx:hr>
          </gpxtpx:TrackPointExtension>
        </extensions>
      </trkpt>
      <trkpt lat="48.74198" lon="1.76779">
        <ele>153.4</ele>
        <time>2026-01-31T12:03:08Z</time>
        <extensions>
          <gpxtpx:TrackPointExtension xmlns:gpxtpx="http://www.garmin.com/xmlschemas/TrackPointExtension/v1">
            <gpxtpx:hr>125</gpxtpx:hr>
          </gpxtpx:TrackPointExtension>
        </extensions>
      </trkpt>
      <trkpt lat="48.74199" lon="1.76775">
        <ele>153.2</ele>
        <time>2026-01-31T12:03:09Z</time>
        <extensions>
          <gpxtpx:TrackPointExtension xmlns:gpxtpx="http://www.garmin.com/xmlschemas/TrackPointExtension/v1">
            <gpxtpx:hr>125</gpxtpx:hr>
          </gpxtpx:TrackPointExtension>
        </extensions>
      </trkpt>
      <trkpt lat="48.742" lon="1.7677">
        <ele>153.2</ele>
        <time>2026-01-31T12:03:10Z</time>
        <extensions>
          <gpxtpx:TrackPointExtension xmlns:gpxtpx="http://www.garmin.com/xmlschemas/TrackPointExtension/v1">
            <gpxtpx:hr>125</gpxtpx:hr>
          </gpxtpx:TrackPointExtension>
        </extensions>
      </trkpt>
      <trkpt lat="48.74201" lon="1.76766">
        <ele>153</ele>
        <time>2026-01-31T12:03:11Z</time>
        <extensions>
          <gpxtpx:TrackPointExtension xmlns:gpxtpx="http://www.garmin.com/xmlschemas/TrackPointExtension/v1">
            <gpxtpx:hr>125</gpxtpx:hr>
          </gpxtpx:TrackPointExtension>
        </extensions>
      </trkpt>
      <trkpt lat="48.74202" lon="1.76761">
        <ele>152.8</ele>
        <time>2026-01-31T12:03:12Z</time>
        <extensions>
          <gpxtpx:TrackPointExtension xmlns:gpxtpx="http://www.garmin.com/xmlschemas/TrackPointExtension/v1">
            <gpxtpx:hr>125</gpxtpx:hr>
          </gpxtpx:TrackPointExtension>
        </extensions>
      </trkpt>
      <trkpt lat="48.74203" lon="1.76756">
        <ele>152.8</ele>
        <time>2026-01-31T12:03:13Z</time>
        <extensions>
          <gpxtpx:TrackPointExtension xmlns:gpxtpx="http://www.garmin.com/xmlschemas/TrackPointExtension/v1">
            <gpxtpx:hr>125</gpxtpx:hr>
          </gpxtpx:TrackPointExtension>
        </extensions>
      </trkpt>
      <trkpt lat="48.74204" lon="1.76751">
        <ele>152.6</ele>
        <time>2026-01-31T12:03:14Z</time>
        <extensions>
          <gpxtpx:TrackPointExtension xmlns:gpxtpx="http://www.garmin.com/xmlschemas/TrackPointExtension/v1">
            <gpxtpx:hr>125</gpxtpx:hr>
          </gpxtpx:TrackPointExtension>
        </extensions>
      </trkpt>
      <trkpt lat="48.74204" lon="1.76746">
        <ele>152.6</ele>
        <time>2026-01-31T12:03:15Z</time>
        <extensions>
          <gpxtpx:TrackPointExtension xmlns:gpxtpx="http://www.garmin.com/xmlschemas/TrackPointExtension/v1">
            <gpxtpx:hr>125</gpxtpx:hr>
          </gpxtpx:TrackPointExtension>
        </extensions>
      </trkpt>
      <trkpt lat="48.74205" lon="1.76741">
        <ele>152.4</ele>
        <time>2026-01-31T12:03:16Z</time>
        <extensions>
          <gpxtpx:TrackPointExtension xmlns:gpxtpx="http://www.garmin.com/xmlschemas/TrackPointExtension/v1">
            <gpxtpx:hr>125</gpxtpx:hr>
          </gpxtpx:TrackPointExtension>
        </extensions>
      </trkpt>
      <trkpt lat="48.74206" lon="1.76737">
        <ele>152.2</ele>
        <time>2026-01-31T12:03:17Z</time>
        <extensions>
          <gpxtpx:TrackPointExtension xmlns:gpxtpx="http://www.garmin.com/xmlschemas/TrackPointExtension/v1">
            <gpxtpx:hr>125</gpxtpx:hr>
          </gpxtpx:TrackPointExtension>
        </extensions>
      </trkpt>
      <trkpt lat="48.74207" lon="1.76732">
        <ele>152.2</ele>
        <time>2026-01-31T12:03:18Z</time>
        <extensions>
          <gpxtpx:TrackPointExtension xmlns:gpxtpx="http://www.garmin.com/xmlschemas/TrackPointExtension/v1">
            <gpxtpx:hr>125</gpxtpx:hr>
          </gpxtpx:TrackPointExtension>
        </extensions>
      </trkpt>
      <trkpt lat="48.74208" lon="1.76727">
        <ele>152</ele>
        <time>2026-01-31T12:03:19Z</time>
        <extensions>
          <gpxtpx:TrackPointExtension xmlns:gpxtpx="http://www.garmin.com/xmlschemas/TrackPointExtension/v1">
            <gpxtpx:hr>124</gpxtpx:hr>
          </gpxtpx:TrackPointExtension>
        </extensions>
      </trkpt>
      <trkpt lat="48.74209" lon="1.76723">
        <ele>152</ele>
        <time>2026-01-31T12:03:20Z</time>
        <extensions>
          <gpxtpx:TrackPointExtension xmlns:gpxtpx="http://www.garmin.com/xmlschemas/TrackPointExtension/v1">
            <gpxtpx:hr>124</gpxtpx:hr>
          </gpxtpx:TrackPointExtension>
        </extensions>
      </trkpt>
      <trkpt lat="48.7421" lon="1.76719">
        <ele>151.8</ele>
        <time>2026-01-31T12:03:21Z</time>
        <extensions>
          <gpxtpx:TrackPointExtension xmlns:gpxtpx="http://www.garmin.com/xmlschemas/TrackPointExtension/v1">
            <gpxtpx:hr>124</gpxtpx:hr>
          </gpxtpx:TrackPointExtension>
        </extensions>
      </trkpt>
      <trkpt lat="48.74211" lon="1.76715">
        <ele>151.6</ele>
        <time>2026-01-31T12:03:22Z</time>
        <extensions>
          <gpxtpx:TrackPointExtension xmlns:gpxtpx="http://www.garmin.com/xmlschemas/TrackPointExtension/v1">
            <gpxtpx:hr>125</gpxtpx:hr>
          </gpxtpx:TrackPointExtension>
        </extensions>
      </trkpt>
      <trkpt lat="48.74213" lon="1.76711">
        <ele>151.6</ele>
        <time>2026-01-31T12:03:23Z</time>
        <extensions>
          <gpxtpx:TrackPointExtension xmlns:gpxtpx="http://www.garmin.com/xmlschemas/TrackPointExtension/v1">
            <gpxtpx:hr>125</gpxtpx:hr>
          </gpxtpx:TrackPointExtension>
        </extensions>
      </trkpt>
      <trkpt lat="48.74214" lon="1.76707">
        <ele>151.4</ele>
        <time>2026-01-31T12:03:24Z</time>
        <extensions>
          <gpxtpx:TrackPointExtension xmlns:gpxtpx="http://www.garmin.com/xmlschemas/TrackPointExtension/v1">
            <gpxtpx:hr>125</gpxtpx:hr>
          </gpxtpx:TrackPointExtension>
        </extensions>
      </trkpt>
      <trkpt lat="48.74215" lon="1.76702">
        <ele>151.2</ele>
        <time>2026-01-31T12:03:25Z</time>
        <extensions>
          <gpxtpx:TrackPointExtension xmlns:gpxtpx="http://www.garmin.com/xmlschemas/TrackPointExtension/v1">
            <gpxtpx:hr>125</gpxtpx:hr>
          </gpxtpx:TrackPointExtension>
        </extensions>
      </trkpt>
      <trkpt lat="48.74217" lon="1.76699">
        <ele>151.2</ele>
        <time>2026-01-31T12:03:26Z</time>
        <extensions>
          <gpxtpx:TrackPointExtension xmlns:gpxtpx="http://www.garmin.com/xmlschemas/TrackPointExtension/v1">
            <gpxtpx:hr>125</gpxtpx:hr>
          </gpxtpx:TrackPointExtension>
        </extensions>
      </trkpt>
      <trkpt lat="48.74218" lon="1.76695">
        <ele>151</ele>
        <time>2026-01-31T12:03:27Z</time>
        <extensions>
          <gpxtpx:TrackPointExtension xmlns:gpxtpx="http://www.garmin.com/xmlschemas/TrackPointExtension/v1">
            <gpxtpx:hr>125</gpxtpx:hr>
          </gpxtpx:TrackPointExtension>
        </extensions>
      </trkpt>
      <trkpt lat="48.7422" lon="1.76691">
        <ele>150.8</ele>
        <time>2026-01-31T12:03:28Z</time>
        <extensions>
          <gpxtpx:TrackPointExtension xmlns:gpxtpx="http://www.garmin.com/xmlschemas/TrackPointExtension/v1">
            <gpxtpx:hr>125</gpxtpx:hr>
          </gpxtpx:TrackPointExtension>
        </extensions>
      </trkpt>
      <trkpt lat="48.74221" lon="1.76688">
        <ele>150.8</ele>
        <time>2026-01-31T12:03:29Z</time>
        <extensions>
          <gpxtpx:TrackPointExtension xmlns:gpxtpx="http://www.garmin.com/xmlschemas/TrackPointExtension/v1">
            <gpxtpx:hr>125</gpxtpx:hr>
          </gpxtpx:TrackPointExtension>
        </extensions>
      </trkpt>
      <trkpt lat="48.74222" lon="1.76685">
        <ele>150.6</ele>
        <time>2026-01-31T12:03:30Z</time>
        <extensions>
          <gpxtpx:TrackPointExtension xmlns:gpxtpx="http://www.garmin.com/xmlschemas/TrackPointExtension/v1">
            <gpxtpx:hr>125</gpxtpx:hr>
          </gpxtpx:TrackPointExtension>
        </extensions>
      </trkpt>
      <trkpt lat="48.74223" lon="1.76681">
        <ele>150.6</ele>
        <time>2026-01-31T12:03:31Z</time>
        <extensions>
          <gpxtpx:TrackPointExtension xmlns:gpxtpx="http://www.garmin.com/xmlschemas/TrackPointExtension/v1">
            <gpxtpx:hr>125</gpxtpx:hr>
          </gpxtpx:TrackPointExtension>
        </extensions>
      </trkpt>
      <trkpt lat="48.74223" lon="1.76678">
        <ele>150.6</ele>
        <time>2026-01-31T12:03:32Z</time>
        <extensions>
          <gpxtpx:TrackPointExtension xmlns:gpxtpx="http://www.garmin.com/xmlschemas/TrackPointExtension/v1">
            <gpxtpx:hr>125</gpxtpx:hr>
          </gpxtpx:TrackPointExtension>
        </extensions>
      </trkpt>
      <trkpt lat="48.74224" lon="1.76675">
        <ele>150.4</ele>
        <time>2026-01-31T12:03:33Z</time>
        <extensions>
          <gpxtpx:TrackPointExtension xmlns:gpxtpx="http://www.garmin.com/xmlschemas/TrackPointExtension/v1">
            <gpxtpx:hr>125</gpxtpx:hr>
          </gpxtpx:TrackPointExtension>
        </extensions>
      </trkpt>
      <trkpt lat="48.74224" lon="1.76671">
        <ele>150.4</ele>
        <time>2026-01-31T12:03:34Z</time>
        <extensions>
          <gpxtpx:TrackPointExtension xmlns:gpxtpx="http://www.garmin.com/xmlschemas/TrackPointExtension/v1">
            <gpxtpx:hr>125</gpxtpx:hr>
          </gpxtpx:TrackPointExtension>
        </extensions>
      </trkpt>
      <trkpt lat="48.74224" lon="1.76668">
        <ele>150.2</ele>
        <time>2026-01-31T12:03:35Z</time>
        <extensions>
          <gpxtpx:TrackPointExtension xmlns:gpxtpx="http://www.garmin.com/xmlschemas/TrackPointExtension/v1">
            <gpxtpx:hr>125</gpxtpx:hr>
          </gpxtpx:TrackPointExtension>
        </extensions>
      </trkpt>
      <trkpt lat="48.74225" lon="1.76664">
        <ele>150.2</ele>
        <time>2026-01-31T12:03:36Z</time>
        <extensions>
          <gpxtpx:TrackPointExtension xmlns:gpxtpx="http://www.garmin.com/xmlschemas/TrackPointExtension/v1">
            <gpxtpx:hr>125</gpxtpx:hr>
          </gpxtpx:TrackPointExtension>
        </extensions>
      </trkpt>
      <trkpt lat="48.74225" lon="1.7666">
        <ele>150</ele>
        <time>2026-01-31T12:03:37Z</time>
        <extensions>
          <gpxtpx:TrackPointExtension xmlns:gpxtpx="http://www.garmin.com/xmlschemas/TrackPointExtension/v1">
            <gpxtpx:hr>125</gpxtpx:hr>
          </gpxtpx:TrackPointExtension>
        </extensions>
      </trkpt>
      <trkpt lat="48.74226" lon="1.76656">
        <ele>150</ele>
        <time>2026-01-31T12:03:38Z</time>
        <extensions>
          <gpxtpx:TrackPointExtension xmlns:gpxtpx="http://www.garmin.com/xmlschemas/TrackPointExtension/v1">
            <gpxtpx:hr>125</gpxtpx:hr>
          </gpxtpx:TrackPointExtension>
        </extensions>
      </trkpt>
      <trkpt lat="48.74226" lon="1.76652">
        <ele>150</ele>
        <time>2026-01-31T12:03:39Z</time>
        <extensions>
          <gpxtpx:TrackPointExtension xmlns:gpxtpx="http://www.garmin.com/xmlschemas/TrackPointExtension/v1">
            <gpxtpx:hr>125</gpxtpx:hr>
          </gpxtpx:TrackPointExtension>
        </extensions>
      </trkpt>
      <trkpt lat="48.74226" lon="1.76648">
        <ele>150</ele>
        <time>2026-01-31T12:03:40Z</time>
        <extensions>
          <gpxtpx:TrackPointExtension xmlns:gpxtpx="http://www.garmin.com/xmlschemas/TrackPointExtension/v1">
            <gpxtpx:hr>125</gpxtpx:hr>
          </gpxtpx:TrackPointExtension>
        </extensions>
      </trkpt>
      <trkpt lat="48.74227" lon="1.76643">
        <ele>149.8</ele>
        <time>2026-01-31T12:03:41Z</time>
        <extensions>
          <gpxtpx:TrackPointExtension xmlns:gpxtpx="http://www.garmin.com/xmlschemas/TrackPointExtension/v1">
            <gpxtpx:hr>125</gpxtpx:hr>
          </gpxtpx:TrackPointExtension>
        </extensions>
      </trkpt>
      <trkpt lat="48.74228" lon="1.76639">
        <ele>149.8</ele>
        <time>2026-01-31T12:03:42Z</time>
        <extensions>
          <gpxtpx:TrackPointExtension xmlns:gpxtpx="http://www.garmin.com/xmlschemas/TrackPointExtension/v1">
            <gpxtpx:hr>125</gpxtpx:hr>
          </gpxtpx:TrackPointExtension>
        </extensions>
      </trkpt>
      <trkpt lat="48.74229" lon="1.76634">
        <ele>149.8</ele>
        <time>2026-01-31T12:03:43Z</time>
        <extensions>
          <gpxtpx:TrackPointExtension xmlns:gpxtpx="http://www.garmin.com/xmlschemas/TrackPointExtension/v1">
            <gpxtpx:hr>125</gpxtpx:hr>
          </gpxtpx:TrackPointExtension>
        </extensions>
      </trkpt>
      <trkpt lat="48.7423" lon="1.76629">
        <ele>149.8</ele>
        <time>2026-01-31T12:03:44Z</time>
        <extensions>
          <gpxtpx:TrackPointExtension xmlns:gpxtpx="http://www.garmin.com/xmlschemas/TrackPointExtension/v1">
            <gpxtpx:hr>125</gpxtpx:hr>
          </gpxtpx:TrackPointExtension>
        </extensions>
      </trkpt>
      <trkpt lat="48.74231" lon="1.76624">
        <ele>149.8</ele>
        <time>2026-01-31T12:03:45Z</time>
        <extensions>
          <gpxtpx:TrackPointExtension xmlns:gpxtpx="http://www.garmin.com/xmlschemas/TrackPointExtension/v1">
            <gpxtpx:hr>125</gpxtpx:hr>
          </gpxtpx:TrackPointExtension>
        </extensions>
      </trkpt>
      <trkpt lat="48.74232" lon="1.76619">
        <ele>149.8</ele>
        <time>2026-01-31T12:03:46Z</time>
        <extensions>
          <gpxtpx:TrackPointExtension xmlns:gpxtpx="http://www.garmin.com/xmlschemas/TrackPointExtension/v1">
            <gpxtpx:hr>125</gpxtpx:hr>
          </gpxtpx:TrackPointExtension>
        </extensions>
      </trkpt>
      <trkpt lat="48.74233" lon="1.76614">
        <ele>149.8</ele>
        <time>2026-01-31T12:03:47Z</time>
        <extensions>
          <gpxtpx:TrackPointExtension xmlns:gpxtpx="http://www.garmin.com/xmlschemas/TrackPointExtension/v1">
            <gpxtpx:hr>125</gpxtpx:hr>
          </gpxtpx:TrackPointExtension>
        </extensions>
      </trkpt>
      <trkpt lat="48.74234" lon="1.76609">
        <ele>149.8</ele>
        <time>2026-01-31T12:03:48Z</time>
        <extensions>
          <gpxtpx:TrackPointExtension xmlns:gpxtpx="http://www.garmin.com/xmlschemas/TrackPointExtension/v1">
            <gpxtpx:hr>125</gpxtpx:hr>
          </gpxtpx:TrackPointExtension>
        </extensions>
      </trkpt>
      <trkpt lat="48.74236" lon="1.76604">
        <ele>149.8</ele>
        <time>2026-01-31T12:03:49Z</time>
        <extensions>
          <gpxtpx:TrackPointExtension xmlns:gpxtpx="http://www.garmin.com/xmlschemas/TrackPointExtension/v1">
            <gpxtpx:hr>125</gpxtpx:hr>
          </gpxtpx:TrackPointExtension>
        </extensions>
      </trkpt>
      <trkpt lat="48.74236" lon="1.76599">
        <ele>149.8</ele>
        <time>2026-01-31T12:03:50Z</time>
        <extensions>
          <gpxtpx:TrackPointExtension xmlns:gpxtpx="http://www.garmin.com/xmlschemas/TrackPointExtension/v1">
            <gpxtpx:hr>125</gpxtpx:hr>
          </gpxtpx:TrackPointExtension>
        </extensions>
      </trkpt>
      <trkpt lat="48.74237" lon="1.76595">
        <ele>149.8</ele>
        <time>2026-01-31T12:03:51Z</time>
        <extensions>
          <gpxtpx:TrackPointExtension xmlns:gpxtpx="http://www.garmin.com/xmlschemas/TrackPointExtension/v1">
            <gpxtpx:hr>125</gpxtpx:hr>
          </gpxtpx:TrackPointExtension>
        </extensions>
      </trkpt>
      <trkpt lat="48.74238" lon="1.7659">
        <ele>150</ele>
        <time>2026-01-31T12:03:52Z</time>
        <extensions>
          <gpxtpx:TrackPointExtension xmlns:gpxtpx="http://www.garmin.com/xmlschemas/TrackPointExtension/v1">
            <gpxtpx:hr>125</gpxtpx:hr>
          </gpxtpx:TrackPointExtension>
        </extensions>
      </trkpt>
      <trkpt lat="48.74239" lon="1.76586">
        <ele>150</ele>
        <time>2026-01-31T12:03:53Z</time>
        <extensions>
          <gpxtpx:TrackPointExtension xmlns:gpxtpx="http://www.garmin.com/xmlschemas/TrackPointExtension/v1">
            <gpxtpx:hr>125</gpxtpx:hr>
          </gpxtpx:TrackPointExtension>
        </extensions>
      </trkpt>
      <trkpt lat="48.74239" lon="1.76581">
        <ele>150</ele>
        <time>2026-01-31T12:03:54Z</time>
        <extensions>
          <gpxtpx:TrackPointExtension xmlns:gpxtpx="http://www.garmin.com/xmlschemas/TrackPointExtension/v1">
            <gpxtpx:hr>125</gpxtpx:hr>
          </gpxtpx:TrackPointExtension>
        </extensions>
      </trkpt>
      <trkpt lat="48.74239" lon="1.76576">
        <ele>150</ele>
        <time>2026-01-31T12:03:55Z</time>
        <extensions>
          <gpxtpx:TrackPointExtension xmlns:gpxtpx="http://www.garmin.com/xmlschemas/TrackPointExtension/v1">
            <gpxtpx:hr>125</gpxtpx:hr>
          </gpxtpx:TrackPointExtension>
        </extensions>
      </trkpt>
      <trkpt lat="48.7424" lon="1.7657">
        <ele>150</ele>
        <time>2026-01-31T12:03:56Z</time>
        <extensions>
          <gpxtpx:TrackPointExtension xmlns:gpxtpx="http://www.garmin.com/xmlschemas/TrackPointExtension/v1">
            <gpxtpx:hr>125</gpxtpx:hr>
          </gpxtpx:TrackPointExtension>
        </extensions>
      </trkpt>
      <trkpt lat="48.7424" lon="1.76565">
        <ele>150</ele>
        <time>2026-01-31T12:03:57Z</time>
        <extensions>
          <gpxtpx:TrackPointExtension xmlns:gpxtpx="http://www.garmin.com/xmlschemas/TrackPointExtension/v1">
            <gpxtpx:hr>125</gpxtpx:hr>
          </gpxtpx:TrackPointExtension>
        </extensions>
      </trkpt>
      <trkpt lat="48.7424" lon="1.76559">
        <ele>150</ele>
        <time>2026-01-31T12:03:58Z</time>
        <extensions>
          <gpxtpx:TrackPointExtension xmlns:gpxtpx="http://www.garmin.com/xmlschemas/TrackPointExtension/v1">
            <gpxtpx:hr>125</gpxtpx:hr>
          </gpxtpx:TrackPointExtension>
        </extensions>
      </trkpt>
      <trkpt lat="48.7424" lon="1.76554">
        <ele>150</ele>
        <time>2026-01-31T12:03:59Z</time>
        <extensions>
          <gpxtpx:TrackPointExtension xmlns:gpxtpx="http://www.garmin.com/xmlschemas/TrackPointExtension/v1">
            <gpxtpx:hr>125</gpxtpx:hr>
          </gpxtpx:TrackPointExtension>
        </extensions>
      </trkpt>
      <trkpt lat="48.7424" lon="1.7655">
        <ele>150</ele>
        <time>2026-01-31T12:04:00Z</time>
        <extensions>
          <gpxtpx:TrackPointExtension xmlns:gpxtpx="http://www.garmin.com/xmlschemas/TrackPointExtension/v1">
            <gpxtpx:hr>125</gpxtpx:hr>
          </gpxtpx:TrackPointExtension>
        </extensions>
      </trkpt>
      <trkpt lat="48.7424" lon="1.76545">
        <ele>150</ele>
        <time>2026-01-31T12:04:01Z</time>
        <extensions>
          <gpxtpx:TrackPointExtension xmlns:gpxtpx="http://www.garmin.com/xmlschemas/TrackPointExtension/v1">
            <gpxtpx:hr>125</gpxtpx:hr>
          </gpxtpx:TrackPointExtension>
        </extensions>
      </trkpt>
      <trkpt lat="48.74239" lon="1.7654">
        <ele>150</ele>
        <time>2026-01-31T12:04:02Z</time>
        <extensions>
          <gpxtpx:TrackPointExtension xmlns:gpxtpx="http://www.garmin.com/xmlschemas/TrackPointExtension/v1">
            <gpxtpx:hr>125</gpxtpx:hr>
          </gpxtpx:TrackPointExtension>
        </extensions>
      </trkpt>
      <trkpt lat="48.74239" lon="1.76536">
        <ele>150</ele>
        <time>2026-01-31T12:04:03Z</time>
        <extensions>
          <gpxtpx:TrackPointExtension xmlns:gpxtpx="http://www.garmin.com/xmlschemas/TrackPointExtension/v1">
            <gpxtpx:hr>125</gpxtpx:hr>
          </gpxtpx:TrackPointExtension>
        </extensions>
      </trkpt>
      <trkpt lat="48.74238" lon="1.76532">
        <ele>150</ele>
        <time>2026-01-31T12:04:04Z</time>
        <extensions>
          <gpxtpx:TrackPointExtension xmlns:gpxtpx="http://www.garmin.com/xmlschemas/TrackPointExtension/v1">
            <gpxtpx:hr>125</gpxtpx:hr>
          </gpxtpx:TrackPointExtension>
        </extensions>
      </trkpt>
      <trkpt lat="48.74237" lon="1.76528">
        <ele>150</ele>
        <time>2026-01-31T12:04:05Z</time>
        <extensions>
          <gpxtpx:TrackPointExtension xmlns:gpxtpx="http://www.garmin.com/xmlschemas/TrackPointExtension/v1">
            <gpxtpx:hr>125</gpxtpx:hr>
          </gpxtpx:TrackPointExtension>
        </extensions>
      </trkpt>
      <trkpt lat="48.74236" lon="1.76524">
        <ele>150</ele>
        <time>2026-01-31T12:04:06Z</time>
        <extensions>
          <gpxtpx:TrackPointExtension xmlns:gpxtpx="http://www.garmin.com/xmlschemas/TrackPointExtension/v1">
            <gpxtpx:hr>125</gpxtpx:hr>
          </gpxtpx:TrackPointExtension>
        </extensions>
      </trkpt>
      <trkpt lat="48.74235" lon="1.7652">
        <ele>150</ele>
        <time>2026-01-31T12:04:07Z</time>
        <extensions>
          <gpxtpx:TrackPointExtension xmlns:gpxtpx="http://www.garmin.com/xmlschemas/TrackPointExtension/v1">
            <gpxtpx:hr>125</gpxtpx:hr>
          </gpxtpx:TrackPointExtension>
        </extensions>
      </trkpt>
      <trkpt lat="48.74233" lon="1.76516">
        <ele>150</ele>
        <time>2026-01-31T12:04:08Z</time>
        <extensions>
          <gpxtpx:TrackPointExtension xmlns:gpxtpx="http://www.garmin.com/xmlschemas/TrackPointExtension/v1">
            <gpxtpx:hr>125</gpxtpx:hr>
          </gpxtpx:TrackPointExtension>
        </extensions>
      </trkpt>
      <trkpt lat="48.74231" lon="1.76512">
        <ele>150</ele>
        <time>2026-01-31T12:04:09Z</time>
        <extensions>
          <gpxtpx:TrackPointExtension xmlns:gpxtpx="http://www.garmin.com/xmlschemas/TrackPointExtension/v1">
            <gpxtpx:hr>125</gpxtpx:hr>
          </gpxtpx:TrackPointExtension>
        </extensions>
      </trkpt>
      <trkpt lat="48.7423" lon="1.76508">
        <ele>150.2</ele>
        <time>2026-01-31T12:04:10Z</time>
        <extensions>
          <gpxtpx:TrackPointExtension xmlns:gpxtpx="http://www.garmin.com/xmlschemas/TrackPointExtension/v1">
            <gpxtpx:hr>125</gpxtpx:hr>
          </gpxtpx:TrackPointExtension>
        </extensions>
      </trkpt>
      <trkpt lat="48.74228" lon="1.76504">
        <ele>150.2</ele>
        <time>2026-01-31T12:04:11Z</time>
        <extensions>
          <gpxtpx:TrackPointExtension xmlns:gpxtpx="http://www.garmin.com/xmlschemas/TrackPointExtension/v1">
            <gpxtpx:hr>125</gpxtpx:hr>
          </gpxtpx:TrackPointExtension>
        </extensions>
      </trkpt>
      <trkpt lat="48.74226" lon="1.765">
        <ele>150.2</ele>
        <time>2026-01-31T12:04:12Z</time>
        <extensions>
          <gpxtpx:TrackPointExtension xmlns:gpxtpx="http://www.garmin.com/xmlschemas/TrackPointExtension/v1">
            <gpxtpx:hr>125</gpxtpx:hr>
          </gpxtpx:TrackPointExtension>
        </extensions>
      </trkpt>
      <trkpt lat="48.74224" lon="1.76497">
        <ele>150.2</ele>
        <time>2026-01-31T12:04:13Z</time>
        <extensions>
          <gpxtpx:TrackPointExtension xmlns:gpxtpx="http://www.garmin.com/xmlschemas/TrackPointExtension/v1">
            <gpxtpx:hr>125</gpxtpx:hr>
          </gpxtpx:TrackPointExtension>
        </extensions>
      </trkpt>
      <trkpt lat="48.74223" lon="1.76493">
        <ele>150.2</ele>
        <time>2026-01-31T12:04:14Z</time>
        <extensions>
          <gpxtpx:TrackPointExtension xmlns:gpxtpx="http://www.garmin.com/xmlschemas/TrackPointExtension/v1">
            <gpxtpx:hr>125</gpxtpx:hr>
          </gpxtpx:TrackPointExtension>
        </extensions>
      </trkpt>
      <trkpt lat="48.74221" lon="1.76489">
        <ele>150.2</ele>
        <time>2026-01-31T12:04:15Z</time>
        <extensions>
          <gpxtpx:TrackPointExtension xmlns:gpxtpx="http://www.garmin.com/xmlschemas/TrackPointExtension/v1">
            <gpxtpx:hr>126</gpxtpx:hr>
          </gpxtpx:TrackPointExtension>
        </extensions>
      </trkpt>
      <trkpt lat="48.74219" lon="1.76486">
        <ele>150.2</ele>
        <time>2026-01-31T12:04:16Z</time>
        <extensions>
          <gpxtpx:TrackPointExtension xmlns:gpxtpx="http://www.garmin.com/xmlschemas/TrackPointExtension/v1">
            <gpxtpx:hr>126</gpxtpx:hr>
          </gpxtpx:TrackPointExtension>
        </extensions>
      </trkpt>
      <trkpt lat="48.74218" lon="1.76482">
        <ele>150</ele>
        <time>2026-01-31T12:04:17Z</time>
        <extensions>
          <gpxtpx:TrackPointExtension xmlns:gpxtpx="http://www.garmin.com/xmlschemas/TrackPointExtension/v1">
            <gpxtpx:hr>126</gpxtpx:hr>
          </gpxtpx:TrackPointExtension>
        </extensions>
      </trkpt>
      <trkpt lat="48.74216" lon="1.76478">
        <ele>150</ele>
        <time>2026-01-31T12:04:18Z</time>
        <extensions>
          <gpxtpx:TrackPointExtension xmlns:gpxtpx="http://www.garmin.com/xmlschemas/TrackPointExtension/v1">
            <gpxtpx:hr>126</gpxtpx:hr>
          </gpxtpx:TrackPointExtension>
        </extensions>
      </trkpt>
      <trkpt lat="48.74214" lon="1.76475">
        <ele>150</ele>
        <time>2026-01-31T12:04:19Z</time>
        <extensions>
          <gpxtpx:TrackPointExtension xmlns:gpxtpx="http://www.garmin.com/xmlschemas/TrackPointExtension/v1">
            <gpxtpx:hr>126</gpxtpx:hr>
          </gpxtpx:TrackPointExtension>
        </extensions>
      </trkpt>
      <trkpt lat="48.74213" lon="1.76471">
        <ele>150</ele>
        <time>2026-01-31T12:04:20Z</time>
        <extensions>
          <gpxtpx:TrackPointExtension xmlns:gpxtpx="http://www.garmin.com/xmlschemas/TrackPointExtension/v1">
            <gpxtpx:hr>126</gpxtpx:hr>
          </gpxtpx:TrackPointExtension>
        </extensions>
      </trkpt>
      <trkpt lat="48.74211" lon="1.76468">
        <ele>149.8</ele>
        <time>2026-01-31T12:04:21Z</time>
        <extensions>
          <gpxtpx:TrackPointExtension xmlns:gpxtpx="http://www.garmin.com/xmlschemas/TrackPointExtension/v1">
            <gpxtpx:hr>126</gpxtpx:hr>
          </gpxtpx:TrackPointExtension>
        </extensions>
      </trkpt>
      <trkpt lat="48.74208" lon="1.76465">
        <ele>149.8</ele>
        <time>2026-01-31T12:04:22Z</time>
        <extensions>
          <gpxtpx:TrackPointExtension xmlns:gpxtpx="http://www.garmin.com/xmlschemas/TrackPointExtension/v1">
            <gpxtpx:hr>126</gpxtpx:hr>
          </gpxtpx:TrackPointExtension>
        </extensions>
      </trkpt>
      <trkpt lat="48.74206" lon="1.76461">
        <ele>149.8</ele>
        <time>2026-01-31T12:04:23Z</time>
        <extensions>
          <gpxtpx:TrackPointExtension xmlns:gpxtpx="http://www.garmin.com/xmlschemas/TrackPointExtension/v1">
            <gpxtpx:hr>126</gpxtpx:hr>
          </gpxtpx:TrackPointExtension>
        </extensions>
      </trkpt>
      <trkpt lat="48.74204" lon="1.76457">
        <ele>150</ele>
        <time>2026-01-31T12:04:24Z</time>
        <extensions>
          <gpxtpx:TrackPointExtension xmlns:gpxtpx="http://www.garmin.com/xmlschemas/TrackPointExtension/v1">
            <gpxtpx:hr>126</gpxtpx:hr>
          </gpxtpx:TrackPointExtension>
        </extensions>
      </trkpt>
      <trkpt lat="48.74203" lon="1.76453">
        <ele>150</ele>
        <time>2026-01-31T12:04:25Z</time>
        <extensions>
          <gpxtpx:TrackPointExtension xmlns:gpxtpx="http://www.garmin.com/xmlschemas/TrackPointExtension/v1">
            <gpxtpx:hr>126</gpxtpx:hr>
          </gpxtpx:TrackPointExtension>
        </extensions>
      </trkpt>
      <trkpt lat="48.74202" lon="1.76448">
        <ele>150</ele>
        <time>2026-01-31T12:04:26Z</time>
        <extensions>
          <gpxtpx:TrackPointExtension xmlns:gpxtpx="http://www.garmin.com/xmlschemas/TrackPointExtension/v1">
            <gpxtpx:hr>126</gpxtpx:hr>
          </gpxtpx:TrackPointExtension>
        </extensions>
      </trkpt>
      <trkpt lat="48.74201" lon="1.76443">
        <ele>150</ele>
        <time>2026-01-31T12:04:27Z</time>
        <extensions>
          <gpxtpx:TrackPointExtension xmlns:gpxtpx="http://www.garmin.com/xmlschemas/TrackPointExtension/v1">
            <gpxtpx:hr>126</gpxtpx:hr>
          </gpxtpx:TrackPointExtension>
        </extensions>
      </trkpt>
      <trkpt lat="48.74201" lon="1.76439">
        <ele>150</ele>
        <time>2026-01-31T12:04:28Z</time>
        <extensions>
          <gpxtpx:TrackPointExtension xmlns:gpxtpx="http://www.garmin.com/xmlschemas/TrackPointExtension/v1">
            <gpxtpx:hr>126</gpxtpx:hr>
          </gpxtpx:TrackPointExtension>
        </extensions>
      </trkpt>
      <trkpt lat="48.74201" lon="1.76435">
        <ele>150</ele>
        <time>2026-01-31T12:04:29Z</time>
        <extensions>
          <gpxtpx:TrackPointExtension xmlns:gpxtpx="http://www.garmin.com/xmlschemas/TrackPointExtension/v1">
            <gpxtpx:hr>126</gpxtpx:hr>
          </gpxtpx:TrackPointExtension>
        </extensions>
      </trkpt>
      <trkpt lat="48.74202" lon="1.76431">
        <ele>150</ele>
        <time>2026-01-31T12:04:30Z</time>
        <extensions>
          <gpxtpx:TrackPointExtension xmlns:gpxtpx="http://www.garmin.com/xmlschemas/TrackPointExtension/v1">
            <gpxtpx:hr>126</gpxtpx:hr>
          </gpxtpx:TrackPointExtension>
        </extensions>
      </trkpt>
      <trkpt lat="48.74203" lon="1.76427">
        <ele>150</ele>
        <time>2026-01-31T12:04:31Z</time>
        <extensions>
          <gpxtpx:TrackPointExtension xmlns:gpxtpx="http://www.garmin.com/xmlschemas/TrackPointExtension/v1">
            <gpxtpx:hr>126</gpxtpx:hr>
          </gpxtpx:TrackPointExtension>
        </extensions>
      </trkpt>
      <trkpt lat="48.74204" lon="1.76423">
        <ele>150</ele>
        <time>2026-01-31T12:04:32Z</time>
        <extensions>
          <gpxtpx:TrackPointExtension xmlns:gpxtpx="http://www.garmin.com/xmlschemas/TrackPointExtension/v1">
            <gpxtpx:hr>126</gpxtpx:hr>
          </gpxtpx:TrackPointExtension>
        </extensions>
      </trkpt>
      <trkpt lat="48.74204" lon="1.7642">
        <ele>150</ele>
        <time>2026-01-31T12:04:33Z</time>
        <extensions>
          <gpxtpx:TrackPointExtension xmlns:gpxtpx="http://www.garmin.com/xmlschemas/TrackPointExtension/v1">
            <gpxtpx:hr>126</gpxtpx:hr>
          </gpxtpx:TrackPointExtension>
        </extensions>
      </trkpt>
      <trkpt lat="48.74206" lon="1.76416">
        <ele>150</ele>
        <time>2026-01-31T12:04:34Z</time>
        <extensions>
          <gpxtpx:TrackPointExtension xmlns:gpxtpx="http://www.garmin.com/xmlschemas/TrackPointExtension/v1">
            <gpxtpx:hr>126</gpxtpx:hr>
          </gpxtpx:TrackPointExtension>
        </extensions>
      </trkpt>
      <trkpt lat="48.74207" lon="1.76413">
        <ele>150</ele>
        <time>2026-01-31T12:04:35Z</time>
        <extensions>
          <gpxtpx:TrackPointExtension xmlns:gpxtpx="http://www.garmin.com/xmlschemas/TrackPointExtension/v1">
            <gpxtpx:hr>126</gpxtpx:hr>
          </gpxtpx:TrackPointExtension>
        </extensions>
      </trkpt>
      <trkpt lat="48.74208" lon="1.76409">
        <ele>150</ele>
        <time>2026-01-31T12:04:36Z</time>
        <extensions>
          <gpxtpx:TrackPointExtension xmlns:gpxtpx="http://www.garmin.com/xmlschemas/TrackPointExtension/v1">
            <gpxtpx:hr>126</gpxtpx:hr>
          </gpxtpx:TrackPointExtension>
        </extensions>
      </trkpt>
      <trkpt lat="48.74209" lon="1.76406">
        <ele>150</ele>
        <time>2026-01-31T12:04:37Z</time>
        <extensions>
          <gpxtpx:TrackPointExtension xmlns:gpxtpx="http://www.garmin.com/xmlschemas/TrackPointExtension/v1">
            <gpxtpx:hr>126</gpxtpx:hr>
          </gpxtpx:TrackPointExtension>
        </extensions>
      </trkpt>
      <trkpt lat="48.7421" lon="1.76403">
        <ele>150</ele>
        <time>2026-01-31T12:04:38Z</time>
        <extensions>
          <gpxtpx:TrackPointExtension xmlns:gpxtpx="http://www.garmin.com/xmlschemas/TrackPointExtension/v1">
            <gpxtpx:hr>126</gpxtpx:hr>
          </gpxtpx:TrackPointExtension>
        </extensions>
      </trkpt>
      <trkpt lat="48.7421" lon="1.764">
        <ele>150</ele>
        <time>2026-01-31T12:04:39Z</time>
        <extensions>
          <gpxtpx:TrackPointExtension xmlns:gpxtpx="http://www.garmin.com/xmlschemas/TrackPointExtension/v1">
            <gpxtpx:hr>126</gpxtpx:hr>
          </gpxtpx:TrackPointExtension>
        </extensions>
      </trkpt>
      <trkpt lat="48.7421" lon="1.76395">
        <ele>150.2</ele>
        <time>2026-01-31T12:04:41Z</time>
        <extensions>
          <gpxtpx:TrackPointExtension xmlns:gpxtpx="http://www.garmin.com/xmlschemas/TrackPointExtension/v1">
            <gpxtpx:hr>126</gpxtpx:hr>
          </gpxtpx:TrackPointExtension>
        </extensions>
      </trkpt>
      <trkpt lat="48.74208" lon="1.76392">
        <ele>150.2</ele>
        <time>2026-01-31T12:04:43Z</time>
        <extensions>
          <gpxtpx:TrackPointExtension xmlns:gpxtpx="http://www.garmin.com/xmlschemas/TrackPointExtension/v1">
            <gpxtpx:hr>125</gpxtpx:hr>
          </gpxtpx:TrackPointExtension>
        </extensions>
      </trkpt>
      <trkpt lat="48.74207" lon="1.76389">
        <ele>150.4</ele>
        <time>2026-01-31T12:04:45Z</time>
        <extensions>
          <gpxtpx:TrackPointExtension xmlns:gpxtpx="http://www.garmin.com/xmlschemas/TrackPointExtension/v1">
            <gpxtpx:hr>125</gpxtpx:hr>
          </gpxtpx:TrackPointExtension>
        </extensions>
      </trkpt>
      <trkpt lat="48.74205" lon="1.76387">
        <ele>150.6</ele>
        <time>2026-01-31T12:04:47Z</time>
        <extensions>
          <gpxtpx:TrackPointExtension xmlns:gpxtpx="http://www.garmin.com/xmlschemas/TrackPointExtension/v1">
            <gpxtpx:hr>125</gpxtpx:hr>
          </gpxtpx:TrackPointExtension>
        </extensions>
      </trkpt>
      <trkpt lat="48.74204" lon="1.76385">
        <ele>150.6</ele>
        <time>2026-01-31T12:04:49Z</time>
        <extensions>
          <gpxtpx:TrackPointExtension xmlns:gpxtpx="http://www.garmin.com/xmlschemas/TrackPointExtension/v1">
            <gpxtpx:hr>124</gpxtpx:hr>
          </gpxtpx:TrackPointExtension>
        </extensions>
      </trkpt>
      <trkpt lat="48.74201" lon="1.76383">
        <ele>151</ele>
        <time>2026-01-31T12:04:52Z</time>
        <extensions>
          <gpxtpx:TrackPointExtension xmlns:gpxtpx="http://www.garmin.com/xmlschemas/TrackPointExtension/v1">
            <gpxtpx:hr>124</gpxtpx:hr>
          </gpxtpx:TrackPointExtension>
        </extensions>
      </trkpt>
      <trkpt lat="48.74199" lon="1.76382">
        <ele>151</ele>
        <time>2026-01-31T12:04:54Z</time>
        <extensions>
          <gpxtpx:TrackPointExtension xmlns:gpxtpx="http://www.garmin.com/xmlschemas/TrackPointExtension/v1">
            <gpxtpx:hr>124</gpxtpx:hr>
          </gpxtpx:TrackPointExtension>
        </extensions>
      </trkpt>
      <trkpt lat="48.74197" lon="1.76382">
        <ele>151.2</ele>
        <time>2026-01-31T12:04:56Z</time>
        <extensions>
          <gpxtpx:TrackPointExtension xmlns:gpxtpx="http://www.garmin.com/xmlschemas/TrackPointExtension/v1">
            <gpxtpx:hr>124</gpxtpx:hr>
          </gpxtpx:TrackPointExtension>
        </extensions>
      </trkpt>
      <trkpt lat="48.74195" lon="1.76381">
        <ele>151.4</ele>
        <time>2026-01-31T12:04:58Z</time>
        <extensions>
          <gpxtpx:TrackPointExtension xmlns:gpxtpx="http://www.garmin.com/xmlschemas/TrackPointExtension/v1">
            <gpxtpx:hr>124</gpxtpx:hr>
          </gpxtpx:TrackPointExtension>
        </extensions>
      </trkpt>
      <trkpt lat="48.74192" lon="1.7638">
        <ele>151.4</ele>
        <time>2026-01-31T12:05:00Z</time>
        <extensions>
          <gpxtpx:TrackPointExtension xmlns:gpxtpx="http://www.garmin.com/xmlschemas/TrackPointExtension/v1">
            <gpxtpx:hr>123</gpxtpx:hr>
          </gpxtpx:TrackPointExtension>
        </extensions>
      </trkpt>
      <trkpt lat="48.7419" lon="1.76377">
        <ele>151.6</ele>
        <time>2026-01-31T12:05:03Z</time>
        <extensions>
          <gpxtpx:TrackPointExtension xmlns:gpxtpx="http://www.garmin.com/xmlschemas/TrackPointExtension/v1">
            <gpxtpx:hr>123</gpxtpx:hr>
          </gpxtpx:TrackPointExtension>
        </extensions>
      </trkpt>
      <trkpt lat="48.74188" lon="1.76375">
        <ele>151.6</ele>
        <time>2026-01-31T12:05:05Z</time>
        <extensions>
          <gpxtpx:TrackPointExtension xmlns:gpxtpx="http://www.garmin.com/xmlschemas/TrackPointExtension/v1">
            <gpxtpx:hr>122</gpxtpx:hr>
          </gpxtpx:TrackPointExtension>
        </extensions>
      </trkpt>
      <trkpt lat="48.74186" lon="1.76373">
        <ele>151.6</ele>
        <time>2026-01-31T12:05:07Z</time>
        <extensions>
          <gpxtpx:TrackPointExtension xmlns:gpxtpx="http://www.garmin.com/xmlschemas/TrackPointExtension/v1">
            <gpxtpx:hr>122</gpxtpx:hr>
          </gpxtpx:TrackPointExtension>
        </extensions>
      </trkpt>
      <trkpt lat="48.74183" lon="1.76371">
        <ele>151.6</ele>
        <time>2026-01-31T12:05:09Z</time>
        <extensions>
          <gpxtpx:TrackPointExtension xmlns:gpxtpx="http://www.garmin.com/xmlschemas/TrackPointExtension/v1">
            <gpxtpx:hr>122</gpxtpx:hr>
          </gpxtpx:TrackPointExtension>
        </extensions>
      </trkpt>
      <trkpt lat="48.7418" lon="1.7637">
        <ele>151.8</ele>
        <time>2026-01-31T12:05:11Z</time>
        <extensions>
          <gpxtpx:TrackPointExtension xmlns:gpxtpx="http://www.garmin.com/xmlschemas/TrackPointExtension/v1">
            <gpxtpx:hr>121</gpxtpx:hr>
          </gpxtpx:TrackPointExtension>
        </extensions>
      </trkpt>
      <trkpt lat="48.74177" lon="1.76369">
        <ele>151.6</ele>
        <time>2026-01-31T12:05:13Z</time>
        <extensions>
          <gpxtpx:TrackPointExtension xmlns:gpxtpx="http://www.garmin.com/xmlschemas/TrackPointExtension/v1">
            <gpxtpx:hr>121</gpxtpx:hr>
          </gpxtpx:TrackPointExtension>
        </extensions>
      </trkpt>
      <trkpt lat="48.74174" lon="1.76367">
        <ele>151.6</ele>
        <time>2026-01-31T12:05:15Z</time>
        <extensions>
          <gpxtpx:TrackPointExtension xmlns:gpxtpx="http://www.garmin.com/xmlschemas/TrackPointExtension/v1">
            <gpxtpx:hr>121</gpxtpx:hr>
          </gpxtpx:TrackPointExtension>
        </extensions>
      </trkpt>
      <trkpt lat="48.74172" lon="1.76366">
        <ele>151.6</ele>
        <time>2026-01-31T12:05:17Z</time>
        <extensions>
          <gpxtpx:TrackPointExtension xmlns:gpxtpx="http://www.garmin.com/xmlschemas/TrackPointExtension/v1">
            <gpxtpx:hr>120</gpxtpx:hr>
          </gpxtpx:TrackPointExtension>
        </extensions>
      </trkpt>
      <trkpt lat="48.74168" lon="1.76366">
        <ele>151.6</ele>
        <time>2026-01-31T12:05:19Z</time>
        <extensions>
          <gpxtpx:TrackPointExtension xmlns:gpxtpx="http://www.garmin.com/xmlschemas/TrackPointExtension/v1">
            <gpxtpx:hr>120</gpxtpx:hr>
          </gpxtpx:TrackPointExtension>
        </extensions>
      </trkpt>
      <trkpt lat="48.74166" lon="1.76365">
        <ele>151.6</ele>
        <time>2026-01-31T12:05:21Z</time>
        <extensions>
          <gpxtpx:TrackPointExtension xmlns:gpxtpx="http://www.garmin.com/xmlschemas/TrackPointExtension/v1">
            <gpxtpx:hr>119</gpxtpx:hr>
          </gpxtpx:TrackPointExtension>
        </extensions>
      </trkpt>
      <trkpt lat="48.74163" lon="1.76364">
        <ele>151.6</ele>
        <time>2026-01-31T12:05:23Z</time>
      </trkpt>
      <trkpt lat="48.7416" lon="1.76363">
        <ele>151.8</ele>
        <time>2026-01-31T12:05:25Z</time>
      </trkpt>
      <trkpt lat="48.74157" lon="1.76361">
        <ele>151.8</ele>
        <time>2026-01-31T12:05:27Z</time>
      </trkpt>
      <trkpt lat="48.74154" lon="1.7636">
        <ele>151.8</ele>
        <time>2026-01-31T12:05:29Z</time>
      </trkpt>
      <trkpt lat="48.74152" lon="1.76359">
        <ele>152</ele>
        <time>2026-01-31T12:05:31Z</time>
      </trkpt>
      <trkpt lat="48.74149" lon="1.76358">
        <ele>152</ele>
        <time>2026-01-31T12:05:33Z</time>
      </trkpt>
      <trkpt lat="48.74146" lon="1.76357">
        <ele>152</ele>
        <time>2026-01-31T12:05:35Z</time>
      </trkpt>
      <trkpt lat="48.74143" lon="1.76356">
        <ele>152</ele>
        <time>2026-01-31T12:05:37Z</time>
      </trkpt>
      <trkpt lat="48.7414" lon="1.76356">
        <ele>152</ele>
        <time>2026-01-31T12:05:39Z</time>
      </trkpt>
      <trkpt lat="48.74138" lon="1.76356">
        <ele>151.8</ele>
        <time>2026-01-31T12:05:40Z</time>
      </trkpt>
      <trkpt lat="48.74134" lon="1.76356">
        <ele>151.8</ele>
        <time>2026-01-31T12:05:42Z</time>
      </trkpt>
      <trkpt lat="48.74131" lon="1.76356">
        <ele>151.8</ele>
        <time>2026-01-31T12:05:44Z</time>
      </trkpt>
      <trkpt lat="48.74128" lon="1.76355">
        <ele>152</ele>
        <time>2026-01-31T12:05:46Z</time>
      </trkpt>
      <trkpt lat="48.74126" lon="1.76355">
        <ele>152</ele>
        <time>2026-01-31T12:05:48Z</time>
      </trkpt>
      <trkpt lat="48.74124" lon="1.76356">
        <ele>152</ele>
        <time>2026-01-31T12:05:50Z</time>
      </trkpt>
      <trkpt lat="48.74122" lon="1.76356">
        <ele>152.2</ele>
        <time>2026-01-31T12:05:53Z</time>
      </trkpt>
      <trkpt lat="48.7412" lon="1.76355">
        <ele>152.6</ele>
        <time>2026-01-31T12:05:55Z</time>
      </trkpt>
      <trkpt lat="48.74117" lon="1.76354">
        <ele>152.8</ele>
        <time>2026-01-31T12:05:57Z</time>
      </trkpt>
      <trkpt lat="48.74114" lon="1.76354">
        <ele>153</ele>
        <time>2026-01-31T12:05:59Z</time>
      </trkpt>
      <trkpt lat="48.74112" lon="1.76353">
        <ele>153.2</ele>
        <time>2026-01-31T12:06:01Z</time>
      </trkpt>
      <trkpt lat="48.74109" lon="1.76352">
        <ele>153.6</ele>
        <time>2026-01-31T12:06:04Z</time>
      </trkpt>
      <trkpt lat="48.74107" lon="1.76351">
        <ele>154.2</ele>
        <time>2026-01-31T12:06:08Z</time>
      </trkpt>
      <trkpt lat="48.74105" lon="1.76351">
        <ele>154.4</ele>
        <time>2026-01-31T12:06:11Z</time>
      </trkpt>
      <trkpt lat="48.74103" lon="1.7635">
        <ele>154.8</ele>
        <time>2026-01-31T12:06:13Z</time>
      </trkpt>
      <trkpt lat="48.741" lon="1.7635">
        <ele>155</ele>
        <time>2026-01-31T12:06:16Z</time>
      </trkpt>
      <trkpt lat="48.74098" lon="1.76349">
        <ele>155.6</ele>
        <time>2026-01-31T12:06:19Z</time>
      </trkpt>
      <trkpt lat="48.74096" lon="1.76348">
        <ele>155.8</ele>
        <time>2026-01-31T12:06:21Z</time>
      </trkpt>
      <trkpt lat="48.74094" lon="1.76347">
        <ele>156</ele>
        <time>2026-01-31T12:06:23Z</time>
      </trkpt>
      <trkpt lat="48.7409" lon="1.76346">
        <ele>156.4</ele>
        <time>2026-01-31T12:06:25Z</time>
      </trkpt>
      <trkpt lat="48.74088" lon="1.76346">
        <ele>156.4</ele>
        <time>2026-01-31T12:06:26Z</time>
      </trkpt>
      <trkpt lat="48.74085" lon="1.76345">
        <ele>156.8</ele>
        <time>2026-01-31T12:06:28Z</time>
      </trkpt>
      <trkpt lat="48.74083" lon="1.76344">
        <ele>157</ele>
        <time>2026-01-31T12:06:30Z</time>
      </trkpt>
      <trkpt lat="48.7408" lon="1.76344">
        <ele>157.2</ele>
        <time>2026-01-31T12:06:32Z</time>
      </trkpt>
      <trkpt lat="48.74078" lon="1.76345">
        <ele>157.6</ele>
        <time>2026-01-31T12:06:34Z</time>
      </trkpt>
      <trkpt lat="48.74076" lon="1.76344">
        <ele>157.8</ele>
        <time>2026-01-31T12:06:36Z</time>
      </trkpt>
      <trkpt lat="48.74074" lon="1.76344">
        <ele>158.2</ele>
        <time>2026-01-31T12:06:38Z</time>
      </trkpt>
      <trkpt lat="48.74071" lon="1.76343">
        <ele>158.8</ele>
        <time>2026-01-31T12:06:40Z</time>
      </trkpt>
      <trkpt lat="48.74068" lon="1.76343">
        <ele>159</ele>
        <time>2026-01-31T12:06:41Z</time>
      </trkpt>
      <trkpt lat="48.74067" lon="1.76343">
        <ele>159.2</ele>
        <time>2026-01-31T12:06:42Z</time>
      </trkpt>
      <trkpt lat="48.74064" lon="1.76343">
        <ele>159.4</ele>
        <time>2026-01-31T12:06:43Z</time>
      </trkpt>
      <trkpt lat="48.74061" lon="1.76343">
        <ele>159.6</ele>
        <time>2026-01-31T12:06:44Z</time>
      </trkpt>
      <trkpt lat="48.74059" lon="1.76343">
        <ele>159.8</ele>
        <time>2026-01-31T12:06:45Z</time>
      </trkpt>
      <trkpt lat="48.74055" lon="1.76343">
        <ele>160</ele>
        <time>2026-01-31T12:06:46Z</time>
      </trkpt>
      <trkpt lat="48.74052" lon="1.76344">
        <ele>160</ele>
        <time>2026-01-31T12:06:47Z</time>
      </trkpt>
      <trkpt lat="48.74048" lon="1.76344">
        <ele>160.2</ele>
        <time>2026-01-31T12:06:48Z</time>
      </trkpt>
      <trkpt lat="48.74045" lon="1.76345">
        <ele>160.4</ele>
        <time>2026-01-31T12:06:49Z</time>
      </trkpt>
      <trkpt lat="48.74041" lon="1.76346">
        <ele>160.6</ele>
        <time>2026-01-31T12:06:50Z</time>
      </trkpt>
      <trkpt lat="48.74038" lon="1.76347">
        <ele>160.6</ele>
        <time>2026-01-31T12:06:51Z</time>
      </trkpt>
      <trkpt lat="48.74035" lon="1.76349">
        <ele>160.8</ele>
        <time>2026-01-31T12:06:52Z</time>
      </trkpt>
      <trkpt lat="48.74032" lon="1.7635">
        <ele>161</ele>
        <time>2026-01-31T12:06:53Z</time>
      </trkpt>
      <trkpt lat="48.74028" lon="1.76352">
        <ele>161.2</ele>
        <time>2026-01-31T12:06:54Z</time>
      </trkpt>
      <trkpt lat="48.74024" lon="1.76354">
        <ele>161.4</ele>
        <time>2026-01-31T12:06:55Z</time>
      </trkpt>
      <trkpt lat="48.7402" lon="1.76356">
        <ele>161.4</ele>
        <time>2026-01-31T12:06:56Z</time>
      </trkpt>
      <trkpt lat="48.74015" lon="1.76358">
        <ele>161.6</ele>
        <time>2026-01-31T12:06:57Z</time>
      </trkpt>
      <trkpt lat="48.74011" lon="1.7636">
        <ele>161.8</ele>
        <time>2026-01-31T12:06:58Z</time>
      </trkpt>
      <trkpt lat="48.74005" lon="1.76362">
        <ele>161.8</ele>
        <time>2026-01-31T12:06:59Z</time>
      </trkpt>
      <trkpt lat="48.74001" lon="1.76363">
        <ele>162</ele>
        <time>2026-01-31T12:07:00Z</time>
      </trkpt>
      <trkpt lat="48.73996" lon="1.76364">
        <ele>162</ele>
        <time>2026-01-31T12:07:01Z</time>
      </trkpt>
      <trkpt lat="48.73991" lon="1.76364">
        <ele>162.2</ele>
        <time>2026-01-31T12:07:02Z</time>
      </trkpt>
      <trkpt lat="48.73986" lon="1.76365">
        <ele>162.4</ele>
        <time>2026-01-31T12:07:03Z</time>
      </trkpt>
      <trkpt lat="48.73981" lon="1.76365">
        <ele>162.4</ele>
        <time>2026-01-31T12:07:04Z</time>
      </trkpt>
      <trkpt lat="48.73976" lon="1.76365">
        <ele>162.6</ele>
        <time>2026-01-31T12:07:05Z</time>
      </trkpt>
      <trkpt lat="48.73971" lon="1.76365">
        <ele>162.8</ele>
        <time>2026-01-31T12:07:06Z</time>
      </trkpt>
      <trkpt lat="48.73965" lon="1.76366">
        <ele>162.8</ele>
        <time>2026-01-31T12:07:07Z</time>
      </trkpt>
      <trkpt lat="48.73961" lon="1.76367">
        <ele>163</ele>
        <time>2026-01-31T12:07:08Z</time>
      </trkpt>
      <trkpt lat="48.73955" lon="1.76368">
        <ele>163.2</ele>
        <time>2026-01-31T12:07:09Z</time>
      </trkpt>
      <trkpt lat="48.7395" lon="1.7637">
        <ele>163.4</ele>
        <time>2026-01-31T12:07:10Z</time>
      </trkpt>
      <trkpt lat="48.73945" lon="1.76371">
        <ele>163.6</ele>
        <time>2026-01-31T12:07:11Z</time>
      </trkpt>
      <trkpt lat="48.73941" lon="1.76373">
        <ele>163.8</ele>
        <time>2026-01-31T12:07:12Z</time>
      </trkpt>
      <trkpt lat="48.73936" lon="1.76374">
        <ele>164</ele>
        <time>2026-01-31T12:07:13Z</time>
      </trkpt>
      <trkpt lat="48.73931" lon="1.76375">
        <ele>164.2</ele>
        <time>2026-01-31T12:07:14Z</time>
      </trkpt>
      <trkpt lat="48.73926" lon="1.76377">
        <ele>164.4</ele>
        <time>2026-01-31T12:07:15Z</time>
      </trkpt>
      <trkpt lat="48.73922" lon="1.76378">
        <ele>164.6</ele>
        <time>2026-01-31T12:07:16Z</time>
      </trkpt>
      <trkpt lat="48.73917" lon="1.76379">
        <ele>164.8</ele>
        <time>2026-01-31T12:07:17Z</time>
      </trkpt>
      <trkpt lat="48.73912" lon="1.7638">
        <ele>164.8</ele>
        <time>2026-01-31T12:07:18Z</time>
      </trkpt>
      <trkpt lat="48.73907" lon="1.76381">
        <ele>165</ele>
        <time>2026-01-31T12:07:19Z</time>
      </trkpt>
      <trkpt lat="48.73902" lon="1.76383">
        <ele>165</ele>
        <time>2026-01-31T12:07:20Z</time>
      </trkpt>
      <trkpt lat="48.73897" lon="1.76384">
        <ele>165.2</ele>
        <time>2026-01-31T12:07:21Z</time>
      </trkpt>
      <trkpt lat="48.73891" lon="1.76385">
        <ele>165.2</ele>
        <time>2026-01-31T12:07:22Z</time>
      </trkpt>
      <trkpt lat="48.73886" lon="1.76385">
        <ele>165.4</ele>
        <time>2026-01-31T12:07:23Z</time>
      </trkpt>
      <trkpt lat="48.73881" lon="1.76386">
        <ele>165.4</ele>
        <time>2026-01-31T12:07:24Z</time>
      </trkpt>
      <trkpt lat="48.73876" lon="1.76386">
        <ele>165.6</ele>
        <time>2026-01-31T12:07:25Z</time>
      </trkpt>
      <trkpt lat="48.73872" lon="1.76386">
        <ele>165.6</ele>
        <time>2026-01-31T12:07:26Z</time>
      </trkpt>
      <trkpt lat="48.73868" lon="1.76386">
        <ele>165.8</ele>
        <time>2026-01-31T12:07:27Z</time>
      </trkpt>
      <trkpt lat="48.73865" lon="1.76386">
        <ele>166</ele>
        <time>2026-01-31T12:07:28Z</time>
      </trkpt>
      <trkpt lat="48.73862" lon="1.76386">
        <ele>166</ele>
        <time>2026-01-31T12:07:29Z</time>
      </trkpt>
      <trkpt lat="48.73859" lon="1.76385">
        <ele>166.2</ele>
        <time>2026-01-31T12:07:30Z</time>
      </trkpt>
      <trkpt lat="48.73856" lon="1.76385">
        <ele>166.2</ele>
        <time>2026-01-31T12:07:31Z</time>
      </trkpt>
      <trkpt lat="48.73853" lon="1.76385">
        <ele>166.4</ele>
        <time>2026-01-31T12:07:32Z</time>
      </trkpt>
      <trkpt lat="48.7385" lon="1.76385">
        <ele>166.4</ele>
        <time>2026-01-31T12:07:33Z</time>
      </trkpt>
      <trkpt lat="48.73847" lon="1.76385">
        <ele>166.6</ele>
        <time>2026-01-31T12:07:34Z</time>
      </trkpt>
      <trkpt lat="48.73844" lon="1.76385">
        <ele>166.8</ele>
        <time>2026-01-31T12:07:35Z</time>
      </trkpt>
      <trkpt lat="48.73842" lon="1.76384">
        <ele>167</ele>
        <time>2026-01-31T12:07:36Z</time>
      </trkpt>
      <trkpt lat="48.7384" lon="1.76383">
        <ele>167.2</ele>
        <time>2026-01-31T12:07:37Z</time>
      </trkpt>
      <trkpt lat="48.73837" lon="1.76382">
        <ele>167.4</ele>
        <time>2026-01-31T12:07:38Z</time>
      </trkpt>
      <trkpt lat="48.73835" lon="1.76379">
        <ele>167.4</ele>
        <time>2026-01-31T12:07:39Z</time>
      </trkpt>
      <trkpt lat="48.73833" lon="1.76377">
        <ele>167.6</ele>
        <time>2026-01-31T12:07:40Z</time>
      </trkpt>
      <trkpt lat="48.73831" lon="1.76374">
        <ele>167.6</ele>
        <time>2026-01-31T12:07:41Z</time>
      </trkpt>
      <trkpt lat="48.73829" lon="1.76371">
        <ele>167.8</ele>
        <time>2026-01-31T12:07:42Z</time>
      </trkpt>
      <trkpt lat="48.73828" lon="1.76368">
        <ele>168</ele>
        <time>2026-01-31T12:07:43Z</time>
      </trkpt>
      <trkpt lat="48.73827" lon="1.76364">
        <ele>168</ele>
        <time>2026-01-31T12:07:44Z</time>
      </trkpt>
      <trkpt lat="48.73826" lon="1.76361">
        <ele>168.2</ele>
        <time>2026-01-31T12:07:45Z</time>
      </trkpt>
      <trkpt lat="48.73825" lon="1.76358">
        <ele>168.4</ele>
        <time>2026-01-31T12:07:46Z</time>
      </trkpt>
      <trkpt lat="48.73825" lon="1.76354">
        <ele>168.6</ele>
        <time>2026-01-31T12:07:47Z</time>
      </trkpt>
      <trkpt lat="48.73826" lon="1.76351">
        <ele>168.8</ele>
        <time>2026-01-31T12:07:48Z</time>
      </trkpt>
      <trkpt lat="48.73826" lon="1.76348">
        <ele>169</ele>
        <time>2026-01-31T12:07:49Z</time>
      </trkpt>
      <trkpt lat="48.73827" lon="1.76344">
        <ele>169.2</ele>
        <time>2026-01-31T12:07:50Z</time>
      </trkpt>
      <trkpt lat="48.73828" lon="1.7634">
        <ele>169.4</ele>
        <time>2026-01-31T12:07:51Z</time>
      </trkpt>
      <trkpt lat="48.73828" lon="1.76336">
        <ele>169.6</ele>
        <time>2026-01-31T12:07:52Z</time>
      </trkpt>
      <trkpt lat="48.73828" lon="1.76331">
        <ele>169.8</ele>
        <time>2026-01-31T12:07:53Z</time>
      </trkpt>
      <trkpt lat="48.73829" lon="1.76325">
        <ele>170</ele>
        <time>2026-01-31T12:07:54Z</time>
      </trkpt>
      <trkpt lat="48.7383" lon="1.76319">
        <ele>170.2</ele>
        <time>2026-01-31T12:07:55Z</time>
      </trkpt>
      <trkpt lat="48.7383" lon="1.76313">
        <ele>170.4</ele>
        <time>2026-01-31T12:07:56Z</time>
      </trkpt>
      <trkpt lat="48.73832" lon="1.76306">
        <ele>170.6</ele>
        <time>2026-01-31T12:07:57Z</time>
      </trkpt>
      <trkpt lat="48.73832" lon="1.76299">
        <ele>170.8</ele>
        <time>2026-01-31T12:07:58Z</time>
      </trkpt>
      <trkpt lat="48.73834" lon="1.76292">
        <ele>171</ele>
        <time>2026-01-31T12:07:59Z</time>
      </trkpt>
      <trkpt lat="48.73834" lon="1.76285">
        <ele>171.2</ele>
        <time>2026-01-31T12:08:00Z</time>
      </trkpt>
      <trkpt lat="48.73836" lon="1.76279">
        <ele>171.4</ele>
        <time>2026-01-31T12:08:01Z</time>
      </trkpt>
      <trkpt lat="48.73836" lon="1.76272">
        <ele>171.6</ele>
        <time>2026-01-31T12:08:02Z</time>
      </trkpt>
      <trkpt lat="48.73837" lon="1.76266">
        <ele>171.8</ele>
        <time>2026-01-31T12:08:03Z</time>
      </trkpt>
      <trkpt lat="48.73838" lon="1.7626">
        <ele>171.8</ele>
        <time>2026-01-31T12:08:04Z</time>
      </trkpt>
      <trkpt lat="48.7384" lon="1.76254">
        <ele>172</ele>
        <time>2026-01-31T12:08:05Z</time>
      </trkpt>
      <trkpt lat="48.73841" lon="1.76248">
        <ele>172.2</ele>
        <time>2026-01-31T12:08:06Z</time>
      </trkpt>
      <trkpt lat="48.73843" lon="1.76242">
        <ele>172.2</ele>
        <time>2026-01-31T12:08:07Z</time>
      </trkpt>
      <trkpt lat="48.73844" lon="1.76236">
        <ele>172.4</ele>
        <time>2026-01-31T12:08:08Z</time>
      </trkpt>
      <trkpt lat="48.73845" lon="1.76229">
        <ele>172.4</ele>
        <time>2026-01-31T12:08:09Z</time>
      </trkpt>
      <trkpt lat="48.73846" lon="1.76221">
        <ele>172.6</ele>
        <time>2026-01-31T12:08:10Z</time>
      </trkpt>
      <trkpt lat="48.73848" lon="1.76214">
        <ele>172.6</ele>
        <time>2026-01-31T12:08:11Z</time>
      </trkpt>
      <trkpt lat="48.73849" lon="1.76207">
        <ele>172.8</ele>
        <time>2026-01-31T12:08:12Z</time>
      </trkpt>
      <trkpt lat="48.73851" lon="1.762">
        <ele>172.8</ele>
        <time>2026-01-31T12:08:13Z</time>
      </trkpt>
      <trkpt lat="48.73853" lon="1.76193">
        <ele>173</ele>
        <time>2026-01-31T12:08:14Z</time>
      </trkpt>
      <trkpt lat="48.73855" lon="1.76186">
        <ele>173</ele>
        <time>2026-01-31T12:08:15Z</time>
      </trkpt>
      <trkpt lat="48.73857" lon="1.7618">
        <ele>173.2</ele>
        <time>2026-01-31T12:08:16Z</time>
      </trkpt>
      <trkpt lat="48.73859" lon="1.76173">
        <ele>173.2</ele>
        <time>2026-01-31T12:08:17Z</time>
      </trkpt>
      <trkpt lat="48.73861" lon="1.76167">
        <ele>173.4</ele>
        <time>2026-01-31T12:08:18Z</time>
      </trkpt>
      <trkpt lat="48.73863" lon="1.76159">
        <ele>173.4</ele>
        <time>2026-01-31T12:08:19Z</time>
      </trkpt>
      <trkpt lat="48.73864" lon="1.76152">
        <ele>173.4</ele>
        <time>2026-01-31T12:08:20Z</time>
      </trkpt>
      <trkpt lat="48.73865" lon="1.76144">
        <ele>173.6</ele>
        <time>2026-01-31T12:08:21Z</time>
      </trkpt>
      <trkpt lat="48.73865" lon="1.76136">
        <ele>173.6</ele>
        <time>2026-01-31T12:08:22Z</time>
      </trkpt>
      <trkpt lat="48.73866" lon="1.76128">
        <ele>173.6</ele>
        <time>2026-01-31T12:08:23Z</time>
      </trkpt>
      <trkpt lat="48.73867" lon="1.7612">
        <ele>173.6</ele>
        <time>2026-01-31T12:08:24Z</time>
      </trkpt>
      <trkpt lat="48.73868" lon="1.76113">
        <ele>173.6</ele>
        <time>2026-01-31T12:08:25Z</time>
      </trkpt>
      <trkpt lat="48.73868" lon="1.76105">
        <ele>173.8</ele>
        <time>2026-01-31T12:08:26Z</time>
      </trkpt>
      <trkpt lat="48.73869" lon="1.76098">
        <ele>173.8</ele>
        <time>2026-01-31T12:08:27Z</time>
      </trkpt>
      <trkpt lat="48.7387" lon="1.7609">
        <ele>173.8</ele>
        <time>2026-01-31T12:08:28Z</time>
      </trkpt>
      <trkpt lat="48.7387" lon="1.76083">
        <ele>174</ele>
        <time>2026-01-31T12:08:29Z</time>
      </trkpt>
      <trkpt lat="48.73871" lon="1.76075">
        <ele>174</ele>
        <time>2026-01-31T12:08:30Z</time>
      </trkpt>
      <trkpt lat="48.73872" lon="1.76066">
        <ele>174.2</ele>
        <time>2026-01-31T12:08:31Z</time>
      </trkpt>
      <trkpt lat="48.73873" lon="1.76058">
        <ele>174.2</ele>
        <time>2026-01-31T12:08:32Z</time>
      </trkpt>
      <trkpt lat="48.73874" lon="1.7605">
        <ele>174.2</ele>
        <time>2026-01-31T12:08:33Z</time>
      </trkpt>
      <trkpt lat="48.73876" lon="1.76041">
        <ele>174.4</ele>
        <time>2026-01-31T12:08:34Z</time>
      </trkpt>
      <trkpt lat="48.73878" lon="1.76032">
        <ele>174.4</ele>
        <time>2026-01-31T12:08:35Z</time>
      </trkpt>
      <trkpt lat="48.7388" lon="1.76023">
        <ele>174.6</ele>
        <time>2026-01-31T12:08:36Z</time>
      </trkpt>
      <trkpt lat="48.73883" lon="1.76014">
        <ele>174.6</ele>
        <time>2026-01-31T12:08:37Z</time>
      </trkpt>
      <trkpt lat="48.73885" lon="1.76005">
        <ele>174.8</ele>
        <time>2026-01-31T12:08:38Z</time>
      </trkpt>
      <trkpt lat="48.73888" lon="1.75997">
        <ele>174.8</ele>
        <time>2026-01-31T12:08:39Z</time>
      </trkpt>
      <trkpt lat="48.73892" lon="1.75988">
        <ele>175</ele>
        <time>2026-01-31T12:08:40Z</time>
      </trkpt>
      <trkpt lat="48.73894" lon="1.75981">
        <ele>175</ele>
        <time>2026-01-31T12:08:41Z</time>
      </trkpt>
      <trkpt lat="48.73897" lon="1.75973">
        <ele>175</ele>
        <time>2026-01-31T12:08:42Z</time>
      </trkpt>
      <trkpt lat="48.739" lon="1.75966">
        <ele>175.2</ele>
        <time>2026-01-31T12:08:43Z</time>
      </trkpt>
      <trkpt lat="48.73901" lon="1.75959">
        <ele>175.2</ele>
        <time>2026-01-31T12:08:44Z</time>
      </trkpt>
      <trkpt lat="48.73903" lon="1.75952">
        <ele>175.4</ele>
        <time>2026-01-31T12:08:45Z</time>
      </trkpt>
      <trkpt lat="48.73904" lon="1.75946">
        <ele>175.4</ele>
        <time>2026-01-31T12:08:46Z</time>
      </trkpt>
      <trkpt lat="48.73905" lon="1.75939">
        <ele>175.4</ele>
        <time>2026-01-31T12:08:47Z</time>
      </trkpt>
      <trkpt lat="48.73906" lon="1.75932">
        <ele>175.4</ele>
        <time>2026-01-31T12:08:48Z</time>
      </trkpt>
      <trkpt lat="48.73906" lon="1.75925">
        <ele>175.6</ele>
        <time>2026-01-31T12:08:49Z</time>
      </trkpt>
      <trkpt lat="48.73908" lon="1.75918">
        <ele>175.6</ele>
        <time>2026-01-31T12:08:50Z</time>
      </trkpt>
      <trkpt lat="48.73909" lon="1.75911">
        <ele>175.6</ele>
        <time>2026-01-31T12:08:51Z</time>
      </trkpt>
      <trkpt lat="48.7391" lon="1.75904">
        <ele>175.6</ele>
        <time>2026-01-31T12:08:52Z</time>
      </trkpt>
      <trkpt lat="48.73912" lon="1.75896">
        <ele>175.6</ele>
        <time>2026-01-31T12:08:53Z</time>
      </trkpt>
      <trkpt lat="48.73914" lon="1.75889">
        <ele>175.8</ele>
        <time>2026-01-31T12:08:54Z</time>
      </trkpt>
      <trkpt lat="48.73915" lon="1.75881">
        <ele>175.8</ele>
        <time>2026-01-31T12:08:55Z</time>
      </trkpt>
      <trkpt lat="48.73916" lon="1.75873">
        <ele>175.8</ele>
        <time>2026-01-31T12:08:56Z</time>
      </trkpt>
      <trkpt lat="48.73918" lon="1.75865">
        <ele>175.8</ele>
        <time>2026-01-31T12:08:57Z</time>
      </trkpt>
      <trkpt lat="48.73919" lon="1.75857">
        <ele>175.8</ele>
        <time>2026-01-31T12:08:58Z</time>
      </trkpt>
      <trkpt lat="48.73921" lon="1.7585">
        <ele>175.8</ele>
        <time>2026-01-31T12:08:59Z</time>
      </trkpt>
      <trkpt lat="48.73922" lon="1.75843">
        <ele>175.8</ele>
        <time>2026-01-31T12:09:00Z</time>
      </trkpt>
      <trkpt lat="48.73924" lon="1.75836">
        <ele>175.8</ele>
        <time>2026-01-31T12:09:01Z</time>
      </trkpt>
      <trkpt lat="48.73925" lon="1.75829">
        <ele>175.8</ele>
        <time>2026-01-31T12:09:02Z</time>
      </trkpt>
      <trkpt lat="48.73926" lon="1.75822">
        <ele>175.8</ele>
        <time>2026-01-31T12:09:03Z</time>
      </trkpt>
      <trkpt lat="48.73928" lon="1.75815">
        <ele>175.8</ele>
        <time>2026-01-31T12:09:04Z</time>
      </trkpt>
      <trkpt lat="48.73929" lon="1.75808">
        <ele>175.8</ele>
        <time>2026-01-31T12:09:05Z</time>
      </trkpt>
      <trkpt lat="48.7393" lon="1.758">
        <ele>175.8</ele>
        <time>2026-01-31T12:09:06Z</time>
      </trkpt>
      <trkpt lat="48.73932" lon="1.75793">
        <ele>175.8</ele>
        <time>2026-01-31T12:09:07Z</time>
      </trkpt>
      <trkpt lat="48.73932" lon="1.75785">
        <ele>175.8</ele>
        <time>2026-01-31T12:09:08Z</time>
      </trkpt>
      <trkpt lat="48.73933" lon="1.75778">
        <ele>175.8</ele>
        <time>2026-01-31T12:09:09Z</time>
      </trkpt>
      <trkpt lat="48.73934" lon="1.75771">
        <ele>175.6</ele>
        <time>2026-01-31T12:09:10Z</time>
      </trkpt>
      <trkpt lat="48.73934" lon="1.75765">
        <ele>175.6</ele>
        <time>2026-01-31T12:09:11Z</time>
      </trkpt>
      <trkpt lat="48.73935" lon="1.75758">
        <ele>175.6</ele>
        <time>2026-01-31T12:09:12Z</time>
      </trkpt>
      <trkpt lat="48.73936" lon="1.75751">
        <ele>175.6</ele>
        <time>2026-01-31T12:09:13Z</time>
      </trkpt>
      <trkpt lat="48.73937" lon="1.75745">
        <ele>175.6</ele>
        <time>2026-01-31T12:09:14Z</time>
      </trkpt>
      <trkpt lat="48.73939" lon="1.75738">
        <ele>175.6</ele>
        <time>2026-01-31T12:09:15Z</time>
      </trkpt>
      <trkpt lat="48.73941" lon="1.75731">
        <ele>175.6</ele>
        <time>2026-01-31T12:09:16Z</time>
      </trkpt>
      <trkpt lat="48.73943" lon="1.75724">
        <ele>175.6</ele>
        <time>2026-01-31T12:09:17Z</time>
      </trkpt>
      <trkpt lat="48.73944" lon="1.75717">
        <ele>175.6</ele>
        <time>2026-01-31T12:09:18Z</time>
      </trkpt>
      <trkpt lat="48.73946" lon="1.7571">
        <ele>175.6</ele>
        <time>2026-01-31T12:09:19Z</time>
      </trkpt>
      <trkpt lat="48.73948" lon="1.75703">
        <ele>175.6</ele>
        <time>2026-01-31T12:09:20Z</time>
      </trkpt>
      <trkpt lat="48.7395" lon="1.75696">
        <ele>175.6</ele>
        <time>2026-01-31T12:09:21Z</time>
      </trkpt>
      <trkpt lat="48.73952" lon="1.75689">
        <ele>175.6</ele>
        <time>2026-01-31T12:09:22Z</time>
      </trkpt>
      <trkpt lat="48.73954" lon="1.75682">
        <ele>175.6</ele>
        <time>2026-01-31T12:09:23Z</time>
      </trkpt>
      <trkpt lat="48.73955" lon="1.75676">
        <ele>175.8</ele>
        <time>2026-01-31T12:09:24Z</time>
      </trkpt>
      <trkpt lat="48.73957" lon="1.7567">
        <ele>175.8</ele>
        <time>2026-01-31T12:09:25Z</time>
      </trkpt>
      <trkpt lat="48.73959" lon="1.75664">
        <ele>175.8</ele>
        <time>2026-01-31T12:09:26Z</time>
      </trkpt>
      <trkpt lat="48.7396" lon="1.75659">
        <ele>175.8</ele>
        <time>2026-01-31T12:09:27Z</time>
      </trkpt>
      <trkpt lat="48.73961" lon="1.75654">
        <ele>175.8</ele>
        <time>2026-01-31T12:09:28Z</time>
      </trkpt>
      <trkpt lat="48.73961" lon="1.7565">
        <ele>175.8</ele>
        <time>2026-01-31T12:09:29Z</time>
      </trkpt>
      <trkpt lat="48.73959" lon="1.75647">
        <ele>175.8</ele>
        <time>2026-01-31T12:09:30Z</time>
      </trkpt>
      <trkpt lat="48.73957" lon="1.75643">
        <ele>175.8</ele>
        <time>2026-01-31T12:09:31Z</time>
      </trkpt>
      <trkpt lat="48.73955" lon="1.75641">
        <ele>175.8</ele>
        <time>2026-01-31T12:09:32Z</time>
      </trkpt>
      <trkpt lat="48.73952" lon="1.75638">
        <ele>175.8</ele>
        <time>2026-01-31T12:09:33Z</time>
      </trkpt>
      <trkpt lat="48.73948" lon="1.75636">
        <ele>176</ele>
        <time>2026-01-31T12:09:34Z</time>
      </trkpt>
      <trkpt lat="48.73945" lon="1.75635">
        <ele>176</ele>
        <time>2026-01-31T12:09:35Z</time>
      </trkpt>
      <trkpt lat="48.73941" lon="1.75633">
        <ele>176</ele>
        <time>2026-01-31T12:09:36Z</time>
      </trkpt>
      <trkpt lat="48.73938" lon="1.75632">
        <ele>176</ele>
        <time>2026-01-31T12:09:37Z</time>
      </trkpt>
      <trkpt lat="48.73935" lon="1.7563">
        <ele>176</ele>
        <time>2026-01-31T12:09:38Z</time>
      </trkpt>
      <trkpt lat="48.73933" lon="1.75629">
        <ele>176.2</ele>
        <time>2026-01-31T12:09:39Z</time>
      </trkpt>
      <trkpt lat="48.7393" lon="1.75628">
        <ele>176.2</ele>
        <time>2026-01-31T12:09:40Z</time>
      </trkpt>
      <trkpt lat="48.73927" lon="1.75626">
        <ele>176.2</ele>
        <time>2026-01-31T12:09:41Z</time>
      </trkpt>
      <trkpt lat="48.73924" lon="1.75625">
        <ele>176.2</ele>
        <time>2026-01-31T12:09:42Z</time>
      </trkpt>
      <trkpt lat="48.73921" lon="1.75623">
        <ele>176.2</ele>
        <time>2026-01-31T12:09:43Z</time>
      </trkpt>
      <trkpt lat="48.73918" lon="1.75621">
        <ele>176.4</ele>
        <time>2026-01-31T12:09:44Z</time>
      </trkpt>
      <trkpt lat="48.73916" lon="1.75619">
        <ele>176.4</ele>
        <time>2026-01-31T12:09:45Z</time>
      </trkpt>
      <trkpt lat="48.73914" lon="1.75618">
        <ele>176.4</ele>
        <time>2026-01-31T12:09:46Z</time>
      </trkpt>
      <trkpt lat="48.73911" lon="1.75616">
        <ele>176.4</ele>
        <time>2026-01-31T12:09:47Z</time>
      </trkpt>
      <trkpt lat="48.73908" lon="1.75614">
        <ele>176.6</ele>
        <time>2026-01-31T12:09:48Z</time>
      </trkpt>
      <trkpt lat="48.73906" lon="1.75613">
        <ele>176.6</ele>
        <time>2026-01-31T12:09:49Z</time>
      </trkpt>
      <trkpt lat="48.73902" lon="1.75612">
        <ele>176.8</ele>
        <time>2026-01-31T12:09:50Z</time>
      </trkpt>
      <trkpt lat="48.739" lon="1.75611">
        <ele>176.8</ele>
        <time>2026-01-31T12:09:51Z</time>
      </trkpt>
      <trkpt lat="48.73896" lon="1.7561">
        <ele>176.8</ele>
        <time>2026-01-31T12:09:52Z</time>
      </trkpt>
      <trkpt lat="48.73894" lon="1.75609">
        <ele>177</ele>
        <time>2026-01-31T12:09:53Z</time>
      </trkpt>
      <trkpt lat="48.73891" lon="1.75608">
        <ele>177</ele>
        <time>2026-01-31T12:09:54Z</time>
      </trkpt>
      <trkpt lat="48.73888" lon="1.75607">
        <ele>177.2</ele>
        <time>2026-01-31T12:09:55Z</time>
      </trkpt>
      <trkpt lat="48.73886" lon="1.75606">
        <ele>177.2</ele>
        <time>2026-01-31T12:09:56Z</time>
      </trkpt>
      <trkpt lat="48.73884" lon="1.75604">
        <ele>177.2</ele>
        <time>2026-01-31T12:09:57Z</time>
      </trkpt>
      <trkpt lat="48.73882" lon="1.75603">
        <ele>177.4</ele>
        <time>2026-01-31T12:09:58Z</time>
      </trkpt>
      <trkpt lat="48.73879" lon="1.75601">
        <ele>177.4</ele>
        <time>2026-01-31T12:09:59Z</time>
      </trkpt>
      <trkpt lat="48.73876" lon="1.75599">
        <ele>177.6</ele>
        <time>2026-01-31T12:10:00Z</time>
      </trkpt>
      <trkpt lat="48.73873" lon="1.75598">
        <ele>177.6</ele>
        <time>2026-01-31T12:10:01Z</time>
      </trkpt>
      <trkpt lat="48.7387" lon="1.75597">
        <ele>177.8</ele>
        <time>2026-01-31T12:10:02Z</time>
      </trkpt>
      <trkpt lat="48.73866" lon="1.75596">
        <ele>177.8</ele>
        <time>2026-01-31T12:10:03Z</time>
      </trkpt>
      <trkpt lat="48.73863" lon="1.75596">
        <ele>178</ele>
        <time>2026-01-31T12:10:04Z</time>
      </trkpt>
      <trkpt lat="48.7386" lon="1.75595">
        <ele>178</ele>
        <time>2026-01-31T12:10:05Z</time>
      </trkpt>
      <trkpt lat="48.73856" lon="1.75594">
        <ele>178.2</ele>
        <time>2026-01-31T12:10:06Z</time>
      </trkpt>
      <trkpt lat="48.73852" lon="1.75593">
        <ele>178.2</ele>
        <time>2026-01-31T12:10:07Z</time>
      </trkpt>
      <trkpt lat="48.73849" lon="1.75592">
        <ele>178.4</ele>
        <time>2026-01-31T12:10:08Z</time>
      </trkpt>
      <trkpt lat="48.73845" lon="1.75592">
        <ele>178.4</ele>
        <time>2026-01-31T12:10:09Z</time>
      </trkpt>
      <trkpt lat="48.73841" lon="1.75591">
        <ele>178.6</ele>
        <time>2026-01-31T12:10:10Z</time>
      </trkpt>
      <trkpt lat="48.73837" lon="1.75591">
        <ele>178.6</ele>
        <time>2026-01-31T12:10:11Z</time>
      </trkpt>
      <trkpt lat="48.73833" lon="1.75591">
        <ele>178.8</ele>
        <time>2026-01-31T12:10:12Z</time>
      </trkpt>
      <trkpt lat="48.7383" lon="1.75591">
        <ele>178.8</ele>
        <time>2026-01-31T12:10:13Z</time>
      </trkpt>
      <trkpt lat="48.73826" lon="1.7559">
        <ele>179</ele>
        <time>2026-01-31T12:10:14Z</time>
      </trkpt>
      <trkpt lat="48.73823" lon="1.7559">
        <ele>179.2</ele>
        <time>2026-01-31T12:10:15Z</time>
      </trkpt>
      <trkpt lat="48.7382" lon="1.75589">
        <ele>179.2</ele>
        <time>2026-01-31T12:10:16Z</time>
      </trkpt>
      <trkpt lat="48.73818" lon="1.75588">
        <ele>179.4</ele>
        <time>2026-01-31T12:10:17Z</time>
      </trkpt>
      <trkpt lat="48.73815" lon="1.75587">
        <ele>179.6</ele>
        <time>2026-01-31T12:10:18Z</time>
      </trkpt>
      <trkpt lat="48.73812" lon="1.75586">
        <ele>179.6</ele>
        <time>2026-01-31T12:10:19Z</time>
      </trkpt>
      <trkpt lat="48.73809" lon="1.75585">
        <ele>179.8</ele>
        <time>2026-01-31T12:10:20Z</time>
      </trkpt>
      <trkpt lat="48.73806" lon="1.75583">
        <ele>180</ele>
        <time>2026-01-31T12:10:21Z</time>
      </trkpt>
      <trkpt lat="48.73803" lon="1.75582">
        <ele>180</ele>
        <time>2026-01-31T12:10:22Z</time>
      </trkpt>
      <trkpt lat="48.73799" lon="1.75581">
        <ele>180</ele>
        <time>2026-01-31T12:10:23Z</time>
      </trkpt>
      <trkpt lat="48.73796" lon="1.7558">
        <ele>180.2</ele>
        <time>2026-01-31T12:10:24Z</time>
      </trkpt>
      <trkpt lat="48.73793" lon="1.75579">
        <ele>180.2</ele>
        <time>2026-01-31T12:10:25Z</time>
      </trkpt>
      <trkpt lat="48.73789" lon="1.75577">
        <ele>180.4</ele>
        <time>2026-01-31T12:10:26Z</time>
      </trkpt>
      <trkpt lat="48.73786" lon="1.75576">
        <ele>180.4</ele>
        <time>2026-01-31T12:10:27Z</time>
      </trkpt>
      <trkpt lat="48.73783" lon="1.75575">
        <ele>180.6</ele>
        <time>2026-01-31T12:10:28Z</time>
      </trkpt>
      <trkpt lat="48.7378" lon="1.75574">
        <ele>180.6</ele>
        <time>2026-01-31T12:10:29Z</time>
      </trkpt>
      <trkpt lat="48.73777" lon="1.75573">
        <ele>180.6</ele>
        <time>2026-01-31T12:10:30Z</time>
      </trkpt>
      <trkpt lat="48.73775" lon="1.75572">
        <ele>180.8</ele>
        <time>2026-01-31T12:10:31Z</time>
      </trkpt>
      <trkpt lat="48.73772" lon="1.75571">
        <ele>180.8</ele>
        <time>2026-01-31T12:10:32Z</time>
      </trkpt>
      <trkpt lat="48.7377" lon="1.7557">
        <ele>180.8</ele>
        <time>2026-01-31T12:10:33Z</time>
      </trkpt>
      <trkpt lat="48.73767" lon="1.75569">
        <ele>180.8</ele>
        <time>2026-01-31T12:10:34Z</time>
      </trkpt>
      <trkpt lat="48.73765" lon="1.75568">
        <ele>180.8</ele>
        <time>2026-01-31T12:10:35Z</time>
      </trkpt>
      <trkpt lat="48.73763" lon="1.75567">
        <ele>180.8</ele>
        <time>2026-01-31T12:10:36Z</time>
      </trkpt>
      <trkpt lat="48.7376" lon="1.75565">
        <ele>180.8</ele>
        <time>2026-01-31T12:10:37Z</time>
      </trkpt>
      <trkpt lat="48.73757" lon="1.75564">
        <ele>180.8</ele>
        <time>2026-01-31T12:10:38Z</time>
      </trkpt>
      <trkpt lat="48.73755" lon="1.75562">
        <ele>180.8</ele>
        <time>2026-01-31T12:10:39Z</time>
      </trkpt>
      <trkpt lat="48.73753" lon="1.75561">
        <ele>180.8</ele>
        <time>2026-01-31T12:10:40Z</time>
      </trkpt>
      <trkpt lat="48.73751" lon="1.7556">
        <ele>180.8</ele>
        <time>2026-01-31T12:10:41Z</time>
      </trkpt>
      <trkpt lat="48.73749" lon="1.75559">
        <ele>180.8</ele>
        <time>2026-01-31T12:10:42Z</time>
      </trkpt>
      <trkpt lat="48.73746" lon="1.75557">
        <ele>180.8</ele>
        <time>2026-01-31T12:10:44Z</time>
      </trkpt>
      <trkpt lat="48.73742" lon="1.75556">
        <ele>180.8</ele>
        <time>2026-01-31T12:10:46Z</time>
      </trkpt>
      <trkpt lat="48.73739" lon="1.75556">
        <ele>180.6</ele>
        <time>2026-01-31T12:10:48Z</time>
      </trkpt>
      <trkpt lat="48.73736" lon="1.75555">
        <ele>180.6</ele>
        <time>2026-01-31T12:10:50Z</time>
      </trkpt>
      <trkpt lat="48.73734" lon="1.75555">
        <ele>180.6</ele>
        <time>2026-01-31T12:10:51Z</time>
      </trkpt>
      <trkpt lat="48.73731" lon="1.75555">
        <ele>180.4</ele>
        <time>2026-01-31T12:10:53Z</time>
      </trkpt>
      <trkpt lat="48.73729" lon="1.75555">
        <ele>180.4</ele>
        <time>2026-01-31T12:10:54Z</time>
      </trkpt>
      <trkpt lat="48.73727" lon="1.75554">
        <ele>180.2</ele>
        <time>2026-01-31T12:10:56Z</time>
      </trkpt>
      <trkpt lat="48.73725" lon="1.75552">
        <ele>180.2</ele>
        <time>2026-01-31T12:10:58Z</time>
      </trkpt>
      <trkpt lat="48.73726" lon="1.7555">
        <ele>181</ele>
        <time>2026-01-31T12:11:14Z</time>
      </trkpt>
      <trkpt lat="48.73725" lon="1.75548">
        <ele>181.8</ele>
        <time>2026-01-31T12:11:21Z</time>
      </trkpt>
      <trkpt lat="48.73722" lon="1.75548">
        <ele>181.8</ele>
        <time>2026-01-31T12:11:23Z</time>
      </trkpt>
      <trkpt lat="48.73719" lon="1.75548">
        <ele>181.8</ele>
        <time>2026-01-31T12:11:25Z</time>
      </trkpt>
      <trkpt lat="48.73716" lon="1.75548">
        <ele>181.8</ele>
        <time>2026-01-31T12:11:27Z</time>
      </trkpt>
      <trkpt lat="48.73712" lon="1.75549">
        <ele>181.8</ele>
        <time>2026-01-31T12:11:29Z</time>
      </trkpt>
      <trkpt lat="48.73709" lon="1.7555">
        <ele>181.8</ele>
        <time>2026-01-31T12:11:31Z</time>
      </trkpt>
      <trkpt lat="48.73706" lon="1.75549">
        <ele>181.8</ele>
        <time>2026-01-31T12:11:33Z</time>
      </trkpt>
      <trkpt lat="48.73703" lon="1.75548">
        <ele>181.8</ele>
        <time>2026-01-31T12:11:35Z</time>
      </trkpt>
      <trkpt lat="48.737" lon="1.75547">
        <ele>182</ele>
        <time>2026-01-31T12:11:37Z</time>
      </trkpt>
      <trkpt lat="48.73697" lon="1.75547">
        <ele>182</ele>
        <time>2026-01-31T12:11:39Z</time>
      </trkpt>
      <trkpt lat="48.73695" lon="1.75548">
        <ele>182</ele>
        <time>2026-01-31T12:11:40Z</time>
      </trkpt>
      <trkpt lat="48.73692" lon="1.75548">
        <ele>182</ele>
        <time>2026-01-31T12:11:42Z</time>
      </trkpt>
      <trkpt lat="48.7369" lon="1.75548">
        <ele>182</ele>
        <time>2026-01-31T12:11:43Z</time>
      </trkpt>
      <trkpt lat="48.73687" lon="1.75548">
        <ele>182</ele>
        <time>2026-01-31T12:11:45Z</time>
      </trkpt>
      <trkpt lat="48.73685" lon="1.75547">
        <ele>182</ele>
        <time>2026-01-31T12:11:46Z</time>
      </trkpt>
      <trkpt lat="48.73683" lon="1.75547">
        <ele>181.8</ele>
        <time>2026-01-31T12:11:47Z</time>
      </trkpt>
      <trkpt lat="48.73681" lon="1.75546">
        <ele>181.8</ele>
        <time>2026-01-31T12:11:48Z</time>
      </trkpt>
      <trkpt lat="48.73678" lon="1.75545">
        <ele>181.8</ele>
        <time>2026-01-31T12:11:50Z</time>
      </trkpt>
      <trkpt lat="48.73676" lon="1.75545">
        <ele>181.8</ele>
        <time>2026-01-31T12:11:51Z</time>
      </trkpt>
      <trkpt lat="48.73673" lon="1.75544">
        <ele>181.6</ele>
        <time>2026-01-31T12:11:53Z</time>
      </trkpt>
      <trkpt lat="48.7367" lon="1.75544">
        <ele>181.6</ele>
        <time>2026-01-31T12:11:55Z</time>
      </trkpt>
      <trkpt lat="48.73667" lon="1.75543">
        <ele>181.6</ele>
        <time>2026-01-31T12:11:57Z</time>
      </trkpt>
      <trkpt lat="48.73664" lon="1.75543">
        <ele>181.6</ele>
        <time>2026-01-31T12:11:59Z</time>
      </trkpt>
      <trkpt lat="48.73661" lon="1.75543">
        <ele>181.6</ele>
        <time>2026-01-31T12:12:01Z</time>
      </trkpt>
      <trkpt lat="48.73659" lon="1.75543">
        <ele>181.6</ele>
        <time>2026-01-31T12:12:03Z</time>
      </trkpt>
      <trkpt lat="48.73657" lon="1.75542">
        <ele>181.4</ele>
        <time>2026-01-31T12:12:05Z</time>
      </trkpt>
      <trkpt lat="48.73654" lon="1.75541">
        <ele>181.4</ele>
        <time>2026-01-31T12:12:07Z</time>
      </trkpt>
      <trkpt lat="48.73652" lon="1.75541">
        <ele>181.2</ele>
        <time>2026-01-31T12:12:09Z</time>
      </trkpt>
      <trkpt lat="48.73649" lon="1.75541">
        <ele>181</ele>
        <time>2026-01-31T12:12:11Z</time>
      </trkpt>
      <trkpt lat="48.73647" lon="1.75542">
        <ele>181</ele>
        <time>2026-01-31T12:12:13Z</time>
      </trkpt>
      <trkpt lat="48.73645" lon="1.75544">
        <ele>180.8</ele>
        <time>2026-01-31T12:12:15Z</time>
      </trkpt>
      <trkpt lat="48.73642" lon="1.75545">
        <ele>180.6</ele>
        <time>2026-01-31T12:12:17Z</time>
      </trkpt>
      <trkpt lat="48.73639" lon="1.75546">
        <ele>180.2</ele>
        <time>2026-01-31T12:12:19Z</time>
      </trkpt>
      <trkpt lat="48.73637" lon="1.75546">
        <ele>180</ele>
        <time>2026-01-31T12:12:21Z</time>
      </trkpt>
      <trkpt lat="48.73635" lon="1.75547">
        <ele>179.8</ele>
        <time>2026-01-31T12:12:23Z</time>
      </trkpt>
      <trkpt lat="48.73633" lon="1.75548">
        <ele>179.4</ele>
        <time>2026-01-31T12:12:27Z</time>
      </trkpt>
      <trkpt lat="48.7363" lon="1.75548">
        <ele>178.8</ele>
        <time>2026-01-31T12:12:31Z</time>
      </trkpt>
      <trkpt lat="48.73628" lon="1.75548">
        <ele>178.8</ele>
        <time>2026-01-31T12:12:33Z</time>
      </trkpt>
      <trkpt lat="48.73625" lon="1.75548">
        <ele>178.6</ele>
        <time>2026-01-31T12:12:35Z</time>
      </trkpt>
      <trkpt lat="48.73622" lon="1.75548">
        <ele>178.4</ele>
        <time>2026-01-31T12:12:37Z</time>
      </trkpt>
      <trkpt lat="48.73619" lon="1.75549">
        <ele>178.4</ele>
        <time>2026-01-31T12:12:39Z</time>
      </trkpt>
      <trkpt lat="48.73617" lon="1.75549">
        <ele>178.2</ele>
        <time>2026-01-31T12:12:41Z</time>
      </trkpt>
      <trkpt lat="48.73614" lon="1.7555">
        <ele>178</ele>
        <time>2026-01-31T12:12:43Z</time>
      </trkpt>
      <trkpt lat="48.73612" lon="1.7555">
        <ele>178</ele>
        <time>2026-01-31T12:12:45Z</time>
      </trkpt>
      <trkpt lat="48.7361" lon="1.7555">
        <ele>177.8</ele>
        <time>2026-01-31T12:12:47Z</time>
      </trkpt>
      <trkpt lat="48.73608" lon="1.75551">
        <ele>177.6</ele>
        <time>2026-01-31T12:12:49Z</time>
      </trkpt>
      <trkpt lat="48.73606" lon="1.75553">
        <ele>177.6</ele>
        <time>2026-01-31T12:12:51Z</time>
      </trkpt>
      <trkpt lat="48.73604" lon="1.75555">
        <ele>177.4</ele>
        <time>2026-01-31T12:12:53Z</time>
      </trkpt>
      <trkpt lat="48.73602" lon="1.75555">
        <ele>177.4</ele>
        <time>2026-01-31T12:12:54Z</time>
      </trkpt>
      <trkpt lat="48.73598" lon="1.75557">
        <ele>177.4</ele>
        <time>2026-01-31T12:12:56Z</time>
      </trkpt>
      <trkpt lat="48.73596" lon="1.75558">
        <ele>177.4</ele>
        <time>2026-01-31T12:12:57Z</time>
      </trkpt>
      <trkpt lat="48.73594" lon="1.7556">
        <ele>177.4</ele>
        <time>2026-01-31T12:12:59Z</time>
      </trkpt>
      <trkpt lat="48.73591" lon="1.75562">
        <ele>177.4</ele>
        <time>2026-01-31T12:13:01Z</time>
      </trkpt>
      <trkpt lat="48.73588" lon="1.75564">
        <ele>177.4</ele>
        <time>2026-01-31T12:13:03Z</time>
      </trkpt>
      <trkpt lat="48.73586" lon="1.75565">
        <ele>177.4</ele>
        <time>2026-01-31T12:13:05Z</time>
      </trkpt>
      <trkpt lat="48.73584" lon="1.75566">
        <ele>177.4</ele>
        <time>2026-01-31T12:13:08Z</time>
      </trkpt>
      <trkpt lat="48.73582" lon="1.75567">
        <ele>177.6</ele>
        <time>2026-01-31T12:13:11Z</time>
      </trkpt>
      <trkpt lat="48.7358" lon="1.75568">
        <ele>177.8</ele>
        <time>2026-01-31T12:13:13Z</time>
      </trkpt>
      <trkpt lat="48.73577" lon="1.75569">
        <ele>178</ele>
        <time>2026-01-31T12:13:15Z</time>
      </trkpt>
      <trkpt lat="48.73574" lon="1.75571">
        <ele>178.2</ele>
        <time>2026-01-31T12:13:17Z</time>
      </trkpt>
      <trkpt lat="48.73572" lon="1.75572">
        <ele>178.6</ele>
        <time>2026-01-31T12:13:20Z</time>
      </trkpt>
      <trkpt lat="48.7357" lon="1.75573">
        <ele>178.8</ele>
        <time>2026-01-31T12:13:22Z</time>
      </trkpt>
      <trkpt lat="48.73567" lon="1.75573">
        <ele>179</ele>
        <time>2026-01-31T12:13:24Z</time>
      </trkpt>
      <trkpt lat="48.73564" lon="1.75574">
        <ele>179.2</ele>
        <time>2026-01-31T12:13:26Z</time>
      </trkpt>
      <trkpt lat="48.73562" lon="1.75574">
        <ele>179.2</ele>
        <time>2026-01-31T12:13:27Z</time>
      </trkpt>
      <trkpt lat="48.7356" lon="1.75575">
        <ele>179.4</ele>
        <time>2026-01-31T12:13:29Z</time>
      </trkpt>
      <trkpt lat="48.73557" lon="1.75577">
        <ele>179.8</ele>
        <time>2026-01-31T12:13:31Z</time>
      </trkpt>
      <trkpt lat="48.73556" lon="1.75579">
        <ele>180</ele>
        <time>2026-01-31T12:13:33Z</time>
      </trkpt>
      <trkpt lat="48.73554" lon="1.7558">
        <ele>180.4</ele>
        <time>2026-01-31T12:13:36Z</time>
      </trkpt>
      <trkpt lat="48.73552" lon="1.75579">
        <ele>180.8</ele>
        <time>2026-01-31T12:13:39Z</time>
      </trkpt>
      <trkpt lat="48.73551" lon="1.75583">
        <ele>181.6</ele>
        <time>2026-01-31T12:13:44Z</time>
      </trkpt>
      <trkpt lat="48.73549" lon="1.75586">
        <ele>181.8</ele>
        <time>2026-01-31T12:13:46Z</time>
      </trkpt>
      <trkpt lat="48.73547" lon="1.7559">
        <ele>182.2</ele>
        <time>2026-01-31T12:13:48Z</time>
      </trkpt>
      <trkpt lat="48.73544" lon="1.75593">
        <ele>182.4</ele>
        <time>2026-01-31T12:13:50Z</time>
      </trkpt>
      <trkpt lat="48.73542" lon="1.75596">
        <ele>182.6</ele>
        <time>2026-01-31T12:13:52Z</time>
      </trkpt>
      <trkpt lat="48.7354" lon="1.75598">
        <ele>183</ele>
        <time>2026-01-31T12:13:54Z</time>
      </trkpt>
      <trkpt lat="48.73538" lon="1.756">
        <ele>183.2</ele>
        <time>2026-01-31T12:13:56Z</time>
      </trkpt>
      <trkpt lat="48.73536" lon="1.75603">
        <ele>183.4</ele>
        <time>2026-01-31T12:13:58Z</time>
      </trkpt>
      <trkpt lat="48.73533" lon="1.75606">
        <ele>183.6</ele>
        <time>2026-01-31T12:14:00Z</time>
      </trkpt>
      <trkpt lat="48.73531" lon="1.75609">
        <ele>183.8</ele>
        <time>2026-01-31T12:14:02Z</time>
      </trkpt>
      <trkpt lat="48.73528" lon="1.75611">
        <ele>184</ele>
        <time>2026-01-31T12:14:04Z</time>
      </trkpt>
      <trkpt lat="48.73525" lon="1.75614">
        <ele>184.2</ele>
        <time>2026-01-31T12:14:06Z</time>
      </trkpt>
      <trkpt lat="48.73523" lon="1.75614">
        <ele>184.4</ele>
        <time>2026-01-31T12:14:07Z</time>
      </trkpt>
      <trkpt lat="48.73521" lon="1.75615">
        <ele>184.4</ele>
        <time>2026-01-31T12:14:08Z</time>
      </trkpt>
      <trkpt lat="48.73519" lon="1.75616">
        <ele>184.4</ele>
        <time>2026-01-31T12:14:09Z</time>
      </trkpt>
      <trkpt lat="48.73516" lon="1.75618">
        <ele>184.6</ele>
        <time>2026-01-31T12:14:11Z</time>
      </trkpt>
      <trkpt lat="48.73512" lon="1.7562">
        <ele>184.8</ele>
        <time>2026-01-31T12:14:13Z</time>
      </trkpt>
      <trkpt lat="48.73509" lon="1.75622">
        <ele>185</ele>
        <time>2026-01-31T12:14:15Z</time>
      </trkpt>
      <trkpt lat="48.73507" lon="1.75623">
        <ele>185</ele>
        <time>2026-01-31T12:14:16Z</time>
      </trkpt>
      <trkpt lat="48.73505" lon="1.75625">
        <ele>185</ele>
        <time>2026-01-31T12:14:17Z</time>
      </trkpt>
      <trkpt lat="48.73503" lon="1.75626">
        <ele>185.2</ele>
        <time>2026-01-31T12:14:18Z</time>
      </trkpt>
      <trkpt lat="48.735" lon="1.75627">
        <ele>185.2</ele>
        <time>2026-01-31T12:14:19Z</time>
      </trkpt>
      <trkpt lat="48.73499" lon="1.75627">
        <ele>185.2</ele>
        <time>2026-01-31T12:14:20Z</time>
      </trkpt>
      <trkpt lat="48.73496" lon="1.75627">
        <ele>185.4</ele>
        <time>2026-01-31T12:14:21Z</time>
      </trkpt>
      <trkpt lat="48.73494" lon="1.75627">
        <ele>185.4</ele>
        <time>2026-01-31T12:14:22Z</time>
      </trkpt>
      <trkpt lat="48.73492" lon="1.75628">
        <ele>185.6</ele>
        <time>2026-01-31T12:14:24Z</time>
      </trkpt>
      <trkpt lat="48.73489" lon="1.7563">
        <ele>185.8</ele>
        <time>2026-01-31T12:14:26Z</time>
      </trkpt>
      <trkpt lat="48.73487" lon="1.75634">
        <ele>186</ele>
        <time>2026-01-31T12:14:28Z</time>
      </trkpt>
      <trkpt lat="48.73485" lon="1.75636">
        <ele>186.2</ele>
        <time>2026-01-31T12:14:30Z</time>
      </trkpt>
      <trkpt lat="48.73483" lon="1.75638">
        <ele>186.6</ele>
        <time>2026-01-31T12:14:32Z</time>
      </trkpt>
      <trkpt lat="48.73481" lon="1.7564">
        <ele>186.8</ele>
        <time>2026-01-31T12:14:34Z</time>
      </trkpt>
      <trkpt lat="48.73478" lon="1.75642">
        <ele>187.2</ele>
        <time>2026-01-31T12:14:36Z</time>
      </trkpt>
      <trkpt lat="48.73476" lon="1.75643">
        <ele>187.4</ele>
        <time>2026-01-31T12:14:38Z</time>
      </trkpt>
      <trkpt lat="48.73474" lon="1.75644">
        <ele>187.6</ele>
        <time>2026-01-31T12:14:40Z</time>
      </trkpt>
      <trkpt lat="48.73471" lon="1.75647">
        <ele>187.8</ele>
        <time>2026-01-31T12:14:42Z</time>
      </trkpt>
      <trkpt lat="48.73469" lon="1.75649">
        <ele>188</ele>
        <time>2026-01-31T12:14:44Z</time>
      </trkpt>
      <trkpt lat="48.73467" lon="1.75651">
        <ele>188.2</ele>
        <time>2026-01-31T12:14:46Z</time>
      </trkpt>
      <trkpt lat="48.73465" lon="1.75652">
        <ele>188.2</ele>
        <time>2026-01-31T12:14:48Z</time>
      </trkpt>
      <trkpt lat="48.73463" lon="1.75654">
        <ele>188.4</ele>
        <time>2026-01-31T12:14:51Z</time>
      </trkpt>
      <trkpt lat="48.73461" lon="1.75657">
        <ele>188.6</ele>
        <time>2026-01-31T12:14:54Z</time>
      </trkpt>
      <trkpt lat="48.7346" lon="1.7566">
        <ele>188.8</ele>
        <time>2026-01-31T12:14:57Z</time>
      </trkpt>
      <trkpt lat="48.73458" lon="1.75662">
        <ele>188.8</ele>
        <time>2026-01-31T12:14:59Z</time>
      </trkpt>
      <trkpt lat="48.73455" lon="1.75665">
        <ele>189</ele>
        <time>2026-01-31T12:15:01Z</time>
      </trkpt>
      <trkpt lat="48.73453" lon="1.75667">
        <ele>189</ele>
        <time>2026-01-31T12:15:02Z</time>
      </trkpt>
      <trkpt lat="48.73452" lon="1.75668">
        <ele>189.2</ele>
        <time>2026-01-31T12:15:03Z</time>
      </trkpt>
      <trkpt lat="48.73449" lon="1.75669">
        <ele>189.2</ele>
        <time>2026-01-31T12:15:05Z</time>
      </trkpt>
      <trkpt lat="48.73447" lon="1.75669">
        <ele>189.4</ele>
        <time>2026-01-31T12:15:07Z</time>
      </trkpt>
      <trkpt lat="48.73445" lon="1.75668">
        <ele>189.6</ele>
        <time>2026-01-31T12:15:09Z</time>
      </trkpt>
      <trkpt lat="48.73443" lon="1.75668">
        <ele>189.6</ele>
        <time>2026-01-31T12:15:11Z</time>
      </trkpt>
      <trkpt lat="48.73441" lon="1.75669">
        <ele>189.8</ele>
        <time>2026-01-31T12:15:13Z</time>
      </trkpt>
      <trkpt lat="48.73439" lon="1.75671">
        <ele>190</ele>
        <time>2026-01-31T12:15:15Z</time>
      </trkpt>
      <trkpt lat="48.73437" lon="1.75673">
        <ele>190</ele>
        <time>2026-01-31T12:15:17Z</time>
      </trkpt>
      <trkpt lat="48.73435" lon="1.75675">
        <ele>190.2</ele>
        <time>2026-01-31T12:15:19Z</time>
      </trkpt>
      <trkpt lat="48.73433" lon="1.75676">
        <ele>190.2</ele>
        <time>2026-01-31T12:15:20Z</time>
      </trkpt>
      <trkpt lat="48.73431" lon="1.75678">
        <ele>190.2</ele>
        <time>2026-01-31T12:15:21Z</time>
      </trkpt>
      <trkpt lat="48.73429" lon="1.75679">
        <ele>190.4</ele>
        <time>2026-01-31T12:15:22Z</time>
      </trkpt>
      <trkpt lat="48.73428" lon="1.75681">
        <ele>190.4</ele>
        <time>2026-01-31T12:15:23Z</time>
      </trkpt>
      <trkpt lat="48.73425" lon="1.75684">
        <ele>190.6</ele>
        <time>2026-01-31T12:15:25Z</time>
      </trkpt>
      <trkpt lat="48.73424" lon="1.75686">
        <ele>190.6</ele>
        <time>2026-01-31T12:15:26Z</time>
      </trkpt>
      <trkpt lat="48.73422" lon="1.75687">
        <ele>190.6</ele>
        <time>2026-01-31T12:15:27Z</time>
      </trkpt>
      <trkpt lat="48.7342" lon="1.75689">
        <ele>190.8</ele>
        <time>2026-01-31T12:15:28Z</time>
      </trkpt>
      <trkpt lat="48.73417" lon="1.75691">
        <ele>190.8</ele>
        <time>2026-01-31T12:15:29Z</time>
      </trkpt>
      <trkpt lat="48.73415" lon="1.75692">
        <ele>191</ele>
        <time>2026-01-31T12:15:30Z</time>
      </trkpt>
      <trkpt lat="48.73413" lon="1.75694">
        <ele>191</ele>
        <time>2026-01-31T12:15:31Z</time>
      </trkpt>
      <trkpt lat="48.73411" lon="1.75695">
        <ele>191.2</ele>
        <time>2026-01-31T12:15:32Z</time>
      </trkpt>
      <trkpt lat="48.73409" lon="1.75696">
        <ele>191.2</ele>
        <time>2026-01-31T12:15:34Z</time>
      </trkpt>
      <trkpt lat="48.73407" lon="1.75697">
        <ele>191.4</ele>
        <time>2026-01-31T12:15:37Z</time>
      </trkpt>
      <trkpt lat="48.73405" lon="1.75698">
        <ele>191.6</ele>
        <time>2026-01-31T12:15:39Z</time>
      </trkpt>
      <trkpt lat="48.73403" lon="1.75699">
        <ele>191.6</ele>
        <time>2026-01-31T12:15:40Z</time>
      </trkpt>
      <trkpt lat="48.73401" lon="1.75701">
        <ele>191.6</ele>
        <time>2026-01-31T12:15:41Z</time>
      </trkpt>
      <trkpt lat="48.73399" lon="1.75702">
        <ele>191.6</ele>
        <time>2026-01-31T12:15:42Z</time>
      </trkpt>
      <trkpt lat="48.73397" lon="1.75704">
        <ele>191.6</ele>
        <time>2026-01-31T12:15:43Z</time>
      </trkpt>
      <trkpt lat="48.73395" lon="1.75706">
        <ele>191.6</ele>
        <time>2026-01-31T12:15:44Z</time>
      </trkpt>
      <trkpt lat="48.73393" lon="1.75707">
        <ele>191.6</ele>
        <time>2026-01-31T12:15:45Z</time>
      </trkpt>
      <trkpt lat="48.73391" lon="1.75708">
        <ele>191.6</ele>
        <time>2026-01-31T12:15:46Z</time>
      </trkpt>
      <trkpt lat="48.73389" lon="1.75709">
        <ele>191.4</ele>
        <time>2026-01-31T12:15:47Z</time>
      </trkpt>
      <trkpt lat="48.73388" lon="1.75711">
        <ele>191.4</ele>
        <time>2026-01-31T12:15:48Z</time>
      </trkpt>
      <trkpt lat="48.73384" lon="1.75713">
        <ele>191.2</ele>
        <time>2026-01-31T12:15:50Z</time>
      </trkpt>
      <trkpt lat="48.73381" lon="1.75715">
        <ele>191.2</ele>
        <time>2026-01-31T12:15:52Z</time>
      </trkpt>
      <trkpt lat="48.73379" lon="1.75718">
        <ele>191</ele>
        <time>2026-01-31T12:15:54Z</time>
      </trkpt>
      <trkpt lat="48.73375" lon="1.7572">
        <ele>191</ele>
        <time>2026-01-31T12:15:56Z</time>
      </trkpt>
      <trkpt lat="48.73372" lon="1.75722">
        <ele>190.8</ele>
        <time>2026-01-31T12:15:58Z</time>
      </trkpt>
      <trkpt lat="48.7337" lon="1.75723">
        <ele>190.8</ele>
        <time>2026-01-31T12:15:59Z</time>
      </trkpt>
      <trkpt lat="48.73368" lon="1.75724">
        <ele>190.6</ele>
        <time>2026-01-31T12:16:00Z</time>
      </trkpt>
      <trkpt lat="48.73366" lon="1.75726">
        <ele>190.4</ele>
        <time>2026-01-31T12:16:01Z</time>
      </trkpt>
      <trkpt lat="48.73364" lon="1.75728">
        <ele>190.2</ele>
        <time>2026-01-31T12:16:02Z</time>
      </trkpt>
      <trkpt lat="48.73361" lon="1.75729">
        <ele>190.2</ele>
        <time>2026-01-31T12:16:03Z</time>
      </trkpt>
      <trkpt lat="48.73359" lon="1.75731">
        <ele>190</ele>
        <time>2026-01-31T12:16:04Z</time>
      </trkpt>
      <trkpt lat="48.73356" lon="1.75732">
        <ele>189.8</ele>
        <time>2026-01-31T12:16:05Z</time>
      </trkpt>
      <trkpt lat="48.73353" lon="1.75735">
        <ele>189.6</ele>
        <time>2026-01-31T12:16:07Z</time>
      </trkpt>
      <trkpt lat="48.7335" lon="1.75737">
        <ele>189.4</ele>
        <time>2026-01-31T12:16:09Z</time>
      </trkpt>
      <trkpt lat="48.73346" lon="1.75739">
        <ele>189.2</ele>
        <time>2026-01-31T12:16:11Z</time>
      </trkpt>
      <trkpt lat="48.73343" lon="1.75741">
        <ele>189</ele>
        <time>2026-01-31T12:16:13Z</time>
      </trkpt>
      <trkpt lat="48.7334" lon="1.75742">
        <ele>188.8</ele>
        <time>2026-01-31T12:16:15Z</time>
      </trkpt>
      <trkpt lat="48.73337" lon="1.75744">
        <ele>188.6</ele>
        <time>2026-01-31T12:16:17Z</time>
      </trkpt>
      <trkpt lat="48.73334" lon="1.75745">
        <ele>188.4</ele>
        <time>2026-01-31T12:16:19Z</time>
      </trkpt>
      <trkpt lat="48.73332" lon="1.75747">
        <ele>188.2</ele>
        <time>2026-01-31T12:16:21Z</time>
      </trkpt>
      <trkpt lat="48.73329" lon="1.75749">
        <ele>188.2</ele>
        <time>2026-01-31T12:16:23Z</time>
      </trkpt>
      <trkpt lat="48.73327" lon="1.75751">
        <ele>188</ele>
        <time>2026-01-31T12:16:25Z</time>
      </trkpt>
      <trkpt lat="48.73324" lon="1.75753">
        <ele>188</ele>
        <time>2026-01-31T12:16:27Z</time>
      </trkpt>
      <trkpt lat="48.73322" lon="1.75754">
        <ele>188</ele>
        <time>2026-01-31T12:16:29Z</time>
      </trkpt>
      <trkpt lat="48.73319" lon="1.75754">
        <ele>187.8</ele>
        <time>2026-01-31T12:16:31Z</time>
      </trkpt>
      <trkpt lat="48.73317" lon="1.75754">
        <ele>187.8</ele>
        <time>2026-01-31T12:16:36Z</time>
      </trkpt>
      <trkpt lat="48.73315" lon="1.75754">
        <ele>187.8</ele>
        <time>2026-01-31T12:16:38Z</time>
      </trkpt>
      <trkpt lat="48.73312" lon="1.75755">
        <ele>187.8</ele>
        <time>2026-01-31T12:16:40Z</time>
      </trkpt>
      <trkpt lat="48.73309" lon="1.75757">
        <ele>188</ele>
        <time>2026-01-31T12:16:42Z</time>
      </trkpt>
      <trkpt lat="48.73305" lon="1.75759">
        <ele>188</ele>
        <time>2026-01-31T12:16:44Z</time>
      </trkpt>
      <trkpt lat="48.73302" lon="1.7576">
        <ele>188</ele>
        <time>2026-01-31T12:16:45Z</time>
      </trkpt>
      <trkpt lat="48.73299" lon="1.75761">
        <ele>188</ele>
        <time>2026-01-31T12:16:46Z</time>
      </trkpt>
      <trkpt lat="48.73296" lon="1.75763">
        <ele>188</ele>
        <time>2026-01-31T12:16:47Z</time>
      </trkpt>
      <trkpt lat="48.73293" lon="1.75764">
        <ele>188</ele>
        <time>2026-01-31T12:16:48Z</time>
      </trkpt>
      <trkpt lat="48.73292" lon="1.75766">
        <ele>188</ele>
        <time>2026-01-31T12:16:49Z</time>
      </trkpt>
      <trkpt lat="48.7329" lon="1.75767">
        <ele>188</ele>
        <time>2026-01-31T12:16:50Z</time>
      </trkpt>
      <trkpt lat="48.73289" lon="1.7577">
        <ele>187.8</ele>
        <time>2026-01-31T12:16:52Z</time>
      </trkpt>
      <trkpt lat="48.73288" lon="1.75773">
        <ele>187.6</ele>
        <time>2026-01-31T12:16:54Z</time>
      </trkpt>
      <trkpt lat="48.73287" lon="1.75775">
        <ele>187.2</ele>
        <time>2026-01-31T12:16:56Z</time>
      </trkpt>
      <trkpt lat="48.73284" lon="1.75777">
        <ele>187</ele>
        <time>2026-01-31T12:16:58Z</time>
      </trkpt>
      <trkpt lat="48.73282" lon="1.75779">
        <ele>186.8</ele>
        <time>2026-01-31T12:17:00Z</time>
      </trkpt>
      <trkpt lat="48.7328" lon="1.75779">
        <ele>186.6</ele>
        <time>2026-01-31T12:17:02Z</time>
      </trkpt>
      <trkpt lat="48.73278" lon="1.7578">
        <ele>186.4</ele>
        <time>2026-01-31T12:17:04Z</time>
      </trkpt>
      <trkpt lat="48.73276" lon="1.75782">
        <ele>186.2</ele>
        <time>2026-01-31T12:17:06Z</time>
      </trkpt>
      <trkpt lat="48.73274" lon="1.75783">
        <ele>186</ele>
        <time>2026-01-31T12:17:07Z</time>
      </trkpt>
      <trkpt lat="48.73272" lon="1.75784">
        <ele>186</ele>
        <time>2026-01-31T12:17:08Z</time>
      </trkpt>
      <trkpt lat="48.73271" lon="1.75786">
        <ele>186</ele>
        <time>2026-01-31T12:17:09Z</time>
      </trkpt>
      <trkpt lat="48.73269" lon="1.75788">
        <ele>185.8</ele>
        <time>2026-01-31T12:17:10Z</time>
      </trkpt>
      <trkpt lat="48.73268" lon="1.7579">
        <ele>185.8</ele>
        <time>2026-01-31T12:17:11Z</time>
      </trkpt>
      <trkpt lat="48.73266" lon="1.75792">
        <ele>185.6</ele>
        <time>2026-01-31T12:17:12Z</time>
      </trkpt>
      <trkpt lat="48.73264" lon="1.75794">
        <ele>185.6</ele>
        <time>2026-01-31T12:17:13Z</time>
      </trkpt>
      <trkpt lat="48.73262" lon="1.75796">
        <ele>185.4</ele>
        <time>2026-01-31T12:17:14Z</time>
      </trkpt>
      <trkpt lat="48.7326" lon="1.75798">
        <ele>185.2</ele>
        <time>2026-01-31T12:17:15Z</time>
      </trkpt>
      <trkpt lat="48.73258" lon="1.758">
        <ele>185</ele>
        <time>2026-01-31T12:17:16Z</time>
      </trkpt>
      <trkpt lat="48.73255" lon="1.75801">
        <ele>185</ele>
        <time>2026-01-31T12:17:17Z</time>
      </trkpt>
      <trkpt lat="48.73253" lon="1.75802">
        <ele>184.8</ele>
        <time>2026-01-31T12:17:18Z</time>
      </trkpt>
      <trkpt lat="48.73251" lon="1.75803">
        <ele>184.6</ele>
        <time>2026-01-31T12:17:19Z</time>
      </trkpt>
      <trkpt lat="48.73249" lon="1.75806">
        <ele>184</ele>
        <time>2026-01-31T12:17:21Z</time>
      </trkpt>
      <trkpt lat="48.73246" lon="1.75808">
        <ele>183.6</ele>
        <time>2026-01-31T12:17:23Z</time>
      </trkpt>
      <trkpt lat="48.73244" lon="1.7581">
        <ele>183.2</ele>
        <time>2026-01-31T12:17:25Z</time>
      </trkpt>
      <trkpt lat="48.73242" lon="1.75812">
        <ele>182.8</ele>
        <time>2026-01-31T12:17:27Z</time>
      </trkpt>
      <trkpt lat="48.73239" lon="1.75814">
        <ele>182.2</ele>
        <time>2026-01-31T12:17:29Z</time>
      </trkpt>
      <trkpt lat="48.73236" lon="1.75816">
        <ele>181.8</ele>
        <time>2026-01-31T12:17:31Z</time>
      </trkpt>
      <trkpt lat="48.73233" lon="1.75819">
        <ele>181.4</ele>
        <time>2026-01-31T12:17:33Z</time>
      </trkpt>
      <trkpt lat="48.7323" lon="1.75821">
        <ele>180.8</ele>
        <time>2026-01-31T12:17:35Z</time>
      </trkpt>
      <trkpt lat="48.73228" lon="1.75823">
        <ele>180.4</ele>
        <time>2026-01-31T12:17:37Z</time>
      </trkpt>
      <trkpt lat="48.73225" lon="1.75825">
        <ele>180</ele>
        <time>2026-01-31T12:17:39Z</time>
      </trkpt>
      <trkpt lat="48.73223" lon="1.75827">
        <ele>179.8</ele>
        <time>2026-01-31T12:17:41Z</time>
      </trkpt>
      <trkpt lat="48.7322" lon="1.75829">
        <ele>179.4</ele>
        <time>2026-01-31T12:17:43Z</time>
      </trkpt>
      <trkpt lat="48.73219" lon="1.75831">
        <ele>179.2</ele>
        <time>2026-01-31T12:17:45Z</time>
      </trkpt>
      <trkpt lat="48.73217" lon="1.75832">
        <ele>178.8</ele>
        <time>2026-01-31T12:17:47Z</time>
      </trkpt>
      <trkpt lat="48.73215" lon="1.75833">
        <ele>178.6</ele>
        <time>2026-01-31T12:17:49Z</time>
      </trkpt>
      <trkpt lat="48.73212" lon="1.75833">
        <ele>178.4</ele>
        <time>2026-01-31T12:17:51Z</time>
      </trkpt>
      <trkpt lat="48.7321" lon="1.75835">
        <ele>178.2</ele>
        <time>2026-01-31T12:17:53Z</time>
      </trkpt>
      <trkpt lat="48.73208" lon="1.75838">
        <ele>177.8</ele>
        <time>2026-01-31T12:17:55Z</time>
      </trkpt>
      <trkpt lat="48.73205" lon="1.7584">
        <ele>177.6</ele>
        <time>2026-01-31T12:17:57Z</time>
      </trkpt>
      <trkpt lat="48.73203" lon="1.75843">
        <ele>177.6</ele>
        <time>2026-01-31T12:17:59Z</time>
      </trkpt>
      <trkpt lat="48.73201" lon="1.75847">
        <ele>177.4</ele>
        <time>2026-01-31T12:18:01Z</time>
      </trkpt>
      <trkpt lat="48.73199" lon="1.75849">
        <ele>177.4</ele>
        <time>2026-01-31T12:18:02Z</time>
      </trkpt>
      <trkpt lat="48.73197" lon="1.75851">
        <ele>177.2</ele>
        <time>2026-01-31T12:18:03Z</time>
      </trkpt>
      <trkpt lat="48.73195" lon="1.75854">
        <ele>177.2</ele>
        <time>2026-01-31T12:18:05Z</time>
      </trkpt>
      <trkpt lat="48.73192" lon="1.75856">
        <ele>177.2</ele>
        <time>2026-01-31T12:18:07Z</time>
      </trkpt>
      <trkpt lat="48.7319" lon="1.75857">
        <ele>177</ele>
        <time>2026-01-31T12:18:09Z</time>
      </trkpt>
      <trkpt lat="48.73187" lon="1.75857">
        <ele>176.8</ele>
        <time>2026-01-31T12:18:12Z</time>
      </trkpt>
      <trkpt lat="48.73186" lon="1.75859">
        <ele>176.6</ele>
        <time>2026-01-31T12:18:14Z</time>
      </trkpt>
      <trkpt lat="48.73184" lon="1.7586">
        <ele>176.4</ele>
        <time>2026-01-31T12:18:16Z</time>
      </trkpt>
      <trkpt lat="48.73181" lon="1.75862">
        <ele>176.2</ele>
        <time>2026-01-31T12:18:18Z</time>
      </trkpt>
      <trkpt lat="48.73179" lon="1.75863">
        <ele>176.2</ele>
        <time>2026-01-31T12:18:20Z</time>
      </trkpt>
      <trkpt lat="48.73175" lon="1.75864">
        <ele>176</ele>
        <time>2026-01-31T12:18:22Z</time>
      </trkpt>
      <trkpt lat="48.73172" lon="1.75866">
        <ele>176</ele>
        <time>2026-01-31T12:18:24Z</time>
      </trkpt>
      <trkpt lat="48.73169" lon="1.75867">
        <ele>176</ele>
        <time>2026-01-31T12:18:26Z</time>
      </trkpt>
      <trkpt lat="48.73167" lon="1.75868">
        <ele>176</ele>
        <time>2026-01-31T12:18:28Z</time>
      </trkpt>
      <trkpt lat="48.73165" lon="1.75869">
        <ele>176</ele>
        <time>2026-01-31T12:18:30Z</time>
      </trkpt>
      <trkpt lat="48.73163" lon="1.75871">
        <ele>176.2</ele>
        <time>2026-01-31T12:18:32Z</time>
      </trkpt>
      <trkpt lat="48.73161" lon="1.75873">
        <ele>176.2</ele>
        <time>2026-01-31T12:18:34Z</time>
      </trkpt>
      <trkpt lat="48.73159" lon="1.75875">
        <ele>176.4</ele>
        <time>2026-01-31T12:18:37Z</time>
      </trkpt>
      <trkpt lat="48.73159" lon="1.75878">
        <ele>176.8</ele>
        <time>2026-01-31T12:18:40Z</time>
      </trkpt>
      <trkpt lat="48.73158" lon="1.75881">
        <ele>177</ele>
        <time>2026-01-31T12:18:42Z</time>
      </trkpt>
      <trkpt lat="48.73156" lon="1.75884">
        <ele>177.4</ele>
        <time>2026-01-31T12:18:45Z</time>
      </trkpt>
      <trkpt lat="48.73155" lon="1.75887">
        <ele>177.6</ele>
        <time>2026-01-31T12:18:47Z</time>
      </trkpt>
      <trkpt lat="48.73152" lon="1.75889">
        <ele>177.8</ele>
        <time>2026-01-31T12:18:49Z</time>
      </trkpt>
      <trkpt lat="48.73149" lon="1.75892">
        <ele>178</ele>
        <time>2026-01-31T12:18:51Z</time>
      </trkpt>
      <trkpt lat="48.73148" lon="1.75893">
        <ele>178.2</ele>
        <time>2026-01-31T12:18:52Z</time>
      </trkpt>
      <trkpt lat="48.73145" lon="1.75896">
        <ele>178.4</ele>
        <time>2026-01-31T12:18:54Z</time>
      </trkpt>
      <trkpt lat="48.73143" lon="1.75899">
        <ele>178.6</ele>
        <time>2026-01-31T12:18:56Z</time>
      </trkpt>
      <trkpt lat="48.73143" lon="1.75902">
        <ele>179</ele>
        <time>2026-01-31T12:18:58Z</time>
      </trkpt>
      <trkpt lat="48.73145" lon="1.75905">
        <ele>179.2</ele>
        <time>2026-01-31T12:19:00Z</time>
      </trkpt>
      <trkpt lat="48.73143" lon="1.75908">
        <ele>179.4</ele>
        <time>2026-01-31T12:19:02Z</time>
      </trkpt>
      <trkpt lat="48.7314" lon="1.75909">
        <ele>179.6</ele>
        <time>2026-01-31T12:19:04Z</time>
      </trkpt>
      <trkpt lat="48.73139" lon="1.7591">
        <ele>179.8</ele>
        <time>2026-01-31T12:19:05Z</time>
      </trkpt>
      <trkpt lat="48.73137" lon="1.75911">
        <ele>180</ele>
        <time>2026-01-31T12:19:06Z</time>
      </trkpt>
      <trkpt lat="48.73134" lon="1.75911">
        <ele>180.2</ele>
        <time>2026-01-31T12:19:07Z</time>
      </trkpt>
      <trkpt lat="48.73132" lon="1.75912">
        <ele>180.2</ele>
        <time>2026-01-31T12:19:08Z</time>
      </trkpt>
      <trkpt lat="48.7313" lon="1.75912">
        <ele>180.4</ele>
        <time>2026-01-31T12:19:09Z</time>
      </trkpt>
      <trkpt lat="48.73128" lon="1.75913">
        <ele>180.6</ele>
        <time>2026-01-31T12:19:10Z</time>
      </trkpt>
      <trkpt lat="48.73126" lon="1.75914">
        <ele>180.6</ele>
        <time>2026-01-31T12:19:11Z</time>
      </trkpt>
      <trkpt lat="48.73123" lon="1.75916">
        <ele>180.8</ele>
        <time>2026-01-31T12:19:13Z</time>
      </trkpt>
      <trkpt lat="48.73121" lon="1.75918">
        <ele>181.2</ele>
        <time>2026-01-31T12:19:15Z</time>
      </trkpt>
      <trkpt lat="48.73119" lon="1.75919">
        <ele>181.4</ele>
        <time>2026-01-31T12:19:17Z</time>
      </trkpt>
      <trkpt lat="48.73117" lon="1.75921">
        <ele>181.6</ele>
        <time>2026-01-31T12:19:19Z</time>
      </trkpt>
      <trkpt lat="48.73114" lon="1.75923">
        <ele>182</ele>
        <time>2026-01-31T12:19:21Z</time>
      </trkpt>
      <trkpt lat="48.73111" lon="1.75924">
        <ele>182.2</ele>
        <time>2026-01-31T12:19:23Z</time>
      </trkpt>
      <trkpt lat="48.73109" lon="1.75925">
        <ele>182.4</ele>
        <time>2026-01-31T12:19:24Z</time>
      </trkpt>
      <trkpt lat="48.73107" lon="1.75926">
        <ele>182.4</ele>
        <time>2026-01-31T12:19:25Z</time>
      </trkpt>
      <trkpt lat="48.73105" lon="1.75927">
        <ele>182.4</ele>
        <time>2026-01-31T12:19:26Z</time>
      </trkpt>
      <trkpt lat="48.73103" lon="1.75928">
        <ele>182.6</ele>
        <time>2026-01-31T12:19:27Z</time>
      </trkpt>
      <trkpt lat="48.73101" lon="1.75929">
        <ele>182.6</ele>
        <time>2026-01-31T12:19:28Z</time>
      </trkpt>
      <trkpt lat="48.73098" lon="1.75931">
        <ele>182.6</ele>
        <time>2026-01-31T12:19:30Z</time>
      </trkpt>
      <trkpt lat="48.73095" lon="1.75934">
        <ele>182.6</ele>
        <time>2026-01-31T12:19:32Z</time>
      </trkpt>
      <trkpt lat="48.73094" lon="1.75935">
        <ele>182.6</ele>
        <time>2026-01-31T12:19:33Z</time>
      </trkpt>
      <trkpt lat="48.73092" lon="1.75937">
        <ele>182.6</ele>
        <time>2026-01-31T12:19:34Z</time>
      </trkpt>
      <trkpt lat="48.7309" lon="1.75938">
        <ele>182.6</ele>
        <time>2026-01-31T12:19:35Z</time>
      </trkpt>
      <trkpt lat="48.73087" lon="1.75941">
        <ele>182.6</ele>
        <time>2026-01-31T12:19:37Z</time>
      </trkpt>
      <trkpt lat="48.73086" lon="1.75942">
        <ele>182.6</ele>
        <time>2026-01-31T12:19:38Z</time>
      </trkpt>
      <trkpt lat="48.73084" lon="1.75944">
        <ele>182.4</ele>
        <time>2026-01-31T12:19:39Z</time>
      </trkpt>
      <trkpt lat="48.73082" lon="1.75945">
        <ele>182.4</ele>
        <time>2026-01-31T12:19:40Z</time>
      </trkpt>
      <trkpt lat="48.7308" lon="1.75946">
        <ele>182.4</ele>
        <time>2026-01-31T12:19:41Z</time>
      </trkpt>
      <trkpt lat="48.73078" lon="1.75947">
        <ele>182.4</ele>
        <time>2026-01-31T12:19:42Z</time>
      </trkpt>
      <trkpt lat="48.73076" lon="1.75948">
        <ele>182.4</ele>
        <time>2026-01-31T12:19:43Z</time>
      </trkpt>
      <trkpt lat="48.73074" lon="1.75949">
        <ele>182.4</ele>
        <time>2026-01-31T12:19:44Z</time>
      </trkpt>
      <trkpt lat="48.73072" lon="1.7595">
        <ele>182.4</ele>
        <time>2026-01-31T12:19:45Z</time>
      </trkpt>
      <trkpt lat="48.7307" lon="1.7595">
        <ele>182.2</ele>
        <time>2026-01-31T12:19:46Z</time>
      </trkpt>
      <trkpt lat="48.73067" lon="1.75952">
        <ele>182.2</ele>
        <time>2026-01-31T12:19:48Z</time>
      </trkpt>
      <trkpt lat="48.73064" lon="1.75953">
        <ele>182.2</ele>
        <time>2026-01-31T12:19:50Z</time>
      </trkpt>
      <trkpt lat="48.7306" lon="1.75954">
        <ele>182</ele>
        <time>2026-01-31T12:19:52Z</time>
      </trkpt>
      <trkpt lat="48.73058" lon="1.75955">
        <ele>182</ele>
        <time>2026-01-31T12:19:54Z</time>
      </trkpt>
      <trkpt lat="48.73055" lon="1.75956">
        <ele>182</ele>
        <time>2026-01-31T12:19:56Z</time>
      </trkpt>
      <trkpt lat="48.73053" lon="1.75957">
        <ele>181.8</ele>
        <time>2026-01-31T12:19:58Z</time>
      </trkpt>
      <trkpt lat="48.7305" lon="1.75957">
        <ele>181.8</ele>
        <time>2026-01-31T12:20:00Z</time>
      </trkpt>
      <trkpt lat="48.73048" lon="1.75957">
        <ele>181.8</ele>
        <time>2026-01-31T12:20:02Z</time>
      </trkpt>
      <trkpt lat="48.73045" lon="1.75955">
        <ele>181.8</ele>
        <time>2026-01-31T12:20:04Z</time>
      </trkpt>
      <trkpt lat="48.73044" lon="1.75954">
        <ele>181.8</ele>
        <time>2026-01-31T12:20:05Z</time>
      </trkpt>
      <trkpt lat="48.73042" lon="1.75952">
        <ele>181.8</ele>
        <time>2026-01-31T12:20:06Z</time>
      </trkpt>
      <trkpt lat="48.73041" lon="1.7595">
        <ele>181.8</ele>
        <time>2026-01-31T12:20:07Z</time>
      </trkpt>
      <trkpt lat="48.73038" lon="1.75946">
        <ele>181.8</ele>
        <time>2026-01-31T12:20:09Z</time>
      </trkpt>
      <trkpt lat="48.73037" lon="1.75942">
        <ele>181.8</ele>
        <time>2026-01-31T12:20:11Z</time>
      </trkpt>
      <trkpt lat="48.73036" lon="1.75938">
        <ele>181.8</ele>
        <time>2026-01-31T12:20:13Z</time>
      </trkpt>
      <trkpt lat="48.73034" lon="1.75934">
        <ele>181.8</ele>
        <time>2026-01-31T12:20:15Z</time>
      </trkpt>
      <trkpt lat="48.73033" lon="1.75931">
        <ele>181.8</ele>
        <time>2026-01-31T12:20:17Z</time>
      </trkpt>
      <trkpt lat="48.73033" lon="1.75928">
        <ele>181.8</ele>
        <time>2026-01-31T12:20:19Z</time>
      </trkpt>
      <trkpt lat="48.73033" lon="1.75924">
        <ele>181.8</ele>
        <time>2026-01-31T12:20:21Z</time>
      </trkpt>
      <trkpt lat="48.73032" lon="1.75921">
        <ele>181.8</ele>
        <time>2026-01-31T12:20:23Z</time>
      </trkpt>
      <trkpt lat="48.73032" lon="1.75917">
        <ele>181.8</ele>
        <time>2026-01-31T12:20:25Z</time>
      </trkpt>
      <trkpt lat="48.73031" lon="1.75913">
        <ele>181.8</ele>
        <time>2026-01-31T12:20:27Z</time>
      </trkpt>
      <trkpt lat="48.73031" lon="1.7591">
        <ele>181.6</ele>
        <time>2026-01-31T12:20:29Z</time>
      </trkpt>
      <trkpt lat="48.73031" lon="1.75906">
        <ele>181.6</ele>
        <time>2026-01-31T12:20:31Z</time>
      </trkpt>
      <trkpt lat="48.73032" lon="1.75902">
        <ele>181.4</ele>
        <time>2026-01-31T12:20:33Z</time>
      </trkpt>
      <trkpt lat="48.73032" lon="1.75897">
        <ele>181.2</ele>
        <time>2026-01-31T12:20:35Z</time>
      </trkpt>
      <trkpt lat="48.73033" lon="1.75894">
        <ele>181.2</ele>
        <time>2026-01-31T12:20:37Z</time>
      </trkpt>
      <trkpt lat="48.73035" lon="1.7589">
        <ele>181</ele>
        <time>2026-01-31T12:20:39Z</time>
      </trkpt>
      <trkpt lat="48.73036" lon="1.75887">
        <ele>181</ele>
        <time>2026-01-31T12:20:41Z</time>
      </trkpt>
      <trkpt lat="48.73036" lon="1.75882">
        <ele>180.8</ele>
        <time>2026-01-31T12:20:43Z</time>
      </trkpt>
      <trkpt lat="48.73035" lon="1.75877">
        <ele>180.8</ele>
        <time>2026-01-31T12:20:45Z</time>
      </trkpt>
      <trkpt lat="48.73035" lon="1.75873">
        <ele>180.6</ele>
        <time>2026-01-31T12:20:47Z</time>
      </trkpt>
      <trkpt lat="48.73034" lon="1.75869">
        <ele>180.6</ele>
        <time>2026-01-31T12:20:49Z</time>
      </trkpt>
      <trkpt lat="48.73034" lon="1.75866">
        <ele>180.4</ele>
        <time>2026-01-31T12:20:51Z</time>
      </trkpt>
      <trkpt lat="48.73033" lon="1.75862">
        <ele>180.2</ele>
        <time>2026-01-31T12:20:53Z</time>
      </trkpt>
      <trkpt lat="48.73032" lon="1.75858">
        <ele>180.2</ele>
        <time>2026-01-31T12:20:55Z</time>
      </trkpt>
      <trkpt lat="48.73032" lon="1.75855">
        <ele>179.8</ele>
        <time>2026-01-31T12:20:57Z</time>
      </trkpt>
      <trkpt lat="48.73031" lon="1.75851">
        <ele>179.6</ele>
        <time>2026-01-31T12:20:59Z</time>
      </trkpt>
      <trkpt lat="48.7303" lon="1.75847">
        <ele>179.4</ele>
        <time>2026-01-31T12:21:01Z</time>
      </trkpt>
      <trkpt lat="48.7303" lon="1.75844">
        <ele>179</ele>
        <time>2026-01-31T12:21:03Z</time>
      </trkpt>
      <trkpt lat="48.73031" lon="1.7584">
        <ele>178.8</ele>
        <time>2026-01-31T12:21:05Z</time>
      </trkpt>
      <trkpt lat="48.73032" lon="1.75837">
        <ele>178.4</ele>
        <time>2026-01-31T12:21:07Z</time>
      </trkpt>
      <trkpt lat="48.73034" lon="1.75833">
        <ele>178.2</ele>
        <time>2026-01-31T12:21:09Z</time>
      </trkpt>
      <trkpt lat="48.73034" lon="1.75828">
        <ele>178</ele>
        <time>2026-01-31T12:21:11Z</time>
      </trkpt>
      <trkpt lat="48.73035" lon="1.75825">
        <ele>177.8</ele>
        <time>2026-01-31T12:21:12Z</time>
      </trkpt>
      <trkpt lat="48.73035" lon="1.75822">
        <ele>177.6</ele>
        <time>2026-01-31T12:21:13Z</time>
      </trkpt>
      <trkpt lat="48.73036" lon="1.75819">
        <ele>177.6</ele>
        <time>2026-01-31T12:21:14Z</time>
      </trkpt>
      <trkpt lat="48.73036" lon="1.75815">
        <ele>177.4</ele>
        <time>2026-01-31T12:21:16Z</time>
      </trkpt>
      <trkpt lat="48.73036" lon="1.75811">
        <ele>177</ele>
        <time>2026-01-31T12:21:18Z</time>
      </trkpt>
      <trkpt lat="48.73036" lon="1.75806">
        <ele>176.8</ele>
        <time>2026-01-31T12:21:20Z</time>
      </trkpt>
      <trkpt lat="48.73035" lon="1.75804">
        <ele>176.6</ele>
        <time>2026-01-31T12:21:21Z</time>
      </trkpt>
      <trkpt lat="48.73034" lon="1.75801">
        <ele>176.6</ele>
        <time>2026-01-31T12:21:22Z</time>
      </trkpt>
      <trkpt lat="48.73033" lon="1.75798">
        <ele>176.4</ele>
        <time>2026-01-31T12:21:23Z</time>
      </trkpt>
      <trkpt lat="48.73032" lon="1.75796">
        <ele>176.4</ele>
        <time>2026-01-31T12:21:24Z</time>
      </trkpt>
      <trkpt lat="48.73031" lon="1.75793">
        <ele>176.2</ele>
        <time>2026-01-31T12:21:25Z</time>
      </trkpt>
      <trkpt lat="48.7303" lon="1.7579">
        <ele>176.2</ele>
        <time>2026-01-31T12:21:26Z</time>
      </trkpt>
      <trkpt lat="48.7303" lon="1.75786">
        <ele>175.8</ele>
        <time>2026-01-31T12:21:28Z</time>
      </trkpt>
      <trkpt lat="48.73031" lon="1.75782">
        <ele>175.6</ele>
        <time>2026-01-31T12:21:30Z</time>
      </trkpt>
      <trkpt lat="48.73032" lon="1.75778">
        <ele>175.4</ele>
        <time>2026-01-31T12:21:32Z</time>
      </trkpt>
      <trkpt lat="48.73033" lon="1.75773">
        <ele>175.2</ele>
        <time>2026-01-31T12:21:34Z</time>
      </trkpt>
      <trkpt lat="48.73033" lon="1.75768">
        <ele>175</ele>
        <time>2026-01-31T12:21:36Z</time>
      </trkpt>
      <trkpt lat="48.73034" lon="1.75764">
        <ele>174.8</ele>
        <time>2026-01-31T12:21:38Z</time>
      </trkpt>
      <trkpt lat="48.73034" lon="1.75761">
        <ele>174.6</ele>
        <time>2026-01-31T12:21:40Z</time>
      </trkpt>
      <trkpt lat="48.73032" lon="1.75757">
        <ele>174.6</ele>
        <time>2026-01-31T12:21:42Z</time>
      </trkpt>
      <trkpt lat="48.73031" lon="1.75753">
        <ele>174.4</ele>
        <time>2026-01-31T12:21:44Z</time>
      </trkpt>
      <trkpt lat="48.7303" lon="1.75748">
        <ele>174.4</ele>
        <time>2026-01-31T12:21:46Z</time>
      </trkpt>
      <trkpt lat="48.7303" lon="1.75743">
        <ele>174.2</ele>
        <time>2026-01-31T12:21:48Z</time>
      </trkpt>
      <trkpt lat="48.7303" lon="1.75738">
        <ele>174.2</ele>
        <time>2026-01-31T12:21:50Z</time>
      </trkpt>
      <trkpt lat="48.73031" lon="1.75736">
        <ele>174.2</ele>
        <time>2026-01-31T12:21:51Z</time>
      </trkpt>
      <trkpt lat="48.73032" lon="1.75733">
        <ele>174.2</ele>
        <time>2026-01-31T12:21:52Z</time>
      </trkpt>
      <trkpt lat="48.73034" lon="1.75731">
        <ele>174.2</ele>
        <time>2026-01-31T12:21:53Z</time>
      </trkpt>
      <trkpt lat="48.73035" lon="1.75729">
        <ele>174</ele>
        <time>2026-01-31T12:21:54Z</time>
      </trkpt>
      <trkpt lat="48.73036" lon="1.75726">
        <ele>174</ele>
        <time>2026-01-31T12:21:55Z</time>
      </trkpt>
      <trkpt lat="48.73038" lon="1.75724">
        <ele>174.2</ele>
        <time>2026-01-31T12:21:56Z</time>
      </trkpt>
      <trkpt lat="48.73039" lon="1.75721">
        <ele>174.2</ele>
        <time>2026-01-31T12:21:57Z</time>
      </trkpt>
      <trkpt lat="48.7304" lon="1.75719">
        <ele>174.2</ele>
        <time>2026-01-31T12:21:58Z</time>
      </trkpt>
      <trkpt lat="48.73041" lon="1.75716">
        <ele>174.2</ele>
        <time>2026-01-31T12:21:59Z</time>
      </trkpt>
      <trkpt lat="48.73042" lon="1.75711">
        <ele>174.2</ele>
        <time>2026-01-31T12:22:01Z</time>
      </trkpt>
      <trkpt lat="48.73041" lon="1.75706">
        <ele>174.4</ele>
        <time>2026-01-31T12:22:03Z</time>
      </trkpt>
      <trkpt lat="48.73039" lon="1.75702">
        <ele>174.4</ele>
        <time>2026-01-31T12:22:05Z</time>
      </trkpt>
      <trkpt lat="48.73038" lon="1.757">
        <ele>174.4</ele>
        <time>2026-01-31T12:22:06Z</time>
      </trkpt>
      <trkpt lat="48.73038" lon="1.75695">
        <ele>174.4</ele>
        <time>2026-01-31T12:22:08Z</time>
      </trkpt>
      <trkpt lat="48.73038" lon="1.75691">
        <ele>174.6</ele>
        <time>2026-01-31T12:22:10Z</time>
      </trkpt>
      <trkpt lat="48.73039" lon="1.75687">
        <ele>174.6</ele>
        <time>2026-01-31T12:22:12Z</time>
      </trkpt>
      <trkpt lat="48.73039" lon="1.75682">
        <ele>174.8</ele>
        <time>2026-01-31T12:22:14Z</time>
      </trkpt>
      <trkpt lat="48.73038" lon="1.75679">
        <ele>175</ele>
        <time>2026-01-31T12:22:16Z</time>
      </trkpt>
      <trkpt lat="48.73037" lon="1.75675">
        <ele>175</ele>
        <time>2026-01-31T12:22:18Z</time>
      </trkpt>
      <trkpt lat="48.73035" lon="1.75671">
        <ele>175.2</ele>
        <time>2026-01-31T12:22:20Z</time>
      </trkpt>
      <trkpt lat="48.73034" lon="1.75669">
        <ele>175.2</ele>
        <time>2026-01-31T12:22:21Z</time>
      </trkpt>
      <trkpt lat="48.73033" lon="1.75666">
        <ele>175.2</ele>
        <time>2026-01-31T12:22:22Z</time>
      </trkpt>
      <trkpt lat="48.73033" lon="1.75663">
        <ele>175.2</ele>
        <time>2026-01-31T12:22:23Z</time>
      </trkpt>
      <trkpt lat="48.73032" lon="1.7566">
        <ele>175.2</ele>
        <time>2026-01-31T12:22:24Z</time>
      </trkpt>
      <trkpt lat="48.73032" lon="1.75657">
        <ele>175.2</ele>
        <time>2026-01-31T12:22:25Z</time>
      </trkpt>
      <trkpt lat="48.73032" lon="1.75654">
        <ele>175.4</ele>
        <time>2026-01-31T12:22:26Z</time>
      </trkpt>
      <trkpt lat="48.73032" lon="1.75651">
        <ele>175.4</ele>
        <time>2026-01-31T12:22:27Z</time>
      </trkpt>
      <trkpt lat="48.73032" lon="1.75646">
        <ele>175.6</ele>
        <time>2026-01-31T12:22:29Z</time>
      </trkpt>
      <trkpt lat="48.73031" lon="1.75642">
        <ele>175.6</ele>
        <time>2026-01-31T12:22:31Z</time>
      </trkpt>
      <trkpt lat="48.7303" lon="1.75639">
        <ele>175.8</ele>
        <time>2026-01-31T12:22:33Z</time>
      </trkpt>
      <trkpt lat="48.73029" lon="1.75635">
        <ele>176</ele>
        <time>2026-01-31T12:22:35Z</time>
      </trkpt>
      <trkpt lat="48.73028" lon="1.75631">
        <ele>176</ele>
        <time>2026-01-31T12:22:37Z</time>
      </trkpt>
      <trkpt lat="48.73029" lon="1.75627">
        <ele>176.2</ele>
        <time>2026-01-31T12:22:39Z</time>
      </trkpt>
      <trkpt lat="48.7303" lon="1.75623">
        <ele>176.4</ele>
        <time>2026-01-31T12:22:41Z</time>
      </trkpt>
      <trkpt lat="48.73032" lon="1.75618">
        <ele>176.4</ele>
        <time>2026-01-31T12:22:43Z</time>
      </trkpt>
      <trkpt lat="48.73033" lon="1.75616">
        <ele>176.4</ele>
        <time>2026-01-31T12:22:44Z</time>
      </trkpt>
      <trkpt lat="48.73034" lon="1.75613">
        <ele>176.6</ele>
        <time>2026-01-31T12:22:45Z</time>
      </trkpt>
      <trkpt lat="48.73035" lon="1.75611">
        <ele>176.6</ele>
        <time>2026-01-31T12:22:46Z</time>
      </trkpt>
      <trkpt lat="48.73036" lon="1.75608">
        <ele>176.6</ele>
        <time>2026-01-31T12:22:47Z</time>
      </trkpt>
      <trkpt lat="48.73038" lon="1.75605">
        <ele>176.6</ele>
        <time>2026-01-31T12:22:48Z</time>
      </trkpt>
      <trkpt lat="48.73039" lon="1.75603">
        <ele>176.6</ele>
        <time>2026-01-31T12:22:49Z</time>
      </trkpt>
      <trkpt lat="48.73041" lon="1.75599">
        <ele>176.6</ele>
        <time>2026-01-31T12:22:51Z</time>
      </trkpt>
      <trkpt lat="48.73042" lon="1.75594">
        <ele>176.6</ele>
        <time>2026-01-31T12:22:53Z</time>
      </trkpt>
      <trkpt lat="48.73043" lon="1.7559">
        <ele>176.6</ele>
        <time>2026-01-31T12:22:55Z</time>
      </trkpt>
      <trkpt lat="48.73044" lon="1.75585">
        <ele>176.6</ele>
        <time>2026-01-31T12:22:57Z</time>
      </trkpt>
      <trkpt lat="48.73045" lon="1.7558">
        <ele>176.6</ele>
        <time>2026-01-31T12:22:59Z</time>
      </trkpt>
      <trkpt lat="48.73047" lon="1.75576">
        <ele>176.6</ele>
        <time>2026-01-31T12:23:01Z</time>
      </trkpt>
      <trkpt lat="48.7305" lon="1.75571">
        <ele>176.4</ele>
        <time>2026-01-31T12:23:03Z</time>
      </trkpt>
      <trkpt lat="48.73052" lon="1.75566">
        <ele>176.2</ele>
        <time>2026-01-31T12:23:05Z</time>
      </trkpt>
      <trkpt lat="48.73052" lon="1.75564">
        <ele>176</ele>
        <time>2026-01-31T12:23:06Z</time>
      </trkpt>
      <trkpt lat="48.73054" lon="1.75562">
        <ele>176</ele>
        <time>2026-01-31T12:23:07Z</time>
      </trkpt>
      <trkpt lat="48.73055" lon="1.7556">
        <ele>175.8</ele>
        <time>2026-01-31T12:23:08Z</time>
      </trkpt>
      <trkpt lat="48.73057" lon="1.75556">
        <ele>175.8</ele>
        <time>2026-01-31T12:23:10Z</time>
      </trkpt>
      <trkpt lat="48.73056" lon="1.75552">
        <ele>175.8</ele>
        <time>2026-01-31T12:23:12Z</time>
      </trkpt>
      <trkpt lat="48.73055" lon="1.75548">
        <ele>175.8</ele>
        <time>2026-01-31T12:23:14Z</time>
      </trkpt>
      <trkpt lat="48.73055" lon="1.75544">
        <ele>175.8</ele>
        <time>2026-01-31T12:23:16Z</time>
      </trkpt>
      <trkpt lat="48.73056" lon="1.75539">
        <ele>175.6</ele>
        <time>2026-01-31T12:23:18Z</time>
      </trkpt>
      <trkpt lat="48.73057" lon="1.75535">
        <ele>175.6</ele>
        <time>2026-01-31T12:23:20Z</time>
      </trkpt>
      <trkpt lat="48.73057" lon="1.7553">
        <ele>175.4</ele>
        <time>2026-01-31T12:23:22Z</time>
      </trkpt>
      <trkpt lat="48.73057" lon="1.75526">
        <ele>175.4</ele>
        <time>2026-01-31T12:23:24Z</time>
      </trkpt>
      <trkpt lat="48.73058" lon="1.75522">
        <ele>175.2</ele>
        <time>2026-01-31T12:23:26Z</time>
      </trkpt>
      <trkpt lat="48.73058" lon="1.75518">
        <ele>175.2</ele>
        <time>2026-01-31T12:23:28Z</time>
      </trkpt>
      <trkpt lat="48.73058" lon="1.75514">
        <ele>175.2</ele>
        <time>2026-01-31T12:23:30Z</time>
      </trkpt>
      <trkpt lat="48.73057" lon="1.7551">
        <ele>175.2</ele>
        <time>2026-01-31T12:23:32Z</time>
      </trkpt>
      <trkpt lat="48.73056" lon="1.75506">
        <ele>175.2</ele>
        <time>2026-01-31T12:23:34Z</time>
      </trkpt>
      <trkpt lat="48.73056" lon="1.75503">
        <ele>175.2</ele>
        <time>2026-01-31T12:23:36Z</time>
      </trkpt>
      <trkpt lat="48.73055" lon="1.75498">
        <ele>175.2</ele>
        <time>2026-01-31T12:23:38Z</time>
      </trkpt>
      <trkpt lat="48.73055" lon="1.75494">
        <ele>175.2</ele>
        <time>2026-01-31T12:23:40Z</time>
      </trkpt>
      <trkpt lat="48.73055" lon="1.7549">
        <ele>175</ele>
        <time>2026-01-31T12:23:42Z</time>
      </trkpt>
      <trkpt lat="48.73055" lon="1.75486">
        <ele>175</ele>
        <time>2026-01-31T12:23:44Z</time>
      </trkpt>
      <trkpt lat="48.73055" lon="1.75482">
        <ele>175</ele>
        <time>2026-01-31T12:23:46Z</time>
      </trkpt>
      <trkpt lat="48.73055" lon="1.75477">
        <ele>174.8</ele>
        <time>2026-01-31T12:23:48Z</time>
      </trkpt>
      <trkpt lat="48.73055" lon="1.75473">
        <ele>174.8</ele>
        <time>2026-01-31T12:23:50Z</time>
      </trkpt>
      <trkpt lat="48.73055" lon="1.75468">
        <ele>174.6</ele>
        <time>2026-01-31T12:23:52Z</time>
      </trkpt>
      <trkpt lat="48.73055" lon="1.75465">
        <ele>174.6</ele>
        <time>2026-01-31T12:23:53Z</time>
      </trkpt>
      <trkpt lat="48.73056" lon="1.75462">
        <ele>174.6</ele>
        <time>2026-01-31T12:23:54Z</time>
      </trkpt>
      <trkpt lat="48.73056" lon="1.75459">
        <ele>174.6</ele>
        <time>2026-01-31T12:23:55Z</time>
      </trkpt>
      <trkpt lat="48.73056" lon="1.75454">
        <ele>174.4</ele>
        <time>2026-01-31T12:23:57Z</time>
      </trkpt>
      <trkpt lat="48.73056" lon="1.75449">
        <ele>174.2</ele>
        <time>2026-01-31T12:23:59Z</time>
      </trkpt>
      <trkpt lat="48.73056" lon="1.75445">
        <ele>174.2</ele>
        <time>2026-01-31T12:24:01Z</time>
      </trkpt>
      <trkpt lat="48.73056" lon="1.7544">
        <ele>174</ele>
        <time>2026-01-31T12:24:03Z</time>
      </trkpt>
      <trkpt lat="48.73056" lon="1.75436">
        <ele>174</ele>
        <time>2026-01-31T12:24:05Z</time>
      </trkpt>
      <trkpt lat="48.73056" lon="1.75431">
        <ele>174</ele>
        <time>2026-01-31T12:24:07Z</time>
      </trkpt>
      <trkpt lat="48.73055" lon="1.75427">
        <ele>174</ele>
        <time>2026-01-31T12:24:09Z</time>
      </trkpt>
      <trkpt lat="48.73055" lon="1.75424">
        <ele>174</ele>
        <time>2026-01-31T12:24:11Z</time>
      </trkpt>
      <trkpt lat="48.73055" lon="1.7542">
        <ele>173.8</ele>
        <time>2026-01-31T12:24:13Z</time>
      </trkpt>
      <trkpt lat="48.73055" lon="1.75417">
        <ele>173.8</ele>
        <time>2026-01-31T12:24:15Z</time>
      </trkpt>
      <trkpt lat="48.73054" lon="1.75414">
        <ele>173.6</ele>
        <time>2026-01-31T12:24:17Z</time>
      </trkpt>
      <trkpt lat="48.73054" lon="1.75411">
        <ele>173.4</ele>
        <time>2026-01-31T12:24:19Z</time>
      </trkpt>
      <trkpt lat="48.73054" lon="1.75409">
        <ele>173.2</ele>
        <time>2026-01-31T12:24:21Z</time>
      </trkpt>
      <trkpt lat="48.73054" lon="1.75405">
        <ele>173.2</ele>
        <time>2026-01-31T12:24:23Z</time>
      </trkpt>
      <trkpt lat="48.73053" lon="1.75401">
        <ele>173</ele>
        <time>2026-01-31T12:24:25Z</time>
      </trkpt>
      <trkpt lat="48.73053" lon="1.75397">
        <ele>172.8</ele>
        <time>2026-01-31T12:24:27Z</time>
      </trkpt>
      <trkpt lat="48.73054" lon="1.75392">
        <ele>172.4</ele>
        <time>2026-01-31T12:24:29Z</time>
      </trkpt>
      <trkpt lat="48.73054" lon="1.75388">
        <ele>172.2</ele>
        <time>2026-01-31T12:24:31Z</time>
      </trkpt>
      <trkpt lat="48.73055" lon="1.75383">
        <ele>171.8</ele>
        <time>2026-01-31T12:24:33Z</time>
      </trkpt>
      <trkpt lat="48.73056" lon="1.75379">
        <ele>171.6</ele>
        <time>2026-01-31T12:24:35Z</time>
      </trkpt>
      <trkpt lat="48.73056" lon="1.75375">
        <ele>171.2</ele>
        <time>2026-01-31T12:24:37Z</time>
      </trkpt>
      <trkpt lat="48.73055" lon="1.75372">
        <ele>171</ele>
        <time>2026-01-31T12:24:39Z</time>
      </trkpt>
      <trkpt lat="48.73056" lon="1.75368">
        <ele>170.8</ele>
        <time>2026-01-31T12:24:41Z</time>
      </trkpt>
      <trkpt lat="48.73057" lon="1.75364">
        <ele>170.4</ele>
        <time>2026-01-31T12:24:43Z</time>
      </trkpt>
      <trkpt lat="48.73059" lon="1.75359">
        <ele>170.2</ele>
        <time>2026-01-31T12:24:45Z</time>
      </trkpt>
      <trkpt lat="48.7306" lon="1.75357">
        <ele>170</ele>
        <time>2026-01-31T12:24:46Z</time>
      </trkpt>
      <trkpt lat="48.7306" lon="1.75352">
        <ele>169.8</ele>
        <time>2026-01-31T12:24:48Z</time>
      </trkpt>
      <trkpt lat="48.73061" lon="1.75347">
        <ele>169.4</ele>
        <time>2026-01-31T12:24:50Z</time>
      </trkpt>
      <trkpt lat="48.73061" lon="1.75343">
        <ele>169.2</ele>
        <time>2026-01-31T12:24:52Z</time>
      </trkpt>
      <trkpt lat="48.73061" lon="1.75339">
        <ele>169</ele>
        <time>2026-01-31T12:24:54Z</time>
      </trkpt>
      <trkpt lat="48.73061" lon="1.75335">
        <ele>168.8</ele>
        <time>2026-01-31T12:24:56Z</time>
      </trkpt>
      <trkpt lat="48.7306" lon="1.75331">
        <ele>168.6</ele>
        <time>2026-01-31T12:24:58Z</time>
      </trkpt>
      <trkpt lat="48.73059" lon="1.75326">
        <ele>168.2</ele>
        <time>2026-01-31T12:25:00Z</time>
      </trkpt>
      <trkpt lat="48.73058" lon="1.75322">
        <ele>167.8</ele>
        <time>2026-01-31T12:25:02Z</time>
      </trkpt>
      <trkpt lat="48.73059" lon="1.75317">
        <ele>167.4</ele>
        <time>2026-01-31T12:25:04Z</time>
      </trkpt>
      <trkpt lat="48.7306" lon="1.75312">
        <ele>167</ele>
        <time>2026-01-31T12:25:06Z</time>
      </trkpt>
      <trkpt lat="48.73059" lon="1.75308">
        <ele>166.8</ele>
        <time>2026-01-31T12:25:08Z</time>
      </trkpt>
      <trkpt lat="48.73057" lon="1.75304">
        <ele>166.4</ele>
        <time>2026-01-31T12:25:10Z</time>
      </trkpt>
      <trkpt lat="48.73055" lon="1.75302">
        <ele>166.2</ele>
        <time>2026-01-31T12:25:11Z</time>
      </trkpt>
      <trkpt lat="48.73053" lon="1.753">
        <ele>166</ele>
        <time>2026-01-31T12:25:12Z</time>
      </trkpt>
      <trkpt lat="48.73051" lon="1.75298">
        <ele>166</ele>
        <time>2026-01-31T12:25:13Z</time>
      </trkpt>
      <trkpt lat="48.73049" lon="1.75297">
        <ele>165.8</ele>
        <time>2026-01-31T12:25:14Z</time>
      </trkpt>
      <trkpt lat="48.73046" lon="1.75295">
        <ele>165.6</ele>
        <time>2026-01-31T12:25:15Z</time>
      </trkpt>
      <trkpt lat="48.73044" lon="1.75293">
        <ele>165.6</ele>
        <time>2026-01-31T12:25:16Z</time>
      </trkpt>
      <trkpt lat="48.73042" lon="1.75289">
        <ele>165.4</ele>
        <time>2026-01-31T12:25:18Z</time>
      </trkpt>
      <trkpt lat="48.73041" lon="1.75285">
        <ele>165.2</ele>
        <time>2026-01-31T12:25:20Z</time>
      </trkpt>
      <trkpt lat="48.73041" lon="1.75281">
        <ele>165.2</ele>
        <time>2026-01-31T12:25:22Z</time>
      </trkpt>
      <trkpt lat="48.73041" lon="1.75276">
        <ele>165</ele>
        <time>2026-01-31T12:25:24Z</time>
      </trkpt>
      <trkpt lat="48.7304" lon="1.75271">
        <ele>164.8</ele>
        <time>2026-01-31T12:25:26Z</time>
      </trkpt>
      <trkpt lat="48.73039" lon="1.75267">
        <ele>164.6</ele>
        <time>2026-01-31T12:25:28Z</time>
      </trkpt>
      <trkpt lat="48.73038" lon="1.75263">
        <ele>164.6</ele>
        <time>2026-01-31T12:25:30Z</time>
      </trkpt>
      <trkpt lat="48.7304" lon="1.7526">
        <ele>164.4</ele>
        <time>2026-01-31T12:25:32Z</time>
      </trkpt>
      <trkpt lat="48.73042" lon="1.75258">
        <ele>164.2</ele>
        <time>2026-01-31T12:25:34Z</time>
      </trkpt>
      <trkpt lat="48.73041" lon="1.75255">
        <ele>164</ele>
        <time>2026-01-31T12:25:36Z</time>
      </trkpt>
      <trkpt lat="48.7304" lon="1.75253">
        <ele>164</ele>
        <time>2026-01-31T12:25:37Z</time>
      </trkpt>
      <trkpt lat="48.73038" lon="1.75251">
        <ele>164</ele>
        <time>2026-01-31T12:25:38Z</time>
      </trkpt>
      <trkpt lat="48.73036" lon="1.75249">
        <ele>163.8</ele>
        <time>2026-01-31T12:25:39Z</time>
      </trkpt>
      <trkpt lat="48.73034" lon="1.75247">
        <ele>163.8</ele>
        <time>2026-01-31T12:25:40Z</time>
      </trkpt>
      <trkpt lat="48.73032" lon="1.75245">
        <ele>163.6</ele>
        <time>2026-01-31T12:25:41Z</time>
      </trkpt>
      <trkpt lat="48.7303" lon="1.75242">
        <ele>163.4</ele>
        <time>2026-01-31T12:25:43Z</time>
      </trkpt>
      <trkpt lat="48.73028" lon="1.75238">
        <ele>163.2</ele>
        <time>2026-01-31T12:25:45Z</time>
      </trkpt>
      <trkpt lat="48.73028" lon="1.75235">
        <ele>163</ele>
        <time>2026-01-31T12:25:47Z</time>
      </trkpt>
      <trkpt lat="48.73028" lon="1.75231">
        <ele>162.8</ele>
        <time>2026-01-31T12:25:49Z</time>
      </trkpt>
      <trkpt lat="48.73029" lon="1.75227">
        <ele>162.6</ele>
        <time>2026-01-31T12:25:51Z</time>
      </trkpt>
      <trkpt lat="48.73031" lon="1.75223">
        <ele>162.4</ele>
        <time>2026-01-31T12:25:53Z</time>
      </trkpt>
      <trkpt lat="48.73032" lon="1.75218">
        <ele>162.2</ele>
        <time>2026-01-31T12:25:55Z</time>
      </trkpt>
      <trkpt lat="48.73033" lon="1.75215">
        <ele>162.2</ele>
        <time>2026-01-31T12:25:56Z</time>
      </trkpt>
      <trkpt lat="48.73034" lon="1.75213">
        <ele>162</ele>
        <time>2026-01-31T12:25:57Z</time>
      </trkpt>
      <trkpt lat="48.73036" lon="1.75211">
        <ele>162</ele>
        <time>2026-01-31T12:25:58Z</time>
      </trkpt>
      <trkpt lat="48.73037" lon="1.75209">
        <ele>161.8</ele>
        <time>2026-01-31T12:25:59Z</time>
      </trkpt>
      <trkpt lat="48.73039" lon="1.75206">
        <ele>161.8</ele>
        <time>2026-01-31T12:26:00Z</time>
      </trkpt>
      <trkpt lat="48.73041" lon="1.75204">
        <ele>161.6</ele>
        <time>2026-01-31T12:26:01Z</time>
      </trkpt>
      <trkpt lat="48.73043" lon="1.75202">
        <ele>161.6</ele>
        <time>2026-01-31T12:26:02Z</time>
      </trkpt>
      <trkpt lat="48.73044" lon="1.752">
        <ele>161.4</ele>
        <time>2026-01-31T12:26:03Z</time>
      </trkpt>
      <trkpt lat="48.73046" lon="1.75198">
        <ele>161.2</ele>
        <time>2026-01-31T12:26:04Z</time>
      </trkpt>
      <trkpt lat="48.73048" lon="1.75195">
        <ele>161</ele>
        <time>2026-01-31T12:26:06Z</time>
      </trkpt>
      <trkpt lat="48.7305" lon="1.75192">
        <ele>160.8</ele>
        <time>2026-01-31T12:26:08Z</time>
      </trkpt>
      <trkpt lat="48.73052" lon="1.75188">
        <ele>160.6</ele>
        <time>2026-01-31T12:26:10Z</time>
      </trkpt>
      <trkpt lat="48.73053" lon="1.75184">
        <ele>160.2</ele>
        <time>2026-01-31T12:26:12Z</time>
      </trkpt>
      <trkpt lat="48.73054" lon="1.7518">
        <ele>160</ele>
        <time>2026-01-31T12:26:14Z</time>
      </trkpt>
      <trkpt lat="48.73054" lon="1.75177">
        <ele>159.8</ele>
        <time>2026-01-31T12:26:16Z</time>
      </trkpt>
      <trkpt lat="48.73055" lon="1.75175">
        <ele>159.6</ele>
        <time>2026-01-31T12:26:18Z</time>
      </trkpt>
      <trkpt lat="48.73058" lon="1.75173">
        <ele>159.4</ele>
        <time>2026-01-31T12:26:22Z</time>
      </trkpt>
      <trkpt lat="48.7306" lon="1.75173">
        <ele>159.4</ele>
        <time>2026-01-31T12:26:28Z</time>
      </trkpt>
      <trkpt lat="48.7306" lon="1.7517">
        <ele>159.4</ele>
        <time>2026-01-31T12:26:32Z</time>
      </trkpt>
      <trkpt lat="48.7306" lon="1.75167">
        <ele>159.6</ele>
        <time>2026-01-31T12:26:34Z</time>
      </trkpt>
      <trkpt lat="48.73059" lon="1.75164">
        <ele>159.6</ele>
        <time>2026-01-31T12:26:36Z</time>
      </trkpt>
      <trkpt lat="48.73055" lon="1.7516">
        <ele>159.6</ele>
        <time>2026-01-31T12:26:38Z</time>
      </trkpt>
      <trkpt lat="48.73053" lon="1.75158">
        <ele>159.6</ele>
        <time>2026-01-31T12:26:39Z</time>
      </trkpt>
      <trkpt lat="48.73052" lon="1.75157">
        <ele>159.6</ele>
        <time>2026-01-31T12:26:40Z</time>
      </trkpt>
      <trkpt lat="48.7305" lon="1.75155">
        <ele>159.6</ele>
        <time>2026-01-31T12:26:41Z</time>
      </trkpt>
      <trkpt lat="48.73049" lon="1.75152">
        <ele>159.6</ele>
        <time>2026-01-31T12:26:43Z</time>
      </trkpt>
      <trkpt lat="48.73048" lon="1.75148">
        <ele>159.8</ele>
        <time>2026-01-31T12:26:45Z</time>
      </trkpt>
      <trkpt lat="48.73049" lon="1.75145">
        <ele>159.8</ele>
        <time>2026-01-31T12:26:47Z</time>
      </trkpt>
      <trkpt lat="48.73049" lon="1.75143">
        <ele>159.8</ele>
        <time>2026-01-31T12:26:49Z</time>
      </trkpt>
      <trkpt lat="48.7305" lon="1.75139">
        <ele>159.8</ele>
        <time>2026-01-31T12:26:52Z</time>
      </trkpt>
      <trkpt lat="48.73049" lon="1.75137">
        <ele>159.8</ele>
        <time>2026-01-31T12:26:54Z</time>
      </trkpt>
      <trkpt lat="48.73049" lon="1.75133">
        <ele>159.8</ele>
        <time>2026-01-31T12:26:56Z</time>
      </trkpt>
      <trkpt lat="48.73049" lon="1.7513">
        <ele>159.6</ele>
        <time>2026-01-31T12:26:58Z</time>
      </trkpt>
      <trkpt lat="48.7305" lon="1.75127">
        <ele>159.6</ele>
        <time>2026-01-31T12:27:00Z</time>
      </trkpt>
      <trkpt lat="48.73051" lon="1.75123">
        <ele>159.4</ele>
        <time>2026-01-31T12:27:02Z</time>
      </trkpt>
      <trkpt lat="48.73052" lon="1.75121">
        <ele>159.2</ele>
        <time>2026-01-31T12:27:04Z</time>
      </trkpt>
      <trkpt lat="48.73052" lon="1.75118">
        <ele>159</ele>
        <time>2026-01-31T12:27:06Z</time>
      </trkpt>
      <trkpt lat="48.7305" lon="1.75114">
        <ele>159</ele>
        <time>2026-01-31T12:27:08Z</time>
      </trkpt>
      <trkpt lat="48.73048" lon="1.75111">
        <ele>159</ele>
        <time>2026-01-31T12:27:10Z</time>
      </trkpt>
      <trkpt lat="48.73046" lon="1.75107">
        <ele>159</ele>
        <time>2026-01-31T12:27:12Z</time>
      </trkpt>
      <trkpt lat="48.73044" lon="1.75104">
        <ele>158.8</ele>
        <time>2026-01-31T12:27:14Z</time>
      </trkpt>
      <trkpt lat="48.73042" lon="1.751">
        <ele>158.8</ele>
        <time>2026-01-31T12:27:16Z</time>
      </trkpt>
      <trkpt lat="48.7304" lon="1.75098">
        <ele>158.8</ele>
        <time>2026-01-31T12:27:17Z</time>
      </trkpt>
      <trkpt lat="48.73039" lon="1.75094">
        <ele>158.6</ele>
        <time>2026-01-31T12:27:19Z</time>
      </trkpt>
      <trkpt lat="48.7304" lon="1.75091">
        <ele>158.4</ele>
        <time>2026-01-31T12:27:21Z</time>
      </trkpt>
      <trkpt lat="48.7304" lon="1.75086">
        <ele>158.2</ele>
        <time>2026-01-31T12:27:23Z</time>
      </trkpt>
      <trkpt lat="48.7304" lon="1.75081">
        <ele>158.2</ele>
        <time>2026-01-31T12:27:25Z</time>
      </trkpt>
      <trkpt lat="48.7304" lon="1.75076">
        <ele>158.2</ele>
        <time>2026-01-31T12:27:27Z</time>
      </trkpt>
      <trkpt lat="48.73041" lon="1.75071">
        <ele>158.2</ele>
        <time>2026-01-31T12:27:29Z</time>
      </trkpt>
      <trkpt lat="48.73041" lon="1.75066">
        <ele>158</ele>
        <time>2026-01-31T12:27:31Z</time>
      </trkpt>
      <trkpt lat="48.73041" lon="1.75062">
        <ele>158</ele>
        <time>2026-01-31T12:27:33Z</time>
      </trkpt>
      <trkpt lat="48.73042" lon="1.75057">
        <ele>158</ele>
        <time>2026-01-31T12:27:35Z</time>
      </trkpt>
      <trkpt lat="48.73043" lon="1.75055">
        <ele>158</ele>
        <time>2026-01-31T12:27:36Z</time>
      </trkpt>
      <trkpt lat="48.73044" lon="1.75052">
        <ele>158</ele>
        <time>2026-01-31T12:27:37Z</time>
      </trkpt>
      <trkpt lat="48.73047" lon="1.7505">
        <ele>157.8</ele>
        <time>2026-01-31T12:27:38Z</time>
      </trkpt>
      <trkpt lat="48.73049" lon="1.75047">
        <ele>157.8</ele>
        <time>2026-01-31T12:27:39Z</time>
      </trkpt>
      <trkpt lat="48.73051" lon="1.75045">
        <ele>157.8</ele>
        <time>2026-01-31T12:27:40Z</time>
      </trkpt>
      <trkpt lat="48.73052" lon="1.75042">
        <ele>157.8</ele>
        <time>2026-01-31T12:27:41Z</time>
      </trkpt>
      <trkpt lat="48.73053" lon="1.7504">
        <ele>157.8</ele>
        <time>2026-01-31T12:27:42Z</time>
      </trkpt>
      <trkpt lat="48.73052" lon="1.75035">
        <ele>157.6</ele>
        <time>2026-01-31T12:27:44Z</time>
      </trkpt>
      <trkpt lat="48.73051" lon="1.75031">
        <ele>157.6</ele>
        <time>2026-01-31T12:27:46Z</time>
      </trkpt>
      <trkpt lat="48.7305" lon="1.75029">
        <ele>157.6</ele>
        <time>2026-01-31T12:27:47Z</time>
      </trkpt>
      <trkpt lat="48.73049" lon="1.75026">
        <ele>157.4</ele>
        <time>2026-01-31T12:27:48Z</time>
      </trkpt>
      <trkpt lat="48.73047" lon="1.75022">
        <ele>157.4</ele>
        <time>2026-01-31T12:27:50Z</time>
      </trkpt>
      <trkpt lat="48.73045" lon="1.7502">
        <ele>157.4</ele>
        <time>2026-01-31T12:27:51Z</time>
      </trkpt>
      <trkpt lat="48.73044" lon="1.75018">
        <ele>157.4</ele>
        <time>2026-01-31T12:27:52Z</time>
      </trkpt>
      <trkpt lat="48.73043" lon="1.75015">
        <ele>157.4</ele>
        <time>2026-01-31T12:27:53Z</time>
      </trkpt>
      <trkpt lat="48.73041" lon="1.75013">
        <ele>157.4</ele>
        <time>2026-01-31T12:27:54Z</time>
      </trkpt>
      <trkpt lat="48.7304" lon="1.75011">
        <ele>157.4</ele>
        <time>2026-01-31T12:27:55Z</time>
      </trkpt>
      <trkpt lat="48.73038" lon="1.75008">
        <ele>157.2</ele>
        <time>2026-01-31T12:27:56Z</time>
      </trkpt>
      <trkpt lat="48.73037" lon="1.75003">
        <ele>157.2</ele>
        <time>2026-01-31T12:27:58Z</time>
      </trkpt>
      <trkpt lat="48.73036" lon="1.74999">
        <ele>157.2</ele>
        <time>2026-01-31T12:28:00Z</time>
      </trkpt>
      <trkpt lat="48.73035" lon="1.74996">
        <ele>157</ele>
        <time>2026-01-31T12:28:02Z</time>
      </trkpt>
      <trkpt lat="48.73034" lon="1.74993">
        <ele>157</ele>
        <time>2026-01-31T12:28:04Z</time>
      </trkpt>
      <trkpt lat="48.73034" lon="1.7499">
        <ele>157</ele>
        <time>2026-01-31T12:28:06Z</time>
      </trkpt>
      <trkpt lat="48.73034" lon="1.74986">
        <ele>157.2</ele>
        <time>2026-01-31T12:28:08Z</time>
      </trkpt>
      <trkpt lat="48.73032" lon="1.74981">
        <ele>157.2</ele>
        <time>2026-01-31T12:28:10Z</time>
      </trkpt>
      <trkpt lat="48.73029" lon="1.74979">
        <ele>157.2</ele>
        <time>2026-01-31T12:28:11Z</time>
      </trkpt>
      <trkpt lat="48.73028" lon="1.74977">
        <ele>157.2</ele>
        <time>2026-01-31T12:28:12Z</time>
      </trkpt>
      <trkpt lat="48.73026" lon="1.74974">
        <ele>157.2</ele>
        <time>2026-01-31T12:28:13Z</time>
      </trkpt>
      <trkpt lat="48.73024" lon="1.74972">
        <ele>157.4</ele>
        <time>2026-01-31T12:28:14Z</time>
      </trkpt>
      <trkpt lat="48.73022" lon="1.7497">
        <ele>157.2</ele>
        <time>2026-01-31T12:28:15Z</time>
      </trkpt>
      <trkpt lat="48.7302" lon="1.74966">
        <ele>157.2</ele>
        <time>2026-01-31T12:28:17Z</time>
      </trkpt>
      <trkpt lat="48.7302" lon="1.74961">
        <ele>157.2</ele>
        <time>2026-01-31T12:28:19Z</time>
      </trkpt>
      <trkpt lat="48.7302" lon="1.74957">
        <ele>157.2</ele>
        <time>2026-01-31T12:28:21Z</time>
      </trkpt>
      <trkpt lat="48.73022" lon="1.74954">
        <ele>157</ele>
        <time>2026-01-31T12:28:23Z</time>
      </trkpt>
      <trkpt lat="48.73024" lon="1.7495">
        <ele>156.8</ele>
        <time>2026-01-31T12:28:25Z</time>
      </trkpt>
      <trkpt lat="48.73026" lon="1.74947">
        <ele>156.6</ele>
        <time>2026-01-31T12:28:27Z</time>
      </trkpt>
      <trkpt lat="48.73026" lon="1.74943">
        <ele>156.6</ele>
        <time>2026-01-31T12:28:29Z</time>
      </trkpt>
      <trkpt lat="48.73028" lon="1.74941">
        <ele>156.4</ele>
        <time>2026-01-31T12:28:31Z</time>
      </trkpt>
      <trkpt lat="48.73029" lon="1.74938">
        <ele>156.4</ele>
        <time>2026-01-31T12:28:33Z</time>
      </trkpt>
      <trkpt lat="48.7303" lon="1.74935">
        <ele>156.4</ele>
        <time>2026-01-31T12:28:35Z</time>
      </trkpt>
      <trkpt lat="48.73032" lon="1.74932">
        <ele>156.4</ele>
        <time>2026-01-31T12:28:37Z</time>
      </trkpt>
      <trkpt lat="48.73033" lon="1.74929">
        <ele>156.2</ele>
        <time>2026-01-31T12:28:39Z</time>
      </trkpt>
      <trkpt lat="48.73034" lon="1.74925">
        <ele>156.2</ele>
        <time>2026-01-31T12:28:41Z</time>
      </trkpt>
      <trkpt lat="48.73035" lon="1.74922">
        <ele>156</ele>
        <time>2026-01-31T12:28:43Z</time>
      </trkpt>
      <trkpt lat="48.73036" lon="1.74918">
        <ele>155.8</ele>
        <time>2026-01-31T12:28:45Z</time>
      </trkpt>
      <trkpt lat="48.73036" lon="1.74913">
        <ele>155.4</ele>
        <time>2026-01-31T12:28:47Z</time>
      </trkpt>
      <trkpt lat="48.73038" lon="1.74909">
        <ele>155</ele>
        <time>2026-01-31T12:28:49Z</time>
      </trkpt>
      <trkpt lat="48.73039" lon="1.74904">
        <ele>154.8</ele>
        <time>2026-01-31T12:28:51Z</time>
      </trkpt>
      <trkpt lat="48.7304" lon="1.749">
        <ele>154.6</ele>
        <time>2026-01-31T12:28:53Z</time>
      </trkpt>
      <trkpt lat="48.73041" lon="1.74896">
        <ele>154.4</ele>
        <time>2026-01-31T12:28:55Z</time>
      </trkpt>
      <trkpt lat="48.73042" lon="1.74892">
        <ele>154.2</ele>
        <time>2026-01-31T12:28:57Z</time>
      </trkpt>
      <trkpt lat="48.73043" lon="1.74888">
        <ele>154.2</ele>
        <time>2026-01-31T12:28:59Z</time>
      </trkpt>
      <trkpt lat="48.73044" lon="1.74884">
        <ele>154</ele>
        <time>2026-01-31T12:29:01Z</time>
      </trkpt>
      <trkpt lat="48.73045" lon="1.74879">
        <ele>154</ele>
        <time>2026-01-31T12:29:03Z</time>
      </trkpt>
      <trkpt lat="48.73044" lon="1.74874">
        <ele>153.8</ele>
        <time>2026-01-31T12:29:05Z</time>
      </trkpt>
      <trkpt lat="48.73044" lon="1.74871">
        <ele>153.8</ele>
        <time>2026-01-31T12:29:06Z</time>
      </trkpt>
      <trkpt lat="48.73043" lon="1.74868">
        <ele>153.8</ele>
        <time>2026-01-31T12:29:07Z</time>
      </trkpt>
      <trkpt lat="48.73042" lon="1.74866">
        <ele>153.8</ele>
        <time>2026-01-31T12:29:08Z</time>
      </trkpt>
      <trkpt lat="48.73042" lon="1.74861">
        <ele>153.8</ele>
        <time>2026-01-31T12:29:10Z</time>
      </trkpt>
      <trkpt lat="48.73043" lon="1.74857">
        <ele>153.6</ele>
        <time>2026-01-31T12:29:12Z</time>
      </trkpt>
      <trkpt lat="48.73044" lon="1.74853">
        <ele>153.6</ele>
        <time>2026-01-31T12:29:14Z</time>
      </trkpt>
      <trkpt lat="48.73044" lon="1.74849">
        <ele>153.4</ele>
        <time>2026-01-31T12:29:16Z</time>
      </trkpt>
      <trkpt lat="48.73043" lon="1.74845">
        <ele>153.4</ele>
        <time>2026-01-31T12:29:18Z</time>
      </trkpt>
      <trkpt lat="48.73041" lon="1.74843">
        <ele>153.4</ele>
        <time>2026-01-31T12:29:19Z</time>
      </trkpt>
      <trkpt lat="48.7304" lon="1.74841">
        <ele>153.4</ele>
        <time>2026-01-31T12:29:20Z</time>
      </trkpt>
      <trkpt lat="48.73038" lon="1.74839">
        <ele>153.4</ele>
        <time>2026-01-31T12:29:21Z</time>
      </trkpt>
      <trkpt lat="48.73036" lon="1.74836">
        <ele>153.4</ele>
        <time>2026-01-31T12:29:22Z</time>
      </trkpt>
      <trkpt lat="48.73035" lon="1.74834">
        <ele>153.2</ele>
        <time>2026-01-31T12:29:23Z</time>
      </trkpt>
      <trkpt lat="48.73034" lon="1.74831">
        <ele>153.2</ele>
        <time>2026-01-31T12:29:24Z</time>
      </trkpt>
      <trkpt lat="48.73034" lon="1.74827">
        <ele>153.2</ele>
        <time>2026-01-31T12:29:26Z</time>
      </trkpt>
      <trkpt lat="48.73034" lon="1.74822">
        <ele>153</ele>
        <time>2026-01-31T12:29:28Z</time>
      </trkpt>
      <trkpt lat="48.73034" lon="1.74818">
        <ele>152.8</ele>
        <time>2026-01-31T12:29:30Z</time>
      </trkpt>
      <trkpt lat="48.73033" lon="1.74814">
        <ele>152.8</ele>
        <time>2026-01-31T12:29:32Z</time>
      </trkpt>
      <trkpt lat="48.73032" lon="1.7481">
        <ele>152.6</ele>
        <time>2026-01-31T12:29:34Z</time>
      </trkpt>
      <trkpt lat="48.73031" lon="1.74806">
        <ele>152.4</ele>
        <time>2026-01-31T12:29:36Z</time>
      </trkpt>
      <trkpt lat="48.7303" lon="1.74802">
        <ele>152.4</ele>
        <time>2026-01-31T12:29:38Z</time>
      </trkpt>
      <trkpt lat="48.7303" lon="1.74799">
        <ele>152.2</ele>
        <time>2026-01-31T12:29:40Z</time>
      </trkpt>
      <trkpt lat="48.7303" lon="1.74795">
        <ele>152.2</ele>
        <time>2026-01-31T12:29:42Z</time>
      </trkpt>
      <trkpt lat="48.73031" lon="1.74793">
        <ele>152</ele>
        <time>2026-01-31T12:29:44Z</time>
      </trkpt>
      <trkpt lat="48.7303" lon="1.74789">
        <ele>151.8</ele>
        <time>2026-01-31T12:29:47Z</time>
      </trkpt>
      <trkpt lat="48.7303" lon="1.74785">
        <ele>151.8</ele>
        <time>2026-01-31T12:29:50Z</time>
      </trkpt>
      <trkpt lat="48.73031" lon="1.74781">
        <ele>151.8</ele>
        <time>2026-01-31T12:29:52Z</time>
      </trkpt>
      <trkpt lat="48.73034" lon="1.74778">
        <ele>151.8</ele>
        <time>2026-01-31T12:29:54Z</time>
      </trkpt>
      <trkpt lat="48.73036" lon="1.74775">
        <ele>151.8</ele>
        <time>2026-01-31T12:29:56Z</time>
      </trkpt>
      <trkpt lat="48.73037" lon="1.74772">
        <ele>151.8</ele>
        <time>2026-01-31T12:29:58Z</time>
      </trkpt>
      <trkpt lat="48.73037" lon="1.74768">
        <ele>152</ele>
        <time>2026-01-31T12:30:00Z</time>
      </trkpt>
      <trkpt lat="48.73037" lon="1.74763">
        <ele>152</ele>
        <time>2026-01-31T12:30:02Z</time>
      </trkpt>
      <trkpt lat="48.73038" lon="1.7476">
        <ele>152</ele>
        <time>2026-01-31T12:30:04Z</time>
      </trkpt>
      <trkpt lat="48.73039" lon="1.74756">
        <ele>152</ele>
        <time>2026-01-31T12:30:06Z</time>
      </trkpt>
      <trkpt lat="48.73039" lon="1.74752">
        <ele>151.8</ele>
        <time>2026-01-31T12:30:08Z</time>
      </trkpt>
      <trkpt lat="48.73038" lon="1.74747">
        <ele>151.6</ele>
        <time>2026-01-31T12:30:10Z</time>
      </trkpt>
      <trkpt lat="48.73036" lon="1.74745">
        <ele>151.4</ele>
        <time>2026-01-31T12:30:11Z</time>
      </trkpt>
      <trkpt lat="48.73035" lon="1.74742">
        <ele>151.4</ele>
        <time>2026-01-31T12:30:12Z</time>
      </trkpt>
      <trkpt lat="48.73034" lon="1.7474">
        <ele>151.4</ele>
        <time>2026-01-31T12:30:13Z</time>
      </trkpt>
      <trkpt lat="48.73033" lon="1.74738">
        <ele>151.2</ele>
        <time>2026-01-31T12:30:14Z</time>
      </trkpt>
      <trkpt lat="48.73032" lon="1.74735">
        <ele>151.2</ele>
        <time>2026-01-31T12:30:15Z</time>
      </trkpt>
      <trkpt lat="48.73032" lon="1.74731">
        <ele>151</ele>
        <time>2026-01-31T12:30:17Z</time>
      </trkpt>
      <trkpt lat="48.73033" lon="1.74726">
        <ele>150.8</ele>
        <time>2026-01-31T12:30:19Z</time>
      </trkpt>
      <trkpt lat="48.73035" lon="1.74722">
        <ele>150.6</ele>
        <time>2026-01-31T12:30:21Z</time>
      </trkpt>
      <trkpt lat="48.73036" lon="1.74719">
        <ele>150.4</ele>
        <time>2026-01-31T12:30:23Z</time>
      </trkpt>
      <trkpt lat="48.73037" lon="1.74715">
        <ele>150.2</ele>
        <time>2026-01-31T12:30:25Z</time>
      </trkpt>
      <trkpt lat="48.73037" lon="1.74711">
        <ele>150</ele>
        <time>2026-01-31T12:30:27Z</time>
      </trkpt>
      <trkpt lat="48.73036" lon="1.74706">
        <ele>149.8</ele>
        <time>2026-01-31T12:30:29Z</time>
      </trkpt>
      <trkpt lat="48.73034" lon="1.74703">
        <ele>149.8</ele>
        <time>2026-01-31T12:30:30Z</time>
      </trkpt>
      <trkpt lat="48.73033" lon="1.74701">
        <ele>149.6</ele>
        <time>2026-01-31T12:30:31Z</time>
      </trkpt>
      <trkpt lat="48.73032" lon="1.74699">
        <ele>149.6</ele>
        <time>2026-01-31T12:30:32Z</time>
      </trkpt>
      <trkpt lat="48.73031" lon="1.74696">
        <ele>149.4</ele>
        <time>2026-01-31T12:30:34Z</time>
      </trkpt>
      <trkpt lat="48.73032" lon="1.74693">
        <ele>149.2</ele>
        <time>2026-01-31T12:30:37Z</time>
      </trkpt>
      <trkpt lat="48.73031" lon="1.74691">
        <ele>149</ele>
        <time>2026-01-31T12:30:39Z</time>
      </trkpt>
      <trkpt lat="48.73028" lon="1.74687">
        <ele>148.8</ele>
        <time>2026-01-31T12:30:41Z</time>
      </trkpt>
      <trkpt lat="48.73027" lon="1.74685">
        <ele>148.6</ele>
        <time>2026-01-31T12:30:42Z</time>
      </trkpt>
      <trkpt lat="48.73026" lon="1.74683">
        <ele>148.6</ele>
        <time>2026-01-31T12:30:43Z</time>
      </trkpt>
      <trkpt lat="48.73024" lon="1.7468">
        <ele>148.4</ele>
        <time>2026-01-31T12:30:44Z</time>
      </trkpt>
      <trkpt lat="48.73022" lon="1.74676">
        <ele>148.2</ele>
        <time>2026-01-31T12:30:46Z</time>
      </trkpt>
      <trkpt lat="48.73021" lon="1.74673">
        <ele>148</ele>
        <time>2026-01-31T12:30:48Z</time>
      </trkpt>
      <trkpt lat="48.7302" lon="1.74669">
        <ele>147.6</ele>
        <time>2026-01-31T12:30:50Z</time>
      </trkpt>
      <trkpt lat="48.73018" lon="1.74665">
        <ele>147.4</ele>
        <time>2026-01-31T12:30:52Z</time>
      </trkpt>
      <trkpt lat="48.73016" lon="1.74662">
        <ele>147.2</ele>
        <time>2026-01-31T12:30:54Z</time>
      </trkpt>
      <trkpt lat="48.73015" lon="1.74659">
        <ele>147</ele>
        <time>2026-01-31T12:30:56Z</time>
      </trkpt>
      <trkpt lat="48.73015" lon="1.74656">
        <ele>146.8</ele>
        <time>2026-01-31T12:30:58Z</time>
      </trkpt>
      <trkpt lat="48.73015" lon="1.74653">
        <ele>146.6</ele>
        <time>2026-01-31T12:31:00Z</time>
      </trkpt>
      <trkpt lat="48.73014" lon="1.7465">
        <ele>146.4</ele>
        <time>2026-01-31T12:31:02Z</time>
      </trkpt>
      <trkpt lat="48.73013" lon="1.74647">
        <ele>146.4</ele>
        <time>2026-01-31T12:31:04Z</time>
      </trkpt>
      <trkpt lat="48.73011" lon="1.74644">
        <ele>146.2</ele>
        <time>2026-01-31T12:31:06Z</time>
      </trkpt>
      <trkpt lat="48.73008" lon="1.74642">
        <ele>146.2</ele>
        <time>2026-01-31T12:31:08Z</time>
      </trkpt>
      <trkpt lat="48.73006" lon="1.7464">
        <ele>146</ele>
        <time>2026-01-31T12:31:10Z</time>
      </trkpt>
      <trkpt lat="48.73004" lon="1.74638">
        <ele>145.8</ele>
        <time>2026-01-31T12:31:12Z</time>
      </trkpt>
      <trkpt lat="48.73001" lon="1.74636">
        <ele>145.6</ele>
        <time>2026-01-31T12:31:14Z</time>
      </trkpt>
      <trkpt lat="48.72999" lon="1.74634">
        <ele>145.4</ele>
        <time>2026-01-31T12:31:16Z</time>
      </trkpt>
      <trkpt lat="48.72997" lon="1.74632">
        <ele>145.2</ele>
        <time>2026-01-31T12:31:18Z</time>
      </trkpt>
      <trkpt lat="48.72995" lon="1.74631">
        <ele>144.8</ele>
        <time>2026-01-31T12:31:21Z</time>
      </trkpt>
      <trkpt lat="48.72993" lon="1.74628">
        <ele>144.6</ele>
        <time>2026-01-31T12:31:23Z</time>
      </trkpt>
      <trkpt lat="48.72991" lon="1.74626">
        <ele>144.4</ele>
        <time>2026-01-31T12:31:25Z</time>
      </trkpt>
      <trkpt lat="48.72989" lon="1.74623">
        <ele>144.2</ele>
        <time>2026-01-31T12:31:27Z</time>
      </trkpt>
      <trkpt lat="48.72987" lon="1.74621">
        <ele>144</ele>
        <time>2026-01-31T12:31:29Z</time>
      </trkpt>
      <trkpt lat="48.72985" lon="1.74618">
        <ele>143.6</ele>
        <time>2026-01-31T12:31:31Z</time>
      </trkpt>
      <trkpt lat="48.72982" lon="1.74615">
        <ele>143.6</ele>
        <time>2026-01-31T12:31:33Z</time>
      </trkpt>
      <trkpt lat="48.72981" lon="1.74613">
        <ele>143.4</ele>
        <time>2026-01-31T12:31:34Z</time>
      </trkpt>
      <trkpt lat="48.72979" lon="1.74612">
        <ele>143.4</ele>
        <time>2026-01-31T12:31:35Z</time>
      </trkpt>
      <trkpt lat="48.72976" lon="1.74608">
        <ele>143</ele>
        <time>2026-01-31T12:31:37Z</time>
      </trkpt>
      <trkpt lat="48.72974" lon="1.74606">
        <ele>143</ele>
        <time>2026-01-31T12:31:38Z</time>
      </trkpt>
      <trkpt lat="48.72973" lon="1.74602">
        <ele>142.8</ele>
        <time>2026-01-31T12:31:40Z</time>
      </trkpt>
      <trkpt lat="48.72973" lon="1.74598">
        <ele>142.6</ele>
        <time>2026-01-31T12:31:42Z</time>
      </trkpt>
      <trkpt lat="48.72974" lon="1.74596">
        <ele>142.6</ele>
        <time>2026-01-31T12:31:43Z</time>
      </trkpt>
      <trkpt lat="48.72975" lon="1.7459">
        <ele>142.4</ele>
        <time>2026-01-31T12:31:45Z</time>
      </trkpt>
      <trkpt lat="48.72975" lon="1.74588">
        <ele>142.2</ele>
        <time>2026-01-31T12:31:46Z</time>
      </trkpt>
      <trkpt lat="48.72974" lon="1.74585">
        <ele>142.2</ele>
        <time>2026-01-31T12:31:47Z</time>
      </trkpt>
      <trkpt lat="48.72974" lon="1.74582">
        <ele>142</ele>
        <time>2026-01-31T12:31:48Z</time>
      </trkpt>
      <trkpt lat="48.72972" lon="1.7458">
        <ele>142</ele>
        <time>2026-01-31T12:31:49Z</time>
      </trkpt>
      <trkpt lat="48.72972" lon="1.74576">
        <ele>141.6</ele>
        <time>2026-01-31T12:31:51Z</time>
      </trkpt>
      <trkpt lat="48.72972" lon="1.74572">
        <ele>141.4</ele>
        <time>2026-01-31T12:31:54Z</time>
      </trkpt>
      <trkpt lat="48.72973" lon="1.74568">
        <ele>141.2</ele>
        <time>2026-01-31T12:31:57Z</time>
      </trkpt>
      <trkpt lat="48.72972" lon="1.74565">
        <ele>141</ele>
        <time>2026-01-31T12:31:59Z</time>
      </trkpt>
      <trkpt lat="48.72971" lon="1.74562">
        <ele>140.8</ele>
        <time>2026-01-31T12:32:01Z</time>
      </trkpt>
      <trkpt lat="48.72971" lon="1.74559">
        <ele>140.6</ele>
        <time>2026-01-31T12:32:03Z</time>
      </trkpt>
      <trkpt lat="48.72971" lon="1.74555">
        <ele>140.2</ele>
        <time>2026-01-31T12:32:06Z</time>
      </trkpt>
      <trkpt lat="48.72971" lon="1.74553">
        <ele>140</ele>
        <time>2026-01-31T12:32:14Z</time>
      </trkpt>
      <trkpt lat="48.72971" lon="1.7455">
        <ele>140</ele>
        <time>2026-01-31T12:32:18Z</time>
      </trkpt>
      <trkpt lat="48.72973" lon="1.74548">
        <ele>140.2</ele>
        <time>2026-01-31T12:32:27Z</time>
      </trkpt>
      <trkpt lat="48.72975" lon="1.74546">
        <ele>140.4</ele>
        <time>2026-01-31T12:32:32Z</time>
      </trkpt>
      <trkpt lat="48.72976" lon="1.74543">
        <ele>140.6</ele>
        <time>2026-01-31T12:32:34Z</time>
      </trkpt>
      <trkpt lat="48.72978" lon="1.7454">
        <ele>140.6</ele>
        <time>2026-01-31T12:32:36Z</time>
      </trkpt>
      <trkpt lat="48.72979" lon="1.74536">
        <ele>140.6</ele>
        <time>2026-01-31T12:32:38Z</time>
      </trkpt>
      <trkpt lat="48.7298" lon="1.74533">
        <ele>140.6</ele>
        <time>2026-01-31T12:32:40Z</time>
      </trkpt>
      <trkpt lat="48.7298" lon="1.7453">
        <ele>140.6</ele>
        <time>2026-01-31T12:32:42Z</time>
      </trkpt>
      <trkpt lat="48.7298" lon="1.74527">
        <ele>140.6</ele>
        <time>2026-01-31T12:32:45Z</time>
      </trkpt>
      <trkpt lat="48.7298" lon="1.74524">
        <ele>140.6</ele>
        <time>2026-01-31T12:32:48Z</time>
      </trkpt>
      <trkpt lat="48.72979" lon="1.74519">
        <ele>140.8</ele>
        <time>2026-01-31T12:32:50Z</time>
      </trkpt>
      <trkpt lat="48.72978" lon="1.74514">
        <ele>140.8</ele>
        <time>2026-01-31T12:32:52Z</time>
      </trkpt>
      <trkpt lat="48.72978" lon="1.7451">
        <ele>140.8</ele>
        <time>2026-01-31T12:32:54Z</time>
      </trkpt>
      <trkpt lat="48.72979" lon="1.74507">
        <ele>141</ele>
        <time>2026-01-31T12:32:56Z</time>
      </trkpt>
      <trkpt lat="48.72981" lon="1.74504">
        <ele>141</ele>
        <time>2026-01-31T12:32:58Z</time>
      </trkpt>
      <trkpt lat="48.72982" lon="1.74502">
        <ele>140.8</ele>
        <time>2026-01-31T12:33:00Z</time>
      </trkpt>
      <trkpt lat="48.72985" lon="1.745">
        <ele>140.6</ele>
        <time>2026-01-31T12:33:02Z</time>
      </trkpt>
      <trkpt lat="48.72988" lon="1.74498">
        <ele>140.6</ele>
        <time>2026-01-31T12:33:04Z</time>
      </trkpt>
      <trkpt lat="48.7299" lon="1.74496">
        <ele>140.4</ele>
        <time>2026-01-31T12:33:06Z</time>
      </trkpt>
      <trkpt lat="48.72994" lon="1.74494">
        <ele>140.2</ele>
        <time>2026-01-31T12:33:08Z</time>
      </trkpt>
      <trkpt lat="48.72996" lon="1.74494">
        <ele>140.2</ele>
        <time>2026-01-31T12:33:09Z</time>
      </trkpt>
      <trkpt lat="48.72999" lon="1.74492">
        <ele>140</ele>
        <time>2026-01-31T12:33:11Z</time>
      </trkpt>
      <trkpt lat="48.73002" lon="1.74491">
        <ele>140</ele>
        <time>2026-01-31T12:33:13Z</time>
      </trkpt>
      <trkpt lat="48.73005" lon="1.74489">
        <ele>140</ele>
        <time>2026-01-31T12:33:15Z</time>
      </trkpt>
      <trkpt lat="48.73007" lon="1.74488">
        <ele>140</ele>
        <time>2026-01-31T12:33:16Z</time>
      </trkpt>
      <trkpt lat="48.7301" lon="1.74486">
        <ele>140</ele>
        <time>2026-01-31T12:33:18Z</time>
      </trkpt>
      <trkpt lat="48.73012" lon="1.74485">
        <ele>140</ele>
        <time>2026-01-31T12:33:19Z</time>
      </trkpt>
      <trkpt lat="48.73016" lon="1.74483">
        <ele>139.8</ele>
        <time>2026-01-31T12:33:21Z</time>
      </trkpt>
      <trkpt lat="48.73018" lon="1.74482">
        <ele>139.8</ele>
        <time>2026-01-31T12:33:22Z</time>
      </trkpt>
      <trkpt lat="48.7302" lon="1.74481">
        <ele>139.8</ele>
        <time>2026-01-31T12:33:23Z</time>
      </trkpt>
      <trkpt lat="48.73022" lon="1.7448">
        <ele>140</ele>
        <time>2026-01-31T12:33:25Z</time>
      </trkpt>
      <trkpt lat="48.73026" lon="1.74478">
        <ele>140</ele>
        <time>2026-01-31T12:33:27Z</time>
      </trkpt>
      <trkpt lat="48.73028" lon="1.74476">
        <ele>140</ele>
        <time>2026-01-31T12:33:29Z</time>
      </trkpt>
      <trkpt lat="48.7303" lon="1.74475">
        <ele>140</ele>
        <time>2026-01-31T12:33:31Z</time>
      </trkpt>
      <trkpt lat="48.73032" lon="1.74474">
        <ele>140</ele>
        <time>2026-01-31T12:33:33Z</time>
      </trkpt>
      <trkpt lat="48.73034" lon="1.74472">
        <ele>140</ele>
        <time>2026-01-31T12:33:36Z</time>
      </trkpt>
      <trkpt lat="48.73034" lon="1.74469">
        <ele>140</ele>
        <time>2026-01-31T12:33:38Z</time>
      </trkpt>
      <trkpt lat="48.73035" lon="1.74466">
        <ele>139.8</ele>
        <time>2026-01-31T12:33:40Z</time>
      </trkpt>
      <trkpt lat="48.73036" lon="1.74463">
        <ele>139.8</ele>
        <time>2026-01-31T12:33:42Z</time>
      </trkpt>
      <trkpt lat="48.73037" lon="1.74459">
        <ele>139.8</ele>
        <time>2026-01-31T12:33:44Z</time>
      </trkpt>
      <trkpt lat="48.73038" lon="1.74456">
        <ele>139.8</ele>
        <time>2026-01-31T12:33:46Z</time>
      </trkpt>
      <trkpt lat="48.73037" lon="1.74452">
        <ele>139.6</ele>
        <time>2026-01-31T12:33:48Z</time>
      </trkpt>
      <trkpt lat="48.73036" lon="1.74449">
        <ele>139.6</ele>
        <time>2026-01-31T12:33:50Z</time>
      </trkpt>
      <trkpt lat="48.73035" lon="1.74446">
        <ele>139.6</ele>
        <time>2026-01-31T12:33:52Z</time>
      </trkpt>
      <trkpt lat="48.73034" lon="1.74442">
        <ele>139.4</ele>
        <time>2026-01-31T12:33:54Z</time>
      </trkpt>
      <trkpt lat="48.73033" lon="1.74437">
        <ele>139.4</ele>
        <time>2026-01-31T12:33:56Z</time>
      </trkpt>
      <trkpt lat="48.73033" lon="1.74434">
        <ele>139.4</ele>
        <time>2026-01-31T12:33:57Z</time>
      </trkpt>
      <trkpt lat="48.73032" lon="1.74431">
        <ele>139.2</ele>
        <time>2026-01-31T12:33:58Z</time>
      </trkpt>
      <trkpt lat="48.73032" lon="1.74427">
        <ele>139.2</ele>
        <time>2026-01-31T12:33:59Z</time>
      </trkpt>
      <trkpt lat="48.73031" lon="1.74424">
        <ele>139.2</ele>
        <time>2026-01-31T12:34:00Z</time>
      </trkpt>
      <trkpt lat="48.7303" lon="1.7442">
        <ele>139</ele>
        <time>2026-01-31T12:34:01Z</time>
      </trkpt>
      <trkpt lat="48.73029" lon="1.74415">
        <ele>139</ele>
        <time>2026-01-31T12:34:02Z</time>
      </trkpt>
      <trkpt lat="48.73028" lon="1.74411">
        <ele>139</ele>
        <time>2026-01-31T12:34:03Z</time>
      </trkpt>
      <trkpt lat="48.73028" lon="1.74407">
        <ele>139</ele>
        <time>2026-01-31T12:34:04Z</time>
      </trkpt>
      <trkpt lat="48.73027" lon="1.74403">
        <ele>138.8</ele>
        <time>2026-01-31T12:34:05Z</time>
      </trkpt>
      <trkpt lat="48.73026" lon="1.74398">
        <ele>138.8</ele>
        <time>2026-01-31T12:34:06Z</time>
      </trkpt>
      <trkpt lat="48.73025" lon="1.74393">
        <ele>138.8</ele>
        <time>2026-01-31T12:34:07Z</time>
      </trkpt>
      <trkpt lat="48.73023" lon="1.74389">
        <ele>139</ele>
        <time>2026-01-31T12:34:08Z</time>
      </trkpt>
      <trkpt lat="48.73022" lon="1.74384">
        <ele>139</ele>
        <time>2026-01-31T12:34:09Z</time>
      </trkpt>
      <trkpt lat="48.73021" lon="1.74378">
        <ele>139</ele>
        <time>2026-01-31T12:34:10Z</time>
      </trkpt>
      <trkpt lat="48.7302" lon="1.74373">
        <ele>139</ele>
        <time>2026-01-31T12:34:11Z</time>
      </trkpt>
      <trkpt lat="48.73019" lon="1.74367">
        <ele>139</ele>
        <time>2026-01-31T12:34:12Z</time>
      </trkpt>
      <trkpt lat="48.73018" lon="1.74361">
        <ele>139</ele>
        <time>2026-01-31T12:34:13Z</time>
      </trkpt>
      <trkpt lat="48.73017" lon="1.74354">
        <ele>139</ele>
        <time>2026-01-31T12:34:14Z</time>
      </trkpt>
      <trkpt lat="48.73016" lon="1.74348">
        <ele>138.8</ele>
        <time>2026-01-31T12:34:15Z</time>
      </trkpt>
      <trkpt lat="48.73014" lon="1.74341">
        <ele>138.8</ele>
        <time>2026-01-31T12:34:16Z</time>
      </trkpt>
      <trkpt lat="48.73014" lon="1.74335">
        <ele>138.8</ele>
        <time>2026-01-31T12:34:17Z</time>
      </trkpt>
      <trkpt lat="48.73012" lon="1.74328">
        <ele>138.8</ele>
        <time>2026-01-31T12:34:18Z</time>
      </trkpt>
      <trkpt lat="48.73012" lon="1.7432">
        <ele>138.6</ele>
        <time>2026-01-31T12:34:19Z</time>
      </trkpt>
      <trkpt lat="48.7301" lon="1.74313">
        <ele>138.6</ele>
        <time>2026-01-31T12:34:20Z</time>
      </trkpt>
      <trkpt lat="48.7301" lon="1.74306">
        <ele>138.6</ele>
        <time>2026-01-31T12:34:21Z</time>
      </trkpt>
      <trkpt lat="48.73009" lon="1.74299">
        <ele>138.4</ele>
        <time>2026-01-31T12:34:22Z</time>
      </trkpt>
      <trkpt lat="48.73009" lon="1.74292">
        <ele>138.4</ele>
        <time>2026-01-31T12:34:23Z</time>
      </trkpt>
      <trkpt lat="48.73008" lon="1.74284">
        <ele>138.2</ele>
        <time>2026-01-31T12:34:24Z</time>
      </trkpt>
      <trkpt lat="48.73008" lon="1.74277">
        <ele>138.2</ele>
        <time>2026-01-31T12:34:25Z</time>
      </trkpt>
      <trkpt lat="48.73008" lon="1.7427">
        <ele>138</ele>
        <time>2026-01-31T12:34:26Z</time>
      </trkpt>
      <trkpt lat="48.73007" lon="1.74263">
        <ele>137.8</ele>
        <time>2026-01-31T12:34:27Z</time>
      </trkpt>
      <trkpt lat="48.73006" lon="1.74256">
        <ele>137.8</ele>
        <time>2026-01-31T12:34:28Z</time>
      </trkpt>
      <trkpt lat="48.73005" lon="1.74249">
        <ele>137.6</ele>
        <time>2026-01-31T12:34:29Z</time>
      </trkpt>
      <trkpt lat="48.73004" lon="1.74242">
        <ele>137.4</ele>
        <time>2026-01-31T12:34:30Z</time>
      </trkpt>
      <trkpt lat="48.73003" lon="1.74234">
        <ele>137.4</ele>
        <time>2026-01-31T12:34:31Z</time>
      </trkpt>
      <trkpt lat="48.73002" lon="1.74227">
        <ele>137.2</ele>
        <time>2026-01-31T12:34:32Z</time>
      </trkpt>
      <trkpt lat="48.73002" lon="1.74219">
        <ele>137</ele>
        <time>2026-01-31T12:34:33Z</time>
      </trkpt>
      <trkpt lat="48.73002" lon="1.74212">
        <ele>136.8</ele>
        <time>2026-01-31T12:34:34Z</time>
      </trkpt>
      <trkpt lat="48.73002" lon="1.74204">
        <ele>136.6</ele>
        <time>2026-01-31T12:34:35Z</time>
      </trkpt>
      <trkpt lat="48.73002" lon="1.74197">
        <ele>136.6</ele>
        <time>2026-01-31T12:34:36Z</time>
      </trkpt>
      <trkpt lat="48.73002" lon="1.7419">
        <ele>136.4</ele>
        <time>2026-01-31T12:34:37Z</time>
      </trkpt>
      <trkpt lat="48.73002" lon="1.74183">
        <ele>136.2</ele>
        <time>2026-01-31T12:34:38Z</time>
      </trkpt>
      <trkpt lat="48.73001" lon="1.74176">
        <ele>136.2</ele>
        <time>2026-01-31T12:34:39Z</time>
      </trkpt>
      <trkpt lat="48.73" lon="1.74169">
        <ele>136</ele>
        <time>2026-01-31T12:34:40Z</time>
      </trkpt>
      <trkpt lat="48.72998" lon="1.74162">
        <ele>136</ele>
        <time>2026-01-31T12:34:41Z</time>
      </trkpt>
      <trkpt lat="48.72997" lon="1.74155">
        <ele>136</ele>
        <time>2026-01-31T12:34:42Z</time>
      </trkpt>
      <trkpt lat="48.72995" lon="1.74148">
        <ele>135.8</ele>
        <time>2026-01-31T12:34:43Z</time>
      </trkpt>
      <trkpt lat="48.72994" lon="1.74141">
        <ele>135.8</ele>
        <time>2026-01-31T12:34:44Z</time>
      </trkpt>
      <trkpt lat="48.72993" lon="1.74133">
        <ele>135.8</ele>
        <time>2026-01-31T12:34:45Z</time>
      </trkpt>
      <trkpt lat="48.72992" lon="1.74126">
        <ele>135.6</ele>
        <time>2026-01-31T12:34:46Z</time>
      </trkpt>
      <trkpt lat="48.72992" lon="1.74118">
        <ele>135.4</ele>
        <time>2026-01-31T12:34:47Z</time>
      </trkpt>
      <trkpt lat="48.72992" lon="1.7411">
        <ele>135.4</ele>
        <time>2026-01-31T12:34:48Z</time>
      </trkpt>
      <trkpt lat="48.72992" lon="1.74103">
        <ele>135.2</ele>
        <time>2026-01-31T12:34:49Z</time>
      </trkpt>
      <trkpt lat="48.72992" lon="1.74096">
        <ele>135</ele>
        <time>2026-01-31T12:34:50Z</time>
      </trkpt>
      <trkpt lat="48.72992" lon="1.74088">
        <ele>134.8</ele>
        <time>2026-01-31T12:34:51Z</time>
      </trkpt>
      <trkpt lat="48.72992" lon="1.74081">
        <ele>134.8</ele>
        <time>2026-01-31T12:34:52Z</time>
      </trkpt>
      <trkpt lat="48.72992" lon="1.74074">
        <ele>134.6</ele>
        <time>2026-01-31T12:34:53Z</time>
      </trkpt>
      <trkpt lat="48.72992" lon="1.74066">
        <ele>134.4</ele>
        <time>2026-01-31T12:34:54Z</time>
      </trkpt>
      <trkpt lat="48.72992" lon="1.74058">
        <ele>134.4</ele>
        <time>2026-01-31T12:34:55Z</time>
      </trkpt>
      <trkpt lat="48.72992" lon="1.74051">
        <ele>134.2</ele>
        <time>2026-01-31T12:34:56Z</time>
      </trkpt>
      <trkpt lat="48.72991" lon="1.74044">
        <ele>134</ele>
        <time>2026-01-31T12:34:57Z</time>
      </trkpt>
      <trkpt lat="48.7299" lon="1.74037">
        <ele>133.8</ele>
        <time>2026-01-31T12:34:58Z</time>
      </trkpt>
      <trkpt lat="48.7299" lon="1.7403">
        <ele>133.8</ele>
        <time>2026-01-31T12:34:59Z</time>
      </trkpt>
      <trkpt lat="48.72989" lon="1.74023">
        <ele>133.8</ele>
        <time>2026-01-31T12:35:00Z</time>
      </trkpt>
      <trkpt lat="48.72988" lon="1.74017">
        <ele>133.6</ele>
        <time>2026-01-31T12:35:01Z</time>
      </trkpt>
      <trkpt lat="48.72988" lon="1.7401">
        <ele>133.6</ele>
        <time>2026-01-31T12:35:02Z</time>
      </trkpt>
      <trkpt lat="48.72987" lon="1.74003">
        <ele>133.4</ele>
        <time>2026-01-31T12:35:03Z</time>
      </trkpt>
      <trkpt lat="48.72986" lon="1.73996">
        <ele>133.4</ele>
        <time>2026-01-31T12:35:04Z</time>
      </trkpt>
      <trkpt lat="48.72985" lon="1.73989">
        <ele>133.4</ele>
        <time>2026-01-31T12:35:05Z</time>
      </trkpt>
      <trkpt lat="48.72984" lon="1.73981">
        <ele>133.2</ele>
        <time>2026-01-31T12:35:06Z</time>
      </trkpt>
      <trkpt lat="48.72983" lon="1.73974">
        <ele>133.2</ele>
        <time>2026-01-31T12:35:07Z</time>
      </trkpt>
      <trkpt lat="48.72982" lon="1.73968">
        <ele>133.2</ele>
        <time>2026-01-31T12:35:08Z</time>
      </trkpt>
      <trkpt lat="48.72981" lon="1.73961">
        <ele>133.2</ele>
        <time>2026-01-31T12:35:09Z</time>
      </trkpt>
      <trkpt lat="48.7298" lon="1.73955">
        <ele>133</ele>
        <time>2026-01-31T12:35:10Z</time>
      </trkpt>
      <trkpt lat="48.72978" lon="1.7395">
        <ele>133</ele>
        <time>2026-01-31T12:35:11Z</time>
      </trkpt>
      <trkpt lat="48.72976" lon="1.73945">
        <ele>133</ele>
        <time>2026-01-31T12:35:12Z</time>
      </trkpt>
      <trkpt lat="48.72974" lon="1.7394">
        <ele>132.8</ele>
        <time>2026-01-31T12:35:13Z</time>
      </trkpt>
      <trkpt lat="48.72972" lon="1.73936">
        <ele>132.8</ele>
        <time>2026-01-31T12:35:14Z</time>
      </trkpt>
      <trkpt lat="48.7297" lon="1.73932">
        <ele>132.8</ele>
        <time>2026-01-31T12:35:15Z</time>
      </trkpt>
      <trkpt lat="48.72967" lon="1.73928">
        <ele>132.8</ele>
        <time>2026-01-31T12:35:16Z</time>
      </trkpt>
      <trkpt lat="48.72964" lon="1.73925">
        <ele>132.8</ele>
        <time>2026-01-31T12:35:17Z</time>
      </trkpt>
      <trkpt lat="48.72961" lon="1.73921">
        <ele>132.8</ele>
        <time>2026-01-31T12:35:18Z</time>
      </trkpt>
      <trkpt lat="48.72958" lon="1.73918">
        <ele>132.6</ele>
        <time>2026-01-31T12:35:19Z</time>
      </trkpt>
      <trkpt lat="48.72955" lon="1.73914">
        <ele>132.6</ele>
        <time>2026-01-31T12:35:20Z</time>
      </trkpt>
      <trkpt lat="48.72951" lon="1.7391">
        <ele>132.6</ele>
        <time>2026-01-31T12:35:21Z</time>
      </trkpt>
      <trkpt lat="48.72948" lon="1.73906">
        <ele>132.6</ele>
        <time>2026-01-31T12:35:22Z</time>
      </trkpt>
      <trkpt lat="48.72945" lon="1.73901">
        <ele>132.6</ele>
        <time>2026-01-31T12:35:23Z</time>
      </trkpt>
      <trkpt lat="48.72941" lon="1.73897">
        <ele>132.6</ele>
        <time>2026-01-31T12:35:24Z</time>
      </trkpt>
      <trkpt lat="48.72937" lon="1.73892">
        <ele>132.6</ele>
        <time>2026-01-31T12:35:25Z</time>
      </trkpt>
      <trkpt lat="48.72933" lon="1.73888">
        <ele>132.6</ele>
        <time>2026-01-31T12:35:26Z</time>
      </trkpt>
      <trkpt lat="48.72929" lon="1.73884">
        <ele>132.6</ele>
        <time>2026-01-31T12:35:27Z</time>
      </trkpt>
      <trkpt lat="48.72926" lon="1.7388">
        <ele>132.8</ele>
        <time>2026-01-31T12:35:28Z</time>
      </trkpt>
      <trkpt lat="48.72923" lon="1.73876">
        <ele>132.8</ele>
        <time>2026-01-31T12:35:29Z</time>
      </trkpt>
      <trkpt lat="48.72921" lon="1.73872">
        <ele>132.8</ele>
        <time>2026-01-31T12:35:30Z</time>
      </trkpt>
      <trkpt lat="48.72918" lon="1.73868">
        <ele>132.8</ele>
        <time>2026-01-31T12:35:31Z</time>
      </trkpt>
      <trkpt lat="48.72915" lon="1.73864">
        <ele>132.8</ele>
        <time>2026-01-31T12:35:32Z</time>
      </trkpt>
      <trkpt lat="48.72913" lon="1.7386">
        <ele>132.8</ele>
        <time>2026-01-31T12:35:33Z</time>
      </trkpt>
      <trkpt lat="48.72909" lon="1.73857">
        <ele>132.8</ele>
        <time>2026-01-31T12:35:34Z</time>
      </trkpt>
      <trkpt lat="48.72907" lon="1.73853">
        <ele>133</ele>
        <time>2026-01-31T12:35:35Z</time>
      </trkpt>
      <trkpt lat="48.72904" lon="1.7385">
        <ele>133</ele>
        <time>2026-01-31T12:35:36Z</time>
      </trkpt>
      <trkpt lat="48.72901" lon="1.73846">
        <ele>133.2</ele>
        <time>2026-01-31T12:35:37Z</time>
      </trkpt>
      <trkpt lat="48.72898" lon="1.73842">
        <ele>133.4</ele>
        <time>2026-01-31T12:35:38Z</time>
      </trkpt>
      <trkpt lat="48.72894" lon="1.73838">
        <ele>133.4</ele>
        <time>2026-01-31T12:35:39Z</time>
      </trkpt>
      <trkpt lat="48.72891" lon="1.73834">
        <ele>133.6</ele>
        <time>2026-01-31T12:35:40Z</time>
      </trkpt>
      <trkpt lat="48.72889" lon="1.73829">
        <ele>133.6</ele>
        <time>2026-01-31T12:35:41Z</time>
      </trkpt>
      <trkpt lat="48.72885" lon="1.73825">
        <ele>133.6</ele>
        <time>2026-01-31T12:35:42Z</time>
      </trkpt>
      <trkpt lat="48.72883" lon="1.7382">
        <ele>133.8</ele>
        <time>2026-01-31T12:35:43Z</time>
      </trkpt>
      <trkpt lat="48.72879" lon="1.73815">
        <ele>133.8</ele>
        <time>2026-01-31T12:35:44Z</time>
      </trkpt>
      <trkpt lat="48.72876" lon="1.7381">
        <ele>133.8</ele>
        <time>2026-01-31T12:35:45Z</time>
      </trkpt>
      <trkpt lat="48.72872" lon="1.73804">
        <ele>133.8</ele>
        <time>2026-01-31T12:35:46Z</time>
      </trkpt>
      <trkpt lat="48.72869" lon="1.73799">
        <ele>133.8</ele>
        <time>2026-01-31T12:35:47Z</time>
      </trkpt>
      <trkpt lat="48.72866" lon="1.73793">
        <ele>133.8</ele>
        <time>2026-01-31T12:35:48Z</time>
      </trkpt>
      <trkpt lat="48.72863" lon="1.73788">
        <ele>133.8</ele>
        <time>2026-01-31T12:35:49Z</time>
      </trkpt>
      <trkpt lat="48.7286" lon="1.73783">
        <ele>133.8</ele>
        <time>2026-01-31T12:35:50Z</time>
      </trkpt>
      <trkpt lat="48.72856" lon="1.73777">
        <ele>133.8</ele>
        <time>2026-01-31T12:35:51Z</time>
      </trkpt>
      <trkpt lat="48.72852" lon="1.73772">
        <ele>133.8</ele>
        <time>2026-01-31T12:35:52Z</time>
      </trkpt>
      <trkpt lat="48.72847" lon="1.73767">
        <ele>133.8</ele>
        <time>2026-01-31T12:35:53Z</time>
      </trkpt>
      <trkpt lat="48.72843" lon="1.73762">
        <ele>133.8</ele>
        <time>2026-01-31T12:35:54Z</time>
      </trkpt>
      <trkpt lat="48.72838" lon="1.73757">
        <ele>133.8</ele>
        <time>2026-01-31T12:35:55Z</time>
      </trkpt>
      <trkpt lat="48.72833" lon="1.73752">
        <ele>133.8</ele>
        <time>2026-01-31T12:35:56Z</time>
      </trkpt>
      <trkpt lat="48.72829" lon="1.73747">
        <ele>133.8</ele>
        <time>2026-01-31T12:35:57Z</time>
      </trkpt>
      <trkpt lat="48.72825" lon="1.73742">
        <ele>133.8</ele>
        <time>2026-01-31T12:35:58Z</time>
      </trkpt>
      <trkpt lat="48.72821" lon="1.73736">
        <ele>133.6</ele>
        <time>2026-01-31T12:35:59Z</time>
      </trkpt>
      <trkpt lat="48.72817" lon="1.73731">
        <ele>133.6</ele>
        <time>2026-01-31T12:36:00Z</time>
      </trkpt>
      <trkpt lat="48.72813" lon="1.73726">
        <ele>133.6</ele>
        <time>2026-01-31T12:36:01Z</time>
      </trkpt>
      <trkpt lat="48.72809" lon="1.73721">
        <ele>133.6</ele>
        <time>2026-01-31T12:36:02Z</time>
      </trkpt>
      <trkpt lat="48.72805" lon="1.73715">
        <ele>133.6</ele>
        <time>2026-01-31T12:36:03Z</time>
      </trkpt>
      <trkpt lat="48.72801" lon="1.7371">
        <ele>133.4</ele>
        <time>2026-01-31T12:36:04Z</time>
      </trkpt>
      <trkpt lat="48.72796" lon="1.73706">
        <ele>133.4</ele>
        <time>2026-01-31T12:36:05Z</time>
      </trkpt>
      <trkpt lat="48.72792" lon="1.73702">
        <ele>133.4</ele>
        <time>2026-01-31T12:36:06Z</time>
      </trkpt>
      <trkpt lat="48.72788" lon="1.73698">
        <ele>133.2</ele>
        <time>2026-01-31T12:36:07Z</time>
      </trkpt>
      <trkpt lat="48.72783" lon="1.73694">
        <ele>133.2</ele>
        <time>2026-01-31T12:36:08Z</time>
      </trkpt>
      <trkpt lat="48.72779" lon="1.7369">
        <ele>133.2</ele>
        <time>2026-01-31T12:36:09Z</time>
      </trkpt>
      <trkpt lat="48.72774" lon="1.73686">
        <ele>133</ele>
        <time>2026-01-31T12:36:10Z</time>
      </trkpt>
      <trkpt lat="48.72769" lon="1.73682">
        <ele>133</ele>
        <time>2026-01-31T12:36:11Z</time>
      </trkpt>
      <trkpt lat="48.72765" lon="1.73678">
        <ele>133</ele>
        <time>2026-01-31T12:36:12Z</time>
      </trkpt>
      <trkpt lat="48.72761" lon="1.73674">
        <ele>132.8</ele>
        <time>2026-01-31T12:36:13Z</time>
      </trkpt>
      <trkpt lat="48.72758" lon="1.7367">
        <ele>132.8</ele>
        <time>2026-01-31T12:36:14Z</time>
      </trkpt>
      <trkpt lat="48.72756" lon="1.73667">
        <ele>132.6</ele>
        <time>2026-01-31T12:36:15Z</time>
      </trkpt>
      <trkpt lat="48.72753" lon="1.73663">
        <ele>132.6</ele>
        <time>2026-01-31T12:36:16Z</time>
      </trkpt>
      <trkpt lat="48.72751" lon="1.7366">
        <ele>132.6</ele>
        <time>2026-01-31T12:36:17Z</time>
      </trkpt>
      <trkpt lat="48.72748" lon="1.73657">
        <ele>132.4</ele>
        <time>2026-01-31T12:36:18Z</time>
      </trkpt>
      <trkpt lat="48.72746" lon="1.73655">
        <ele>132.4</ele>
        <time>2026-01-31T12:36:19Z</time>
      </trkpt>
      <trkpt lat="48.72744" lon="1.73653">
        <ele>132.4</ele>
        <time>2026-01-31T12:36:20Z</time>
      </trkpt>
      <trkpt lat="48.72743" lon="1.73651">
        <ele>132.2</ele>
        <time>2026-01-31T12:36:21Z</time>
      </trkpt>
      <trkpt lat="48.72741" lon="1.73649">
        <ele>132.2</ele>
        <time>2026-01-31T12:36:22Z</time>
      </trkpt>
      <trkpt lat="48.7274" lon="1.73647">
        <ele>132.2</ele>
        <time>2026-01-31T12:36:23Z</time>
      </trkpt>
      <trkpt lat="48.72737" lon="1.73643">
        <ele>132</ele>
        <time>2026-01-31T12:36:25Z</time>
      </trkpt>
      <trkpt lat="48.72735" lon="1.73641">
        <ele>131.8</ele>
        <time>2026-01-31T12:36:26Z</time>
      </trkpt>
      <trkpt lat="48.72733" lon="1.7364">
        <ele>131.8</ele>
        <time>2026-01-31T12:36:27Z</time>
      </trkpt>
      <trkpt lat="48.72731" lon="1.73638">
        <ele>131.6</ele>
        <time>2026-01-31T12:36:28Z</time>
      </trkpt>
      <trkpt lat="48.72728" lon="1.73635">
        <ele>131.4</ele>
        <time>2026-01-31T12:36:30Z</time>
      </trkpt>
      <trkpt lat="48.72725" lon="1.73633">
        <ele>131.2</ele>
        <time>2026-01-31T12:36:32Z</time>
      </trkpt>
      <trkpt lat="48.72723" lon="1.73631">
        <ele>131</ele>
        <time>2026-01-31T12:36:34Z</time>
      </trkpt>
      <trkpt lat="48.72721" lon="1.73628">
        <ele>130.6</ele>
        <time>2026-01-31T12:36:36Z</time>
      </trkpt>
      <trkpt lat="48.72719" lon="1.73626">
        <ele>130.6</ele>
        <time>2026-01-31T12:36:37Z</time>
      </trkpt>
      <trkpt lat="48.72716" lon="1.73623">
        <ele>130.4</ele>
        <time>2026-01-31T12:36:39Z</time>
      </trkpt>
      <trkpt lat="48.72713" lon="1.73621">
        <ele>130.2</ele>
        <time>2026-01-31T12:36:40Z</time>
      </trkpt>
      <trkpt lat="48.72711" lon="1.73619">
        <ele>130.2</ele>
        <time>2026-01-31T12:36:41Z</time>
      </trkpt>
      <trkpt lat="48.72709" lon="1.73616">
        <ele>130.2</ele>
        <time>2026-01-31T12:36:42Z</time>
      </trkpt>
      <trkpt lat="48.72707" lon="1.73614">
        <ele>130</ele>
        <time>2026-01-31T12:36:43Z</time>
      </trkpt>
      <trkpt lat="48.72704" lon="1.73611">
        <ele>130</ele>
        <time>2026-01-31T12:36:45Z</time>
      </trkpt>
      <trkpt lat="48.72701" lon="1.73608">
        <ele>130</ele>
        <time>2026-01-31T12:36:47Z</time>
      </trkpt>
      <trkpt lat="48.72698" lon="1.73606">
        <ele>130</ele>
        <time>2026-01-31T12:36:49Z</time>
      </trkpt>
      <trkpt lat="48.72695" lon="1.73605">
        <ele>130</ele>
        <time>2026-01-31T12:36:51Z</time>
      </trkpt>
      <trkpt lat="48.72692" lon="1.73603">
        <ele>129.8</ele>
        <time>2026-01-31T12:36:53Z</time>
      </trkpt>
      <trkpt lat="48.72689" lon="1.736">
        <ele>129.8</ele>
        <time>2026-01-31T12:36:55Z</time>
      </trkpt>
      <trkpt lat="48.72687" lon="1.73598">
        <ele>129.8</ele>
        <time>2026-01-31T12:36:57Z</time>
      </trkpt>
      <trkpt lat="48.72684" lon="1.73597">
        <ele>129.8</ele>
        <time>2026-01-31T12:36:59Z</time>
      </trkpt>
      <trkpt lat="48.72682" lon="1.73595">
        <ele>129.8</ele>
        <time>2026-01-31T12:37:01Z</time>
      </trkpt>
      <trkpt lat="48.72679" lon="1.73592">
        <ele>129.6</ele>
        <time>2026-01-31T12:37:03Z</time>
      </trkpt>
      <trkpt lat="48.72676" lon="1.73589">
        <ele>129.4</ele>
        <time>2026-01-31T12:37:05Z</time>
      </trkpt>
      <trkpt lat="48.72674" lon="1.73586">
        <ele>129.4</ele>
        <time>2026-01-31T12:37:07Z</time>
      </trkpt>
      <trkpt lat="48.72673" lon="1.73584">
        <ele>129.2</ele>
        <time>2026-01-31T12:37:09Z</time>
      </trkpt>
      <trkpt lat="48.72671" lon="1.73582">
        <ele>129.2</ele>
        <time>2026-01-31T12:37:14Z</time>
      </trkpt>
      <trkpt lat="48.7267" lon="1.7358">
        <ele>129</ele>
        <time>2026-01-31T12:37:16Z</time>
      </trkpt>
      <trkpt lat="48.72667" lon="1.73578">
        <ele>128.8</ele>
        <time>2026-01-31T12:37:18Z</time>
      </trkpt>
      <trkpt lat="48.72663" lon="1.73576">
        <ele>128.8</ele>
        <time>2026-01-31T12:37:20Z</time>
      </trkpt>
      <trkpt lat="48.72661" lon="1.73574">
        <ele>128.8</ele>
        <time>2026-01-31T12:37:21Z</time>
      </trkpt>
      <trkpt lat="48.72659" lon="1.73573">
        <ele>128.8</ele>
        <time>2026-01-31T12:37:22Z</time>
      </trkpt>
      <trkpt lat="48.72656" lon="1.7357">
        <ele>128.8</ele>
        <time>2026-01-31T12:37:24Z</time>
      </trkpt>
      <trkpt lat="48.72655" lon="1.73568">
        <ele>128.8</ele>
        <time>2026-01-31T12:37:26Z</time>
      </trkpt>
      <trkpt lat="48.72653" lon="1.73566">
        <ele>129</ele>
        <time>2026-01-31T12:37:28Z</time>
      </trkpt>
      <trkpt lat="48.72652" lon="1.73564">
        <ele>129.2</ele>
        <time>2026-01-31T12:37:30Z</time>
      </trkpt>
      <trkpt lat="48.7265" lon="1.73561">
        <ele>129.4</ele>
        <time>2026-01-31T12:37:32Z</time>
      </trkpt>
      <trkpt lat="48.72648" lon="1.7356">
        <ele>129.4</ele>
        <time>2026-01-31T12:37:33Z</time>
      </trkpt>
      <trkpt lat="48.72646" lon="1.73557">
        <ele>129.6</ele>
        <time>2026-01-31T12:37:35Z</time>
      </trkpt>
      <trkpt lat="48.72643" lon="1.73555">
        <ele>129.8</ele>
        <time>2026-01-31T12:37:37Z</time>
      </trkpt>
      <trkpt lat="48.72641" lon="1.73553">
        <ele>130</ele>
        <time>2026-01-31T12:37:38Z</time>
      </trkpt>
      <trkpt lat="48.72638" lon="1.73551">
        <ele>130</ele>
        <time>2026-01-31T12:37:40Z</time>
      </trkpt>
      <trkpt lat="48.72636" lon="1.73549">
        <ele>130</ele>
        <time>2026-01-31T12:37:41Z</time>
      </trkpt>
      <trkpt lat="48.72634" lon="1.73547">
        <ele>130</ele>
        <time>2026-01-31T12:37:42Z</time>
      </trkpt>
      <trkpt lat="48.72631" lon="1.73545">
        <ele>130.2</ele>
        <time>2026-01-31T12:37:43Z</time>
      </trkpt>
      <trkpt lat="48.72629" lon="1.73543">
        <ele>130.2</ele>
        <time>2026-01-31T12:37:44Z</time>
      </trkpt>
      <trkpt lat="48.72627" lon="1.73541">
        <ele>130.2</ele>
        <time>2026-01-31T12:37:45Z</time>
      </trkpt>
      <trkpt lat="48.72625" lon="1.7354">
        <ele>130.2</ele>
        <time>2026-01-31T12:37:46Z</time>
      </trkpt>
      <trkpt lat="48.72624" lon="1.73538">
        <ele>130.4</ele>
        <time>2026-01-31T12:37:47Z</time>
      </trkpt>
      <trkpt lat="48.72622" lon="1.73537">
        <ele>130.4</ele>
        <time>2026-01-31T12:37:48Z</time>
      </trkpt>
      <trkpt lat="48.7262" lon="1.73536">
        <ele>130.6</ele>
        <time>2026-01-31T12:37:49Z</time>
      </trkpt>
      <trkpt lat="48.72618" lon="1.73534">
        <ele>130.6</ele>
        <time>2026-01-31T12:37:50Z</time>
      </trkpt>
      <trkpt lat="48.72616" lon="1.73533">
        <ele>130.6</ele>
        <time>2026-01-31T12:37:51Z</time>
      </trkpt>
      <trkpt lat="48.72614" lon="1.73531">
        <ele>130.6</ele>
        <time>2026-01-31T12:37:52Z</time>
      </trkpt>
      <trkpt lat="48.72612" lon="1.7353">
        <ele>130.6</ele>
        <time>2026-01-31T12:37:53Z</time>
      </trkpt>
      <trkpt lat="48.7261" lon="1.73528">
        <ele>130.6</ele>
        <time>2026-01-31T12:37:54Z</time>
      </trkpt>
      <trkpt lat="48.72608" lon="1.73526">
        <ele>130.6</ele>
        <time>2026-01-31T12:37:55Z</time>
      </trkpt>
      <trkpt lat="48.72606" lon="1.73525">
        <ele>130.6</ele>
        <time>2026-01-31T12:37:56Z</time>
      </trkpt>
      <trkpt lat="48.72604" lon="1.73523">
        <ele>130.6</ele>
        <time>2026-01-31T12:37:57Z</time>
      </trkpt>
      <trkpt lat="48.72603" lon="1.73521">
        <ele>130.6</ele>
        <time>2026-01-31T12:37:58Z</time>
      </trkpt>
      <trkpt lat="48.72601" lon="1.7352">
        <ele>130.4</ele>
        <time>2026-01-31T12:37:59Z</time>
      </trkpt>
      <trkpt lat="48.72599" lon="1.73518">
        <ele>130.4</ele>
        <time>2026-01-31T12:38:00Z</time>
      </trkpt>
      <trkpt lat="48.72597" lon="1.73516">
        <ele>130.4</ele>
        <time>2026-01-31T12:38:01Z</time>
      </trkpt>
      <trkpt lat="48.72595" lon="1.73515">
        <ele>130.4</ele>
        <time>2026-01-31T12:38:02Z</time>
      </trkpt>
      <trkpt lat="48.72593" lon="1.73514">
        <ele>130.4</ele>
        <time>2026-01-31T12:38:03Z</time>
      </trkpt>
      <trkpt lat="48.72592" lon="1.73512">
        <ele>130.4</ele>
        <time>2026-01-31T12:38:04Z</time>
      </trkpt>
      <trkpt lat="48.72589" lon="1.7351">
        <ele>130.4</ele>
        <time>2026-01-31T12:38:06Z</time>
      </trkpt>
      <trkpt lat="48.72587" lon="1.73508">
        <ele>130.4</ele>
        <time>2026-01-31T12:38:08Z</time>
      </trkpt>
      <trkpt lat="48.72584" lon="1.73505">
        <ele>130.4</ele>
        <time>2026-01-31T12:38:10Z</time>
      </trkpt>
      <trkpt lat="48.72581" lon="1.73503">
        <ele>130.4</ele>
        <time>2026-01-31T12:38:12Z</time>
      </trkpt>
      <trkpt lat="48.7258" lon="1.73502">
        <ele>130.4</ele>
        <time>2026-01-31T12:38:13Z</time>
      </trkpt>
      <trkpt lat="48.72577" lon="1.73499">
        <ele>130.4</ele>
        <time>2026-01-31T12:38:15Z</time>
      </trkpt>
      <trkpt lat="48.72574" lon="1.73497">
        <ele>130.4</ele>
        <time>2026-01-31T12:38:16Z</time>
      </trkpt>
      <trkpt lat="48.72572" lon="1.73495">
        <ele>130.4</ele>
        <time>2026-01-31T12:38:17Z</time>
      </trkpt>
      <trkpt lat="48.72569" lon="1.73493">
        <ele>130.4</ele>
        <time>2026-01-31T12:38:18Z</time>
      </trkpt>
      <trkpt lat="48.72566" lon="1.73492">
        <ele>130.4</ele>
        <time>2026-01-31T12:38:19Z</time>
      </trkpt>
      <trkpt lat="48.72563" lon="1.7349">
        <ele>130.4</ele>
        <time>2026-01-31T12:38:20Z</time>
      </trkpt>
      <trkpt lat="48.7256" lon="1.73489">
        <ele>130.4</ele>
        <time>2026-01-31T12:38:21Z</time>
      </trkpt>
      <trkpt lat="48.72557" lon="1.73488">
        <ele>130.2</ele>
        <time>2026-01-31T12:38:22Z</time>
      </trkpt>
      <trkpt lat="48.72555" lon="1.73487">
        <ele>130.2</ele>
        <time>2026-01-31T12:38:23Z</time>
      </trkpt>
      <trkpt lat="48.72553" lon="1.73484">
        <ele>130.2</ele>
        <time>2026-01-31T12:38:25Z</time>
      </trkpt>
      <trkpt lat="48.72551" lon="1.73482">
        <ele>130</ele>
        <time>2026-01-31T12:38:27Z</time>
      </trkpt>
      <trkpt lat="48.72551" lon="1.73479">
        <ele>130</ele>
        <time>2026-01-31T12:38:31Z</time>
      </trkpt>
      <trkpt lat="48.72549" lon="1.73478">
        <ele>130</ele>
        <time>2026-01-31T12:38:34Z</time>
      </trkpt>
      <trkpt lat="48.72547" lon="1.73477">
        <ele>130</ele>
        <time>2026-01-31T12:38:35Z</time>
      </trkpt>
      <trkpt lat="48.72545" lon="1.73476">
        <ele>130</ele>
        <time>2026-01-31T12:38:36Z</time>
      </trkpt>
      <trkpt lat="48.72543" lon="1.73475">
        <ele>129.8</ele>
        <time>2026-01-31T12:38:37Z</time>
      </trkpt>
      <trkpt lat="48.72542" lon="1.73473">
        <ele>129.8</ele>
        <time>2026-01-31T12:38:38Z</time>
      </trkpt>
      <trkpt lat="48.7254" lon="1.73468">
        <ele>129.6</ele>
        <time>2026-01-31T12:38:40Z</time>
      </trkpt>
      <trkpt lat="48.72538" lon="1.73465">
        <ele>129.6</ele>
        <time>2026-01-31T12:38:42Z</time>
      </trkpt>
      <trkpt lat="48.72536" lon="1.73464">
        <ele>129.6</ele>
        <time>2026-01-31T12:38:43Z</time>
      </trkpt>
      <trkpt lat="48.72533" lon="1.73462">
        <ele>129.6</ele>
        <time>2026-01-31T12:38:45Z</time>
      </trkpt>
      <trkpt lat="48.72531" lon="1.7346">
        <ele>129.6</ele>
        <time>2026-01-31T12:38:47Z</time>
      </trkpt>
      <trkpt lat="48.72528" lon="1.73459">
        <ele>129.8</ele>
        <time>2026-01-31T12:38:49Z</time>
      </trkpt>
      <trkpt lat="48.72525" lon="1.73459">
        <ele>129.8</ele>
        <time>2026-01-31T12:38:51Z</time>
      </trkpt>
      <trkpt lat="48.72522" lon="1.73458">
        <ele>129.6</ele>
        <time>2026-01-31T12:38:53Z</time>
      </trkpt>
      <trkpt lat="48.72518" lon="1.73456">
        <ele>129.4</ele>
        <time>2026-01-31T12:38:55Z</time>
      </trkpt>
      <trkpt lat="48.72516" lon="1.73454">
        <ele>129.2</ele>
        <time>2026-01-31T12:38:57Z</time>
      </trkpt>
      <trkpt lat="48.72514" lon="1.73453">
        <ele>128.8</ele>
        <time>2026-01-31T12:38:59Z</time>
      </trkpt>
      <trkpt lat="48.72512" lon="1.73453">
        <ele>128.4</ele>
        <time>2026-01-31T12:39:01Z</time>
      </trkpt>
      <trkpt lat="48.7251" lon="1.73452">
        <ele>128</ele>
        <time>2026-01-31T12:39:03Z</time>
      </trkpt>
      <trkpt lat="48.72508" lon="1.73451">
        <ele>127.8</ele>
        <time>2026-01-31T12:39:05Z</time>
      </trkpt>
      <trkpt lat="48.72506" lon="1.73451">
        <ele>127.4</ele>
        <time>2026-01-31T12:39:07Z</time>
      </trkpt>
      <trkpt lat="48.72503" lon="1.7345">
        <ele>127.2</ele>
        <time>2026-01-31T12:39:09Z</time>
      </trkpt>
      <trkpt lat="48.725" lon="1.7345">
        <ele>126.8</ele>
        <time>2026-01-31T12:39:11Z</time>
      </trkpt>
      <trkpt lat="48.72498" lon="1.73449">
        <ele>126.4</ele>
        <time>2026-01-31T12:39:14Z</time>
      </trkpt>
      <trkpt lat="48.72496" lon="1.73449">
        <ele>126.2</ele>
        <time>2026-01-31T12:39:17Z</time>
      </trkpt>
      <trkpt lat="48.72494" lon="1.73448">
        <ele>125.8</ele>
        <time>2026-01-31T12:39:20Z</time>
      </trkpt>
      <trkpt lat="48.72492" lon="1.73448">
        <ele>125.8</ele>
        <time>2026-01-31T12:39:24Z</time>
      </trkpt>
      <trkpt lat="48.72489" lon="1.73448">
        <ele>125.6</ele>
        <time>2026-01-31T12:39:27Z</time>
      </trkpt>
      <trkpt lat="48.72487" lon="1.73448">
        <ele>125.6</ele>
        <time>2026-01-31T12:39:29Z</time>
      </trkpt>
      <trkpt lat="48.72484" lon="1.73447">
        <ele>125.6</ele>
        <time>2026-01-31T12:39:31Z</time>
      </trkpt>
      <trkpt lat="48.72481" lon="1.73446">
        <ele>125.6</ele>
        <time>2026-01-31T12:39:33Z</time>
      </trkpt>
      <trkpt lat="48.72477" lon="1.73446">
        <ele>125.6</ele>
        <time>2026-01-31T12:39:35Z</time>
      </trkpt>
      <trkpt lat="48.72476" lon="1.73446">
        <ele>125.6</ele>
        <time>2026-01-31T12:39:36Z</time>
      </trkpt>
      <trkpt lat="48.72474" lon="1.73446">
        <ele>125.6</ele>
        <time>2026-01-31T12:39:37Z</time>
      </trkpt>
      <trkpt lat="48.72472" lon="1.73446">
        <ele>125.6</ele>
        <time>2026-01-31T12:39:38Z</time>
      </trkpt>
      <trkpt lat="48.7247" lon="1.73445">
        <ele>125.6</ele>
        <time>2026-01-31T12:39:39Z</time>
      </trkpt>
      <trkpt lat="48.72467" lon="1.73444">
        <ele>125.4</ele>
        <time>2026-01-31T12:39:41Z</time>
      </trkpt>
      <trkpt lat="48.72465" lon="1.73444">
        <ele>125.4</ele>
        <time>2026-01-31T12:39:42Z</time>
      </trkpt>
      <trkpt lat="48.72461" lon="1.73443">
        <ele>125.2</ele>
        <time>2026-01-31T12:39:44Z</time>
      </trkpt>
      <trkpt lat="48.7246" lon="1.73443">
        <ele>125.2</ele>
        <time>2026-01-31T12:39:45Z</time>
      </trkpt>
      <trkpt lat="48.72458" lon="1.73442">
        <ele>125.2</ele>
        <time>2026-01-31T12:39:46Z</time>
      </trkpt>
      <trkpt lat="48.72456" lon="1.73442">
        <ele>125.2</ele>
        <time>2026-01-31T12:39:47Z</time>
      </trkpt>
      <trkpt lat="48.72453" lon="1.73441">
        <ele>125.2</ele>
        <time>2026-01-31T12:39:48Z</time>
      </trkpt>
      <trkpt lat="48.72452" lon="1.7344">
        <ele>125.2</ele>
        <time>2026-01-31T12:39:49Z</time>
      </trkpt>
      <trkpt lat="48.72449" lon="1.7344">
        <ele>125.2</ele>
        <time>2026-01-31T12:39:50Z</time>
      </trkpt>
      <trkpt lat="48.72446" lon="1.73439">
        <ele>125.2</ele>
        <time>2026-01-31T12:39:52Z</time>
      </trkpt>
      <trkpt lat="48.72443" lon="1.73438">
        <ele>125.2</ele>
        <time>2026-01-31T12:39:54Z</time>
      </trkpt>
      <trkpt lat="48.7244" lon="1.73437">
        <ele>125.2</ele>
        <time>2026-01-31T12:39:56Z</time>
      </trkpt>
      <trkpt lat="48.72437" lon="1.73437">
        <ele>125</ele>
        <time>2026-01-31T12:39:58Z</time>
      </trkpt>
      <trkpt lat="48.72434" lon="1.73436">
        <ele>125</ele>
        <time>2026-01-31T12:40:00Z</time>
      </trkpt>
      <trkpt lat="48.72432" lon="1.73436">
        <ele>125</ele>
        <time>2026-01-31T12:40:02Z</time>
      </trkpt>
      <trkpt lat="48.7243" lon="1.73436">
        <ele>124.8</ele>
        <time>2026-01-31T12:40:04Z</time>
      </trkpt>
      <trkpt lat="48.72428" lon="1.73436">
        <ele>124.6</ele>
        <time>2026-01-31T12:40:07Z</time>
      </trkpt>
      <trkpt lat="48.72425" lon="1.73435">
        <ele>124.4</ele>
        <time>2026-01-31T12:40:10Z</time>
      </trkpt>
      <trkpt lat="48.72423" lon="1.73433">
        <ele>124.4</ele>
        <time>2026-01-31T12:40:12Z</time>
      </trkpt>
      <trkpt lat="48.7242" lon="1.73432">
        <ele>124.2</ele>
        <time>2026-01-31T12:40:14Z</time>
      </trkpt>
      <trkpt lat="48.72417" lon="1.73432">
        <ele>124</ele>
        <time>2026-01-31T12:40:16Z</time>
      </trkpt>
      <trkpt lat="48.72415" lon="1.73432">
        <ele>123.8</ele>
        <time>2026-01-31T12:40:18Z</time>
      </trkpt>
      <trkpt lat="48.72413" lon="1.73432">
        <ele>123.8</ele>
        <time>2026-01-31T12:40:20Z</time>
      </trkpt>
      <trkpt lat="48.72411" lon="1.73432">
        <ele>123.6</ele>
        <time>2026-01-31T12:40:22Z</time>
      </trkpt>
      <trkpt lat="48.72408" lon="1.73431">
        <ele>123.6</ele>
        <time>2026-01-31T12:40:24Z</time>
      </trkpt>
      <trkpt lat="48.72405" lon="1.73431">
        <ele>123.4</ele>
        <time>2026-01-31T12:40:26Z</time>
      </trkpt>
      <trkpt lat="48.72402" lon="1.73431">
        <ele>123.4</ele>
        <time>2026-01-31T12:40:28Z</time>
      </trkpt>
      <trkpt lat="48.724" lon="1.73431">
        <ele>123.4</ele>
        <time>2026-01-31T12:40:30Z</time>
      </trkpt>
      <trkpt lat="48.72396" lon="1.7343">
        <ele>123.6</ele>
        <time>2026-01-31T12:40:32Z</time>
      </trkpt>
      <trkpt lat="48.72394" lon="1.73429">
        <ele>123.8</ele>
        <time>2026-01-31T12:40:33Z</time>
      </trkpt>
      <trkpt lat="48.72392" lon="1.73428">
        <ele>123.8</ele>
        <time>2026-01-31T12:40:34Z</time>
      </trkpt>
      <trkpt lat="48.7239" lon="1.73428">
        <ele>123.8</ele>
        <time>2026-01-31T12:40:35Z</time>
      </trkpt>
      <trkpt lat="48.72388" lon="1.73427">
        <ele>123.8</ele>
        <time>2026-01-31T12:40:36Z</time>
      </trkpt>
      <trkpt lat="48.72386" lon="1.73426">
        <ele>123.6</ele>
        <time>2026-01-31T12:40:38Z</time>
      </trkpt>
      <trkpt lat="48.72383" lon="1.73425">
        <ele>123.6</ele>
        <time>2026-01-31T12:40:40Z</time>
      </trkpt>
      <trkpt lat="48.72381" lon="1.73424">
        <ele>123.6</ele>
        <time>2026-01-31T12:40:42Z</time>
      </trkpt>
      <trkpt lat="48.72379" lon="1.73423">
        <ele>123.6</ele>
        <time>2026-01-31T12:40:44Z</time>
      </trkpt>
      <trkpt lat="48.72377" lon="1.73422">
        <ele>123.6</ele>
        <time>2026-01-31T12:40:46Z</time>
      </trkpt>
      <trkpt lat="48.72374" lon="1.73421">
        <ele>123.6</ele>
        <time>2026-01-31T12:40:48Z</time>
      </trkpt>
      <trkpt lat="48.72372" lon="1.7342">
        <ele>123.6</ele>
        <time>2026-01-31T12:40:50Z</time>
      </trkpt>
      <trkpt lat="48.72369" lon="1.73419">
        <ele>123.6</ele>
        <time>2026-01-31T12:40:52Z</time>
      </trkpt>
      <trkpt lat="48.72366" lon="1.73417">
        <ele>123.6</ele>
        <time>2026-01-31T12:40:54Z</time>
      </trkpt>
      <trkpt lat="48.72363" lon="1.73417">
        <ele>123.6</ele>
        <time>2026-01-31T12:40:56Z</time>
      </trkpt>
      <trkpt lat="48.7236" lon="1.73416">
        <ele>123.8</ele>
        <time>2026-01-31T12:40:58Z</time>
      </trkpt>
      <trkpt lat="48.72356" lon="1.73416">
        <ele>123.8</ele>
        <time>2026-01-31T12:41:00Z</time>
      </trkpt>
      <trkpt lat="48.72353" lon="1.73416">
        <ele>123.8</ele>
        <time>2026-01-31T12:41:02Z</time>
      </trkpt>
      <trkpt lat="48.7235" lon="1.73416">
        <ele>123.6</ele>
        <time>2026-01-31T12:41:04Z</time>
      </trkpt>
      <trkpt lat="48.72348" lon="1.73416">
        <ele>123.6</ele>
        <time>2026-01-31T12:41:06Z</time>
      </trkpt>
      <trkpt lat="48.72345" lon="1.73417">
        <ele>123.6</ele>
        <time>2026-01-31T12:41:08Z</time>
      </trkpt>
      <trkpt lat="48.72343" lon="1.73418">
        <ele>123.6</ele>
        <time>2026-01-31T12:41:09Z</time>
      </trkpt>
      <trkpt lat="48.72339" lon="1.73419">
        <ele>123.6</ele>
        <time>2026-01-31T12:41:11Z</time>
      </trkpt>
      <trkpt lat="48.72336" lon="1.7342">
        <ele>123.6</ele>
        <time>2026-01-31T12:41:13Z</time>
      </trkpt>
      <trkpt lat="48.72332" lon="1.7342">
        <ele>123.8</ele>
        <time>2026-01-31T12:41:15Z</time>
      </trkpt>
      <trkpt lat="48.72329" lon="1.73419">
        <ele>123.8</ele>
        <time>2026-01-31T12:41:17Z</time>
      </trkpt>
      <trkpt lat="48.72327" lon="1.73419">
        <ele>124</ele>
        <time>2026-01-31T12:41:18Z</time>
      </trkpt>
      <trkpt lat="48.72325" lon="1.73418">
        <ele>124</ele>
        <time>2026-01-31T12:41:19Z</time>
      </trkpt>
      <trkpt lat="48.72323" lon="1.73418">
        <ele>124</ele>
        <time>2026-01-31T12:41:20Z</time>
      </trkpt>
      <trkpt lat="48.7232" lon="1.73417">
        <ele>124.2</ele>
        <time>2026-01-31T12:41:22Z</time>
      </trkpt>
      <trkpt lat="48.72317" lon="1.73415">
        <ele>124.2</ele>
        <time>2026-01-31T12:41:24Z</time>
      </trkpt>
      <trkpt lat="48.72315" lon="1.73414">
        <ele>124.4</ele>
        <time>2026-01-31T12:41:26Z</time>
      </trkpt>
      <trkpt lat="48.72312" lon="1.73413">
        <ele>124.4</ele>
        <time>2026-01-31T12:41:28Z</time>
      </trkpt>
      <trkpt lat="48.72309" lon="1.73411">
        <ele>124.2</ele>
        <time>2026-01-31T12:41:30Z</time>
      </trkpt>
      <trkpt lat="48.72307" lon="1.7341">
        <ele>124.2</ele>
        <time>2026-01-31T12:41:31Z</time>
      </trkpt>
      <trkpt lat="48.72304" lon="1.73408">
        <ele>124.2</ele>
        <time>2026-01-31T12:41:32Z</time>
      </trkpt>
      <trkpt lat="48.72301" lon="1.73407">
        <ele>124.2</ele>
        <time>2026-01-31T12:41:33Z</time>
      </trkpt>
      <trkpt lat="48.72298" lon="1.73405">
        <ele>124.2</ele>
        <time>2026-01-31T12:41:34Z</time>
      </trkpt>
      <trkpt lat="48.72295" lon="1.73403">
        <ele>124.2</ele>
        <time>2026-01-31T12:41:35Z</time>
      </trkpt>
      <trkpt lat="48.72292" lon="1.73402">
        <ele>124.2</ele>
        <time>2026-01-31T12:41:36Z</time>
      </trkpt>
      <trkpt lat="48.72289" lon="1.73401">
        <ele>124.2</ele>
        <time>2026-01-31T12:41:37Z</time>
      </trkpt>
      <trkpt lat="48.72286" lon="1.73401">
        <ele>124</ele>
        <time>2026-01-31T12:41:38Z</time>
      </trkpt>
      <trkpt lat="48.72284" lon="1.73401">
        <ele>124</ele>
        <time>2026-01-31T12:41:39Z</time>
      </trkpt>
      <trkpt lat="48.72283" lon="1.73402">
        <ele>124</ele>
        <time>2026-01-31T12:41:41Z</time>
      </trkpt>
      <trkpt lat="48.72281" lon="1.73404">
        <ele>124</ele>
        <time>2026-01-31T12:41:43Z</time>
      </trkpt>
      <trkpt lat="48.72279" lon="1.73405">
        <ele>124.2</ele>
        <time>2026-01-31T12:41:45Z</time>
      </trkpt>
      <trkpt lat="48.72277" lon="1.73405">
        <ele>124.2</ele>
        <time>2026-01-31T12:41:46Z</time>
      </trkpt>
      <trkpt lat="48.72275" lon="1.73405">
        <ele>124.4</ele>
        <time>2026-01-31T12:41:47Z</time>
      </trkpt>
      <trkpt lat="48.72273" lon="1.73406">
        <ele>124.4</ele>
        <time>2026-01-31T12:41:48Z</time>
      </trkpt>
      <trkpt lat="48.7227" lon="1.73406">
        <ele>124.2</ele>
        <time>2026-01-31T12:41:49Z</time>
      </trkpt>
      <trkpt lat="48.72268" lon="1.73405">
        <ele>124.2</ele>
        <time>2026-01-31T12:41:50Z</time>
      </trkpt>
      <trkpt lat="48.72265" lon="1.73405">
        <ele>124</ele>
        <time>2026-01-31T12:41:51Z</time>
      </trkpt>
      <trkpt lat="48.72263" lon="1.73403">
        <ele>124</ele>
        <time>2026-01-31T12:41:52Z</time>
      </trkpt>
      <trkpt lat="48.72261" lon="1.73401">
        <ele>123.6</ele>
        <time>2026-01-31T12:41:54Z</time>
      </trkpt>
      <trkpt lat="48.72259" lon="1.73399">
        <ele>123.4</ele>
        <time>2026-01-31T12:41:56Z</time>
      </trkpt>
      <trkpt lat="48.72256" lon="1.73398">
        <ele>123</ele>
        <time>2026-01-31T12:41:58Z</time>
      </trkpt>
      <trkpt lat="48.72253" lon="1.73398">
        <ele>122.6</ele>
        <time>2026-01-31T12:42:00Z</time>
      </trkpt>
      <trkpt lat="48.7225" lon="1.73398">
        <ele>122.4</ele>
        <time>2026-01-31T12:42:02Z</time>
      </trkpt>
      <trkpt lat="48.72248" lon="1.73398">
        <ele>122.2</ele>
        <time>2026-01-31T12:42:05Z</time>
      </trkpt>
      <trkpt lat="48.72246" lon="1.73397">
        <ele>122.2</ele>
        <time>2026-01-31T12:42:08Z</time>
      </trkpt>
      <trkpt lat="48.72244" lon="1.73397">
        <ele>122.2</ele>
        <time>2026-01-31T12:42:10Z</time>
      </trkpt>
      <trkpt lat="48.72242" lon="1.73396">
        <ele>122.2</ele>
        <time>2026-01-31T12:42:12Z</time>
      </trkpt>
      <trkpt lat="48.72239" lon="1.73396">
        <ele>122</ele>
        <time>2026-01-31T12:42:15Z</time>
      </trkpt>
      <trkpt lat="48.72237" lon="1.73395">
        <ele>122</ele>
        <time>2026-01-31T12:42:17Z</time>
      </trkpt>
      <trkpt lat="48.72235" lon="1.73393">
        <ele>122</ele>
        <time>2026-01-31T12:42:19Z</time>
      </trkpt>
      <trkpt lat="48.72233" lon="1.73393">
        <ele>122</ele>
        <time>2026-01-31T12:42:21Z</time>
      </trkpt>
      <trkpt lat="48.7223" lon="1.73393">
        <ele>122</ele>
        <time>2026-01-31T12:42:24Z</time>
      </trkpt>
      <trkpt lat="48.72228" lon="1.73395">
        <ele>122</ele>
        <time>2026-01-31T12:42:27Z</time>
      </trkpt>
      <trkpt lat="48.72226" lon="1.73396">
        <ele>122.2</ele>
        <time>2026-01-31T12:42:29Z</time>
      </trkpt>
      <trkpt lat="48.72224" lon="1.73396">
        <ele>122.4</ele>
        <time>2026-01-31T12:42:31Z</time>
      </trkpt>
      <trkpt lat="48.72221" lon="1.73397">
        <ele>122.6</ele>
        <time>2026-01-31T12:42:33Z</time>
      </trkpt>
      <trkpt lat="48.72219" lon="1.73398">
        <ele>122.8</ele>
        <time>2026-01-31T12:42:35Z</time>
      </trkpt>
      <trkpt lat="48.72216" lon="1.73399">
        <ele>122.8</ele>
        <time>2026-01-31T12:42:38Z</time>
      </trkpt>
      <trkpt lat="48.72214" lon="1.73399">
        <ele>122.8</ele>
        <time>2026-01-31T12:42:41Z</time>
      </trkpt>
      <trkpt lat="48.72212" lon="1.73399">
        <ele>122.8</ele>
        <time>2026-01-31T12:42:44Z</time>
      </trkpt>
      <trkpt lat="48.7221" lon="1.73399">
        <ele>123</ele>
        <time>2026-01-31T12:42:47Z</time>
      </trkpt>
      <trkpt lat="48.72208" lon="1.734">
        <ele>123</ele>
        <time>2026-01-31T12:42:49Z</time>
      </trkpt>
      <trkpt lat="48.72206" lon="1.73401">
        <ele>123.2</ele>
        <time>2026-01-31T12:42:51Z</time>
      </trkpt>
      <trkpt lat="48.72204" lon="1.73402">
        <ele>123.2</ele>
        <time>2026-01-31T12:42:53Z</time>
      </trkpt>
      <trkpt lat="48.72202" lon="1.73402">
        <ele>123.2</ele>
        <time>2026-01-31T12:42:55Z</time>
      </trkpt>
      <trkpt lat="48.722" lon="1.73404">
        <ele>123.2</ele>
        <time>2026-01-31T12:42:58Z</time>
      </trkpt>
      <trkpt lat="48.72198" lon="1.73406">
        <ele>123</ele>
        <time>2026-01-31T12:43:01Z</time>
      </trkpt>
      <trkpt lat="48.72196" lon="1.73407">
        <ele>122.8</ele>
        <time>2026-01-31T12:43:03Z</time>
      </trkpt>
      <trkpt lat="48.72193" lon="1.73407">
        <ele>122.8</ele>
        <time>2026-01-31T12:43:05Z</time>
      </trkpt>
      <trkpt lat="48.7219" lon="1.73407">
        <ele>122.6</ele>
        <time>2026-01-31T12:43:07Z</time>
      </trkpt>
      <trkpt lat="48.72188" lon="1.73407">
        <ele>122.6</ele>
        <time>2026-01-31T12:43:08Z</time>
      </trkpt>
      <trkpt lat="48.72184" lon="1.73408">
        <ele>122.4</ele>
        <time>2026-01-31T12:43:10Z</time>
      </trkpt>
      <trkpt lat="48.72181" lon="1.73408">
        <ele>122.4</ele>
        <time>2026-01-31T12:43:12Z</time>
      </trkpt>
      <trkpt lat="48.72178" lon="1.73409">
        <ele>122.4</ele>
        <time>2026-01-31T12:43:14Z</time>
      </trkpt>
      <trkpt lat="48.72175" lon="1.7341">
        <ele>122.4</ele>
        <time>2026-01-31T12:43:16Z</time>
      </trkpt>
      <trkpt lat="48.72172" lon="1.7341">
        <ele>122.4</ele>
        <time>2026-01-31T12:43:18Z</time>
      </trkpt>
      <trkpt lat="48.72169" lon="1.7341">
        <ele>122.4</ele>
        <time>2026-01-31T12:43:20Z</time>
      </trkpt>
      <trkpt lat="48.72167" lon="1.73409">
        <ele>122.4</ele>
        <time>2026-01-31T12:43:22Z</time>
      </trkpt>
      <trkpt lat="48.72165" lon="1.7341">
        <ele>122.4</ele>
        <time>2026-01-31T12:43:24Z</time>
      </trkpt>
      <trkpt lat="48.72163" lon="1.7341">
        <ele>122.8</ele>
        <time>2026-01-31T12:43:27Z</time>
      </trkpt>
      <trkpt lat="48.7216" lon="1.7341">
        <ele>123</ele>
        <time>2026-01-31T12:43:29Z</time>
      </trkpt>
      <trkpt lat="48.72158" lon="1.73409">
        <ele>123.2</ele>
        <time>2026-01-31T12:43:31Z</time>
      </trkpt>
      <trkpt lat="48.72155" lon="1.73408">
        <ele>123.4</ele>
        <time>2026-01-31T12:43:33Z</time>
      </trkpt>
      <trkpt lat="48.72153" lon="1.73406">
        <ele>123.6</ele>
        <time>2026-01-31T12:43:35Z</time>
      </trkpt>
      <trkpt lat="48.72151" lon="1.73404">
        <ele>124</ele>
        <time>2026-01-31T12:43:38Z</time>
      </trkpt>
      <trkpt lat="48.72149" lon="1.73404">
        <ele>124.2</ele>
        <time>2026-01-31T12:43:41Z</time>
      </trkpt>
      <trkpt lat="48.72147" lon="1.73404">
        <ele>124.4</ele>
        <time>2026-01-31T12:43:43Z</time>
      </trkpt>
      <trkpt lat="48.72145" lon="1.73406">
        <ele>125</ele>
        <time>2026-01-31T12:43:49Z</time>
      </trkpt>
      <trkpt lat="48.72143" lon="1.73406">
        <ele>125.6</ele>
        <time>2026-01-31T12:43:53Z</time>
      </trkpt>
      <trkpt lat="48.7214" lon="1.73406">
        <ele>126</ele>
        <time>2026-01-31T12:43:56Z</time>
      </trkpt>
      <trkpt lat="48.72138" lon="1.73407">
        <ele>126</ele>
        <time>2026-01-31T12:43:58Z</time>
      </trkpt>
      <trkpt lat="48.72134" lon="1.73409">
        <ele>126</ele>
        <time>2026-01-31T12:44:00Z</time>
      </trkpt>
      <trkpt lat="48.72132" lon="1.73409">
        <ele>126</ele>
        <time>2026-01-31T12:44:01Z</time>
      </trkpt>
      <trkpt lat="48.72131" lon="1.7341">
        <ele>126</ele>
        <time>2026-01-31T12:44:02Z</time>
      </trkpt>
      <trkpt lat="48.72129" lon="1.73411">
        <ele>126</ele>
        <time>2026-01-31T12:44:03Z</time>
      </trkpt>
      <trkpt lat="48.72126" lon="1.73413">
        <ele>126</ele>
        <time>2026-01-31T12:44:05Z</time>
      </trkpt>
      <trkpt lat="48.72124" lon="1.73415">
        <ele>126</ele>
        <time>2026-01-31T12:44:07Z</time>
      </trkpt>
      <trkpt lat="48.72121" lon="1.73415">
        <ele>125.8</ele>
        <time>2026-01-31T12:44:09Z</time>
      </trkpt>
      <trkpt lat="48.72118" lon="1.73415">
        <ele>125.8</ele>
        <time>2026-01-31T12:44:11Z</time>
      </trkpt>
      <trkpt lat="48.72116" lon="1.73415">
        <ele>125.6</ele>
        <time>2026-01-31T12:44:13Z</time>
      </trkpt>
      <trkpt lat="48.72114" lon="1.73416">
        <ele>125.6</ele>
        <time>2026-01-31T12:44:15Z</time>
      </trkpt>
      <trkpt lat="48.72112" lon="1.73417">
        <ele>125.6</ele>
        <time>2026-01-31T12:44:17Z</time>
      </trkpt>
      <trkpt lat="48.72109" lon="1.73418">
        <ele>125.6</ele>
        <time>2026-01-31T12:44:19Z</time>
      </trkpt>
      <trkpt lat="48.72107" lon="1.7342">
        <ele>125.4</ele>
        <time>2026-01-31T12:44:21Z</time>
      </trkpt>
      <trkpt lat="48.72104" lon="1.73421">
        <ele>125.4</ele>
        <time>2026-01-31T12:44:23Z</time>
      </trkpt>
      <trkpt lat="48.72101" lon="1.73421">
        <ele>125.6</ele>
        <time>2026-01-31T12:44:25Z</time>
      </trkpt>
      <trkpt lat="48.72099" lon="1.7342">
        <ele>125.6</ele>
        <time>2026-01-31T12:44:28Z</time>
      </trkpt>
      <trkpt lat="48.72095" lon="1.7342">
        <ele>125.8</ele>
        <time>2026-01-31T12:44:30Z</time>
      </trkpt>
      <trkpt lat="48.72092" lon="1.7342">
        <ele>125.8</ele>
        <time>2026-01-31T12:44:32Z</time>
      </trkpt>
      <trkpt lat="48.7209" lon="1.7342">
        <ele>125.8</ele>
        <time>2026-01-31T12:44:33Z</time>
      </trkpt>
      <trkpt lat="48.72088" lon="1.7342">
        <ele>125.8</ele>
        <time>2026-01-31T12:44:34Z</time>
      </trkpt>
      <trkpt lat="48.72085" lon="1.7342">
        <ele>125.8</ele>
        <time>2026-01-31T12:44:36Z</time>
      </trkpt>
      <trkpt lat="48.72083" lon="1.7342">
        <ele>125.8</ele>
        <time>2026-01-31T12:44:37Z</time>
      </trkpt>
      <trkpt lat="48.72079" lon="1.73421">
        <ele>125.8</ele>
        <time>2026-01-31T12:44:39Z</time>
      </trkpt>
      <trkpt lat="48.72077" lon="1.73421">
        <ele>125.8</ele>
        <time>2026-01-31T12:44:40Z</time>
      </trkpt>
      <trkpt lat="48.72075" lon="1.73421">
        <ele>125.8</ele>
        <time>2026-01-31T12:44:41Z</time>
      </trkpt>
      <trkpt lat="48.72073" lon="1.73421">
        <ele>125.6</ele>
        <time>2026-01-31T12:44:42Z</time>
      </trkpt>
      <trkpt lat="48.72071" lon="1.73421">
        <ele>125.6</ele>
        <time>2026-01-31T12:44:43Z</time>
      </trkpt>
      <trkpt lat="48.72068" lon="1.73422">
        <ele>125.4</ele>
        <time>2026-01-31T12:44:45Z</time>
      </trkpt>
      <trkpt lat="48.72065" lon="1.73422">
        <ele>125.2</ele>
        <time>2026-01-31T12:44:47Z</time>
      </trkpt>
      <trkpt lat="48.72062" lon="1.73422">
        <ele>125.2</ele>
        <time>2026-01-31T12:44:49Z</time>
      </trkpt>
      <trkpt lat="48.72059" lon="1.73422">
        <ele>125</ele>
        <time>2026-01-31T12:44:51Z</time>
      </trkpt>
      <trkpt lat="48.72057" lon="1.73422">
        <ele>125</ele>
        <time>2026-01-31T12:44:52Z</time>
      </trkpt>
      <trkpt lat="48.72055" lon="1.73422">
        <ele>124.8</ele>
        <time>2026-01-31T12:44:53Z</time>
      </trkpt>
      <trkpt lat="48.72052" lon="1.73422">
        <ele>124.8</ele>
        <time>2026-01-31T12:44:54Z</time>
      </trkpt>
      <trkpt lat="48.7205" lon="1.73423">
        <ele>124.8</ele>
        <time>2026-01-31T12:44:55Z</time>
      </trkpt>
      <trkpt lat="48.72048" lon="1.73424">
        <ele>124.6</ele>
        <time>2026-01-31T12:44:56Z</time>
      </trkpt>
      <trkpt lat="48.72046" lon="1.73425">
        <ele>124.6</ele>
        <time>2026-01-31T12:44:57Z</time>
      </trkpt>
      <trkpt lat="48.72044" lon="1.73426">
        <ele>124.6</ele>
        <time>2026-01-31T12:44:58Z</time>
      </trkpt>
      <trkpt lat="48.7204" lon="1.73427">
        <ele>124.2</ele>
        <time>2026-01-31T12:45:00Z</time>
      </trkpt>
      <trkpt lat="48.72037" lon="1.73427">
        <ele>124</ele>
        <time>2026-01-31T12:45:02Z</time>
      </trkpt>
      <trkpt lat="48.72035" lon="1.73427">
        <ele>123.8</ele>
        <time>2026-01-31T12:45:04Z</time>
      </trkpt>
      <trkpt lat="48.72032" lon="1.73427">
        <ele>123.4</ele>
        <time>2026-01-31T12:45:06Z</time>
      </trkpt>
      <trkpt lat="48.7203" lon="1.73428">
        <ele>123.2</ele>
        <time>2026-01-31T12:45:08Z</time>
      </trkpt>
      <trkpt lat="48.72027" lon="1.73429">
        <ele>123</ele>
        <time>2026-01-31T12:45:10Z</time>
      </trkpt>
      <trkpt lat="48.72024" lon="1.73429">
        <ele>122.8</ele>
        <time>2026-01-31T12:45:12Z</time>
      </trkpt>
      <trkpt lat="48.72021" lon="1.7343">
        <ele>122.6</ele>
        <time>2026-01-31T12:45:14Z</time>
      </trkpt>
      <trkpt lat="48.72018" lon="1.73432">
        <ele>122.4</ele>
        <time>2026-01-31T12:45:16Z</time>
      </trkpt>
      <trkpt lat="48.72016" lon="1.73432">
        <ele>122.4</ele>
        <time>2026-01-31T12:45:17Z</time>
      </trkpt>
      <trkpt lat="48.72013" lon="1.73433">
        <ele>122.4</ele>
        <time>2026-01-31T12:45:19Z</time>
      </trkpt>
      <trkpt lat="48.72011" lon="1.73434">
        <ele>122.6</ele>
        <time>2026-01-31T12:45:21Z</time>
      </trkpt>
      <trkpt lat="48.72008" lon="1.73434">
        <ele>122.6</ele>
        <time>2026-01-31T12:45:23Z</time>
      </trkpt>
      <trkpt lat="48.72005" lon="1.73435">
        <ele>122.8</ele>
        <time>2026-01-31T12:45:25Z</time>
      </trkpt>
      <trkpt lat="48.72003" lon="1.73436">
        <ele>123</ele>
        <time>2026-01-31T12:45:27Z</time>
      </trkpt>
      <trkpt lat="48.72" lon="1.73437">
        <ele>123</ele>
        <time>2026-01-31T12:45:29Z</time>
      </trkpt>
      <trkpt lat="48.71996" lon="1.73438">
        <ele>123.2</ele>
        <time>2026-01-31T12:45:31Z</time>
      </trkpt>
      <trkpt lat="48.71992" lon="1.73438">
        <ele>123.4</ele>
        <time>2026-01-31T12:45:33Z</time>
      </trkpt>
      <trkpt lat="48.71989" lon="1.73437">
        <ele>123.4</ele>
        <time>2026-01-31T12:45:35Z</time>
      </trkpt>
      <trkpt lat="48.71987" lon="1.73437">
        <ele>123.8</ele>
        <time>2026-01-31T12:45:38Z</time>
      </trkpt>
      <trkpt lat="48.71985" lon="1.73438">
        <ele>124</ele>
        <time>2026-01-31T12:45:42Z</time>
      </trkpt>
      <trkpt lat="48.71983" lon="1.73439">
        <ele>124.4</ele>
        <time>2026-01-31T12:45:45Z</time>
      </trkpt>
      <trkpt lat="48.7198" lon="1.7344">
        <ele>124.4</ele>
        <time>2026-01-31T12:45:47Z</time>
      </trkpt>
      <trkpt lat="48.71977" lon="1.73441">
        <ele>124.6</ele>
        <time>2026-01-31T12:45:49Z</time>
      </trkpt>
      <trkpt lat="48.71975" lon="1.73441">
        <ele>124.8</ele>
        <time>2026-01-31T12:45:50Z</time>
      </trkpt>
      <trkpt lat="48.71973" lon="1.73442">
        <ele>124.8</ele>
        <time>2026-01-31T12:45:51Z</time>
      </trkpt>
      <trkpt lat="48.71971" lon="1.73442">
        <ele>125</ele>
        <time>2026-01-31T12:45:52Z</time>
      </trkpt>
      <trkpt lat="48.71969" lon="1.73442">
        <ele>125</ele>
        <time>2026-01-31T12:45:53Z</time>
      </trkpt>
      <trkpt lat="48.71966" lon="1.73443">
        <ele>125.2</ele>
        <time>2026-01-31T12:45:55Z</time>
      </trkpt>
      <trkpt lat="48.71963" lon="1.73444">
        <ele>125.4</ele>
        <time>2026-01-31T12:45:57Z</time>
      </trkpt>
      <trkpt lat="48.71959" lon="1.73445">
        <ele>125.8</ele>
        <time>2026-01-31T12:45:59Z</time>
      </trkpt>
      <trkpt lat="48.71957" lon="1.73446">
        <ele>125.8</ele>
        <time>2026-01-31T12:46:00Z</time>
      </trkpt>
      <trkpt lat="48.71955" lon="1.73446">
        <ele>126</ele>
        <time>2026-01-31T12:46:01Z</time>
      </trkpt>
      <trkpt lat="48.71952" lon="1.73448">
        <ele>126.4</ele>
        <time>2026-01-31T12:46:03Z</time>
      </trkpt>
      <trkpt lat="48.71949" lon="1.73451">
        <ele>126.6</ele>
        <time>2026-01-31T12:46:05Z</time>
      </trkpt>
      <trkpt lat="48.71948" lon="1.73454">
        <ele>127</ele>
        <time>2026-01-31T12:46:07Z</time>
      </trkpt>
      <trkpt lat="48.71945" lon="1.73456">
        <ele>127.2</ele>
        <time>2026-01-31T12:46:09Z</time>
      </trkpt>
      <trkpt lat="48.71942" lon="1.73457">
        <ele>127.6</ele>
        <time>2026-01-31T12:46:11Z</time>
      </trkpt>
      <trkpt lat="48.7194" lon="1.73458">
        <ele>127.8</ele>
        <time>2026-01-31T12:46:13Z</time>
      </trkpt>
      <trkpt lat="48.71938" lon="1.7346">
        <ele>128</ele>
        <time>2026-01-31T12:46:15Z</time>
      </trkpt>
      <trkpt lat="48.71936" lon="1.73462">
        <ele>128.4</ele>
        <time>2026-01-31T12:46:17Z</time>
      </trkpt>
      <trkpt lat="48.71934" lon="1.73464">
        <ele>128.6</ele>
        <time>2026-01-31T12:46:19Z</time>
      </trkpt>
      <trkpt lat="48.71932" lon="1.73464">
        <ele>128.8</ele>
        <time>2026-01-31T12:46:21Z</time>
      </trkpt>
      <trkpt lat="48.71929" lon="1.73464">
        <ele>128.8</ele>
        <time>2026-01-31T12:46:23Z</time>
      </trkpt>
      <trkpt lat="48.71926" lon="1.73463">
        <ele>129</ele>
        <time>2026-01-31T12:46:25Z</time>
      </trkpt>
      <trkpt lat="48.71924" lon="1.73462">
        <ele>129</ele>
        <time>2026-01-31T12:46:26Z</time>
      </trkpt>
      <trkpt lat="48.71921" lon="1.73462">
        <ele>129</ele>
        <time>2026-01-31T12:46:28Z</time>
      </trkpt>
      <trkpt lat="48.71918" lon="1.73463">
        <ele>129.2</ele>
        <time>2026-01-31T12:46:30Z</time>
      </trkpt>
      <trkpt lat="48.71916" lon="1.73465">
        <ele>129.2</ele>
        <time>2026-01-31T12:46:32Z</time>
      </trkpt>
      <trkpt lat="48.71913" lon="1.73467">
        <ele>129.2</ele>
        <time>2026-01-31T12:46:34Z</time>
      </trkpt>
      <trkpt lat="48.7191" lon="1.73469">
        <ele>129.4</ele>
        <time>2026-01-31T12:46:36Z</time>
      </trkpt>
      <trkpt lat="48.71907" lon="1.7347">
        <ele>129.4</ele>
        <time>2026-01-31T12:46:38Z</time>
      </trkpt>
      <trkpt lat="48.71905" lon="1.7347">
        <ele>129.6</ele>
        <time>2026-01-31T12:46:40Z</time>
      </trkpt>
      <trkpt lat="48.71902" lon="1.73471">
        <ele>129.6</ele>
        <time>2026-01-31T12:46:42Z</time>
      </trkpt>
      <trkpt lat="48.719" lon="1.73471">
        <ele>129.6</ele>
        <time>2026-01-31T12:46:44Z</time>
      </trkpt>
      <trkpt lat="48.71898" lon="1.73471">
        <ele>129.8</ele>
        <time>2026-01-31T12:46:46Z</time>
      </trkpt>
      <trkpt lat="48.71896" lon="1.73471">
        <ele>129.8</ele>
        <time>2026-01-31T12:46:47Z</time>
      </trkpt>
      <trkpt lat="48.71892" lon="1.73471">
        <ele>129.6</ele>
        <time>2026-01-31T12:46:49Z</time>
      </trkpt>
      <trkpt lat="48.7189" lon="1.73471">
        <ele>129.6</ele>
        <time>2026-01-31T12:46:50Z</time>
      </trkpt>
      <trkpt lat="48.71888" lon="1.73471">
        <ele>129.4</ele>
        <time>2026-01-31T12:46:51Z</time>
      </trkpt>
      <trkpt lat="48.71886" lon="1.7347">
        <ele>129.4</ele>
        <time>2026-01-31T12:46:52Z</time>
      </trkpt>
      <trkpt lat="48.71884" lon="1.73469">
        <ele>129.4</ele>
        <time>2026-01-31T12:46:53Z</time>
      </trkpt>
      <trkpt lat="48.71882" lon="1.73469">
        <ele>129.4</ele>
        <time>2026-01-31T12:46:54Z</time>
      </trkpt>
      <trkpt lat="48.7188" lon="1.73468">
        <ele>129.2</ele>
        <time>2026-01-31T12:46:55Z</time>
      </trkpt>
      <trkpt lat="48.71878" lon="1.73468">
        <ele>129.2</ele>
        <time>2026-01-31T12:46:56Z</time>
      </trkpt>
      <trkpt lat="48.71876" lon="1.73468">
        <ele>129.2</ele>
        <time>2026-01-31T12:46:58Z</time>
      </trkpt>
      <trkpt lat="48.71874" lon="1.73467">
        <ele>129.2</ele>
        <time>2026-01-31T12:47:00Z</time>
      </trkpt>
      <trkpt lat="48.71871" lon="1.73465">
        <ele>129</ele>
        <time>2026-01-31T12:47:03Z</time>
      </trkpt>
      <trkpt lat="48.71868" lon="1.73464">
        <ele>128.8</ele>
        <time>2026-01-31T12:47:05Z</time>
      </trkpt>
      <trkpt lat="48.71865" lon="1.73465">
        <ele>128.6</ele>
        <time>2026-01-31T12:47:07Z</time>
      </trkpt>
      <trkpt lat="48.71862" lon="1.73466">
        <ele>128.6</ele>
        <time>2026-01-31T12:47:09Z</time>
      </trkpt>
      <trkpt lat="48.71858" lon="1.73467">
        <ele>128.4</ele>
        <time>2026-01-31T12:47:11Z</time>
      </trkpt>
      <trkpt lat="48.71855" lon="1.73468">
        <ele>128.4</ele>
        <time>2026-01-31T12:47:13Z</time>
      </trkpt>
      <trkpt lat="48.71853" lon="1.73468">
        <ele>128.4</ele>
        <time>2026-01-31T12:47:14Z</time>
      </trkpt>
      <trkpt lat="48.7185" lon="1.73468">
        <ele>128.2</ele>
        <time>2026-01-31T12:47:16Z</time>
      </trkpt>
      <trkpt lat="48.71847" lon="1.73468">
        <ele>128</ele>
        <time>2026-01-31T12:47:18Z</time>
      </trkpt>
      <trkpt lat="48.71845" lon="1.73468">
        <ele>128</ele>
        <time>2026-01-31T12:47:19Z</time>
      </trkpt>
      <trkpt lat="48.71842" lon="1.73469">
        <ele>127.8</ele>
        <time>2026-01-31T12:47:21Z</time>
      </trkpt>
      <trkpt lat="48.71838" lon="1.73469">
        <ele>127.8</ele>
        <time>2026-01-31T12:47:23Z</time>
      </trkpt>
      <trkpt lat="48.71835" lon="1.7347">
        <ele>127.6</ele>
        <time>2026-01-31T12:47:25Z</time>
      </trkpt>
      <trkpt lat="48.71832" lon="1.73472">
        <ele>127.6</ele>
        <time>2026-01-31T12:47:27Z</time>
      </trkpt>
      <trkpt lat="48.71829" lon="1.73474">
        <ele>127.4</ele>
        <time>2026-01-31T12:47:29Z</time>
      </trkpt>
      <trkpt lat="48.71826" lon="1.73476">
        <ele>127.4</ele>
        <time>2026-01-31T12:47:31Z</time>
      </trkpt>
      <trkpt lat="48.71823" lon="1.73478">
        <ele>127.4</ele>
        <time>2026-01-31T12:47:33Z</time>
      </trkpt>
      <trkpt lat="48.71821" lon="1.73479">
        <ele>127.4</ele>
        <time>2026-01-31T12:47:35Z</time>
      </trkpt>
      <trkpt lat="48.71817" lon="1.7348">
        <ele>127.2</ele>
        <time>2026-01-31T12:47:37Z</time>
      </trkpt>
      <trkpt lat="48.71814" lon="1.7348">
        <ele>127.4</ele>
        <time>2026-01-31T12:47:39Z</time>
      </trkpt>
      <trkpt lat="48.71812" lon="1.73481">
        <ele>127.4</ele>
        <time>2026-01-31T12:47:40Z</time>
      </trkpt>
      <trkpt lat="48.7181" lon="1.73481">
        <ele>127.4</ele>
        <time>2026-01-31T12:47:41Z</time>
      </trkpt>
      <trkpt lat="48.71807" lon="1.73482">
        <ele>127.2</ele>
        <time>2026-01-31T12:47:43Z</time>
      </trkpt>
      <trkpt lat="48.71805" lon="1.73482">
        <ele>127.2</ele>
        <time>2026-01-31T12:47:45Z</time>
      </trkpt>
      <trkpt lat="48.71803" lon="1.73483">
        <ele>131.2</ele>
        <time>2026-01-31T12:48:43Z</time>
      </trkpt>
      <trkpt lat="48.71801" lon="1.73484">
        <ele>131.4</ele>
        <time>2026-01-31T12:48:48Z</time>
      </trkpt>
      <trkpt lat="48.71798" lon="1.73487">
        <ele>131.6</ele>
        <time>2026-01-31T12:48:50Z</time>
      </trkpt>
      <trkpt lat="48.71797" lon="1.73488">
        <ele>131.6</ele>
        <time>2026-01-31T12:48:51Z</time>
      </trkpt>
      <trkpt lat="48.71795" lon="1.7349">
        <ele>131.6</ele>
        <time>2026-01-31T12:48:52Z</time>
      </trkpt>
      <trkpt lat="48.71793" lon="1.73491">
        <ele>131.6</ele>
        <time>2026-01-31T12:48:53Z</time>
      </trkpt>
      <trkpt lat="48.7179" lon="1.73492">
        <ele>131.8</ele>
        <time>2026-01-31T12:48:55Z</time>
      </trkpt>
      <trkpt lat="48.71788" lon="1.73493">
        <ele>131.8</ele>
        <time>2026-01-31T12:48:56Z</time>
      </trkpt>
      <trkpt lat="48.71785" lon="1.73493">
        <ele>131.8</ele>
        <time>2026-01-31T12:48:58Z</time>
      </trkpt>
      <trkpt lat="48.71782" lon="1.73493">
        <ele>132</ele>
        <time>2026-01-31T12:49:00Z</time>
      </trkpt>
      <trkpt lat="48.71779" lon="1.73494">
        <ele>132</ele>
        <time>2026-01-31T12:49:02Z</time>
      </trkpt>
      <trkpt lat="48.71777" lon="1.73496">
        <ele>132</ele>
        <time>2026-01-31T12:49:04Z</time>
      </trkpt>
      <trkpt lat="48.71774" lon="1.73498">
        <ele>132.2</ele>
        <time>2026-01-31T12:49:06Z</time>
      </trkpt>
      <trkpt lat="48.71772" lon="1.73499">
        <ele>132.2</ele>
        <time>2026-01-31T12:49:08Z</time>
      </trkpt>
      <trkpt lat="48.71769" lon="1.735">
        <ele>132.4</ele>
        <time>2026-01-31T12:49:10Z</time>
      </trkpt>
      <trkpt lat="48.71767" lon="1.73501">
        <ele>132.4</ele>
        <time>2026-01-31T12:49:12Z</time>
      </trkpt>
      <trkpt lat="48.71764" lon="1.73502">
        <ele>132.6</ele>
        <time>2026-01-31T12:49:14Z</time>
      </trkpt>
      <trkpt lat="48.71761" lon="1.73503">
        <ele>132.6</ele>
        <time>2026-01-31T12:49:16Z</time>
      </trkpt>
      <trkpt lat="48.71757" lon="1.73504">
        <ele>132.6</ele>
        <time>2026-01-31T12:49:18Z</time>
      </trkpt>
      <trkpt lat="48.71754" lon="1.73504">
        <ele>132.6</ele>
        <time>2026-01-31T12:49:20Z</time>
      </trkpt>
      <trkpt lat="48.71751" lon="1.73503">
        <ele>132.8</ele>
        <time>2026-01-31T12:49:22Z</time>
      </trkpt>
      <trkpt lat="48.71749" lon="1.73502">
        <ele>132.8</ele>
        <time>2026-01-31T12:49:24Z</time>
      </trkpt>
      <trkpt lat="48.71747" lon="1.73501">
        <ele>132.8</ele>
        <time>2026-01-31T12:49:26Z</time>
      </trkpt>
      <trkpt lat="48.71744" lon="1.735">
        <ele>132.8</ele>
        <time>2026-01-31T12:49:28Z</time>
      </trkpt>
      <trkpt lat="48.71741" lon="1.735">
        <ele>132.8</ele>
        <time>2026-01-31T12:49:30Z</time>
      </trkpt>
      <trkpt lat="48.71738" lon="1.735">
        <ele>132.8</ele>
        <time>2026-01-31T12:49:32Z</time>
      </trkpt>
      <trkpt lat="48.71736" lon="1.735">
        <ele>132.8</ele>
        <time>2026-01-31T12:49:33Z</time>
      </trkpt>
      <trkpt lat="48.71734" lon="1.735">
        <ele>132.8</ele>
        <time>2026-01-31T12:49:34Z</time>
      </trkpt>
      <trkpt lat="48.71732" lon="1.73501">
        <ele>132.8</ele>
        <time>2026-01-31T12:49:35Z</time>
      </trkpt>
      <trkpt lat="48.71729" lon="1.73501">
        <ele>132.8</ele>
        <time>2026-01-31T12:49:36Z</time>
      </trkpt>
      <trkpt lat="48.71727" lon="1.73502">
        <ele>132.8</ele>
        <time>2026-01-31T12:49:37Z</time>
      </trkpt>
      <trkpt lat="48.71725" lon="1.73503">
        <ele>133</ele>
        <time>2026-01-31T12:49:38Z</time>
      </trkpt>
      <trkpt lat="48.71723" lon="1.73503">
        <ele>133</ele>
        <time>2026-01-31T12:49:39Z</time>
      </trkpt>
      <trkpt lat="48.7172" lon="1.73504">
        <ele>133</ele>
        <time>2026-01-31T12:49:40Z</time>
      </trkpt>
      <trkpt lat="48.71717" lon="1.73504">
        <ele>132.8</ele>
        <time>2026-01-31T12:49:41Z</time>
      </trkpt>
      <trkpt lat="48.71714" lon="1.73505">
        <ele>132.8</ele>
        <time>2026-01-31T12:49:42Z</time>
      </trkpt>
      <trkpt lat="48.7171" lon="1.73506">
        <ele>132.8</ele>
        <time>2026-01-31T12:49:43Z</time>
      </trkpt>
      <trkpt lat="48.71707" lon="1.73506">
        <ele>132.8</ele>
        <time>2026-01-31T12:49:44Z</time>
      </trkpt>
      <trkpt lat="48.71703" lon="1.73506">
        <ele>132.8</ele>
        <time>2026-01-31T12:49:45Z</time>
      </trkpt>
      <trkpt lat="48.71699" lon="1.73507">
        <ele>132.8</ele>
        <time>2026-01-31T12:49:46Z</time>
      </trkpt>
      <trkpt lat="48.71694" lon="1.73508">
        <ele>132.8</ele>
        <time>2026-01-31T12:49:47Z</time>
      </trkpt>
      <trkpt lat="48.7169" lon="1.73509">
        <ele>132.6</ele>
        <time>2026-01-31T12:49:48Z</time>
      </trkpt>
      <trkpt lat="48.71685" lon="1.7351">
        <ele>132.6</ele>
        <time>2026-01-31T12:49:49Z</time>
      </trkpt>
      <trkpt lat="48.71681" lon="1.73511">
        <ele>132.6</ele>
        <time>2026-01-31T12:49:50Z</time>
      </trkpt>
      <trkpt lat="48.71676" lon="1.73512">
        <ele>132.6</ele>
        <time>2026-01-31T12:49:51Z</time>
      </trkpt>
      <trkpt lat="48.71673" lon="1.73513">
        <ele>132.8</ele>
        <time>2026-01-31T12:49:52Z</time>
      </trkpt>
      <trkpt lat="48.71668" lon="1.73514">
        <ele>132.8</ele>
        <time>2026-01-31T12:49:53Z</time>
      </trkpt>
      <trkpt lat="48.71665" lon="1.73515">
        <ele>132.8</ele>
        <time>2026-01-31T12:49:54Z</time>
      </trkpt>
      <trkpt lat="48.7166" lon="1.73516">
        <ele>132.8</ele>
        <time>2026-01-31T12:49:55Z</time>
      </trkpt>
      <trkpt lat="48.71656" lon="1.73516">
        <ele>132.8</ele>
        <time>2026-01-31T12:49:56Z</time>
      </trkpt>
      <trkpt lat="48.71652" lon="1.73517">
        <ele>132.8</ele>
        <time>2026-01-31T12:49:57Z</time>
      </trkpt>
      <trkpt lat="48.71647" lon="1.73518">
        <ele>132.8</ele>
        <time>2026-01-31T12:49:58Z</time>
      </trkpt>
      <trkpt lat="48.71642" lon="1.73519">
        <ele>132.8</ele>
        <time>2026-01-31T12:49:59Z</time>
      </trkpt>
      <trkpt lat="48.71638" lon="1.7352">
        <ele>132.8</ele>
        <time>2026-01-31T12:50:00Z</time>
      </trkpt>
      <trkpt lat="48.71633" lon="1.73521">
        <ele>132.8</ele>
        <time>2026-01-31T12:50:01Z</time>
      </trkpt>
      <trkpt lat="48.71629" lon="1.73522">
        <ele>132.8</ele>
        <time>2026-01-31T12:50:02Z</time>
      </trkpt>
      <trkpt lat="48.71624" lon="1.73524">
        <ele>132.8</ele>
        <time>2026-01-31T12:50:03Z</time>
      </trkpt>
      <trkpt lat="48.7162" lon="1.73525">
        <ele>132.8</ele>
        <time>2026-01-31T12:50:04Z</time>
      </trkpt>
      <trkpt lat="48.71616" lon="1.73526">
        <ele>132.8</ele>
        <time>2026-01-31T12:50:05Z</time>
      </trkpt>
      <trkpt lat="48.71611" lon="1.73527">
        <ele>132.8</ele>
        <time>2026-01-31T12:50:06Z</time>
      </trkpt>
      <trkpt lat="48.71606" lon="1.73528">
        <ele>133</ele>
        <time>2026-01-31T12:50:07Z</time>
      </trkpt>
      <trkpt lat="48.71601" lon="1.73529">
        <ele>133</ele>
        <time>2026-01-31T12:50:08Z</time>
      </trkpt>
      <trkpt lat="48.71596" lon="1.73529">
        <ele>133</ele>
        <time>2026-01-31T12:50:09Z</time>
      </trkpt>
      <trkpt lat="48.71589" lon="1.7353">
        <ele>133</ele>
        <time>2026-01-31T12:50:10Z</time>
      </trkpt>
      <trkpt lat="48.71584" lon="1.73531">
        <ele>133</ele>
        <time>2026-01-31T12:50:11Z</time>
      </trkpt>
      <trkpt lat="48.71578" lon="1.73532">
        <ele>133</ele>
        <time>2026-01-31T12:50:12Z</time>
      </trkpt>
      <trkpt lat="48.71572" lon="1.73533">
        <ele>133.2</ele>
        <time>2026-01-31T12:50:13Z</time>
      </trkpt>
      <trkpt lat="48.71567" lon="1.73534">
        <ele>133.2</ele>
        <time>2026-01-31T12:50:14Z</time>
      </trkpt>
      <trkpt lat="48.71561" lon="1.73535">
        <ele>133.2</ele>
        <time>2026-01-31T12:50:15Z</time>
      </trkpt>
      <trkpt lat="48.71555" lon="1.73536">
        <ele>133.2</ele>
        <time>2026-01-31T12:50:16Z</time>
      </trkpt>
      <trkpt lat="48.71549" lon="1.73537">
        <ele>133.4</ele>
        <time>2026-01-31T12:50:17Z</time>
      </trkpt>
      <trkpt lat="48.71543" lon="1.73538">
        <ele>133.4</ele>
        <time>2026-01-31T12:50:18Z</time>
      </trkpt>
      <trkpt lat="48.71537" lon="1.7354">
        <ele>133.4</ele>
        <time>2026-01-31T12:50:19Z</time>
      </trkpt>
      <trkpt lat="48.71531" lon="1.73541">
        <ele>133.6</ele>
        <time>2026-01-31T12:50:20Z</time>
      </trkpt>
      <trkpt lat="48.71524" lon="1.73542">
        <ele>133.6</ele>
        <time>2026-01-31T12:50:21Z</time>
      </trkpt>
      <trkpt lat="48.71517" lon="1.73543">
        <ele>133.8</ele>
        <time>2026-01-31T12:50:22Z</time>
      </trkpt>
      <trkpt lat="48.7151" lon="1.73544">
        <ele>133.8</ele>
        <time>2026-01-31T12:50:23Z</time>
      </trkpt>
      <trkpt lat="48.71503" lon="1.73545">
        <ele>133.8</ele>
        <time>2026-01-31T12:50:24Z</time>
      </trkpt>
      <trkpt lat="48.71497" lon="1.73547">
        <ele>134</ele>
        <time>2026-01-31T12:50:25Z</time>
      </trkpt>
      <trkpt lat="48.7149" lon="1.73548">
        <ele>134.2</ele>
        <time>2026-01-31T12:50:26Z</time>
      </trkpt>
      <trkpt lat="48.71483" lon="1.7355">
        <ele>134.4</ele>
        <time>2026-01-31T12:50:27Z</time>
      </trkpt>
      <trkpt lat="48.71476" lon="1.73552">
        <ele>134.4</ele>
        <time>2026-01-31T12:50:28Z</time>
      </trkpt>
      <trkpt lat="48.7147" lon="1.73554">
        <ele>134.6</ele>
        <time>2026-01-31T12:50:29Z</time>
      </trkpt>
      <trkpt lat="48.71464" lon="1.73556">
        <ele>134.8</ele>
        <time>2026-01-31T12:50:30Z</time>
      </trkpt>
      <trkpt lat="48.71459" lon="1.73558">
        <ele>135</ele>
        <time>2026-01-31T12:50:31Z</time>
      </trkpt>
      <trkpt lat="48.71454" lon="1.7356">
        <ele>135.2</ele>
        <time>2026-01-31T12:50:32Z</time>
      </trkpt>
      <trkpt lat="48.71449" lon="1.73561">
        <ele>135.4</ele>
        <time>2026-01-31T12:50:33Z</time>
      </trkpt>
      <trkpt lat="48.71444" lon="1.73563">
        <ele>135.6</ele>
        <time>2026-01-31T12:50:34Z</time>
      </trkpt>
      <trkpt lat="48.71439" lon="1.73564">
        <ele>135.8</ele>
        <time>2026-01-31T12:50:35Z</time>
      </trkpt>
      <trkpt lat="48.71435" lon="1.73565">
        <ele>135.8</ele>
        <time>2026-01-31T12:50:36Z</time>
      </trkpt>
      <trkpt lat="48.71429" lon="1.73566">
        <ele>136</ele>
        <time>2026-01-31T12:50:37Z</time>
      </trkpt>
      <trkpt lat="48.71424" lon="1.73567">
        <ele>136.2</ele>
        <time>2026-01-31T12:50:38Z</time>
      </trkpt>
      <trkpt lat="48.71419" lon="1.73568">
        <ele>136.4</ele>
        <time>2026-01-31T12:50:39Z</time>
      </trkpt>
      <trkpt lat="48.71413" lon="1.73569">
        <ele>136.6</ele>
        <time>2026-01-31T12:50:40Z</time>
      </trkpt>
      <trkpt lat="48.71408" lon="1.73569">
        <ele>136.8</ele>
        <time>2026-01-31T12:50:41Z</time>
      </trkpt>
      <trkpt lat="48.71404" lon="1.73568">
        <ele>137</ele>
        <time>2026-01-31T12:50:42Z</time>
      </trkpt>
      <trkpt lat="48.714" lon="1.73567">
        <ele>137.2</ele>
        <time>2026-01-31T12:50:43Z</time>
      </trkpt>
      <trkpt lat="48.71396" lon="1.73566">
        <ele>137.4</ele>
        <time>2026-01-31T12:50:44Z</time>
      </trkpt>
      <trkpt lat="48.71392" lon="1.73564">
        <ele>137.6</ele>
        <time>2026-01-31T12:50:45Z</time>
      </trkpt>
      <trkpt lat="48.71388" lon="1.73562">
        <ele>137.8</ele>
        <time>2026-01-31T12:50:46Z</time>
      </trkpt>
      <trkpt lat="48.71385" lon="1.7356">
        <ele>138</ele>
        <time>2026-01-31T12:50:47Z</time>
      </trkpt>
      <trkpt lat="48.71382" lon="1.73557">
        <ele>138.2</ele>
        <time>2026-01-31T12:50:48Z</time>
      </trkpt>
      <trkpt lat="48.7138" lon="1.73555">
        <ele>138.4</ele>
        <time>2026-01-31T12:50:49Z</time>
      </trkpt>
      <trkpt lat="48.71377" lon="1.73553">
        <ele>138.6</ele>
        <time>2026-01-31T12:50:50Z</time>
      </trkpt>
      <trkpt lat="48.71374" lon="1.7355">
        <ele>138.8</ele>
        <time>2026-01-31T12:50:51Z</time>
      </trkpt>
      <trkpt lat="48.71372" lon="1.73548">
        <ele>139</ele>
        <time>2026-01-31T12:50:52Z</time>
      </trkpt>
      <trkpt lat="48.71369" lon="1.73545">
        <ele>139.2</ele>
        <time>2026-01-31T12:50:53Z</time>
      </trkpt>
      <trkpt lat="48.71366" lon="1.73542">
        <ele>139.4</ele>
        <time>2026-01-31T12:50:54Z</time>
      </trkpt>
      <trkpt lat="48.71364" lon="1.73539">
        <ele>139.6</ele>
        <time>2026-01-31T12:50:55Z</time>
      </trkpt>
      <trkpt lat="48.71362" lon="1.73536">
        <ele>139.8</ele>
        <time>2026-01-31T12:50:56Z</time>
      </trkpt>
      <trkpt lat="48.7136" lon="1.73534">
        <ele>140</ele>
        <time>2026-01-31T12:50:57Z</time>
      </trkpt>
      <trkpt lat="48.71358" lon="1.73532">
        <ele>140.2</ele>
        <time>2026-01-31T12:50:58Z</time>
      </trkpt>
      <trkpt lat="48.71356" lon="1.73529">
        <ele>140.4</ele>
        <time>2026-01-31T12:50:59Z</time>
      </trkpt>
      <trkpt lat="48.71355" lon="1.73527">
        <ele>140.6</ele>
        <time>2026-01-31T12:51:00Z</time>
      </trkpt>
      <trkpt lat="48.71352" lon="1.73524">
        <ele>141</ele>
        <time>2026-01-31T12:51:02Z</time>
      </trkpt>
      <trkpt lat="48.7135" lon="1.73523">
        <ele>141.6</ele>
        <time>2026-01-31T12:51:04Z</time>
      </trkpt>
      <trkpt lat="48.71348" lon="1.73523">
        <ele>142</ele>
        <time>2026-01-31T12:51:06Z</time>
      </trkpt>
      <trkpt lat="48.71346" lon="1.73524">
        <ele>142.4</ele>
        <time>2026-01-31T12:51:07Z</time>
      </trkpt>
      <trkpt lat="48.71344" lon="1.73525">
        <ele>142.6</ele>
        <time>2026-01-31T12:51:08Z</time>
      </trkpt>
      <trkpt lat="48.71341" lon="1.73527">
        <ele>143</ele>
        <time>2026-01-31T12:51:09Z</time>
      </trkpt>
      <trkpt lat="48.71338" lon="1.73529">
        <ele>143.2</ele>
        <time>2026-01-31T12:51:10Z</time>
      </trkpt>
      <trkpt lat="48.71335" lon="1.73531">
        <ele>143.6</ele>
        <time>2026-01-31T12:51:11Z</time>
      </trkpt>
      <trkpt lat="48.71332" lon="1.73533">
        <ele>143.8</ele>
        <time>2026-01-31T12:51:12Z</time>
      </trkpt>
      <trkpt lat="48.7133" lon="1.73536">
        <ele>144.2</ele>
        <time>2026-01-31T12:51:13Z</time>
      </trkpt>
      <trkpt lat="48.71327" lon="1.73539">
        <ele>144.4</ele>
        <time>2026-01-31T12:51:14Z</time>
      </trkpt>
      <trkpt lat="48.71325" lon="1.73543">
        <ele>144.8</ele>
        <time>2026-01-31T12:51:15Z</time>
      </trkpt>
      <trkpt lat="48.71323" lon="1.73547">
        <ele>145.2</ele>
        <time>2026-01-31T12:51:16Z</time>
      </trkpt>
      <trkpt lat="48.71321" lon="1.7355">
        <ele>145.4</ele>
        <time>2026-01-31T12:51:17Z</time>
      </trkpt>
      <trkpt lat="48.71319" lon="1.73555">
        <ele>145.8</ele>
        <time>2026-01-31T12:51:18Z</time>
      </trkpt>
      <trkpt lat="48.71317" lon="1.73559">
        <ele>146.2</ele>
        <time>2026-01-31T12:51:19Z</time>
      </trkpt>
      <trkpt lat="48.71315" lon="1.73563">
        <ele>146.4</ele>
        <time>2026-01-31T12:51:20Z</time>
      </trkpt>
      <trkpt lat="48.71313" lon="1.73567">
        <ele>146.8</ele>
        <time>2026-01-31T12:51:21Z</time>
      </trkpt>
      <trkpt lat="48.7131" lon="1.73572">
        <ele>147.2</ele>
        <time>2026-01-31T12:51:22Z</time>
      </trkpt>
      <trkpt lat="48.71307" lon="1.73576">
        <ele>147.6</ele>
        <time>2026-01-31T12:51:23Z</time>
      </trkpt>
      <trkpt lat="48.71304" lon="1.7358">
        <ele>147.8</ele>
        <time>2026-01-31T12:51:24Z</time>
      </trkpt>
      <trkpt lat="48.713" lon="1.73584">
        <ele>148.2</ele>
        <time>2026-01-31T12:51:25Z</time>
      </trkpt>
      <trkpt lat="48.71297" lon="1.73588">
        <ele>148.6</ele>
        <time>2026-01-31T12:51:26Z</time>
      </trkpt>
      <trkpt lat="48.71294" lon="1.73591">
        <ele>149</ele>
        <time>2026-01-31T12:51:27Z</time>
      </trkpt>
      <trkpt lat="48.71291" lon="1.73594">
        <ele>149.4</ele>
        <time>2026-01-31T12:51:28Z</time>
      </trkpt>
      <trkpt lat="48.71288" lon="1.73597">
        <ele>149.8</ele>
        <time>2026-01-31T12:51:29Z</time>
      </trkpt>
      <trkpt lat="48.71284" lon="1.73599">
        <ele>150.2</ele>
        <time>2026-01-31T12:51:30Z</time>
      </trkpt>
      <trkpt lat="48.71281" lon="1.73601">
        <ele>150.6</ele>
        <time>2026-01-31T12:51:31Z</time>
      </trkpt>
      <trkpt lat="48.71277" lon="1.73603">
        <ele>151</ele>
        <time>2026-01-31T12:51:32Z</time>
      </trkpt>
      <trkpt lat="48.71274" lon="1.73604">
        <ele>151.4</ele>
        <time>2026-01-31T12:51:33Z</time>
      </trkpt>
      <trkpt lat="48.71271" lon="1.73605">
        <ele>151.8</ele>
        <time>2026-01-31T12:51:34Z</time>
      </trkpt>
      <trkpt lat="48.71268" lon="1.73606">
        <ele>152.2</ele>
        <time>2026-01-31T12:51:35Z</time>
      </trkpt>
      <trkpt lat="48.71265" lon="1.73607">
        <ele>152.4</ele>
        <time>2026-01-31T12:51:36Z</time>
      </trkpt>
      <trkpt lat="48.71263" lon="1.73608">
        <ele>152.8</ele>
        <time>2026-01-31T12:51:37Z</time>
      </trkpt>
      <trkpt lat="48.7126" lon="1.73609">
        <ele>153.2</ele>
        <time>2026-01-31T12:51:38Z</time>
      </trkpt>
      <trkpt lat="48.71258" lon="1.7361">
        <ele>153.6</ele>
        <time>2026-01-31T12:51:39Z</time>
        <extensions>
          <gpxtpx:TrackPointExtension xmlns:gpxtpx="http://www.garmin.com/xmlschemas/TrackPointExtension/v1">
            <gpxtpx:hr>112</gpxtpx:hr>
          </gpxtpx:TrackPointExtension>
        </extensions>
      </trkpt>
      <trkpt lat="48.71256" lon="1.7361">
        <ele>153.8</ele>
        <time>2026-01-31T12:51:40Z</time>
        <extensions>
          <gpxtpx:TrackPointExtension xmlns:gpxtpx="http://www.garmin.com/xmlschemas/TrackPointExtension/v1">
            <gpxtpx:hr>112</gpxtpx:hr>
          </gpxtpx:TrackPointExtension>
        </extensions>
      </trkpt>
      <trkpt lat="48.71254" lon="1.73611">
        <ele>154.2</ele>
        <time>2026-01-31T12:51:41Z</time>
        <extensions>
          <gpxtpx:TrackPointExtension xmlns:gpxtpx="http://www.garmin.com/xmlschemas/TrackPointExtension/v1">
            <gpxtpx:hr>112</gpxtpx:hr>
          </gpxtpx:TrackPointExtension>
        </extensions>
      </trkpt>
      <trkpt lat="48.71251" lon="1.73611">
        <ele>154.8</ele>
        <time>2026-01-31T12:51:43Z</time>
        <extensions>
          <gpxtpx:TrackPointExtension xmlns:gpxtpx="http://www.garmin.com/xmlschemas/TrackPointExtension/v1">
            <gpxtpx:hr>112</gpxtpx:hr>
          </gpxtpx:TrackPointExtension>
        </extensions>
      </trkpt>
      <trkpt lat="48.71249" lon="1.73611">
        <ele>155.4</ele>
        <time>2026-01-31T12:51:45Z</time>
        <extensions>
          <gpxtpx:TrackPointExtension xmlns:gpxtpx="http://www.garmin.com/xmlschemas/TrackPointExtension/v1">
            <gpxtpx:hr>111</gpxtpx:hr>
          </gpxtpx:TrackPointExtension>
        </extensions>
      </trkpt>
      <trkpt lat="48.71246" lon="1.7361">
        <ele>156</ele>
        <time>2026-01-31T12:51:47Z</time>
        <extensions>
          <gpxtpx:TrackPointExtension xmlns:gpxtpx="http://www.garmin.com/xmlschemas/TrackPointExtension/v1">
            <gpxtpx:hr>111</gpxtpx:hr>
          </gpxtpx:TrackPointExtension>
        </extensions>
      </trkpt>
      <trkpt lat="48.71243" lon="1.73609">
        <ele>156.4</ele>
        <time>2026-01-31T12:51:49Z</time>
        <extensions>
          <gpxtpx:TrackPointExtension xmlns:gpxtpx="http://www.garmin.com/xmlschemas/TrackPointExtension/v1">
            <gpxtpx:hr>111</gpxtpx:hr>
          </gpxtpx:TrackPointExtension>
        </extensions>
      </trkpt>
      <trkpt lat="48.7124" lon="1.73608">
        <ele>157</ele>
        <time>2026-01-31T12:51:51Z</time>
        <extensions>
          <gpxtpx:TrackPointExtension xmlns:gpxtpx="http://www.garmin.com/xmlschemas/TrackPointExtension/v1">
            <gpxtpx:hr>110</gpxtpx:hr>
          </gpxtpx:TrackPointExtension>
        </extensions>
      </trkpt>
      <trkpt lat="48.71237" lon="1.73609">
        <ele>157.4</ele>
        <time>2026-01-31T12:51:53Z</time>
        <extensions>
          <gpxtpx:TrackPointExtension xmlns:gpxtpx="http://www.garmin.com/xmlschemas/TrackPointExtension/v1">
            <gpxtpx:hr>110</gpxtpx:hr>
          </gpxtpx:TrackPointExtension>
        </extensions>
      </trkpt>
      <trkpt lat="48.71235" lon="1.7361">
        <ele>157.8</ele>
        <time>2026-01-31T12:51:55Z</time>
        <extensions>
          <gpxtpx:TrackPointExtension xmlns:gpxtpx="http://www.garmin.com/xmlschemas/TrackPointExtension/v1">
            <gpxtpx:hr>109</gpxtpx:hr>
          </gpxtpx:TrackPointExtension>
        </extensions>
      </trkpt>
      <trkpt lat="48.71232" lon="1.73609">
        <ele>158.4</ele>
        <time>2026-01-31T12:51:58Z</time>
        <extensions>
          <gpxtpx:TrackPointExtension xmlns:gpxtpx="http://www.garmin.com/xmlschemas/TrackPointExtension/v1">
            <gpxtpx:hr>107</gpxtpx:hr>
          </gpxtpx:TrackPointExtension>
        </extensions>
      </trkpt>
      <trkpt lat="48.7123" lon="1.73609">
        <ele>158.8</ele>
        <time>2026-01-31T12:52:00Z</time>
        <extensions>
          <gpxtpx:TrackPointExtension xmlns:gpxtpx="http://www.garmin.com/xmlschemas/TrackPointExtension/v1">
            <gpxtpx:hr>107</gpxtpx:hr>
          </gpxtpx:TrackPointExtension>
        </extensions>
      </trkpt>
      <trkpt lat="48.71228" lon="1.73609">
        <ele>159.2</ele>
        <time>2026-01-31T12:52:02Z</time>
        <extensions>
          <gpxtpx:TrackPointExtension xmlns:gpxtpx="http://www.garmin.com/xmlschemas/TrackPointExtension/v1">
            <gpxtpx:hr>106</gpxtpx:hr>
          </gpxtpx:TrackPointExtension>
        </extensions>
      </trkpt>
      <trkpt lat="48.71226" lon="1.73608">
        <ele>159.6</ele>
        <time>2026-01-31T12:52:04Z</time>
        <extensions>
          <gpxtpx:TrackPointExtension xmlns:gpxtpx="http://www.garmin.com/xmlschemas/TrackPointExtension/v1">
            <gpxtpx:hr>103</gpxtpx:hr>
          </gpxtpx:TrackPointExtension>
        </extensions>
      </trkpt>
      <trkpt lat="48.71225" lon="1.73606">
        <ele>160</ele>
        <time>2026-01-31T12:52:06Z</time>
        <extensions>
          <gpxtpx:TrackPointExtension xmlns:gpxtpx="http://www.garmin.com/xmlschemas/TrackPointExtension/v1">
            <gpxtpx:hr>100</gpxtpx:hr>
          </gpxtpx:TrackPointExtension>
        </extensions>
      </trkpt>
      <trkpt lat="48.71223" lon="1.73604">
        <ele>160.6</ele>
        <time>2026-01-31T12:52:09Z</time>
        <extensions>
          <gpxtpx:TrackPointExtension xmlns:gpxtpx="http://www.garmin.com/xmlschemas/TrackPointExtension/v1">
            <gpxtpx:hr>96</gpxtpx:hr>
          </gpxtpx:TrackPointExtension>
        </extensions>
      </trkpt>
      <trkpt lat="48.71221" lon="1.73602">
        <ele>161.2</ele>
        <time>2026-01-31T12:52:12Z</time>
        <extensions>
          <gpxtpx:TrackPointExtension xmlns:gpxtpx="http://www.garmin.com/xmlschemas/TrackPointExtension/v1">
            <gpxtpx:hr>95</gpxtpx:hr>
          </gpxtpx:TrackPointExtension>
        </extensions>
      </trkpt>
      <trkpt lat="48.71219" lon="1.73601">
        <ele>161.6</ele>
        <time>2026-01-31T12:52:14Z</time>
        <extensions>
          <gpxtpx:TrackPointExtension xmlns:gpxtpx="http://www.garmin.com/xmlschemas/TrackPointExtension/v1">
            <gpxtpx:hr>95</gpxtpx:hr>
          </gpxtpx:TrackPointExtension>
        </extensions>
      </trkpt>
      <trkpt lat="48.71215" lon="1.73599">
        <ele>162</ele>
        <time>2026-01-31T12:52:16Z</time>
        <extensions>
          <gpxtpx:TrackPointExtension xmlns:gpxtpx="http://www.garmin.com/xmlschemas/TrackPointExtension/v1">
            <gpxtpx:hr>95</gpxtpx:hr>
          </gpxtpx:TrackPointExtension>
        </extensions>
      </trkpt>
      <trkpt lat="48.71212" lon="1.73598">
        <ele>162.2</ele>
        <time>2026-01-31T12:52:18Z</time>
        <extensions>
          <gpxtpx:TrackPointExtension xmlns:gpxtpx="http://www.garmin.com/xmlschemas/TrackPointExtension/v1">
            <gpxtpx:hr>96</gpxtpx:hr>
          </gpxtpx:TrackPointExtension>
        </extensions>
      </trkpt>
      <trkpt lat="48.7121" lon="1.73597">
        <ele>162.4</ele>
        <time>2026-01-31T12:52:19Z</time>
        <extensions>
          <gpxtpx:TrackPointExtension xmlns:gpxtpx="http://www.garmin.com/xmlschemas/TrackPointExtension/v1">
            <gpxtpx:hr>97</gpxtpx:hr>
          </gpxtpx:TrackPointExtension>
        </extensions>
      </trkpt>
      <trkpt lat="48.71206" lon="1.73595">
        <ele>162.8</ele>
        <time>2026-01-31T12:52:21Z</time>
        <extensions>
          <gpxtpx:TrackPointExtension xmlns:gpxtpx="http://www.garmin.com/xmlschemas/TrackPointExtension/v1">
            <gpxtpx:hr>99</gpxtpx:hr>
          </gpxtpx:TrackPointExtension>
        </extensions>
      </trkpt>
      <trkpt lat="48.71205" lon="1.73594">
        <ele>163</ele>
        <time>2026-01-31T12:52:22Z</time>
        <extensions>
          <gpxtpx:TrackPointExtension xmlns:gpxtpx="http://www.garmin.com/xmlschemas/TrackPointExtension/v1">
            <gpxtpx:hr>101</gpxtpx:hr>
          </gpxtpx:TrackPointExtension>
        </extensions>
      </trkpt>
      <trkpt lat="48.71203" lon="1.73592">
        <ele>163.2</ele>
        <time>2026-01-31T12:52:23Z</time>
        <extensions>
          <gpxtpx:TrackPointExtension xmlns:gpxtpx="http://www.garmin.com/xmlschemas/TrackPointExtension/v1">
            <gpxtpx:hr>102</gpxtpx:hr>
          </gpxtpx:TrackPointExtension>
        </extensions>
      </trkpt>
      <trkpt lat="48.71201" lon="1.73589">
        <ele>163.6</ele>
        <time>2026-01-31T12:52:25Z</time>
        <extensions>
          <gpxtpx:TrackPointExtension xmlns:gpxtpx="http://www.garmin.com/xmlschemas/TrackPointExtension/v1">
            <gpxtpx:hr>104</gpxtpx:hr>
          </gpxtpx:TrackPointExtension>
        </extensions>
      </trkpt>
      <trkpt lat="48.712" lon="1.73585">
        <ele>164</ele>
        <time>2026-01-31T12:52:27Z</time>
        <extensions>
          <gpxtpx:TrackPointExtension xmlns:gpxtpx="http://www.garmin.com/xmlschemas/TrackPointExtension/v1">
            <gpxtpx:hr>104</gpxtpx:hr>
          </gpxtpx:TrackPointExtension>
        </extensions>
      </trkpt>
      <trkpt lat="48.71198" lon="1.73581">
        <ele>164.4</ele>
        <time>2026-01-31T12:52:29Z</time>
        <extensions>
          <gpxtpx:TrackPointExtension xmlns:gpxtpx="http://www.garmin.com/xmlschemas/TrackPointExtension/v1">
            <gpxtpx:hr>104</gpxtpx:hr>
          </gpxtpx:TrackPointExtension>
        </extensions>
      </trkpt>
      <trkpt lat="48.71197" lon="1.73577">
        <ele>164.8</ele>
        <time>2026-01-31T12:52:31Z</time>
        <extensions>
          <gpxtpx:TrackPointExtension xmlns:gpxtpx="http://www.garmin.com/xmlschemas/TrackPointExtension/v1">
            <gpxtpx:hr>104</gpxtpx:hr>
          </gpxtpx:TrackPointExtension>
        </extensions>
      </trkpt>
      <trkpt lat="48.71196" lon="1.73574">
        <ele>165.2</ele>
        <time>2026-01-31T12:52:33Z</time>
        <extensions>
          <gpxtpx:TrackPointExtension xmlns:gpxtpx="http://www.garmin.com/xmlschemas/TrackPointExtension/v1">
            <gpxtpx:hr>104</gpxtpx:hr>
          </gpxtpx:TrackPointExtension>
        </extensions>
      </trkpt>
      <trkpt lat="48.71196" lon="1.73571">
        <ele>165.4</ele>
        <time>2026-01-31T12:52:35Z</time>
        <extensions>
          <gpxtpx:TrackPointExtension xmlns:gpxtpx="http://www.garmin.com/xmlschemas/TrackPointExtension/v1">
            <gpxtpx:hr>104</gpxtpx:hr>
          </gpxtpx:TrackPointExtension>
        </extensions>
      </trkpt>
      <trkpt lat="48.71194" lon="1.73567">
        <ele>165.8</ele>
        <time>2026-01-31T12:52:37Z</time>
        <extensions>
          <gpxtpx:TrackPointExtension xmlns:gpxtpx="http://www.garmin.com/xmlschemas/TrackPointExtension/v1">
            <gpxtpx:hr>104</gpxtpx:hr>
          </gpxtpx:TrackPointExtension>
        </extensions>
      </trkpt>
      <trkpt lat="48.71193" lon="1.73565">
        <ele>166.2</ele>
        <time>2026-01-31T12:52:39Z</time>
        <extensions>
          <gpxtpx:TrackPointExtension xmlns:gpxtpx="http://www.garmin.com/xmlschemas/TrackPointExtension/v1">
            <gpxtpx:hr>104</gpxtpx:hr>
          </gpxtpx:TrackPointExtension>
        </extensions>
      </trkpt>
      <trkpt lat="48.71191" lon="1.73562">
        <ele>166.4</ele>
        <time>2026-01-31T12:52:41Z</time>
        <extensions>
          <gpxtpx:TrackPointExtension xmlns:gpxtpx="http://www.garmin.com/xmlschemas/TrackPointExtension/v1">
            <gpxtpx:hr>104</gpxtpx:hr>
          </gpxtpx:TrackPointExtension>
        </extensions>
      </trkpt>
      <trkpt lat="48.71189" lon="1.73559">
        <ele>166.8</ele>
        <time>2026-01-31T12:52:43Z</time>
      </trkpt>
      <trkpt lat="48.71187" lon="1.73556">
        <ele>167.2</ele>
        <time>2026-01-31T12:52:45Z</time>
      </trkpt>
      <trkpt lat="48.71185" lon="1.73552">
        <ele>167.4</ele>
        <time>2026-01-31T12:52:47Z</time>
      </trkpt>
      <trkpt lat="48.71184" lon="1.73548">
        <ele>167.8</ele>
        <time>2026-01-31T12:52:49Z</time>
      </trkpt>
      <trkpt lat="48.71183" lon="1.73544">
        <ele>168</ele>
        <time>2026-01-31T12:52:51Z</time>
      </trkpt>
      <trkpt lat="48.71181" lon="1.7354">
        <ele>168.2</ele>
        <time>2026-01-31T12:52:53Z</time>
      </trkpt>
      <trkpt lat="48.7118" lon="1.73536">
        <ele>168.4</ele>
        <time>2026-01-31T12:52:55Z</time>
      </trkpt>
      <trkpt lat="48.71179" lon="1.73533">
        <ele>168.8</ele>
        <time>2026-01-31T12:52:57Z</time>
      </trkpt>
      <trkpt lat="48.71177" lon="1.73529">
        <ele>169</ele>
        <time>2026-01-31T12:52:59Z</time>
      </trkpt>
      <trkpt lat="48.71175" lon="1.73525">
        <ele>169.2</ele>
        <time>2026-01-31T12:53:01Z</time>
      </trkpt>
      <trkpt lat="48.71173" lon="1.73521">
        <ele>169.4</ele>
        <time>2026-01-31T12:53:03Z</time>
      </trkpt>
      <trkpt lat="48.71172" lon="1.73517">
        <ele>169.4</ele>
        <time>2026-01-31T12:53:05Z</time>
      </trkpt>
      <trkpt lat="48.71171" lon="1.73513">
        <ele>169.6</ele>
        <time>2026-01-31T12:53:07Z</time>
      </trkpt>
      <trkpt lat="48.71169" lon="1.73509">
        <ele>170</ele>
        <time>2026-01-31T12:53:09Z</time>
      </trkpt>
      <trkpt lat="48.71169" lon="1.73505">
        <ele>170</ele>
        <time>2026-01-31T12:53:11Z</time>
      </trkpt>
      <trkpt lat="48.71167" lon="1.73501">
        <ele>170.2</ele>
        <time>2026-01-31T12:53:13Z</time>
      </trkpt>
      <trkpt lat="48.71166" lon="1.73497">
        <ele>170.4</ele>
        <time>2026-01-31T12:53:15Z</time>
      </trkpt>
      <trkpt lat="48.71164" lon="1.73494">
        <ele>170.4</ele>
        <time>2026-01-31T12:53:17Z</time>
      </trkpt>
      <trkpt lat="48.71162" lon="1.7349">
        <ele>170.6</ele>
        <time>2026-01-31T12:53:19Z</time>
      </trkpt>
      <trkpt lat="48.71161" lon="1.73487">
        <ele>170.6</ele>
        <time>2026-01-31T12:53:21Z</time>
      </trkpt>
      <trkpt lat="48.71159" lon="1.73483">
        <ele>170.8</ele>
        <time>2026-01-31T12:53:23Z</time>
      </trkpt>
      <trkpt lat="48.71159" lon="1.73479">
        <ele>170.8</ele>
        <time>2026-01-31T12:53:25Z</time>
      </trkpt>
      <trkpt lat="48.71157" lon="1.73476">
        <ele>170.8</ele>
        <time>2026-01-31T12:53:27Z</time>
      </trkpt>
      <trkpt lat="48.71156" lon="1.73472">
        <ele>171</ele>
        <time>2026-01-31T12:53:29Z</time>
      </trkpt>
      <trkpt lat="48.71155" lon="1.73467">
        <ele>171</ele>
        <time>2026-01-31T12:53:31Z</time>
      </trkpt>
      <trkpt lat="48.71154" lon="1.73464">
        <ele>171</ele>
        <time>2026-01-31T12:53:32Z</time>
      </trkpt>
      <trkpt lat="48.71153" lon="1.73461">
        <ele>171</ele>
        <time>2026-01-31T12:53:33Z</time>
      </trkpt>
      <trkpt lat="48.71151" lon="1.73459">
        <ele>171</ele>
        <time>2026-01-31T12:53:34Z</time>
      </trkpt>
      <trkpt lat="48.7115" lon="1.73456">
        <ele>171</ele>
        <time>2026-01-31T12:53:35Z</time>
      </trkpt>
      <trkpt lat="48.71148" lon="1.73451">
        <ele>170.8</ele>
        <time>2026-01-31T12:53:37Z</time>
      </trkpt>
      <trkpt lat="48.71146" lon="1.73447">
        <ele>170.8</ele>
        <time>2026-01-31T12:53:39Z</time>
      </trkpt>
      <trkpt lat="48.71145" lon="1.73443">
        <ele>171</ele>
        <time>2026-01-31T12:53:41Z</time>
      </trkpt>
      <trkpt lat="48.71143" lon="1.7344">
        <ele>171</ele>
        <time>2026-01-31T12:53:43Z</time>
      </trkpt>
      <trkpt lat="48.71142" lon="1.73436">
        <ele>171</ele>
        <time>2026-01-31T12:53:45Z</time>
      </trkpt>
      <trkpt lat="48.71141" lon="1.73431">
        <ele>171</ele>
        <time>2026-01-31T12:53:47Z</time>
      </trkpt>
      <trkpt lat="48.7114" lon="1.73426">
        <ele>171.2</ele>
        <time>2026-01-31T12:53:49Z</time>
      </trkpt>
      <trkpt lat="48.71139" lon="1.73423">
        <ele>171.2</ele>
        <time>2026-01-31T12:53:50Z</time>
      </trkpt>
      <trkpt lat="48.71138" lon="1.73421">
        <ele>171.2</ele>
        <time>2026-01-31T12:53:51Z</time>
      </trkpt>
      <trkpt lat="48.71136" lon="1.73416">
        <ele>171.2</ele>
        <time>2026-01-31T12:53:53Z</time>
      </trkpt>
      <trkpt lat="48.71135" lon="1.73411">
        <ele>171.2</ele>
        <time>2026-01-31T12:53:55Z</time>
      </trkpt>
      <trkpt lat="48.71134" lon="1.73407">
        <ele>171.2</ele>
        <time>2026-01-31T12:53:57Z</time>
      </trkpt>
      <trkpt lat="48.71133" lon="1.73403">
        <ele>171.2</ele>
        <time>2026-01-31T12:53:59Z</time>
      </trkpt>
      <trkpt lat="48.71132" lon="1.73398">
        <ele>171.4</ele>
        <time>2026-01-31T12:54:01Z</time>
      </trkpt>
      <trkpt lat="48.71132" lon="1.73394">
        <ele>171.4</ele>
        <time>2026-01-31T12:54:03Z</time>
      </trkpt>
      <trkpt lat="48.7113" lon="1.73389">
        <ele>171.6</ele>
        <time>2026-01-31T12:54:05Z</time>
      </trkpt>
      <trkpt lat="48.71128" lon="1.73384">
        <ele>171.6</ele>
        <time>2026-01-31T12:54:07Z</time>
      </trkpt>
      <trkpt lat="48.71126" lon="1.7338">
        <ele>171.8</ele>
        <time>2026-01-31T12:54:09Z</time>
      </trkpt>
      <trkpt lat="48.71126" lon="1.73377">
        <ele>172</ele>
        <time>2026-01-31T12:54:11Z</time>
      </trkpt>
      <trkpt lat="48.71126" lon="1.73374">
        <ele>172.6</ele>
        <time>2026-01-31T12:54:16Z</time>
      </trkpt>
      <trkpt lat="48.71125" lon="1.73372">
        <ele>172.8</ele>
        <time>2026-01-31T12:54:18Z</time>
      </trkpt>
      <trkpt lat="48.71122" lon="1.73369">
        <ele>173.2</ele>
        <time>2026-01-31T12:54:20Z</time>
      </trkpt>
      <trkpt lat="48.7112" lon="1.73366">
        <ele>173.6</ele>
        <time>2026-01-31T12:54:22Z</time>
      </trkpt>
      <trkpt lat="48.71118" lon="1.73365">
        <ele>174</ele>
        <time>2026-01-31T12:54:24Z</time>
      </trkpt>
      <trkpt lat="48.71116" lon="1.73364">
        <ele>175</ele>
        <time>2026-01-31T12:54:32Z</time>
      </trkpt>
      <trkpt lat="48.71114" lon="1.7336">
        <ele>175.2</ele>
        <time>2026-01-31T12:54:34Z</time>
      </trkpt>
      <trkpt lat="48.71112" lon="1.73357">
        <ele>175.6</ele>
        <time>2026-01-31T12:54:36Z</time>
      </trkpt>
      <trkpt lat="48.7111" lon="1.73353">
        <ele>175.8</ele>
        <time>2026-01-31T12:54:38Z</time>
      </trkpt>
      <trkpt lat="48.71109" lon="1.7335">
        <ele>176</ele>
        <time>2026-01-31T12:54:40Z</time>
      </trkpt>
      <trkpt lat="48.71108" lon="1.73347">
        <ele>176.4</ele>
        <time>2026-01-31T12:54:42Z</time>
      </trkpt>
      <trkpt lat="48.71107" lon="1.73344">
        <ele>176.6</ele>
        <time>2026-01-31T12:54:44Z</time>
      </trkpt>
      <trkpt lat="48.71106" lon="1.7334">
        <ele>176.8</ele>
        <time>2026-01-31T12:54:46Z</time>
      </trkpt>
      <trkpt lat="48.71104" lon="1.73336">
        <ele>177</ele>
        <time>2026-01-31T12:54:48Z</time>
      </trkpt>
      <trkpt lat="48.71103" lon="1.73331">
        <ele>177</ele>
        <time>2026-01-31T12:54:50Z</time>
      </trkpt>
      <trkpt lat="48.71102" lon="1.73327">
        <ele>177</ele>
        <time>2026-01-31T12:54:52Z</time>
      </trkpt>
      <trkpt lat="48.711" lon="1.73322">
        <ele>177</ele>
        <time>2026-01-31T12:54:54Z</time>
      </trkpt>
      <trkpt lat="48.71099" lon="1.73318">
        <ele>177.2</ele>
        <time>2026-01-31T12:54:56Z</time>
      </trkpt>
      <trkpt lat="48.71098" lon="1.73315">
        <ele>177.2</ele>
        <time>2026-01-31T12:54:58Z</time>
      </trkpt>
      <trkpt lat="48.71097" lon="1.73311">
        <ele>177.4</ele>
        <time>2026-01-31T12:55:00Z</time>
      </trkpt>
      <trkpt lat="48.71096" lon="1.73307">
        <ele>177.4</ele>
        <time>2026-01-31T12:55:02Z</time>
      </trkpt>
      <trkpt lat="48.71095" lon="1.73302">
        <ele>177.4</ele>
        <time>2026-01-31T12:55:04Z</time>
      </trkpt>
      <trkpt lat="48.71095" lon="1.73298">
        <ele>177.4</ele>
        <time>2026-01-31T12:55:06Z</time>
      </trkpt>
      <trkpt lat="48.71094" lon="1.73295">
        <ele>177.4</ele>
        <time>2026-01-31T12:55:08Z</time>
      </trkpt>
      <trkpt lat="48.71094" lon="1.73291">
        <ele>177.2</ele>
        <time>2026-01-31T12:55:10Z</time>
      </trkpt>
      <trkpt lat="48.71092" lon="1.73288">
        <ele>177.2</ele>
        <time>2026-01-31T12:55:12Z</time>
      </trkpt>
      <trkpt lat="48.71091" lon="1.73283">
        <ele>177</ele>
        <time>2026-01-31T12:55:14Z</time>
      </trkpt>
      <trkpt lat="48.7109" lon="1.73281">
        <ele>177</ele>
        <time>2026-01-31T12:55:15Z</time>
      </trkpt>
      <trkpt lat="48.71089" lon="1.73277">
        <ele>177</ele>
        <time>2026-01-31T12:55:17Z</time>
      </trkpt>
      <trkpt lat="48.71088" lon="1.73273">
        <ele>177</ele>
        <time>2026-01-31T12:55:19Z</time>
      </trkpt>
      <trkpt lat="48.71088" lon="1.73269">
        <ele>177</ele>
        <time>2026-01-31T12:55:21Z</time>
      </trkpt>
      <trkpt lat="48.71087" lon="1.73266">
        <ele>177</ele>
        <time>2026-01-31T12:55:23Z</time>
      </trkpt>
      <trkpt lat="48.71086" lon="1.73263">
        <ele>177</ele>
        <time>2026-01-31T12:55:25Z</time>
      </trkpt>
      <trkpt lat="48.71085" lon="1.73259">
        <ele>177</ele>
        <time>2026-01-31T12:55:27Z</time>
      </trkpt>
      <trkpt lat="48.71084" lon="1.73255">
        <ele>177.2</ele>
        <time>2026-01-31T12:55:29Z</time>
      </trkpt>
      <trkpt lat="48.71082" lon="1.73251">
        <ele>177.2</ele>
        <time>2026-01-31T12:55:31Z</time>
      </trkpt>
      <trkpt lat="48.71081" lon="1.73247">
        <ele>177</ele>
        <time>2026-01-31T12:55:33Z</time>
      </trkpt>
      <trkpt lat="48.7108" lon="1.73242">
        <ele>176.8</ele>
        <time>2026-01-31T12:55:35Z</time>
      </trkpt>
      <trkpt lat="48.71079" lon="1.73237">
        <ele>176.6</ele>
        <time>2026-01-31T12:55:37Z</time>
      </trkpt>
      <trkpt lat="48.71078" lon="1.73232">
        <ele>176.4</ele>
        <time>2026-01-31T12:55:39Z</time>
      </trkpt>
      <trkpt lat="48.71077" lon="1.73227">
        <ele>176</ele>
        <time>2026-01-31T12:55:41Z</time>
      </trkpt>
      <trkpt lat="48.71076" lon="1.73223">
        <ele>175.8</ele>
        <time>2026-01-31T12:55:43Z</time>
      </trkpt>
      <trkpt lat="48.71075" lon="1.73219">
        <ele>175.4</ele>
        <time>2026-01-31T12:55:45Z</time>
      </trkpt>
      <trkpt lat="48.71074" lon="1.73215">
        <ele>175.2</ele>
        <time>2026-01-31T12:55:47Z</time>
      </trkpt>
      <trkpt lat="48.71072" lon="1.73211">
        <ele>175</ele>
        <time>2026-01-31T12:55:49Z</time>
      </trkpt>
      <trkpt lat="48.71071" lon="1.73207">
        <ele>174.8</ele>
        <time>2026-01-31T12:55:51Z</time>
      </trkpt>
      <trkpt lat="48.71071" lon="1.73203">
        <ele>174.6</ele>
        <time>2026-01-31T12:55:53Z</time>
      </trkpt>
      <trkpt lat="48.71071" lon="1.73199">
        <ele>174.4</ele>
        <time>2026-01-31T12:55:55Z</time>
      </trkpt>
      <trkpt lat="48.71072" lon="1.73196">
        <ele>174.2</ele>
        <time>2026-01-31T12:55:57Z</time>
      </trkpt>
      <trkpt lat="48.71071" lon="1.73193">
        <ele>173.8</ele>
        <time>2026-01-31T12:55:59Z</time>
      </trkpt>
      <trkpt lat="48.7107" lon="1.73191">
        <ele>173.6</ele>
        <time>2026-01-31T12:56:01Z</time>
      </trkpt>
      <trkpt lat="48.71069" lon="1.73187">
        <ele>173.4</ele>
        <time>2026-01-31T12:56:03Z</time>
      </trkpt>
      <trkpt lat="48.71068" lon="1.73183">
        <ele>173.4</ele>
        <time>2026-01-31T12:56:05Z</time>
      </trkpt>
      <trkpt lat="48.71068" lon="1.73178">
        <ele>173.4</ele>
        <time>2026-01-31T12:56:07Z</time>
      </trkpt>
      <trkpt lat="48.71067" lon="1.73173">
        <ele>173.6</ele>
        <time>2026-01-31T12:56:09Z</time>
      </trkpt>
      <trkpt lat="48.71065" lon="1.73169">
        <ele>173.4</ele>
        <time>2026-01-31T12:56:11Z</time>
      </trkpt>
      <trkpt lat="48.71062" lon="1.73166">
        <ele>173.4</ele>
        <time>2026-01-31T12:56:13Z</time>
      </trkpt>
      <trkpt lat="48.7106" lon="1.73163">
        <ele>173.4</ele>
        <time>2026-01-31T12:56:15Z</time>
      </trkpt>
      <trkpt lat="48.71058" lon="1.73162">
        <ele>173.4</ele>
        <time>2026-01-31T12:56:17Z</time>
      </trkpt>
      <trkpt lat="48.71056" lon="1.73161">
        <ele>173.6</ele>
        <time>2026-01-31T12:56:21Z</time>
      </trkpt>
      <trkpt lat="48.71054" lon="1.73159">
        <ele>174.2</ele>
        <time>2026-01-31T12:56:26Z</time>
      </trkpt>
      <trkpt lat="48.71051" lon="1.73159">
        <ele>174.2</ele>
        <time>2026-01-31T12:56:28Z</time>
      </trkpt>
      <trkpt lat="48.71048" lon="1.73159">
        <ele>174.4</ele>
        <time>2026-01-31T12:56:30Z</time>
      </trkpt>
      <trkpt lat="48.71044" lon="1.73159">
        <ele>174.6</ele>
        <time>2026-01-31T12:56:32Z</time>
      </trkpt>
      <trkpt lat="48.71041" lon="1.7316">
        <ele>174.6</ele>
        <time>2026-01-31T12:56:34Z</time>
      </trkpt>
      <trkpt lat="48.71039" lon="1.7316">
        <ele>174.6</ele>
        <time>2026-01-31T12:56:35Z</time>
      </trkpt>
      <trkpt lat="48.71036" lon="1.7316">
        <ele>174.8</ele>
        <time>2026-01-31T12:56:37Z</time>
      </trkpt>
      <trkpt lat="48.71034" lon="1.7316">
        <ele>174.8</ele>
        <time>2026-01-31T12:56:38Z</time>
      </trkpt>
      <trkpt lat="48.71031" lon="1.73161">
        <ele>174.8</ele>
        <time>2026-01-31T12:56:40Z</time>
      </trkpt>
      <trkpt lat="48.71028" lon="1.73162">
        <ele>174.8</ele>
        <time>2026-01-31T12:56:42Z</time>
      </trkpt>
      <trkpt lat="48.71025" lon="1.73162">
        <ele>175</ele>
        <time>2026-01-31T12:56:44Z</time>
      </trkpt>
      <trkpt lat="48.71022" lon="1.73162">
        <ele>175</ele>
        <time>2026-01-31T12:56:46Z</time>
      </trkpt>
      <trkpt lat="48.71019" lon="1.73163">
        <ele>175</ele>
        <time>2026-01-31T12:56:48Z</time>
      </trkpt>
      <trkpt lat="48.71017" lon="1.73163">
        <ele>175</ele>
        <time>2026-01-31T12:56:50Z</time>
      </trkpt>
      <trkpt lat="48.71014" lon="1.73164">
        <ele>175</ele>
        <time>2026-01-31T12:56:52Z</time>
      </trkpt>
      <trkpt lat="48.71012" lon="1.73165">
        <ele>175</ele>
        <time>2026-01-31T12:56:54Z</time>
      </trkpt>
      <trkpt lat="48.7101" lon="1.73165">
        <ele>175</ele>
        <time>2026-01-31T12:56:56Z</time>
      </trkpt>
      <trkpt lat="48.71007" lon="1.73164">
        <ele>174.8</ele>
        <time>2026-01-31T12:56:58Z</time>
      </trkpt>
      <trkpt lat="48.71005" lon="1.73164">
        <ele>174.8</ele>
        <time>2026-01-31T12:57:00Z</time>
      </trkpt>
      <trkpt lat="48.71003" lon="1.73165">
        <ele>174.8</ele>
        <time>2026-01-31T12:57:02Z</time>
      </trkpt>
      <trkpt lat="48.71" lon="1.73166">
        <ele>174.8</ele>
        <time>2026-01-31T12:57:04Z</time>
      </trkpt>
      <trkpt lat="48.70998" lon="1.73167">
        <ele>174.8</ele>
        <time>2026-01-31T12:57:06Z</time>
      </trkpt>
      <trkpt lat="48.70996" lon="1.73169">
        <ele>174.8</ele>
        <time>2026-01-31T12:57:08Z</time>
      </trkpt>
      <trkpt lat="48.70993" lon="1.7317">
        <ele>174.6</ele>
        <time>2026-01-31T12:57:10Z</time>
      </trkpt>
      <trkpt lat="48.7099" lon="1.7317">
        <ele>174.6</ele>
        <time>2026-01-31T12:57:12Z</time>
      </trkpt>
      <trkpt lat="48.70988" lon="1.7317">
        <ele>174.4</ele>
        <time>2026-01-31T12:57:14Z</time>
      </trkpt>
      <trkpt lat="48.70985" lon="1.73171">
        <ele>174</ele>
        <time>2026-01-31T12:57:16Z</time>
      </trkpt>
      <trkpt lat="48.70983" lon="1.73172">
        <ele>173.8</ele>
        <time>2026-01-31T12:57:18Z</time>
      </trkpt>
      <trkpt lat="48.70981" lon="1.73173">
        <ele>173.6</ele>
        <time>2026-01-31T12:57:20Z</time>
      </trkpt>
      <trkpt lat="48.70978" lon="1.73173">
        <ele>173.4</ele>
        <time>2026-01-31T12:57:22Z</time>
      </trkpt>
      <trkpt lat="48.70976" lon="1.73172">
        <ele>173.2</ele>
        <time>2026-01-31T12:57:24Z</time>
      </trkpt>
      <trkpt lat="48.70974" lon="1.73172">
        <ele>173</ele>
        <time>2026-01-31T12:57:26Z</time>
      </trkpt>
      <trkpt lat="48.70972" lon="1.73172">
        <ele>172.8</ele>
        <time>2026-01-31T12:57:28Z</time>
      </trkpt>
      <trkpt lat="48.7097" lon="1.73172">
        <ele>172.6</ele>
        <time>2026-01-31T12:57:30Z</time>
      </trkpt>
      <trkpt lat="48.70968" lon="1.73172">
        <ele>172.2</ele>
        <time>2026-01-31T12:57:32Z</time>
      </trkpt>
      <trkpt lat="48.70965" lon="1.73174">
        <ele>172</ele>
        <time>2026-01-31T12:57:34Z</time>
      </trkpt>
      <trkpt lat="48.70963" lon="1.73175">
        <ele>171.6</ele>
        <time>2026-01-31T12:57:36Z</time>
      </trkpt>
      <trkpt lat="48.7096" lon="1.73176">
        <ele>171.4</ele>
        <time>2026-01-31T12:57:38Z</time>
      </trkpt>
      <trkpt lat="48.70957" lon="1.73177">
        <ele>171.2</ele>
        <time>2026-01-31T12:57:40Z</time>
      </trkpt>
      <trkpt lat="48.70954" lon="1.73179">
        <ele>171</ele>
        <time>2026-01-31T12:57:42Z</time>
      </trkpt>
      <trkpt lat="48.70951" lon="1.73181">
        <ele>170.8</ele>
        <time>2026-01-31T12:57:44Z</time>
      </trkpt>
      <trkpt lat="48.70948" lon="1.73182">
        <ele>170.4</ele>
        <time>2026-01-31T12:57:46Z</time>
      </trkpt>
      <trkpt lat="48.70945" lon="1.73182">
        <ele>170</ele>
        <time>2026-01-31T12:57:48Z</time>
      </trkpt>
      <trkpt lat="48.70942" lon="1.73182">
        <ele>169.8</ele>
        <time>2026-01-31T12:57:50Z</time>
      </trkpt>
      <trkpt lat="48.70939" lon="1.73182">
        <ele>169.4</ele>
        <time>2026-01-31T12:57:52Z</time>
      </trkpt>
      <trkpt lat="48.70937" lon="1.73183">
        <ele>169.4</ele>
        <time>2026-01-31T12:57:54Z</time>
      </trkpt>
      <trkpt lat="48.70935" lon="1.73184">
        <ele>169.2</ele>
        <time>2026-01-31T12:57:56Z</time>
      </trkpt>
      <trkpt lat="48.70933" lon="1.73185">
        <ele>169</ele>
        <time>2026-01-31T12:57:58Z</time>
      </trkpt>
      <trkpt lat="48.7093" lon="1.73185">
        <ele>168.8</ele>
        <time>2026-01-31T12:58:00Z</time>
      </trkpt>
      <trkpt lat="48.70927" lon="1.73184">
        <ele>168.6</ele>
        <time>2026-01-31T12:58:02Z</time>
      </trkpt>
      <trkpt lat="48.70925" lon="1.73184">
        <ele>168.4</ele>
        <time>2026-01-31T12:58:04Z</time>
      </trkpt>
      <trkpt lat="48.70922" lon="1.73184">
        <ele>168.2</ele>
        <time>2026-01-31T12:58:06Z</time>
      </trkpt>
      <trkpt lat="48.70919" lon="1.73184">
        <ele>168</ele>
        <time>2026-01-31T12:58:08Z</time>
      </trkpt>
      <trkpt lat="48.70917" lon="1.73184">
        <ele>167.8</ele>
        <time>2026-01-31T12:58:10Z</time>
      </trkpt>
      <trkpt lat="48.70916" lon="1.73185">
        <ele>167.6</ele>
        <time>2026-01-31T12:58:12Z</time>
      </trkpt>
      <trkpt lat="48.70914" lon="1.73186">
        <ele>167.4</ele>
        <time>2026-01-31T12:58:14Z</time>
      </trkpt>
      <trkpt lat="48.70912" lon="1.73185">
        <ele>167.2</ele>
        <time>2026-01-31T12:58:16Z</time>
      </trkpt>
      <trkpt lat="48.7091" lon="1.73185">
        <ele>167.2</ele>
        <time>2026-01-31T12:58:18Z</time>
      </trkpt>
      <trkpt lat="48.70908" lon="1.73185">
        <ele>167</ele>
        <time>2026-01-31T12:58:21Z</time>
      </trkpt>
      <trkpt lat="48.70906" lon="1.73186">
        <ele>166.8</ele>
        <time>2026-01-31T12:58:23Z</time>
      </trkpt>
      <trkpt lat="48.70903" lon="1.73188">
        <ele>166.6</ele>
        <time>2026-01-31T12:58:25Z</time>
      </trkpt>
      <trkpt lat="48.709" lon="1.73189">
        <ele>166.6</ele>
        <time>2026-01-31T12:58:27Z</time>
      </trkpt>
      <trkpt lat="48.70898" lon="1.7319">
        <ele>166.4</ele>
        <time>2026-01-31T12:58:29Z</time>
      </trkpt>
      <trkpt lat="48.70895" lon="1.7319">
        <ele>166.4</ele>
        <time>2026-01-31T12:58:31Z</time>
      </trkpt>
      <trkpt lat="48.70893" lon="1.7319">
        <ele>166.6</ele>
        <time>2026-01-31T12:58:33Z</time>
      </trkpt>
      <trkpt lat="48.7089" lon="1.73192">
        <ele>166.8</ele>
        <time>2026-01-31T12:58:35Z</time>
      </trkpt>
      <trkpt lat="48.70886" lon="1.73193">
        <ele>167</ele>
        <time>2026-01-31T12:58:37Z</time>
      </trkpt>
      <trkpt lat="48.70883" lon="1.73194">
        <ele>167.2</ele>
        <time>2026-01-31T12:58:39Z</time>
      </trkpt>
      <trkpt lat="48.70881" lon="1.73195">
        <ele>167.4</ele>
        <time>2026-01-31T12:58:40Z</time>
      </trkpt>
      <trkpt lat="48.70878" lon="1.73195">
        <ele>167.6</ele>
        <time>2026-01-31T12:58:42Z</time>
      </trkpt>
      <trkpt lat="48.70875" lon="1.73196">
        <ele>168</ele>
        <time>2026-01-31T12:58:44Z</time>
      </trkpt>
      <trkpt lat="48.70873" lon="1.73197">
        <ele>168</ele>
        <time>2026-01-31T12:58:46Z</time>
      </trkpt>
      <trkpt lat="48.70871" lon="1.73198">
        <ele>168.4</ele>
        <time>2026-01-31T12:58:49Z</time>
      </trkpt>
      <trkpt lat="48.70869" lon="1.732">
        <ele>168.8</ele>
        <time>2026-01-31T12:58:55Z</time>
      </trkpt>
      <trkpt lat="48.70867" lon="1.73201">
        <ele>169</ele>
        <time>2026-01-31T12:58:59Z</time>
      </trkpt>
      <trkpt lat="48.70865" lon="1.73201">
        <ele>169.2</ele>
        <time>2026-01-31T12:59:01Z</time>
      </trkpt>
      <trkpt lat="48.70863" lon="1.73202">
        <ele>169.4</ele>
        <time>2026-01-31T12:59:03Z</time>
      </trkpt>
      <trkpt lat="48.7086" lon="1.73203">
        <ele>169.6</ele>
        <time>2026-01-31T12:59:05Z</time>
      </trkpt>
      <trkpt lat="48.70858" lon="1.73204">
        <ele>169.8</ele>
        <time>2026-01-31T12:59:07Z</time>
      </trkpt>
      <trkpt lat="48.70855" lon="1.73205">
        <ele>169.8</ele>
        <time>2026-01-31T12:59:09Z</time>
      </trkpt>
      <trkpt lat="48.70853" lon="1.73207">
        <ele>170</ele>
        <time>2026-01-31T12:59:11Z</time>
      </trkpt>
      <trkpt lat="48.7085" lon="1.73209">
        <ele>170.2</ele>
        <time>2026-01-31T12:59:13Z</time>
      </trkpt>
      <trkpt lat="48.70848" lon="1.73209">
        <ele>170.2</ele>
        <time>2026-01-31T12:59:14Z</time>
      </trkpt>
      <trkpt lat="48.70846" lon="1.73209">
        <ele>170.2</ele>
        <time>2026-01-31T12:59:15Z</time>
      </trkpt>
      <trkpt lat="48.70844" lon="1.73209">
        <ele>170.4</ele>
        <time>2026-01-31T12:59:16Z</time>
      </trkpt>
      <trkpt lat="48.70841" lon="1.73209">
        <ele>170.4</ele>
        <time>2026-01-31T12:59:18Z</time>
      </trkpt>
      <trkpt lat="48.70838" lon="1.7321">
        <ele>170.6</ele>
        <time>2026-01-31T12:59:20Z</time>
      </trkpt>
      <trkpt lat="48.70835" lon="1.73212">
        <ele>170.6</ele>
        <time>2026-01-31T12:59:22Z</time>
      </trkpt>
      <trkpt lat="48.70832" lon="1.73213">
        <ele>170.8</ele>
        <time>2026-01-31T12:59:24Z</time>
      </trkpt>
      <trkpt lat="48.7083" lon="1.73213">
        <ele>170.8</ele>
        <time>2026-01-31T12:59:26Z</time>
      </trkpt>
      <trkpt lat="48.70828" lon="1.73213">
        <ele>170.8</ele>
        <time>2026-01-31T12:59:28Z</time>
      </trkpt>
      <trkpt lat="48.70825" lon="1.73212">
        <ele>170.8</ele>
        <time>2026-01-31T12:59:30Z</time>
      </trkpt>
      <trkpt lat="48.70823" lon="1.73213">
        <ele>170.8</ele>
        <time>2026-01-31T12:59:31Z</time>
      </trkpt>
      <trkpt lat="48.70819" lon="1.73214">
        <ele>170.8</ele>
        <time>2026-01-31T12:59:33Z</time>
      </trkpt>
      <trkpt lat="48.70817" lon="1.73214">
        <ele>170.8</ele>
        <time>2026-01-31T12:59:34Z</time>
      </trkpt>
      <trkpt lat="48.70815" lon="1.73215">
        <ele>170.8</ele>
        <time>2026-01-31T12:59:35Z</time>
      </trkpt>
      <trkpt lat="48.70813" lon="1.73216">
        <ele>170.8</ele>
        <time>2026-01-31T12:59:36Z</time>
      </trkpt>
      <trkpt lat="48.7081" lon="1.73218">
        <ele>170.8</ele>
        <time>2026-01-31T12:59:38Z</time>
      </trkpt>
      <trkpt lat="48.70808" lon="1.73218">
        <ele>170.8</ele>
        <time>2026-01-31T12:59:40Z</time>
      </trkpt>
      <trkpt lat="48.70804" lon="1.73218">
        <ele>170.8</ele>
        <time>2026-01-31T12:59:42Z</time>
      </trkpt>
      <trkpt lat="48.70802" lon="1.73218">
        <ele>170.8</ele>
        <time>2026-01-31T12:59:44Z</time>
      </trkpt>
      <trkpt lat="48.70799" lon="1.73219">
        <ele>170.8</ele>
        <time>2026-01-31T12:59:46Z</time>
      </trkpt>
      <trkpt lat="48.70796" lon="1.73221">
        <ele>170.6</ele>
        <time>2026-01-31T12:59:48Z</time>
      </trkpt>
      <trkpt lat="48.70793" lon="1.73222">
        <ele>170.6</ele>
        <time>2026-01-31T12:59:50Z</time>
      </trkpt>
      <trkpt lat="48.70791" lon="1.73222">
        <ele>170.4</ele>
        <time>2026-01-31T12:59:51Z</time>
      </trkpt>
      <trkpt lat="48.70788" lon="1.73224">
        <ele>170.4</ele>
        <time>2026-01-31T12:59:53Z</time>
      </trkpt>
      <trkpt lat="48.70785" lon="1.73226">
        <ele>170.4</ele>
        <time>2026-01-31T12:59:55Z</time>
      </trkpt>
      <trkpt lat="48.70782" lon="1.73228">
        <ele>170.2</ele>
        <time>2026-01-31T12:59:57Z</time>
      </trkpt>
      <trkpt lat="48.7078" lon="1.73229">
        <ele>170.2</ele>
        <time>2026-01-31T12:59:59Z</time>
      </trkpt>
      <trkpt lat="48.70777" lon="1.7323">
        <ele>170.2</ele>
        <time>2026-01-31T13:00:01Z</time>
      </trkpt>
      <trkpt lat="48.70775" lon="1.7323">
        <ele>170</ele>
        <time>2026-01-31T13:00:02Z</time>
      </trkpt>
      <trkpt lat="48.70772" lon="1.73231">
        <ele>170</ele>
        <time>2026-01-31T13:00:04Z</time>
      </trkpt>
      <trkpt lat="48.7077" lon="1.73231">
        <ele>169.8</ele>
        <time>2026-01-31T13:00:06Z</time>
      </trkpt>
      <trkpt lat="48.70767" lon="1.73231">
        <ele>169.6</ele>
        <time>2026-01-31T13:00:08Z</time>
      </trkpt>
      <trkpt lat="48.70765" lon="1.7323">
        <ele>169.4</ele>
        <time>2026-01-31T13:00:09Z</time>
      </trkpt>
      <trkpt lat="48.70764" lon="1.7323">
        <ele>169.4</ele>
        <time>2026-01-31T13:00:10Z</time>
      </trkpt>
      <trkpt lat="48.70762" lon="1.7323">
        <ele>169.2</ele>
        <time>2026-01-31T13:00:11Z</time>
      </trkpt>
      <trkpt lat="48.7076" lon="1.7323">
        <ele>169.2</ele>
        <time>2026-01-31T13:00:12Z</time>
      </trkpt>
      <trkpt lat="48.70758" lon="1.7323">
        <ele>169.2</ele>
        <time>2026-01-31T13:00:13Z</time>
      </trkpt>
      <trkpt lat="48.70756" lon="1.73229">
        <ele>169.2</ele>
        <time>2026-01-31T13:00:14Z</time>
      </trkpt>
      <trkpt lat="48.70753" lon="1.73229">
        <ele>169</ele>
        <time>2026-01-31T13:00:16Z</time>
      </trkpt>
      <trkpt lat="48.7075" lon="1.73229">
        <ele>169</ele>
        <time>2026-01-31T13:00:18Z</time>
      </trkpt>
      <trkpt lat="48.70748" lon="1.7323">
        <ele>168.8</ele>
        <time>2026-01-31T13:00:20Z</time>
      </trkpt>
      <trkpt lat="48.70746" lon="1.73232">
        <ele>168.8</ele>
        <time>2026-01-31T13:00:22Z</time>
      </trkpt>
      <trkpt lat="48.70744" lon="1.73232">
        <ele>168.8</ele>
        <time>2026-01-31T13:00:24Z</time>
      </trkpt>
      <trkpt lat="48.7074" lon="1.73232">
        <ele>168.8</ele>
        <time>2026-01-31T13:00:26Z</time>
      </trkpt>
      <trkpt lat="48.70738" lon="1.73232">
        <ele>168.6</ele>
        <time>2026-01-31T13:00:28Z</time>
      </trkpt>
      <trkpt lat="48.70736" lon="1.73233">
        <ele>168.6</ele>
        <time>2026-01-31T13:00:30Z</time>
      </trkpt>
      <trkpt lat="48.70734" lon="1.73234">
        <ele>168.6</ele>
        <time>2026-01-31T13:00:32Z</time>
      </trkpt>
      <trkpt lat="48.70731" lon="1.73235">
        <ele>168.6</ele>
        <time>2026-01-31T13:00:34Z</time>
      </trkpt>
      <trkpt lat="48.70729" lon="1.73236">
        <ele>168.6</ele>
        <time>2026-01-31T13:00:36Z</time>
      </trkpt>
      <trkpt lat="48.70726" lon="1.73237">
        <ele>168.6</ele>
        <time>2026-01-31T13:00:38Z</time>
      </trkpt>
      <trkpt lat="48.70723" lon="1.73236">
        <ele>168.4</ele>
        <time>2026-01-31T13:00:40Z</time>
      </trkpt>
      <trkpt lat="48.70721" lon="1.73236">
        <ele>168.2</ele>
        <time>2026-01-31T13:00:42Z</time>
      </trkpt>
      <trkpt lat="48.70718" lon="1.73236">
        <ele>168</ele>
        <time>2026-01-31T13:00:44Z</time>
      </trkpt>
      <trkpt lat="48.70716" lon="1.73237">
        <ele>167.8</ele>
        <time>2026-01-31T13:00:46Z</time>
      </trkpt>
      <trkpt lat="48.70715" lon="1.73239">
        <ele>167.6</ele>
        <time>2026-01-31T13:00:48Z</time>
      </trkpt>
      <trkpt lat="48.70713" lon="1.7324">
        <ele>167.4</ele>
        <time>2026-01-31T13:00:50Z</time>
      </trkpt>
      <trkpt lat="48.7071" lon="1.73241">
        <ele>167</ele>
        <time>2026-01-31T13:00:52Z</time>
      </trkpt>
      <trkpt lat="48.70708" lon="1.73241">
        <ele>166.8</ele>
        <time>2026-01-31T13:00:54Z</time>
      </trkpt>
      <trkpt lat="48.70706" lon="1.73241">
        <ele>166.6</ele>
        <time>2026-01-31T13:00:56Z</time>
      </trkpt>
      <trkpt lat="48.70703" lon="1.73241">
        <ele>166.4</ele>
        <time>2026-01-31T13:00:58Z</time>
      </trkpt>
      <trkpt lat="48.707" lon="1.73242">
        <ele>166.2</ele>
        <time>2026-01-31T13:01:00Z</time>
      </trkpt>
      <trkpt lat="48.70697" lon="1.73244">
        <ele>166.2</ele>
        <time>2026-01-31T13:01:02Z</time>
      </trkpt>
      <trkpt lat="48.70695" lon="1.73245">
        <ele>166</ele>
        <time>2026-01-31T13:01:04Z</time>
      </trkpt>
      <trkpt lat="48.70693" lon="1.73248">
        <ele>166</ele>
        <time>2026-01-31T13:01:07Z</time>
      </trkpt>
      <trkpt lat="48.70691" lon="1.73249">
        <ele>165.8</ele>
        <time>2026-01-31T13:01:09Z</time>
      </trkpt>
      <trkpt lat="48.70688" lon="1.7325">
        <ele>165.6</ele>
        <time>2026-01-31T13:01:11Z</time>
      </trkpt>
      <trkpt lat="48.70685" lon="1.73251">
        <ele>165.4</ele>
        <time>2026-01-31T13:01:13Z</time>
      </trkpt>
      <trkpt lat="48.70683" lon="1.73252">
        <ele>165.2</ele>
        <time>2026-01-31T13:01:15Z</time>
      </trkpt>
      <trkpt lat="48.7068" lon="1.73254">
        <ele>165</ele>
        <time>2026-01-31T13:01:17Z</time>
      </trkpt>
      <trkpt lat="48.70677" lon="1.73255">
        <ele>165</ele>
        <time>2026-01-31T13:01:19Z</time>
      </trkpt>
      <trkpt lat="48.70674" lon="1.73256">
        <ele>165</ele>
        <time>2026-01-31T13:01:21Z</time>
      </trkpt>
      <trkpt lat="48.7067" lon="1.73258">
        <ele>164.8</ele>
        <time>2026-01-31T13:01:23Z</time>
      </trkpt>
      <trkpt lat="48.70668" lon="1.73259">
        <ele>164.8</ele>
        <time>2026-01-31T13:01:24Z</time>
      </trkpt>
      <trkpt lat="48.70666" lon="1.7326">
        <ele>164.8</ele>
        <time>2026-01-31T13:01:26Z</time>
      </trkpt>
      <trkpt lat="48.70664" lon="1.73261">
        <ele>165</ele>
        <time>2026-01-31T13:01:28Z</time>
      </trkpt>
      <trkpt lat="48.70661" lon="1.73263">
        <ele>165</ele>
        <time>2026-01-31T13:01:30Z</time>
      </trkpt>
      <trkpt lat="48.70659" lon="1.73264">
        <ele>165.2</ele>
        <time>2026-01-31T13:01:32Z</time>
      </trkpt>
      <trkpt lat="48.70656" lon="1.73265">
        <ele>165.4</ele>
        <time>2026-01-31T13:01:34Z</time>
      </trkpt>
      <trkpt lat="48.70653" lon="1.73266">
        <ele>165.6</ele>
        <time>2026-01-31T13:01:36Z</time>
      </trkpt>
      <trkpt lat="48.70651" lon="1.73266">
        <ele>165.8</ele>
        <time>2026-01-31T13:01:38Z</time>
      </trkpt>
      <trkpt lat="48.70648" lon="1.73267">
        <ele>166</ele>
        <time>2026-01-31T13:01:40Z</time>
      </trkpt>
      <trkpt lat="48.70645" lon="1.73268">
        <ele>166.2</ele>
        <time>2026-01-31T13:01:42Z</time>
      </trkpt>
      <trkpt lat="48.70643" lon="1.73269">
        <ele>166.6</ele>
        <time>2026-01-31T13:01:44Z</time>
      </trkpt>
      <trkpt lat="48.7064" lon="1.7327">
        <ele>166.8</ele>
        <time>2026-01-31T13:01:46Z</time>
      </trkpt>
      <trkpt lat="48.70637" lon="1.7327">
        <ele>167</ele>
        <time>2026-01-31T13:01:48Z</time>
      </trkpt>
      <trkpt lat="48.70635" lon="1.73271">
        <ele>167.2</ele>
        <time>2026-01-31T13:01:50Z</time>
      </trkpt>
      <trkpt lat="48.70632" lon="1.73271">
        <ele>167.6</ele>
        <time>2026-01-31T13:01:52Z</time>
      </trkpt>
      <trkpt lat="48.70629" lon="1.73272">
        <ele>167.8</ele>
        <time>2026-01-31T13:01:54Z</time>
      </trkpt>
      <trkpt lat="48.70627" lon="1.73273">
        <ele>168</ele>
        <time>2026-01-31T13:01:56Z</time>
      </trkpt>
      <trkpt lat="48.70625" lon="1.73273">
        <ele>168.2</ele>
        <time>2026-01-31T13:01:58Z</time>
      </trkpt>
      <trkpt lat="48.70622" lon="1.73273">
        <ele>168.2</ele>
        <time>2026-01-31T13:02:00Z</time>
      </trkpt>
      <trkpt lat="48.7062" lon="1.73273">
        <ele>168.4</ele>
        <time>2026-01-31T13:02:02Z</time>
      </trkpt>
      <trkpt lat="48.70617" lon="1.73274">
        <ele>168.4</ele>
        <time>2026-01-31T13:02:04Z</time>
      </trkpt>
      <trkpt lat="48.70615" lon="1.73274">
        <ele>168.4</ele>
        <time>2026-01-31T13:02:05Z</time>
      </trkpt>
      <trkpt lat="48.70612" lon="1.73276">
        <ele>168.6</ele>
        <time>2026-01-31T13:02:07Z</time>
      </trkpt>
      <trkpt lat="48.70609" lon="1.73276">
        <ele>169</ele>
        <time>2026-01-31T13:02:09Z</time>
      </trkpt>
      <trkpt lat="48.70606" lon="1.73276">
        <ele>169.2</ele>
        <time>2026-01-31T13:02:11Z</time>
      </trkpt>
      <trkpt lat="48.70604" lon="1.73275">
        <ele>169.4</ele>
        <time>2026-01-31T13:02:13Z</time>
      </trkpt>
      <trkpt lat="48.70602" lon="1.73275">
        <ele>169.6</ele>
        <time>2026-01-31T13:02:16Z</time>
      </trkpt>
      <trkpt lat="48.706" lon="1.73275">
        <ele>170</ele>
        <time>2026-01-31T13:02:19Z</time>
      </trkpt>
      <trkpt lat="48.70598" lon="1.73276">
        <ele>170.2</ele>
        <time>2026-01-31T13:02:22Z</time>
      </trkpt>
      <trkpt lat="48.70596" lon="1.73277">
        <ele>170.4</ele>
        <time>2026-01-31T13:02:24Z</time>
      </trkpt>
      <trkpt lat="48.70593" lon="1.73278">
        <ele>170.4</ele>
        <time>2026-01-31T13:02:26Z</time>
      </trkpt>
      <trkpt lat="48.7059" lon="1.73278">
        <ele>170.6</ele>
        <time>2026-01-31T13:02:28Z</time>
      </trkpt>
      <trkpt lat="48.70587" lon="1.73279">
        <ele>170.6</ele>
        <time>2026-01-31T13:02:30Z</time>
      </trkpt>
      <trkpt lat="48.70584" lon="1.7328">
        <ele>170.8</ele>
        <time>2026-01-31T13:02:32Z</time>
      </trkpt>
      <trkpt lat="48.70581" lon="1.73282">
        <ele>170.8</ele>
        <time>2026-01-31T13:02:34Z</time>
      </trkpt>
      <trkpt lat="48.70579" lon="1.73284">
        <ele>170.8</ele>
        <time>2026-01-31T13:02:36Z</time>
      </trkpt>
      <trkpt lat="48.70577" lon="1.73285">
        <ele>170.6</ele>
        <time>2026-01-31T13:02:37Z</time>
      </trkpt>
      <trkpt lat="48.70575" lon="1.73286">
        <ele>170.6</ele>
        <time>2026-01-31T13:02:38Z</time>
      </trkpt>
      <trkpt lat="48.70573" lon="1.73287">
        <ele>170.6</ele>
        <time>2026-01-31T13:02:39Z</time>
      </trkpt>
      <trkpt lat="48.7057" lon="1.73288">
        <ele>170.6</ele>
        <time>2026-01-31T13:02:40Z</time>
      </trkpt>
      <trkpt lat="48.70568" lon="1.73288">
        <ele>170.4</ele>
        <time>2026-01-31T13:02:41Z</time>
      </trkpt>
      <trkpt lat="48.70566" lon="1.73289">
        <ele>170.4</ele>
        <time>2026-01-31T13:02:42Z</time>
      </trkpt>
      <trkpt lat="48.70563" lon="1.7329">
        <ele>170.2</ele>
        <time>2026-01-31T13:02:44Z</time>
      </trkpt>
      <trkpt lat="48.70561" lon="1.73291">
        <ele>170</ele>
        <time>2026-01-31T13:02:46Z</time>
      </trkpt>
      <trkpt lat="48.70559" lon="1.73291">
        <ele>170</ele>
        <time>2026-01-31T13:02:48Z</time>
      </trkpt>
      <trkpt lat="48.70557" lon="1.73292">
        <ele>169.8</ele>
        <time>2026-01-31T13:02:50Z</time>
      </trkpt>
      <trkpt lat="48.70554" lon="1.73293">
        <ele>169.6</ele>
        <time>2026-01-31T13:02:52Z</time>
      </trkpt>
      <trkpt lat="48.70551" lon="1.73294">
        <ele>169.6</ele>
        <time>2026-01-31T13:02:54Z</time>
      </trkpt>
      <trkpt lat="48.70548" lon="1.73295">
        <ele>169.6</ele>
        <time>2026-01-31T13:02:56Z</time>
      </trkpt>
      <trkpt lat="48.70546" lon="1.73297">
        <ele>169.4</ele>
        <time>2026-01-31T13:02:58Z</time>
      </trkpt>
      <trkpt lat="48.70544" lon="1.73298">
        <ele>169.4</ele>
        <time>2026-01-31T13:03:00Z</time>
      </trkpt>
      <trkpt lat="48.70541" lon="1.73299">
        <ele>169.2</ele>
        <time>2026-01-31T13:03:02Z</time>
      </trkpt>
      <trkpt lat="48.70538" lon="1.733">
        <ele>169</ele>
        <time>2026-01-31T13:03:04Z</time>
      </trkpt>
      <trkpt lat="48.70536" lon="1.73302">
        <ele>168.8</ele>
        <time>2026-01-31T13:03:06Z</time>
      </trkpt>
      <trkpt lat="48.70533" lon="1.73303">
        <ele>168.6</ele>
        <time>2026-01-31T13:03:08Z</time>
      </trkpt>
      <trkpt lat="48.70532" lon="1.73305">
        <ele>168.6</ele>
        <time>2026-01-31T13:03:10Z</time>
      </trkpt>
      <trkpt lat="48.70531" lon="1.73308">
        <ele>168.4</ele>
        <time>2026-01-31T13:03:12Z</time>
      </trkpt>
      <trkpt lat="48.70529" lon="1.7331">
        <ele>168.4</ele>
        <time>2026-01-31T13:03:14Z</time>
      </trkpt>
      <trkpt lat="48.70527" lon="1.73312">
        <ele>168.2</ele>
        <time>2026-01-31T13:03:16Z</time>
      </trkpt>
      <trkpt lat="48.70524" lon="1.73313">
        <ele>168.2</ele>
        <time>2026-01-31T13:03:18Z</time>
      </trkpt>
      <trkpt lat="48.70522" lon="1.73314">
        <ele>168.2</ele>
        <time>2026-01-31T13:03:20Z</time>
      </trkpt>
      <trkpt lat="48.7052" lon="1.73314">
        <ele>168.2</ele>
        <time>2026-01-31T13:03:21Z</time>
      </trkpt>
      <trkpt lat="48.70516" lon="1.73314">
        <ele>168.4</ele>
        <time>2026-01-31T13:03:23Z</time>
      </trkpt>
      <trkpt lat="48.70514" lon="1.73314">
        <ele>168.6</ele>
        <time>2026-01-31T13:03:24Z</time>
      </trkpt>
      <trkpt lat="48.70509" lon="1.73314">
        <ele>169.2</ele>
        <time>2026-01-31T13:03:26Z</time>
      </trkpt>
      <trkpt lat="48.70508" lon="1.73314">
        <ele>169.4</ele>
        <time>2026-01-31T13:03:27Z</time>
      </trkpt>
      <trkpt lat="48.70506" lon="1.73313">
        <ele>169.6</ele>
        <time>2026-01-31T13:03:28Z</time>
      </trkpt>
      <trkpt lat="48.70502" lon="1.73313">
        <ele>169.8</ele>
        <time>2026-01-31T13:03:30Z</time>
      </trkpt>
      <trkpt lat="48.705" lon="1.73313">
        <ele>170.2</ele>
        <time>2026-01-31T13:03:32Z</time>
      </trkpt>
      <trkpt lat="48.70498" lon="1.73313">
        <ele>170.6</ele>
        <time>2026-01-31T13:03:34Z</time>
      </trkpt>
      <trkpt lat="48.70495" lon="1.73313">
        <ele>170.8</ele>
        <time>2026-01-31T13:03:36Z</time>
      </trkpt>
      <trkpt lat="48.70493" lon="1.73314">
        <ele>171.2</ele>
        <time>2026-01-31T13:03:38Z</time>
      </trkpt>
      <trkpt lat="48.70491" lon="1.73314">
        <ele>171.6</ele>
        <time>2026-01-31T13:03:41Z</time>
      </trkpt>
      <trkpt lat="48.70488" lon="1.73315">
        <ele>172</ele>
        <time>2026-01-31T13:03:44Z</time>
      </trkpt>
      <trkpt lat="48.70486" lon="1.73315">
        <ele>172.2</ele>
        <time>2026-01-31T13:03:46Z</time>
      </trkpt>
      <trkpt lat="48.70484" lon="1.73316">
        <ele>172.4</ele>
        <time>2026-01-31T13:03:48Z</time>
      </trkpt>
      <trkpt lat="48.70481" lon="1.73317">
        <ele>172.6</ele>
        <time>2026-01-31T13:03:50Z</time>
      </trkpt>
      <trkpt lat="48.70478" lon="1.73318">
        <ele>173</ele>
        <time>2026-01-31T13:03:53Z</time>
      </trkpt>
      <trkpt lat="48.70476" lon="1.7332">
        <ele>173.2</ele>
        <time>2026-01-31T13:03:55Z</time>
      </trkpt>
      <trkpt lat="48.70474" lon="1.73321">
        <ele>173.6</ele>
        <time>2026-01-31T13:03:57Z</time>
      </trkpt>
      <trkpt lat="48.70472" lon="1.73322">
        <ele>173.8</ele>
        <time>2026-01-31T13:03:59Z</time>
      </trkpt>
      <trkpt lat="48.70468" lon="1.73323">
        <ele>174</ele>
        <time>2026-01-31T13:04:01Z</time>
      </trkpt>
      <trkpt lat="48.70466" lon="1.73324">
        <ele>174</ele>
        <time>2026-01-31T13:04:03Z</time>
      </trkpt>
      <trkpt lat="48.70463" lon="1.73324">
        <ele>174.2</ele>
        <time>2026-01-31T13:04:05Z</time>
        <extensions>
          <gpxtpx:TrackPointExtension xmlns:gpxtpx="http://www.garmin.com/xmlschemas/TrackPointExtension/v1">
            <gpxtpx:hr>101</gpxtpx:hr>
          </gpxtpx:TrackPointExtension>
        </extensions>
      </trkpt>
      <trkpt lat="48.7046" lon="1.73324">
        <ele>174.4</ele>
        <time>2026-01-31T13:04:07Z</time>
        <extensions>
          <gpxtpx:TrackPointExtension xmlns:gpxtpx="http://www.garmin.com/xmlschemas/TrackPointExtension/v1">
            <gpxtpx:hr>101</gpxtpx:hr>
          </gpxtpx:TrackPointExtension>
        </extensions>
      </trkpt>
      <trkpt lat="48.70458" lon="1.73324">
        <ele>174.6</ele>
        <time>2026-01-31T13:04:09Z</time>
        <extensions>
          <gpxtpx:TrackPointExtension xmlns:gpxtpx="http://www.garmin.com/xmlschemas/TrackPointExtension/v1">
            <gpxtpx:hr>101</gpxtpx:hr>
          </gpxtpx:TrackPointExtension>
        </extensions>
      </trkpt>
      <trkpt lat="48.70456" lon="1.73324">
        <ele>174.8</ele>
        <time>2026-01-31T13:04:11Z</time>
        <extensions>
          <gpxtpx:TrackPointExtension xmlns:gpxtpx="http://www.garmin.com/xmlschemas/TrackPointExtension/v1">
            <gpxtpx:hr>100</gpxtpx:hr>
          </gpxtpx:TrackPointExtension>
        </extensions>
      </trkpt>
      <trkpt lat="48.70454" lon="1.73324">
        <ele>174.8</ele>
        <time>2026-01-31T13:04:13Z</time>
        <extensions>
          <gpxtpx:TrackPointExtension xmlns:gpxtpx="http://www.garmin.com/xmlschemas/TrackPointExtension/v1">
            <gpxtpx:hr>100</gpxtpx:hr>
          </gpxtpx:TrackPointExtension>
        </extensions>
      </trkpt>
      <trkpt lat="48.70452" lon="1.73324">
        <ele>175</ele>
        <time>2026-01-31T13:04:15Z</time>
        <extensions>
          <gpxtpx:TrackPointExtension xmlns:gpxtpx="http://www.garmin.com/xmlschemas/TrackPointExtension/v1">
            <gpxtpx:hr>100</gpxtpx:hr>
          </gpxtpx:TrackPointExtension>
        </extensions>
      </trkpt>
      <trkpt lat="48.7045" lon="1.73326">
        <ele>175</ele>
        <time>2026-01-31T13:04:17Z</time>
        <extensions>
          <gpxtpx:TrackPointExtension xmlns:gpxtpx="http://www.garmin.com/xmlschemas/TrackPointExtension/v1">
            <gpxtpx:hr>100</gpxtpx:hr>
          </gpxtpx:TrackPointExtension>
        </extensions>
      </trkpt>
      <trkpt lat="48.70448" lon="1.73327">
        <ele>175</ele>
        <time>2026-01-31T13:04:19Z</time>
      </trkpt>
      <trkpt lat="48.70446" lon="1.73328">
        <ele>175</ele>
        <time>2026-01-31T13:04:22Z</time>
      </trkpt>
      <trkpt lat="48.70443" lon="1.73329">
        <ele>175</ele>
        <time>2026-01-31T13:04:24Z</time>
      </trkpt>
      <trkpt lat="48.70441" lon="1.73329">
        <ele>175</ele>
        <time>2026-01-31T13:04:25Z</time>
      </trkpt>
      <trkpt lat="48.70438" lon="1.73328">
        <ele>174.8</ele>
        <time>2026-01-31T13:04:27Z</time>
      </trkpt>
      <trkpt lat="48.70435" lon="1.73328">
        <ele>174.8</ele>
        <time>2026-01-31T13:04:29Z</time>
      </trkpt>
      <trkpt lat="48.70433" lon="1.7333">
        <ele>174.6</ele>
        <time>2026-01-31T13:04:31Z</time>
      </trkpt>
      <trkpt lat="48.70431" lon="1.73332">
        <ele>174.4</ele>
        <time>2026-01-31T13:04:33Z</time>
      </trkpt>
      <trkpt lat="48.70429" lon="1.73333">
        <ele>174.4</ele>
        <time>2026-01-31T13:04:36Z</time>
      </trkpt>
      <trkpt lat="48.70427" lon="1.73333">
        <ele>174.2</ele>
        <time>2026-01-31T13:04:38Z</time>
      </trkpt>
      <trkpt lat="48.70424" lon="1.73334">
        <ele>174.2</ele>
        <time>2026-01-31T13:04:40Z</time>
      </trkpt>
      <trkpt lat="48.70422" lon="1.73334">
        <ele>174.2</ele>
        <time>2026-01-31T13:04:41Z</time>
      </trkpt>
      <trkpt lat="48.7042" lon="1.73335">
        <ele>174.2</ele>
        <time>2026-01-31T13:04:42Z</time>
      </trkpt>
      <trkpt lat="48.70419" lon="1.73335">
        <ele>174.2</ele>
        <time>2026-01-31T13:04:43Z</time>
      </trkpt>
      <trkpt lat="48.70417" lon="1.73335">
        <ele>174.4</ele>
        <time>2026-01-31T13:04:44Z</time>
      </trkpt>
      <trkpt lat="48.70414" lon="1.73335">
        <ele>174.4</ele>
        <time>2026-01-31T13:04:45Z</time>
      </trkpt>
      <trkpt lat="48.70412" lon="1.73335">
        <ele>174.4</ele>
        <time>2026-01-31T13:04:46Z</time>
      </trkpt>
      <trkpt lat="48.70411" lon="1.73335">
        <ele>174.4</ele>
        <time>2026-01-31T13:04:47Z</time>
      </trkpt>
      <trkpt lat="48.70408" lon="1.73335">
        <ele>174.4</ele>
        <time>2026-01-31T13:04:48Z</time>
      </trkpt>
      <trkpt lat="48.70406" lon="1.73335">
        <ele>174.2</ele>
        <time>2026-01-31T13:04:49Z</time>
      </trkpt>
      <trkpt lat="48.70403" lon="1.73336">
        <ele>174</ele>
        <time>2026-01-31T13:04:51Z</time>
      </trkpt>
      <trkpt lat="48.70399" lon="1.73337">
        <ele>173.6</ele>
        <time>2026-01-31T13:04:53Z</time>
      </trkpt>
      <trkpt lat="48.70397" lon="1.73338">
        <ele>173.2</ele>
        <time>2026-01-31T13:04:55Z</time>
      </trkpt>
      <trkpt lat="48.70394" lon="1.73339">
        <ele>172.8</ele>
        <time>2026-01-31T13:04:57Z</time>
      </trkpt>
      <trkpt lat="48.7039" lon="1.73339">
        <ele>172.4</ele>
        <time>2026-01-31T13:04:59Z</time>
      </trkpt>
      <trkpt lat="48.70388" lon="1.7334">
        <ele>172.2</ele>
        <time>2026-01-31T13:05:00Z</time>
      </trkpt>
      <trkpt lat="48.70387" lon="1.7334">
        <ele>172</ele>
        <time>2026-01-31T13:05:01Z</time>
      </trkpt>
      <trkpt lat="48.70385" lon="1.73341">
        <ele>171.8</ele>
        <time>2026-01-31T13:05:02Z</time>
      </trkpt>
      <trkpt lat="48.70383" lon="1.73341">
        <ele>171.6</ele>
        <time>2026-01-31T13:05:03Z</time>
      </trkpt>
      <trkpt lat="48.7038" lon="1.73341">
        <ele>171.4</ele>
        <time>2026-01-31T13:05:04Z</time>
      </trkpt>
      <trkpt lat="48.70379" lon="1.73341">
        <ele>171.2</ele>
        <time>2026-01-31T13:05:05Z</time>
      </trkpt>
      <trkpt lat="48.70377" lon="1.73342">
        <ele>171</ele>
        <time>2026-01-31T13:05:06Z</time>
      </trkpt>
      <trkpt lat="48.70373" lon="1.73343">
        <ele>170.8</ele>
        <time>2026-01-31T13:05:08Z</time>
      </trkpt>
      <trkpt lat="48.70371" lon="1.73344">
        <ele>170.6</ele>
        <time>2026-01-31T13:05:10Z</time>
      </trkpt>
      <trkpt lat="48.70368" lon="1.73344">
        <ele>170.6</ele>
        <time>2026-01-31T13:05:12Z</time>
      </trkpt>
      <trkpt lat="48.70366" lon="1.73345">
        <ele>170.4</ele>
        <time>2026-01-31T13:05:15Z</time>
      </trkpt>
      <trkpt lat="48.70364" lon="1.73347">
        <ele>170.2</ele>
        <time>2026-01-31T13:05:17Z</time>
      </trkpt>
      <trkpt lat="48.70362" lon="1.73349">
        <ele>170</ele>
        <time>2026-01-31T13:05:19Z</time>
      </trkpt>
      <trkpt lat="48.70359" lon="1.73351">
        <ele>169.8</ele>
        <time>2026-01-31T13:05:21Z</time>
      </trkpt>
      <trkpt lat="48.70357" lon="1.73352">
        <ele>169.4</ele>
        <time>2026-01-31T13:05:23Z</time>
      </trkpt>
      <trkpt lat="48.70355" lon="1.73352">
        <ele>169.2</ele>
        <time>2026-01-31T13:05:25Z</time>
      </trkpt>
      <trkpt lat="48.70353" lon="1.73351">
        <ele>169</ele>
        <time>2026-01-31T13:05:27Z</time>
      </trkpt>
      <trkpt lat="48.70351" lon="1.7335">
        <ele>168.8</ele>
        <time>2026-01-31T13:05:30Z</time>
      </trkpt>
      <trkpt lat="48.70348" lon="1.73349">
        <ele>168.8</ele>
        <time>2026-01-31T13:05:33Z</time>
      </trkpt>
      <trkpt lat="48.70347" lon="1.7335">
        <ele>168.8</ele>
        <time>2026-01-31T13:05:37Z</time>
        <extensions>
          <gpxtpx:TrackPointExtension xmlns:gpxtpx="http://www.garmin.com/xmlschemas/TrackPointExtension/v1">
            <gpxtpx:hr>101</gpxtpx:hr>
          </gpxtpx:TrackPointExtension>
        </extensions>
      </trkpt>
      <trkpt lat="48.70345" lon="1.73353">
        <ele>168.8</ele>
        <time>2026-01-31T13:05:40Z</time>
        <extensions>
          <gpxtpx:TrackPointExtension xmlns:gpxtpx="http://www.garmin.com/xmlschemas/TrackPointExtension/v1">
            <gpxtpx:hr>101</gpxtpx:hr>
          </gpxtpx:TrackPointExtension>
        </extensions>
      </trkpt>
      <trkpt lat="48.70343" lon="1.73355">
        <ele>168.8</ele>
        <time>2026-01-31T13:05:42Z</time>
        <extensions>
          <gpxtpx:TrackPointExtension xmlns:gpxtpx="http://www.garmin.com/xmlschemas/TrackPointExtension/v1">
            <gpxtpx:hr>101</gpxtpx:hr>
          </gpxtpx:TrackPointExtension>
        </extensions>
      </trkpt>
      <trkpt lat="48.7034" lon="1.73356">
        <ele>168.8</ele>
        <time>2026-01-31T13:05:44Z</time>
        <extensions>
          <gpxtpx:TrackPointExtension xmlns:gpxtpx="http://www.garmin.com/xmlschemas/TrackPointExtension/v1">
            <gpxtpx:hr>101</gpxtpx:hr>
          </gpxtpx:TrackPointExtension>
        </extensions>
      </trkpt>
      <trkpt lat="48.70337" lon="1.73356">
        <ele>169</ele>
        <time>2026-01-31T13:05:45Z</time>
        <extensions>
          <gpxtpx:TrackPointExtension xmlns:gpxtpx="http://www.garmin.com/xmlschemas/TrackPointExtension/v1">
            <gpxtpx:hr>101</gpxtpx:hr>
          </gpxtpx:TrackPointExtension>
        </extensions>
      </trkpt>
      <trkpt lat="48.70335" lon="1.73357">
        <ele>169</ele>
        <time>2026-01-31T13:05:46Z</time>
        <extensions>
          <gpxtpx:TrackPointExtension xmlns:gpxtpx="http://www.garmin.com/xmlschemas/TrackPointExtension/v1">
            <gpxtpx:hr>101</gpxtpx:hr>
          </gpxtpx:TrackPointExtension>
        </extensions>
      </trkpt>
      <trkpt lat="48.70333" lon="1.73357">
        <ele>169</ele>
        <time>2026-01-31T13:05:47Z</time>
        <extensions>
          <gpxtpx:TrackPointExtension xmlns:gpxtpx="http://www.garmin.com/xmlschemas/TrackPointExtension/v1">
            <gpxtpx:hr>101</gpxtpx:hr>
          </gpxtpx:TrackPointExtension>
        </extensions>
      </trkpt>
      <trkpt lat="48.70331" lon="1.73357">
        <ele>169</ele>
        <time>2026-01-31T13:05:48Z</time>
        <extensions>
          <gpxtpx:TrackPointExtension xmlns:gpxtpx="http://www.garmin.com/xmlschemas/TrackPointExtension/v1">
            <gpxtpx:hr>101</gpxtpx:hr>
          </gpxtpx:TrackPointExtension>
        </extensions>
      </trkpt>
      <trkpt lat="48.70329" lon="1.73357">
        <ele>169</ele>
        <time>2026-01-31T13:05:49Z</time>
        <extensions>
          <gpxtpx:TrackPointExtension xmlns:gpxtpx="http://www.garmin.com/xmlschemas/TrackPointExtension/v1">
            <gpxtpx:hr>101</gpxtpx:hr>
          </gpxtpx:TrackPointExtension>
        </extensions>
      </trkpt>
      <trkpt lat="48.70327" lon="1.73356">
        <ele>169</ele>
        <time>2026-01-31T13:05:50Z</time>
        <extensions>
          <gpxtpx:TrackPointExtension xmlns:gpxtpx="http://www.garmin.com/xmlschemas/TrackPointExtension/v1">
            <gpxtpx:hr>101</gpxtpx:hr>
          </gpxtpx:TrackPointExtension>
        </extensions>
      </trkpt>
      <trkpt lat="48.70325" lon="1.73356">
        <ele>169</ele>
        <time>2026-01-31T13:05:51Z</time>
        <extensions>
          <gpxtpx:TrackPointExtension xmlns:gpxtpx="http://www.garmin.com/xmlschemas/TrackPointExtension/v1">
            <gpxtpx:hr>101</gpxtpx:hr>
          </gpxtpx:TrackPointExtension>
        </extensions>
      </trkpt>
      <trkpt lat="48.70323" lon="1.73356">
        <ele>169</ele>
        <time>2026-01-31T13:05:52Z</time>
        <extensions>
          <gpxtpx:TrackPointExtension xmlns:gpxtpx="http://www.garmin.com/xmlschemas/TrackPointExtension/v1">
            <gpxtpx:hr>101</gpxtpx:hr>
          </gpxtpx:TrackPointExtension>
        </extensions>
      </trkpt>
      <trkpt lat="48.70321" lon="1.73355">
        <ele>169</ele>
        <time>2026-01-31T13:05:53Z</time>
        <extensions>
          <gpxtpx:TrackPointExtension xmlns:gpxtpx="http://www.garmin.com/xmlschemas/TrackPointExtension/v1">
            <gpxtpx:hr>101</gpxtpx:hr>
          </gpxtpx:TrackPointExtension>
        </extensions>
      </trkpt>
      <trkpt lat="48.70319" lon="1.73356">
        <ele>169</ele>
        <time>2026-01-31T13:05:55Z</time>
        <extensions>
          <gpxtpx:TrackPointExtension xmlns:gpxtpx="http://www.garmin.com/xmlschemas/TrackPointExtension/v1">
            <gpxtpx:hr>101</gpxtpx:hr>
          </gpxtpx:TrackPointExtension>
        </extensions>
      </trkpt>
      <trkpt lat="48.70316" lon="1.73357">
        <ele>169</ele>
        <time>2026-01-31T13:05:57Z</time>
        <extensions>
          <gpxtpx:TrackPointExtension xmlns:gpxtpx="http://www.garmin.com/xmlschemas/TrackPointExtension/v1">
            <gpxtpx:hr>101</gpxtpx:hr>
          </gpxtpx:TrackPointExtension>
        </extensions>
      </trkpt>
      <trkpt lat="48.70314" lon="1.73358">
        <ele>169.2</ele>
        <time>2026-01-31T13:05:59Z</time>
        <extensions>
          <gpxtpx:TrackPointExtension xmlns:gpxtpx="http://www.garmin.com/xmlschemas/TrackPointExtension/v1">
            <gpxtpx:hr>101</gpxtpx:hr>
          </gpxtpx:TrackPointExtension>
        </extensions>
      </trkpt>
      <trkpt lat="48.70312" lon="1.73359">
        <ele>169.2</ele>
        <time>2026-01-31T13:06:00Z</time>
        <extensions>
          <gpxtpx:TrackPointExtension xmlns:gpxtpx="http://www.garmin.com/xmlschemas/TrackPointExtension/v1">
            <gpxtpx:hr>101</gpxtpx:hr>
          </gpxtpx:TrackPointExtension>
        </extensions>
      </trkpt>
      <trkpt lat="48.70308" lon="1.7336">
        <ele>169.6</ele>
        <time>2026-01-31T13:06:02Z</time>
        <extensions>
          <gpxtpx:TrackPointExtension xmlns:gpxtpx="http://www.garmin.com/xmlschemas/TrackPointExtension/v1">
            <gpxtpx:hr>101</gpxtpx:hr>
          </gpxtpx:TrackPointExtension>
        </extensions>
      </trkpt>
      <trkpt lat="48.70305" lon="1.7336">
        <ele>170</ele>
        <time>2026-01-31T13:06:04Z</time>
        <extensions>
          <gpxtpx:TrackPointExtension xmlns:gpxtpx="http://www.garmin.com/xmlschemas/TrackPointExtension/v1">
            <gpxtpx:hr>101</gpxtpx:hr>
          </gpxtpx:TrackPointExtension>
        </extensions>
      </trkpt>
      <trkpt lat="48.70303" lon="1.73359">
        <ele>170.4</ele>
        <time>2026-01-31T13:06:07Z</time>
        <extensions>
          <gpxtpx:TrackPointExtension xmlns:gpxtpx="http://www.garmin.com/xmlschemas/TrackPointExtension/v1">
            <gpxtpx:hr>101</gpxtpx:hr>
          </gpxtpx:TrackPointExtension>
        </extensions>
      </trkpt>
      <trkpt lat="48.70301" lon="1.73359">
        <ele>171</ele>
        <time>2026-01-31T13:06:14Z</time>
        <extensions>
          <gpxtpx:TrackPointExtension xmlns:gpxtpx="http://www.garmin.com/xmlschemas/TrackPointExtension/v1">
            <gpxtpx:hr>100</gpxtpx:hr>
          </gpxtpx:TrackPointExtension>
        </extensions>
      </trkpt>
      <trkpt lat="48.70299" lon="1.73359">
        <ele>171.2</ele>
        <time>2026-01-31T13:06:16Z</time>
        <extensions>
          <gpxtpx:TrackPointExtension xmlns:gpxtpx="http://www.garmin.com/xmlschemas/TrackPointExtension/v1">
            <gpxtpx:hr>100</gpxtpx:hr>
          </gpxtpx:TrackPointExtension>
        </extensions>
      </trkpt>
      <trkpt lat="48.70296" lon="1.7336">
        <ele>171.2</ele>
        <time>2026-01-31T13:06:18Z</time>
      </trkpt>
      <trkpt lat="48.70293" lon="1.7336">
        <ele>171.4</ele>
        <time>2026-01-31T13:06:20Z</time>
      </trkpt>
      <trkpt lat="48.7029" lon="1.73361">
        <ele>171.4</ele>
        <time>2026-01-31T13:06:22Z</time>
      </trkpt>
      <trkpt lat="48.70287" lon="1.73362">
        <ele>171.6</ele>
        <time>2026-01-31T13:06:24Z</time>
      </trkpt>
      <trkpt lat="48.70285" lon="1.73362">
        <ele>171.6</ele>
        <time>2026-01-31T13:06:25Z</time>
      </trkpt>
      <trkpt lat="48.70283" lon="1.73363">
        <ele>171.6</ele>
        <time>2026-01-31T13:06:26Z</time>
      </trkpt>
      <trkpt lat="48.70281" lon="1.73363">
        <ele>171.6</ele>
        <time>2026-01-31T13:06:27Z</time>
      </trkpt>
      <trkpt lat="48.70279" lon="1.73363">
        <ele>171.6</ele>
        <time>2026-01-31T13:06:28Z</time>
      </trkpt>
      <trkpt lat="48.70277" lon="1.73363">
        <ele>171.8</ele>
        <time>2026-01-31T13:06:29Z</time>
      </trkpt>
      <trkpt lat="48.70275" lon="1.73364">
        <ele>171.8</ele>
        <time>2026-01-31T13:06:30Z</time>
      </trkpt>
      <trkpt lat="48.70273" lon="1.73365">
        <ele>171.8</ele>
        <time>2026-01-31T13:06:31Z</time>
      </trkpt>
      <trkpt lat="48.7027" lon="1.73366">
        <ele>171.8</ele>
        <time>2026-01-31T13:06:32Z</time>
      </trkpt>
      <trkpt lat="48.70268" lon="1.73367">
        <ele>171.8</ele>
        <time>2026-01-31T13:06:33Z</time>
      </trkpt>
      <trkpt lat="48.70266" lon="1.73368">
        <ele>171.8</ele>
        <time>2026-01-31T13:06:34Z</time>
      </trkpt>
      <trkpt lat="48.70264" lon="1.73369">
        <ele>172</ele>
        <time>2026-01-31T13:06:35Z</time>
      </trkpt>
      <trkpt lat="48.70262" lon="1.7337">
        <ele>172</ele>
        <time>2026-01-31T13:06:36Z</time>
      </trkpt>
      <trkpt lat="48.7026" lon="1.7337">
        <ele>172</ele>
        <time>2026-01-31T13:06:37Z</time>
      </trkpt>
      <trkpt lat="48.70257" lon="1.73371">
        <ele>172</ele>
        <time>2026-01-31T13:06:38Z</time>
      </trkpt>
      <trkpt lat="48.70255" lon="1.73371">
        <ele>172</ele>
        <time>2026-01-31T13:06:39Z</time>
      </trkpt>
      <trkpt lat="48.70252" lon="1.73371">
        <ele>172</ele>
        <time>2026-01-31T13:06:41Z</time>
      </trkpt>
      <trkpt lat="48.7025" lon="1.73371">
        <ele>172</ele>
        <time>2026-01-31T13:06:43Z</time>
      </trkpt>
      <trkpt lat="48.70247" lon="1.73372">
        <ele>172</ele>
        <time>2026-01-31T13:06:45Z</time>
      </trkpt>
      <trkpt lat="48.70244" lon="1.73372">
        <ele>172.2</ele>
        <time>2026-01-31T13:06:47Z</time>
      </trkpt>
      <trkpt lat="48.70242" lon="1.73373">
        <ele>172</ele>
        <time>2026-01-31T13:06:49Z</time>
      </trkpt>
      <trkpt lat="48.7024" lon="1.73374">
        <ele>172</ele>
        <time>2026-01-31T13:06:51Z</time>
      </trkpt>
      <trkpt lat="48.70236" lon="1.73376">
        <ele>172.2</ele>
        <time>2026-01-31T13:06:53Z</time>
      </trkpt>
      <trkpt lat="48.70233" lon="1.73378">
        <ele>172.2</ele>
        <time>2026-01-31T13:06:55Z</time>
      </trkpt>
      <trkpt lat="48.7023" lon="1.7338">
        <ele>172.4</ele>
        <time>2026-01-31T13:06:57Z</time>
      </trkpt>
      <trkpt lat="48.70228" lon="1.7338">
        <ele>172.6</ele>
        <time>2026-01-31T13:06:58Z</time>
      </trkpt>
      <trkpt lat="48.70225" lon="1.73381">
        <ele>172.6</ele>
        <time>2026-01-31T13:07:00Z</time>
      </trkpt>
      <trkpt lat="48.70222" lon="1.73382">
        <ele>172.8</ele>
        <time>2026-01-31T13:07:02Z</time>
      </trkpt>
      <trkpt lat="48.70219" lon="1.73383">
        <ele>172.8</ele>
        <time>2026-01-31T13:07:04Z</time>
      </trkpt>
      <trkpt lat="48.70216" lon="1.73384">
        <ele>172.6</ele>
        <time>2026-01-31T13:07:07Z</time>
      </trkpt>
      <trkpt lat="48.70214" lon="1.73386">
        <ele>172.6</ele>
        <time>2026-01-31T13:07:09Z</time>
      </trkpt>
      <trkpt lat="48.70212" lon="1.73389">
        <ele>172.4</ele>
        <time>2026-01-31T13:07:12Z</time>
      </trkpt>
      <trkpt lat="48.7021" lon="1.73391">
        <ele>172.4</ele>
        <time>2026-01-31T13:07:14Z</time>
      </trkpt>
      <trkpt lat="48.70206" lon="1.73392">
        <ele>172.2</ele>
        <time>2026-01-31T13:07:16Z</time>
      </trkpt>
      <trkpt lat="48.70204" lon="1.73393">
        <ele>172</ele>
        <time>2026-01-31T13:07:18Z</time>
      </trkpt>
      <trkpt lat="48.702" lon="1.73394">
        <ele>172</ele>
        <time>2026-01-31T13:07:20Z</time>
      </trkpt>
      <trkpt lat="48.70198" lon="1.73395">
        <ele>171.8</ele>
        <time>2026-01-31T13:07:22Z</time>
      </trkpt>
      <trkpt lat="48.70195" lon="1.73396">
        <ele>171.8</ele>
        <time>2026-01-31T13:07:24Z</time>
      </trkpt>
      <trkpt lat="48.70192" lon="1.73397">
        <ele>171.6</ele>
        <time>2026-01-31T13:07:26Z</time>
      </trkpt>
      <trkpt lat="48.7019" lon="1.73397">
        <ele>171.4</ele>
        <time>2026-01-31T13:07:28Z</time>
      </trkpt>
      <trkpt lat="48.70188" lon="1.73398">
        <ele>171.2</ele>
        <time>2026-01-31T13:07:31Z</time>
      </trkpt>
      <trkpt lat="48.70186" lon="1.73399">
        <ele>170.8</ele>
        <time>2026-01-31T13:07:35Z</time>
      </trkpt>
      <trkpt lat="48.70184" lon="1.73399">
        <ele>170.6</ele>
        <time>2026-01-31T13:07:37Z</time>
      </trkpt>
      <trkpt lat="48.70181" lon="1.73398">
        <ele>170.4</ele>
        <time>2026-01-31T13:07:39Z</time>
      </trkpt>
      <trkpt lat="48.70178" lon="1.73398">
        <ele>170.4</ele>
        <time>2026-01-31T13:07:41Z</time>
      </trkpt>
      <trkpt lat="48.70175" lon="1.73398">
        <ele>170.4</ele>
        <time>2026-01-31T13:07:43Z</time>
      </trkpt>
      <trkpt lat="48.70172" lon="1.73399">
        <ele>170.2</ele>
        <time>2026-01-31T13:07:45Z</time>
      </trkpt>
      <trkpt lat="48.7017" lon="1.73399">
        <ele>170.2</ele>
        <time>2026-01-31T13:07:47Z</time>
      </trkpt>
      <trkpt lat="48.70168" lon="1.73399">
        <ele>170</ele>
        <time>2026-01-31T13:07:49Z</time>
      </trkpt>
      <trkpt lat="48.70166" lon="1.73399">
        <ele>169.8</ele>
        <time>2026-01-31T13:07:51Z</time>
      </trkpt>
      <trkpt lat="48.70163" lon="1.73398">
        <ele>169.8</ele>
        <time>2026-01-31T13:07:54Z</time>
      </trkpt>
      <trkpt lat="48.7016" lon="1.73398">
        <ele>169.6</ele>
        <time>2026-01-31T13:07:56Z</time>
      </trkpt>
      <trkpt lat="48.70157" lon="1.73398">
        <ele>169.4</ele>
        <time>2026-01-31T13:07:58Z</time>
      </trkpt>
      <trkpt lat="48.70154" lon="1.73398">
        <ele>169.4</ele>
        <time>2026-01-31T13:08:00Z</time>
      </trkpt>
      <trkpt lat="48.70152" lon="1.73398">
        <ele>169.2</ele>
        <time>2026-01-31T13:08:01Z</time>
      </trkpt>
      <trkpt lat="48.70149" lon="1.73399">
        <ele>169.2</ele>
        <time>2026-01-31T13:08:03Z</time>
      </trkpt>
      <trkpt lat="48.70146" lon="1.73399">
        <ele>169.2</ele>
        <time>2026-01-31T13:08:05Z</time>
      </trkpt>
      <trkpt lat="48.70143" lon="1.734">
        <ele>169</ele>
        <time>2026-01-31T13:08:07Z</time>
      </trkpt>
      <trkpt lat="48.70141" lon="1.73401">
        <ele>169</ele>
        <time>2026-01-31T13:08:08Z</time>
      </trkpt>
      <trkpt lat="48.70139" lon="1.73401">
        <ele>168.8</ele>
        <time>2026-01-31T13:08:09Z</time>
      </trkpt>
      <trkpt lat="48.70137" lon="1.73401">
        <ele>168.8</ele>
        <time>2026-01-31T13:08:10Z</time>
      </trkpt>
      <trkpt lat="48.70135" lon="1.73401">
        <ele>168.8</ele>
        <time>2026-01-31T13:08:11Z</time>
      </trkpt>
      <trkpt lat="48.70132" lon="1.73401">
        <ele>168.8</ele>
        <time>2026-01-31T13:08:12Z</time>
      </trkpt>
      <trkpt lat="48.70131" lon="1.734">
        <ele>168.6</ele>
        <time>2026-01-31T13:08:13Z</time>
      </trkpt>
      <trkpt lat="48.70129" lon="1.734">
        <ele>168.6</ele>
        <time>2026-01-31T13:08:14Z</time>
      </trkpt>
      <trkpt lat="48.70126" lon="1.734">
        <ele>168.6</ele>
        <time>2026-01-31T13:08:16Z</time>
      </trkpt>
      <trkpt lat="48.70123" lon="1.734">
        <ele>168.8</ele>
        <time>2026-01-31T13:08:18Z</time>
      </trkpt>
      <trkpt lat="48.70121" lon="1.73401">
        <ele>168.8</ele>
        <time>2026-01-31T13:08:20Z</time>
      </trkpt>
      <trkpt lat="48.70117" lon="1.73401">
        <ele>169</ele>
        <time>2026-01-31T13:08:22Z</time>
      </trkpt>
      <trkpt lat="48.70114" lon="1.73402">
        <ele>169.2</ele>
        <time>2026-01-31T13:08:24Z</time>
      </trkpt>
      <trkpt lat="48.70111" lon="1.73402">
        <ele>169.2</ele>
        <time>2026-01-31T13:08:26Z</time>
      </trkpt>
      <trkpt lat="48.70108" lon="1.73402">
        <ele>169.4</ele>
        <time>2026-01-31T13:08:28Z</time>
      </trkpt>
      <trkpt lat="48.70106" lon="1.73402">
        <ele>169.4</ele>
        <time>2026-01-31T13:08:29Z</time>
      </trkpt>
      <trkpt lat="48.70104" lon="1.73402">
        <ele>169.4</ele>
        <time>2026-01-31T13:08:30Z</time>
      </trkpt>
      <trkpt lat="48.70101" lon="1.73402">
        <ele>169.4</ele>
        <time>2026-01-31T13:08:31Z</time>
      </trkpt>
      <trkpt lat="48.701" lon="1.73402">
        <ele>169.4</ele>
        <time>2026-01-31T13:08:32Z</time>
      </trkpt>
      <trkpt lat="48.70098" lon="1.73401">
        <ele>169.4</ele>
        <time>2026-01-31T13:08:33Z</time>
      </trkpt>
      <trkpt lat="48.70096" lon="1.73402">
        <ele>169.4</ele>
        <time>2026-01-31T13:08:34Z</time>
      </trkpt>
      <trkpt lat="48.70093" lon="1.73402">
        <ele>169.4</ele>
        <time>2026-01-31T13:08:36Z</time>
      </trkpt>
      <trkpt lat="48.70091" lon="1.73403">
        <ele>169.2</ele>
        <time>2026-01-31T13:08:38Z</time>
      </trkpt>
      <trkpt lat="48.70089" lon="1.73403">
        <ele>169.2</ele>
        <time>2026-01-31T13:08:40Z</time>
      </trkpt>
      <trkpt lat="48.70087" lon="1.73402">
        <ele>169.2</ele>
        <time>2026-01-31T13:08:42Z</time>
      </trkpt>
      <trkpt lat="48.70084" lon="1.734">
        <ele>169.2</ele>
        <time>2026-01-31T13:08:44Z</time>
      </trkpt>
      <trkpt lat="48.70081" lon="1.734">
        <ele>169.2</ele>
        <time>2026-01-31T13:08:46Z</time>
      </trkpt>
      <trkpt lat="48.70078" lon="1.734">
        <ele>169</ele>
        <time>2026-01-31T13:08:48Z</time>
      </trkpt>
      <trkpt lat="48.70075" lon="1.73401">
        <ele>169.2</ele>
        <time>2026-01-31T13:08:50Z</time>
      </trkpt>
      <trkpt lat="48.70073" lon="1.73402">
        <ele>169.2</ele>
        <time>2026-01-31T13:08:52Z</time>
      </trkpt>
      <trkpt lat="48.7007" lon="1.73404">
        <ele>169.2</ele>
        <time>2026-01-31T13:08:54Z</time>
      </trkpt>
      <trkpt lat="48.70067" lon="1.73407">
        <ele>169.2</ele>
        <time>2026-01-31T13:08:56Z</time>
      </trkpt>
      <trkpt lat="48.70065" lon="1.7341">
        <ele>169.4</ele>
        <time>2026-01-31T13:08:58Z</time>
      </trkpt>
      <trkpt lat="48.70062" lon="1.73412">
        <ele>169.4</ele>
        <time>2026-01-31T13:09:00Z</time>
      </trkpt>
      <trkpt lat="48.70059" lon="1.73412">
        <ele>169.4</ele>
        <time>2026-01-31T13:09:02Z</time>
      </trkpt>
      <trkpt lat="48.70057" lon="1.73412">
        <ele>169.4</ele>
        <time>2026-01-31T13:09:04Z</time>
      </trkpt>
      <trkpt lat="48.70053" lon="1.73412">
        <ele>169.4</ele>
        <time>2026-01-31T13:09:06Z</time>
      </trkpt>
      <trkpt lat="48.70051" lon="1.73412">
        <ele>169.6</ele>
        <time>2026-01-31T13:09:08Z</time>
      </trkpt>
      <trkpt lat="48.70049" lon="1.73413">
        <ele>169.6</ele>
        <time>2026-01-31T13:09:10Z</time>
      </trkpt>
      <trkpt lat="48.70047" lon="1.73413">
        <ele>169.8</ele>
        <time>2026-01-31T13:09:12Z</time>
      </trkpt>
      <trkpt lat="48.70045" lon="1.73413">
        <ele>169.8</ele>
        <time>2026-01-31T13:09:14Z</time>
      </trkpt>
      <trkpt lat="48.70042" lon="1.73412">
        <ele>169.8</ele>
        <time>2026-01-31T13:09:16Z</time>
      </trkpt>
      <trkpt lat="48.70039" lon="1.73412">
        <ele>170</ele>
        <time>2026-01-31T13:09:18Z</time>
      </trkpt>
      <trkpt lat="48.70036" lon="1.73411">
        <ele>169.8</ele>
        <time>2026-01-31T13:09:20Z</time>
      </trkpt>
      <trkpt lat="48.70034" lon="1.73411">
        <ele>169.8</ele>
        <time>2026-01-31T13:09:22Z</time>
      </trkpt>
      <trkpt lat="48.70031" lon="1.73411">
        <ele>169.6</ele>
        <time>2026-01-31T13:09:24Z</time>
      </trkpt>
      <trkpt lat="48.70029" lon="1.73412">
        <ele>169.4</ele>
        <time>2026-01-31T13:09:26Z</time>
      </trkpt>
      <trkpt lat="48.70028" lon="1.73413">
        <ele>169</ele>
        <time>2026-01-31T13:09:28Z</time>
      </trkpt>
      <trkpt lat="48.70025" lon="1.73416">
        <ele>168.8</ele>
        <time>2026-01-31T13:09:30Z</time>
      </trkpt>
      <trkpt lat="48.70023" lon="1.73418">
        <ele>168.6</ele>
        <time>2026-01-31T13:09:32Z</time>
      </trkpt>
      <trkpt lat="48.7002" lon="1.7342">
        <ele>168.4</ele>
        <time>2026-01-31T13:09:34Z</time>
      </trkpt>
      <trkpt lat="48.70018" lon="1.73421">
        <ele>168.2</ele>
        <time>2026-01-31T13:09:36Z</time>
      </trkpt>
      <trkpt lat="48.70015" lon="1.73421">
        <ele>168</ele>
        <time>2026-01-31T13:09:38Z</time>
      </trkpt>
      <trkpt lat="48.70013" lon="1.73421">
        <ele>168</ele>
        <time>2026-01-31T13:09:40Z</time>
      </trkpt>
      <trkpt lat="48.70011" lon="1.73422">
        <ele>168</ele>
        <time>2026-01-31T13:09:43Z</time>
      </trkpt>
      <trkpt lat="48.70008" lon="1.73422">
        <ele>168.2</ele>
        <time>2026-01-31T13:09:45Z</time>
      </trkpt>
      <trkpt lat="48.70005" lon="1.73423">
        <ele>168.2</ele>
        <time>2026-01-31T13:09:47Z</time>
      </trkpt>
      <trkpt lat="48.70002" lon="1.73426">
        <ele>168.2</ele>
        <time>2026-01-31T13:09:49Z</time>
      </trkpt>
      <trkpt lat="48.7" lon="1.73427">
        <ele>168.2</ele>
        <time>2026-01-31T13:09:50Z</time>
      </trkpt>
      <trkpt lat="48.69997" lon="1.7343">
        <ele>168.2</ele>
        <time>2026-01-31T13:09:52Z</time>
      </trkpt>
      <trkpt lat="48.69994" lon="1.73432">
        <ele>168.2</ele>
        <time>2026-01-31T13:09:54Z</time>
      </trkpt>
      <trkpt lat="48.69992" lon="1.73432">
        <ele>168.2</ele>
        <time>2026-01-31T13:09:55Z</time>
      </trkpt>
      <trkpt lat="48.6999" lon="1.73433">
        <ele>168</ele>
        <time>2026-01-31T13:09:56Z</time>
      </trkpt>
      <trkpt lat="48.69988" lon="1.73434">
        <ele>168</ele>
        <time>2026-01-31T13:09:57Z</time>
      </trkpt>
      <trkpt lat="48.69986" lon="1.73434">
        <ele>168</ele>
        <time>2026-01-31T13:09:58Z</time>
      </trkpt>
      <trkpt lat="48.69983" lon="1.73435">
        <ele>168</ele>
        <time>2026-01-31T13:10:00Z</time>
      </trkpt>
      <trkpt lat="48.69981" lon="1.73436">
        <ele>168</ele>
        <time>2026-01-31T13:10:02Z</time>
      </trkpt>
      <trkpt lat="48.69979" lon="1.73436">
        <ele>167.8</ele>
        <time>2026-01-31T13:10:04Z</time>
      </trkpt>
      <trkpt lat="48.69977" lon="1.73436">
        <ele>167.8</ele>
        <time>2026-01-31T13:10:06Z</time>
      </trkpt>
      <trkpt lat="48.69974" lon="1.73437">
        <ele>167.8</ele>
        <time>2026-01-31T13:10:08Z</time>
      </trkpt>
      <trkpt lat="48.69972" lon="1.73438">
        <ele>167.8</ele>
        <time>2026-01-31T13:10:10Z</time>
      </trkpt>
      <trkpt lat="48.69969" lon="1.73438">
        <ele>168</ele>
        <time>2026-01-31T13:10:12Z</time>
      </trkpt>
      <trkpt lat="48.69966" lon="1.73439">
        <ele>168.2</ele>
        <time>2026-01-31T13:10:14Z</time>
      </trkpt>
      <trkpt lat="48.69963" lon="1.7344">
        <ele>168.2</ele>
        <time>2026-01-31T13:10:16Z</time>
      </trkpt>
      <trkpt lat="48.69961" lon="1.73441">
        <ele>168.4</ele>
        <time>2026-01-31T13:10:18Z</time>
      </trkpt>
      <trkpt lat="48.69959" lon="1.73443">
        <ele>168.6</ele>
        <time>2026-01-31T13:10:20Z</time>
      </trkpt>
      <trkpt lat="48.69956" lon="1.73445">
        <ele>168.6</ele>
        <time>2026-01-31T13:10:22Z</time>
      </trkpt>
      <trkpt lat="48.69954" lon="1.73447">
        <ele>168.8</ele>
        <time>2026-01-31T13:10:24Z</time>
      </trkpt>
      <trkpt lat="48.69951" lon="1.73448">
        <ele>169</ele>
        <time>2026-01-31T13:10:26Z</time>
      </trkpt>
      <trkpt lat="48.69948" lon="1.73449">
        <ele>169.2</ele>
        <time>2026-01-31T13:10:28Z</time>
      </trkpt>
      <trkpt lat="48.69945" lon="1.7345">
        <ele>169.2</ele>
        <time>2026-01-31T13:10:30Z</time>
      </trkpt>
      <trkpt lat="48.69942" lon="1.7345">
        <ele>169.2</ele>
        <time>2026-01-31T13:10:32Z</time>
      </trkpt>
      <trkpt lat="48.6994" lon="1.7345">
        <ele>169.2</ele>
        <time>2026-01-31T13:10:34Z</time>
      </trkpt>
      <trkpt lat="48.69938" lon="1.7345">
        <ele>169.2</ele>
        <time>2026-01-31T13:10:36Z</time>
      </trkpt>
      <trkpt lat="48.69936" lon="1.73451">
        <ele>169.2</ele>
        <time>2026-01-31T13:10:39Z</time>
      </trkpt>
      <trkpt lat="48.69933" lon="1.7345">
        <ele>169.2</ele>
        <time>2026-01-31T13:10:42Z</time>
      </trkpt>
      <trkpt lat="48.69932" lon="1.7345">
        <ele>169.2</ele>
        <time>2026-01-31T13:10:44Z</time>
      </trkpt>
      <trkpt lat="48.6993" lon="1.7345">
        <ele>169</ele>
        <time>2026-01-31T13:10:46Z</time>
      </trkpt>
      <trkpt lat="48.69928" lon="1.73451">
        <ele>169</ele>
        <time>2026-01-31T13:10:48Z</time>
      </trkpt>
      <trkpt lat="48.69925" lon="1.73451">
        <ele>169</ele>
        <time>2026-01-31T13:10:50Z</time>
      </trkpt>
      <trkpt lat="48.69923" lon="1.73451">
        <ele>169.2</ele>
        <time>2026-01-31T13:10:52Z</time>
      </trkpt>
      <trkpt lat="48.6992" lon="1.73451">
        <ele>169.2</ele>
        <time>2026-01-31T13:10:54Z</time>
      </trkpt>
      <trkpt lat="48.69918" lon="1.73452">
        <ele>169</ele>
        <time>2026-01-31T13:10:56Z</time>
      </trkpt>
      <trkpt lat="48.69915" lon="1.73452">
        <ele>169</ele>
        <time>2026-01-31T13:10:58Z</time>
      </trkpt>
      <trkpt lat="48.69913" lon="1.73452">
        <ele>169</ele>
        <time>2026-01-31T13:11:00Z</time>
      </trkpt>
      <trkpt lat="48.69911" lon="1.73453">
        <ele>168.8</ele>
        <time>2026-01-31T13:11:03Z</time>
      </trkpt>
      <trkpt lat="48.69908" lon="1.73454">
        <ele>168.8</ele>
        <time>2026-01-31T13:11:06Z</time>
      </trkpt>
      <trkpt lat="48.69906" lon="1.73456">
        <ele>168.6</ele>
        <time>2026-01-31T13:11:08Z</time>
      </trkpt>
      <trkpt lat="48.69904" lon="1.73457">
        <ele>168.6</ele>
        <time>2026-01-31T13:11:09Z</time>
      </trkpt>
      <trkpt lat="48.69902" lon="1.73458">
        <ele>168.6</ele>
        <time>2026-01-31T13:11:10Z</time>
      </trkpt>
      <trkpt lat="48.69898" lon="1.73459">
        <ele>168.6</ele>
        <time>2026-01-31T13:11:12Z</time>
      </trkpt>
      <trkpt lat="48.69895" lon="1.7346">
        <ele>168.4</ele>
        <time>2026-01-31T13:11:14Z</time>
      </trkpt>
      <trkpt lat="48.69893" lon="1.73462">
        <ele>168.4</ele>
        <time>2026-01-31T13:11:16Z</time>
      </trkpt>
      <trkpt lat="48.69891" lon="1.73465">
        <ele>168.2</ele>
        <time>2026-01-31T13:11:18Z</time>
      </trkpt>
      <trkpt lat="48.69889" lon="1.73467">
        <ele>168.2</ele>
        <time>2026-01-31T13:11:20Z</time>
      </trkpt>
      <trkpt lat="48.69887" lon="1.73469">
        <ele>168.2</ele>
        <time>2026-01-31T13:11:22Z</time>
      </trkpt>
      <trkpt lat="48.69885" lon="1.73468">
        <ele>168.2</ele>
        <time>2026-01-31T13:11:26Z</time>
      </trkpt>
      <trkpt lat="48.69882" lon="1.73467">
        <ele>168.2</ele>
        <time>2026-01-31T13:11:29Z</time>
      </trkpt>
      <trkpt lat="48.6988" lon="1.73468">
        <ele>168.2</ele>
        <time>2026-01-31T13:11:31Z</time>
      </trkpt>
      <trkpt lat="48.69878" lon="1.7347">
        <ele>168</ele>
        <time>2026-01-31T13:11:33Z</time>
      </trkpt>
      <trkpt lat="48.69876" lon="1.73473">
        <ele>168</ele>
        <time>2026-01-31T13:11:35Z</time>
      </trkpt>
      <trkpt lat="48.69873" lon="1.73475">
        <ele>168</ele>
        <time>2026-01-31T13:11:37Z</time>
      </trkpt>
      <trkpt lat="48.69871" lon="1.73478">
        <ele>168</ele>
        <time>2026-01-31T13:11:39Z</time>
      </trkpt>
      <trkpt lat="48.69869" lon="1.73482">
        <ele>167.8</ele>
        <time>2026-01-31T13:11:41Z</time>
      </trkpt>
      <trkpt lat="48.69868" lon="1.73485">
        <ele>167.8</ele>
        <time>2026-01-31T13:11:43Z</time>
      </trkpt>
      <trkpt lat="48.69867" lon="1.73488">
        <ele>167.8</ele>
        <time>2026-01-31T13:11:45Z</time>
      </trkpt>
      <trkpt lat="48.69865" lon="1.73491">
        <ele>167.6</ele>
        <time>2026-01-31T13:11:47Z</time>
      </trkpt>
      <trkpt lat="48.69863" lon="1.73494">
        <ele>167.4</ele>
        <time>2026-01-31T13:11:49Z</time>
      </trkpt>
      <trkpt lat="48.6986" lon="1.73497">
        <ele>167.2</ele>
        <time>2026-01-31T13:11:51Z</time>
      </trkpt>
      <trkpt lat="48.69859" lon="1.73499">
        <ele>167.2</ele>
        <time>2026-01-31T13:11:52Z</time>
      </trkpt>
      <trkpt lat="48.69857" lon="1.735">
        <ele>167.2</ele>
        <time>2026-01-31T13:11:53Z</time>
      </trkpt>
      <trkpt lat="48.69855" lon="1.73503">
        <ele>167</ele>
        <time>2026-01-31T13:11:55Z</time>
      </trkpt>
      <trkpt lat="48.69855" lon="1.73506">
        <ele>167</ele>
        <time>2026-01-31T13:11:57Z</time>
      </trkpt>
      <trkpt lat="48.69855" lon="1.7351">
        <ele>166.8</ele>
        <time>2026-01-31T13:11:59Z</time>
      </trkpt>
      <trkpt lat="48.69855" lon="1.73513">
        <ele>166.8</ele>
        <time>2026-01-31T13:12:01Z</time>
      </trkpt>
      <trkpt lat="48.69855" lon="1.73516">
        <ele>166.6</ele>
        <time>2026-01-31T13:12:03Z</time>
      </trkpt>
      <trkpt lat="48.69853" lon="1.73519">
        <ele>166.6</ele>
        <time>2026-01-31T13:12:05Z</time>
      </trkpt>
      <trkpt lat="48.69852" lon="1.73522">
        <ele>166.6</ele>
        <time>2026-01-31T13:12:07Z</time>
      </trkpt>
      <trkpt lat="48.6985" lon="1.73525">
        <ele>166.4</ele>
        <time>2026-01-31T13:12:09Z</time>
      </trkpt>
      <trkpt lat="48.69849" lon="1.73528">
        <ele>166.4</ele>
        <time>2026-01-31T13:12:11Z</time>
      </trkpt>
      <trkpt lat="48.69847" lon="1.7353">
        <ele>166.4</ele>
        <time>2026-01-31T13:12:13Z</time>
      </trkpt>
      <trkpt lat="48.69845" lon="1.73533">
        <ele>166.6</ele>
        <time>2026-01-31T13:12:16Z</time>
      </trkpt>
      <trkpt lat="48.69844" lon="1.73536">
        <ele>166.6</ele>
        <time>2026-01-31T13:12:18Z</time>
      </trkpt>
      <trkpt lat="48.69842" lon="1.73539">
        <ele>166.8</ele>
        <time>2026-01-31T13:12:20Z</time>
      </trkpt>
      <trkpt lat="48.6984" lon="1.73543">
        <ele>167</ele>
        <time>2026-01-31T13:12:23Z</time>
      </trkpt>
      <trkpt lat="48.69839" lon="1.73545">
        <ele>167</ele>
        <time>2026-01-31T13:12:25Z</time>
      </trkpt>
      <trkpt lat="48.69837" lon="1.73548">
        <ele>167</ele>
        <time>2026-01-31T13:12:28Z</time>
      </trkpt>
      <trkpt lat="48.69836" lon="1.7355">
        <ele>167</ele>
        <time>2026-01-31T13:12:30Z</time>
      </trkpt>
      <trkpt lat="48.69836" lon="1.73553">
        <ele>167</ele>
        <time>2026-01-31T13:12:32Z</time>
      </trkpt>
      <trkpt lat="48.69835" lon="1.73557">
        <ele>167</ele>
        <time>2026-01-31T13:12:34Z</time>
      </trkpt>
      <trkpt lat="48.69834" lon="1.7356">
        <ele>167.2</ele>
        <time>2026-01-31T13:12:36Z</time>
      </trkpt>
      <trkpt lat="48.69833" lon="1.73563">
        <ele>167.2</ele>
        <time>2026-01-31T13:12:38Z</time>
      </trkpt>
      <trkpt lat="48.69831" lon="1.73567">
        <ele>167.2</ele>
        <time>2026-01-31T13:12:41Z</time>
      </trkpt>
      <trkpt lat="48.69829" lon="1.73568">
        <ele>167.2</ele>
        <time>2026-01-31T13:12:42Z</time>
      </trkpt>
      <trkpt lat="48.69828" lon="1.73571">
        <ele>167.2</ele>
        <time>2026-01-31T13:12:43Z</time>
      </trkpt>
      <trkpt lat="48.69826" lon="1.73573">
        <ele>167.2</ele>
        <time>2026-01-31T13:12:44Z</time>
      </trkpt>
      <trkpt lat="48.69824" lon="1.73575">
        <ele>167.2</ele>
        <time>2026-01-31T13:12:45Z</time>
      </trkpt>
      <trkpt lat="48.69821" lon="1.73577">
        <ele>167.2</ele>
        <time>2026-01-31T13:12:46Z</time>
      </trkpt>
      <trkpt lat="48.6982" lon="1.73579">
        <ele>167</ele>
        <time>2026-01-31T13:12:47Z</time>
      </trkpt>
      <trkpt lat="48.69819" lon="1.73581">
        <ele>167</ele>
        <time>2026-01-31T13:12:48Z</time>
      </trkpt>
      <trkpt lat="48.69817" lon="1.73583">
        <ele>167</ele>
        <time>2026-01-31T13:12:49Z</time>
      </trkpt>
      <trkpt lat="48.69815" lon="1.73585">
        <ele>167</ele>
        <time>2026-01-31T13:12:51Z</time>
      </trkpt>
      <trkpt lat="48.69813" lon="1.73588">
        <ele>167</ele>
        <time>2026-01-31T13:12:53Z</time>
      </trkpt>
      <trkpt lat="48.69812" lon="1.73591">
        <ele>166.8</ele>
        <time>2026-01-31T13:12:55Z</time>
      </trkpt>
      <trkpt lat="48.69811" lon="1.73593">
        <ele>166.8</ele>
        <time>2026-01-31T13:12:57Z</time>
      </trkpt>
      <trkpt lat="48.69809" lon="1.73596">
        <ele>166.8</ele>
        <time>2026-01-31T13:12:59Z</time>
      </trkpt>
      <trkpt lat="48.69807" lon="1.73599">
        <ele>166.6</ele>
        <time>2026-01-31T13:13:01Z</time>
      </trkpt>
      <trkpt lat="48.69805" lon="1.73603">
        <ele>166.6</ele>
        <time>2026-01-31T13:13:03Z</time>
      </trkpt>
      <trkpt lat="48.69804" lon="1.73606">
        <ele>166.4</ele>
        <time>2026-01-31T13:13:06Z</time>
      </trkpt>
      <trkpt lat="48.69804" lon="1.73609">
        <ele>166</ele>
        <time>2026-01-31T13:13:15Z</time>
      </trkpt>
      <trkpt lat="48.69801" lon="1.73612">
        <ele>166</ele>
        <time>2026-01-31T13:13:18Z</time>
      </trkpt>
      <trkpt lat="48.69798" lon="1.73615">
        <ele>166</ele>
        <time>2026-01-31T13:13:20Z</time>
      </trkpt>
      <trkpt lat="48.69796" lon="1.73618">
        <ele>166.2</ele>
        <time>2026-01-31T13:13:22Z</time>
      </trkpt>
      <trkpt lat="48.69794" lon="1.73623">
        <ele>166.2</ele>
        <time>2026-01-31T13:13:24Z</time>
      </trkpt>
      <trkpt lat="48.69793" lon="1.73626">
        <ele>166.2</ele>
        <time>2026-01-31T13:13:25Z</time>
      </trkpt>
      <trkpt lat="48.69792" lon="1.73628">
        <ele>166.2</ele>
        <time>2026-01-31T13:13:26Z</time>
      </trkpt>
      <trkpt lat="48.6979" lon="1.73634">
        <ele>166.2</ele>
        <time>2026-01-31T13:13:28Z</time>
      </trkpt>
      <trkpt lat="48.69789" lon="1.73636">
        <ele>166.2</ele>
        <time>2026-01-31T13:13:29Z</time>
      </trkpt>
      <trkpt lat="48.69788" lon="1.73639">
        <ele>166.2</ele>
        <time>2026-01-31T13:13:30Z</time>
      </trkpt>
      <trkpt lat="48.69785" lon="1.73642">
        <ele>166.2</ele>
        <time>2026-01-31T13:13:32Z</time>
      </trkpt>
      <trkpt lat="48.69783" lon="1.73645">
        <ele>166.2</ele>
        <time>2026-01-31T13:13:34Z</time>
      </trkpt>
      <trkpt lat="48.69781" lon="1.73649">
        <ele>166.2</ele>
        <time>2026-01-31T13:13:36Z</time>
      </trkpt>
      <trkpt lat="48.6978" lon="1.73651">
        <ele>166.2</ele>
        <time>2026-01-31T13:13:37Z</time>
      </trkpt>
      <trkpt lat="48.69779" lon="1.73655">
        <ele>166.2</ele>
        <time>2026-01-31T13:13:39Z</time>
      </trkpt>
      <trkpt lat="48.69778" lon="1.7366">
        <ele>166</ele>
        <time>2026-01-31T13:13:41Z</time>
      </trkpt>
      <trkpt lat="48.69777" lon="1.73664">
        <ele>166</ele>
        <time>2026-01-31T13:13:43Z</time>
      </trkpt>
      <trkpt lat="48.69775" lon="1.73667">
        <ele>165.8</ele>
        <time>2026-01-31T13:13:45Z</time>
      </trkpt>
      <trkpt lat="48.69773" lon="1.73671">
        <ele>165.6</ele>
        <time>2026-01-31T13:13:48Z</time>
      </trkpt>
      <trkpt lat="48.69772" lon="1.73674">
        <ele>165.6</ele>
        <time>2026-01-31T13:13:53Z</time>
      </trkpt>
      <trkpt lat="48.69771" lon="1.73677">
        <ele>165.6</ele>
        <time>2026-01-31T13:13:55Z</time>
      </trkpt>
      <trkpt lat="48.6977" lon="1.73681">
        <ele>165.8</ele>
        <time>2026-01-31T13:13:59Z</time>
      </trkpt>
      <trkpt lat="48.69768" lon="1.73683">
        <ele>166.8</ele>
        <time>2026-01-31T13:14:10Z</time>
      </trkpt>
      <trkpt lat="48.69766" lon="1.73685">
        <ele>167</ele>
        <time>2026-01-31T13:14:13Z</time>
      </trkpt>
      <trkpt lat="48.69764" lon="1.73687">
        <ele>167</ele>
        <time>2026-01-31T13:14:18Z</time>
      </trkpt>
      <trkpt lat="48.69762" lon="1.73689">
        <ele>167</ele>
        <time>2026-01-31T13:14:21Z</time>
      </trkpt>
      <trkpt lat="48.6976" lon="1.73692">
        <ele>166.8</ele>
        <time>2026-01-31T13:14:24Z</time>
      </trkpt>
      <trkpt lat="48.69759" lon="1.73694">
        <ele>167</ele>
        <time>2026-01-31T13:14:26Z</time>
      </trkpt>
      <trkpt lat="48.69757" lon="1.73696">
        <ele>167</ele>
        <time>2026-01-31T13:14:28Z</time>
      </trkpt>
      <trkpt lat="48.69756" lon="1.73699">
        <ele>167</ele>
        <time>2026-01-31T13:14:30Z</time>
      </trkpt>
      <trkpt lat="48.69754" lon="1.73702">
        <ele>167</ele>
        <time>2026-01-31T13:14:32Z</time>
      </trkpt>
      <trkpt lat="48.69752" lon="1.73705">
        <ele>167</ele>
        <time>2026-01-31T13:14:34Z</time>
      </trkpt>
      <trkpt lat="48.69751" lon="1.73708">
        <ele>167</ele>
        <time>2026-01-31T13:14:36Z</time>
      </trkpt>
      <trkpt lat="48.6975" lon="1.7371">
        <ele>167.2</ele>
        <time>2026-01-31T13:14:38Z</time>
      </trkpt>
      <trkpt lat="48.69749" lon="1.73713">
        <ele>167.2</ele>
        <time>2026-01-31T13:14:40Z</time>
      </trkpt>
      <trkpt lat="48.69748" lon="1.73719">
        <ele>167.2</ele>
        <time>2026-01-31T13:14:43Z</time>
      </trkpt>
      <trkpt lat="48.69747" lon="1.73721">
        <ele>167.2</ele>
        <time>2026-01-31T13:14:44Z</time>
      </trkpt>
      <trkpt lat="48.69746" lon="1.73725">
        <ele>167</ele>
        <time>2026-01-31T13:14:46Z</time>
      </trkpt>
      <trkpt lat="48.69745" lon="1.73728">
        <ele>167</ele>
        <time>2026-01-31T13:14:48Z</time>
      </trkpt>
      <trkpt lat="48.69743" lon="1.73731">
        <ele>166.8</ele>
        <time>2026-01-31T13:14:50Z</time>
      </trkpt>
      <trkpt lat="48.69741" lon="1.73734">
        <ele>166.6</ele>
        <time>2026-01-31T13:14:52Z</time>
      </trkpt>
      <trkpt lat="48.69739" lon="1.73737">
        <ele>166.4</ele>
        <time>2026-01-31T13:14:54Z</time>
      </trkpt>
      <trkpt lat="48.69738" lon="1.73741">
        <ele>166.2</ele>
        <time>2026-01-31T13:14:56Z</time>
      </trkpt>
      <trkpt lat="48.69736" lon="1.73744">
        <ele>166.2</ele>
        <time>2026-01-31T13:14:58Z</time>
      </trkpt>
      <trkpt lat="48.69734" lon="1.73747">
        <ele>166</ele>
        <time>2026-01-31T13:15:00Z</time>
      </trkpt>
      <trkpt lat="48.69732" lon="1.7375">
        <ele>166</ele>
        <time>2026-01-31T13:15:02Z</time>
      </trkpt>
      <trkpt lat="48.69731" lon="1.73753">
        <ele>166</ele>
        <time>2026-01-31T13:15:04Z</time>
      </trkpt>
      <trkpt lat="48.69729" lon="1.73756">
        <ele>166</ele>
        <time>2026-01-31T13:15:06Z</time>
      </trkpt>
      <trkpt lat="48.69728" lon="1.7376">
        <ele>166.2</ele>
        <time>2026-01-31T13:15:08Z</time>
      </trkpt>
      <trkpt lat="48.69727" lon="1.73764">
        <ele>166.2</ele>
        <time>2026-01-31T13:15:10Z</time>
      </trkpt>
      <trkpt lat="48.69725" lon="1.73766">
        <ele>166.2</ele>
        <time>2026-01-31T13:15:11Z</time>
      </trkpt>
      <trkpt lat="48.69724" lon="1.7377">
        <ele>166.2</ele>
        <time>2026-01-31T13:15:13Z</time>
      </trkpt>
      <trkpt lat="48.69722" lon="1.73774">
        <ele>166.4</ele>
        <time>2026-01-31T13:15:15Z</time>
      </trkpt>
      <trkpt lat="48.69721" lon="1.73777">
        <ele>166.4</ele>
        <time>2026-01-31T13:15:17Z</time>
      </trkpt>
      <trkpt lat="48.69719" lon="1.7378">
        <ele>166.4</ele>
        <time>2026-01-31T13:15:19Z</time>
      </trkpt>
      <trkpt lat="48.69718" lon="1.73782">
        <ele>166.4</ele>
        <time>2026-01-31T13:15:21Z</time>
      </trkpt>
      <trkpt lat="48.69717" lon="1.73786">
        <ele>166.4</ele>
        <time>2026-01-31T13:15:23Z</time>
      </trkpt>
      <trkpt lat="48.69716" lon="1.73789">
        <ele>166.6</ele>
        <time>2026-01-31T13:15:25Z</time>
      </trkpt>
      <trkpt lat="48.69716" lon="1.73793">
        <ele>166.6</ele>
        <time>2026-01-31T13:15:27Z</time>
      </trkpt>
      <trkpt lat="48.69716" lon="1.73796">
        <ele>166.8</ele>
        <time>2026-01-31T13:15:29Z</time>
      </trkpt>
      <trkpt lat="48.69715" lon="1.73798">
        <ele>167</ele>
        <time>2026-01-31T13:15:31Z</time>
      </trkpt>
      <trkpt lat="48.69713" lon="1.73801">
        <ele>167.2</ele>
        <time>2026-01-31T13:15:33Z</time>
      </trkpt>
      <trkpt lat="48.69712" lon="1.73804">
        <ele>167.4</ele>
        <time>2026-01-31T13:15:35Z</time>
      </trkpt>
      <trkpt lat="48.6971" lon="1.73808">
        <ele>167.8</ele>
        <time>2026-01-31T13:15:37Z</time>
      </trkpt>
      <trkpt lat="48.69709" lon="1.73811">
        <ele>168</ele>
        <time>2026-01-31T13:15:39Z</time>
      </trkpt>
      <trkpt lat="48.69708" lon="1.73814">
        <ele>168.4</ele>
        <time>2026-01-31T13:15:41Z</time>
      </trkpt>
      <trkpt lat="48.69707" lon="1.73817">
        <ele>168.6</ele>
        <time>2026-01-31T13:15:43Z</time>
      </trkpt>
      <trkpt lat="48.69706" lon="1.7382">
        <ele>168.8</ele>
        <time>2026-01-31T13:15:45Z</time>
      </trkpt>
      <trkpt lat="48.69706" lon="1.73824">
        <ele>169</ele>
        <time>2026-01-31T13:15:47Z</time>
      </trkpt>
      <trkpt lat="48.69706" lon="1.73828">
        <ele>169</ele>
        <time>2026-01-31T13:15:49Z</time>
      </trkpt>
      <trkpt lat="48.69706" lon="1.73832">
        <ele>169.2</ele>
        <time>2026-01-31T13:15:51Z</time>
      </trkpt>
      <trkpt lat="48.69704" lon="1.73836">
        <ele>169.2</ele>
        <time>2026-01-31T13:15:53Z</time>
      </trkpt>
      <trkpt lat="48.69703" lon="1.7384">
        <ele>169.4</ele>
        <time>2026-01-31T13:15:55Z</time>
      </trkpt>
      <trkpt lat="48.69702" lon="1.73844">
        <ele>169.4</ele>
        <time>2026-01-31T13:15:57Z</time>
      </trkpt>
      <trkpt lat="48.69701" lon="1.73847">
        <ele>169.4</ele>
        <time>2026-01-31T13:15:59Z</time>
      </trkpt>
      <trkpt lat="48.697" lon="1.7385">
        <ele>169.6</ele>
        <time>2026-01-31T13:16:01Z</time>
      </trkpt>
      <trkpt lat="48.69699" lon="1.73852">
        <ele>169.6</ele>
        <time>2026-01-31T13:16:03Z</time>
      </trkpt>
      <trkpt lat="48.69698" lon="1.73855">
        <ele>169.6</ele>
        <time>2026-01-31T13:16:05Z</time>
      </trkpt>
      <trkpt lat="48.69696" lon="1.73859">
        <ele>169.8</ele>
        <time>2026-01-31T13:16:07Z</time>
      </trkpt>
      <trkpt lat="48.69694" lon="1.73861">
        <ele>169.8</ele>
        <time>2026-01-31T13:16:09Z</time>
      </trkpt>
      <trkpt lat="48.69692" lon="1.73863">
        <ele>169.8</ele>
        <time>2026-01-31T13:16:11Z</time>
      </trkpt>
      <trkpt lat="48.6969" lon="1.73867">
        <ele>170.2</ele>
        <time>2026-01-31T13:16:14Z</time>
      </trkpt>
      <trkpt lat="48.69687" lon="1.7387">
        <ele>170.2</ele>
        <time>2026-01-31T13:16:16Z</time>
      </trkpt>
      <trkpt lat="48.69686" lon="1.73872">
        <ele>170.2</ele>
        <time>2026-01-31T13:16:17Z</time>
      </trkpt>
      <trkpt lat="48.69684" lon="1.73874">
        <ele>170.4</ele>
        <time>2026-01-31T13:16:18Z</time>
      </trkpt>
      <trkpt lat="48.69682" lon="1.73877">
        <ele>170.4</ele>
        <time>2026-01-31T13:16:20Z</time>
      </trkpt>
      <trkpt lat="48.6968" lon="1.73881">
        <ele>170.4</ele>
        <time>2026-01-31T13:16:22Z</time>
      </trkpt>
      <trkpt lat="48.69677" lon="1.73883">
        <ele>170.2</ele>
        <time>2026-01-31T13:16:24Z</time>
      </trkpt>
      <trkpt lat="48.69674" lon="1.73885">
        <ele>170.2</ele>
        <time>2026-01-31T13:16:27Z</time>
      </trkpt>
      <trkpt lat="48.69672" lon="1.73885">
        <ele>170</ele>
        <time>2026-01-31T13:16:29Z</time>
      </trkpt>
      <trkpt lat="48.6967" lon="1.73884">
        <ele>170</ele>
        <time>2026-01-31T13:16:31Z</time>
      </trkpt>
      <trkpt lat="48.69667" lon="1.73883">
        <ele>170</ele>
        <time>2026-01-31T13:16:33Z</time>
      </trkpt>
      <trkpt lat="48.69666" lon="1.73883">
        <ele>169.8</ele>
        <time>2026-01-31T13:16:34Z</time>
      </trkpt>
      <trkpt lat="48.69664" lon="1.73883">
        <ele>169.8</ele>
        <time>2026-01-31T13:16:44Z</time>
      </trkpt>
      <trkpt lat="48.69663" lon="1.73887">
        <ele>169.4</ele>
        <time>2026-01-31T13:16:48Z</time>
      </trkpt>
      <trkpt lat="48.69662" lon="1.73889">
        <ele>169.4</ele>
        <time>2026-01-31T13:16:49Z</time>
      </trkpt>
      <trkpt lat="48.69662" lon="1.73892">
        <ele>169.2</ele>
        <time>2026-01-31T13:16:51Z</time>
      </trkpt>
      <trkpt lat="48.69661" lon="1.73894">
        <ele>169.2</ele>
        <time>2026-01-31T13:16:53Z</time>
      </trkpt>
      <trkpt lat="48.6966" lon="1.73897">
        <ele>169.2</ele>
        <time>2026-01-31T13:16:55Z</time>
      </trkpt>
      <trkpt lat="48.69658" lon="1.739">
        <ele>169</ele>
        <time>2026-01-31T13:16:57Z</time>
      </trkpt>
      <trkpt lat="48.69657" lon="1.73903">
        <ele>169</ele>
        <time>2026-01-31T13:16:59Z</time>
      </trkpt>
      <trkpt lat="48.69656" lon="1.73906">
        <ele>169</ele>
        <time>2026-01-31T13:17:02Z</time>
      </trkpt>
      <trkpt lat="48.69655" lon="1.73909">
        <ele>168.8</ele>
        <time>2026-01-31T13:17:04Z</time>
      </trkpt>
      <trkpt lat="48.69653" lon="1.73912">
        <ele>168.6</ele>
        <time>2026-01-31T13:17:06Z</time>
      </trkpt>
      <trkpt lat="48.69652" lon="1.73915">
        <ele>168.4</ele>
        <time>2026-01-31T13:17:08Z</time>
      </trkpt>
      <trkpt lat="48.69651" lon="1.73918">
        <ele>168.2</ele>
        <time>2026-01-31T13:17:10Z</time>
      </trkpt>
      <trkpt lat="48.69649" lon="1.73921">
        <ele>168.2</ele>
        <time>2026-01-31T13:17:12Z</time>
      </trkpt>
      <trkpt lat="48.69647" lon="1.73924">
        <ele>168</ele>
        <time>2026-01-31T13:17:14Z</time>
      </trkpt>
      <trkpt lat="48.69645" lon="1.73926">
        <ele>167.8</ele>
        <time>2026-01-31T13:17:16Z</time>
      </trkpt>
      <trkpt lat="48.69644" lon="1.73929">
        <ele>167.8</ele>
        <time>2026-01-31T13:17:18Z</time>
      </trkpt>
      <trkpt lat="48.69642" lon="1.73932">
        <ele>167.6</ele>
        <time>2026-01-31T13:17:20Z</time>
      </trkpt>
      <trkpt lat="48.6964" lon="1.73934">
        <ele>167.4</ele>
        <time>2026-01-31T13:17:22Z</time>
      </trkpt>
      <trkpt lat="48.69638" lon="1.73938">
        <ele>167.2</ele>
        <time>2026-01-31T13:17:25Z</time>
      </trkpt>
      <trkpt lat="48.69637" lon="1.73939">
        <ele>167.2</ele>
        <time>2026-01-31T13:17:26Z</time>
      </trkpt>
      <trkpt lat="48.69635" lon="1.73942">
        <ele>167</ele>
        <time>2026-01-31T13:17:29Z</time>
      </trkpt>
      <trkpt lat="48.69634" lon="1.73943">
        <ele>166.8</ele>
        <time>2026-01-31T13:17:30Z</time>
      </trkpt>
      <trkpt lat="48.69633" lon="1.73946">
        <ele>166.8</ele>
        <time>2026-01-31T13:17:32Z</time>
      </trkpt>
      <trkpt lat="48.69632" lon="1.73949">
        <ele>166.6</ele>
        <time>2026-01-31T13:17:34Z</time>
      </trkpt>
      <trkpt lat="48.6963" lon="1.73952">
        <ele>166.4</ele>
        <time>2026-01-31T13:17:36Z</time>
      </trkpt>
      <trkpt lat="48.69628" lon="1.73956">
        <ele>166.4</ele>
        <time>2026-01-31T13:17:38Z</time>
      </trkpt>
      <trkpt lat="48.69627" lon="1.73962">
        <ele>166.2</ele>
        <time>2026-01-31T13:17:41Z</time>
      </trkpt>
      <trkpt lat="48.69626" lon="1.73964">
        <ele>166.2</ele>
        <time>2026-01-31T13:17:42Z</time>
      </trkpt>
      <trkpt lat="48.69624" lon="1.7397">
        <ele>166.2</ele>
        <time>2026-01-31T13:17:45Z</time>
      </trkpt>
      <trkpt lat="48.69623" lon="1.73974">
        <ele>166.2</ele>
        <time>2026-01-31T13:17:47Z</time>
      </trkpt>
      <trkpt lat="48.69623" lon="1.73976">
        <ele>166.2</ele>
        <time>2026-01-31T13:17:48Z</time>
      </trkpt>
      <trkpt lat="48.69622" lon="1.7398">
        <ele>166.4</ele>
        <time>2026-01-31T13:17:50Z</time>
      </trkpt>
      <trkpt lat="48.69622" lon="1.73985">
        <ele>166.4</ele>
        <time>2026-01-31T13:17:52Z</time>
      </trkpt>
      <trkpt lat="48.6962" lon="1.73992">
        <ele>166.6</ele>
        <time>2026-01-31T13:17:55Z</time>
      </trkpt>
      <trkpt lat="48.69619" lon="1.73994">
        <ele>166.6</ele>
        <time>2026-01-31T13:17:57Z</time>
      </trkpt>
      <trkpt lat="48.69618" lon="1.73996">
        <ele>166.6</ele>
        <time>2026-01-31T13:17:58Z</time>
      </trkpt>
      <trkpt lat="48.69616" lon="1.73997">
        <ele>166.8</ele>
        <time>2026-01-31T13:18:00Z</time>
      </trkpt>
      <trkpt lat="48.69616" lon="1.74">
        <ele>166.8</ele>
        <time>2026-01-31T13:18:05Z</time>
      </trkpt>
      <trkpt lat="48.69614" lon="1.74003">
        <ele>167</ele>
        <time>2026-01-31T13:18:08Z</time>
      </trkpt>
      <trkpt lat="48.69612" lon="1.74005">
        <ele>167.2</ele>
        <time>2026-01-31T13:18:10Z</time>
      </trkpt>
      <trkpt lat="48.69611" lon="1.74008">
        <ele>167.2</ele>
        <time>2026-01-31T13:18:12Z</time>
      </trkpt>
      <trkpt lat="48.69609" lon="1.74011">
        <ele>167.4</ele>
        <time>2026-01-31T13:18:14Z</time>
      </trkpt>
      <trkpt lat="48.69607" lon="1.74015">
        <ele>167.4</ele>
        <time>2026-01-31T13:18:16Z</time>
      </trkpt>
      <trkpt lat="48.69605" lon="1.74017">
        <ele>167.4</ele>
        <time>2026-01-31T13:18:18Z</time>
      </trkpt>
      <trkpt lat="48.69604" lon="1.7402">
        <ele>167.4</ele>
        <time>2026-01-31T13:18:20Z</time>
      </trkpt>
      <trkpt lat="48.69602" lon="1.74023">
        <ele>167.6</ele>
        <time>2026-01-31T13:18:23Z</time>
      </trkpt>
      <trkpt lat="48.69601" lon="1.74025">
        <ele>167.8</ele>
        <time>2026-01-31T13:18:31Z</time>
      </trkpt>
      <trkpt lat="48.69599" lon="1.74026">
        <ele>168</ele>
        <time>2026-01-31T13:18:33Z</time>
      </trkpt>
      <trkpt lat="48.69598" lon="1.74028">
        <ele>168</ele>
        <time>2026-01-31T13:18:35Z</time>
      </trkpt>
      <trkpt lat="48.69596" lon="1.74031">
        <ele>168</ele>
        <time>2026-01-31T13:18:37Z</time>
      </trkpt>
      <trkpt lat="48.69594" lon="1.74034">
        <ele>168</ele>
        <time>2026-01-31T13:18:39Z</time>
      </trkpt>
      <trkpt lat="48.69593" lon="1.74036">
        <ele>168</ele>
        <time>2026-01-31T13:18:40Z</time>
      </trkpt>
      <trkpt lat="48.69591" lon="1.74038">
        <ele>168</ele>
        <time>2026-01-31T13:18:41Z</time>
      </trkpt>
      <trkpt lat="48.69589" lon="1.74042">
        <ele>168</ele>
        <time>2026-01-31T13:18:43Z</time>
      </trkpt>
      <trkpt lat="48.69588" lon="1.74046">
        <ele>167.8</ele>
        <time>2026-01-31T13:18:45Z</time>
      </trkpt>
      <trkpt lat="48.69587" lon="1.7405">
        <ele>167.8</ele>
        <time>2026-01-31T13:18:47Z</time>
      </trkpt>
      <trkpt lat="48.69586" lon="1.74054">
        <ele>167.8</ele>
        <time>2026-01-31T13:18:49Z</time>
      </trkpt>
      <trkpt lat="48.69585" lon="1.74056">
        <ele>167.8</ele>
        <time>2026-01-31T13:18:50Z</time>
      </trkpt>
      <trkpt lat="48.69583" lon="1.74058">
        <ele>167.8</ele>
        <time>2026-01-31T13:18:51Z</time>
      </trkpt>
      <trkpt lat="48.69581" lon="1.74062">
        <ele>167.8</ele>
        <time>2026-01-31T13:18:53Z</time>
      </trkpt>
      <trkpt lat="48.69579" lon="1.74065">
        <ele>167.8</ele>
        <time>2026-01-31T13:18:55Z</time>
      </trkpt>
      <trkpt lat="48.69577" lon="1.7407">
        <ele>168</ele>
        <time>2026-01-31T13:18:57Z</time>
      </trkpt>
      <trkpt lat="48.69575" lon="1.74074">
        <ele>168</ele>
        <time>2026-01-31T13:18:59Z</time>
      </trkpt>
      <trkpt lat="48.69573" lon="1.74078">
        <ele>168</ele>
        <time>2026-01-31T13:19:01Z</time>
      </trkpt>
      <trkpt lat="48.69571" lon="1.74082">
        <ele>168</ele>
        <time>2026-01-31T13:19:03Z</time>
      </trkpt>
      <trkpt lat="48.69568" lon="1.74088">
        <ele>168</ele>
        <time>2026-01-31T13:19:06Z</time>
      </trkpt>
      <trkpt lat="48.69567" lon="1.74089">
        <ele>168</ele>
        <time>2026-01-31T13:19:07Z</time>
      </trkpt>
      <trkpt lat="48.69565" lon="1.74093">
        <ele>168</ele>
        <time>2026-01-31T13:19:09Z</time>
      </trkpt>
      <trkpt lat="48.69563" lon="1.74096">
        <ele>168.2</ele>
        <time>2026-01-31T13:19:11Z</time>
      </trkpt>
      <trkpt lat="48.69561" lon="1.74099">
        <ele>168.2</ele>
        <time>2026-01-31T13:19:13Z</time>
      </trkpt>
      <trkpt lat="48.6956" lon="1.74102">
        <ele>168.2</ele>
        <time>2026-01-31T13:19:15Z</time>
      </trkpt>
      <trkpt lat="48.69558" lon="1.74105">
        <ele>168.2</ele>
        <time>2026-01-31T13:19:17Z</time>
      </trkpt>
      <trkpt lat="48.69556" lon="1.74108">
        <ele>168.2</ele>
        <time>2026-01-31T13:19:19Z</time>
      </trkpt>
      <trkpt lat="48.69554" lon="1.7411">
        <ele>168.2</ele>
        <time>2026-01-31T13:19:21Z</time>
      </trkpt>
      <trkpt lat="48.69553" lon="1.74112">
        <ele>168.2</ele>
        <time>2026-01-31T13:19:23Z</time>
      </trkpt>
      <trkpt lat="48.69551" lon="1.74116">
        <ele>168.2</ele>
        <time>2026-01-31T13:19:26Z</time>
      </trkpt>
      <trkpt lat="48.69549" lon="1.74118">
        <ele>168.2</ele>
        <time>2026-01-31T13:19:28Z</time>
      </trkpt>
      <trkpt lat="48.69547" lon="1.74122">
        <ele>168.2</ele>
        <time>2026-01-31T13:19:31Z</time>
      </trkpt>
      <trkpt lat="48.69546" lon="1.74124">
        <ele>168.2</ele>
        <time>2026-01-31T13:19:32Z</time>
      </trkpt>
      <trkpt lat="48.69545" lon="1.74126">
        <ele>168</ele>
        <time>2026-01-31T13:19:34Z</time>
      </trkpt>
      <trkpt lat="48.69543" lon="1.74129">
        <ele>168</ele>
        <time>2026-01-31T13:19:36Z</time>
      </trkpt>
      <trkpt lat="48.69543" lon="1.74133">
        <ele>168</ele>
        <time>2026-01-31T13:19:38Z</time>
      </trkpt>
      <trkpt lat="48.69541" lon="1.74137">
        <ele>168</ele>
        <time>2026-01-31T13:19:40Z</time>
      </trkpt>
      <trkpt lat="48.69539" lon="1.74141">
        <ele>168</ele>
        <time>2026-01-31T13:19:42Z</time>
      </trkpt>
      <trkpt lat="48.69538" lon="1.74143">
        <ele>168</ele>
        <time>2026-01-31T13:19:43Z</time>
      </trkpt>
      <trkpt lat="48.69534" lon="1.74149">
        <ele>168</ele>
        <time>2026-01-31T13:19:46Z</time>
      </trkpt>
      <trkpt lat="48.69533" lon="1.74153">
        <ele>168</ele>
        <time>2026-01-31T13:19:48Z</time>
      </trkpt>
      <trkpt lat="48.69531" lon="1.74156">
        <ele>168</ele>
        <time>2026-01-31T13:19:50Z</time>
      </trkpt>
      <trkpt lat="48.69529" lon="1.74158">
        <ele>168</ele>
        <time>2026-01-31T13:19:51Z</time>
      </trkpt>
      <trkpt lat="48.69527" lon="1.74162">
        <ele>167.8</ele>
        <time>2026-01-31T13:19:53Z</time>
      </trkpt>
      <trkpt lat="48.69525" lon="1.74166">
        <ele>167.6</ele>
        <time>2026-01-31T13:19:55Z</time>
      </trkpt>
      <trkpt lat="48.69524" lon="1.7417">
        <ele>167.4</ele>
        <time>2026-01-31T13:19:57Z</time>
      </trkpt>
      <trkpt lat="48.69523" lon="1.74173">
        <ele>167.4</ele>
        <time>2026-01-31T13:19:58Z</time>
      </trkpt>
      <trkpt lat="48.69521" lon="1.74175">
        <ele>167.2</ele>
        <time>2026-01-31T13:19:59Z</time>
      </trkpt>
      <trkpt lat="48.6952" lon="1.74178">
        <ele>167</ele>
        <time>2026-01-31T13:20:00Z</time>
      </trkpt>
      <trkpt lat="48.69519" lon="1.74181">
        <ele>167</ele>
        <time>2026-01-31T13:20:01Z</time>
      </trkpt>
      <trkpt lat="48.69517" lon="1.74184">
        <ele>166.8</ele>
        <time>2026-01-31T13:20:02Z</time>
      </trkpt>
      <trkpt lat="48.69515" lon="1.74187">
        <ele>166.8</ele>
        <time>2026-01-31T13:20:03Z</time>
      </trkpt>
      <trkpt lat="48.69511" lon="1.74194">
        <ele>166.4</ele>
        <time>2026-01-31T13:20:05Z</time>
      </trkpt>
      <trkpt lat="48.69509" lon="1.74197">
        <ele>166.4</ele>
        <time>2026-01-31T13:20:06Z</time>
      </trkpt>
      <trkpt lat="48.69507" lon="1.742">
        <ele>166.2</ele>
        <time>2026-01-31T13:20:07Z</time>
      </trkpt>
      <trkpt lat="48.69505" lon="1.74204">
        <ele>166.2</ele>
        <time>2026-01-31T13:20:08Z</time>
      </trkpt>
      <trkpt lat="48.69503" lon="1.74207">
        <ele>166.2</ele>
        <time>2026-01-31T13:20:09Z</time>
      </trkpt>
      <trkpt lat="48.69501" lon="1.74211">
        <ele>166.2</ele>
        <time>2026-01-31T13:20:10Z</time>
      </trkpt>
      <trkpt lat="48.69499" lon="1.74215">
        <ele>166</ele>
        <time>2026-01-31T13:20:11Z</time>
      </trkpt>
      <trkpt lat="48.69496" lon="1.74218">
        <ele>166</ele>
        <time>2026-01-31T13:20:12Z</time>
      </trkpt>
      <trkpt lat="48.69493" lon="1.74223">
        <ele>166</ele>
        <time>2026-01-31T13:20:13Z</time>
      </trkpt>
      <trkpt lat="48.69491" lon="1.74227">
        <ele>166</ele>
        <time>2026-01-31T13:20:14Z</time>
      </trkpt>
      <trkpt lat="48.69489" lon="1.74231">
        <ele>166</ele>
        <time>2026-01-31T13:20:15Z</time>
      </trkpt>
      <trkpt lat="48.69487" lon="1.74236">
        <ele>165.8</ele>
        <time>2026-01-31T13:20:16Z</time>
      </trkpt>
      <trkpt lat="48.69485" lon="1.74241">
        <ele>165.8</ele>
        <time>2026-01-31T13:20:17Z</time>
      </trkpt>
      <trkpt lat="48.69483" lon="1.74246">
        <ele>165.8</ele>
        <time>2026-01-31T13:20:18Z</time>
      </trkpt>
      <trkpt lat="48.6948" lon="1.74251">
        <ele>165.8</ele>
        <time>2026-01-31T13:20:19Z</time>
      </trkpt>
      <trkpt lat="48.69478" lon="1.74256">
        <ele>165.8</ele>
        <time>2026-01-31T13:20:20Z</time>
      </trkpt>
      <trkpt lat="48.69476" lon="1.74262">
        <ele>165.8</ele>
        <time>2026-01-31T13:20:21Z</time>
      </trkpt>
      <trkpt lat="48.69473" lon="1.74268">
        <ele>165.6</ele>
        <time>2026-01-31T13:20:22Z</time>
      </trkpt>
      <trkpt lat="48.6947" lon="1.74274">
        <ele>165.6</ele>
        <time>2026-01-31T13:20:23Z</time>
      </trkpt>
      <trkpt lat="48.69467" lon="1.74281">
        <ele>165.6</ele>
        <time>2026-01-31T13:20:24Z</time>
      </trkpt>
      <trkpt lat="48.69465" lon="1.74287">
        <ele>165.6</ele>
        <time>2026-01-31T13:20:25Z</time>
      </trkpt>
      <trkpt lat="48.69461" lon="1.74294">
        <ele>165.6</ele>
        <time>2026-01-31T13:20:26Z</time>
      </trkpt>
      <trkpt lat="48.69459" lon="1.743">
        <ele>165.4</ele>
        <time>2026-01-31T13:20:27Z</time>
      </trkpt>
      <trkpt lat="48.69456" lon="1.74307">
        <ele>165.4</ele>
        <time>2026-01-31T13:20:28Z</time>
      </trkpt>
      <trkpt lat="48.69453" lon="1.74313">
        <ele>165.4</ele>
        <time>2026-01-31T13:20:29Z</time>
      </trkpt>
      <trkpt lat="48.69451" lon="1.7432">
        <ele>165.4</ele>
        <time>2026-01-31T13:20:30Z</time>
      </trkpt>
      <trkpt lat="48.69448" lon="1.74326">
        <ele>165.2</ele>
        <time>2026-01-31T13:20:31Z</time>
      </trkpt>
      <trkpt lat="48.69445" lon="1.74332">
        <ele>165.2</ele>
        <time>2026-01-31T13:20:32Z</time>
      </trkpt>
      <trkpt lat="48.69442" lon="1.74338">
        <ele>165</ele>
        <time>2026-01-31T13:20:33Z</time>
      </trkpt>
      <trkpt lat="48.69439" lon="1.74345">
        <ele>165</ele>
        <time>2026-01-31T13:20:34Z</time>
      </trkpt>
      <trkpt lat="48.69436" lon="1.74351">
        <ele>165</ele>
        <time>2026-01-31T13:20:35Z</time>
      </trkpt>
      <trkpt lat="48.69432" lon="1.74358">
        <ele>165</ele>
        <time>2026-01-31T13:20:36Z</time>
      </trkpt>
      <trkpt lat="48.69429" lon="1.74364">
        <ele>164.8</ele>
        <time>2026-01-31T13:20:37Z</time>
      </trkpt>
      <trkpt lat="48.69426" lon="1.74371">
        <ele>164.8</ele>
        <time>2026-01-31T13:20:38Z</time>
      </trkpt>
      <trkpt lat="48.69422" lon="1.74376">
        <ele>164.8</ele>
        <time>2026-01-31T13:20:39Z</time>
      </trkpt>
      <trkpt lat="48.6942" lon="1.74381">
        <ele>164.6</ele>
        <time>2026-01-31T13:20:40Z</time>
      </trkpt>
      <trkpt lat="48.69417" lon="1.74386">
        <ele>164.6</ele>
        <time>2026-01-31T13:20:41Z</time>
      </trkpt>
      <trkpt lat="48.69414" lon="1.74391">
        <ele>164.4</ele>
        <time>2026-01-31T13:20:42Z</time>
      </trkpt>
      <trkpt lat="48.69411" lon="1.74396">
        <ele>164.4</ele>
        <time>2026-01-31T13:20:43Z</time>
      </trkpt>
      <trkpt lat="48.69408" lon="1.74402">
        <ele>164.2</ele>
        <time>2026-01-31T13:20:44Z</time>
      </trkpt>
      <trkpt lat="48.69404" lon="1.74408">
        <ele>164.2</ele>
        <time>2026-01-31T13:20:45Z</time>
      </trkpt>
      <trkpt lat="48.69401" lon="1.74414">
        <ele>164</ele>
        <time>2026-01-31T13:20:46Z</time>
      </trkpt>
      <trkpt lat="48.69398" lon="1.74421">
        <ele>164</ele>
        <time>2026-01-31T13:20:47Z</time>
      </trkpt>
      <trkpt lat="48.69394" lon="1.74428">
        <ele>163.8</ele>
        <time>2026-01-31T13:20:48Z</time>
      </trkpt>
      <trkpt lat="48.69391" lon="1.74435">
        <ele>163.8</ele>
        <time>2026-01-31T13:20:49Z</time>
      </trkpt>
      <trkpt lat="48.69388" lon="1.74442">
        <ele>163.6</ele>
        <time>2026-01-31T13:20:50Z</time>
      </trkpt>
      <trkpt lat="48.69385" lon="1.74449">
        <ele>163.6</ele>
        <time>2026-01-31T13:20:51Z</time>
      </trkpt>
      <trkpt lat="48.69382" lon="1.74455">
        <ele>163.6</ele>
        <time>2026-01-31T13:20:52Z</time>
      </trkpt>
      <trkpt lat="48.69379" lon="1.74461">
        <ele>163.4</ele>
        <time>2026-01-31T13:20:53Z</time>
      </trkpt>
      <trkpt lat="48.69376" lon="1.74468">
        <ele>163.4</ele>
        <time>2026-01-31T13:20:54Z</time>
      </trkpt>
      <trkpt lat="48.69372" lon="1.74474">
        <ele>163.2</ele>
        <time>2026-01-31T13:20:55Z</time>
      </trkpt>
      <trkpt lat="48.6937" lon="1.7448">
        <ele>163.2</ele>
        <time>2026-01-31T13:20:56Z</time>
      </trkpt>
      <trkpt lat="48.69366" lon="1.74486">
        <ele>163</ele>
        <time>2026-01-31T13:20:57Z</time>
      </trkpt>
      <trkpt lat="48.69364" lon="1.74493">
        <ele>163</ele>
        <time>2026-01-31T13:20:58Z</time>
      </trkpt>
      <trkpt lat="48.69361" lon="1.74499">
        <ele>162.8</ele>
        <time>2026-01-31T13:20:59Z</time>
      </trkpt>
      <trkpt lat="48.69358" lon="1.74505">
        <ele>162.8</ele>
        <time>2026-01-31T13:21:00Z</time>
      </trkpt>
      <trkpt lat="48.69355" lon="1.74511">
        <ele>162.6</ele>
        <time>2026-01-31T13:21:01Z</time>
      </trkpt>
      <trkpt lat="48.69352" lon="1.74517">
        <ele>162.6</ele>
        <time>2026-01-31T13:21:02Z</time>
      </trkpt>
      <trkpt lat="48.69348" lon="1.74522">
        <ele>162.6</ele>
        <time>2026-01-31T13:21:03Z</time>
      </trkpt>
      <trkpt lat="48.69346" lon="1.74528">
        <ele>162.4</ele>
        <time>2026-01-31T13:21:04Z</time>
      </trkpt>
      <trkpt lat="48.69342" lon="1.74533">
        <ele>162.4</ele>
        <time>2026-01-31T13:21:05Z</time>
      </trkpt>
      <trkpt lat="48.69339" lon="1.74538">
        <ele>162.2</ele>
        <time>2026-01-31T13:21:06Z</time>
      </trkpt>
      <trkpt lat="48.69336" lon="1.74543">
        <ele>162.2</ele>
        <time>2026-01-31T13:21:07Z</time>
      </trkpt>
      <trkpt lat="48.69334" lon="1.74547">
        <ele>162.2</ele>
        <time>2026-01-31T13:21:08Z</time>
      </trkpt>
      <trkpt lat="48.69332" lon="1.74552">
        <ele>162</ele>
        <time>2026-01-31T13:21:09Z</time>
      </trkpt>
      <trkpt lat="48.6933" lon="1.74556">
        <ele>162</ele>
        <time>2026-01-31T13:21:10Z</time>
      </trkpt>
      <trkpt lat="48.69328" lon="1.74561">
        <ele>161.8</ele>
        <time>2026-01-31T13:21:11Z</time>
      </trkpt>
      <trkpt lat="48.69326" lon="1.74565">
        <ele>161.8</ele>
        <time>2026-01-31T13:21:12Z</time>
      </trkpt>
      <trkpt lat="48.69324" lon="1.74569">
        <ele>161.6</ele>
        <time>2026-01-31T13:21:13Z</time>
      </trkpt>
      <trkpt lat="48.69323" lon="1.74573">
        <ele>161.6</ele>
        <time>2026-01-31T13:21:14Z</time>
      </trkpt>
      <trkpt lat="48.69323" lon="1.74577">
        <ele>161.4</ele>
        <time>2026-01-31T13:21:15Z</time>
      </trkpt>
      <trkpt lat="48.69322" lon="1.74581">
        <ele>161.4</ele>
        <time>2026-01-31T13:21:16Z</time>
      </trkpt>
      <trkpt lat="48.69322" lon="1.74585">
        <ele>161.2</ele>
        <time>2026-01-31T13:21:17Z</time>
      </trkpt>
      <trkpt lat="48.69323" lon="1.74588">
        <ele>161.2</ele>
        <time>2026-01-31T13:21:18Z</time>
      </trkpt>
      <trkpt lat="48.69323" lon="1.74592">
        <ele>161</ele>
        <time>2026-01-31T13:21:20Z</time>
      </trkpt>
      <trkpt lat="48.69324" lon="1.74595">
        <ele>160.8</ele>
        <time>2026-01-31T13:21:22Z</time>
      </trkpt>
      <trkpt lat="48.69326" lon="1.74598">
        <ele>160.6</ele>
        <time>2026-01-31T13:21:24Z</time>
      </trkpt>
      <trkpt lat="48.69327" lon="1.74602">
        <ele>160.4</ele>
        <time>2026-01-31T13:21:26Z</time>
      </trkpt>
      <trkpt lat="48.69328" lon="1.74606">
        <ele>160.4</ele>
        <time>2026-01-31T13:21:28Z</time>
      </trkpt>
      <trkpt lat="48.69329" lon="1.74611">
        <ele>160.4</ele>
        <time>2026-01-31T13:21:30Z</time>
      </trkpt>
      <trkpt lat="48.6933" lon="1.74615">
        <ele>160.4</ele>
        <time>2026-01-31T13:21:32Z</time>
      </trkpt>
      <trkpt lat="48.6933" lon="1.74619">
        <ele>160.4</ele>
        <time>2026-01-31T13:21:34Z</time>
      </trkpt>
      <trkpt lat="48.69331" lon="1.74624">
        <ele>160.4</ele>
        <time>2026-01-31T13:21:36Z</time>
      </trkpt>
      <trkpt lat="48.69332" lon="1.74628">
        <ele>160.4</ele>
        <time>2026-01-31T13:21:38Z</time>
      </trkpt>
      <trkpt lat="48.69332" lon="1.74633">
        <ele>160.4</ele>
        <time>2026-01-31T13:21:40Z</time>
      </trkpt>
      <trkpt lat="48.69333" lon="1.74638">
        <ele>160.4</ele>
        <time>2026-01-31T13:21:42Z</time>
      </trkpt>
      <trkpt lat="48.69335" lon="1.74642">
        <ele>160.4</ele>
        <time>2026-01-31T13:21:44Z</time>
      </trkpt>
      <trkpt lat="48.69338" lon="1.74649">
        <ele>160.4</ele>
        <time>2026-01-31T13:21:47Z</time>
      </trkpt>
      <trkpt lat="48.69338" lon="1.7465">
        <ele>160.4</ele>
        <time>2026-01-31T13:21:48Z</time>
      </trkpt>
      <trkpt lat="48.6934" lon="1.74654">
        <ele>160.6</ele>
        <time>2026-01-31T13:21:50Z</time>
      </trkpt>
      <trkpt lat="48.6934" lon="1.74657">
        <ele>160.6</ele>
        <time>2026-01-31T13:21:52Z</time>
      </trkpt>
      <trkpt lat="48.69342" lon="1.74661">
        <ele>160.6</ele>
        <time>2026-01-31T13:21:54Z</time>
      </trkpt>
      <trkpt lat="48.69343" lon="1.74665">
        <ele>160.8</ele>
        <time>2026-01-31T13:21:56Z</time>
      </trkpt>
      <trkpt lat="48.69343" lon="1.7467">
        <ele>160.8</ele>
        <time>2026-01-31T13:21:58Z</time>
      </trkpt>
      <trkpt lat="48.69344" lon="1.74673">
        <ele>160.8</ele>
        <time>2026-01-31T13:21:59Z</time>
      </trkpt>
      <trkpt lat="48.69344" lon="1.74676">
        <ele>160.8</ele>
        <time>2026-01-31T13:22:00Z</time>
      </trkpt>
      <trkpt lat="48.69344" lon="1.74679">
        <ele>160.8</ele>
        <time>2026-01-31T13:22:01Z</time>
      </trkpt>
      <trkpt lat="48.69344" lon="1.74682">
        <ele>160.8</ele>
        <time>2026-01-31T13:22:02Z</time>
      </trkpt>
      <trkpt lat="48.69344" lon="1.74687">
        <ele>161</ele>
        <time>2026-01-31T13:22:04Z</time>
      </trkpt>
      <trkpt lat="48.69344" lon="1.7469">
        <ele>161</ele>
        <time>2026-01-31T13:22:06Z</time>
      </trkpt>
      <trkpt lat="48.69344" lon="1.74694">
        <ele>161</ele>
        <time>2026-01-31T13:22:09Z</time>
      </trkpt>
      <trkpt lat="48.69344" lon="1.74697">
        <ele>161</ele>
        <time>2026-01-31T13:22:11Z</time>
      </trkpt>
      <trkpt lat="48.69345" lon="1.747">
        <ele>161.2</ele>
        <time>2026-01-31T13:22:13Z</time>
      </trkpt>
      <trkpt lat="48.69346" lon="1.74703">
        <ele>161.2</ele>
        <time>2026-01-31T13:22:15Z</time>
      </trkpt>
      <trkpt lat="48.69347" lon="1.74706">
        <ele>161.2</ele>
        <time>2026-01-31T13:22:17Z</time>
      </trkpt>
      <trkpt lat="48.69348" lon="1.74709">
        <ele>161.2</ele>
        <time>2026-01-31T13:22:19Z</time>
      </trkpt>
      <trkpt lat="48.6935" lon="1.74712">
        <ele>161.2</ele>
        <time>2026-01-31T13:22:21Z</time>
      </trkpt>
      <trkpt lat="48.6935" lon="1.74715">
        <ele>161.2</ele>
        <time>2026-01-31T13:22:23Z</time>
      </trkpt>
      <trkpt lat="48.69351" lon="1.74719">
        <ele>161.4</ele>
        <time>2026-01-31T13:22:25Z</time>
      </trkpt>
      <trkpt lat="48.69352" lon="1.74722">
        <ele>161.4</ele>
        <time>2026-01-31T13:22:27Z</time>
      </trkpt>
      <trkpt lat="48.69353" lon="1.74726">
        <ele>161.4</ele>
        <time>2026-01-31T13:22:29Z</time>
      </trkpt>
      <trkpt lat="48.69354" lon="1.7473">
        <ele>161.4</ele>
        <time>2026-01-31T13:22:31Z</time>
      </trkpt>
      <trkpt lat="48.69356" lon="1.74734">
        <ele>161.4</ele>
        <time>2026-01-31T13:22:33Z</time>
      </trkpt>
      <trkpt lat="48.69356" lon="1.74738">
        <ele>161.2</ele>
        <time>2026-01-31T13:22:35Z</time>
      </trkpt>
      <trkpt lat="48.69358" lon="1.74742">
        <ele>161.2</ele>
        <time>2026-01-31T13:22:37Z</time>
      </trkpt>
      <trkpt lat="48.69359" lon="1.74746">
        <ele>161.2</ele>
        <time>2026-01-31T13:22:39Z</time>
      </trkpt>
      <trkpt lat="48.69361" lon="1.74749">
        <ele>161.2</ele>
        <time>2026-01-31T13:22:41Z</time>
      </trkpt>
      <trkpt lat="48.69362" lon="1.74753">
        <ele>161.4</ele>
        <time>2026-01-31T13:22:43Z</time>
      </trkpt>
      <trkpt lat="48.69364" lon="1.74758">
        <ele>161.4</ele>
        <time>2026-01-31T13:22:45Z</time>
      </trkpt>
      <trkpt lat="48.69365" lon="1.74762">
        <ele>161.6</ele>
        <time>2026-01-31T13:22:47Z</time>
      </trkpt>
      <trkpt lat="48.69366" lon="1.74766">
        <ele>161.6</ele>
        <time>2026-01-31T13:22:49Z</time>
      </trkpt>
      <trkpt lat="48.69367" lon="1.7477">
        <ele>161.8</ele>
        <time>2026-01-31T13:22:51Z</time>
      </trkpt>
      <trkpt lat="48.69368" lon="1.74774">
        <ele>161.8</ele>
        <time>2026-01-31T13:22:53Z</time>
      </trkpt>
      <trkpt lat="48.6937" lon="1.74779">
        <ele>161.8</ele>
        <time>2026-01-31T13:22:55Z</time>
      </trkpt>
      <trkpt lat="48.69371" lon="1.74784">
        <ele>162</ele>
        <time>2026-01-31T13:22:57Z</time>
      </trkpt>
      <trkpt lat="48.69372" lon="1.74788">
        <ele>162.2</ele>
        <time>2026-01-31T13:22:59Z</time>
      </trkpt>
      <trkpt lat="48.69372" lon="1.74793">
        <ele>162.4</ele>
        <time>2026-01-31T13:23:01Z</time>
      </trkpt>
      <trkpt lat="48.69372" lon="1.74797">
        <ele>162.6</ele>
        <time>2026-01-31T13:23:03Z</time>
      </trkpt>
      <trkpt lat="48.69373" lon="1.74802">
        <ele>162.6</ele>
        <time>2026-01-31T13:23:05Z</time>
      </trkpt>
      <trkpt lat="48.69374" lon="1.74806">
        <ele>162.8</ele>
        <time>2026-01-31T13:23:07Z</time>
      </trkpt>
      <trkpt lat="48.69374" lon="1.74809">
        <ele>162.8</ele>
        <time>2026-01-31T13:23:09Z</time>
      </trkpt>
      <trkpt lat="48.69375" lon="1.74813">
        <ele>162.8</ele>
        <time>2026-01-31T13:23:11Z</time>
      </trkpt>
      <trkpt lat="48.69376" lon="1.74817">
        <ele>162.8</ele>
        <time>2026-01-31T13:23:13Z</time>
      </trkpt>
      <trkpt lat="48.69378" lon="1.74821">
        <ele>163</ele>
        <time>2026-01-31T13:23:15Z</time>
      </trkpt>
      <trkpt lat="48.69379" lon="1.74824">
        <ele>163</ele>
        <time>2026-01-31T13:23:17Z</time>
      </trkpt>
      <trkpt lat="48.6938" lon="1.74827">
        <ele>163</ele>
        <time>2026-01-31T13:23:19Z</time>
      </trkpt>
      <trkpt lat="48.69381" lon="1.7483">
        <ele>163.2</ele>
        <time>2026-01-31T13:23:21Z</time>
      </trkpt>
      <trkpt lat="48.69383" lon="1.74834">
        <ele>163.4</ele>
        <time>2026-01-31T13:23:23Z</time>
      </trkpt>
      <trkpt lat="48.69384" lon="1.74838">
        <ele>163.6</ele>
        <time>2026-01-31T13:23:25Z</time>
      </trkpt>
      <trkpt lat="48.69386" lon="1.74842">
        <ele>163.8</ele>
        <time>2026-01-31T13:23:27Z</time>
      </trkpt>
      <trkpt lat="48.69388" lon="1.74845">
        <ele>164</ele>
        <time>2026-01-31T13:23:29Z</time>
      </trkpt>
      <trkpt lat="48.69389" lon="1.74848">
        <ele>164.4</ele>
        <time>2026-01-31T13:23:31Z</time>
      </trkpt>
      <trkpt lat="48.69392" lon="1.74851">
        <ele>164.6</ele>
        <time>2026-01-31T13:23:33Z</time>
      </trkpt>
      <trkpt lat="48.69394" lon="1.74853">
        <ele>165</ele>
        <time>2026-01-31T13:23:35Z</time>
      </trkpt>
      <trkpt lat="48.69395" lon="1.74857">
        <ele>165.2</ele>
        <time>2026-01-31T13:23:37Z</time>
      </trkpt>
      <trkpt lat="48.69395" lon="1.74862">
        <ele>165.6</ele>
        <time>2026-01-31T13:23:40Z</time>
      </trkpt>
      <trkpt lat="48.69396" lon="1.74865">
        <ele>165.6</ele>
        <time>2026-01-31T13:23:41Z</time>
      </trkpt>
      <trkpt lat="48.69396" lon="1.7487">
        <ele>166</ele>
        <time>2026-01-31T13:23:43Z</time>
      </trkpt>
      <trkpt lat="48.69397" lon="1.74872">
        <ele>166</ele>
        <time>2026-01-31T13:23:44Z</time>
      </trkpt>
      <trkpt lat="48.69398" lon="1.74877">
        <ele>166.2</ele>
        <time>2026-01-31T13:23:46Z</time>
      </trkpt>
      <trkpt lat="48.69399" lon="1.74881">
        <ele>166.2</ele>
        <time>2026-01-31T13:23:48Z</time>
      </trkpt>
      <trkpt lat="48.69399" lon="1.74884">
        <ele>166.4</ele>
        <time>2026-01-31T13:23:50Z</time>
        <extensions>
          <gpxtpx:TrackPointExtension xmlns:gpxtpx="http://www.garmin.com/xmlschemas/TrackPointExtension/v1">
            <gpxtpx:hr>93</gpxtpx:hr>
          </gpxtpx:TrackPointExtension>
        </extensions>
      </trkpt>
      <trkpt lat="48.694" lon="1.74888">
        <ele>166.4</ele>
        <time>2026-01-31T13:23:53Z</time>
        <extensions>
          <gpxtpx:TrackPointExtension xmlns:gpxtpx="http://www.garmin.com/xmlschemas/TrackPointExtension/v1">
            <gpxtpx:hr>94</gpxtpx:hr>
          </gpxtpx:TrackPointExtension>
        </extensions>
      </trkpt>
      <trkpt lat="48.694" lon="1.74891">
        <ele>166.6</ele>
        <time>2026-01-31T13:23:55Z</time>
        <extensions>
          <gpxtpx:TrackPointExtension xmlns:gpxtpx="http://www.garmin.com/xmlschemas/TrackPointExtension/v1">
            <gpxtpx:hr>94</gpxtpx:hr>
          </gpxtpx:TrackPointExtension>
        </extensions>
      </trkpt>
      <trkpt lat="48.694" lon="1.74895">
        <ele>166.6</ele>
        <time>2026-01-31T13:23:57Z</time>
        <extensions>
          <gpxtpx:TrackPointExtension xmlns:gpxtpx="http://www.garmin.com/xmlschemas/TrackPointExtension/v1">
            <gpxtpx:hr>94</gpxtpx:hr>
          </gpxtpx:TrackPointExtension>
        </extensions>
      </trkpt>
      <trkpt lat="48.69402" lon="1.74899">
        <ele>166.6</ele>
        <time>2026-01-31T13:23:59Z</time>
        <extensions>
          <gpxtpx:TrackPointExtension xmlns:gpxtpx="http://www.garmin.com/xmlschemas/TrackPointExtension/v1">
            <gpxtpx:hr>94</gpxtpx:hr>
          </gpxtpx:TrackPointExtension>
        </extensions>
      </trkpt>
      <trkpt lat="48.69403" lon="1.74903">
        <ele>166.6</ele>
        <time>2026-01-31T13:24:01Z</time>
        <extensions>
          <gpxtpx:TrackPointExtension xmlns:gpxtpx="http://www.garmin.com/xmlschemas/TrackPointExtension/v1">
            <gpxtpx:hr>94</gpxtpx:hr>
          </gpxtpx:TrackPointExtension>
        </extensions>
      </trkpt>
      <trkpt lat="48.69404" lon="1.74906">
        <ele>166.8</ele>
        <time>2026-01-31T13:24:03Z</time>
        <extensions>
          <gpxtpx:TrackPointExtension xmlns:gpxtpx="http://www.garmin.com/xmlschemas/TrackPointExtension/v1">
            <gpxtpx:hr>94</gpxtpx:hr>
          </gpxtpx:TrackPointExtension>
        </extensions>
      </trkpt>
      <trkpt lat="48.69405" lon="1.7491">
        <ele>166.8</ele>
        <time>2026-01-31T13:24:05Z</time>
        <extensions>
          <gpxtpx:TrackPointExtension xmlns:gpxtpx="http://www.garmin.com/xmlschemas/TrackPointExtension/v1">
            <gpxtpx:hr>94</gpxtpx:hr>
          </gpxtpx:TrackPointExtension>
        </extensions>
      </trkpt>
      <trkpt lat="48.69406" lon="1.74913">
        <ele>166.8</ele>
        <time>2026-01-31T13:24:07Z</time>
        <extensions>
          <gpxtpx:TrackPointExtension xmlns:gpxtpx="http://www.garmin.com/xmlschemas/TrackPointExtension/v1">
            <gpxtpx:hr>94</gpxtpx:hr>
          </gpxtpx:TrackPointExtension>
        </extensions>
      </trkpt>
      <trkpt lat="48.69408" lon="1.74916">
        <ele>166.8</ele>
        <time>2026-01-31T13:24:09Z</time>
        <extensions>
          <gpxtpx:TrackPointExtension xmlns:gpxtpx="http://www.garmin.com/xmlschemas/TrackPointExtension/v1">
            <gpxtpx:hr>94</gpxtpx:hr>
          </gpxtpx:TrackPointExtension>
        </extensions>
      </trkpt>
      <trkpt lat="48.6941" lon="1.74919">
        <ele>167</ele>
        <time>2026-01-31T13:24:11Z</time>
        <extensions>
          <gpxtpx:TrackPointExtension xmlns:gpxtpx="http://www.garmin.com/xmlschemas/TrackPointExtension/v1">
            <gpxtpx:hr>94</gpxtpx:hr>
          </gpxtpx:TrackPointExtension>
        </extensions>
      </trkpt>
      <trkpt lat="48.69411" lon="1.74922">
        <ele>167</ele>
        <time>2026-01-31T13:24:13Z</time>
        <extensions>
          <gpxtpx:TrackPointExtension xmlns:gpxtpx="http://www.garmin.com/xmlschemas/TrackPointExtension/v1">
            <gpxtpx:hr>94</gpxtpx:hr>
          </gpxtpx:TrackPointExtension>
        </extensions>
      </trkpt>
      <trkpt lat="48.69412" lon="1.74927">
        <ele>167</ele>
        <time>2026-01-31T13:24:15Z</time>
        <extensions>
          <gpxtpx:TrackPointExtension xmlns:gpxtpx="http://www.garmin.com/xmlschemas/TrackPointExtension/v1">
            <gpxtpx:hr>94</gpxtpx:hr>
          </gpxtpx:TrackPointExtension>
        </extensions>
      </trkpt>
      <trkpt lat="48.69413" lon="1.74931">
        <ele>167</ele>
        <time>2026-01-31T13:24:17Z</time>
        <extensions>
          <gpxtpx:TrackPointExtension xmlns:gpxtpx="http://www.garmin.com/xmlschemas/TrackPointExtension/v1">
            <gpxtpx:hr>94</gpxtpx:hr>
          </gpxtpx:TrackPointExtension>
        </extensions>
      </trkpt>
      <trkpt lat="48.69414" lon="1.74934">
        <ele>167</ele>
        <time>2026-01-31T13:24:19Z</time>
        <extensions>
          <gpxtpx:TrackPointExtension xmlns:gpxtpx="http://www.garmin.com/xmlschemas/TrackPointExtension/v1">
            <gpxtpx:hr>94</gpxtpx:hr>
          </gpxtpx:TrackPointExtension>
        </extensions>
      </trkpt>
      <trkpt lat="48.69416" lon="1.74937">
        <ele>167</ele>
        <time>2026-01-31T13:24:21Z</time>
        <extensions>
          <gpxtpx:TrackPointExtension xmlns:gpxtpx="http://www.garmin.com/xmlschemas/TrackPointExtension/v1">
            <gpxtpx:hr>94</gpxtpx:hr>
          </gpxtpx:TrackPointExtension>
        </extensions>
      </trkpt>
      <trkpt lat="48.69418" lon="1.7494">
        <ele>167</ele>
        <time>2026-01-31T13:24:23Z</time>
        <extensions>
          <gpxtpx:TrackPointExtension xmlns:gpxtpx="http://www.garmin.com/xmlschemas/TrackPointExtension/v1">
            <gpxtpx:hr>94</gpxtpx:hr>
          </gpxtpx:TrackPointExtension>
        </extensions>
      </trkpt>
      <trkpt lat="48.6942" lon="1.74943">
        <ele>167.2</ele>
        <time>2026-01-31T13:24:25Z</time>
        <extensions>
          <gpxtpx:TrackPointExtension xmlns:gpxtpx="http://www.garmin.com/xmlschemas/TrackPointExtension/v1">
            <gpxtpx:hr>94</gpxtpx:hr>
          </gpxtpx:TrackPointExtension>
        </extensions>
      </trkpt>
      <trkpt lat="48.6942" lon="1.74946">
        <ele>167.2</ele>
        <time>2026-01-31T13:24:27Z</time>
        <extensions>
          <gpxtpx:TrackPointExtension xmlns:gpxtpx="http://www.garmin.com/xmlschemas/TrackPointExtension/v1">
            <gpxtpx:hr>94</gpxtpx:hr>
          </gpxtpx:TrackPointExtension>
        </extensions>
      </trkpt>
      <trkpt lat="48.69421" lon="1.7495">
        <ele>167.4</ele>
        <time>2026-01-31T13:24:29Z</time>
        <extensions>
          <gpxtpx:TrackPointExtension xmlns:gpxtpx="http://www.garmin.com/xmlschemas/TrackPointExtension/v1">
            <gpxtpx:hr>94</gpxtpx:hr>
          </gpxtpx:TrackPointExtension>
        </extensions>
      </trkpt>
      <trkpt lat="48.69421" lon="1.74954">
        <ele>167.4</ele>
        <time>2026-01-31T13:24:31Z</time>
        <extensions>
          <gpxtpx:TrackPointExtension xmlns:gpxtpx="http://www.garmin.com/xmlschemas/TrackPointExtension/v1">
            <gpxtpx:hr>94</gpxtpx:hr>
          </gpxtpx:TrackPointExtension>
        </extensions>
      </trkpt>
      <trkpt lat="48.69421" lon="1.74959">
        <ele>167.2</ele>
        <time>2026-01-31T13:24:33Z</time>
        <extensions>
          <gpxtpx:TrackPointExtension xmlns:gpxtpx="http://www.garmin.com/xmlschemas/TrackPointExtension/v1">
            <gpxtpx:hr>94</gpxtpx:hr>
          </gpxtpx:TrackPointExtension>
        </extensions>
      </trkpt>
      <trkpt lat="48.69421" lon="1.74963">
        <ele>167.2</ele>
        <time>2026-01-31T13:24:35Z</time>
        <extensions>
          <gpxtpx:TrackPointExtension xmlns:gpxtpx="http://www.garmin.com/xmlschemas/TrackPointExtension/v1">
            <gpxtpx:hr>95</gpxtpx:hr>
          </gpxtpx:TrackPointExtension>
        </extensions>
      </trkpt>
      <trkpt lat="48.69422" lon="1.74966">
        <ele>167</ele>
        <time>2026-01-31T13:24:37Z</time>
        <extensions>
          <gpxtpx:TrackPointExtension xmlns:gpxtpx="http://www.garmin.com/xmlschemas/TrackPointExtension/v1">
            <gpxtpx:hr>96</gpxtpx:hr>
          </gpxtpx:TrackPointExtension>
        </extensions>
      </trkpt>
      <trkpt lat="48.69423" lon="1.7497">
        <ele>167</ele>
        <time>2026-01-31T13:24:39Z</time>
        <extensions>
          <gpxtpx:TrackPointExtension xmlns:gpxtpx="http://www.garmin.com/xmlschemas/TrackPointExtension/v1">
            <gpxtpx:hr>97</gpxtpx:hr>
          </gpxtpx:TrackPointExtension>
        </extensions>
      </trkpt>
      <trkpt lat="48.69426" lon="1.74973">
        <ele>166.8</ele>
        <time>2026-01-31T13:24:41Z</time>
        <extensions>
          <gpxtpx:TrackPointExtension xmlns:gpxtpx="http://www.garmin.com/xmlschemas/TrackPointExtension/v1">
            <gpxtpx:hr>98</gpxtpx:hr>
          </gpxtpx:TrackPointExtension>
        </extensions>
      </trkpt>
      <trkpt lat="48.69427" lon="1.74975">
        <ele>166.8</ele>
        <time>2026-01-31T13:24:42Z</time>
        <extensions>
          <gpxtpx:TrackPointExtension xmlns:gpxtpx="http://www.garmin.com/xmlschemas/TrackPointExtension/v1">
            <gpxtpx:hr>98</gpxtpx:hr>
          </gpxtpx:TrackPointExtension>
        </extensions>
      </trkpt>
      <trkpt lat="48.69429" lon="1.74979">
        <ele>166.6</ele>
        <time>2026-01-31T13:24:44Z</time>
        <extensions>
          <gpxtpx:TrackPointExtension xmlns:gpxtpx="http://www.garmin.com/xmlschemas/TrackPointExtension/v1">
            <gpxtpx:hr>98</gpxtpx:hr>
          </gpxtpx:TrackPointExtension>
        </extensions>
      </trkpt>
      <trkpt lat="48.69431" lon="1.74983">
        <ele>166.6</ele>
        <time>2026-01-31T13:24:46Z</time>
        <extensions>
          <gpxtpx:TrackPointExtension xmlns:gpxtpx="http://www.garmin.com/xmlschemas/TrackPointExtension/v1">
            <gpxtpx:hr>98</gpxtpx:hr>
          </gpxtpx:TrackPointExtension>
        </extensions>
      </trkpt>
      <trkpt lat="48.69431" lon="1.74988">
        <ele>166.4</ele>
        <time>2026-01-31T13:24:48Z</time>
        <extensions>
          <gpxtpx:TrackPointExtension xmlns:gpxtpx="http://www.garmin.com/xmlschemas/TrackPointExtension/v1">
            <gpxtpx:hr>98</gpxtpx:hr>
          </gpxtpx:TrackPointExtension>
        </extensions>
      </trkpt>
      <trkpt lat="48.6943" lon="1.74992">
        <ele>166.2</ele>
        <time>2026-01-31T13:24:50Z</time>
        <extensions>
          <gpxtpx:TrackPointExtension xmlns:gpxtpx="http://www.garmin.com/xmlschemas/TrackPointExtension/v1">
            <gpxtpx:hr>98</gpxtpx:hr>
          </gpxtpx:TrackPointExtension>
        </extensions>
      </trkpt>
      <trkpt lat="48.6943" lon="1.74996">
        <ele>166</ele>
        <time>2026-01-31T13:24:52Z</time>
        <extensions>
          <gpxtpx:TrackPointExtension xmlns:gpxtpx="http://www.garmin.com/xmlschemas/TrackPointExtension/v1">
            <gpxtpx:hr>98</gpxtpx:hr>
          </gpxtpx:TrackPointExtension>
        </extensions>
      </trkpt>
      <trkpt lat="48.69431" lon="1.74999">
        <ele>166</ele>
        <time>2026-01-31T13:24:54Z</time>
        <extensions>
          <gpxtpx:TrackPointExtension xmlns:gpxtpx="http://www.garmin.com/xmlschemas/TrackPointExtension/v1">
            <gpxtpx:hr>98</gpxtpx:hr>
          </gpxtpx:TrackPointExtension>
        </extensions>
      </trkpt>
      <trkpt lat="48.69432" lon="1.75003">
        <ele>165.8</ele>
        <time>2026-01-31T13:24:56Z</time>
        <extensions>
          <gpxtpx:TrackPointExtension xmlns:gpxtpx="http://www.garmin.com/xmlschemas/TrackPointExtension/v1">
            <gpxtpx:hr>98</gpxtpx:hr>
          </gpxtpx:TrackPointExtension>
        </extensions>
      </trkpt>
      <trkpt lat="48.69434" lon="1.75006">
        <ele>165.8</ele>
        <time>2026-01-31T13:24:58Z</time>
        <extensions>
          <gpxtpx:TrackPointExtension xmlns:gpxtpx="http://www.garmin.com/xmlschemas/TrackPointExtension/v1">
            <gpxtpx:hr>98</gpxtpx:hr>
          </gpxtpx:TrackPointExtension>
        </extensions>
      </trkpt>
      <trkpt lat="48.69436" lon="1.75009">
        <ele>165.6</ele>
        <time>2026-01-31T13:25:00Z</time>
        <extensions>
          <gpxtpx:TrackPointExtension xmlns:gpxtpx="http://www.garmin.com/xmlschemas/TrackPointExtension/v1">
            <gpxtpx:hr>98</gpxtpx:hr>
          </gpxtpx:TrackPointExtension>
        </extensions>
      </trkpt>
      <trkpt lat="48.69437" lon="1.75012">
        <ele>165.6</ele>
        <time>2026-01-31T13:25:02Z</time>
        <extensions>
          <gpxtpx:TrackPointExtension xmlns:gpxtpx="http://www.garmin.com/xmlschemas/TrackPointExtension/v1">
            <gpxtpx:hr>98</gpxtpx:hr>
          </gpxtpx:TrackPointExtension>
        </extensions>
      </trkpt>
      <trkpt lat="48.69438" lon="1.75016">
        <ele>165.4</ele>
        <time>2026-01-31T13:25:04Z</time>
        <extensions>
          <gpxtpx:TrackPointExtension xmlns:gpxtpx="http://www.garmin.com/xmlschemas/TrackPointExtension/v1">
            <gpxtpx:hr>98</gpxtpx:hr>
          </gpxtpx:TrackPointExtension>
        </extensions>
      </trkpt>
      <trkpt lat="48.69438" lon="1.7502">
        <ele>165.4</ele>
        <time>2026-01-31T13:25:06Z</time>
        <extensions>
          <gpxtpx:TrackPointExtension xmlns:gpxtpx="http://www.garmin.com/xmlschemas/TrackPointExtension/v1">
            <gpxtpx:hr>98</gpxtpx:hr>
          </gpxtpx:TrackPointExtension>
        </extensions>
      </trkpt>
      <trkpt lat="48.69439" lon="1.75024">
        <ele>165.4</ele>
        <time>2026-01-31T13:25:08Z</time>
        <extensions>
          <gpxtpx:TrackPointExtension xmlns:gpxtpx="http://www.garmin.com/xmlschemas/TrackPointExtension/v1">
            <gpxtpx:hr>99</gpxtpx:hr>
          </gpxtpx:TrackPointExtension>
        </extensions>
      </trkpt>
      <trkpt lat="48.6944" lon="1.75028">
        <ele>165.4</ele>
        <time>2026-01-31T13:25:10Z</time>
        <extensions>
          <gpxtpx:TrackPointExtension xmlns:gpxtpx="http://www.garmin.com/xmlschemas/TrackPointExtension/v1">
            <gpxtpx:hr>99</gpxtpx:hr>
          </gpxtpx:TrackPointExtension>
        </extensions>
      </trkpt>
      <trkpt lat="48.6944" lon="1.75033">
        <ele>165.4</ele>
        <time>2026-01-31T13:25:12Z</time>
        <extensions>
          <gpxtpx:TrackPointExtension xmlns:gpxtpx="http://www.garmin.com/xmlschemas/TrackPointExtension/v1">
            <gpxtpx:hr>99</gpxtpx:hr>
          </gpxtpx:TrackPointExtension>
        </extensions>
      </trkpt>
      <trkpt lat="48.69441" lon="1.75037">
        <ele>165.4</ele>
        <time>2026-01-31T13:25:14Z</time>
        <extensions>
          <gpxtpx:TrackPointExtension xmlns:gpxtpx="http://www.garmin.com/xmlschemas/TrackPointExtension/v1">
            <gpxtpx:hr>99</gpxtpx:hr>
          </gpxtpx:TrackPointExtension>
        </extensions>
      </trkpt>
      <trkpt lat="48.69442" lon="1.75041">
        <ele>165.4</ele>
        <time>2026-01-31T13:25:16Z</time>
        <extensions>
          <gpxtpx:TrackPointExtension xmlns:gpxtpx="http://www.garmin.com/xmlschemas/TrackPointExtension/v1">
            <gpxtpx:hr>100</gpxtpx:hr>
          </gpxtpx:TrackPointExtension>
        </extensions>
      </trkpt>
      <trkpt lat="48.69443" lon="1.75046">
        <ele>165.6</ele>
        <time>2026-01-31T13:25:18Z</time>
        <extensions>
          <gpxtpx:TrackPointExtension xmlns:gpxtpx="http://www.garmin.com/xmlschemas/TrackPointExtension/v1">
            <gpxtpx:hr>100</gpxtpx:hr>
          </gpxtpx:TrackPointExtension>
        </extensions>
      </trkpt>
      <trkpt lat="48.69444" lon="1.75051">
        <ele>165.6</ele>
        <time>2026-01-31T13:25:20Z</time>
        <extensions>
          <gpxtpx:TrackPointExtension xmlns:gpxtpx="http://www.garmin.com/xmlschemas/TrackPointExtension/v1">
            <gpxtpx:hr>100</gpxtpx:hr>
          </gpxtpx:TrackPointExtension>
        </extensions>
      </trkpt>
      <trkpt lat="48.69445" lon="1.75055">
        <ele>165.8</ele>
        <time>2026-01-31T13:25:22Z</time>
        <extensions>
          <gpxtpx:TrackPointExtension xmlns:gpxtpx="http://www.garmin.com/xmlschemas/TrackPointExtension/v1">
            <gpxtpx:hr>100</gpxtpx:hr>
          </gpxtpx:TrackPointExtension>
        </extensions>
      </trkpt>
      <trkpt lat="48.69446" lon="1.75059">
        <ele>166</ele>
        <time>2026-01-31T13:25:24Z</time>
        <extensions>
          <gpxtpx:TrackPointExtension xmlns:gpxtpx="http://www.garmin.com/xmlschemas/TrackPointExtension/v1">
            <gpxtpx:hr>100</gpxtpx:hr>
          </gpxtpx:TrackPointExtension>
        </extensions>
      </trkpt>
      <trkpt lat="48.69447" lon="1.75063">
        <ele>166.2</ele>
        <time>2026-01-31T13:25:26Z</time>
        <extensions>
          <gpxtpx:TrackPointExtension xmlns:gpxtpx="http://www.garmin.com/xmlschemas/TrackPointExtension/v1">
            <gpxtpx:hr>100</gpxtpx:hr>
          </gpxtpx:TrackPointExtension>
        </extensions>
      </trkpt>
      <trkpt lat="48.69448" lon="1.75067">
        <ele>166.4</ele>
        <time>2026-01-31T13:25:28Z</time>
        <extensions>
          <gpxtpx:TrackPointExtension xmlns:gpxtpx="http://www.garmin.com/xmlschemas/TrackPointExtension/v1">
            <gpxtpx:hr>100</gpxtpx:hr>
          </gpxtpx:TrackPointExtension>
        </extensions>
      </trkpt>
      <trkpt lat="48.69448" lon="1.75071">
        <ele>166.8</ele>
        <time>2026-01-31T13:25:30Z</time>
        <extensions>
          <gpxtpx:TrackPointExtension xmlns:gpxtpx="http://www.garmin.com/xmlschemas/TrackPointExtension/v1">
            <gpxtpx:hr>100</gpxtpx:hr>
          </gpxtpx:TrackPointExtension>
        </extensions>
      </trkpt>
      <trkpt lat="48.69448" lon="1.75075">
        <ele>167</ele>
        <time>2026-01-31T13:25:32Z</time>
        <extensions>
          <gpxtpx:TrackPointExtension xmlns:gpxtpx="http://www.garmin.com/xmlschemas/TrackPointExtension/v1">
            <gpxtpx:hr>101</gpxtpx:hr>
          </gpxtpx:TrackPointExtension>
        </extensions>
      </trkpt>
      <trkpt lat="48.69448" lon="1.7508">
        <ele>167.2</ele>
        <time>2026-01-31T13:25:34Z</time>
        <extensions>
          <gpxtpx:TrackPointExtension xmlns:gpxtpx="http://www.garmin.com/xmlschemas/TrackPointExtension/v1">
            <gpxtpx:hr>101</gpxtpx:hr>
          </gpxtpx:TrackPointExtension>
        </extensions>
      </trkpt>
      <trkpt lat="48.6945" lon="1.75084">
        <ele>167.4</ele>
        <time>2026-01-31T13:25:36Z</time>
        <extensions>
          <gpxtpx:TrackPointExtension xmlns:gpxtpx="http://www.garmin.com/xmlschemas/TrackPointExtension/v1">
            <gpxtpx:hr>102</gpxtpx:hr>
          </gpxtpx:TrackPointExtension>
        </extensions>
      </trkpt>
      <trkpt lat="48.69451" lon="1.75087">
        <ele>167.6</ele>
        <time>2026-01-31T13:25:38Z</time>
        <extensions>
          <gpxtpx:TrackPointExtension xmlns:gpxtpx="http://www.garmin.com/xmlschemas/TrackPointExtension/v1">
            <gpxtpx:hr>102</gpxtpx:hr>
          </gpxtpx:TrackPointExtension>
        </extensions>
      </trkpt>
      <trkpt lat="48.69453" lon="1.75091">
        <ele>167.8</ele>
        <time>2026-01-31T13:25:40Z</time>
        <extensions>
          <gpxtpx:TrackPointExtension xmlns:gpxtpx="http://www.garmin.com/xmlschemas/TrackPointExtension/v1">
            <gpxtpx:hr>103</gpxtpx:hr>
          </gpxtpx:TrackPointExtension>
        </extensions>
      </trkpt>
      <trkpt lat="48.69454" lon="1.75094">
        <ele>168</ele>
        <time>2026-01-31T13:25:42Z</time>
      </trkpt>
      <trkpt lat="48.69455" lon="1.75097">
        <ele>168</ele>
        <time>2026-01-31T13:25:44Z</time>
      </trkpt>
      <trkpt lat="48.69455" lon="1.751">
        <ele>168</ele>
        <time>2026-01-31T13:25:46Z</time>
      </trkpt>
      <trkpt lat="48.69456" lon="1.75103">
        <ele>168.2</ele>
        <time>2026-01-31T13:25:48Z</time>
      </trkpt>
      <trkpt lat="48.69457" lon="1.75106">
        <ele>168.2</ele>
        <time>2026-01-31T13:25:50Z</time>
      </trkpt>
      <trkpt lat="48.69457" lon="1.75109">
        <ele>168.2</ele>
        <time>2026-01-31T13:25:52Z</time>
      </trkpt>
      <trkpt lat="48.69457" lon="1.75112">
        <ele>168.2</ele>
        <time>2026-01-31T13:25:54Z</time>
      </trkpt>
      <trkpt lat="48.69458" lon="1.75116">
        <ele>168.2</ele>
        <time>2026-01-31T13:25:56Z</time>
      </trkpt>
      <trkpt lat="48.69459" lon="1.75118">
        <ele>168.2</ele>
        <time>2026-01-31T13:25:58Z</time>
      </trkpt>
      <trkpt lat="48.69461" lon="1.7512">
        <ele>168.2</ele>
        <time>2026-01-31T13:26:00Z</time>
      </trkpt>
      <trkpt lat="48.69463" lon="1.75121">
        <ele>168</ele>
        <time>2026-01-31T13:26:05Z</time>
      </trkpt>
      <trkpt lat="48.69462" lon="1.75124">
        <ele>167.8</ele>
        <time>2026-01-31T13:26:10Z</time>
      </trkpt>
      <trkpt lat="48.69462" lon="1.75127">
        <ele>167.6</ele>
        <time>2026-01-31T13:26:13Z</time>
      </trkpt>
      <trkpt lat="48.69462" lon="1.75129">
        <ele>167.4</ele>
        <time>2026-01-31T13:26:15Z</time>
      </trkpt>
      <trkpt lat="48.69463" lon="1.75133">
        <ele>167.4</ele>
        <time>2026-01-31T13:26:17Z</time>
      </trkpt>
      <trkpt lat="48.69464" lon="1.75136">
        <ele>167.2</ele>
        <time>2026-01-31T13:26:19Z</time>
      </trkpt>
      <trkpt lat="48.69465" lon="1.7514">
        <ele>167</ele>
        <time>2026-01-31T13:26:21Z</time>
      </trkpt>
      <trkpt lat="48.69465" lon="1.75143">
        <ele>166.8</ele>
        <time>2026-01-31T13:26:23Z</time>
      </trkpt>
      <trkpt lat="48.69465" lon="1.75146">
        <ele>166.4</ele>
        <time>2026-01-31T13:26:25Z</time>
      </trkpt>
      <trkpt lat="48.69465" lon="1.7515">
        <ele>166</ele>
        <time>2026-01-31T13:26:28Z</time>
      </trkpt>
      <trkpt lat="48.69466" lon="1.75153">
        <ele>165.6</ele>
        <time>2026-01-31T13:26:30Z</time>
      </trkpt>
      <trkpt lat="48.69467" lon="1.75157">
        <ele>165.2</ele>
        <time>2026-01-31T13:26:32Z</time>
      </trkpt>
      <trkpt lat="48.69468" lon="1.7516">
        <ele>164.8</ele>
        <time>2026-01-31T13:26:34Z</time>
      </trkpt>
      <trkpt lat="48.69469" lon="1.75164">
        <ele>164.4</ele>
        <time>2026-01-31T13:26:36Z</time>
      </trkpt>
      <trkpt lat="48.69469" lon="1.75168">
        <ele>163.8</ele>
        <time>2026-01-31T13:26:38Z</time>
      </trkpt>
      <trkpt lat="48.6947" lon="1.75172">
        <ele>163.4</ele>
        <time>2026-01-31T13:26:40Z</time>
      </trkpt>
      <trkpt lat="48.69471" lon="1.75175">
        <ele>162.8</ele>
        <time>2026-01-31T13:26:42Z</time>
      </trkpt>
      <trkpt lat="48.69472" lon="1.75179">
        <ele>162.2</ele>
        <time>2026-01-31T13:26:44Z</time>
      </trkpt>
      <trkpt lat="48.69473" lon="1.75183">
        <ele>161.6</ele>
        <time>2026-01-31T13:26:46Z</time>
      </trkpt>
      <trkpt lat="48.69473" lon="1.75186">
        <ele>161</ele>
        <time>2026-01-31T13:26:48Z</time>
      </trkpt>
      <trkpt lat="48.69474" lon="1.75188">
        <ele>160.4</ele>
        <time>2026-01-31T13:26:50Z</time>
      </trkpt>
      <trkpt lat="48.69475" lon="1.75191">
        <ele>159.8</ele>
        <time>2026-01-31T13:26:52Z</time>
      </trkpt>
      <trkpt lat="48.69476" lon="1.75194">
        <ele>159.2</ele>
        <time>2026-01-31T13:26:54Z</time>
      </trkpt>
      <trkpt lat="48.69478" lon="1.75197">
        <ele>158.6</ele>
        <time>2026-01-31T13:26:56Z</time>
      </trkpt>
      <trkpt lat="48.69479" lon="1.75201">
        <ele>158.2</ele>
        <time>2026-01-31T13:26:58Z</time>
      </trkpt>
      <trkpt lat="48.69481" lon="1.75206">
        <ele>157.8</ele>
        <time>2026-01-31T13:27:00Z</time>
      </trkpt>
      <trkpt lat="48.69483" lon="1.7521">
        <ele>157.4</ele>
        <time>2026-01-31T13:27:02Z</time>
      </trkpt>
      <trkpt lat="48.69484" lon="1.75214">
        <ele>157</ele>
        <time>2026-01-31T13:27:04Z</time>
      </trkpt>
      <trkpt lat="48.69486" lon="1.75219">
        <ele>156.8</ele>
        <time>2026-01-31T13:27:06Z</time>
      </trkpt>
      <trkpt lat="48.69487" lon="1.75224">
        <ele>156.6</ele>
        <time>2026-01-31T13:27:08Z</time>
      </trkpt>
      <trkpt lat="48.69488" lon="1.75229">
        <ele>156.2</ele>
        <time>2026-01-31T13:27:10Z</time>
      </trkpt>
      <trkpt lat="48.69489" lon="1.75234">
        <ele>156</ele>
        <time>2026-01-31T13:27:12Z</time>
      </trkpt>
      <trkpt lat="48.69489" lon="1.75237">
        <ele>155.8</ele>
        <time>2026-01-31T13:27:13Z</time>
      </trkpt>
      <trkpt lat="48.6949" lon="1.7524">
        <ele>155.8</ele>
        <time>2026-01-31T13:27:14Z</time>
      </trkpt>
      <trkpt lat="48.69491" lon="1.75243">
        <ele>155.6</ele>
        <time>2026-01-31T13:27:15Z</time>
      </trkpt>
      <trkpt lat="48.69492" lon="1.75246">
        <ele>155.4</ele>
        <time>2026-01-31T13:27:16Z</time>
      </trkpt>
      <trkpt lat="48.69493" lon="1.7525">
        <ele>155.4</ele>
        <time>2026-01-31T13:27:17Z</time>
      </trkpt>
      <trkpt lat="48.69495" lon="1.75254">
        <ele>155.2</ele>
        <time>2026-01-31T13:27:18Z</time>
      </trkpt>
      <trkpt lat="48.69496" lon="1.75258">
        <ele>155</ele>
        <time>2026-01-31T13:27:19Z</time>
      </trkpt>
      <trkpt lat="48.69497" lon="1.75262">
        <ele>154.8</ele>
        <time>2026-01-31T13:27:20Z</time>
      </trkpt>
      <trkpt lat="48.69498" lon="1.75266">
        <ele>154.8</ele>
        <time>2026-01-31T13:27:21Z</time>
      </trkpt>
      <trkpt lat="48.69499" lon="1.75271">
        <ele>154.6</ele>
        <time>2026-01-31T13:27:22Z</time>
      </trkpt>
      <trkpt lat="48.695" lon="1.75275">
        <ele>154.6</ele>
        <time>2026-01-31T13:27:23Z</time>
      </trkpt>
      <trkpt lat="48.69501" lon="1.7528">
        <ele>154.4</ele>
        <time>2026-01-31T13:27:24Z</time>
      </trkpt>
      <trkpt lat="48.69503" lon="1.75284">
        <ele>154.2</ele>
        <time>2026-01-31T13:27:25Z</time>
      </trkpt>
      <trkpt lat="48.69504" lon="1.75289">
        <ele>154.2</ele>
        <time>2026-01-31T13:27:26Z</time>
      </trkpt>
      <trkpt lat="48.69505" lon="1.75294">
        <ele>154</ele>
        <time>2026-01-31T13:27:27Z</time>
      </trkpt>
      <trkpt lat="48.69507" lon="1.75299">
        <ele>153.8</ele>
        <time>2026-01-31T13:27:28Z</time>
      </trkpt>
      <trkpt lat="48.69508" lon="1.75304">
        <ele>153.8</ele>
        <time>2026-01-31T13:27:29Z</time>
      </trkpt>
      <trkpt lat="48.69509" lon="1.75309">
        <ele>153.6</ele>
        <time>2026-01-31T13:27:30Z</time>
      </trkpt>
      <trkpt lat="48.6951" lon="1.75313">
        <ele>153.6</ele>
        <time>2026-01-31T13:27:31Z</time>
      </trkpt>
      <trkpt lat="48.69511" lon="1.75318">
        <ele>153.6</ele>
        <time>2026-01-31T13:27:32Z</time>
      </trkpt>
      <trkpt lat="48.69513" lon="1.75322">
        <ele>153.4</ele>
        <time>2026-01-31T13:27:33Z</time>
      </trkpt>
      <trkpt lat="48.69514" lon="1.75327">
        <ele>153.4</ele>
        <time>2026-01-31T13:27:34Z</time>
      </trkpt>
      <trkpt lat="48.69516" lon="1.75331">
        <ele>153.4</ele>
        <time>2026-01-31T13:27:35Z</time>
      </trkpt>
      <trkpt lat="48.69517" lon="1.75336">
        <ele>153.2</ele>
        <time>2026-01-31T13:27:36Z</time>
      </trkpt>
      <trkpt lat="48.69519" lon="1.75341">
        <ele>153.2</ele>
        <time>2026-01-31T13:27:37Z</time>
      </trkpt>
      <trkpt lat="48.6952" lon="1.75347">
        <ele>153.2</ele>
        <time>2026-01-31T13:27:38Z</time>
      </trkpt>
      <trkpt lat="48.69521" lon="1.75353">
        <ele>153</ele>
        <time>2026-01-31T13:27:39Z</time>
      </trkpt>
      <trkpt lat="48.69523" lon="1.7536">
        <ele>153</ele>
        <time>2026-01-31T13:27:40Z</time>
      </trkpt>
      <trkpt lat="48.69524" lon="1.75368">
        <ele>152.8</ele>
        <time>2026-01-31T13:27:41Z</time>
      </trkpt>
      <trkpt lat="48.69526" lon="1.75375">
        <ele>152.8</ele>
        <time>2026-01-31T13:27:42Z</time>
      </trkpt>
      <trkpt lat="48.69528" lon="1.75382">
        <ele>152.6</ele>
        <time>2026-01-31T13:27:43Z</time>
      </trkpt>
      <trkpt lat="48.6953" lon="1.7539">
        <ele>152.6</ele>
        <time>2026-01-31T13:27:44Z</time>
      </trkpt>
      <trkpt lat="48.69532" lon="1.75397">
        <ele>152.4</ele>
        <time>2026-01-31T13:27:45Z</time>
      </trkpt>
      <trkpt lat="48.69534" lon="1.75404">
        <ele>152.4</ele>
        <time>2026-01-31T13:27:46Z</time>
      </trkpt>
      <trkpt lat="48.69536" lon="1.75411">
        <ele>152.2</ele>
        <time>2026-01-31T13:27:47Z</time>
      </trkpt>
      <trkpt lat="48.69539" lon="1.75418">
        <ele>152.2</ele>
        <time>2026-01-31T13:27:48Z</time>
      </trkpt>
      <trkpt lat="48.6954" lon="1.75425">
        <ele>152.2</ele>
        <time>2026-01-31T13:27:49Z</time>
      </trkpt>
      <trkpt lat="48.69542" lon="1.75432">
        <ele>152</ele>
        <time>2026-01-31T13:27:50Z</time>
      </trkpt>
      <trkpt lat="48.69544" lon="1.75439">
        <ele>152</ele>
        <time>2026-01-31T13:27:51Z</time>
      </trkpt>
      <trkpt lat="48.69545" lon="1.75446">
        <ele>152</ele>
        <time>2026-01-31T13:27:52Z</time>
      </trkpt>
      <trkpt lat="48.69547" lon="1.75453">
        <ele>151.8</ele>
        <time>2026-01-31T13:27:53Z</time>
      </trkpt>
      <trkpt lat="48.69548" lon="1.7546">
        <ele>151.8</ele>
        <time>2026-01-31T13:27:54Z</time>
      </trkpt>
      <trkpt lat="48.6955" lon="1.75466">
        <ele>151.8</ele>
        <time>2026-01-31T13:27:55Z</time>
      </trkpt>
      <trkpt lat="48.69552" lon="1.75473">
        <ele>151.8</ele>
        <time>2026-01-31T13:27:56Z</time>
      </trkpt>
      <trkpt lat="48.69554" lon="1.75479">
        <ele>151.6</ele>
        <time>2026-01-31T13:27:57Z</time>
      </trkpt>
      <trkpt lat="48.69556" lon="1.75486">
        <ele>151.6</ele>
        <time>2026-01-31T13:27:58Z</time>
      </trkpt>
      <trkpt lat="48.69557" lon="1.75492">
        <ele>151.6</ele>
        <time>2026-01-31T13:27:59Z</time>
      </trkpt>
      <trkpt lat="48.69558" lon="1.75498">
        <ele>151.4</ele>
        <time>2026-01-31T13:28:00Z</time>
      </trkpt>
      <trkpt lat="48.69559" lon="1.75503">
        <ele>151.4</ele>
        <time>2026-01-31T13:28:01Z</time>
      </trkpt>
      <trkpt lat="48.69561" lon="1.75509">
        <ele>151.2</ele>
        <time>2026-01-31T13:28:02Z</time>
      </trkpt>
      <trkpt lat="48.69561" lon="1.75514">
        <ele>151.2</ele>
        <time>2026-01-31T13:28:03Z</time>
      </trkpt>
      <trkpt lat="48.69563" lon="1.75519">
        <ele>151</ele>
        <time>2026-01-31T13:28:04Z</time>
      </trkpt>
      <trkpt lat="48.69564" lon="1.75525">
        <ele>151</ele>
        <time>2026-01-31T13:28:05Z</time>
      </trkpt>
      <trkpt lat="48.69565" lon="1.75531">
        <ele>150.8</ele>
        <time>2026-01-31T13:28:06Z</time>
      </trkpt>
      <trkpt lat="48.69567" lon="1.75538">
        <ele>150.8</ele>
        <time>2026-01-31T13:28:07Z</time>
      </trkpt>
      <trkpt lat="48.69568" lon="1.75544">
        <ele>150.8</ele>
        <time>2026-01-31T13:28:08Z</time>
      </trkpt>
      <trkpt lat="48.6957" lon="1.75551">
        <ele>150.6</ele>
        <time>2026-01-31T13:28:09Z</time>
      </trkpt>
      <trkpt lat="48.69572" lon="1.75558">
        <ele>150.6</ele>
        <time>2026-01-31T13:28:10Z</time>
      </trkpt>
      <trkpt lat="48.69573" lon="1.75565">
        <ele>150.6</ele>
        <time>2026-01-31T13:28:11Z</time>
      </trkpt>
      <trkpt lat="48.69575" lon="1.75572">
        <ele>150.6</ele>
        <time>2026-01-31T13:28:12Z</time>
      </trkpt>
      <trkpt lat="48.69577" lon="1.7558">
        <ele>150.6</ele>
        <time>2026-01-31T13:28:13Z</time>
      </trkpt>
      <trkpt lat="48.69579" lon="1.75587">
        <ele>150.6</ele>
        <time>2026-01-31T13:28:14Z</time>
      </trkpt>
      <trkpt lat="48.6958" lon="1.75595">
        <ele>150.4</ele>
        <time>2026-01-31T13:28:15Z</time>
      </trkpt>
      <trkpt lat="48.69582" lon="1.75602">
        <ele>150.4</ele>
        <time>2026-01-31T13:28:16Z</time>
      </trkpt>
      <trkpt lat="48.69583" lon="1.75609">
        <ele>150.4</ele>
        <time>2026-01-31T13:28:17Z</time>
      </trkpt>
      <trkpt lat="48.69584" lon="1.75617">
        <ele>150.4</ele>
        <time>2026-01-31T13:28:18Z</time>
      </trkpt>
      <trkpt lat="48.69585" lon="1.75624">
        <ele>150.6</ele>
        <time>2026-01-31T13:28:19Z</time>
      </trkpt>
      <trkpt lat="48.69587" lon="1.75632">
        <ele>150.6</ele>
        <time>2026-01-31T13:28:20Z</time>
      </trkpt>
      <trkpt lat="48.69588" lon="1.75639">
        <ele>150.6</ele>
        <time>2026-01-31T13:28:21Z</time>
      </trkpt>
      <trkpt lat="48.6959" lon="1.75646">
        <ele>150.6</ele>
        <time>2026-01-31T13:28:22Z</time>
      </trkpt>
      <trkpt lat="48.69591" lon="1.75654">
        <ele>150.6</ele>
        <time>2026-01-31T13:28:23Z</time>
      </trkpt>
      <trkpt lat="48.69592" lon="1.75661">
        <ele>150.8</ele>
        <time>2026-01-31T13:28:24Z</time>
      </trkpt>
      <trkpt lat="48.69593" lon="1.75668">
        <ele>150.8</ele>
        <time>2026-01-31T13:28:25Z</time>
      </trkpt>
      <trkpt lat="48.69595" lon="1.75675">
        <ele>150.8</ele>
        <time>2026-01-31T13:28:26Z</time>
      </trkpt>
      <trkpt lat="48.69596" lon="1.75683">
        <ele>150.8</ele>
        <time>2026-01-31T13:28:27Z</time>
      </trkpt>
      <trkpt lat="48.69599" lon="1.75692">
        <ele>150.8</ele>
        <time>2026-01-31T13:28:28Z</time>
      </trkpt>
      <trkpt lat="48.69602" lon="1.75702">
        <ele>151</ele>
        <time>2026-01-31T13:28:29Z</time>
      </trkpt>
      <trkpt lat="48.69604" lon="1.75712">
        <ele>151</ele>
        <time>2026-01-31T13:28:30Z</time>
      </trkpt>
      <trkpt lat="48.69608" lon="1.75723">
        <ele>151</ele>
        <time>2026-01-31T13:28:31Z</time>
      </trkpt>
      <trkpt lat="48.69611" lon="1.75734">
        <ele>151.2</ele>
        <time>2026-01-31T13:28:32Z</time>
      </trkpt>
      <trkpt lat="48.69615" lon="1.75745">
        <ele>151.2</ele>
        <time>2026-01-31T13:28:33Z</time>
      </trkpt>
      <trkpt lat="48.69618" lon="1.75756">
        <ele>151.4</ele>
        <time>2026-01-31T13:28:34Z</time>
      </trkpt>
      <trkpt lat="48.69621" lon="1.75768">
        <ele>151.4</ele>
        <time>2026-01-31T13:28:35Z</time>
      </trkpt>
      <trkpt lat="48.69624" lon="1.75778">
        <ele>151.6</ele>
        <time>2026-01-31T13:28:36Z</time>
      </trkpt>
      <trkpt lat="48.69628" lon="1.75789">
        <ele>151.8</ele>
        <time>2026-01-31T13:28:37Z</time>
      </trkpt>
      <trkpt lat="48.6963" lon="1.75798">
        <ele>151.8</ele>
        <time>2026-01-31T13:28:38Z</time>
      </trkpt>
      <trkpt lat="48.69632" lon="1.75808">
        <ele>152</ele>
        <time>2026-01-31T13:28:39Z</time>
      </trkpt>
      <trkpt lat="48.69635" lon="1.75816">
        <ele>152</ele>
        <time>2026-01-31T13:28:40Z</time>
      </trkpt>
      <trkpt lat="48.69637" lon="1.75825">
        <ele>152.2</ele>
        <time>2026-01-31T13:28:41Z</time>
      </trkpt>
      <trkpt lat="48.69639" lon="1.75833">
        <ele>152.4</ele>
        <time>2026-01-31T13:28:42Z</time>
      </trkpt>
      <trkpt lat="48.69642" lon="1.75842">
        <ele>152.4</ele>
        <time>2026-01-31T13:28:43Z</time>
      </trkpt>
      <trkpt lat="48.69647" lon="1.75859">
        <ele>152.8</ele>
        <time>2026-01-31T13:28:45Z</time>
      </trkpt>
      <trkpt lat="48.6965" lon="1.75868">
        <ele>152.8</ele>
        <time>2026-01-31T13:28:46Z</time>
      </trkpt>
      <trkpt lat="48.69652" lon="1.75877">
        <ele>153</ele>
        <time>2026-01-31T13:28:47Z</time>
      </trkpt>
      <trkpt lat="48.69654" lon="1.75886">
        <ele>153</ele>
        <time>2026-01-31T13:28:48Z</time>
      </trkpt>
      <trkpt lat="48.69656" lon="1.75894">
        <ele>153.2</ele>
        <time>2026-01-31T13:28:49Z</time>
      </trkpt>
      <trkpt lat="48.69658" lon="1.75902">
        <ele>153.4</ele>
        <time>2026-01-31T13:28:50Z</time>
      </trkpt>
      <trkpt lat="48.69659" lon="1.75911">
        <ele>153.4</ele>
        <time>2026-01-31T13:28:51Z</time>
      </trkpt>
      <trkpt lat="48.6966" lon="1.75919">
        <ele>153.6</ele>
        <time>2026-01-31T13:28:52Z</time>
      </trkpt>
      <trkpt lat="48.6966" lon="1.75927">
        <ele>153.8</ele>
        <time>2026-01-31T13:28:53Z</time>
      </trkpt>
      <trkpt lat="48.69661" lon="1.75935">
        <ele>153.8</ele>
        <time>2026-01-31T13:28:54Z</time>
      </trkpt>
      <trkpt lat="48.69662" lon="1.75943">
        <ele>154</ele>
        <time>2026-01-31T13:28:55Z</time>
      </trkpt>
      <trkpt lat="48.69663" lon="1.7595">
        <ele>154.2</ele>
        <time>2026-01-31T13:28:56Z</time>
      </trkpt>
      <trkpt lat="48.69664" lon="1.75958">
        <ele>154.4</ele>
        <time>2026-01-31T13:28:57Z</time>
      </trkpt>
      <trkpt lat="48.69664" lon="1.75966">
        <ele>154.6</ele>
        <time>2026-01-31T13:28:58Z</time>
      </trkpt>
      <trkpt lat="48.69666" lon="1.75973">
        <ele>154.8</ele>
        <time>2026-01-31T13:28:59Z</time>
      </trkpt>
      <trkpt lat="48.69666" lon="1.75981">
        <ele>155</ele>
        <time>2026-01-31T13:29:00Z</time>
      </trkpt>
      <trkpt lat="48.69667" lon="1.75989">
        <ele>155.2</ele>
        <time>2026-01-31T13:29:01Z</time>
      </trkpt>
      <trkpt lat="48.69668" lon="1.75996">
        <ele>155.4</ele>
        <time>2026-01-31T13:29:02Z</time>
      </trkpt>
      <trkpt lat="48.69668" lon="1.76003">
        <ele>155.6</ele>
        <time>2026-01-31T13:29:03Z</time>
      </trkpt>
      <trkpt lat="48.69669" lon="1.7601">
        <ele>155.8</ele>
        <time>2026-01-31T13:29:04Z</time>
      </trkpt>
      <trkpt lat="48.6967" lon="1.76017">
        <ele>156</ele>
        <time>2026-01-31T13:29:05Z</time>
      </trkpt>
      <trkpt lat="48.69671" lon="1.76023">
        <ele>156.2</ele>
        <time>2026-01-31T13:29:06Z</time>
      </trkpt>
      <trkpt lat="48.69672" lon="1.7603">
        <ele>156.4</ele>
        <time>2026-01-31T13:29:07Z</time>
      </trkpt>
      <trkpt lat="48.69673" lon="1.76036">
        <ele>156.6</ele>
        <time>2026-01-31T13:29:08Z</time>
      </trkpt>
      <trkpt lat="48.69674" lon="1.76042">
        <ele>157</ele>
        <time>2026-01-31T13:29:09Z</time>
      </trkpt>
      <trkpt lat="48.69676" lon="1.76048">
        <ele>157.2</ele>
        <time>2026-01-31T13:29:10Z</time>
      </trkpt>
      <trkpt lat="48.69677" lon="1.76054">
        <ele>157.6</ele>
        <time>2026-01-31T13:29:11Z</time>
      </trkpt>
      <trkpt lat="48.69678" lon="1.7606">
        <ele>157.8</ele>
        <time>2026-01-31T13:29:12Z</time>
      </trkpt>
      <trkpt lat="48.6968" lon="1.76066">
        <ele>158</ele>
        <time>2026-01-31T13:29:13Z</time>
      </trkpt>
      <trkpt lat="48.69681" lon="1.76072">
        <ele>158.4</ele>
        <time>2026-01-31T13:29:14Z</time>
      </trkpt>
      <trkpt lat="48.69682" lon="1.76079">
        <ele>158.6</ele>
        <time>2026-01-31T13:29:15Z</time>
      </trkpt>
      <trkpt lat="48.69683" lon="1.76085">
        <ele>159</ele>
        <time>2026-01-31T13:29:16Z</time>
      </trkpt>
      <trkpt lat="48.69684" lon="1.76092">
        <ele>159.2</ele>
        <time>2026-01-31T13:29:17Z</time>
      </trkpt>
      <trkpt lat="48.69685" lon="1.76099">
        <ele>159.4</ele>
        <time>2026-01-31T13:29:18Z</time>
      </trkpt>
      <trkpt lat="48.69685" lon="1.76105">
        <ele>159.8</ele>
        <time>2026-01-31T13:29:19Z</time>
      </trkpt>
      <trkpt lat="48.69686" lon="1.76112">
        <ele>160</ele>
        <time>2026-01-31T13:29:20Z</time>
      </trkpt>
      <trkpt lat="48.69687" lon="1.7612">
        <ele>160.2</ele>
        <time>2026-01-31T13:29:21Z</time>
      </trkpt>
      <trkpt lat="48.69687" lon="1.76127">
        <ele>160.6</ele>
        <time>2026-01-31T13:29:22Z</time>
      </trkpt>
      <trkpt lat="48.69688" lon="1.76134">
        <ele>160.8</ele>
        <time>2026-01-31T13:29:23Z</time>
      </trkpt>
      <trkpt lat="48.69689" lon="1.76142">
        <ele>161</ele>
        <time>2026-01-31T13:29:24Z</time>
      </trkpt>
      <trkpt lat="48.69689" lon="1.76149">
        <ele>161.4</ele>
        <time>2026-01-31T13:29:25Z</time>
      </trkpt>
      <trkpt lat="48.6969" lon="1.76157">
        <ele>161.6</ele>
        <time>2026-01-31T13:29:26Z</time>
      </trkpt>
      <trkpt lat="48.6969" lon="1.76164">
        <ele>161.8</ele>
        <time>2026-01-31T13:29:27Z</time>
      </trkpt>
      <trkpt lat="48.69691" lon="1.76172">
        <ele>162</ele>
        <time>2026-01-31T13:29:28Z</time>
      </trkpt>
      <trkpt lat="48.69692" lon="1.7618">
        <ele>162.4</ele>
        <time>2026-01-31T13:29:29Z</time>
      </trkpt>
      <trkpt lat="48.69694" lon="1.76188">
        <ele>162.6</ele>
        <time>2026-01-31T13:29:30Z</time>
      </trkpt>
      <trkpt lat="48.69695" lon="1.76197">
        <ele>162.8</ele>
        <time>2026-01-31T13:29:31Z</time>
      </trkpt>
      <trkpt lat="48.69697" lon="1.76205">
        <ele>163</ele>
        <time>2026-01-31T13:29:32Z</time>
      </trkpt>
      <trkpt lat="48.69698" lon="1.76213">
        <ele>163.4</ele>
        <time>2026-01-31T13:29:33Z</time>
      </trkpt>
      <trkpt lat="48.69699" lon="1.76221">
        <ele>163.6</ele>
        <time>2026-01-31T13:29:34Z</time>
      </trkpt>
      <trkpt lat="48.697" lon="1.76229">
        <ele>163.8</ele>
        <time>2026-01-31T13:29:35Z</time>
      </trkpt>
      <trkpt lat="48.69701" lon="1.76237">
        <ele>164.2</ele>
        <time>2026-01-31T13:29:36Z</time>
      </trkpt>
      <trkpt lat="48.69702" lon="1.76244">
        <ele>164.4</ele>
        <time>2026-01-31T13:29:37Z</time>
      </trkpt>
      <trkpt lat="48.69704" lon="1.76251">
        <ele>164.6</ele>
        <time>2026-01-31T13:29:38Z</time>
      </trkpt>
      <trkpt lat="48.69705" lon="1.76258">
        <ele>165</ele>
        <time>2026-01-31T13:29:39Z</time>
      </trkpt>
      <trkpt lat="48.69706" lon="1.76265">
        <ele>165.4</ele>
        <time>2026-01-31T13:29:40Z</time>
      </trkpt>
      <trkpt lat="48.69707" lon="1.76271">
        <ele>165.6</ele>
        <time>2026-01-31T13:29:41Z</time>
      </trkpt>
      <trkpt lat="48.69708" lon="1.76278">
        <ele>165.8</ele>
        <time>2026-01-31T13:29:42Z</time>
      </trkpt>
      <trkpt lat="48.69708" lon="1.76285">
        <ele>166.2</ele>
        <time>2026-01-31T13:29:43Z</time>
      </trkpt>
      <trkpt lat="48.69708" lon="1.76292">
        <ele>166.4</ele>
        <time>2026-01-31T13:29:44Z</time>
      </trkpt>
      <trkpt lat="48.69708" lon="1.76298">
        <ele>166.6</ele>
        <time>2026-01-31T13:29:45Z</time>
      </trkpt>
      <trkpt lat="48.69708" lon="1.76305">
        <ele>166.8</ele>
        <time>2026-01-31T13:29:46Z</time>
      </trkpt>
      <trkpt lat="48.69709" lon="1.76311">
        <ele>167</ele>
        <time>2026-01-31T13:29:47Z</time>
      </trkpt>
      <trkpt lat="48.6971" lon="1.76317">
        <ele>167.2</ele>
        <time>2026-01-31T13:29:48Z</time>
      </trkpt>
      <trkpt lat="48.69711" lon="1.76323">
        <ele>167.4</ele>
        <time>2026-01-31T13:29:49Z</time>
      </trkpt>
      <trkpt lat="48.69712" lon="1.76328">
        <ele>167.6</ele>
        <time>2026-01-31T13:29:50Z</time>
      </trkpt>
      <trkpt lat="48.69712" lon="1.76333">
        <ele>167.8</ele>
        <time>2026-01-31T13:29:51Z</time>
      </trkpt>
      <trkpt lat="48.69712" lon="1.76337">
        <ele>168</ele>
        <time>2026-01-31T13:29:52Z</time>
      </trkpt>
      <trkpt lat="48.69712" lon="1.7634">
        <ele>168.2</ele>
        <time>2026-01-31T13:29:53Z</time>
      </trkpt>
      <trkpt lat="48.69712" lon="1.76344">
        <ele>168.4</ele>
        <time>2026-01-31T13:29:54Z</time>
      </trkpt>
      <trkpt lat="48.69712" lon="1.76347">
        <ele>168.6</ele>
        <time>2026-01-31T13:29:55Z</time>
      </trkpt>
      <trkpt lat="48.69712" lon="1.7635">
        <ele>168.8</ele>
        <time>2026-01-31T13:29:56Z</time>
      </trkpt>
      <trkpt lat="48.69713" lon="1.76353">
        <ele>169</ele>
        <time>2026-01-31T13:29:57Z</time>
      </trkpt>
      <trkpt lat="48.69713" lon="1.76358">
        <ele>169.2</ele>
        <time>2026-01-31T13:29:59Z</time>
      </trkpt>
      <trkpt lat="48.69714" lon="1.76363">
        <ele>169.4</ele>
        <time>2026-01-31T13:30:01Z</time>
      </trkpt>
      <trkpt lat="48.69714" lon="1.76369">
        <ele>169.8</ele>
        <time>2026-01-31T13:30:03Z</time>
      </trkpt>
      <trkpt lat="48.69715" lon="1.76371">
        <ele>169.8</ele>
        <time>2026-01-31T13:30:04Z</time>
      </trkpt>
      <trkpt lat="48.69715" lon="1.76374">
        <ele>170</ele>
        <time>2026-01-31T13:30:05Z</time>
      </trkpt>
      <trkpt lat="48.69715" lon="1.76379">
        <ele>170.2</ele>
        <time>2026-01-31T13:30:07Z</time>
      </trkpt>
      <trkpt lat="48.69715" lon="1.76384">
        <ele>170.6</ele>
        <time>2026-01-31T13:30:09Z</time>
      </trkpt>
      <trkpt lat="48.69715" lon="1.76389">
        <ele>170.8</ele>
        <time>2026-01-31T13:30:11Z</time>
      </trkpt>
      <trkpt lat="48.69716" lon="1.76394">
        <ele>171</ele>
        <time>2026-01-31T13:30:13Z</time>
      </trkpt>
      <trkpt lat="48.69716" lon="1.76399">
        <ele>171.2</ele>
        <time>2026-01-31T13:30:15Z</time>
      </trkpt>
      <trkpt lat="48.69717" lon="1.76402">
        <ele>171.4</ele>
        <time>2026-01-31T13:30:16Z</time>
      </trkpt>
      <trkpt lat="48.69717" lon="1.76404">
        <ele>171.6</ele>
        <time>2026-01-31T13:30:17Z</time>
      </trkpt>
      <trkpt lat="48.69718" lon="1.76407">
        <ele>171.6</ele>
        <time>2026-01-31T13:30:18Z</time>
      </trkpt>
      <trkpt lat="48.69718" lon="1.7641">
        <ele>171.8</ele>
        <time>2026-01-31T13:30:19Z</time>
      </trkpt>
      <trkpt lat="48.69718" lon="1.76414">
        <ele>172</ele>
        <time>2026-01-31T13:30:21Z</time>
      </trkpt>
      <trkpt lat="48.69718" lon="1.76418">
        <ele>172.2</ele>
        <time>2026-01-31T13:30:23Z</time>
      </trkpt>
      <trkpt lat="48.69719" lon="1.76422">
        <ele>172.4</ele>
        <time>2026-01-31T13:30:25Z</time>
      </trkpt>
      <trkpt lat="48.69722" lon="1.76426">
        <ele>172.6</ele>
        <time>2026-01-31T13:30:27Z</time>
      </trkpt>
      <trkpt lat="48.69723" lon="1.76428">
        <ele>172.6</ele>
        <time>2026-01-31T13:30:28Z</time>
      </trkpt>
      <trkpt lat="48.69725" lon="1.76432">
        <ele>172.6</ele>
        <time>2026-01-31T13:30:30Z</time>
      </trkpt>
      <trkpt lat="48.69727" lon="1.76436">
        <ele>172.8</ele>
        <time>2026-01-31T13:30:32Z</time>
      </trkpt>
      <trkpt lat="48.69728" lon="1.7644">
        <ele>173</ele>
        <time>2026-01-31T13:30:34Z</time>
      </trkpt>
      <trkpt lat="48.69729" lon="1.76444">
        <ele>173</ele>
        <time>2026-01-31T13:30:36Z</time>
      </trkpt>
      <trkpt lat="48.6973" lon="1.76447">
        <ele>173.2</ele>
        <time>2026-01-31T13:30:38Z</time>
      </trkpt>
      <trkpt lat="48.69732" lon="1.76451">
        <ele>173.4</ele>
        <time>2026-01-31T13:30:40Z</time>
      </trkpt>
      <trkpt lat="48.69733" lon="1.76455">
        <ele>173.8</ele>
        <time>2026-01-31T13:30:42Z</time>
      </trkpt>
      <trkpt lat="48.69733" lon="1.7646">
        <ele>174</ele>
        <time>2026-01-31T13:30:44Z</time>
      </trkpt>
      <trkpt lat="48.69734" lon="1.76464">
        <ele>174.2</ele>
        <time>2026-01-31T13:30:46Z</time>
      </trkpt>
      <trkpt lat="48.69734" lon="1.76469">
        <ele>174.4</ele>
        <time>2026-01-31T13:30:48Z</time>
      </trkpt>
      <trkpt lat="48.69735" lon="1.76473">
        <ele>174.6</ele>
        <time>2026-01-31T13:30:50Z</time>
      </trkpt>
      <trkpt lat="48.69735" lon="1.76477">
        <ele>174.6</ele>
        <time>2026-01-31T13:30:52Z</time>
      </trkpt>
      <trkpt lat="48.69735" lon="1.76482">
        <ele>174.6</ele>
        <time>2026-01-31T13:30:54Z</time>
      </trkpt>
      <trkpt lat="48.69737" lon="1.76487">
        <ele>174.6</ele>
        <time>2026-01-31T13:30:56Z</time>
      </trkpt>
      <trkpt lat="48.69738" lon="1.76491">
        <ele>174.6</ele>
        <time>2026-01-31T13:30:58Z</time>
      </trkpt>
      <trkpt lat="48.6974" lon="1.76493">
        <ele>174.6</ele>
        <time>2026-01-31T13:31:00Z</time>
      </trkpt>
      <trkpt lat="48.69741" lon="1.76495">
        <ele>174.6</ele>
        <time>2026-01-31T13:31:01Z</time>
      </trkpt>
      <trkpt lat="48.69744" lon="1.76498">
        <ele>174.6</ele>
        <time>2026-01-31T13:31:03Z</time>
      </trkpt>
      <trkpt lat="48.69745" lon="1.76503">
        <ele>174.8</ele>
        <time>2026-01-31T13:31:05Z</time>
      </trkpt>
      <trkpt lat="48.69745" lon="1.76508">
        <ele>174.8</ele>
        <time>2026-01-31T13:31:07Z</time>
      </trkpt>
      <trkpt lat="48.69745" lon="1.76513">
        <ele>174.8</ele>
        <time>2026-01-31T13:31:09Z</time>
      </trkpt>
      <trkpt lat="48.69744" lon="1.76517">
        <ele>174.8</ele>
        <time>2026-01-31T13:31:11Z</time>
      </trkpt>
      <trkpt lat="48.69743" lon="1.76521">
        <ele>174.8</ele>
        <time>2026-01-31T13:31:13Z</time>
      </trkpt>
      <trkpt lat="48.69743" lon="1.76524">
        <ele>174.6</ele>
        <time>2026-01-31T13:31:15Z</time>
      </trkpt>
      <trkpt lat="48.69744" lon="1.76528">
        <ele>174.6</ele>
        <time>2026-01-31T13:31:17Z</time>
      </trkpt>
      <trkpt lat="48.69744" lon="1.76532">
        <ele>174.6</ele>
        <time>2026-01-31T13:31:19Z</time>
      </trkpt>
      <trkpt lat="48.69745" lon="1.76537">
        <ele>174.6</ele>
        <time>2026-01-31T13:31:21Z</time>
      </trkpt>
      <trkpt lat="48.69745" lon="1.76542">
        <ele>174.8</ele>
        <time>2026-01-31T13:31:23Z</time>
      </trkpt>
      <trkpt lat="48.69745" lon="1.76547">
        <ele>174.8</ele>
        <time>2026-01-31T13:31:25Z</time>
      </trkpt>
      <trkpt lat="48.69744" lon="1.76549">
        <ele>174.8</ele>
        <time>2026-01-31T13:31:26Z</time>
      </trkpt>
      <trkpt lat="48.69743" lon="1.76554">
        <ele>175</ele>
        <time>2026-01-31T13:31:28Z</time>
      </trkpt>
      <trkpt lat="48.69742" lon="1.76559">
        <ele>175.4</ele>
        <time>2026-01-31T13:31:30Z</time>
      </trkpt>
      <trkpt lat="48.69741" lon="1.76563">
        <ele>175.6</ele>
        <time>2026-01-31T13:31:32Z</time>
      </trkpt>
      <trkpt lat="48.69742" lon="1.76568">
        <ele>175.8</ele>
        <time>2026-01-31T13:31:34Z</time>
      </trkpt>
      <trkpt lat="48.69742" lon="1.76572">
        <ele>176</ele>
        <time>2026-01-31T13:31:36Z</time>
      </trkpt>
      <trkpt lat="48.69743" lon="1.76577">
        <ele>176.4</ele>
        <time>2026-01-31T13:31:38Z</time>
      </trkpt>
      <trkpt lat="48.69745" lon="1.76582">
        <ele>176.6</ele>
        <time>2026-01-31T13:31:40Z</time>
      </trkpt>
      <trkpt lat="48.69746" lon="1.76586">
        <ele>177</ele>
        <time>2026-01-31T13:31:42Z</time>
      </trkpt>
      <trkpt lat="48.69746" lon="1.7659">
        <ele>177.2</ele>
        <time>2026-01-31T13:31:44Z</time>
      </trkpt>
      <trkpt lat="48.69747" lon="1.76595">
        <ele>177.4</ele>
        <time>2026-01-31T13:31:46Z</time>
      </trkpt>
      <trkpt lat="48.69746" lon="1.76597">
        <ele>177.6</ele>
        <time>2026-01-31T13:31:47Z</time>
      </trkpt>
      <trkpt lat="48.69746" lon="1.76602">
        <ele>177.8</ele>
        <time>2026-01-31T13:31:49Z</time>
      </trkpt>
      <trkpt lat="48.69746" lon="1.76605">
        <ele>178</ele>
        <time>2026-01-31T13:31:51Z</time>
      </trkpt>
      <trkpt lat="48.69748" lon="1.76608">
        <ele>178</ele>
        <time>2026-01-31T13:31:54Z</time>
      </trkpt>
      <trkpt lat="48.6975" lon="1.7661">
        <ele>178</ele>
        <time>2026-01-31T13:31:56Z</time>
      </trkpt>
      <trkpt lat="48.69752" lon="1.76613">
        <ele>178</ele>
        <time>2026-01-31T13:31:58Z</time>
      </trkpt>
      <trkpt lat="48.69755" lon="1.76616">
        <ele>178</ele>
        <time>2026-01-31T13:32:00Z</time>
      </trkpt>
      <trkpt lat="48.69757" lon="1.76618">
        <ele>178.2</ele>
        <time>2026-01-31T13:32:02Z</time>
      </trkpt>
      <trkpt lat="48.69759" lon="1.7662">
        <ele>178.2</ele>
        <time>2026-01-31T13:32:04Z</time>
      </trkpt>
      <trkpt lat="48.69761" lon="1.76622">
        <ele>178.2</ele>
        <time>2026-01-31T13:32:06Z</time>
      </trkpt>
      <trkpt lat="48.69762" lon="1.76624">
        <ele>178</ele>
        <time>2026-01-31T13:32:08Z</time>
      </trkpt>
      <trkpt lat="48.69764" lon="1.76626">
        <ele>178</ele>
        <time>2026-01-31T13:32:10Z</time>
      </trkpt>
      <trkpt lat="48.69765" lon="1.76628">
        <ele>178</ele>
        <time>2026-01-31T13:32:12Z</time>
      </trkpt>
      <trkpt lat="48.69768" lon="1.76631">
        <ele>177.8</ele>
        <time>2026-01-31T13:32:14Z</time>
      </trkpt>
      <trkpt lat="48.69769" lon="1.76632">
        <ele>177.8</ele>
        <time>2026-01-31T13:32:15Z</time>
      </trkpt>
      <trkpt lat="48.69771" lon="1.76633">
        <ele>177.8</ele>
        <time>2026-01-31T13:32:16Z</time>
      </trkpt>
      <trkpt lat="48.69773" lon="1.76635">
        <ele>177.6</ele>
        <time>2026-01-31T13:32:18Z</time>
      </trkpt>
      <trkpt lat="48.69775" lon="1.76637">
        <ele>177.4</ele>
        <time>2026-01-31T13:32:20Z</time>
      </trkpt>
      <trkpt lat="48.69777" lon="1.76639">
        <ele>177.4</ele>
        <time>2026-01-31T13:32:22Z</time>
      </trkpt>
      <trkpt lat="48.69779" lon="1.76642">
        <ele>177.4</ele>
        <time>2026-01-31T13:32:24Z</time>
      </trkpt>
      <trkpt lat="48.6978" lon="1.76644">
        <ele>177.2</ele>
        <time>2026-01-31T13:32:26Z</time>
      </trkpt>
      <trkpt lat="48.69783" lon="1.76647">
        <ele>177.2</ele>
        <time>2026-01-31T13:32:28Z</time>
      </trkpt>
      <trkpt lat="48.69786" lon="1.7665">
        <ele>177.2</ele>
        <time>2026-01-31T13:32:30Z</time>
      </trkpt>
      <trkpt lat="48.69788" lon="1.76652">
        <ele>177.2</ele>
        <time>2026-01-31T13:32:32Z</time>
      </trkpt>
      <trkpt lat="48.6979" lon="1.76654">
        <ele>177.2</ele>
        <time>2026-01-31T13:32:34Z</time>
      </trkpt>
      <trkpt lat="48.69793" lon="1.76656">
        <ele>177.4</ele>
        <time>2026-01-31T13:32:36Z</time>
      </trkpt>
      <trkpt lat="48.69795" lon="1.76659">
        <ele>177.4</ele>
        <time>2026-01-31T13:32:38Z</time>
      </trkpt>
      <trkpt lat="48.69797" lon="1.76662">
        <ele>177.6</ele>
        <time>2026-01-31T13:32:40Z</time>
      </trkpt>
      <trkpt lat="48.698" lon="1.76665">
        <ele>177.8</ele>
        <time>2026-01-31T13:32:42Z</time>
      </trkpt>
      <trkpt lat="48.69802" lon="1.76668">
        <ele>178</ele>
        <time>2026-01-31T13:32:44Z</time>
      </trkpt>
      <trkpt lat="48.69804" lon="1.7667">
        <ele>178.2</ele>
        <time>2026-01-31T13:32:46Z</time>
      </trkpt>
      <trkpt lat="48.69807" lon="1.76672">
        <ele>178.2</ele>
        <time>2026-01-31T13:32:48Z</time>
      </trkpt>
      <trkpt lat="48.6981" lon="1.76674">
        <ele>178.4</ele>
        <time>2026-01-31T13:32:50Z</time>
      </trkpt>
      <trkpt lat="48.69813" lon="1.76676">
        <ele>178.4</ele>
        <time>2026-01-31T13:32:52Z</time>
      </trkpt>
      <trkpt lat="48.69815" lon="1.76678">
        <ele>178.6</ele>
        <time>2026-01-31T13:32:54Z</time>
      </trkpt>
      <trkpt lat="48.69818" lon="1.76681">
        <ele>178.8</ele>
        <time>2026-01-31T13:32:56Z</time>
      </trkpt>
      <trkpt lat="48.69821" lon="1.76683">
        <ele>178.8</ele>
        <time>2026-01-31T13:32:58Z</time>
      </trkpt>
      <trkpt lat="48.69823" lon="1.76686">
        <ele>179</ele>
        <time>2026-01-31T13:33:00Z</time>
      </trkpt>
      <trkpt lat="48.69825" lon="1.7669">
        <ele>179.2</ele>
        <time>2026-01-31T13:33:02Z</time>
      </trkpt>
      <trkpt lat="48.69827" lon="1.76692">
        <ele>179.2</ele>
        <time>2026-01-31T13:33:03Z</time>
      </trkpt>
      <trkpt lat="48.69829" lon="1.76695">
        <ele>179.4</ele>
        <time>2026-01-31T13:33:05Z</time>
      </trkpt>
      <trkpt lat="48.69831" lon="1.76697">
        <ele>179.4</ele>
        <time>2026-01-31T13:33:06Z</time>
      </trkpt>
      <trkpt lat="48.69832" lon="1.76699">
        <ele>179.4</ele>
        <time>2026-01-31T13:33:07Z</time>
      </trkpt>
      <trkpt lat="48.69835" lon="1.76702">
        <ele>179.6</ele>
        <time>2026-01-31T13:33:09Z</time>
      </trkpt>
      <trkpt lat="48.69837" lon="1.76703">
        <ele>179.6</ele>
        <time>2026-01-31T13:33:11Z</time>
      </trkpt>
      <trkpt lat="48.69839" lon="1.76705">
        <ele>179.8</ele>
        <time>2026-01-31T13:33:13Z</time>
      </trkpt>
      <trkpt lat="48.69841" lon="1.76708">
        <ele>179.8</ele>
        <time>2026-01-31T13:33:16Z</time>
      </trkpt>
      <trkpt lat="48.69843" lon="1.7671">
        <ele>180</ele>
        <time>2026-01-31T13:33:18Z</time>
      </trkpt>
      <trkpt lat="48.69845" lon="1.76713">
        <ele>180</ele>
        <time>2026-01-31T13:33:20Z</time>
      </trkpt>
      <trkpt lat="48.69848" lon="1.76715">
        <ele>180.2</ele>
        <time>2026-01-31T13:33:22Z</time>
      </trkpt>
      <trkpt lat="48.6985" lon="1.76717">
        <ele>180.4</ele>
        <time>2026-01-31T13:33:24Z</time>
      </trkpt>
      <trkpt lat="48.69852" lon="1.76718">
        <ele>180.4</ele>
        <time>2026-01-31T13:33:26Z</time>
      </trkpt>
      <trkpt lat="48.69854" lon="1.76721">
        <ele>180.8</ele>
        <time>2026-01-31T13:33:29Z</time>
      </trkpt>
      <trkpt lat="48.69856" lon="1.76722">
        <ele>181</ele>
        <time>2026-01-31T13:33:31Z</time>
      </trkpt>
      <trkpt lat="48.69858" lon="1.76724">
        <ele>181</ele>
        <time>2026-01-31T13:33:33Z</time>
      </trkpt>
      <trkpt lat="48.6986" lon="1.76725">
        <ele>181.2</ele>
        <time>2026-01-31T13:33:35Z</time>
      </trkpt>
      <trkpt lat="48.69862" lon="1.76728">
        <ele>181.2</ele>
        <time>2026-01-31T13:33:37Z</time>
      </trkpt>
      <trkpt lat="48.69864" lon="1.76729">
        <ele>181</ele>
        <time>2026-01-31T13:33:38Z</time>
      </trkpt>
      <trkpt lat="48.69866" lon="1.76732">
        <ele>181</ele>
        <time>2026-01-31T13:33:40Z</time>
      </trkpt>
      <trkpt lat="48.69868" lon="1.76734">
        <ele>180.8</ele>
        <time>2026-01-31T13:33:42Z</time>
      </trkpt>
      <trkpt lat="48.69871" lon="1.76737">
        <ele>180.8</ele>
        <time>2026-01-31T13:33:44Z</time>
      </trkpt>
      <trkpt lat="48.69873" lon="1.76739">
        <ele>180.6</ele>
        <time>2026-01-31T13:33:46Z</time>
      </trkpt>
      <trkpt lat="48.69875" lon="1.76742">
        <ele>180.4</ele>
        <time>2026-01-31T13:33:48Z</time>
      </trkpt>
      <trkpt lat="48.69876" lon="1.76744">
        <ele>180</ele>
        <time>2026-01-31T13:33:50Z</time>
      </trkpt>
      <trkpt lat="48.69878" lon="1.76747">
        <ele>179.8</ele>
        <time>2026-01-31T13:33:52Z</time>
      </trkpt>
      <trkpt lat="48.6988" lon="1.76749">
        <ele>179.6</ele>
        <time>2026-01-31T13:33:54Z</time>
      </trkpt>
      <trkpt lat="48.69882" lon="1.76751">
        <ele>179.6</ele>
        <time>2026-01-31T13:33:55Z</time>
      </trkpt>
      <trkpt lat="48.69885" lon="1.76754">
        <ele>179.4</ele>
        <time>2026-01-31T13:33:57Z</time>
      </trkpt>
      <trkpt lat="48.69886" lon="1.76756">
        <ele>179.4</ele>
        <time>2026-01-31T13:33:58Z</time>
      </trkpt>
      <trkpt lat="48.69888" lon="1.76758">
        <ele>179.2</ele>
        <time>2026-01-31T13:33:59Z</time>
      </trkpt>
      <trkpt lat="48.6989" lon="1.76759">
        <ele>179.2</ele>
        <time>2026-01-31T13:34:00Z</time>
      </trkpt>
      <trkpt lat="48.69892" lon="1.76762">
        <ele>179</ele>
        <time>2026-01-31T13:34:02Z</time>
      </trkpt>
      <trkpt lat="48.69894" lon="1.76765">
        <ele>178.8</ele>
        <time>2026-01-31T13:34:04Z</time>
      </trkpt>
      <trkpt lat="48.69896" lon="1.76768">
        <ele>178.6</ele>
        <time>2026-01-31T13:34:06Z</time>
      </trkpt>
      <trkpt lat="48.69898" lon="1.76771">
        <ele>178.4</ele>
        <time>2026-01-31T13:34:08Z</time>
      </trkpt>
      <trkpt lat="48.699" lon="1.76774">
        <ele>178.2</ele>
        <time>2026-01-31T13:34:10Z</time>
      </trkpt>
      <trkpt lat="48.69902" lon="1.76776">
        <ele>178</ele>
        <time>2026-01-31T13:34:12Z</time>
      </trkpt>
      <trkpt lat="48.69904" lon="1.76778">
        <ele>177.6</ele>
        <time>2026-01-31T13:34:14Z</time>
      </trkpt>
      <trkpt lat="48.69906" lon="1.76781">
        <ele>177.4</ele>
        <time>2026-01-31T13:34:16Z</time>
      </trkpt>
      <trkpt lat="48.69908" lon="1.76783">
        <ele>177</ele>
        <time>2026-01-31T13:34:18Z</time>
      </trkpt>
      <trkpt lat="48.6991" lon="1.76786">
        <ele>176.8</ele>
        <time>2026-01-31T13:34:20Z</time>
      </trkpt>
      <trkpt lat="48.69912" lon="1.76789">
        <ele>176.6</ele>
        <time>2026-01-31T13:34:22Z</time>
      </trkpt>
      <trkpt lat="48.69914" lon="1.76791">
        <ele>176.4</ele>
        <time>2026-01-31T13:34:24Z</time>
      </trkpt>
      <trkpt lat="48.69916" lon="1.76793">
        <ele>176</ele>
        <time>2026-01-31T13:34:26Z</time>
      </trkpt>
      <trkpt lat="48.69918" lon="1.76795">
        <ele>175.8</ele>
        <time>2026-01-31T13:34:28Z</time>
        <extensions>
          <gpxtpx:TrackPointExtension xmlns:gpxtpx="http://www.garmin.com/xmlschemas/TrackPointExtension/v1">
            <gpxtpx:hr>97</gpxtpx:hr>
          </gpxtpx:TrackPointExtension>
        </extensions>
      </trkpt>
      <trkpt lat="48.6992" lon="1.76798">
        <ele>175.4</ele>
        <time>2026-01-31T13:34:30Z</time>
        <extensions>
          <gpxtpx:TrackPointExtension xmlns:gpxtpx="http://www.garmin.com/xmlschemas/TrackPointExtension/v1">
            <gpxtpx:hr>97</gpxtpx:hr>
          </gpxtpx:TrackPointExtension>
        </extensions>
      </trkpt>
      <trkpt lat="48.69922" lon="1.76801">
        <ele>175.2</ele>
        <time>2026-01-31T13:34:32Z</time>
        <extensions>
          <gpxtpx:TrackPointExtension xmlns:gpxtpx="http://www.garmin.com/xmlschemas/TrackPointExtension/v1">
            <gpxtpx:hr>97</gpxtpx:hr>
          </gpxtpx:TrackPointExtension>
        </extensions>
      </trkpt>
      <trkpt lat="48.69923" lon="1.76803">
        <ele>175</ele>
        <time>2026-01-31T13:34:34Z</time>
        <extensions>
          <gpxtpx:TrackPointExtension xmlns:gpxtpx="http://www.garmin.com/xmlschemas/TrackPointExtension/v1">
            <gpxtpx:hr>97</gpxtpx:hr>
          </gpxtpx:TrackPointExtension>
        </extensions>
      </trkpt>
      <trkpt lat="48.69925" lon="1.76805">
        <ele>174.8</ele>
        <time>2026-01-31T13:34:36Z</time>
        <extensions>
          <gpxtpx:TrackPointExtension xmlns:gpxtpx="http://www.garmin.com/xmlschemas/TrackPointExtension/v1">
            <gpxtpx:hr>97</gpxtpx:hr>
          </gpxtpx:TrackPointExtension>
        </extensions>
      </trkpt>
      <trkpt lat="48.69926" lon="1.76807">
        <ele>174.6</ele>
        <time>2026-01-31T13:34:38Z</time>
        <extensions>
          <gpxtpx:TrackPointExtension xmlns:gpxtpx="http://www.garmin.com/xmlschemas/TrackPointExtension/v1">
            <gpxtpx:hr>97</gpxtpx:hr>
          </gpxtpx:TrackPointExtension>
        </extensions>
      </trkpt>
      <trkpt lat="48.69928" lon="1.76809">
        <ele>174.6</ele>
        <time>2026-01-31T13:34:40Z</time>
        <extensions>
          <gpxtpx:TrackPointExtension xmlns:gpxtpx="http://www.garmin.com/xmlschemas/TrackPointExtension/v1">
            <gpxtpx:hr>98</gpxtpx:hr>
          </gpxtpx:TrackPointExtension>
        </extensions>
      </trkpt>
      <trkpt lat="48.6993" lon="1.76813">
        <ele>174.4</ele>
        <time>2026-01-31T13:34:42Z</time>
        <extensions>
          <gpxtpx:TrackPointExtension xmlns:gpxtpx="http://www.garmin.com/xmlschemas/TrackPointExtension/v1">
            <gpxtpx:hr>98</gpxtpx:hr>
          </gpxtpx:TrackPointExtension>
        </extensions>
      </trkpt>
      <trkpt lat="48.69932" lon="1.76816">
        <ele>174.4</ele>
        <time>2026-01-31T13:34:44Z</time>
        <extensions>
          <gpxtpx:TrackPointExtension xmlns:gpxtpx="http://www.garmin.com/xmlschemas/TrackPointExtension/v1">
            <gpxtpx:hr>98</gpxtpx:hr>
          </gpxtpx:TrackPointExtension>
        </extensions>
      </trkpt>
      <trkpt lat="48.69934" lon="1.76818">
        <ele>174.4</ele>
        <time>2026-01-31T13:34:46Z</time>
        <extensions>
          <gpxtpx:TrackPointExtension xmlns:gpxtpx="http://www.garmin.com/xmlschemas/TrackPointExtension/v1">
            <gpxtpx:hr>98</gpxtpx:hr>
          </gpxtpx:TrackPointExtension>
        </extensions>
      </trkpt>
      <trkpt lat="48.69938" lon="1.7682">
        <ele>174.4</ele>
        <time>2026-01-31T13:34:48Z</time>
        <extensions>
          <gpxtpx:TrackPointExtension xmlns:gpxtpx="http://www.garmin.com/xmlschemas/TrackPointExtension/v1">
            <gpxtpx:hr>98</gpxtpx:hr>
          </gpxtpx:TrackPointExtension>
        </extensions>
      </trkpt>
      <trkpt lat="48.6994" lon="1.76821">
        <ele>174.2</ele>
        <time>2026-01-31T13:34:50Z</time>
        <extensions>
          <gpxtpx:TrackPointExtension xmlns:gpxtpx="http://www.garmin.com/xmlschemas/TrackPointExtension/v1">
            <gpxtpx:hr>98</gpxtpx:hr>
          </gpxtpx:TrackPointExtension>
        </extensions>
      </trkpt>
      <trkpt lat="48.69942" lon="1.76824">
        <ele>174.2</ele>
        <time>2026-01-31T13:34:52Z</time>
        <extensions>
          <gpxtpx:TrackPointExtension xmlns:gpxtpx="http://www.garmin.com/xmlschemas/TrackPointExtension/v1">
            <gpxtpx:hr>99</gpxtpx:hr>
          </gpxtpx:TrackPointExtension>
        </extensions>
      </trkpt>
      <trkpt lat="48.69944" lon="1.76826">
        <ele>174.2</ele>
        <time>2026-01-31T13:34:54Z</time>
        <extensions>
          <gpxtpx:TrackPointExtension xmlns:gpxtpx="http://www.garmin.com/xmlschemas/TrackPointExtension/v1">
            <gpxtpx:hr>101</gpxtpx:hr>
          </gpxtpx:TrackPointExtension>
        </extensions>
      </trkpt>
      <trkpt lat="48.69946" lon="1.76829">
        <ele>174.2</ele>
        <time>2026-01-31T13:34:58Z</time>
        <extensions>
          <gpxtpx:TrackPointExtension xmlns:gpxtpx="http://www.garmin.com/xmlschemas/TrackPointExtension/v1">
            <gpxtpx:hr>104</gpxtpx:hr>
          </gpxtpx:TrackPointExtension>
        </extensions>
      </trkpt>
      <trkpt lat="48.69948" lon="1.76831">
        <ele>173.8</ele>
        <time>2026-01-31T13:35:08Z</time>
        <extensions>
          <gpxtpx:TrackPointExtension xmlns:gpxtpx="http://www.garmin.com/xmlschemas/TrackPointExtension/v1">
            <gpxtpx:hr>102</gpxtpx:hr>
          </gpxtpx:TrackPointExtension>
        </extensions>
      </trkpt>
      <trkpt lat="48.6995" lon="1.76833">
        <ele>173.6</ele>
        <time>2026-01-31T13:35:10Z</time>
        <extensions>
          <gpxtpx:TrackPointExtension xmlns:gpxtpx="http://www.garmin.com/xmlschemas/TrackPointExtension/v1">
            <gpxtpx:hr>102</gpxtpx:hr>
          </gpxtpx:TrackPointExtension>
        </extensions>
      </trkpt>
      <trkpt lat="48.69952" lon="1.76835">
        <ele>173.6</ele>
        <time>2026-01-31T13:35:12Z</time>
        <extensions>
          <gpxtpx:TrackPointExtension xmlns:gpxtpx="http://www.garmin.com/xmlschemas/TrackPointExtension/v1">
            <gpxtpx:hr>102</gpxtpx:hr>
          </gpxtpx:TrackPointExtension>
        </extensions>
      </trkpt>
      <trkpt lat="48.69954" lon="1.76837">
        <ele>173.4</ele>
        <time>2026-01-31T13:35:15Z</time>
        <extensions>
          <gpxtpx:TrackPointExtension xmlns:gpxtpx="http://www.garmin.com/xmlschemas/TrackPointExtension/v1">
            <gpxtpx:hr>102</gpxtpx:hr>
          </gpxtpx:TrackPointExtension>
        </extensions>
      </trkpt>
      <trkpt lat="48.69955" lon="1.76838">
        <ele>173.4</ele>
        <time>2026-01-31T13:35:17Z</time>
        <extensions>
          <gpxtpx:TrackPointExtension xmlns:gpxtpx="http://www.garmin.com/xmlschemas/TrackPointExtension/v1">
            <gpxtpx:hr>102</gpxtpx:hr>
          </gpxtpx:TrackPointExtension>
        </extensions>
      </trkpt>
      <trkpt lat="48.69957" lon="1.76842">
        <ele>173.4</ele>
        <time>2026-01-31T13:35:20Z</time>
        <extensions>
          <gpxtpx:TrackPointExtension xmlns:gpxtpx="http://www.garmin.com/xmlschemas/TrackPointExtension/v1">
            <gpxtpx:hr>102</gpxtpx:hr>
          </gpxtpx:TrackPointExtension>
        </extensions>
      </trkpt>
      <trkpt lat="48.69959" lon="1.76845">
        <ele>173.4</ele>
        <time>2026-01-31T13:35:23Z</time>
        <extensions>
          <gpxtpx:TrackPointExtension xmlns:gpxtpx="http://www.garmin.com/xmlschemas/TrackPointExtension/v1">
            <gpxtpx:hr>101</gpxtpx:hr>
          </gpxtpx:TrackPointExtension>
        </extensions>
      </trkpt>
      <trkpt lat="48.69961" lon="1.76847">
        <ele>173.4</ele>
        <time>2026-01-31T13:35:25Z</time>
      </trkpt>
      <trkpt lat="48.69963" lon="1.76849">
        <ele>173.4</ele>
        <time>2026-01-31T13:35:27Z</time>
      </trkpt>
      <trkpt lat="48.69964" lon="1.7685">
        <ele>173.6</ele>
        <time>2026-01-31T13:35:29Z</time>
      </trkpt>
      <trkpt lat="48.69966" lon="1.76851">
        <ele>173.6</ele>
        <time>2026-01-31T13:35:31Z</time>
      </trkpt>
      <trkpt lat="48.69968" lon="1.76853">
        <ele>173.6</ele>
        <time>2026-01-31T13:35:33Z</time>
      </trkpt>
      <trkpt lat="48.6997" lon="1.76855">
        <ele>173.6</ele>
        <time>2026-01-31T13:35:35Z</time>
      </trkpt>
      <trkpt lat="48.69972" lon="1.76857">
        <ele>173.6</ele>
        <time>2026-01-31T13:35:37Z</time>
      </trkpt>
      <trkpt lat="48.69975" lon="1.7686">
        <ele>173.6</ele>
        <time>2026-01-31T13:35:39Z</time>
      </trkpt>
      <trkpt lat="48.69977" lon="1.76863">
        <ele>173.6</ele>
        <time>2026-01-31T13:35:41Z</time>
      </trkpt>
      <trkpt lat="48.6998" lon="1.76866">
        <ele>173.6</ele>
        <time>2026-01-31T13:35:43Z</time>
      </trkpt>
      <trkpt lat="48.69982" lon="1.76868">
        <ele>173.6</ele>
        <time>2026-01-31T13:35:45Z</time>
      </trkpt>
      <trkpt lat="48.69984" lon="1.7687">
        <ele>173.6</ele>
        <time>2026-01-31T13:35:47Z</time>
      </trkpt>
      <trkpt lat="48.69987" lon="1.76872">
        <ele>173.8</ele>
        <time>2026-01-31T13:35:49Z</time>
      </trkpt>
      <trkpt lat="48.69989" lon="1.76874">
        <ele>173.8</ele>
        <time>2026-01-31T13:35:51Z</time>
      </trkpt>
      <trkpt lat="48.69992" lon="1.76876">
        <ele>174</ele>
        <time>2026-01-31T13:35:53Z</time>
      </trkpt>
      <trkpt lat="48.69994" lon="1.76878">
        <ele>174</ele>
        <time>2026-01-31T13:35:55Z</time>
      </trkpt>
      <trkpt lat="48.69997" lon="1.76881">
        <ele>174</ele>
        <time>2026-01-31T13:35:57Z</time>
      </trkpt>
      <trkpt lat="48.69998" lon="1.76883">
        <ele>174</ele>
        <time>2026-01-31T13:35:59Z</time>
      </trkpt>
      <trkpt lat="48.7" lon="1.76884">
        <ele>173.8</ele>
        <time>2026-01-31T13:36:01Z</time>
      </trkpt>
      <trkpt lat="48.70002" lon="1.76886">
        <ele>173.6</ele>
        <time>2026-01-31T13:36:03Z</time>
      </trkpt>
      <trkpt lat="48.70004" lon="1.76888">
        <ele>173.6</ele>
        <time>2026-01-31T13:36:05Z</time>
      </trkpt>
      <trkpt lat="48.70006" lon="1.76889">
        <ele>173.4</ele>
        <time>2026-01-31T13:36:07Z</time>
      </trkpt>
      <trkpt lat="48.70008" lon="1.7689">
        <ele>173.4</ele>
        <time>2026-01-31T13:36:09Z</time>
      </trkpt>
      <trkpt lat="48.7001" lon="1.76892">
        <ele>173.2</ele>
        <time>2026-01-31T13:36:11Z</time>
      </trkpt>
      <trkpt lat="48.70012" lon="1.76894">
        <ele>173.2</ele>
        <time>2026-01-31T13:36:13Z</time>
      </trkpt>
      <trkpt lat="48.70015" lon="1.76897">
        <ele>173</ele>
        <time>2026-01-31T13:36:15Z</time>
      </trkpt>
      <trkpt lat="48.70017" lon="1.769">
        <ele>173</ele>
        <time>2026-01-31T13:36:17Z</time>
      </trkpt>
      <trkpt lat="48.7002" lon="1.76903">
        <ele>173</ele>
        <time>2026-01-31T13:36:19Z</time>
      </trkpt>
      <trkpt lat="48.70022" lon="1.76905">
        <ele>173</ele>
        <time>2026-01-31T13:36:21Z</time>
      </trkpt>
      <trkpt lat="48.70024" lon="1.76907">
        <ele>173</ele>
        <time>2026-01-31T13:36:24Z</time>
      </trkpt>
      <trkpt lat="48.70026" lon="1.76908">
        <ele>173</ele>
        <time>2026-01-31T13:36:28Z</time>
      </trkpt>
      <trkpt lat="48.70028" lon="1.76909">
        <ele>172.8</ele>
        <time>2026-01-31T13:36:31Z</time>
      </trkpt>
      <trkpt lat="48.7003" lon="1.76911">
        <ele>172.8</ele>
        <time>2026-01-31T13:36:33Z</time>
      </trkpt>
      <trkpt lat="48.70032" lon="1.76913">
        <ele>172.8</ele>
        <time>2026-01-31T13:36:35Z</time>
      </trkpt>
      <trkpt lat="48.70035" lon="1.76915">
        <ele>172.8</ele>
        <time>2026-01-31T13:36:37Z</time>
      </trkpt>
      <trkpt lat="48.70037" lon="1.76918">
        <ele>172.8</ele>
        <time>2026-01-31T13:36:39Z</time>
      </trkpt>
      <trkpt lat="48.70039" lon="1.76919">
        <ele>172.8</ele>
        <time>2026-01-31T13:36:40Z</time>
      </trkpt>
      <trkpt lat="48.70041" lon="1.76922">
        <ele>172.8</ele>
        <time>2026-01-31T13:36:42Z</time>
      </trkpt>
      <trkpt lat="48.70044" lon="1.76924">
        <ele>172.8</ele>
        <time>2026-01-31T13:36:44Z</time>
        <extensions>
          <gpxtpx:TrackPointExtension xmlns:gpxtpx="http://www.garmin.com/xmlschemas/TrackPointExtension/v1">
            <gpxtpx:hr>100</gpxtpx:hr>
          </gpxtpx:TrackPointExtension>
        </extensions>
      </trkpt>
      <trkpt lat="48.70047" lon="1.76927">
        <ele>172.8</ele>
        <time>2026-01-31T13:36:46Z</time>
        <extensions>
          <gpxtpx:TrackPointExtension xmlns:gpxtpx="http://www.garmin.com/xmlschemas/TrackPointExtension/v1">
            <gpxtpx:hr>100</gpxtpx:hr>
          </gpxtpx:TrackPointExtension>
        </extensions>
      </trkpt>
      <trkpt lat="48.7005" lon="1.76929">
        <ele>172.8</ele>
        <time>2026-01-31T13:36:48Z</time>
        <extensions>
          <gpxtpx:TrackPointExtension xmlns:gpxtpx="http://www.garmin.com/xmlschemas/TrackPointExtension/v1">
            <gpxtpx:hr>99</gpxtpx:hr>
          </gpxtpx:TrackPointExtension>
        </extensions>
      </trkpt>
      <trkpt lat="48.70052" lon="1.76932">
        <ele>172.8</ele>
        <time>2026-01-31T13:36:50Z</time>
        <extensions>
          <gpxtpx:TrackPointExtension xmlns:gpxtpx="http://www.garmin.com/xmlschemas/TrackPointExtension/v1">
            <gpxtpx:hr>99</gpxtpx:hr>
          </gpxtpx:TrackPointExtension>
        </extensions>
      </trkpt>
      <trkpt lat="48.70055" lon="1.76935">
        <ele>172.8</ele>
        <time>2026-01-31T13:36:52Z</time>
        <extensions>
          <gpxtpx:TrackPointExtension xmlns:gpxtpx="http://www.garmin.com/xmlschemas/TrackPointExtension/v1">
            <gpxtpx:hr>98</gpxtpx:hr>
          </gpxtpx:TrackPointExtension>
        </extensions>
      </trkpt>
      <trkpt lat="48.70057" lon="1.76938">
        <ele>172.6</ele>
        <time>2026-01-31T13:36:54Z</time>
        <extensions>
          <gpxtpx:TrackPointExtension xmlns:gpxtpx="http://www.garmin.com/xmlschemas/TrackPointExtension/v1">
            <gpxtpx:hr>99</gpxtpx:hr>
          </gpxtpx:TrackPointExtension>
        </extensions>
      </trkpt>
      <trkpt lat="48.70059" lon="1.76942">
        <ele>172.6</ele>
        <time>2026-01-31T13:36:56Z</time>
        <extensions>
          <gpxtpx:TrackPointExtension xmlns:gpxtpx="http://www.garmin.com/xmlschemas/TrackPointExtension/v1">
            <gpxtpx:hr>99</gpxtpx:hr>
          </gpxtpx:TrackPointExtension>
        </extensions>
      </trkpt>
      <trkpt lat="48.70061" lon="1.76946">
        <ele>172.6</ele>
        <time>2026-01-31T13:36:58Z</time>
        <extensions>
          <gpxtpx:TrackPointExtension xmlns:gpxtpx="http://www.garmin.com/xmlschemas/TrackPointExtension/v1">
            <gpxtpx:hr>99</gpxtpx:hr>
          </gpxtpx:TrackPointExtension>
        </extensions>
      </trkpt>
      <trkpt lat="48.70063" lon="1.76949">
        <ele>172.4</ele>
        <time>2026-01-31T13:37:00Z</time>
        <extensions>
          <gpxtpx:TrackPointExtension xmlns:gpxtpx="http://www.garmin.com/xmlschemas/TrackPointExtension/v1">
            <gpxtpx:hr>99</gpxtpx:hr>
          </gpxtpx:TrackPointExtension>
        </extensions>
      </trkpt>
      <trkpt lat="48.70065" lon="1.76952">
        <ele>172.2</ele>
        <time>2026-01-31T13:37:02Z</time>
        <extensions>
          <gpxtpx:TrackPointExtension xmlns:gpxtpx="http://www.garmin.com/xmlschemas/TrackPointExtension/v1">
            <gpxtpx:hr>99</gpxtpx:hr>
          </gpxtpx:TrackPointExtension>
        </extensions>
      </trkpt>
      <trkpt lat="48.70067" lon="1.76955">
        <ele>172.2</ele>
        <time>2026-01-31T13:37:04Z</time>
        <extensions>
          <gpxtpx:TrackPointExtension xmlns:gpxtpx="http://www.garmin.com/xmlschemas/TrackPointExtension/v1">
            <gpxtpx:hr>99</gpxtpx:hr>
          </gpxtpx:TrackPointExtension>
        </extensions>
      </trkpt>
      <trkpt lat="48.70069" lon="1.76957">
        <ele>172</ele>
        <time>2026-01-31T13:37:06Z</time>
        <extensions>
          <gpxtpx:TrackPointExtension xmlns:gpxtpx="http://www.garmin.com/xmlschemas/TrackPointExtension/v1">
            <gpxtpx:hr>98</gpxtpx:hr>
          </gpxtpx:TrackPointExtension>
        </extensions>
      </trkpt>
      <trkpt lat="48.70072" lon="1.76959">
        <ele>171.8</ele>
        <time>2026-01-31T13:37:08Z</time>
        <extensions>
          <gpxtpx:TrackPointExtension xmlns:gpxtpx="http://www.garmin.com/xmlschemas/TrackPointExtension/v1">
            <gpxtpx:hr>98</gpxtpx:hr>
          </gpxtpx:TrackPointExtension>
        </extensions>
      </trkpt>
      <trkpt lat="48.70074" lon="1.76961">
        <ele>171.6</ele>
        <time>2026-01-31T13:37:10Z</time>
        <extensions>
          <gpxtpx:TrackPointExtension xmlns:gpxtpx="http://www.garmin.com/xmlschemas/TrackPointExtension/v1">
            <gpxtpx:hr>98</gpxtpx:hr>
          </gpxtpx:TrackPointExtension>
        </extensions>
      </trkpt>
      <trkpt lat="48.70076" lon="1.76964">
        <ele>171.6</ele>
        <time>2026-01-31T13:37:12Z</time>
        <extensions>
          <gpxtpx:TrackPointExtension xmlns:gpxtpx="http://www.garmin.com/xmlschemas/TrackPointExtension/v1">
            <gpxtpx:hr>95</gpxtpx:hr>
          </gpxtpx:TrackPointExtension>
        </extensions>
      </trkpt>
      <trkpt lat="48.70077" lon="1.76966">
        <ele>171.4</ele>
        <time>2026-01-31T13:37:14Z</time>
        <extensions>
          <gpxtpx:TrackPointExtension xmlns:gpxtpx="http://www.garmin.com/xmlschemas/TrackPointExtension/v1">
            <gpxtpx:hr>95</gpxtpx:hr>
          </gpxtpx:TrackPointExtension>
        </extensions>
      </trkpt>
      <trkpt lat="48.70079" lon="1.76969">
        <ele>171.2</ele>
        <time>2026-01-31T13:37:16Z</time>
        <extensions>
          <gpxtpx:TrackPointExtension xmlns:gpxtpx="http://www.garmin.com/xmlschemas/TrackPointExtension/v1">
            <gpxtpx:hr>95</gpxtpx:hr>
          </gpxtpx:TrackPointExtension>
        </extensions>
      </trkpt>
      <trkpt lat="48.70081" lon="1.76971">
        <ele>171</ele>
        <time>2026-01-31T13:37:18Z</time>
        <extensions>
          <gpxtpx:TrackPointExtension xmlns:gpxtpx="http://www.garmin.com/xmlschemas/TrackPointExtension/v1">
            <gpxtpx:hr>95</gpxtpx:hr>
          </gpxtpx:TrackPointExtension>
        </extensions>
      </trkpt>
      <trkpt lat="48.70084" lon="1.76974">
        <ele>170.8</ele>
        <time>2026-01-31T13:37:20Z</time>
        <extensions>
          <gpxtpx:TrackPointExtension xmlns:gpxtpx="http://www.garmin.com/xmlschemas/TrackPointExtension/v1">
            <gpxtpx:hr>94</gpxtpx:hr>
          </gpxtpx:TrackPointExtension>
        </extensions>
      </trkpt>
      <trkpt lat="48.70085" lon="1.76975">
        <ele>170.6</ele>
        <time>2026-01-31T13:37:21Z</time>
        <extensions>
          <gpxtpx:TrackPointExtension xmlns:gpxtpx="http://www.garmin.com/xmlschemas/TrackPointExtension/v1">
            <gpxtpx:hr>93</gpxtpx:hr>
          </gpxtpx:TrackPointExtension>
        </extensions>
      </trkpt>
      <trkpt lat="48.70088" lon="1.76978">
        <ele>170.6</ele>
        <time>2026-01-31T13:37:23Z</time>
        <extensions>
          <gpxtpx:TrackPointExtension xmlns:gpxtpx="http://www.garmin.com/xmlschemas/TrackPointExtension/v1">
            <gpxtpx:hr>93</gpxtpx:hr>
          </gpxtpx:TrackPointExtension>
        </extensions>
      </trkpt>
      <trkpt lat="48.7009" lon="1.76981">
        <ele>170.6</ele>
        <time>2026-01-31T13:37:25Z</time>
        <extensions>
          <gpxtpx:TrackPointExtension xmlns:gpxtpx="http://www.garmin.com/xmlschemas/TrackPointExtension/v1">
            <gpxtpx:hr>94</gpxtpx:hr>
          </gpxtpx:TrackPointExtension>
        </extensions>
      </trkpt>
      <trkpt lat="48.70092" lon="1.76984">
        <ele>170.4</ele>
        <time>2026-01-31T13:37:27Z</time>
        <extensions>
          <gpxtpx:TrackPointExtension xmlns:gpxtpx="http://www.garmin.com/xmlschemas/TrackPointExtension/v1">
            <gpxtpx:hr>94</gpxtpx:hr>
          </gpxtpx:TrackPointExtension>
        </extensions>
      </trkpt>
      <trkpt lat="48.70094" lon="1.76987">
        <ele>170.4</ele>
        <time>2026-01-31T13:37:29Z</time>
        <extensions>
          <gpxtpx:TrackPointExtension xmlns:gpxtpx="http://www.garmin.com/xmlschemas/TrackPointExtension/v1">
            <gpxtpx:hr>94</gpxtpx:hr>
          </gpxtpx:TrackPointExtension>
        </extensions>
      </trkpt>
      <trkpt lat="48.70096" lon="1.76989">
        <ele>170.2</ele>
        <time>2026-01-31T13:37:31Z</time>
        <extensions>
          <gpxtpx:TrackPointExtension xmlns:gpxtpx="http://www.garmin.com/xmlschemas/TrackPointExtension/v1">
            <gpxtpx:hr>93</gpxtpx:hr>
          </gpxtpx:TrackPointExtension>
        </extensions>
      </trkpt>
      <trkpt lat="48.70098" lon="1.76991">
        <ele>170</ele>
        <time>2026-01-31T13:37:34Z</time>
        <extensions>
          <gpxtpx:TrackPointExtension xmlns:gpxtpx="http://www.garmin.com/xmlschemas/TrackPointExtension/v1">
            <gpxtpx:hr>92</gpxtpx:hr>
          </gpxtpx:TrackPointExtension>
        </extensions>
      </trkpt>
      <trkpt lat="48.701" lon="1.76993">
        <ele>169.8</ele>
        <time>2026-01-31T13:37:36Z</time>
        <extensions>
          <gpxtpx:TrackPointExtension xmlns:gpxtpx="http://www.garmin.com/xmlschemas/TrackPointExtension/v1">
            <gpxtpx:hr>91</gpxtpx:hr>
          </gpxtpx:TrackPointExtension>
        </extensions>
      </trkpt>
      <trkpt lat="48.70101" lon="1.76996">
        <ele>169.6</ele>
        <time>2026-01-31T13:37:38Z</time>
        <extensions>
          <gpxtpx:TrackPointExtension xmlns:gpxtpx="http://www.garmin.com/xmlschemas/TrackPointExtension/v1">
            <gpxtpx:hr>91</gpxtpx:hr>
          </gpxtpx:TrackPointExtension>
        </extensions>
      </trkpt>
      <trkpt lat="48.70103" lon="1.76998">
        <ele>169.4</ele>
        <time>2026-01-31T13:37:40Z</time>
        <extensions>
          <gpxtpx:TrackPointExtension xmlns:gpxtpx="http://www.garmin.com/xmlschemas/TrackPointExtension/v1">
            <gpxtpx:hr>91</gpxtpx:hr>
          </gpxtpx:TrackPointExtension>
        </extensions>
      </trkpt>
      <trkpt lat="48.70105" lon="1.77">
        <ele>169.2</ele>
        <time>2026-01-31T13:37:42Z</time>
        <extensions>
          <gpxtpx:TrackPointExtension xmlns:gpxtpx="http://www.garmin.com/xmlschemas/TrackPointExtension/v1">
            <gpxtpx:hr>90</gpxtpx:hr>
          </gpxtpx:TrackPointExtension>
        </extensions>
      </trkpt>
      <trkpt lat="48.70107" lon="1.77002">
        <ele>169</ele>
        <time>2026-01-31T13:37:44Z</time>
        <extensions>
          <gpxtpx:TrackPointExtension xmlns:gpxtpx="http://www.garmin.com/xmlschemas/TrackPointExtension/v1">
            <gpxtpx:hr>90</gpxtpx:hr>
          </gpxtpx:TrackPointExtension>
        </extensions>
      </trkpt>
      <trkpt lat="48.70108" lon="1.77005">
        <ele>168.8</ele>
        <time>2026-01-31T13:37:46Z</time>
        <extensions>
          <gpxtpx:TrackPointExtension xmlns:gpxtpx="http://www.garmin.com/xmlschemas/TrackPointExtension/v1">
            <gpxtpx:hr>91</gpxtpx:hr>
          </gpxtpx:TrackPointExtension>
        </extensions>
      </trkpt>
      <trkpt lat="48.7011" lon="1.77007">
        <ele>168.8</ele>
        <time>2026-01-31T13:37:48Z</time>
        <extensions>
          <gpxtpx:TrackPointExtension xmlns:gpxtpx="http://www.garmin.com/xmlschemas/TrackPointExtension/v1">
            <gpxtpx:hr>91</gpxtpx:hr>
          </gpxtpx:TrackPointExtension>
        </extensions>
      </trkpt>
      <trkpt lat="48.70112" lon="1.7701">
        <ele>168.6</ele>
        <time>2026-01-31T13:37:50Z</time>
        <extensions>
          <gpxtpx:TrackPointExtension xmlns:gpxtpx="http://www.garmin.com/xmlschemas/TrackPointExtension/v1">
            <gpxtpx:hr>91</gpxtpx:hr>
          </gpxtpx:TrackPointExtension>
        </extensions>
      </trkpt>
      <trkpt lat="48.70113" lon="1.77012">
        <ele>168.4</ele>
        <time>2026-01-31T13:37:52Z</time>
        <extensions>
          <gpxtpx:TrackPointExtension xmlns:gpxtpx="http://www.garmin.com/xmlschemas/TrackPointExtension/v1">
            <gpxtpx:hr>91</gpxtpx:hr>
          </gpxtpx:TrackPointExtension>
        </extensions>
      </trkpt>
      <trkpt lat="48.70115" lon="1.77015">
        <ele>168.2</ele>
        <time>2026-01-31T13:37:54Z</time>
        <extensions>
          <gpxtpx:TrackPointExtension xmlns:gpxtpx="http://www.garmin.com/xmlschemas/TrackPointExtension/v1">
            <gpxtpx:hr>91</gpxtpx:hr>
          </gpxtpx:TrackPointExtension>
        </extensions>
      </trkpt>
      <trkpt lat="48.70117" lon="1.77017">
        <ele>168.2</ele>
        <time>2026-01-31T13:37:56Z</time>
        <extensions>
          <gpxtpx:TrackPointExtension xmlns:gpxtpx="http://www.garmin.com/xmlschemas/TrackPointExtension/v1">
            <gpxtpx:hr>91</gpxtpx:hr>
          </gpxtpx:TrackPointExtension>
        </extensions>
      </trkpt>
      <trkpt lat="48.70118" lon="1.77019">
        <ele>168</ele>
        <time>2026-01-31T13:37:58Z</time>
        <extensions>
          <gpxtpx:TrackPointExtension xmlns:gpxtpx="http://www.garmin.com/xmlschemas/TrackPointExtension/v1">
            <gpxtpx:hr>91</gpxtpx:hr>
          </gpxtpx:TrackPointExtension>
        </extensions>
      </trkpt>
      <trkpt lat="48.7012" lon="1.77021">
        <ele>168</ele>
        <time>2026-01-31T13:38:00Z</time>
        <extensions>
          <gpxtpx:TrackPointExtension xmlns:gpxtpx="http://www.garmin.com/xmlschemas/TrackPointExtension/v1">
            <gpxtpx:hr>91</gpxtpx:hr>
          </gpxtpx:TrackPointExtension>
        </extensions>
      </trkpt>
      <trkpt lat="48.70122" lon="1.77023">
        <ele>167.8</ele>
        <time>2026-01-31T13:38:02Z</time>
        <extensions>
          <gpxtpx:TrackPointExtension xmlns:gpxtpx="http://www.garmin.com/xmlschemas/TrackPointExtension/v1">
            <gpxtpx:hr>91</gpxtpx:hr>
          </gpxtpx:TrackPointExtension>
        </extensions>
      </trkpt>
      <trkpt lat="48.70124" lon="1.77025">
        <ele>167.6</ele>
        <time>2026-01-31T13:38:05Z</time>
        <extensions>
          <gpxtpx:TrackPointExtension xmlns:gpxtpx="http://www.garmin.com/xmlschemas/TrackPointExtension/v1">
            <gpxtpx:hr>88</gpxtpx:hr>
          </gpxtpx:TrackPointExtension>
        </extensions>
      </trkpt>
      <trkpt lat="48.70126" lon="1.77028">
        <ele>167.4</ele>
        <time>2026-01-31T13:38:08Z</time>
        <extensions>
          <gpxtpx:TrackPointExtension xmlns:gpxtpx="http://www.garmin.com/xmlschemas/TrackPointExtension/v1">
            <gpxtpx:hr>85</gpxtpx:hr>
          </gpxtpx:TrackPointExtension>
        </extensions>
      </trkpt>
      <trkpt lat="48.70128" lon="1.7703">
        <ele>167.2</ele>
        <time>2026-01-31T13:38:10Z</time>
        <extensions>
          <gpxtpx:TrackPointExtension xmlns:gpxtpx="http://www.garmin.com/xmlschemas/TrackPointExtension/v1">
            <gpxtpx:hr>84</gpxtpx:hr>
          </gpxtpx:TrackPointExtension>
        </extensions>
      </trkpt>
      <trkpt lat="48.7013" lon="1.77032">
        <ele>167</ele>
        <time>2026-01-31T13:38:12Z</time>
        <extensions>
          <gpxtpx:TrackPointExtension xmlns:gpxtpx="http://www.garmin.com/xmlschemas/TrackPointExtension/v1">
            <gpxtpx:hr>84</gpxtpx:hr>
          </gpxtpx:TrackPointExtension>
        </extensions>
      </trkpt>
      <trkpt lat="48.70132" lon="1.77034">
        <ele>167</ele>
        <time>2026-01-31T13:38:14Z</time>
        <extensions>
          <gpxtpx:TrackPointExtension xmlns:gpxtpx="http://www.garmin.com/xmlschemas/TrackPointExtension/v1">
            <gpxtpx:hr>85</gpxtpx:hr>
          </gpxtpx:TrackPointExtension>
        </extensions>
      </trkpt>
      <trkpt lat="48.70134" lon="1.77036">
        <ele>166.8</ele>
        <time>2026-01-31T13:38:16Z</time>
        <extensions>
          <gpxtpx:TrackPointExtension xmlns:gpxtpx="http://www.garmin.com/xmlschemas/TrackPointExtension/v1">
            <gpxtpx:hr>85</gpxtpx:hr>
          </gpxtpx:TrackPointExtension>
        </extensions>
      </trkpt>
      <trkpt lat="48.70136" lon="1.77038">
        <ele>166.6</ele>
        <time>2026-01-31T13:38:18Z</time>
        <extensions>
          <gpxtpx:TrackPointExtension xmlns:gpxtpx="http://www.garmin.com/xmlschemas/TrackPointExtension/v1">
            <gpxtpx:hr>85</gpxtpx:hr>
          </gpxtpx:TrackPointExtension>
        </extensions>
      </trkpt>
      <trkpt lat="48.70138" lon="1.7704">
        <ele>166.4</ele>
        <time>2026-01-31T13:38:20Z</time>
        <extensions>
          <gpxtpx:TrackPointExtension xmlns:gpxtpx="http://www.garmin.com/xmlschemas/TrackPointExtension/v1">
            <gpxtpx:hr>85</gpxtpx:hr>
          </gpxtpx:TrackPointExtension>
        </extensions>
      </trkpt>
      <trkpt lat="48.7014" lon="1.77042">
        <ele>166.4</ele>
        <time>2026-01-31T13:38:22Z</time>
        <extensions>
          <gpxtpx:TrackPointExtension xmlns:gpxtpx="http://www.garmin.com/xmlschemas/TrackPointExtension/v1">
            <gpxtpx:hr>85</gpxtpx:hr>
          </gpxtpx:TrackPointExtension>
        </extensions>
      </trkpt>
      <trkpt lat="48.70142" lon="1.77044">
        <ele>166.2</ele>
        <time>2026-01-31T13:38:24Z</time>
        <extensions>
          <gpxtpx:TrackPointExtension xmlns:gpxtpx="http://www.garmin.com/xmlschemas/TrackPointExtension/v1">
            <gpxtpx:hr>85</gpxtpx:hr>
          </gpxtpx:TrackPointExtension>
        </extensions>
      </trkpt>
      <trkpt lat="48.70145" lon="1.77046">
        <ele>166</ele>
        <time>2026-01-31T13:38:26Z</time>
        <extensions>
          <gpxtpx:TrackPointExtension xmlns:gpxtpx="http://www.garmin.com/xmlschemas/TrackPointExtension/v1">
            <gpxtpx:hr>85</gpxtpx:hr>
          </gpxtpx:TrackPointExtension>
        </extensions>
      </trkpt>
      <trkpt lat="48.70147" lon="1.77049">
        <ele>166</ele>
        <time>2026-01-31T13:38:28Z</time>
        <extensions>
          <gpxtpx:TrackPointExtension xmlns:gpxtpx="http://www.garmin.com/xmlschemas/TrackPointExtension/v1">
            <gpxtpx:hr>86</gpxtpx:hr>
          </gpxtpx:TrackPointExtension>
        </extensions>
      </trkpt>
      <trkpt lat="48.7015" lon="1.77051">
        <ele>165.8</ele>
        <time>2026-01-31T13:38:30Z</time>
        <extensions>
          <gpxtpx:TrackPointExtension xmlns:gpxtpx="http://www.garmin.com/xmlschemas/TrackPointExtension/v1">
            <gpxtpx:hr>86</gpxtpx:hr>
          </gpxtpx:TrackPointExtension>
        </extensions>
      </trkpt>
      <trkpt lat="48.70153" lon="1.77053">
        <ele>165.6</ele>
        <time>2026-01-31T13:38:32Z</time>
        <extensions>
          <gpxtpx:TrackPointExtension xmlns:gpxtpx="http://www.garmin.com/xmlschemas/TrackPointExtension/v1">
            <gpxtpx:hr>86</gpxtpx:hr>
          </gpxtpx:TrackPointExtension>
        </extensions>
      </trkpt>
      <trkpt lat="48.70155" lon="1.77055">
        <ele>165.4</ele>
        <time>2026-01-31T13:38:34Z</time>
        <extensions>
          <gpxtpx:TrackPointExtension xmlns:gpxtpx="http://www.garmin.com/xmlschemas/TrackPointExtension/v1">
            <gpxtpx:hr>86</gpxtpx:hr>
          </gpxtpx:TrackPointExtension>
        </extensions>
      </trkpt>
      <trkpt lat="48.70158" lon="1.77058">
        <ele>165.4</ele>
        <time>2026-01-31T13:38:36Z</time>
        <extensions>
          <gpxtpx:TrackPointExtension xmlns:gpxtpx="http://www.garmin.com/xmlschemas/TrackPointExtension/v1">
            <gpxtpx:hr>86</gpxtpx:hr>
          </gpxtpx:TrackPointExtension>
        </extensions>
      </trkpt>
      <trkpt lat="48.7016" lon="1.7706">
        <ele>165.4</ele>
        <time>2026-01-31T13:38:38Z</time>
        <extensions>
          <gpxtpx:TrackPointExtension xmlns:gpxtpx="http://www.garmin.com/xmlschemas/TrackPointExtension/v1">
            <gpxtpx:hr>86</gpxtpx:hr>
          </gpxtpx:TrackPointExtension>
        </extensions>
      </trkpt>
      <trkpt lat="48.70162" lon="1.77063">
        <ele>165.4</ele>
        <time>2026-01-31T13:38:40Z</time>
        <extensions>
          <gpxtpx:TrackPointExtension xmlns:gpxtpx="http://www.garmin.com/xmlschemas/TrackPointExtension/v1">
            <gpxtpx:hr>86</gpxtpx:hr>
          </gpxtpx:TrackPointExtension>
        </extensions>
      </trkpt>
      <trkpt lat="48.70164" lon="1.77066">
        <ele>165.4</ele>
        <time>2026-01-31T13:38:42Z</time>
        <extensions>
          <gpxtpx:TrackPointExtension xmlns:gpxtpx="http://www.garmin.com/xmlschemas/TrackPointExtension/v1">
            <gpxtpx:hr>86</gpxtpx:hr>
          </gpxtpx:TrackPointExtension>
        </extensions>
      </trkpt>
      <trkpt lat="48.70166" lon="1.7707">
        <ele>165.6</ele>
        <time>2026-01-31T13:38:45Z</time>
        <extensions>
          <gpxtpx:TrackPointExtension xmlns:gpxtpx="http://www.garmin.com/xmlschemas/TrackPointExtension/v1">
            <gpxtpx:hr>87</gpxtpx:hr>
          </gpxtpx:TrackPointExtension>
        </extensions>
      </trkpt>
      <trkpt lat="48.70167" lon="1.77072">
        <ele>165.6</ele>
        <time>2026-01-31T13:38:46Z</time>
        <extensions>
          <gpxtpx:TrackPointExtension xmlns:gpxtpx="http://www.garmin.com/xmlschemas/TrackPointExtension/v1">
            <gpxtpx:hr>87</gpxtpx:hr>
          </gpxtpx:TrackPointExtension>
        </extensions>
      </trkpt>
      <trkpt lat="48.70169" lon="1.77074">
        <ele>165.8</ele>
        <time>2026-01-31T13:38:48Z</time>
        <extensions>
          <gpxtpx:TrackPointExtension xmlns:gpxtpx="http://www.garmin.com/xmlschemas/TrackPointExtension/v1">
            <gpxtpx:hr>87</gpxtpx:hr>
          </gpxtpx:TrackPointExtension>
        </extensions>
      </trkpt>
      <trkpt lat="48.70171" lon="1.77076">
        <ele>166</ele>
        <time>2026-01-31T13:38:50Z</time>
        <extensions>
          <gpxtpx:TrackPointExtension xmlns:gpxtpx="http://www.garmin.com/xmlschemas/TrackPointExtension/v1">
            <gpxtpx:hr>87</gpxtpx:hr>
          </gpxtpx:TrackPointExtension>
        </extensions>
      </trkpt>
      <trkpt lat="48.70173" lon="1.77078">
        <ele>166.2</ele>
        <time>2026-01-31T13:38:52Z</time>
        <extensions>
          <gpxtpx:TrackPointExtension xmlns:gpxtpx="http://www.garmin.com/xmlschemas/TrackPointExtension/v1">
            <gpxtpx:hr>87</gpxtpx:hr>
          </gpxtpx:TrackPointExtension>
        </extensions>
      </trkpt>
      <trkpt lat="48.70175" lon="1.7708">
        <ele>166.2</ele>
        <time>2026-01-31T13:38:54Z</time>
        <extensions>
          <gpxtpx:TrackPointExtension xmlns:gpxtpx="http://www.garmin.com/xmlschemas/TrackPointExtension/v1">
            <gpxtpx:hr>87</gpxtpx:hr>
          </gpxtpx:TrackPointExtension>
        </extensions>
      </trkpt>
      <trkpt lat="48.70178" lon="1.77083">
        <ele>166.2</ele>
        <time>2026-01-31T13:38:56Z</time>
        <extensions>
          <gpxtpx:TrackPointExtension xmlns:gpxtpx="http://www.garmin.com/xmlschemas/TrackPointExtension/v1">
            <gpxtpx:hr>87</gpxtpx:hr>
          </gpxtpx:TrackPointExtension>
        </extensions>
      </trkpt>
      <trkpt lat="48.7018" lon="1.77085">
        <ele>166.2</ele>
        <time>2026-01-31T13:38:58Z</time>
        <extensions>
          <gpxtpx:TrackPointExtension xmlns:gpxtpx="http://www.garmin.com/xmlschemas/TrackPointExtension/v1">
            <gpxtpx:hr>87</gpxtpx:hr>
          </gpxtpx:TrackPointExtension>
        </extensions>
      </trkpt>
      <trkpt lat="48.70182" lon="1.77088">
        <ele>166.4</ele>
        <time>2026-01-31T13:39:00Z</time>
        <extensions>
          <gpxtpx:TrackPointExtension xmlns:gpxtpx="http://www.garmin.com/xmlschemas/TrackPointExtension/v1">
            <gpxtpx:hr>88</gpxtpx:hr>
          </gpxtpx:TrackPointExtension>
        </extensions>
      </trkpt>
      <trkpt lat="48.70184" lon="1.77091">
        <ele>166.4</ele>
        <time>2026-01-31T13:39:02Z</time>
        <extensions>
          <gpxtpx:TrackPointExtension xmlns:gpxtpx="http://www.garmin.com/xmlschemas/TrackPointExtension/v1">
            <gpxtpx:hr>88</gpxtpx:hr>
          </gpxtpx:TrackPointExtension>
        </extensions>
      </trkpt>
      <trkpt lat="48.70186" lon="1.77093">
        <ele>166.6</ele>
        <time>2026-01-31T13:39:04Z</time>
        <extensions>
          <gpxtpx:TrackPointExtension xmlns:gpxtpx="http://www.garmin.com/xmlschemas/TrackPointExtension/v1">
            <gpxtpx:hr>88</gpxtpx:hr>
          </gpxtpx:TrackPointExtension>
        </extensions>
      </trkpt>
      <trkpt lat="48.70188" lon="1.77095">
        <ele>166.6</ele>
        <time>2026-01-31T13:39:06Z</time>
        <extensions>
          <gpxtpx:TrackPointExtension xmlns:gpxtpx="http://www.garmin.com/xmlschemas/TrackPointExtension/v1">
            <gpxtpx:hr>88</gpxtpx:hr>
          </gpxtpx:TrackPointExtension>
        </extensions>
      </trkpt>
      <trkpt lat="48.7019" lon="1.77097">
        <ele>166.8</ele>
        <time>2026-01-31T13:39:08Z</time>
        <extensions>
          <gpxtpx:TrackPointExtension xmlns:gpxtpx="http://www.garmin.com/xmlschemas/TrackPointExtension/v1">
            <gpxtpx:hr>88</gpxtpx:hr>
          </gpxtpx:TrackPointExtension>
        </extensions>
      </trkpt>
      <trkpt lat="48.70192" lon="1.77099">
        <ele>166.8</ele>
        <time>2026-01-31T13:39:10Z</time>
        <extensions>
          <gpxtpx:TrackPointExtension xmlns:gpxtpx="http://www.garmin.com/xmlschemas/TrackPointExtension/v1">
            <gpxtpx:hr>88</gpxtpx:hr>
          </gpxtpx:TrackPointExtension>
        </extensions>
      </trkpt>
      <trkpt lat="48.70194" lon="1.77101">
        <ele>167</ele>
        <time>2026-01-31T13:39:12Z</time>
        <extensions>
          <gpxtpx:TrackPointExtension xmlns:gpxtpx="http://www.garmin.com/xmlschemas/TrackPointExtension/v1">
            <gpxtpx:hr>89</gpxtpx:hr>
          </gpxtpx:TrackPointExtension>
        </extensions>
      </trkpt>
      <trkpt lat="48.70196" lon="1.77103">
        <ele>167</ele>
        <time>2026-01-31T13:39:14Z</time>
        <extensions>
          <gpxtpx:TrackPointExtension xmlns:gpxtpx="http://www.garmin.com/xmlschemas/TrackPointExtension/v1">
            <gpxtpx:hr>89</gpxtpx:hr>
          </gpxtpx:TrackPointExtension>
        </extensions>
      </trkpt>
      <trkpt lat="48.70199" lon="1.77106">
        <ele>167.2</ele>
        <time>2026-01-31T13:39:16Z</time>
        <extensions>
          <gpxtpx:TrackPointExtension xmlns:gpxtpx="http://www.garmin.com/xmlschemas/TrackPointExtension/v1">
            <gpxtpx:hr>89</gpxtpx:hr>
          </gpxtpx:TrackPointExtension>
        </extensions>
      </trkpt>
      <trkpt lat="48.70201" lon="1.77108">
        <ele>167.2</ele>
        <time>2026-01-31T13:39:18Z</time>
        <extensions>
          <gpxtpx:TrackPointExtension xmlns:gpxtpx="http://www.garmin.com/xmlschemas/TrackPointExtension/v1">
            <gpxtpx:hr>89</gpxtpx:hr>
          </gpxtpx:TrackPointExtension>
        </extensions>
      </trkpt>
      <trkpt lat="48.70203" lon="1.77111">
        <ele>167.4</ele>
        <time>2026-01-31T13:39:20Z</time>
        <extensions>
          <gpxtpx:TrackPointExtension xmlns:gpxtpx="http://www.garmin.com/xmlschemas/TrackPointExtension/v1">
            <gpxtpx:hr>89</gpxtpx:hr>
          </gpxtpx:TrackPointExtension>
        </extensions>
      </trkpt>
      <trkpt lat="48.70204" lon="1.77113">
        <ele>167.6</ele>
        <time>2026-01-31T13:39:22Z</time>
        <extensions>
          <gpxtpx:TrackPointExtension xmlns:gpxtpx="http://www.garmin.com/xmlschemas/TrackPointExtension/v1">
            <gpxtpx:hr>89</gpxtpx:hr>
          </gpxtpx:TrackPointExtension>
        </extensions>
      </trkpt>
      <trkpt lat="48.70206" lon="1.77115">
        <ele>167.8</ele>
        <time>2026-01-31T13:39:24Z</time>
        <extensions>
          <gpxtpx:TrackPointExtension xmlns:gpxtpx="http://www.garmin.com/xmlschemas/TrackPointExtension/v1">
            <gpxtpx:hr>89</gpxtpx:hr>
          </gpxtpx:TrackPointExtension>
        </extensions>
      </trkpt>
      <trkpt lat="48.70208" lon="1.77118">
        <ele>168</ele>
        <time>2026-01-31T13:39:26Z</time>
        <extensions>
          <gpxtpx:TrackPointExtension xmlns:gpxtpx="http://www.garmin.com/xmlschemas/TrackPointExtension/v1">
            <gpxtpx:hr>89</gpxtpx:hr>
          </gpxtpx:TrackPointExtension>
        </extensions>
      </trkpt>
      <trkpt lat="48.70211" lon="1.7712">
        <ele>168</ele>
        <time>2026-01-31T13:39:28Z</time>
        <extensions>
          <gpxtpx:TrackPointExtension xmlns:gpxtpx="http://www.garmin.com/xmlschemas/TrackPointExtension/v1">
            <gpxtpx:hr>89</gpxtpx:hr>
          </gpxtpx:TrackPointExtension>
        </extensions>
      </trkpt>
      <trkpt lat="48.70213" lon="1.77122">
        <ele>168.2</ele>
        <time>2026-01-31T13:39:30Z</time>
        <extensions>
          <gpxtpx:TrackPointExtension xmlns:gpxtpx="http://www.garmin.com/xmlschemas/TrackPointExtension/v1">
            <gpxtpx:hr>89</gpxtpx:hr>
          </gpxtpx:TrackPointExtension>
        </extensions>
      </trkpt>
      <trkpt lat="48.70215" lon="1.77125">
        <ele>168.4</ele>
        <time>2026-01-31T13:39:32Z</time>
        <extensions>
          <gpxtpx:TrackPointExtension xmlns:gpxtpx="http://www.garmin.com/xmlschemas/TrackPointExtension/v1">
            <gpxtpx:hr>89</gpxtpx:hr>
          </gpxtpx:TrackPointExtension>
        </extensions>
      </trkpt>
      <trkpt lat="48.70217" lon="1.77128">
        <ele>168.4</ele>
        <time>2026-01-31T13:39:34Z</time>
        <extensions>
          <gpxtpx:TrackPointExtension xmlns:gpxtpx="http://www.garmin.com/xmlschemas/TrackPointExtension/v1">
            <gpxtpx:hr>89</gpxtpx:hr>
          </gpxtpx:TrackPointExtension>
        </extensions>
      </trkpt>
      <trkpt lat="48.70219" lon="1.7713">
        <ele>168.6</ele>
        <time>2026-01-31T13:39:36Z</time>
        <extensions>
          <gpxtpx:TrackPointExtension xmlns:gpxtpx="http://www.garmin.com/xmlschemas/TrackPointExtension/v1">
            <gpxtpx:hr>89</gpxtpx:hr>
          </gpxtpx:TrackPointExtension>
        </extensions>
      </trkpt>
      <trkpt lat="48.70221" lon="1.77133">
        <ele>168.8</ele>
        <time>2026-01-31T13:39:38Z</time>
        <extensions>
          <gpxtpx:TrackPointExtension xmlns:gpxtpx="http://www.garmin.com/xmlschemas/TrackPointExtension/v1">
            <gpxtpx:hr>89</gpxtpx:hr>
          </gpxtpx:TrackPointExtension>
        </extensions>
      </trkpt>
      <trkpt lat="48.70223" lon="1.77135">
        <ele>168.8</ele>
        <time>2026-01-31T13:39:40Z</time>
        <extensions>
          <gpxtpx:TrackPointExtension xmlns:gpxtpx="http://www.garmin.com/xmlschemas/TrackPointExtension/v1">
            <gpxtpx:hr>89</gpxtpx:hr>
          </gpxtpx:TrackPointExtension>
        </extensions>
      </trkpt>
      <trkpt lat="48.70226" lon="1.77137">
        <ele>168.8</ele>
        <time>2026-01-31T13:39:42Z</time>
        <extensions>
          <gpxtpx:TrackPointExtension xmlns:gpxtpx="http://www.garmin.com/xmlschemas/TrackPointExtension/v1">
            <gpxtpx:hr>90</gpxtpx:hr>
          </gpxtpx:TrackPointExtension>
        </extensions>
      </trkpt>
      <trkpt lat="48.70228" lon="1.77139">
        <ele>168.8</ele>
        <time>2026-01-31T13:39:44Z</time>
        <extensions>
          <gpxtpx:TrackPointExtension xmlns:gpxtpx="http://www.garmin.com/xmlschemas/TrackPointExtension/v1">
            <gpxtpx:hr>90</gpxtpx:hr>
          </gpxtpx:TrackPointExtension>
        </extensions>
      </trkpt>
      <trkpt lat="48.7023" lon="1.77141">
        <ele>169</ele>
        <time>2026-01-31T13:39:46Z</time>
        <extensions>
          <gpxtpx:TrackPointExtension xmlns:gpxtpx="http://www.garmin.com/xmlschemas/TrackPointExtension/v1">
            <gpxtpx:hr>91</gpxtpx:hr>
          </gpxtpx:TrackPointExtension>
        </extensions>
      </trkpt>
      <trkpt lat="48.70232" lon="1.77143">
        <ele>169</ele>
        <time>2026-01-31T13:39:48Z</time>
        <extensions>
          <gpxtpx:TrackPointExtension xmlns:gpxtpx="http://www.garmin.com/xmlschemas/TrackPointExtension/v1">
            <gpxtpx:hr>91</gpxtpx:hr>
          </gpxtpx:TrackPointExtension>
        </extensions>
      </trkpt>
      <trkpt lat="48.70234" lon="1.77146">
        <ele>169.2</ele>
        <time>2026-01-31T13:39:50Z</time>
        <extensions>
          <gpxtpx:TrackPointExtension xmlns:gpxtpx="http://www.garmin.com/xmlschemas/TrackPointExtension/v1">
            <gpxtpx:hr>91</gpxtpx:hr>
          </gpxtpx:TrackPointExtension>
        </extensions>
      </trkpt>
      <trkpt lat="48.70236" lon="1.77148">
        <ele>169.2</ele>
        <time>2026-01-31T13:39:52Z</time>
        <extensions>
          <gpxtpx:TrackPointExtension xmlns:gpxtpx="http://www.garmin.com/xmlschemas/TrackPointExtension/v1">
            <gpxtpx:hr>91</gpxtpx:hr>
          </gpxtpx:TrackPointExtension>
        </extensions>
      </trkpt>
      <trkpt lat="48.70238" lon="1.77151">
        <ele>169.2</ele>
        <time>2026-01-31T13:39:54Z</time>
        <extensions>
          <gpxtpx:TrackPointExtension xmlns:gpxtpx="http://www.garmin.com/xmlschemas/TrackPointExtension/v1">
            <gpxtpx:hr>91</gpxtpx:hr>
          </gpxtpx:TrackPointExtension>
        </extensions>
      </trkpt>
      <trkpt lat="48.7024" lon="1.77154">
        <ele>169.4</ele>
        <time>2026-01-31T13:39:56Z</time>
        <extensions>
          <gpxtpx:TrackPointExtension xmlns:gpxtpx="http://www.garmin.com/xmlschemas/TrackPointExtension/v1">
            <gpxtpx:hr>91</gpxtpx:hr>
          </gpxtpx:TrackPointExtension>
        </extensions>
      </trkpt>
      <trkpt lat="48.70242" lon="1.77156">
        <ele>169.4</ele>
        <time>2026-01-31T13:39:58Z</time>
        <extensions>
          <gpxtpx:TrackPointExtension xmlns:gpxtpx="http://www.garmin.com/xmlschemas/TrackPointExtension/v1">
            <gpxtpx:hr>92</gpxtpx:hr>
          </gpxtpx:TrackPointExtension>
        </extensions>
      </trkpt>
      <trkpt lat="48.70244" lon="1.77157">
        <ele>169.4</ele>
        <time>2026-01-31T13:39:59Z</time>
        <extensions>
          <gpxtpx:TrackPointExtension xmlns:gpxtpx="http://www.garmin.com/xmlschemas/TrackPointExtension/v1">
            <gpxtpx:hr>93</gpxtpx:hr>
          </gpxtpx:TrackPointExtension>
        </extensions>
      </trkpt>
      <trkpt lat="48.70246" lon="1.7716">
        <ele>169.6</ele>
        <time>2026-01-31T13:40:01Z</time>
        <extensions>
          <gpxtpx:TrackPointExtension xmlns:gpxtpx="http://www.garmin.com/xmlschemas/TrackPointExtension/v1">
            <gpxtpx:hr>94</gpxtpx:hr>
          </gpxtpx:TrackPointExtension>
        </extensions>
      </trkpt>
      <trkpt lat="48.70249" lon="1.77162">
        <ele>169.6</ele>
        <time>2026-01-31T13:40:03Z</time>
        <extensions>
          <gpxtpx:TrackPointExtension xmlns:gpxtpx="http://www.garmin.com/xmlschemas/TrackPointExtension/v1">
            <gpxtpx:hr>94</gpxtpx:hr>
          </gpxtpx:TrackPointExtension>
        </extensions>
      </trkpt>
      <trkpt lat="48.70252" lon="1.77165">
        <ele>169.8</ele>
        <time>2026-01-31T13:40:05Z</time>
        <extensions>
          <gpxtpx:TrackPointExtension xmlns:gpxtpx="http://www.garmin.com/xmlschemas/TrackPointExtension/v1">
            <gpxtpx:hr>94</gpxtpx:hr>
          </gpxtpx:TrackPointExtension>
        </extensions>
      </trkpt>
      <trkpt lat="48.70254" lon="1.77167">
        <ele>170</ele>
        <time>2026-01-31T13:40:07Z</time>
        <extensions>
          <gpxtpx:TrackPointExtension xmlns:gpxtpx="http://www.garmin.com/xmlschemas/TrackPointExtension/v1">
            <gpxtpx:hr>94</gpxtpx:hr>
          </gpxtpx:TrackPointExtension>
        </extensions>
      </trkpt>
      <trkpt lat="48.70256" lon="1.77169">
        <ele>170.2</ele>
        <time>2026-01-31T13:40:09Z</time>
        <extensions>
          <gpxtpx:TrackPointExtension xmlns:gpxtpx="http://www.garmin.com/xmlschemas/TrackPointExtension/v1">
            <gpxtpx:hr>94</gpxtpx:hr>
          </gpxtpx:TrackPointExtension>
        </extensions>
      </trkpt>
      <trkpt lat="48.70259" lon="1.77172">
        <ele>170.4</ele>
        <time>2026-01-31T13:40:11Z</time>
        <extensions>
          <gpxtpx:TrackPointExtension xmlns:gpxtpx="http://www.garmin.com/xmlschemas/TrackPointExtension/v1">
            <gpxtpx:hr>94</gpxtpx:hr>
          </gpxtpx:TrackPointExtension>
        </extensions>
      </trkpt>
      <trkpt lat="48.70261" lon="1.77174">
        <ele>170.6</ele>
        <time>2026-01-31T13:40:13Z</time>
        <extensions>
          <gpxtpx:TrackPointExtension xmlns:gpxtpx="http://www.garmin.com/xmlschemas/TrackPointExtension/v1">
            <gpxtpx:hr>94</gpxtpx:hr>
          </gpxtpx:TrackPointExtension>
        </extensions>
      </trkpt>
      <trkpt lat="48.70263" lon="1.77177">
        <ele>170.8</ele>
        <time>2026-01-31T13:40:15Z</time>
        <extensions>
          <gpxtpx:TrackPointExtension xmlns:gpxtpx="http://www.garmin.com/xmlschemas/TrackPointExtension/v1">
            <gpxtpx:hr>94</gpxtpx:hr>
          </gpxtpx:TrackPointExtension>
        </extensions>
      </trkpt>
      <trkpt lat="48.70266" lon="1.77179">
        <ele>171</ele>
        <time>2026-01-31T13:40:17Z</time>
        <extensions>
          <gpxtpx:TrackPointExtension xmlns:gpxtpx="http://www.garmin.com/xmlschemas/TrackPointExtension/v1">
            <gpxtpx:hr>95</gpxtpx:hr>
          </gpxtpx:TrackPointExtension>
        </extensions>
      </trkpt>
      <trkpt lat="48.70268" lon="1.77182">
        <ele>171.2</ele>
        <time>2026-01-31T13:40:19Z</time>
        <extensions>
          <gpxtpx:TrackPointExtension xmlns:gpxtpx="http://www.garmin.com/xmlschemas/TrackPointExtension/v1">
            <gpxtpx:hr>96</gpxtpx:hr>
          </gpxtpx:TrackPointExtension>
        </extensions>
      </trkpt>
      <trkpt lat="48.7027" lon="1.77184">
        <ele>171.4</ele>
        <time>2026-01-31T13:40:21Z</time>
        <extensions>
          <gpxtpx:TrackPointExtension xmlns:gpxtpx="http://www.garmin.com/xmlschemas/TrackPointExtension/v1">
            <gpxtpx:hr>97</gpxtpx:hr>
          </gpxtpx:TrackPointExtension>
        </extensions>
      </trkpt>
      <trkpt lat="48.70272" lon="1.77187">
        <ele>171.4</ele>
        <time>2026-01-31T13:40:23Z</time>
        <extensions>
          <gpxtpx:TrackPointExtension xmlns:gpxtpx="http://www.garmin.com/xmlschemas/TrackPointExtension/v1">
            <gpxtpx:hr>98</gpxtpx:hr>
          </gpxtpx:TrackPointExtension>
        </extensions>
      </trkpt>
      <trkpt lat="48.70274" lon="1.7719">
        <ele>171.4</ele>
        <time>2026-01-31T13:40:25Z</time>
        <extensions>
          <gpxtpx:TrackPointExtension xmlns:gpxtpx="http://www.garmin.com/xmlschemas/TrackPointExtension/v1">
            <gpxtpx:hr>98</gpxtpx:hr>
          </gpxtpx:TrackPointExtension>
        </extensions>
      </trkpt>
      <trkpt lat="48.70276" lon="1.77192">
        <ele>171.4</ele>
        <time>2026-01-31T13:40:27Z</time>
        <extensions>
          <gpxtpx:TrackPointExtension xmlns:gpxtpx="http://www.garmin.com/xmlschemas/TrackPointExtension/v1">
            <gpxtpx:hr>98</gpxtpx:hr>
          </gpxtpx:TrackPointExtension>
        </extensions>
      </trkpt>
      <trkpt lat="48.70277" lon="1.77194">
        <ele>171.2</ele>
        <time>2026-01-31T13:40:29Z</time>
        <extensions>
          <gpxtpx:TrackPointExtension xmlns:gpxtpx="http://www.garmin.com/xmlschemas/TrackPointExtension/v1">
            <gpxtpx:hr>98</gpxtpx:hr>
          </gpxtpx:TrackPointExtension>
        </extensions>
      </trkpt>
      <trkpt lat="48.70279" lon="1.77196">
        <ele>171</ele>
        <time>2026-01-31T13:40:31Z</time>
        <extensions>
          <gpxtpx:TrackPointExtension xmlns:gpxtpx="http://www.garmin.com/xmlschemas/TrackPointExtension/v1">
            <gpxtpx:hr>98</gpxtpx:hr>
          </gpxtpx:TrackPointExtension>
        </extensions>
      </trkpt>
      <trkpt lat="48.70281" lon="1.77197">
        <ele>171</ele>
        <time>2026-01-31T13:40:33Z</time>
        <extensions>
          <gpxtpx:TrackPointExtension xmlns:gpxtpx="http://www.garmin.com/xmlschemas/TrackPointExtension/v1">
            <gpxtpx:hr>98</gpxtpx:hr>
          </gpxtpx:TrackPointExtension>
        </extensions>
      </trkpt>
      <trkpt lat="48.70283" lon="1.77199">
        <ele>170.8</ele>
        <time>2026-01-31T13:40:35Z</time>
        <extensions>
          <gpxtpx:TrackPointExtension xmlns:gpxtpx="http://www.garmin.com/xmlschemas/TrackPointExtension/v1">
            <gpxtpx:hr>99</gpxtpx:hr>
          </gpxtpx:TrackPointExtension>
        </extensions>
      </trkpt>
      <trkpt lat="48.70287" lon="1.77204">
        <ele>170.8</ele>
        <time>2026-01-31T13:40:39Z</time>
      </trkpt>
      <trkpt lat="48.7029" lon="1.77206">
        <ele>170.8</ele>
        <time>2026-01-31T13:40:41Z</time>
        <extensions>
          <gpxtpx:TrackPointExtension xmlns:gpxtpx="http://www.garmin.com/xmlschemas/TrackPointExtension/v1">
            <gpxtpx:hr>99</gpxtpx:hr>
          </gpxtpx:TrackPointExtension>
        </extensions>
      </trkpt>
      <trkpt lat="48.70292" lon="1.77207">
        <ele>170.8</ele>
        <time>2026-01-31T13:40:42Z</time>
        <extensions>
          <gpxtpx:TrackPointExtension xmlns:gpxtpx="http://www.garmin.com/xmlschemas/TrackPointExtension/v1">
            <gpxtpx:hr>99</gpxtpx:hr>
          </gpxtpx:TrackPointExtension>
        </extensions>
      </trkpt>
      <trkpt lat="48.70293" lon="1.77209">
        <ele>170.8</ele>
        <time>2026-01-31T13:40:43Z</time>
        <extensions>
          <gpxtpx:TrackPointExtension xmlns:gpxtpx="http://www.garmin.com/xmlschemas/TrackPointExtension/v1">
            <gpxtpx:hr>99</gpxtpx:hr>
          </gpxtpx:TrackPointExtension>
        </extensions>
      </trkpt>
      <trkpt lat="48.70295" lon="1.7721">
        <ele>170.8</ele>
        <time>2026-01-31T13:40:44Z</time>
        <extensions>
          <gpxtpx:TrackPointExtension xmlns:gpxtpx="http://www.garmin.com/xmlschemas/TrackPointExtension/v1">
            <gpxtpx:hr>99</gpxtpx:hr>
          </gpxtpx:TrackPointExtension>
        </extensions>
      </trkpt>
      <trkpt lat="48.70297" lon="1.77213">
        <ele>170.8</ele>
        <time>2026-01-31T13:40:46Z</time>
        <extensions>
          <gpxtpx:TrackPointExtension xmlns:gpxtpx="http://www.garmin.com/xmlschemas/TrackPointExtension/v1">
            <gpxtpx:hr>99</gpxtpx:hr>
          </gpxtpx:TrackPointExtension>
        </extensions>
      </trkpt>
      <trkpt lat="48.703" lon="1.77216">
        <ele>171</ele>
        <time>2026-01-31T13:40:48Z</time>
        <extensions>
          <gpxtpx:TrackPointExtension xmlns:gpxtpx="http://www.garmin.com/xmlschemas/TrackPointExtension/v1">
            <gpxtpx:hr>99</gpxtpx:hr>
          </gpxtpx:TrackPointExtension>
        </extensions>
      </trkpt>
      <trkpt lat="48.70302" lon="1.77218">
        <ele>171</ele>
        <time>2026-01-31T13:40:50Z</time>
        <extensions>
          <gpxtpx:TrackPointExtension xmlns:gpxtpx="http://www.garmin.com/xmlschemas/TrackPointExtension/v1">
            <gpxtpx:hr>99</gpxtpx:hr>
          </gpxtpx:TrackPointExtension>
        </extensions>
      </trkpt>
      <trkpt lat="48.70304" lon="1.7722">
        <ele>171.2</ele>
        <time>2026-01-31T13:40:52Z</time>
        <extensions>
          <gpxtpx:TrackPointExtension xmlns:gpxtpx="http://www.garmin.com/xmlschemas/TrackPointExtension/v1">
            <gpxtpx:hr>99</gpxtpx:hr>
          </gpxtpx:TrackPointExtension>
        </extensions>
      </trkpt>
      <trkpt lat="48.70306" lon="1.77222">
        <ele>171.4</ele>
        <time>2026-01-31T13:40:54Z</time>
        <extensions>
          <gpxtpx:TrackPointExtension xmlns:gpxtpx="http://www.garmin.com/xmlschemas/TrackPointExtension/v1">
            <gpxtpx:hr>99</gpxtpx:hr>
          </gpxtpx:TrackPointExtension>
        </extensions>
      </trkpt>
      <trkpt lat="48.70308" lon="1.77223">
        <ele>171.4</ele>
        <time>2026-01-31T13:40:56Z</time>
        <extensions>
          <gpxtpx:TrackPointExtension xmlns:gpxtpx="http://www.garmin.com/xmlschemas/TrackPointExtension/v1">
            <gpxtpx:hr>98</gpxtpx:hr>
          </gpxtpx:TrackPointExtension>
        </extensions>
      </trkpt>
      <trkpt lat="48.7031" lon="1.77224">
        <ele>171.4</ele>
        <time>2026-01-31T13:40:58Z</time>
        <extensions>
          <gpxtpx:TrackPointExtension xmlns:gpxtpx="http://www.garmin.com/xmlschemas/TrackPointExtension/v1">
            <gpxtpx:hr>98</gpxtpx:hr>
          </gpxtpx:TrackPointExtension>
        </extensions>
      </trkpt>
      <trkpt lat="48.70312" lon="1.77225">
        <ele>171.4</ele>
        <time>2026-01-31T13:41:00Z</time>
        <extensions>
          <gpxtpx:TrackPointExtension xmlns:gpxtpx="http://www.garmin.com/xmlschemas/TrackPointExtension/v1">
            <gpxtpx:hr>98</gpxtpx:hr>
          </gpxtpx:TrackPointExtension>
        </extensions>
      </trkpt>
      <trkpt lat="48.70314" lon="1.77227">
        <ele>171.4</ele>
        <time>2026-01-31T13:41:02Z</time>
        <extensions>
          <gpxtpx:TrackPointExtension xmlns:gpxtpx="http://www.garmin.com/xmlschemas/TrackPointExtension/v1">
            <gpxtpx:hr>99</gpxtpx:hr>
          </gpxtpx:TrackPointExtension>
        </extensions>
      </trkpt>
      <trkpt lat="48.70316" lon="1.77229">
        <ele>171.4</ele>
        <time>2026-01-31T13:41:03Z</time>
        <extensions>
          <gpxtpx:TrackPointExtension xmlns:gpxtpx="http://www.garmin.com/xmlschemas/TrackPointExtension/v1">
            <gpxtpx:hr>99</gpxtpx:hr>
          </gpxtpx:TrackPointExtension>
        </extensions>
      </trkpt>
      <trkpt lat="48.70318" lon="1.77231">
        <ele>171.4</ele>
        <time>2026-01-31T13:41:05Z</time>
        <extensions>
          <gpxtpx:TrackPointExtension xmlns:gpxtpx="http://www.garmin.com/xmlschemas/TrackPointExtension/v1">
            <gpxtpx:hr>100</gpxtpx:hr>
          </gpxtpx:TrackPointExtension>
        </extensions>
      </trkpt>
      <trkpt lat="48.70321" lon="1.77234">
        <ele>171.6</ele>
        <time>2026-01-31T13:41:07Z</time>
        <extensions>
          <gpxtpx:TrackPointExtension xmlns:gpxtpx="http://www.garmin.com/xmlschemas/TrackPointExtension/v1">
            <gpxtpx:hr>101</gpxtpx:hr>
          </gpxtpx:TrackPointExtension>
        </extensions>
      </trkpt>
      <trkpt lat="48.70323" lon="1.77235">
        <ele>171.6</ele>
        <time>2026-01-31T13:41:08Z</time>
        <extensions>
          <gpxtpx:TrackPointExtension xmlns:gpxtpx="http://www.garmin.com/xmlschemas/TrackPointExtension/v1">
            <gpxtpx:hr>102</gpxtpx:hr>
          </gpxtpx:TrackPointExtension>
        </extensions>
      </trkpt>
      <trkpt lat="48.70325" lon="1.77238">
        <ele>171.6</ele>
        <time>2026-01-31T13:41:10Z</time>
        <extensions>
          <gpxtpx:TrackPointExtension xmlns:gpxtpx="http://www.garmin.com/xmlschemas/TrackPointExtension/v1">
            <gpxtpx:hr>102</gpxtpx:hr>
          </gpxtpx:TrackPointExtension>
        </extensions>
      </trkpt>
      <trkpt lat="48.70328" lon="1.7724">
        <ele>171.6</ele>
        <time>2026-01-31T13:41:12Z</time>
        <extensions>
          <gpxtpx:TrackPointExtension xmlns:gpxtpx="http://www.garmin.com/xmlschemas/TrackPointExtension/v1">
            <gpxtpx:hr>102</gpxtpx:hr>
          </gpxtpx:TrackPointExtension>
        </extensions>
      </trkpt>
      <trkpt lat="48.70331" lon="1.77242">
        <ele>171.8</ele>
        <time>2026-01-31T13:41:14Z</time>
        <extensions>
          <gpxtpx:TrackPointExtension xmlns:gpxtpx="http://www.garmin.com/xmlschemas/TrackPointExtension/v1">
            <gpxtpx:hr>102</gpxtpx:hr>
          </gpxtpx:TrackPointExtension>
        </extensions>
      </trkpt>
      <trkpt lat="48.70332" lon="1.77243">
        <ele>171.8</ele>
        <time>2026-01-31T13:41:16Z</time>
        <extensions>
          <gpxtpx:TrackPointExtension xmlns:gpxtpx="http://www.garmin.com/xmlschemas/TrackPointExtension/v1">
            <gpxtpx:hr>102</gpxtpx:hr>
          </gpxtpx:TrackPointExtension>
        </extensions>
      </trkpt>
      <trkpt lat="48.70334" lon="1.77245">
        <ele>172</ele>
        <time>2026-01-31T13:41:18Z</time>
        <extensions>
          <gpxtpx:TrackPointExtension xmlns:gpxtpx="http://www.garmin.com/xmlschemas/TrackPointExtension/v1">
            <gpxtpx:hr>102</gpxtpx:hr>
          </gpxtpx:TrackPointExtension>
        </extensions>
      </trkpt>
      <trkpt lat="48.70335" lon="1.77248">
        <ele>171.8</ele>
        <time>2026-01-31T13:41:20Z</time>
        <extensions>
          <gpxtpx:TrackPointExtension xmlns:gpxtpx="http://www.garmin.com/xmlschemas/TrackPointExtension/v1">
            <gpxtpx:hr>102</gpxtpx:hr>
          </gpxtpx:TrackPointExtension>
        </extensions>
      </trkpt>
      <trkpt lat="48.70336" lon="1.77251">
        <ele>171.8</ele>
        <time>2026-01-31T13:41:22Z</time>
        <extensions>
          <gpxtpx:TrackPointExtension xmlns:gpxtpx="http://www.garmin.com/xmlschemas/TrackPointExtension/v1">
            <gpxtpx:hr>101</gpxtpx:hr>
          </gpxtpx:TrackPointExtension>
        </extensions>
      </trkpt>
      <trkpt lat="48.70338" lon="1.77254">
        <ele>171.8</ele>
        <time>2026-01-31T13:41:24Z</time>
        <extensions>
          <gpxtpx:TrackPointExtension xmlns:gpxtpx="http://www.garmin.com/xmlschemas/TrackPointExtension/v1">
            <gpxtpx:hr>101</gpxtpx:hr>
          </gpxtpx:TrackPointExtension>
        </extensions>
      </trkpt>
      <trkpt lat="48.7034" lon="1.77257">
        <ele>171.8</ele>
        <time>2026-01-31T13:41:26Z</time>
        <extensions>
          <gpxtpx:TrackPointExtension xmlns:gpxtpx="http://www.garmin.com/xmlschemas/TrackPointExtension/v1">
            <gpxtpx:hr>101</gpxtpx:hr>
          </gpxtpx:TrackPointExtension>
        </extensions>
      </trkpt>
      <trkpt lat="48.70341" lon="1.77259">
        <ele>172</ele>
        <time>2026-01-31T13:41:28Z</time>
        <extensions>
          <gpxtpx:TrackPointExtension xmlns:gpxtpx="http://www.garmin.com/xmlschemas/TrackPointExtension/v1">
            <gpxtpx:hr>101</gpxtpx:hr>
          </gpxtpx:TrackPointExtension>
        </extensions>
      </trkpt>
      <trkpt lat="48.70342" lon="1.77261">
        <ele>172</ele>
        <time>2026-01-31T13:41:30Z</time>
        <extensions>
          <gpxtpx:TrackPointExtension xmlns:gpxtpx="http://www.garmin.com/xmlschemas/TrackPointExtension/v1">
            <gpxtpx:hr>101</gpxtpx:hr>
          </gpxtpx:TrackPointExtension>
        </extensions>
      </trkpt>
      <trkpt lat="48.70344" lon="1.77264">
        <ele>172.2</ele>
        <time>2026-01-31T13:41:32Z</time>
        <extensions>
          <gpxtpx:TrackPointExtension xmlns:gpxtpx="http://www.garmin.com/xmlschemas/TrackPointExtension/v1">
            <gpxtpx:hr>101</gpxtpx:hr>
          </gpxtpx:TrackPointExtension>
        </extensions>
      </trkpt>
      <trkpt lat="48.70347" lon="1.77266">
        <ele>172.4</ele>
        <time>2026-01-31T13:41:34Z</time>
        <extensions>
          <gpxtpx:TrackPointExtension xmlns:gpxtpx="http://www.garmin.com/xmlschemas/TrackPointExtension/v1">
            <gpxtpx:hr>101</gpxtpx:hr>
          </gpxtpx:TrackPointExtension>
        </extensions>
      </trkpt>
      <trkpt lat="48.70349" lon="1.77269">
        <ele>172.8</ele>
        <time>2026-01-31T13:41:36Z</time>
        <extensions>
          <gpxtpx:TrackPointExtension xmlns:gpxtpx="http://www.garmin.com/xmlschemas/TrackPointExtension/v1">
            <gpxtpx:hr>101</gpxtpx:hr>
          </gpxtpx:TrackPointExtension>
        </extensions>
      </trkpt>
      <trkpt lat="48.70351" lon="1.77271">
        <ele>173</ele>
        <time>2026-01-31T13:41:37Z</time>
        <extensions>
          <gpxtpx:TrackPointExtension xmlns:gpxtpx="http://www.garmin.com/xmlschemas/TrackPointExtension/v1">
            <gpxtpx:hr>101</gpxtpx:hr>
          </gpxtpx:TrackPointExtension>
        </extensions>
      </trkpt>
      <trkpt lat="48.70353" lon="1.77275">
        <ele>173.2</ele>
        <time>2026-01-31T13:41:39Z</time>
        <extensions>
          <gpxtpx:TrackPointExtension xmlns:gpxtpx="http://www.garmin.com/xmlschemas/TrackPointExtension/v1">
            <gpxtpx:hr>101</gpxtpx:hr>
          </gpxtpx:TrackPointExtension>
        </extensions>
      </trkpt>
      <trkpt lat="48.70356" lon="1.77278">
        <ele>173.6</ele>
        <time>2026-01-31T13:41:41Z</time>
        <extensions>
          <gpxtpx:TrackPointExtension xmlns:gpxtpx="http://www.garmin.com/xmlschemas/TrackPointExtension/v1">
            <gpxtpx:hr>101</gpxtpx:hr>
          </gpxtpx:TrackPointExtension>
        </extensions>
      </trkpt>
      <trkpt lat="48.70357" lon="1.7728">
        <ele>173.6</ele>
        <time>2026-01-31T13:41:42Z</time>
        <extensions>
          <gpxtpx:TrackPointExtension xmlns:gpxtpx="http://www.garmin.com/xmlschemas/TrackPointExtension/v1">
            <gpxtpx:hr>101</gpxtpx:hr>
          </gpxtpx:TrackPointExtension>
        </extensions>
      </trkpt>
      <trkpt lat="48.70359" lon="1.77281">
        <ele>173.6</ele>
        <time>2026-01-31T13:41:43Z</time>
        <extensions>
          <gpxtpx:TrackPointExtension xmlns:gpxtpx="http://www.garmin.com/xmlschemas/TrackPointExtension/v1">
            <gpxtpx:hr>101</gpxtpx:hr>
          </gpxtpx:TrackPointExtension>
        </extensions>
      </trkpt>
      <trkpt lat="48.70361" lon="1.77283">
        <ele>173.8</ele>
        <time>2026-01-31T13:41:44Z</time>
        <extensions>
          <gpxtpx:TrackPointExtension xmlns:gpxtpx="http://www.garmin.com/xmlschemas/TrackPointExtension/v1">
            <gpxtpx:hr>101</gpxtpx:hr>
          </gpxtpx:TrackPointExtension>
        </extensions>
      </trkpt>
      <trkpt lat="48.70363" lon="1.77284">
        <ele>173.8</ele>
        <time>2026-01-31T13:41:45Z</time>
        <extensions>
          <gpxtpx:TrackPointExtension xmlns:gpxtpx="http://www.garmin.com/xmlschemas/TrackPointExtension/v1">
            <gpxtpx:hr>101</gpxtpx:hr>
          </gpxtpx:TrackPointExtension>
        </extensions>
      </trkpt>
      <trkpt lat="48.70366" lon="1.77285">
        <ele>174</ele>
        <time>2026-01-31T13:41:47Z</time>
        <extensions>
          <gpxtpx:TrackPointExtension xmlns:gpxtpx="http://www.garmin.com/xmlschemas/TrackPointExtension/v1">
            <gpxtpx:hr>101</gpxtpx:hr>
          </gpxtpx:TrackPointExtension>
        </extensions>
      </trkpt>
      <trkpt lat="48.70369" lon="1.77287">
        <ele>174</ele>
        <time>2026-01-31T13:41:49Z</time>
        <extensions>
          <gpxtpx:TrackPointExtension xmlns:gpxtpx="http://www.garmin.com/xmlschemas/TrackPointExtension/v1">
            <gpxtpx:hr>101</gpxtpx:hr>
          </gpxtpx:TrackPointExtension>
        </extensions>
      </trkpt>
      <trkpt lat="48.70371" lon="1.7729">
        <ele>174</ele>
        <time>2026-01-31T13:41:51Z</time>
        <extensions>
          <gpxtpx:TrackPointExtension xmlns:gpxtpx="http://www.garmin.com/xmlschemas/TrackPointExtension/v1">
            <gpxtpx:hr>101</gpxtpx:hr>
          </gpxtpx:TrackPointExtension>
        </extensions>
      </trkpt>
      <trkpt lat="48.70372" lon="1.77293">
        <ele>174.2</ele>
        <time>2026-01-31T13:41:53Z</time>
        <extensions>
          <gpxtpx:TrackPointExtension xmlns:gpxtpx="http://www.garmin.com/xmlschemas/TrackPointExtension/v1">
            <gpxtpx:hr>101</gpxtpx:hr>
          </gpxtpx:TrackPointExtension>
        </extensions>
      </trkpt>
      <trkpt lat="48.70373" lon="1.77297">
        <ele>174.4</ele>
        <time>2026-01-31T13:41:55Z</time>
        <extensions>
          <gpxtpx:TrackPointExtension xmlns:gpxtpx="http://www.garmin.com/xmlschemas/TrackPointExtension/v1">
            <gpxtpx:hr>101</gpxtpx:hr>
          </gpxtpx:TrackPointExtension>
        </extensions>
      </trkpt>
      <trkpt lat="48.70374" lon="1.773">
        <ele>174.6</ele>
        <time>2026-01-31T13:41:57Z</time>
        <extensions>
          <gpxtpx:TrackPointExtension xmlns:gpxtpx="http://www.garmin.com/xmlschemas/TrackPointExtension/v1">
            <gpxtpx:hr>101</gpxtpx:hr>
          </gpxtpx:TrackPointExtension>
        </extensions>
      </trkpt>
      <trkpt lat="48.70376" lon="1.77303">
        <ele>174.6</ele>
        <time>2026-01-31T13:41:59Z</time>
        <extensions>
          <gpxtpx:TrackPointExtension xmlns:gpxtpx="http://www.garmin.com/xmlschemas/TrackPointExtension/v1">
            <gpxtpx:hr>101</gpxtpx:hr>
          </gpxtpx:TrackPointExtension>
        </extensions>
      </trkpt>
      <trkpt lat="48.70377" lon="1.77306">
        <ele>174.6</ele>
        <time>2026-01-31T13:42:01Z</time>
        <extensions>
          <gpxtpx:TrackPointExtension xmlns:gpxtpx="http://www.garmin.com/xmlschemas/TrackPointExtension/v1">
            <gpxtpx:hr>101</gpxtpx:hr>
          </gpxtpx:TrackPointExtension>
        </extensions>
      </trkpt>
      <trkpt lat="48.70378" lon="1.77309">
        <ele>174.8</ele>
        <time>2026-01-31T13:42:03Z</time>
        <extensions>
          <gpxtpx:TrackPointExtension xmlns:gpxtpx="http://www.garmin.com/xmlschemas/TrackPointExtension/v1">
            <gpxtpx:hr>101</gpxtpx:hr>
          </gpxtpx:TrackPointExtension>
        </extensions>
      </trkpt>
      <trkpt lat="48.70379" lon="1.77313">
        <ele>174.8</ele>
        <time>2026-01-31T13:42:05Z</time>
        <extensions>
          <gpxtpx:TrackPointExtension xmlns:gpxtpx="http://www.garmin.com/xmlschemas/TrackPointExtension/v1">
            <gpxtpx:hr>101</gpxtpx:hr>
          </gpxtpx:TrackPointExtension>
        </extensions>
      </trkpt>
      <trkpt lat="48.7038" lon="1.77316">
        <ele>174.8</ele>
        <time>2026-01-31T13:42:07Z</time>
        <extensions>
          <gpxtpx:TrackPointExtension xmlns:gpxtpx="http://www.garmin.com/xmlschemas/TrackPointExtension/v1">
            <gpxtpx:hr>101</gpxtpx:hr>
          </gpxtpx:TrackPointExtension>
        </extensions>
      </trkpt>
      <trkpt lat="48.70381" lon="1.7732">
        <ele>175</ele>
        <time>2026-01-31T13:42:09Z</time>
        <extensions>
          <gpxtpx:TrackPointExtension xmlns:gpxtpx="http://www.garmin.com/xmlschemas/TrackPointExtension/v1">
            <gpxtpx:hr>101</gpxtpx:hr>
          </gpxtpx:TrackPointExtension>
        </extensions>
      </trkpt>
      <trkpt lat="48.70382" lon="1.77323">
        <ele>175</ele>
        <time>2026-01-31T13:42:11Z</time>
      </trkpt>
      <trkpt lat="48.70383" lon="1.77328">
        <ele>175.2</ele>
        <time>2026-01-31T13:42:16Z</time>
        <extensions>
          <gpxtpx:TrackPointExtension xmlns:gpxtpx="http://www.garmin.com/xmlschemas/TrackPointExtension/v1">
            <gpxtpx:hr>99</gpxtpx:hr>
          </gpxtpx:TrackPointExtension>
        </extensions>
      </trkpt>
      <trkpt lat="48.70383" lon="1.77331">
        <ele>176.4</ele>
        <time>2026-01-31T13:42:56Z</time>
        <extensions>
          <gpxtpx:TrackPointExtension xmlns:gpxtpx="http://www.garmin.com/xmlschemas/TrackPointExtension/v1">
            <gpxtpx:hr>94</gpxtpx:hr>
          </gpxtpx:TrackPointExtension>
        </extensions>
      </trkpt>
      <trkpt lat="48.70383" lon="1.77335">
        <ele>176.4</ele>
        <time>2026-01-31T13:43:01Z</time>
        <extensions>
          <gpxtpx:TrackPointExtension xmlns:gpxtpx="http://www.garmin.com/xmlschemas/TrackPointExtension/v1">
            <gpxtpx:hr>93</gpxtpx:hr>
          </gpxtpx:TrackPointExtension>
        </extensions>
      </trkpt>
      <trkpt lat="48.70384" lon="1.77339">
        <ele>176.4</ele>
        <time>2026-01-31T13:43:03Z</time>
        <extensions>
          <gpxtpx:TrackPointExtension xmlns:gpxtpx="http://www.garmin.com/xmlschemas/TrackPointExtension/v1">
            <gpxtpx:hr>93</gpxtpx:hr>
          </gpxtpx:TrackPointExtension>
        </extensions>
      </trkpt>
      <trkpt lat="48.70386" lon="1.77344">
        <ele>176.2</ele>
        <time>2026-01-31T13:43:05Z</time>
        <extensions>
          <gpxtpx:TrackPointExtension xmlns:gpxtpx="http://www.garmin.com/xmlschemas/TrackPointExtension/v1">
            <gpxtpx:hr>94</gpxtpx:hr>
          </gpxtpx:TrackPointExtension>
        </extensions>
      </trkpt>
      <trkpt lat="48.70387" lon="1.77348">
        <ele>176.2</ele>
        <time>2026-01-31T13:43:07Z</time>
        <extensions>
          <gpxtpx:TrackPointExtension xmlns:gpxtpx="http://www.garmin.com/xmlschemas/TrackPointExtension/v1">
            <gpxtpx:hr>94</gpxtpx:hr>
          </gpxtpx:TrackPointExtension>
        </extensions>
      </trkpt>
      <trkpt lat="48.70387" lon="1.77353">
        <ele>176.2</ele>
        <time>2026-01-31T13:43:09Z</time>
        <extensions>
          <gpxtpx:TrackPointExtension xmlns:gpxtpx="http://www.garmin.com/xmlschemas/TrackPointExtension/v1">
            <gpxtpx:hr>94</gpxtpx:hr>
          </gpxtpx:TrackPointExtension>
        </extensions>
      </trkpt>
      <trkpt lat="48.70388" lon="1.77356">
        <ele>176</ele>
        <time>2026-01-31T13:43:11Z</time>
        <extensions>
          <gpxtpx:TrackPointExtension xmlns:gpxtpx="http://www.garmin.com/xmlschemas/TrackPointExtension/v1">
            <gpxtpx:hr>94</gpxtpx:hr>
          </gpxtpx:TrackPointExtension>
        </extensions>
      </trkpt>
      <trkpt lat="48.70389" lon="1.77359">
        <ele>176</ele>
        <time>2026-01-31T13:43:13Z</time>
        <extensions>
          <gpxtpx:TrackPointExtension xmlns:gpxtpx="http://www.garmin.com/xmlschemas/TrackPointExtension/v1">
            <gpxtpx:hr>94</gpxtpx:hr>
          </gpxtpx:TrackPointExtension>
        </extensions>
      </trkpt>
      <trkpt lat="48.7039" lon="1.77361">
        <ele>175.8</ele>
        <time>2026-01-31T13:43:15Z</time>
        <extensions>
          <gpxtpx:TrackPointExtension xmlns:gpxtpx="http://www.garmin.com/xmlschemas/TrackPointExtension/v1">
            <gpxtpx:hr>94</gpxtpx:hr>
          </gpxtpx:TrackPointExtension>
        </extensions>
      </trkpt>
      <trkpt lat="48.70391" lon="1.77364">
        <ele>175.8</ele>
        <time>2026-01-31T13:43:17Z</time>
        <extensions>
          <gpxtpx:TrackPointExtension xmlns:gpxtpx="http://www.garmin.com/xmlschemas/TrackPointExtension/v1">
            <gpxtpx:hr>95</gpxtpx:hr>
          </gpxtpx:TrackPointExtension>
        </extensions>
      </trkpt>
      <trkpt lat="48.70392" lon="1.77367">
        <ele>175.8</ele>
        <time>2026-01-31T13:43:19Z</time>
        <extensions>
          <gpxtpx:TrackPointExtension xmlns:gpxtpx="http://www.garmin.com/xmlschemas/TrackPointExtension/v1">
            <gpxtpx:hr>95</gpxtpx:hr>
          </gpxtpx:TrackPointExtension>
        </extensions>
      </trkpt>
      <trkpt lat="48.70393" lon="1.77371">
        <ele>175.8</ele>
        <time>2026-01-31T13:43:21Z</time>
        <extensions>
          <gpxtpx:TrackPointExtension xmlns:gpxtpx="http://www.garmin.com/xmlschemas/TrackPointExtension/v1">
            <gpxtpx:hr>95</gpxtpx:hr>
          </gpxtpx:TrackPointExtension>
        </extensions>
      </trkpt>
      <trkpt lat="48.70394" lon="1.77374">
        <ele>175.8</ele>
        <time>2026-01-31T13:43:23Z</time>
        <extensions>
          <gpxtpx:TrackPointExtension xmlns:gpxtpx="http://www.garmin.com/xmlschemas/TrackPointExtension/v1">
            <gpxtpx:hr>95</gpxtpx:hr>
          </gpxtpx:TrackPointExtension>
        </extensions>
      </trkpt>
      <trkpt lat="48.70396" lon="1.77378">
        <ele>175.6</ele>
        <time>2026-01-31T13:43:25Z</time>
        <extensions>
          <gpxtpx:TrackPointExtension xmlns:gpxtpx="http://www.garmin.com/xmlschemas/TrackPointExtension/v1">
            <gpxtpx:hr>95</gpxtpx:hr>
          </gpxtpx:TrackPointExtension>
        </extensions>
      </trkpt>
      <trkpt lat="48.70397" lon="1.77381">
        <ele>175.6</ele>
        <time>2026-01-31T13:43:27Z</time>
        <extensions>
          <gpxtpx:TrackPointExtension xmlns:gpxtpx="http://www.garmin.com/xmlschemas/TrackPointExtension/v1">
            <gpxtpx:hr>95</gpxtpx:hr>
          </gpxtpx:TrackPointExtension>
        </extensions>
      </trkpt>
      <trkpt lat="48.70399" lon="1.77384">
        <ele>175.6</ele>
        <time>2026-01-31T13:43:29Z</time>
        <extensions>
          <gpxtpx:TrackPointExtension xmlns:gpxtpx="http://www.garmin.com/xmlschemas/TrackPointExtension/v1">
            <gpxtpx:hr>96</gpxtpx:hr>
          </gpxtpx:TrackPointExtension>
        </extensions>
      </trkpt>
      <trkpt lat="48.70401" lon="1.77388">
        <ele>175.4</ele>
        <time>2026-01-31T13:43:31Z</time>
        <extensions>
          <gpxtpx:TrackPointExtension xmlns:gpxtpx="http://www.garmin.com/xmlschemas/TrackPointExtension/v1">
            <gpxtpx:hr>96</gpxtpx:hr>
          </gpxtpx:TrackPointExtension>
        </extensions>
      </trkpt>
      <trkpt lat="48.70402" lon="1.77391">
        <ele>175.4</ele>
        <time>2026-01-31T13:43:33Z</time>
        <extensions>
          <gpxtpx:TrackPointExtension xmlns:gpxtpx="http://www.garmin.com/xmlschemas/TrackPointExtension/v1">
            <gpxtpx:hr>96</gpxtpx:hr>
          </gpxtpx:TrackPointExtension>
        </extensions>
      </trkpt>
      <trkpt lat="48.70403" lon="1.77395">
        <ele>175.2</ele>
        <time>2026-01-31T13:43:35Z</time>
        <extensions>
          <gpxtpx:TrackPointExtension xmlns:gpxtpx="http://www.garmin.com/xmlschemas/TrackPointExtension/v1">
            <gpxtpx:hr>96</gpxtpx:hr>
          </gpxtpx:TrackPointExtension>
        </extensions>
      </trkpt>
      <trkpt lat="48.70404" lon="1.77399">
        <ele>175.2</ele>
        <time>2026-01-31T13:43:37Z</time>
        <extensions>
          <gpxtpx:TrackPointExtension xmlns:gpxtpx="http://www.garmin.com/xmlschemas/TrackPointExtension/v1">
            <gpxtpx:hr>97</gpxtpx:hr>
          </gpxtpx:TrackPointExtension>
        </extensions>
      </trkpt>
      <trkpt lat="48.70405" lon="1.77402">
        <ele>175</ele>
        <time>2026-01-31T13:43:39Z</time>
        <extensions>
          <gpxtpx:TrackPointExtension xmlns:gpxtpx="http://www.garmin.com/xmlschemas/TrackPointExtension/v1">
            <gpxtpx:hr>97</gpxtpx:hr>
          </gpxtpx:TrackPointExtension>
        </extensions>
      </trkpt>
      <trkpt lat="48.70405" lon="1.77406">
        <ele>175</ele>
        <time>2026-01-31T13:43:41Z</time>
        <extensions>
          <gpxtpx:TrackPointExtension xmlns:gpxtpx="http://www.garmin.com/xmlschemas/TrackPointExtension/v1">
            <gpxtpx:hr>97</gpxtpx:hr>
          </gpxtpx:TrackPointExtension>
        </extensions>
      </trkpt>
      <trkpt lat="48.70406" lon="1.7741">
        <ele>174.8</ele>
        <time>2026-01-31T13:43:43Z</time>
        <extensions>
          <gpxtpx:TrackPointExtension xmlns:gpxtpx="http://www.garmin.com/xmlschemas/TrackPointExtension/v1">
            <gpxtpx:hr>98</gpxtpx:hr>
          </gpxtpx:TrackPointExtension>
        </extensions>
      </trkpt>
      <trkpt lat="48.70407" lon="1.77414">
        <ele>174.8</ele>
        <time>2026-01-31T13:43:45Z</time>
        <extensions>
          <gpxtpx:TrackPointExtension xmlns:gpxtpx="http://www.garmin.com/xmlschemas/TrackPointExtension/v1">
            <gpxtpx:hr>101</gpxtpx:hr>
          </gpxtpx:TrackPointExtension>
        </extensions>
      </trkpt>
      <trkpt lat="48.70408" lon="1.77417">
        <ele>174.8</ele>
        <time>2026-01-31T13:43:47Z</time>
        <extensions>
          <gpxtpx:TrackPointExtension xmlns:gpxtpx="http://www.garmin.com/xmlschemas/TrackPointExtension/v1">
            <gpxtpx:hr>105</gpxtpx:hr>
          </gpxtpx:TrackPointExtension>
        </extensions>
      </trkpt>
      <trkpt lat="48.70409" lon="1.77421">
        <ele>174.8</ele>
        <time>2026-01-31T13:43:49Z</time>
        <extensions>
          <gpxtpx:TrackPointExtension xmlns:gpxtpx="http://www.garmin.com/xmlschemas/TrackPointExtension/v1">
            <gpxtpx:hr>110</gpxtpx:hr>
          </gpxtpx:TrackPointExtension>
        </extensions>
      </trkpt>
      <trkpt lat="48.70409" lon="1.77425">
        <ele>174.8</ele>
        <time>2026-01-31T13:43:51Z</time>
        <extensions>
          <gpxtpx:TrackPointExtension xmlns:gpxtpx="http://www.garmin.com/xmlschemas/TrackPointExtension/v1">
            <gpxtpx:hr>111</gpxtpx:hr>
          </gpxtpx:TrackPointExtension>
        </extensions>
      </trkpt>
      <trkpt lat="48.7041" lon="1.7743">
        <ele>174.8</ele>
        <time>2026-01-31T13:43:53Z</time>
        <extensions>
          <gpxtpx:TrackPointExtension xmlns:gpxtpx="http://www.garmin.com/xmlschemas/TrackPointExtension/v1">
            <gpxtpx:hr>111</gpxtpx:hr>
          </gpxtpx:TrackPointExtension>
        </extensions>
      </trkpt>
      <trkpt lat="48.70411" lon="1.77434">
        <ele>174.8</ele>
        <time>2026-01-31T13:43:55Z</time>
        <extensions>
          <gpxtpx:TrackPointExtension xmlns:gpxtpx="http://www.garmin.com/xmlschemas/TrackPointExtension/v1">
            <gpxtpx:hr>112</gpxtpx:hr>
          </gpxtpx:TrackPointExtension>
        </extensions>
      </trkpt>
      <trkpt lat="48.70413" lon="1.77437">
        <ele>175</ele>
        <time>2026-01-31T13:43:57Z</time>
        <extensions>
          <gpxtpx:TrackPointExtension xmlns:gpxtpx="http://www.garmin.com/xmlschemas/TrackPointExtension/v1">
            <gpxtpx:hr>114</gpxtpx:hr>
          </gpxtpx:TrackPointExtension>
        </extensions>
      </trkpt>
      <trkpt lat="48.70415" lon="1.77441">
        <ele>175</ele>
        <time>2026-01-31T13:43:59Z</time>
        <extensions>
          <gpxtpx:TrackPointExtension xmlns:gpxtpx="http://www.garmin.com/xmlschemas/TrackPointExtension/v1">
            <gpxtpx:hr>116</gpxtpx:hr>
          </gpxtpx:TrackPointExtension>
        </extensions>
      </trkpt>
      <trkpt lat="48.70417" lon="1.77444">
        <ele>175</ele>
        <time>2026-01-31T13:44:01Z</time>
        <extensions>
          <gpxtpx:TrackPointExtension xmlns:gpxtpx="http://www.garmin.com/xmlschemas/TrackPointExtension/v1">
            <gpxtpx:hr>119</gpxtpx:hr>
          </gpxtpx:TrackPointExtension>
        </extensions>
      </trkpt>
      <trkpt lat="48.70419" lon="1.77447">
        <ele>175</ele>
        <time>2026-01-31T13:44:03Z</time>
        <extensions>
          <gpxtpx:TrackPointExtension xmlns:gpxtpx="http://www.garmin.com/xmlschemas/TrackPointExtension/v1">
            <gpxtpx:hr>119</gpxtpx:hr>
          </gpxtpx:TrackPointExtension>
        </extensions>
      </trkpt>
      <trkpt lat="48.7042" lon="1.7745">
        <ele>175</ele>
        <time>2026-01-31T13:44:05Z</time>
        <extensions>
          <gpxtpx:TrackPointExtension xmlns:gpxtpx="http://www.garmin.com/xmlschemas/TrackPointExtension/v1">
            <gpxtpx:hr>119</gpxtpx:hr>
          </gpxtpx:TrackPointExtension>
        </extensions>
      </trkpt>
      <trkpt lat="48.70421" lon="1.77454">
        <ele>175</ele>
        <time>2026-01-31T13:44:07Z</time>
        <extensions>
          <gpxtpx:TrackPointExtension xmlns:gpxtpx="http://www.garmin.com/xmlschemas/TrackPointExtension/v1">
            <gpxtpx:hr>119</gpxtpx:hr>
          </gpxtpx:TrackPointExtension>
        </extensions>
      </trkpt>
      <trkpt lat="48.70422" lon="1.77457">
        <ele>175</ele>
        <time>2026-01-31T13:44:09Z</time>
        <extensions>
          <gpxtpx:TrackPointExtension xmlns:gpxtpx="http://www.garmin.com/xmlschemas/TrackPointExtension/v1">
            <gpxtpx:hr>119</gpxtpx:hr>
          </gpxtpx:TrackPointExtension>
        </extensions>
      </trkpt>
      <trkpt lat="48.70423" lon="1.77461">
        <ele>175</ele>
        <time>2026-01-31T13:44:11Z</time>
        <extensions>
          <gpxtpx:TrackPointExtension xmlns:gpxtpx="http://www.garmin.com/xmlschemas/TrackPointExtension/v1">
            <gpxtpx:hr>119</gpxtpx:hr>
          </gpxtpx:TrackPointExtension>
        </extensions>
      </trkpt>
      <trkpt lat="48.70424" lon="1.77464">
        <ele>175</ele>
        <time>2026-01-31T13:44:13Z</time>
        <extensions>
          <gpxtpx:TrackPointExtension xmlns:gpxtpx="http://www.garmin.com/xmlschemas/TrackPointExtension/v1">
            <gpxtpx:hr>119</gpxtpx:hr>
          </gpxtpx:TrackPointExtension>
        </extensions>
      </trkpt>
      <trkpt lat="48.70425" lon="1.77467">
        <ele>174.8</ele>
        <time>2026-01-31T13:44:15Z</time>
        <extensions>
          <gpxtpx:TrackPointExtension xmlns:gpxtpx="http://www.garmin.com/xmlschemas/TrackPointExtension/v1">
            <gpxtpx:hr>120</gpxtpx:hr>
          </gpxtpx:TrackPointExtension>
        </extensions>
      </trkpt>
      <trkpt lat="48.70427" lon="1.7747">
        <ele>174.8</ele>
        <time>2026-01-31T13:44:17Z</time>
        <extensions>
          <gpxtpx:TrackPointExtension xmlns:gpxtpx="http://www.garmin.com/xmlschemas/TrackPointExtension/v1">
            <gpxtpx:hr>120</gpxtpx:hr>
          </gpxtpx:TrackPointExtension>
        </extensions>
      </trkpt>
      <trkpt lat="48.70429" lon="1.77473">
        <ele>174.8</ele>
        <time>2026-01-31T13:44:19Z</time>
        <extensions>
          <gpxtpx:TrackPointExtension xmlns:gpxtpx="http://www.garmin.com/xmlschemas/TrackPointExtension/v1">
            <gpxtpx:hr>120</gpxtpx:hr>
          </gpxtpx:TrackPointExtension>
        </extensions>
      </trkpt>
      <trkpt lat="48.70431" lon="1.77476">
        <ele>174.6</ele>
        <time>2026-01-31T13:44:21Z</time>
        <extensions>
          <gpxtpx:TrackPointExtension xmlns:gpxtpx="http://www.garmin.com/xmlschemas/TrackPointExtension/v1">
            <gpxtpx:hr>120</gpxtpx:hr>
          </gpxtpx:TrackPointExtension>
        </extensions>
      </trkpt>
      <trkpt lat="48.70432" lon="1.77479">
        <ele>174.4</ele>
        <time>2026-01-31T13:44:23Z</time>
        <extensions>
          <gpxtpx:TrackPointExtension xmlns:gpxtpx="http://www.garmin.com/xmlschemas/TrackPointExtension/v1">
            <gpxtpx:hr>120</gpxtpx:hr>
          </gpxtpx:TrackPointExtension>
        </extensions>
      </trkpt>
      <trkpt lat="48.70433" lon="1.77482">
        <ele>174.4</ele>
        <time>2026-01-31T13:44:25Z</time>
        <extensions>
          <gpxtpx:TrackPointExtension xmlns:gpxtpx="http://www.garmin.com/xmlschemas/TrackPointExtension/v1">
            <gpxtpx:hr>120</gpxtpx:hr>
          </gpxtpx:TrackPointExtension>
        </extensions>
      </trkpt>
      <trkpt lat="48.70435" lon="1.77486">
        <ele>174.2</ele>
        <time>2026-01-31T13:44:27Z</time>
        <extensions>
          <gpxtpx:TrackPointExtension xmlns:gpxtpx="http://www.garmin.com/xmlschemas/TrackPointExtension/v1">
            <gpxtpx:hr>120</gpxtpx:hr>
          </gpxtpx:TrackPointExtension>
        </extensions>
      </trkpt>
      <trkpt lat="48.70437" lon="1.77489">
        <ele>174</ele>
        <time>2026-01-31T13:44:29Z</time>
        <extensions>
          <gpxtpx:TrackPointExtension xmlns:gpxtpx="http://www.garmin.com/xmlschemas/TrackPointExtension/v1">
            <gpxtpx:hr>120</gpxtpx:hr>
          </gpxtpx:TrackPointExtension>
        </extensions>
      </trkpt>
      <trkpt lat="48.70438" lon="1.77492">
        <ele>174</ele>
        <time>2026-01-31T13:44:31Z</time>
        <extensions>
          <gpxtpx:TrackPointExtension xmlns:gpxtpx="http://www.garmin.com/xmlschemas/TrackPointExtension/v1">
            <gpxtpx:hr>120</gpxtpx:hr>
          </gpxtpx:TrackPointExtension>
        </extensions>
      </trkpt>
      <trkpt lat="48.70439" lon="1.77496">
        <ele>173.8</ele>
        <time>2026-01-31T13:44:34Z</time>
        <extensions>
          <gpxtpx:TrackPointExtension xmlns:gpxtpx="http://www.garmin.com/xmlschemas/TrackPointExtension/v1">
            <gpxtpx:hr>120</gpxtpx:hr>
          </gpxtpx:TrackPointExtension>
        </extensions>
      </trkpt>
      <trkpt lat="48.7044" lon="1.77498">
        <ele>173.8</ele>
        <time>2026-01-31T13:44:36Z</time>
        <extensions>
          <gpxtpx:TrackPointExtension xmlns:gpxtpx="http://www.garmin.com/xmlschemas/TrackPointExtension/v1">
            <gpxtpx:hr>119</gpxtpx:hr>
          </gpxtpx:TrackPointExtension>
        </extensions>
      </trkpt>
      <trkpt lat="48.70441" lon="1.77502">
        <ele>173.6</ele>
        <time>2026-01-31T13:44:38Z</time>
        <extensions>
          <gpxtpx:TrackPointExtension xmlns:gpxtpx="http://www.garmin.com/xmlschemas/TrackPointExtension/v1">
            <gpxtpx:hr>119</gpxtpx:hr>
          </gpxtpx:TrackPointExtension>
        </extensions>
      </trkpt>
      <trkpt lat="48.70442" lon="1.77505">
        <ele>173.6</ele>
        <time>2026-01-31T13:44:40Z</time>
        <extensions>
          <gpxtpx:TrackPointExtension xmlns:gpxtpx="http://www.garmin.com/xmlschemas/TrackPointExtension/v1">
            <gpxtpx:hr>119</gpxtpx:hr>
          </gpxtpx:TrackPointExtension>
        </extensions>
      </trkpt>
      <trkpt lat="48.70443" lon="1.77509">
        <ele>173.4</ele>
        <time>2026-01-31T13:44:42Z</time>
        <extensions>
          <gpxtpx:TrackPointExtension xmlns:gpxtpx="http://www.garmin.com/xmlschemas/TrackPointExtension/v1">
            <gpxtpx:hr>119</gpxtpx:hr>
          </gpxtpx:TrackPointExtension>
        </extensions>
      </trkpt>
      <trkpt lat="48.70444" lon="1.77513">
        <ele>173.4</ele>
        <time>2026-01-31T13:44:44Z</time>
        <extensions>
          <gpxtpx:TrackPointExtension xmlns:gpxtpx="http://www.garmin.com/xmlschemas/TrackPointExtension/v1">
            <gpxtpx:hr>119</gpxtpx:hr>
          </gpxtpx:TrackPointExtension>
        </extensions>
      </trkpt>
      <trkpt lat="48.70444" lon="1.77517">
        <ele>173.4</ele>
        <time>2026-01-31T13:44:46Z</time>
        <extensions>
          <gpxtpx:TrackPointExtension xmlns:gpxtpx="http://www.garmin.com/xmlschemas/TrackPointExtension/v1">
            <gpxtpx:hr>119</gpxtpx:hr>
          </gpxtpx:TrackPointExtension>
        </extensions>
      </trkpt>
      <trkpt lat="48.70446" lon="1.77521">
        <ele>173.4</ele>
        <time>2026-01-31T13:44:48Z</time>
        <extensions>
          <gpxtpx:TrackPointExtension xmlns:gpxtpx="http://www.garmin.com/xmlschemas/TrackPointExtension/v1">
            <gpxtpx:hr>118</gpxtpx:hr>
          </gpxtpx:TrackPointExtension>
        </extensions>
      </trkpt>
      <trkpt lat="48.70447" lon="1.77525">
        <ele>173.4</ele>
        <time>2026-01-31T13:44:50Z</time>
        <extensions>
          <gpxtpx:TrackPointExtension xmlns:gpxtpx="http://www.garmin.com/xmlschemas/TrackPointExtension/v1">
            <gpxtpx:hr>118</gpxtpx:hr>
          </gpxtpx:TrackPointExtension>
        </extensions>
      </trkpt>
      <trkpt lat="48.70448" lon="1.77528">
        <ele>173.4</ele>
        <time>2026-01-31T13:44:52Z</time>
        <extensions>
          <gpxtpx:TrackPointExtension xmlns:gpxtpx="http://www.garmin.com/xmlschemas/TrackPointExtension/v1">
            <gpxtpx:hr>118</gpxtpx:hr>
          </gpxtpx:TrackPointExtension>
        </extensions>
      </trkpt>
      <trkpt lat="48.7045" lon="1.77531">
        <ele>173.2</ele>
        <time>2026-01-31T13:44:54Z</time>
        <extensions>
          <gpxtpx:TrackPointExtension xmlns:gpxtpx="http://www.garmin.com/xmlschemas/TrackPointExtension/v1">
            <gpxtpx:hr>118</gpxtpx:hr>
          </gpxtpx:TrackPointExtension>
        </extensions>
      </trkpt>
      <trkpt lat="48.70451" lon="1.77535">
        <ele>173.2</ele>
        <time>2026-01-31T13:44:56Z</time>
        <extensions>
          <gpxtpx:TrackPointExtension xmlns:gpxtpx="http://www.garmin.com/xmlschemas/TrackPointExtension/v1">
            <gpxtpx:hr>118</gpxtpx:hr>
          </gpxtpx:TrackPointExtension>
        </extensions>
      </trkpt>
      <trkpt lat="48.70452" lon="1.77538">
        <ele>173.2</ele>
        <time>2026-01-31T13:44:58Z</time>
        <extensions>
          <gpxtpx:TrackPointExtension xmlns:gpxtpx="http://www.garmin.com/xmlschemas/TrackPointExtension/v1">
            <gpxtpx:hr>118</gpxtpx:hr>
          </gpxtpx:TrackPointExtension>
        </extensions>
      </trkpt>
      <trkpt lat="48.70452" lon="1.77542">
        <ele>173</ele>
        <time>2026-01-31T13:45:00Z</time>
        <extensions>
          <gpxtpx:TrackPointExtension xmlns:gpxtpx="http://www.garmin.com/xmlschemas/TrackPointExtension/v1">
            <gpxtpx:hr>118</gpxtpx:hr>
          </gpxtpx:TrackPointExtension>
        </extensions>
      </trkpt>
      <trkpt lat="48.70453" lon="1.77546">
        <ele>173</ele>
        <time>2026-01-31T13:45:02Z</time>
        <extensions>
          <gpxtpx:TrackPointExtension xmlns:gpxtpx="http://www.garmin.com/xmlschemas/TrackPointExtension/v1">
            <gpxtpx:hr>118</gpxtpx:hr>
          </gpxtpx:TrackPointExtension>
        </extensions>
      </trkpt>
      <trkpt lat="48.70454" lon="1.77549">
        <ele>173</ele>
        <time>2026-01-31T13:45:04Z</time>
        <extensions>
          <gpxtpx:TrackPointExtension xmlns:gpxtpx="http://www.garmin.com/xmlschemas/TrackPointExtension/v1">
            <gpxtpx:hr>118</gpxtpx:hr>
          </gpxtpx:TrackPointExtension>
        </extensions>
      </trkpt>
      <trkpt lat="48.70456" lon="1.77552">
        <ele>172.8</ele>
        <time>2026-01-31T13:45:07Z</time>
        <extensions>
          <gpxtpx:TrackPointExtension xmlns:gpxtpx="http://www.garmin.com/xmlschemas/TrackPointExtension/v1">
            <gpxtpx:hr>118</gpxtpx:hr>
          </gpxtpx:TrackPointExtension>
        </extensions>
      </trkpt>
      <trkpt lat="48.70457" lon="1.77555">
        <ele>172.8</ele>
        <time>2026-01-31T13:45:09Z</time>
        <extensions>
          <gpxtpx:TrackPointExtension xmlns:gpxtpx="http://www.garmin.com/xmlschemas/TrackPointExtension/v1">
            <gpxtpx:hr>118</gpxtpx:hr>
          </gpxtpx:TrackPointExtension>
        </extensions>
      </trkpt>
      <trkpt lat="48.70458" lon="1.77559">
        <ele>172.8</ele>
        <time>2026-01-31T13:45:11Z</time>
        <extensions>
          <gpxtpx:TrackPointExtension xmlns:gpxtpx="http://www.garmin.com/xmlschemas/TrackPointExtension/v1">
            <gpxtpx:hr>118</gpxtpx:hr>
          </gpxtpx:TrackPointExtension>
        </extensions>
      </trkpt>
      <trkpt lat="48.7046" lon="1.77563">
        <ele>172.8</ele>
        <time>2026-01-31T13:45:13Z</time>
        <extensions>
          <gpxtpx:TrackPointExtension xmlns:gpxtpx="http://www.garmin.com/xmlschemas/TrackPointExtension/v1">
            <gpxtpx:hr>118</gpxtpx:hr>
          </gpxtpx:TrackPointExtension>
        </extensions>
      </trkpt>
      <trkpt lat="48.7046" lon="1.77567">
        <ele>173</ele>
        <time>2026-01-31T13:45:15Z</time>
        <extensions>
          <gpxtpx:TrackPointExtension xmlns:gpxtpx="http://www.garmin.com/xmlschemas/TrackPointExtension/v1">
            <gpxtpx:hr>118</gpxtpx:hr>
          </gpxtpx:TrackPointExtension>
        </extensions>
      </trkpt>
      <trkpt lat="48.70462" lon="1.77571">
        <ele>173</ele>
        <time>2026-01-31T13:45:17Z</time>
        <extensions>
          <gpxtpx:TrackPointExtension xmlns:gpxtpx="http://www.garmin.com/xmlschemas/TrackPointExtension/v1">
            <gpxtpx:hr>119</gpxtpx:hr>
          </gpxtpx:TrackPointExtension>
        </extensions>
      </trkpt>
      <trkpt lat="48.70462" lon="1.77575">
        <ele>173</ele>
        <time>2026-01-31T13:45:19Z</time>
        <extensions>
          <gpxtpx:TrackPointExtension xmlns:gpxtpx="http://www.garmin.com/xmlschemas/TrackPointExtension/v1">
            <gpxtpx:hr>118</gpxtpx:hr>
          </gpxtpx:TrackPointExtension>
        </extensions>
      </trkpt>
      <trkpt lat="48.70464" lon="1.77579">
        <ele>173</ele>
        <time>2026-01-31T13:45:21Z</time>
        <extensions>
          <gpxtpx:TrackPointExtension xmlns:gpxtpx="http://www.garmin.com/xmlschemas/TrackPointExtension/v1">
            <gpxtpx:hr>118</gpxtpx:hr>
          </gpxtpx:TrackPointExtension>
        </extensions>
      </trkpt>
      <trkpt lat="48.70465" lon="1.77583">
        <ele>173</ele>
        <time>2026-01-31T13:45:23Z</time>
        <extensions>
          <gpxtpx:TrackPointExtension xmlns:gpxtpx="http://www.garmin.com/xmlschemas/TrackPointExtension/v1">
            <gpxtpx:hr>118</gpxtpx:hr>
          </gpxtpx:TrackPointExtension>
        </extensions>
      </trkpt>
      <trkpt lat="48.70466" lon="1.77587">
        <ele>173.2</ele>
        <time>2026-01-31T13:45:25Z</time>
        <extensions>
          <gpxtpx:TrackPointExtension xmlns:gpxtpx="http://www.garmin.com/xmlschemas/TrackPointExtension/v1">
            <gpxtpx:hr>118</gpxtpx:hr>
          </gpxtpx:TrackPointExtension>
        </extensions>
      </trkpt>
      <trkpt lat="48.70467" lon="1.77591">
        <ele>173.4</ele>
        <time>2026-01-31T13:45:27Z</time>
        <extensions>
          <gpxtpx:TrackPointExtension xmlns:gpxtpx="http://www.garmin.com/xmlschemas/TrackPointExtension/v1">
            <gpxtpx:hr>118</gpxtpx:hr>
          </gpxtpx:TrackPointExtension>
        </extensions>
      </trkpt>
      <trkpt lat="48.70468" lon="1.77594">
        <ele>173.4</ele>
        <time>2026-01-31T13:45:29Z</time>
        <extensions>
          <gpxtpx:TrackPointExtension xmlns:gpxtpx="http://www.garmin.com/xmlschemas/TrackPointExtension/v1">
            <gpxtpx:hr>118</gpxtpx:hr>
          </gpxtpx:TrackPointExtension>
        </extensions>
      </trkpt>
      <trkpt lat="48.70468" lon="1.77597">
        <ele>173.8</ele>
        <time>2026-01-31T13:45:32Z</time>
        <extensions>
          <gpxtpx:TrackPointExtension xmlns:gpxtpx="http://www.garmin.com/xmlschemas/TrackPointExtension/v1">
            <gpxtpx:hr>118</gpxtpx:hr>
          </gpxtpx:TrackPointExtension>
        </extensions>
      </trkpt>
      <trkpt lat="48.7047" lon="1.77599">
        <ele>174</ele>
        <time>2026-01-31T13:45:34Z</time>
        <extensions>
          <gpxtpx:TrackPointExtension xmlns:gpxtpx="http://www.garmin.com/xmlschemas/TrackPointExtension/v1">
            <gpxtpx:hr>117</gpxtpx:hr>
          </gpxtpx:TrackPointExtension>
        </extensions>
      </trkpt>
      <trkpt lat="48.70471" lon="1.77602">
        <ele>174</ele>
        <time>2026-01-31T13:45:36Z</time>
        <extensions>
          <gpxtpx:TrackPointExtension xmlns:gpxtpx="http://www.garmin.com/xmlschemas/TrackPointExtension/v1">
            <gpxtpx:hr>117</gpxtpx:hr>
          </gpxtpx:TrackPointExtension>
        </extensions>
      </trkpt>
      <trkpt lat="48.70472" lon="1.77605">
        <ele>174.2</ele>
        <time>2026-01-31T13:45:38Z</time>
        <extensions>
          <gpxtpx:TrackPointExtension xmlns:gpxtpx="http://www.garmin.com/xmlschemas/TrackPointExtension/v1">
            <gpxtpx:hr>117</gpxtpx:hr>
          </gpxtpx:TrackPointExtension>
        </extensions>
      </trkpt>
      <trkpt lat="48.70474" lon="1.77609">
        <ele>174.4</ele>
        <time>2026-01-31T13:45:40Z</time>
        <extensions>
          <gpxtpx:TrackPointExtension xmlns:gpxtpx="http://www.garmin.com/xmlschemas/TrackPointExtension/v1">
            <gpxtpx:hr>117</gpxtpx:hr>
          </gpxtpx:TrackPointExtension>
        </extensions>
      </trkpt>
      <trkpt lat="48.70475" lon="1.77612">
        <ele>174.6</ele>
        <time>2026-01-31T13:45:42Z</time>
        <extensions>
          <gpxtpx:TrackPointExtension xmlns:gpxtpx="http://www.garmin.com/xmlschemas/TrackPointExtension/v1">
            <gpxtpx:hr>117</gpxtpx:hr>
          </gpxtpx:TrackPointExtension>
        </extensions>
      </trkpt>
      <trkpt lat="48.70476" lon="1.77615">
        <ele>174.8</ele>
        <time>2026-01-31T13:45:44Z</time>
        <extensions>
          <gpxtpx:TrackPointExtension xmlns:gpxtpx="http://www.garmin.com/xmlschemas/TrackPointExtension/v1">
            <gpxtpx:hr>117</gpxtpx:hr>
          </gpxtpx:TrackPointExtension>
        </extensions>
      </trkpt>
      <trkpt lat="48.70478" lon="1.77618">
        <ele>174.8</ele>
        <time>2026-01-31T13:45:46Z</time>
        <extensions>
          <gpxtpx:TrackPointExtension xmlns:gpxtpx="http://www.garmin.com/xmlschemas/TrackPointExtension/v1">
            <gpxtpx:hr>117</gpxtpx:hr>
          </gpxtpx:TrackPointExtension>
        </extensions>
      </trkpt>
      <trkpt lat="48.7048" lon="1.77621">
        <ele>174.8</ele>
        <time>2026-01-31T13:45:48Z</time>
        <extensions>
          <gpxtpx:TrackPointExtension xmlns:gpxtpx="http://www.garmin.com/xmlschemas/TrackPointExtension/v1">
            <gpxtpx:hr>117</gpxtpx:hr>
          </gpxtpx:TrackPointExtension>
        </extensions>
      </trkpt>
      <trkpt lat="48.70481" lon="1.77624">
        <ele>174.8</ele>
        <time>2026-01-31T13:45:50Z</time>
        <extensions>
          <gpxtpx:TrackPointExtension xmlns:gpxtpx="http://www.garmin.com/xmlschemas/TrackPointExtension/v1">
            <gpxtpx:hr>117</gpxtpx:hr>
          </gpxtpx:TrackPointExtension>
        </extensions>
      </trkpt>
      <trkpt lat="48.70482" lon="1.77626">
        <ele>174.8</ele>
        <time>2026-01-31T13:45:52Z</time>
        <extensions>
          <gpxtpx:TrackPointExtension xmlns:gpxtpx="http://www.garmin.com/xmlschemas/TrackPointExtension/v1">
            <gpxtpx:hr>117</gpxtpx:hr>
          </gpxtpx:TrackPointExtension>
        </extensions>
      </trkpt>
      <trkpt lat="48.70482" lon="1.7763">
        <ele>174.8</ele>
        <time>2026-01-31T13:45:55Z</time>
        <extensions>
          <gpxtpx:TrackPointExtension xmlns:gpxtpx="http://www.garmin.com/xmlschemas/TrackPointExtension/v1">
            <gpxtpx:hr>117</gpxtpx:hr>
          </gpxtpx:TrackPointExtension>
        </extensions>
      </trkpt>
      <trkpt lat="48.70483" lon="1.77634">
        <ele>175</ele>
        <time>2026-01-31T13:45:58Z</time>
        <extensions>
          <gpxtpx:TrackPointExtension xmlns:gpxtpx="http://www.garmin.com/xmlschemas/TrackPointExtension/v1">
            <gpxtpx:hr>116</gpxtpx:hr>
          </gpxtpx:TrackPointExtension>
        </extensions>
      </trkpt>
      <trkpt lat="48.70484" lon="1.77638">
        <ele>175</ele>
        <time>2026-01-31T13:46:00Z</time>
        <extensions>
          <gpxtpx:TrackPointExtension xmlns:gpxtpx="http://www.garmin.com/xmlschemas/TrackPointExtension/v1">
            <gpxtpx:hr>117</gpxtpx:hr>
          </gpxtpx:TrackPointExtension>
        </extensions>
      </trkpt>
      <trkpt lat="48.70485" lon="1.77642">
        <ele>174.8</ele>
        <time>2026-01-31T13:46:02Z</time>
        <extensions>
          <gpxtpx:TrackPointExtension xmlns:gpxtpx="http://www.garmin.com/xmlschemas/TrackPointExtension/v1">
            <gpxtpx:hr>117</gpxtpx:hr>
          </gpxtpx:TrackPointExtension>
        </extensions>
      </trkpt>
      <trkpt lat="48.70486" lon="1.77645">
        <ele>174.8</ele>
        <time>2026-01-31T13:46:04Z</time>
        <extensions>
          <gpxtpx:TrackPointExtension xmlns:gpxtpx="http://www.garmin.com/xmlschemas/TrackPointExtension/v1">
            <gpxtpx:hr>117</gpxtpx:hr>
          </gpxtpx:TrackPointExtension>
        </extensions>
      </trkpt>
      <trkpt lat="48.70487" lon="1.77649">
        <ele>174.8</ele>
        <time>2026-01-31T13:46:06Z</time>
        <extensions>
          <gpxtpx:TrackPointExtension xmlns:gpxtpx="http://www.garmin.com/xmlschemas/TrackPointExtension/v1">
            <gpxtpx:hr>117</gpxtpx:hr>
          </gpxtpx:TrackPointExtension>
        </extensions>
      </trkpt>
      <trkpt lat="48.70488" lon="1.77653">
        <ele>174.8</ele>
        <time>2026-01-31T13:46:08Z</time>
        <extensions>
          <gpxtpx:TrackPointExtension xmlns:gpxtpx="http://www.garmin.com/xmlschemas/TrackPointExtension/v1">
            <gpxtpx:hr>117</gpxtpx:hr>
          </gpxtpx:TrackPointExtension>
        </extensions>
      </trkpt>
      <trkpt lat="48.7049" lon="1.77657">
        <ele>174.8</ele>
        <time>2026-01-31T13:46:10Z</time>
        <extensions>
          <gpxtpx:TrackPointExtension xmlns:gpxtpx="http://www.garmin.com/xmlschemas/TrackPointExtension/v1">
            <gpxtpx:hr>117</gpxtpx:hr>
          </gpxtpx:TrackPointExtension>
        </extensions>
      </trkpt>
      <trkpt lat="48.7049" lon="1.77661">
        <ele>174.8</ele>
        <time>2026-01-31T13:46:12Z</time>
        <extensions>
          <gpxtpx:TrackPointExtension xmlns:gpxtpx="http://www.garmin.com/xmlschemas/TrackPointExtension/v1">
            <gpxtpx:hr>117</gpxtpx:hr>
          </gpxtpx:TrackPointExtension>
        </extensions>
      </trkpt>
      <trkpt lat="48.70492" lon="1.77664">
        <ele>174.8</ele>
        <time>2026-01-31T13:46:14Z</time>
        <extensions>
          <gpxtpx:TrackPointExtension xmlns:gpxtpx="http://www.garmin.com/xmlschemas/TrackPointExtension/v1">
            <gpxtpx:hr>117</gpxtpx:hr>
          </gpxtpx:TrackPointExtension>
        </extensions>
      </trkpt>
      <trkpt lat="48.70492" lon="1.77667">
        <ele>174.8</ele>
        <time>2026-01-31T13:46:16Z</time>
        <extensions>
          <gpxtpx:TrackPointExtension xmlns:gpxtpx="http://www.garmin.com/xmlschemas/TrackPointExtension/v1">
            <gpxtpx:hr>117</gpxtpx:hr>
          </gpxtpx:TrackPointExtension>
        </extensions>
      </trkpt>
      <trkpt lat="48.70494" lon="1.7767">
        <ele>175</ele>
        <time>2026-01-31T13:46:18Z</time>
        <extensions>
          <gpxtpx:TrackPointExtension xmlns:gpxtpx="http://www.garmin.com/xmlschemas/TrackPointExtension/v1">
            <gpxtpx:hr>117</gpxtpx:hr>
          </gpxtpx:TrackPointExtension>
        </extensions>
      </trkpt>
      <trkpt lat="48.70494" lon="1.77674">
        <ele>175</ele>
        <time>2026-01-31T13:46:20Z</time>
        <extensions>
          <gpxtpx:TrackPointExtension xmlns:gpxtpx="http://www.garmin.com/xmlschemas/TrackPointExtension/v1">
            <gpxtpx:hr>117</gpxtpx:hr>
          </gpxtpx:TrackPointExtension>
        </extensions>
      </trkpt>
      <trkpt lat="48.70495" lon="1.77677">
        <ele>175</ele>
        <time>2026-01-31T13:46:22Z</time>
        <extensions>
          <gpxtpx:TrackPointExtension xmlns:gpxtpx="http://www.garmin.com/xmlschemas/TrackPointExtension/v1">
            <gpxtpx:hr>117</gpxtpx:hr>
          </gpxtpx:TrackPointExtension>
        </extensions>
      </trkpt>
      <trkpt lat="48.70496" lon="1.7768">
        <ele>175</ele>
        <time>2026-01-31T13:46:24Z</time>
        <extensions>
          <gpxtpx:TrackPointExtension xmlns:gpxtpx="http://www.garmin.com/xmlschemas/TrackPointExtension/v1">
            <gpxtpx:hr>116</gpxtpx:hr>
          </gpxtpx:TrackPointExtension>
        </extensions>
      </trkpt>
      <trkpt lat="48.70498" lon="1.77683">
        <ele>174.8</ele>
        <time>2026-01-31T13:46:26Z</time>
        <extensions>
          <gpxtpx:TrackPointExtension xmlns:gpxtpx="http://www.garmin.com/xmlschemas/TrackPointExtension/v1">
            <gpxtpx:hr>116</gpxtpx:hr>
          </gpxtpx:TrackPointExtension>
        </extensions>
      </trkpt>
      <trkpt lat="48.70499" lon="1.77686">
        <ele>174.8</ele>
        <time>2026-01-31T13:46:28Z</time>
        <extensions>
          <gpxtpx:TrackPointExtension xmlns:gpxtpx="http://www.garmin.com/xmlschemas/TrackPointExtension/v1">
            <gpxtpx:hr>116</gpxtpx:hr>
          </gpxtpx:TrackPointExtension>
        </extensions>
      </trkpt>
      <trkpt lat="48.705" lon="1.77689">
        <ele>174.8</ele>
        <time>2026-01-31T13:46:30Z</time>
        <extensions>
          <gpxtpx:TrackPointExtension xmlns:gpxtpx="http://www.garmin.com/xmlschemas/TrackPointExtension/v1">
            <gpxtpx:hr>116</gpxtpx:hr>
          </gpxtpx:TrackPointExtension>
        </extensions>
      </trkpt>
      <trkpt lat="48.705" lon="1.77693">
        <ele>174.6</ele>
        <time>2026-01-31T13:46:32Z</time>
        <extensions>
          <gpxtpx:TrackPointExtension xmlns:gpxtpx="http://www.garmin.com/xmlschemas/TrackPointExtension/v1">
            <gpxtpx:hr>116</gpxtpx:hr>
          </gpxtpx:TrackPointExtension>
        </extensions>
      </trkpt>
      <trkpt lat="48.70502" lon="1.77696">
        <ele>174.8</ele>
        <time>2026-01-31T13:46:34Z</time>
        <extensions>
          <gpxtpx:TrackPointExtension xmlns:gpxtpx="http://www.garmin.com/xmlschemas/TrackPointExtension/v1">
            <gpxtpx:hr>116</gpxtpx:hr>
          </gpxtpx:TrackPointExtension>
        </extensions>
      </trkpt>
      <trkpt lat="48.70503" lon="1.777">
        <ele>174.8</ele>
        <time>2026-01-31T13:46:36Z</time>
        <extensions>
          <gpxtpx:TrackPointExtension xmlns:gpxtpx="http://www.garmin.com/xmlschemas/TrackPointExtension/v1">
            <gpxtpx:hr>116</gpxtpx:hr>
          </gpxtpx:TrackPointExtension>
        </extensions>
      </trkpt>
      <trkpt lat="48.70505" lon="1.77704">
        <ele>175</ele>
        <time>2026-01-31T13:46:38Z</time>
        <extensions>
          <gpxtpx:TrackPointExtension xmlns:gpxtpx="http://www.garmin.com/xmlschemas/TrackPointExtension/v1">
            <gpxtpx:hr>116</gpxtpx:hr>
          </gpxtpx:TrackPointExtension>
        </extensions>
      </trkpt>
      <trkpt lat="48.70507" lon="1.77707">
        <ele>175</ele>
        <time>2026-01-31T13:46:40Z</time>
        <extensions>
          <gpxtpx:TrackPointExtension xmlns:gpxtpx="http://www.garmin.com/xmlschemas/TrackPointExtension/v1">
            <gpxtpx:hr>116</gpxtpx:hr>
          </gpxtpx:TrackPointExtension>
        </extensions>
      </trkpt>
      <trkpt lat="48.70508" lon="1.7771">
        <ele>175.2</ele>
        <time>2026-01-31T13:46:42Z</time>
        <extensions>
          <gpxtpx:TrackPointExtension xmlns:gpxtpx="http://www.garmin.com/xmlschemas/TrackPointExtension/v1">
            <gpxtpx:hr>116</gpxtpx:hr>
          </gpxtpx:TrackPointExtension>
        </extensions>
      </trkpt>
      <trkpt lat="48.7051" lon="1.77713">
        <ele>175.4</ele>
        <time>2026-01-31T13:46:44Z</time>
        <extensions>
          <gpxtpx:TrackPointExtension xmlns:gpxtpx="http://www.garmin.com/xmlschemas/TrackPointExtension/v1">
            <gpxtpx:hr>116</gpxtpx:hr>
          </gpxtpx:TrackPointExtension>
        </extensions>
      </trkpt>
      <trkpt lat="48.7051" lon="1.77717">
        <ele>175.4</ele>
        <time>2026-01-31T13:46:46Z</time>
        <extensions>
          <gpxtpx:TrackPointExtension xmlns:gpxtpx="http://www.garmin.com/xmlschemas/TrackPointExtension/v1">
            <gpxtpx:hr>116</gpxtpx:hr>
          </gpxtpx:TrackPointExtension>
        </extensions>
      </trkpt>
      <trkpt lat="48.70511" lon="1.7772">
        <ele>175.4</ele>
        <time>2026-01-31T13:46:48Z</time>
        <extensions>
          <gpxtpx:TrackPointExtension xmlns:gpxtpx="http://www.garmin.com/xmlschemas/TrackPointExtension/v1">
            <gpxtpx:hr>116</gpxtpx:hr>
          </gpxtpx:TrackPointExtension>
        </extensions>
      </trkpt>
      <trkpt lat="48.70512" lon="1.77723">
        <ele>175.4</ele>
        <time>2026-01-31T13:46:50Z</time>
        <extensions>
          <gpxtpx:TrackPointExtension xmlns:gpxtpx="http://www.garmin.com/xmlschemas/TrackPointExtension/v1">
            <gpxtpx:hr>116</gpxtpx:hr>
          </gpxtpx:TrackPointExtension>
        </extensions>
      </trkpt>
      <trkpt lat="48.70514" lon="1.77726">
        <ele>175.4</ele>
        <time>2026-01-31T13:46:52Z</time>
        <extensions>
          <gpxtpx:TrackPointExtension xmlns:gpxtpx="http://www.garmin.com/xmlschemas/TrackPointExtension/v1">
            <gpxtpx:hr>116</gpxtpx:hr>
          </gpxtpx:TrackPointExtension>
        </extensions>
      </trkpt>
      <trkpt lat="48.70515" lon="1.7773">
        <ele>175.4</ele>
        <time>2026-01-31T13:46:54Z</time>
        <extensions>
          <gpxtpx:TrackPointExtension xmlns:gpxtpx="http://www.garmin.com/xmlschemas/TrackPointExtension/v1">
            <gpxtpx:hr>116</gpxtpx:hr>
          </gpxtpx:TrackPointExtension>
        </extensions>
      </trkpt>
      <trkpt lat="48.70517" lon="1.77733">
        <ele>175.4</ele>
        <time>2026-01-31T13:46:56Z</time>
        <extensions>
          <gpxtpx:TrackPointExtension xmlns:gpxtpx="http://www.garmin.com/xmlschemas/TrackPointExtension/v1">
            <gpxtpx:hr>116</gpxtpx:hr>
          </gpxtpx:TrackPointExtension>
        </extensions>
      </trkpt>
      <trkpt lat="48.70518" lon="1.77736">
        <ele>175.4</ele>
        <time>2026-01-31T13:46:58Z</time>
        <extensions>
          <gpxtpx:TrackPointExtension xmlns:gpxtpx="http://www.garmin.com/xmlschemas/TrackPointExtension/v1">
            <gpxtpx:hr>116</gpxtpx:hr>
          </gpxtpx:TrackPointExtension>
        </extensions>
      </trkpt>
      <trkpt lat="48.7052" lon="1.7774">
        <ele>175.6</ele>
        <time>2026-01-31T13:47:00Z</time>
        <extensions>
          <gpxtpx:TrackPointExtension xmlns:gpxtpx="http://www.garmin.com/xmlschemas/TrackPointExtension/v1">
            <gpxtpx:hr>116</gpxtpx:hr>
          </gpxtpx:TrackPointExtension>
        </extensions>
      </trkpt>
      <trkpt lat="48.70521" lon="1.77744">
        <ele>175.6</ele>
        <time>2026-01-31T13:47:02Z</time>
        <extensions>
          <gpxtpx:TrackPointExtension xmlns:gpxtpx="http://www.garmin.com/xmlschemas/TrackPointExtension/v1">
            <gpxtpx:hr>115</gpxtpx:hr>
          </gpxtpx:TrackPointExtension>
        </extensions>
      </trkpt>
      <trkpt lat="48.70522" lon="1.77748">
        <ele>175.6</ele>
        <time>2026-01-31T13:47:04Z</time>
        <extensions>
          <gpxtpx:TrackPointExtension xmlns:gpxtpx="http://www.garmin.com/xmlschemas/TrackPointExtension/v1">
            <gpxtpx:hr>115</gpxtpx:hr>
          </gpxtpx:TrackPointExtension>
        </extensions>
      </trkpt>
      <trkpt lat="48.70522" lon="1.77752">
        <ele>175.6</ele>
        <time>2026-01-31T13:47:06Z</time>
        <extensions>
          <gpxtpx:TrackPointExtension xmlns:gpxtpx="http://www.garmin.com/xmlschemas/TrackPointExtension/v1">
            <gpxtpx:hr>115</gpxtpx:hr>
          </gpxtpx:TrackPointExtension>
        </extensions>
      </trkpt>
      <trkpt lat="48.70524" lon="1.77756">
        <ele>175.6</ele>
        <time>2026-01-31T13:47:08Z</time>
        <extensions>
          <gpxtpx:TrackPointExtension xmlns:gpxtpx="http://www.garmin.com/xmlschemas/TrackPointExtension/v1">
            <gpxtpx:hr>115</gpxtpx:hr>
          </gpxtpx:TrackPointExtension>
        </extensions>
      </trkpt>
      <trkpt lat="48.70525" lon="1.7776">
        <ele>175.6</ele>
        <time>2026-01-31T13:47:10Z</time>
        <extensions>
          <gpxtpx:TrackPointExtension xmlns:gpxtpx="http://www.garmin.com/xmlschemas/TrackPointExtension/v1">
            <gpxtpx:hr>115</gpxtpx:hr>
          </gpxtpx:TrackPointExtension>
        </extensions>
      </trkpt>
      <trkpt lat="48.70526" lon="1.77763">
        <ele>175.4</ele>
        <time>2026-01-31T13:47:12Z</time>
        <extensions>
          <gpxtpx:TrackPointExtension xmlns:gpxtpx="http://www.garmin.com/xmlschemas/TrackPointExtension/v1">
            <gpxtpx:hr>115</gpxtpx:hr>
          </gpxtpx:TrackPointExtension>
        </extensions>
      </trkpt>
      <trkpt lat="48.70528" lon="1.77767">
        <ele>175.4</ele>
        <time>2026-01-31T13:47:14Z</time>
        <extensions>
          <gpxtpx:TrackPointExtension xmlns:gpxtpx="http://www.garmin.com/xmlschemas/TrackPointExtension/v1">
            <gpxtpx:hr>115</gpxtpx:hr>
          </gpxtpx:TrackPointExtension>
        </extensions>
      </trkpt>
      <trkpt lat="48.70529" lon="1.7777">
        <ele>175.2</ele>
        <time>2026-01-31T13:47:16Z</time>
        <extensions>
          <gpxtpx:TrackPointExtension xmlns:gpxtpx="http://www.garmin.com/xmlschemas/TrackPointExtension/v1">
            <gpxtpx:hr>115</gpxtpx:hr>
          </gpxtpx:TrackPointExtension>
        </extensions>
      </trkpt>
      <trkpt lat="48.7053" lon="1.77774">
        <ele>175.2</ele>
        <time>2026-01-31T13:47:18Z</time>
        <extensions>
          <gpxtpx:TrackPointExtension xmlns:gpxtpx="http://www.garmin.com/xmlschemas/TrackPointExtension/v1">
            <gpxtpx:hr>115</gpxtpx:hr>
          </gpxtpx:TrackPointExtension>
        </extensions>
      </trkpt>
      <trkpt lat="48.70532" lon="1.77777">
        <ele>175.2</ele>
        <time>2026-01-31T13:47:20Z</time>
        <extensions>
          <gpxtpx:TrackPointExtension xmlns:gpxtpx="http://www.garmin.com/xmlschemas/TrackPointExtension/v1">
            <gpxtpx:hr>115</gpxtpx:hr>
          </gpxtpx:TrackPointExtension>
        </extensions>
      </trkpt>
      <trkpt lat="48.70534" lon="1.77781">
        <ele>175.2</ele>
        <time>2026-01-31T13:47:22Z</time>
        <extensions>
          <gpxtpx:TrackPointExtension xmlns:gpxtpx="http://www.garmin.com/xmlschemas/TrackPointExtension/v1">
            <gpxtpx:hr>115</gpxtpx:hr>
          </gpxtpx:TrackPointExtension>
        </extensions>
      </trkpt>
      <trkpt lat="48.70537" lon="1.77784">
        <ele>175.2</ele>
        <time>2026-01-31T13:47:24Z</time>
        <extensions>
          <gpxtpx:TrackPointExtension xmlns:gpxtpx="http://www.garmin.com/xmlschemas/TrackPointExtension/v1">
            <gpxtpx:hr>115</gpxtpx:hr>
          </gpxtpx:TrackPointExtension>
        </extensions>
      </trkpt>
      <trkpt lat="48.70539" lon="1.77788">
        <ele>175.2</ele>
        <time>2026-01-31T13:47:26Z</time>
        <extensions>
          <gpxtpx:TrackPointExtension xmlns:gpxtpx="http://www.garmin.com/xmlschemas/TrackPointExtension/v1">
            <gpxtpx:hr>115</gpxtpx:hr>
          </gpxtpx:TrackPointExtension>
        </extensions>
      </trkpt>
      <trkpt lat="48.7054" lon="1.77792">
        <ele>175.2</ele>
        <time>2026-01-31T13:47:28Z</time>
        <extensions>
          <gpxtpx:TrackPointExtension xmlns:gpxtpx="http://www.garmin.com/xmlschemas/TrackPointExtension/v1">
            <gpxtpx:hr>115</gpxtpx:hr>
          </gpxtpx:TrackPointExtension>
        </extensions>
      </trkpt>
      <trkpt lat="48.70542" lon="1.77797">
        <ele>175.2</ele>
        <time>2026-01-31T13:47:30Z</time>
        <extensions>
          <gpxtpx:TrackPointExtension xmlns:gpxtpx="http://www.garmin.com/xmlschemas/TrackPointExtension/v1">
            <gpxtpx:hr>115</gpxtpx:hr>
          </gpxtpx:TrackPointExtension>
        </extensions>
      </trkpt>
      <trkpt lat="48.70542" lon="1.77801">
        <ele>175</ele>
        <time>2026-01-31T13:47:32Z</time>
        <extensions>
          <gpxtpx:TrackPointExtension xmlns:gpxtpx="http://www.garmin.com/xmlschemas/TrackPointExtension/v1">
            <gpxtpx:hr>115</gpxtpx:hr>
          </gpxtpx:TrackPointExtension>
        </extensions>
      </trkpt>
      <trkpt lat="48.70542" lon="1.77805">
        <ele>175</ele>
        <time>2026-01-31T13:47:34Z</time>
        <extensions>
          <gpxtpx:TrackPointExtension xmlns:gpxtpx="http://www.garmin.com/xmlschemas/TrackPointExtension/v1">
            <gpxtpx:hr>115</gpxtpx:hr>
          </gpxtpx:TrackPointExtension>
        </extensions>
      </trkpt>
      <trkpt lat="48.70542" lon="1.77808">
        <ele>174.8</ele>
        <time>2026-01-31T13:47:36Z</time>
        <extensions>
          <gpxtpx:TrackPointExtension xmlns:gpxtpx="http://www.garmin.com/xmlschemas/TrackPointExtension/v1">
            <gpxtpx:hr>115</gpxtpx:hr>
          </gpxtpx:TrackPointExtension>
        </extensions>
      </trkpt>
      <trkpt lat="48.70543" lon="1.77811">
        <ele>174.6</ele>
        <time>2026-01-31T13:47:38Z</time>
        <extensions>
          <gpxtpx:TrackPointExtension xmlns:gpxtpx="http://www.garmin.com/xmlschemas/TrackPointExtension/v1">
            <gpxtpx:hr>115</gpxtpx:hr>
          </gpxtpx:TrackPointExtension>
        </extensions>
      </trkpt>
      <trkpt lat="48.70544" lon="1.77814">
        <ele>174.4</ele>
        <time>2026-01-31T13:47:40Z</time>
        <extensions>
          <gpxtpx:TrackPointExtension xmlns:gpxtpx="http://www.garmin.com/xmlschemas/TrackPointExtension/v1">
            <gpxtpx:hr>115</gpxtpx:hr>
          </gpxtpx:TrackPointExtension>
        </extensions>
      </trkpt>
      <trkpt lat="48.70544" lon="1.77818">
        <ele>174.2</ele>
        <time>2026-01-31T13:47:42Z</time>
        <extensions>
          <gpxtpx:TrackPointExtension xmlns:gpxtpx="http://www.garmin.com/xmlschemas/TrackPointExtension/v1">
            <gpxtpx:hr>115</gpxtpx:hr>
          </gpxtpx:TrackPointExtension>
        </extensions>
      </trkpt>
      <trkpt lat="48.70545" lon="1.77821">
        <ele>174</ele>
        <time>2026-01-31T13:47:44Z</time>
        <extensions>
          <gpxtpx:TrackPointExtension xmlns:gpxtpx="http://www.garmin.com/xmlschemas/TrackPointExtension/v1">
            <gpxtpx:hr>114</gpxtpx:hr>
          </gpxtpx:TrackPointExtension>
        </extensions>
      </trkpt>
      <trkpt lat="48.70546" lon="1.77825">
        <ele>173.8</ele>
        <time>2026-01-31T13:47:46Z</time>
        <extensions>
          <gpxtpx:TrackPointExtension xmlns:gpxtpx="http://www.garmin.com/xmlschemas/TrackPointExtension/v1">
            <gpxtpx:hr>114</gpxtpx:hr>
          </gpxtpx:TrackPointExtension>
        </extensions>
      </trkpt>
      <trkpt lat="48.70547" lon="1.77829">
        <ele>173.6</ele>
        <time>2026-01-31T13:47:48Z</time>
        <extensions>
          <gpxtpx:TrackPointExtension xmlns:gpxtpx="http://www.garmin.com/xmlschemas/TrackPointExtension/v1">
            <gpxtpx:hr>114</gpxtpx:hr>
          </gpxtpx:TrackPointExtension>
        </extensions>
      </trkpt>
      <trkpt lat="48.70548" lon="1.77832">
        <ele>173.4</ele>
        <time>2026-01-31T13:47:50Z</time>
        <extensions>
          <gpxtpx:TrackPointExtension xmlns:gpxtpx="http://www.garmin.com/xmlschemas/TrackPointExtension/v1">
            <gpxtpx:hr>114</gpxtpx:hr>
          </gpxtpx:TrackPointExtension>
        </extensions>
      </trkpt>
      <trkpt lat="48.70549" lon="1.77836">
        <ele>173.2</ele>
        <time>2026-01-31T13:47:52Z</time>
        <extensions>
          <gpxtpx:TrackPointExtension xmlns:gpxtpx="http://www.garmin.com/xmlschemas/TrackPointExtension/v1">
            <gpxtpx:hr>114</gpxtpx:hr>
          </gpxtpx:TrackPointExtension>
        </extensions>
      </trkpt>
      <trkpt lat="48.7055" lon="1.77839">
        <ele>173</ele>
        <time>2026-01-31T13:47:54Z</time>
        <extensions>
          <gpxtpx:TrackPointExtension xmlns:gpxtpx="http://www.garmin.com/xmlschemas/TrackPointExtension/v1">
            <gpxtpx:hr>114</gpxtpx:hr>
          </gpxtpx:TrackPointExtension>
        </extensions>
      </trkpt>
      <trkpt lat="48.70551" lon="1.77843">
        <ele>172.8</ele>
        <time>2026-01-31T13:47:56Z</time>
        <extensions>
          <gpxtpx:TrackPointExtension xmlns:gpxtpx="http://www.garmin.com/xmlschemas/TrackPointExtension/v1">
            <gpxtpx:hr>114</gpxtpx:hr>
          </gpxtpx:TrackPointExtension>
        </extensions>
      </trkpt>
      <trkpt lat="48.70553" lon="1.77846">
        <ele>172.8</ele>
        <time>2026-01-31T13:47:58Z</time>
        <extensions>
          <gpxtpx:TrackPointExtension xmlns:gpxtpx="http://www.garmin.com/xmlschemas/TrackPointExtension/v1">
            <gpxtpx:hr>114</gpxtpx:hr>
          </gpxtpx:TrackPointExtension>
        </extensions>
      </trkpt>
      <trkpt lat="48.70554" lon="1.77849">
        <ele>172.8</ele>
        <time>2026-01-31T13:48:00Z</time>
        <extensions>
          <gpxtpx:TrackPointExtension xmlns:gpxtpx="http://www.garmin.com/xmlschemas/TrackPointExtension/v1">
            <gpxtpx:hr>114</gpxtpx:hr>
          </gpxtpx:TrackPointExtension>
        </extensions>
      </trkpt>
      <trkpt lat="48.70556" lon="1.77852">
        <ele>172.8</ele>
        <time>2026-01-31T13:48:02Z</time>
        <extensions>
          <gpxtpx:TrackPointExtension xmlns:gpxtpx="http://www.garmin.com/xmlschemas/TrackPointExtension/v1">
            <gpxtpx:hr>116</gpxtpx:hr>
          </gpxtpx:TrackPointExtension>
        </extensions>
      </trkpt>
      <trkpt lat="48.70557" lon="1.77856">
        <ele>172.8</ele>
        <time>2026-01-31T13:48:04Z</time>
        <extensions>
          <gpxtpx:TrackPointExtension xmlns:gpxtpx="http://www.garmin.com/xmlschemas/TrackPointExtension/v1">
            <gpxtpx:hr>116</gpxtpx:hr>
          </gpxtpx:TrackPointExtension>
        </extensions>
      </trkpt>
      <trkpt lat="48.70558" lon="1.77859">
        <ele>172.8</ele>
        <time>2026-01-31T13:48:06Z</time>
        <extensions>
          <gpxtpx:TrackPointExtension xmlns:gpxtpx="http://www.garmin.com/xmlschemas/TrackPointExtension/v1">
            <gpxtpx:hr>117</gpxtpx:hr>
          </gpxtpx:TrackPointExtension>
        </extensions>
      </trkpt>
      <trkpt lat="48.7056" lon="1.77862">
        <ele>172.8</ele>
        <time>2026-01-31T13:48:08Z</time>
        <extensions>
          <gpxtpx:TrackPointExtension xmlns:gpxtpx="http://www.garmin.com/xmlschemas/TrackPointExtension/v1">
            <gpxtpx:hr>117</gpxtpx:hr>
          </gpxtpx:TrackPointExtension>
        </extensions>
      </trkpt>
      <trkpt lat="48.70561" lon="1.77866">
        <ele>173</ele>
        <time>2026-01-31T13:48:10Z</time>
        <extensions>
          <gpxtpx:TrackPointExtension xmlns:gpxtpx="http://www.garmin.com/xmlschemas/TrackPointExtension/v1">
            <gpxtpx:hr>117</gpxtpx:hr>
          </gpxtpx:TrackPointExtension>
        </extensions>
      </trkpt>
      <trkpt lat="48.70562" lon="1.7787">
        <ele>173</ele>
        <time>2026-01-31T13:48:12Z</time>
        <extensions>
          <gpxtpx:TrackPointExtension xmlns:gpxtpx="http://www.garmin.com/xmlschemas/TrackPointExtension/v1">
            <gpxtpx:hr>117</gpxtpx:hr>
          </gpxtpx:TrackPointExtension>
        </extensions>
      </trkpt>
      <trkpt lat="48.70564" lon="1.77873">
        <ele>173</ele>
        <time>2026-01-31T13:48:14Z</time>
        <extensions>
          <gpxtpx:TrackPointExtension xmlns:gpxtpx="http://www.garmin.com/xmlschemas/TrackPointExtension/v1">
            <gpxtpx:hr>117</gpxtpx:hr>
          </gpxtpx:TrackPointExtension>
        </extensions>
      </trkpt>
      <trkpt lat="48.70566" lon="1.77877">
        <ele>173</ele>
        <time>2026-01-31T13:48:16Z</time>
        <extensions>
          <gpxtpx:TrackPointExtension xmlns:gpxtpx="http://www.garmin.com/xmlschemas/TrackPointExtension/v1">
            <gpxtpx:hr>117</gpxtpx:hr>
          </gpxtpx:TrackPointExtension>
        </extensions>
      </trkpt>
      <trkpt lat="48.70567" lon="1.77881">
        <ele>172.8</ele>
        <time>2026-01-31T13:48:18Z</time>
        <extensions>
          <gpxtpx:TrackPointExtension xmlns:gpxtpx="http://www.garmin.com/xmlschemas/TrackPointExtension/v1">
            <gpxtpx:hr>116</gpxtpx:hr>
          </gpxtpx:TrackPointExtension>
        </extensions>
      </trkpt>
      <trkpt lat="48.70568" lon="1.77885">
        <ele>172.8</ele>
        <time>2026-01-31T13:48:20Z</time>
        <extensions>
          <gpxtpx:TrackPointExtension xmlns:gpxtpx="http://www.garmin.com/xmlschemas/TrackPointExtension/v1">
            <gpxtpx:hr>116</gpxtpx:hr>
          </gpxtpx:TrackPointExtension>
        </extensions>
      </trkpt>
      <trkpt lat="48.70569" lon="1.77889">
        <ele>172.8</ele>
        <time>2026-01-31T13:48:22Z</time>
        <extensions>
          <gpxtpx:TrackPointExtension xmlns:gpxtpx="http://www.garmin.com/xmlschemas/TrackPointExtension/v1">
            <gpxtpx:hr>116</gpxtpx:hr>
          </gpxtpx:TrackPointExtension>
        </extensions>
      </trkpt>
      <trkpt lat="48.7057" lon="1.77893">
        <ele>172.8</ele>
        <time>2026-01-31T13:48:24Z</time>
        <extensions>
          <gpxtpx:TrackPointExtension xmlns:gpxtpx="http://www.garmin.com/xmlschemas/TrackPointExtension/v1">
            <gpxtpx:hr>116</gpxtpx:hr>
          </gpxtpx:TrackPointExtension>
        </extensions>
      </trkpt>
      <trkpt lat="48.70572" lon="1.77897">
        <ele>172.8</ele>
        <time>2026-01-31T13:48:26Z</time>
        <extensions>
          <gpxtpx:TrackPointExtension xmlns:gpxtpx="http://www.garmin.com/xmlschemas/TrackPointExtension/v1">
            <gpxtpx:hr>116</gpxtpx:hr>
          </gpxtpx:TrackPointExtension>
        </extensions>
      </trkpt>
      <trkpt lat="48.70572" lon="1.77901">
        <ele>172.8</ele>
        <time>2026-01-31T13:48:28Z</time>
        <extensions>
          <gpxtpx:TrackPointExtension xmlns:gpxtpx="http://www.garmin.com/xmlschemas/TrackPointExtension/v1">
            <gpxtpx:hr>116</gpxtpx:hr>
          </gpxtpx:TrackPointExtension>
        </extensions>
      </trkpt>
      <trkpt lat="48.70573" lon="1.77904">
        <ele>172.6</ele>
        <time>2026-01-31T13:48:30Z</time>
        <extensions>
          <gpxtpx:TrackPointExtension xmlns:gpxtpx="http://www.garmin.com/xmlschemas/TrackPointExtension/v1">
            <gpxtpx:hr>116</gpxtpx:hr>
          </gpxtpx:TrackPointExtension>
        </extensions>
      </trkpt>
      <trkpt lat="48.70574" lon="1.77907">
        <ele>172.6</ele>
        <time>2026-01-31T13:48:32Z</time>
        <extensions>
          <gpxtpx:TrackPointExtension xmlns:gpxtpx="http://www.garmin.com/xmlschemas/TrackPointExtension/v1">
            <gpxtpx:hr>116</gpxtpx:hr>
          </gpxtpx:TrackPointExtension>
        </extensions>
      </trkpt>
      <trkpt lat="48.70574" lon="1.7791">
        <ele>172.4</ele>
        <time>2026-01-31T13:48:36Z</time>
        <extensions>
          <gpxtpx:TrackPointExtension xmlns:gpxtpx="http://www.garmin.com/xmlschemas/TrackPointExtension/v1">
            <gpxtpx:hr>117</gpxtpx:hr>
          </gpxtpx:TrackPointExtension>
        </extensions>
      </trkpt>
      <trkpt lat="48.70575" lon="1.77913">
        <ele>172.4</ele>
        <time>2026-01-31T13:48:39Z</time>
        <extensions>
          <gpxtpx:TrackPointExtension xmlns:gpxtpx="http://www.garmin.com/xmlschemas/TrackPointExtension/v1">
            <gpxtpx:hr>114</gpxtpx:hr>
          </gpxtpx:TrackPointExtension>
        </extensions>
      </trkpt>
      <trkpt lat="48.70576" lon="1.77916">
        <ele>172.2</ele>
        <time>2026-01-31T13:48:41Z</time>
        <extensions>
          <gpxtpx:TrackPointExtension xmlns:gpxtpx="http://www.garmin.com/xmlschemas/TrackPointExtension/v1">
            <gpxtpx:hr>114</gpxtpx:hr>
          </gpxtpx:TrackPointExtension>
        </extensions>
      </trkpt>
      <trkpt lat="48.70577" lon="1.77919">
        <ele>172.2</ele>
        <time>2026-01-31T13:48:43Z</time>
        <extensions>
          <gpxtpx:TrackPointExtension xmlns:gpxtpx="http://www.garmin.com/xmlschemas/TrackPointExtension/v1">
            <gpxtpx:hr>114</gpxtpx:hr>
          </gpxtpx:TrackPointExtension>
        </extensions>
      </trkpt>
      <trkpt lat="48.70579" lon="1.77922">
        <ele>172.2</ele>
        <time>2026-01-31T13:48:45Z</time>
        <extensions>
          <gpxtpx:TrackPointExtension xmlns:gpxtpx="http://www.garmin.com/xmlschemas/TrackPointExtension/v1">
            <gpxtpx:hr>114</gpxtpx:hr>
          </gpxtpx:TrackPointExtension>
        </extensions>
      </trkpt>
      <trkpt lat="48.7058" lon="1.77925">
        <ele>172.2</ele>
        <time>2026-01-31T13:48:47Z</time>
        <extensions>
          <gpxtpx:TrackPointExtension xmlns:gpxtpx="http://www.garmin.com/xmlschemas/TrackPointExtension/v1">
            <gpxtpx:hr>113</gpxtpx:hr>
          </gpxtpx:TrackPointExtension>
        </extensions>
      </trkpt>
      <trkpt lat="48.70582" lon="1.77929">
        <ele>172.2</ele>
        <time>2026-01-31T13:48:49Z</time>
        <extensions>
          <gpxtpx:TrackPointExtension xmlns:gpxtpx="http://www.garmin.com/xmlschemas/TrackPointExtension/v1">
            <gpxtpx:hr>113</gpxtpx:hr>
          </gpxtpx:TrackPointExtension>
        </extensions>
      </trkpt>
      <trkpt lat="48.70584" lon="1.77933">
        <ele>172.2</ele>
        <time>2026-01-31T13:48:51Z</time>
        <extensions>
          <gpxtpx:TrackPointExtension xmlns:gpxtpx="http://www.garmin.com/xmlschemas/TrackPointExtension/v1">
            <gpxtpx:hr>113</gpxtpx:hr>
          </gpxtpx:TrackPointExtension>
        </extensions>
      </trkpt>
      <trkpt lat="48.70586" lon="1.77936">
        <ele>172.2</ele>
        <time>2026-01-31T13:48:53Z</time>
        <extensions>
          <gpxtpx:TrackPointExtension xmlns:gpxtpx="http://www.garmin.com/xmlschemas/TrackPointExtension/v1">
            <gpxtpx:hr>113</gpxtpx:hr>
          </gpxtpx:TrackPointExtension>
        </extensions>
      </trkpt>
      <trkpt lat="48.70587" lon="1.77939">
        <ele>172.4</ele>
        <time>2026-01-31T13:48:55Z</time>
        <extensions>
          <gpxtpx:TrackPointExtension xmlns:gpxtpx="http://www.garmin.com/xmlschemas/TrackPointExtension/v1">
            <gpxtpx:hr>113</gpxtpx:hr>
          </gpxtpx:TrackPointExtension>
        </extensions>
      </trkpt>
      <trkpt lat="48.70589" lon="1.77943">
        <ele>172.4</ele>
        <time>2026-01-31T13:48:57Z</time>
        <extensions>
          <gpxtpx:TrackPointExtension xmlns:gpxtpx="http://www.garmin.com/xmlschemas/TrackPointExtension/v1">
            <gpxtpx:hr>113</gpxtpx:hr>
          </gpxtpx:TrackPointExtension>
        </extensions>
      </trkpt>
      <trkpt lat="48.70589" lon="1.77947">
        <ele>172.4</ele>
        <time>2026-01-31T13:48:59Z</time>
        <extensions>
          <gpxtpx:TrackPointExtension xmlns:gpxtpx="http://www.garmin.com/xmlschemas/TrackPointExtension/v1">
            <gpxtpx:hr>113</gpxtpx:hr>
          </gpxtpx:TrackPointExtension>
        </extensions>
      </trkpt>
      <trkpt lat="48.7059" lon="1.77951">
        <ele>172.4</ele>
        <time>2026-01-31T13:49:01Z</time>
        <extensions>
          <gpxtpx:TrackPointExtension xmlns:gpxtpx="http://www.garmin.com/xmlschemas/TrackPointExtension/v1">
            <gpxtpx:hr>114</gpxtpx:hr>
          </gpxtpx:TrackPointExtension>
        </extensions>
      </trkpt>
      <trkpt lat="48.70591" lon="1.77954">
        <ele>172.4</ele>
        <time>2026-01-31T13:49:03Z</time>
        <extensions>
          <gpxtpx:TrackPointExtension xmlns:gpxtpx="http://www.garmin.com/xmlschemas/TrackPointExtension/v1">
            <gpxtpx:hr>114</gpxtpx:hr>
          </gpxtpx:TrackPointExtension>
        </extensions>
      </trkpt>
      <trkpt lat="48.70592" lon="1.77957">
        <ele>172.4</ele>
        <time>2026-01-31T13:49:05Z</time>
        <extensions>
          <gpxtpx:TrackPointExtension xmlns:gpxtpx="http://www.garmin.com/xmlschemas/TrackPointExtension/v1">
            <gpxtpx:hr>113</gpxtpx:hr>
          </gpxtpx:TrackPointExtension>
        </extensions>
      </trkpt>
      <trkpt lat="48.70593" lon="1.77959">
        <ele>172.2</ele>
        <time>2026-01-31T13:49:07Z</time>
        <extensions>
          <gpxtpx:TrackPointExtension xmlns:gpxtpx="http://www.garmin.com/xmlschemas/TrackPointExtension/v1">
            <gpxtpx:hr>113</gpxtpx:hr>
          </gpxtpx:TrackPointExtension>
        </extensions>
      </trkpt>
      <trkpt lat="48.70594" lon="1.77962">
        <ele>172.2</ele>
        <time>2026-01-31T13:49:09Z</time>
        <extensions>
          <gpxtpx:TrackPointExtension xmlns:gpxtpx="http://www.garmin.com/xmlschemas/TrackPointExtension/v1">
            <gpxtpx:hr>113</gpxtpx:hr>
          </gpxtpx:TrackPointExtension>
        </extensions>
      </trkpt>
      <trkpt lat="48.70595" lon="1.77965">
        <ele>172</ele>
        <time>2026-01-31T13:49:11Z</time>
        <extensions>
          <gpxtpx:TrackPointExtension xmlns:gpxtpx="http://www.garmin.com/xmlschemas/TrackPointExtension/v1">
            <gpxtpx:hr>113</gpxtpx:hr>
          </gpxtpx:TrackPointExtension>
        </extensions>
      </trkpt>
      <trkpt lat="48.70597" lon="1.77968">
        <ele>171.8</ele>
        <time>2026-01-31T13:49:13Z</time>
        <extensions>
          <gpxtpx:TrackPointExtension xmlns:gpxtpx="http://www.garmin.com/xmlschemas/TrackPointExtension/v1">
            <gpxtpx:hr>113</gpxtpx:hr>
          </gpxtpx:TrackPointExtension>
        </extensions>
      </trkpt>
      <trkpt lat="48.70599" lon="1.77971">
        <ele>171.6</ele>
        <time>2026-01-31T13:49:15Z</time>
        <extensions>
          <gpxtpx:TrackPointExtension xmlns:gpxtpx="http://www.garmin.com/xmlschemas/TrackPointExtension/v1">
            <gpxtpx:hr>114</gpxtpx:hr>
          </gpxtpx:TrackPointExtension>
        </extensions>
      </trkpt>
      <trkpt lat="48.706" lon="1.77975">
        <ele>171.4</ele>
        <time>2026-01-31T13:49:17Z</time>
        <extensions>
          <gpxtpx:TrackPointExtension xmlns:gpxtpx="http://www.garmin.com/xmlschemas/TrackPointExtension/v1">
            <gpxtpx:hr>114</gpxtpx:hr>
          </gpxtpx:TrackPointExtension>
        </extensions>
      </trkpt>
      <trkpt lat="48.70601" lon="1.77979">
        <ele>171.2</ele>
        <time>2026-01-31T13:49:19Z</time>
        <extensions>
          <gpxtpx:TrackPointExtension xmlns:gpxtpx="http://www.garmin.com/xmlschemas/TrackPointExtension/v1">
            <gpxtpx:hr>114</gpxtpx:hr>
          </gpxtpx:TrackPointExtension>
        </extensions>
      </trkpt>
      <trkpt lat="48.70601" lon="1.77983">
        <ele>171.2</ele>
        <time>2026-01-31T13:49:21Z</time>
        <extensions>
          <gpxtpx:TrackPointExtension xmlns:gpxtpx="http://www.garmin.com/xmlschemas/TrackPointExtension/v1">
            <gpxtpx:hr>114</gpxtpx:hr>
          </gpxtpx:TrackPointExtension>
        </extensions>
      </trkpt>
      <trkpt lat="48.70603" lon="1.77987">
        <ele>171</ele>
        <time>2026-01-31T13:49:23Z</time>
        <extensions>
          <gpxtpx:TrackPointExtension xmlns:gpxtpx="http://www.garmin.com/xmlschemas/TrackPointExtension/v1">
            <gpxtpx:hr>114</gpxtpx:hr>
          </gpxtpx:TrackPointExtension>
        </extensions>
      </trkpt>
      <trkpt lat="48.70603" lon="1.7799">
        <ele>170.8</ele>
        <time>2026-01-31T13:49:25Z</time>
        <extensions>
          <gpxtpx:TrackPointExtension xmlns:gpxtpx="http://www.garmin.com/xmlschemas/TrackPointExtension/v1">
            <gpxtpx:hr>114</gpxtpx:hr>
          </gpxtpx:TrackPointExtension>
        </extensions>
      </trkpt>
      <trkpt lat="48.70604" lon="1.77994">
        <ele>170.6</ele>
        <time>2026-01-31T13:49:27Z</time>
        <extensions>
          <gpxtpx:TrackPointExtension xmlns:gpxtpx="http://www.garmin.com/xmlschemas/TrackPointExtension/v1">
            <gpxtpx:hr>114</gpxtpx:hr>
          </gpxtpx:TrackPointExtension>
        </extensions>
      </trkpt>
      <trkpt lat="48.70605" lon="1.77997">
        <ele>170.6</ele>
        <time>2026-01-31T13:49:29Z</time>
        <extensions>
          <gpxtpx:TrackPointExtension xmlns:gpxtpx="http://www.garmin.com/xmlschemas/TrackPointExtension/v1">
            <gpxtpx:hr>114</gpxtpx:hr>
          </gpxtpx:TrackPointExtension>
        </extensions>
      </trkpt>
      <trkpt lat="48.70607" lon="1.78">
        <ele>170.4</ele>
        <time>2026-01-31T13:49:31Z</time>
        <extensions>
          <gpxtpx:TrackPointExtension xmlns:gpxtpx="http://www.garmin.com/xmlschemas/TrackPointExtension/v1">
            <gpxtpx:hr>114</gpxtpx:hr>
          </gpxtpx:TrackPointExtension>
        </extensions>
      </trkpt>
      <trkpt lat="48.70608" lon="1.78004">
        <ele>170.4</ele>
        <time>2026-01-31T13:49:33Z</time>
        <extensions>
          <gpxtpx:TrackPointExtension xmlns:gpxtpx="http://www.garmin.com/xmlschemas/TrackPointExtension/v1">
            <gpxtpx:hr>114</gpxtpx:hr>
          </gpxtpx:TrackPointExtension>
        </extensions>
      </trkpt>
      <trkpt lat="48.7061" lon="1.78007">
        <ele>170.4</ele>
        <time>2026-01-31T13:49:35Z</time>
        <extensions>
          <gpxtpx:TrackPointExtension xmlns:gpxtpx="http://www.garmin.com/xmlschemas/TrackPointExtension/v1">
            <gpxtpx:hr>114</gpxtpx:hr>
          </gpxtpx:TrackPointExtension>
        </extensions>
      </trkpt>
      <trkpt lat="48.70611" lon="1.7801">
        <ele>170.4</ele>
        <time>2026-01-31T13:49:37Z</time>
        <extensions>
          <gpxtpx:TrackPointExtension xmlns:gpxtpx="http://www.garmin.com/xmlschemas/TrackPointExtension/v1">
            <gpxtpx:hr>114</gpxtpx:hr>
          </gpxtpx:TrackPointExtension>
        </extensions>
      </trkpt>
      <trkpt lat="48.70612" lon="1.78014">
        <ele>170.2</ele>
        <time>2026-01-31T13:49:39Z</time>
        <extensions>
          <gpxtpx:TrackPointExtension xmlns:gpxtpx="http://www.garmin.com/xmlschemas/TrackPointExtension/v1">
            <gpxtpx:hr>114</gpxtpx:hr>
          </gpxtpx:TrackPointExtension>
        </extensions>
      </trkpt>
      <trkpt lat="48.70613" lon="1.78017">
        <ele>170.2</ele>
        <time>2026-01-31T13:49:41Z</time>
        <extensions>
          <gpxtpx:TrackPointExtension xmlns:gpxtpx="http://www.garmin.com/xmlschemas/TrackPointExtension/v1">
            <gpxtpx:hr>114</gpxtpx:hr>
          </gpxtpx:TrackPointExtension>
        </extensions>
      </trkpt>
      <trkpt lat="48.70615" lon="1.78021">
        <ele>170</ele>
        <time>2026-01-31T13:49:43Z</time>
        <extensions>
          <gpxtpx:TrackPointExtension xmlns:gpxtpx="http://www.garmin.com/xmlschemas/TrackPointExtension/v1">
            <gpxtpx:hr>114</gpxtpx:hr>
          </gpxtpx:TrackPointExtension>
        </extensions>
      </trkpt>
      <trkpt lat="48.70617" lon="1.78025">
        <ele>169.8</ele>
        <time>2026-01-31T13:49:45Z</time>
        <extensions>
          <gpxtpx:TrackPointExtension xmlns:gpxtpx="http://www.garmin.com/xmlschemas/TrackPointExtension/v1">
            <gpxtpx:hr>114</gpxtpx:hr>
          </gpxtpx:TrackPointExtension>
        </extensions>
      </trkpt>
      <trkpt lat="48.70617" lon="1.78029">
        <ele>169.6</ele>
        <time>2026-01-31T13:49:47Z</time>
        <extensions>
          <gpxtpx:TrackPointExtension xmlns:gpxtpx="http://www.garmin.com/xmlschemas/TrackPointExtension/v1">
            <gpxtpx:hr>114</gpxtpx:hr>
          </gpxtpx:TrackPointExtension>
        </extensions>
      </trkpt>
      <trkpt lat="48.70618" lon="1.78033">
        <ele>169.6</ele>
        <time>2026-01-31T13:49:49Z</time>
        <extensions>
          <gpxtpx:TrackPointExtension xmlns:gpxtpx="http://www.garmin.com/xmlschemas/TrackPointExtension/v1">
            <gpxtpx:hr>114</gpxtpx:hr>
          </gpxtpx:TrackPointExtension>
        </extensions>
      </trkpt>
      <trkpt lat="48.70619" lon="1.78037">
        <ele>169.6</ele>
        <time>2026-01-31T13:49:51Z</time>
        <extensions>
          <gpxtpx:TrackPointExtension xmlns:gpxtpx="http://www.garmin.com/xmlschemas/TrackPointExtension/v1">
            <gpxtpx:hr>114</gpxtpx:hr>
          </gpxtpx:TrackPointExtension>
        </extensions>
      </trkpt>
      <trkpt lat="48.7062" lon="1.78041">
        <ele>169.4</ele>
        <time>2026-01-31T13:49:53Z</time>
        <extensions>
          <gpxtpx:TrackPointExtension xmlns:gpxtpx="http://www.garmin.com/xmlschemas/TrackPointExtension/v1">
            <gpxtpx:hr>114</gpxtpx:hr>
          </gpxtpx:TrackPointExtension>
        </extensions>
      </trkpt>
      <trkpt lat="48.70621" lon="1.78044">
        <ele>169.4</ele>
        <time>2026-01-31T13:49:55Z</time>
        <extensions>
          <gpxtpx:TrackPointExtension xmlns:gpxtpx="http://www.garmin.com/xmlschemas/TrackPointExtension/v1">
            <gpxtpx:hr>114</gpxtpx:hr>
          </gpxtpx:TrackPointExtension>
        </extensions>
      </trkpt>
      <trkpt lat="48.70622" lon="1.78046">
        <ele>169.4</ele>
        <time>2026-01-31T13:49:57Z</time>
        <extensions>
          <gpxtpx:TrackPointExtension xmlns:gpxtpx="http://www.garmin.com/xmlschemas/TrackPointExtension/v1">
            <gpxtpx:hr>114</gpxtpx:hr>
          </gpxtpx:TrackPointExtension>
        </extensions>
      </trkpt>
      <trkpt lat="48.70623" lon="1.7805">
        <ele>169.4</ele>
        <time>2026-01-31T13:49:59Z</time>
        <extensions>
          <gpxtpx:TrackPointExtension xmlns:gpxtpx="http://www.garmin.com/xmlschemas/TrackPointExtension/v1">
            <gpxtpx:hr>114</gpxtpx:hr>
          </gpxtpx:TrackPointExtension>
        </extensions>
      </trkpt>
      <trkpt lat="48.70625" lon="1.78053">
        <ele>169.2</ele>
        <time>2026-01-31T13:50:01Z</time>
        <extensions>
          <gpxtpx:TrackPointExtension xmlns:gpxtpx="http://www.garmin.com/xmlschemas/TrackPointExtension/v1">
            <gpxtpx:hr>114</gpxtpx:hr>
          </gpxtpx:TrackPointExtension>
        </extensions>
      </trkpt>
      <trkpt lat="48.70626" lon="1.78056">
        <ele>169.2</ele>
        <time>2026-01-31T13:50:03Z</time>
        <extensions>
          <gpxtpx:TrackPointExtension xmlns:gpxtpx="http://www.garmin.com/xmlschemas/TrackPointExtension/v1">
            <gpxtpx:hr>114</gpxtpx:hr>
          </gpxtpx:TrackPointExtension>
        </extensions>
      </trkpt>
      <trkpt lat="48.70627" lon="1.7806">
        <ele>169.2</ele>
        <time>2026-01-31T13:50:05Z</time>
        <extensions>
          <gpxtpx:TrackPointExtension xmlns:gpxtpx="http://www.garmin.com/xmlschemas/TrackPointExtension/v1">
            <gpxtpx:hr>114</gpxtpx:hr>
          </gpxtpx:TrackPointExtension>
        </extensions>
      </trkpt>
      <trkpt lat="48.70628" lon="1.78063">
        <ele>169</ele>
        <time>2026-01-31T13:50:07Z</time>
        <extensions>
          <gpxtpx:TrackPointExtension xmlns:gpxtpx="http://www.garmin.com/xmlschemas/TrackPointExtension/v1">
            <gpxtpx:hr>114</gpxtpx:hr>
          </gpxtpx:TrackPointExtension>
        </extensions>
      </trkpt>
      <trkpt lat="48.70629" lon="1.78067">
        <ele>169</ele>
        <time>2026-01-31T13:50:09Z</time>
        <extensions>
          <gpxtpx:TrackPointExtension xmlns:gpxtpx="http://www.garmin.com/xmlschemas/TrackPointExtension/v1">
            <gpxtpx:hr>114</gpxtpx:hr>
          </gpxtpx:TrackPointExtension>
        </extensions>
      </trkpt>
      <trkpt lat="48.7063" lon="1.78071">
        <ele>168.8</ele>
        <time>2026-01-31T13:50:11Z</time>
        <extensions>
          <gpxtpx:TrackPointExtension xmlns:gpxtpx="http://www.garmin.com/xmlschemas/TrackPointExtension/v1">
            <gpxtpx:hr>114</gpxtpx:hr>
          </gpxtpx:TrackPointExtension>
        </extensions>
      </trkpt>
      <trkpt lat="48.70631" lon="1.78074">
        <ele>168.8</ele>
        <time>2026-01-31T13:50:13Z</time>
        <extensions>
          <gpxtpx:TrackPointExtension xmlns:gpxtpx="http://www.garmin.com/xmlschemas/TrackPointExtension/v1">
            <gpxtpx:hr>114</gpxtpx:hr>
          </gpxtpx:TrackPointExtension>
        </extensions>
      </trkpt>
      <trkpt lat="48.70632" lon="1.78078">
        <ele>168.6</ele>
        <time>2026-01-31T13:50:15Z</time>
        <extensions>
          <gpxtpx:TrackPointExtension xmlns:gpxtpx="http://www.garmin.com/xmlschemas/TrackPointExtension/v1">
            <gpxtpx:hr>114</gpxtpx:hr>
          </gpxtpx:TrackPointExtension>
        </extensions>
      </trkpt>
      <trkpt lat="48.70633" lon="1.78082">
        <ele>168.6</ele>
        <time>2026-01-31T13:50:17Z</time>
        <extensions>
          <gpxtpx:TrackPointExtension xmlns:gpxtpx="http://www.garmin.com/xmlschemas/TrackPointExtension/v1">
            <gpxtpx:hr>114</gpxtpx:hr>
          </gpxtpx:TrackPointExtension>
        </extensions>
      </trkpt>
      <trkpt lat="48.70635" lon="1.78085">
        <ele>168.6</ele>
        <time>2026-01-31T13:50:19Z</time>
        <extensions>
          <gpxtpx:TrackPointExtension xmlns:gpxtpx="http://www.garmin.com/xmlschemas/TrackPointExtension/v1">
            <gpxtpx:hr>114</gpxtpx:hr>
          </gpxtpx:TrackPointExtension>
        </extensions>
      </trkpt>
      <trkpt lat="48.70636" lon="1.78089">
        <ele>168.6</ele>
        <time>2026-01-31T13:50:21Z</time>
        <extensions>
          <gpxtpx:TrackPointExtension xmlns:gpxtpx="http://www.garmin.com/xmlschemas/TrackPointExtension/v1">
            <gpxtpx:hr>114</gpxtpx:hr>
          </gpxtpx:TrackPointExtension>
        </extensions>
      </trkpt>
      <trkpt lat="48.70637" lon="1.78093">
        <ele>168.4</ele>
        <time>2026-01-31T13:50:23Z</time>
        <extensions>
          <gpxtpx:TrackPointExtension xmlns:gpxtpx="http://www.garmin.com/xmlschemas/TrackPointExtension/v1">
            <gpxtpx:hr>114</gpxtpx:hr>
          </gpxtpx:TrackPointExtension>
        </extensions>
      </trkpt>
      <trkpt lat="48.70638" lon="1.78096">
        <ele>168.4</ele>
        <time>2026-01-31T13:50:25Z</time>
        <extensions>
          <gpxtpx:TrackPointExtension xmlns:gpxtpx="http://www.garmin.com/xmlschemas/TrackPointExtension/v1">
            <gpxtpx:hr>114</gpxtpx:hr>
          </gpxtpx:TrackPointExtension>
        </extensions>
      </trkpt>
      <trkpt lat="48.70639" lon="1.781">
        <ele>168.2</ele>
        <time>2026-01-31T13:50:27Z</time>
        <extensions>
          <gpxtpx:TrackPointExtension xmlns:gpxtpx="http://www.garmin.com/xmlschemas/TrackPointExtension/v1">
            <gpxtpx:hr>114</gpxtpx:hr>
          </gpxtpx:TrackPointExtension>
        </extensions>
      </trkpt>
      <trkpt lat="48.7064" lon="1.78105">
        <ele>168</ele>
        <time>2026-01-31T13:50:29Z</time>
        <extensions>
          <gpxtpx:TrackPointExtension xmlns:gpxtpx="http://www.garmin.com/xmlschemas/TrackPointExtension/v1">
            <gpxtpx:hr>114</gpxtpx:hr>
          </gpxtpx:TrackPointExtension>
        </extensions>
      </trkpt>
      <trkpt lat="48.70642" lon="1.78109">
        <ele>168</ele>
        <time>2026-01-31T13:50:31Z</time>
        <extensions>
          <gpxtpx:TrackPointExtension xmlns:gpxtpx="http://www.garmin.com/xmlschemas/TrackPointExtension/v1">
            <gpxtpx:hr>114</gpxtpx:hr>
          </gpxtpx:TrackPointExtension>
        </extensions>
      </trkpt>
      <trkpt lat="48.70644" lon="1.78112">
        <ele>168.2</ele>
        <time>2026-01-31T13:50:33Z</time>
        <extensions>
          <gpxtpx:TrackPointExtension xmlns:gpxtpx="http://www.garmin.com/xmlschemas/TrackPointExtension/v1">
            <gpxtpx:hr>114</gpxtpx:hr>
          </gpxtpx:TrackPointExtension>
        </extensions>
      </trkpt>
      <trkpt lat="48.70645" lon="1.78115">
        <ele>168.2</ele>
        <time>2026-01-31T13:50:35Z</time>
        <extensions>
          <gpxtpx:TrackPointExtension xmlns:gpxtpx="http://www.garmin.com/xmlschemas/TrackPointExtension/v1">
            <gpxtpx:hr>114</gpxtpx:hr>
          </gpxtpx:TrackPointExtension>
        </extensions>
      </trkpt>
      <trkpt lat="48.70647" lon="1.78118">
        <ele>168</ele>
        <time>2026-01-31T13:50:37Z</time>
        <extensions>
          <gpxtpx:TrackPointExtension xmlns:gpxtpx="http://www.garmin.com/xmlschemas/TrackPointExtension/v1">
            <gpxtpx:hr>114</gpxtpx:hr>
          </gpxtpx:TrackPointExtension>
        </extensions>
      </trkpt>
      <trkpt lat="48.70648" lon="1.78121">
        <ele>167.8</ele>
        <time>2026-01-31T13:50:39Z</time>
        <extensions>
          <gpxtpx:TrackPointExtension xmlns:gpxtpx="http://www.garmin.com/xmlschemas/TrackPointExtension/v1">
            <gpxtpx:hr>114</gpxtpx:hr>
          </gpxtpx:TrackPointExtension>
        </extensions>
      </trkpt>
      <trkpt lat="48.70649" lon="1.78125">
        <ele>167.6</ele>
        <time>2026-01-31T13:50:41Z</time>
        <extensions>
          <gpxtpx:TrackPointExtension xmlns:gpxtpx="http://www.garmin.com/xmlschemas/TrackPointExtension/v1">
            <gpxtpx:hr>114</gpxtpx:hr>
          </gpxtpx:TrackPointExtension>
        </extensions>
      </trkpt>
      <trkpt lat="48.70651" lon="1.78128">
        <ele>167.4</ele>
        <time>2026-01-31T13:50:43Z</time>
        <extensions>
          <gpxtpx:TrackPointExtension xmlns:gpxtpx="http://www.garmin.com/xmlschemas/TrackPointExtension/v1">
            <gpxtpx:hr>114</gpxtpx:hr>
          </gpxtpx:TrackPointExtension>
        </extensions>
      </trkpt>
      <trkpt lat="48.70652" lon="1.78131">
        <ele>167.4</ele>
        <time>2026-01-31T13:50:45Z</time>
        <extensions>
          <gpxtpx:TrackPointExtension xmlns:gpxtpx="http://www.garmin.com/xmlschemas/TrackPointExtension/v1">
            <gpxtpx:hr>114</gpxtpx:hr>
          </gpxtpx:TrackPointExtension>
        </extensions>
      </trkpt>
      <trkpt lat="48.70653" lon="1.78134">
        <ele>167.2</ele>
        <time>2026-01-31T13:50:47Z</time>
        <extensions>
          <gpxtpx:TrackPointExtension xmlns:gpxtpx="http://www.garmin.com/xmlschemas/TrackPointExtension/v1">
            <gpxtpx:hr>114</gpxtpx:hr>
          </gpxtpx:TrackPointExtension>
        </extensions>
      </trkpt>
      <trkpt lat="48.70654" lon="1.78138">
        <ele>167.2</ele>
        <time>2026-01-31T13:50:49Z</time>
        <extensions>
          <gpxtpx:TrackPointExtension xmlns:gpxtpx="http://www.garmin.com/xmlschemas/TrackPointExtension/v1">
            <gpxtpx:hr>114</gpxtpx:hr>
          </gpxtpx:TrackPointExtension>
        </extensions>
      </trkpt>
      <trkpt lat="48.70655" lon="1.78142">
        <ele>167.2</ele>
        <time>2026-01-31T13:50:51Z</time>
        <extensions>
          <gpxtpx:TrackPointExtension xmlns:gpxtpx="http://www.garmin.com/xmlschemas/TrackPointExtension/v1">
            <gpxtpx:hr>114</gpxtpx:hr>
          </gpxtpx:TrackPointExtension>
        </extensions>
      </trkpt>
      <trkpt lat="48.70655" lon="1.78145">
        <ele>167.2</ele>
        <time>2026-01-31T13:50:53Z</time>
        <extensions>
          <gpxtpx:TrackPointExtension xmlns:gpxtpx="http://www.garmin.com/xmlschemas/TrackPointExtension/v1">
            <gpxtpx:hr>114</gpxtpx:hr>
          </gpxtpx:TrackPointExtension>
        </extensions>
      </trkpt>
      <trkpt lat="48.70656" lon="1.78149">
        <ele>167.2</ele>
        <time>2026-01-31T13:50:55Z</time>
        <extensions>
          <gpxtpx:TrackPointExtension xmlns:gpxtpx="http://www.garmin.com/xmlschemas/TrackPointExtension/v1">
            <gpxtpx:hr>114</gpxtpx:hr>
          </gpxtpx:TrackPointExtension>
        </extensions>
      </trkpt>
      <trkpt lat="48.70657" lon="1.78152">
        <ele>167.4</ele>
        <time>2026-01-31T13:50:57Z</time>
        <extensions>
          <gpxtpx:TrackPointExtension xmlns:gpxtpx="http://www.garmin.com/xmlschemas/TrackPointExtension/v1">
            <gpxtpx:hr>114</gpxtpx:hr>
          </gpxtpx:TrackPointExtension>
        </extensions>
      </trkpt>
      <trkpt lat="48.70659" lon="1.78156">
        <ele>167.4</ele>
        <time>2026-01-31T13:50:59Z</time>
        <extensions>
          <gpxtpx:TrackPointExtension xmlns:gpxtpx="http://www.garmin.com/xmlschemas/TrackPointExtension/v1">
            <gpxtpx:hr>114</gpxtpx:hr>
          </gpxtpx:TrackPointExtension>
        </extensions>
      </trkpt>
      <trkpt lat="48.7066" lon="1.7816">
        <ele>167.4</ele>
        <time>2026-01-31T13:51:01Z</time>
        <extensions>
          <gpxtpx:TrackPointExtension xmlns:gpxtpx="http://www.garmin.com/xmlschemas/TrackPointExtension/v1">
            <gpxtpx:hr>114</gpxtpx:hr>
          </gpxtpx:TrackPointExtension>
        </extensions>
      </trkpt>
      <trkpt lat="48.7066" lon="1.78164">
        <ele>167.4</ele>
        <time>2026-01-31T13:51:03Z</time>
        <extensions>
          <gpxtpx:TrackPointExtension xmlns:gpxtpx="http://www.garmin.com/xmlschemas/TrackPointExtension/v1">
            <gpxtpx:hr>114</gpxtpx:hr>
          </gpxtpx:TrackPointExtension>
        </extensions>
      </trkpt>
      <trkpt lat="48.70661" lon="1.78169">
        <ele>167.4</ele>
        <time>2026-01-31T13:51:05Z</time>
        <extensions>
          <gpxtpx:TrackPointExtension xmlns:gpxtpx="http://www.garmin.com/xmlschemas/TrackPointExtension/v1">
            <gpxtpx:hr>113</gpxtpx:hr>
          </gpxtpx:TrackPointExtension>
        </extensions>
      </trkpt>
      <trkpt lat="48.70662" lon="1.78173">
        <ele>167.2</ele>
        <time>2026-01-31T13:51:07Z</time>
        <extensions>
          <gpxtpx:TrackPointExtension xmlns:gpxtpx="http://www.garmin.com/xmlschemas/TrackPointExtension/v1">
            <gpxtpx:hr>111</gpxtpx:hr>
          </gpxtpx:TrackPointExtension>
        </extensions>
      </trkpt>
      <trkpt lat="48.70663" lon="1.78177">
        <ele>167.2</ele>
        <time>2026-01-31T13:51:09Z</time>
        <extensions>
          <gpxtpx:TrackPointExtension xmlns:gpxtpx="http://www.garmin.com/xmlschemas/TrackPointExtension/v1">
            <gpxtpx:hr>109</gpxtpx:hr>
          </gpxtpx:TrackPointExtension>
        </extensions>
      </trkpt>
      <trkpt lat="48.70664" lon="1.78181">
        <ele>167.4</ele>
        <time>2026-01-31T13:51:11Z</time>
        <extensions>
          <gpxtpx:TrackPointExtension xmlns:gpxtpx="http://www.garmin.com/xmlschemas/TrackPointExtension/v1">
            <gpxtpx:hr>109</gpxtpx:hr>
          </gpxtpx:TrackPointExtension>
        </extensions>
      </trkpt>
      <trkpt lat="48.70665" lon="1.78184">
        <ele>167.4</ele>
        <time>2026-01-31T13:51:13Z</time>
        <extensions>
          <gpxtpx:TrackPointExtension xmlns:gpxtpx="http://www.garmin.com/xmlschemas/TrackPointExtension/v1">
            <gpxtpx:hr>109</gpxtpx:hr>
          </gpxtpx:TrackPointExtension>
        </extensions>
      </trkpt>
      <trkpt lat="48.70667" lon="1.78188">
        <ele>167.6</ele>
        <time>2026-01-31T13:51:15Z</time>
        <extensions>
          <gpxtpx:TrackPointExtension xmlns:gpxtpx="http://www.garmin.com/xmlschemas/TrackPointExtension/v1">
            <gpxtpx:hr>109</gpxtpx:hr>
          </gpxtpx:TrackPointExtension>
        </extensions>
      </trkpt>
      <trkpt lat="48.70668" lon="1.78191">
        <ele>167.6</ele>
        <time>2026-01-31T13:51:17Z</time>
        <extensions>
          <gpxtpx:TrackPointExtension xmlns:gpxtpx="http://www.garmin.com/xmlschemas/TrackPointExtension/v1">
            <gpxtpx:hr>108</gpxtpx:hr>
          </gpxtpx:TrackPointExtension>
        </extensions>
      </trkpt>
      <trkpt lat="48.70669" lon="1.78195">
        <ele>167.6</ele>
        <time>2026-01-31T13:51:19Z</time>
        <extensions>
          <gpxtpx:TrackPointExtension xmlns:gpxtpx="http://www.garmin.com/xmlschemas/TrackPointExtension/v1">
            <gpxtpx:hr>107</gpxtpx:hr>
          </gpxtpx:TrackPointExtension>
        </extensions>
      </trkpt>
      <trkpt lat="48.70669" lon="1.78198">
        <ele>167.6</ele>
        <time>2026-01-31T13:51:21Z</time>
        <extensions>
          <gpxtpx:TrackPointExtension xmlns:gpxtpx="http://www.garmin.com/xmlschemas/TrackPointExtension/v1">
            <gpxtpx:hr>107</gpxtpx:hr>
          </gpxtpx:TrackPointExtension>
        </extensions>
      </trkpt>
      <trkpt lat="48.7067" lon="1.78202">
        <ele>167.4</ele>
        <time>2026-01-31T13:51:23Z</time>
        <extensions>
          <gpxtpx:TrackPointExtension xmlns:gpxtpx="http://www.garmin.com/xmlschemas/TrackPointExtension/v1">
            <gpxtpx:hr>107</gpxtpx:hr>
          </gpxtpx:TrackPointExtension>
        </extensions>
      </trkpt>
      <trkpt lat="48.70671" lon="1.78206">
        <ele>167.4</ele>
        <time>2026-01-31T13:51:25Z</time>
        <extensions>
          <gpxtpx:TrackPointExtension xmlns:gpxtpx="http://www.garmin.com/xmlschemas/TrackPointExtension/v1">
            <gpxtpx:hr>107</gpxtpx:hr>
          </gpxtpx:TrackPointExtension>
        </extensions>
      </trkpt>
      <trkpt lat="48.70672" lon="1.7821">
        <ele>167.4</ele>
        <time>2026-01-31T13:51:27Z</time>
        <extensions>
          <gpxtpx:TrackPointExtension xmlns:gpxtpx="http://www.garmin.com/xmlschemas/TrackPointExtension/v1">
            <gpxtpx:hr>107</gpxtpx:hr>
          </gpxtpx:TrackPointExtension>
        </extensions>
      </trkpt>
      <trkpt lat="48.70674" lon="1.78213">
        <ele>167.4</ele>
        <time>2026-01-31T13:51:29Z</time>
        <extensions>
          <gpxtpx:TrackPointExtension xmlns:gpxtpx="http://www.garmin.com/xmlschemas/TrackPointExtension/v1">
            <gpxtpx:hr>107</gpxtpx:hr>
          </gpxtpx:TrackPointExtension>
        </extensions>
      </trkpt>
      <trkpt lat="48.70675" lon="1.78217">
        <ele>167.6</ele>
        <time>2026-01-31T13:51:31Z</time>
        <extensions>
          <gpxtpx:TrackPointExtension xmlns:gpxtpx="http://www.garmin.com/xmlschemas/TrackPointExtension/v1">
            <gpxtpx:hr>107</gpxtpx:hr>
          </gpxtpx:TrackPointExtension>
        </extensions>
      </trkpt>
      <trkpt lat="48.70677" lon="1.78221">
        <ele>167.6</ele>
        <time>2026-01-31T13:51:33Z</time>
        <extensions>
          <gpxtpx:TrackPointExtension xmlns:gpxtpx="http://www.garmin.com/xmlschemas/TrackPointExtension/v1">
            <gpxtpx:hr>107</gpxtpx:hr>
          </gpxtpx:TrackPointExtension>
        </extensions>
      </trkpt>
      <trkpt lat="48.70679" lon="1.78224">
        <ele>167.6</ele>
        <time>2026-01-31T13:51:35Z</time>
        <extensions>
          <gpxtpx:TrackPointExtension xmlns:gpxtpx="http://www.garmin.com/xmlschemas/TrackPointExtension/v1">
            <gpxtpx:hr>107</gpxtpx:hr>
          </gpxtpx:TrackPointExtension>
        </extensions>
      </trkpt>
      <trkpt lat="48.70681" lon="1.78227">
        <ele>167.6</ele>
        <time>2026-01-31T13:51:37Z</time>
        <extensions>
          <gpxtpx:TrackPointExtension xmlns:gpxtpx="http://www.garmin.com/xmlschemas/TrackPointExtension/v1">
            <gpxtpx:hr>107</gpxtpx:hr>
          </gpxtpx:TrackPointExtension>
        </extensions>
      </trkpt>
      <trkpt lat="48.70682" lon="1.7823">
        <ele>167.4</ele>
        <time>2026-01-31T13:51:39Z</time>
      </trkpt>
      <trkpt lat="48.70683" lon="1.78234">
        <ele>167.4</ele>
        <time>2026-01-31T13:51:41Z</time>
        <extensions>
          <gpxtpx:TrackPointExtension xmlns:gpxtpx="http://www.garmin.com/xmlschemas/TrackPointExtension/v1">
            <gpxtpx:hr>107</gpxtpx:hr>
          </gpxtpx:TrackPointExtension>
        </extensions>
      </trkpt>
      <trkpt lat="48.70685" lon="1.78237">
        <ele>167.4</ele>
        <time>2026-01-31T13:51:43Z</time>
        <extensions>
          <gpxtpx:TrackPointExtension xmlns:gpxtpx="http://www.garmin.com/xmlschemas/TrackPointExtension/v1">
            <gpxtpx:hr>107</gpxtpx:hr>
          </gpxtpx:TrackPointExtension>
        </extensions>
      </trkpt>
      <trkpt lat="48.70686" lon="1.7824">
        <ele>167.2</ele>
        <time>2026-01-31T13:51:45Z</time>
        <extensions>
          <gpxtpx:TrackPointExtension xmlns:gpxtpx="http://www.garmin.com/xmlschemas/TrackPointExtension/v1">
            <gpxtpx:hr>107</gpxtpx:hr>
          </gpxtpx:TrackPointExtension>
        </extensions>
      </trkpt>
      <trkpt lat="48.70687" lon="1.78243">
        <ele>167.2</ele>
        <time>2026-01-31T13:51:47Z</time>
        <extensions>
          <gpxtpx:TrackPointExtension xmlns:gpxtpx="http://www.garmin.com/xmlschemas/TrackPointExtension/v1">
            <gpxtpx:hr>107</gpxtpx:hr>
          </gpxtpx:TrackPointExtension>
        </extensions>
      </trkpt>
      <trkpt lat="48.70688" lon="1.78247">
        <ele>167.2</ele>
        <time>2026-01-31T13:51:49Z</time>
        <extensions>
          <gpxtpx:TrackPointExtension xmlns:gpxtpx="http://www.garmin.com/xmlschemas/TrackPointExtension/v1">
            <gpxtpx:hr>107</gpxtpx:hr>
          </gpxtpx:TrackPointExtension>
        </extensions>
      </trkpt>
      <trkpt lat="48.70689" lon="1.7825">
        <ele>167</ele>
        <time>2026-01-31T13:51:51Z</time>
        <extensions>
          <gpxtpx:TrackPointExtension xmlns:gpxtpx="http://www.garmin.com/xmlschemas/TrackPointExtension/v1">
            <gpxtpx:hr>107</gpxtpx:hr>
          </gpxtpx:TrackPointExtension>
        </extensions>
      </trkpt>
      <trkpt lat="48.7069" lon="1.78254">
        <ele>167</ele>
        <time>2026-01-31T13:51:53Z</time>
        <extensions>
          <gpxtpx:TrackPointExtension xmlns:gpxtpx="http://www.garmin.com/xmlschemas/TrackPointExtension/v1">
            <gpxtpx:hr>107</gpxtpx:hr>
          </gpxtpx:TrackPointExtension>
        </extensions>
      </trkpt>
      <trkpt lat="48.70691" lon="1.78257">
        <ele>166.8</ele>
        <time>2026-01-31T13:51:55Z</time>
        <extensions>
          <gpxtpx:TrackPointExtension xmlns:gpxtpx="http://www.garmin.com/xmlschemas/TrackPointExtension/v1">
            <gpxtpx:hr>107</gpxtpx:hr>
          </gpxtpx:TrackPointExtension>
        </extensions>
      </trkpt>
      <trkpt lat="48.70692" lon="1.7826">
        <ele>166.8</ele>
        <time>2026-01-31T13:51:57Z</time>
        <extensions>
          <gpxtpx:TrackPointExtension xmlns:gpxtpx="http://www.garmin.com/xmlschemas/TrackPointExtension/v1">
            <gpxtpx:hr>107</gpxtpx:hr>
          </gpxtpx:TrackPointExtension>
        </extensions>
      </trkpt>
      <trkpt lat="48.70693" lon="1.78265">
        <ele>166.6</ele>
        <time>2026-01-31T13:51:59Z</time>
        <extensions>
          <gpxtpx:TrackPointExtension xmlns:gpxtpx="http://www.garmin.com/xmlschemas/TrackPointExtension/v1">
            <gpxtpx:hr>107</gpxtpx:hr>
          </gpxtpx:TrackPointExtension>
        </extensions>
      </trkpt>
      <trkpt lat="48.70693" lon="1.78269">
        <ele>166.4</ele>
        <time>2026-01-31T13:52:01Z</time>
        <extensions>
          <gpxtpx:TrackPointExtension xmlns:gpxtpx="http://www.garmin.com/xmlschemas/TrackPointExtension/v1">
            <gpxtpx:hr>107</gpxtpx:hr>
          </gpxtpx:TrackPointExtension>
        </extensions>
      </trkpt>
      <trkpt lat="48.70695" lon="1.78273">
        <ele>166.4</ele>
        <time>2026-01-31T13:52:03Z</time>
        <extensions>
          <gpxtpx:TrackPointExtension xmlns:gpxtpx="http://www.garmin.com/xmlschemas/TrackPointExtension/v1">
            <gpxtpx:hr>107</gpxtpx:hr>
          </gpxtpx:TrackPointExtension>
        </extensions>
      </trkpt>
      <trkpt lat="48.70697" lon="1.78277">
        <ele>166.4</ele>
        <time>2026-01-31T13:52:05Z</time>
        <extensions>
          <gpxtpx:TrackPointExtension xmlns:gpxtpx="http://www.garmin.com/xmlschemas/TrackPointExtension/v1">
            <gpxtpx:hr>107</gpxtpx:hr>
          </gpxtpx:TrackPointExtension>
        </extensions>
      </trkpt>
      <trkpt lat="48.70699" lon="1.78279">
        <ele>166.4</ele>
        <time>2026-01-31T13:52:07Z</time>
        <extensions>
          <gpxtpx:TrackPointExtension xmlns:gpxtpx="http://www.garmin.com/xmlschemas/TrackPointExtension/v1">
            <gpxtpx:hr>107</gpxtpx:hr>
          </gpxtpx:TrackPointExtension>
        </extensions>
      </trkpt>
      <trkpt lat="48.70701" lon="1.78282">
        <ele>166.6</ele>
        <time>2026-01-31T13:52:09Z</time>
        <extensions>
          <gpxtpx:TrackPointExtension xmlns:gpxtpx="http://www.garmin.com/xmlschemas/TrackPointExtension/v1">
            <gpxtpx:hr>107</gpxtpx:hr>
          </gpxtpx:TrackPointExtension>
        </extensions>
      </trkpt>
      <trkpt lat="48.70702" lon="1.78286">
        <ele>166.8</ele>
        <time>2026-01-31T13:52:11Z</time>
        <extensions>
          <gpxtpx:TrackPointExtension xmlns:gpxtpx="http://www.garmin.com/xmlschemas/TrackPointExtension/v1">
            <gpxtpx:hr>107</gpxtpx:hr>
          </gpxtpx:TrackPointExtension>
        </extensions>
      </trkpt>
      <trkpt lat="48.70703" lon="1.78289">
        <ele>166.8</ele>
        <time>2026-01-31T13:52:13Z</time>
        <extensions>
          <gpxtpx:TrackPointExtension xmlns:gpxtpx="http://www.garmin.com/xmlschemas/TrackPointExtension/v1">
            <gpxtpx:hr>108</gpxtpx:hr>
          </gpxtpx:TrackPointExtension>
        </extensions>
      </trkpt>
      <trkpt lat="48.70705" lon="1.78292">
        <ele>166.8</ele>
        <time>2026-01-31T13:52:15Z</time>
        <extensions>
          <gpxtpx:TrackPointExtension xmlns:gpxtpx="http://www.garmin.com/xmlschemas/TrackPointExtension/v1">
            <gpxtpx:hr>108</gpxtpx:hr>
          </gpxtpx:TrackPointExtension>
        </extensions>
      </trkpt>
      <trkpt lat="48.70706" lon="1.78295">
        <ele>166.8</ele>
        <time>2026-01-31T13:52:17Z</time>
        <extensions>
          <gpxtpx:TrackPointExtension xmlns:gpxtpx="http://www.garmin.com/xmlschemas/TrackPointExtension/v1">
            <gpxtpx:hr>108</gpxtpx:hr>
          </gpxtpx:TrackPointExtension>
        </extensions>
      </trkpt>
      <trkpt lat="48.70707" lon="1.78299">
        <ele>166.8</ele>
        <time>2026-01-31T13:52:19Z</time>
        <extensions>
          <gpxtpx:TrackPointExtension xmlns:gpxtpx="http://www.garmin.com/xmlschemas/TrackPointExtension/v1">
            <gpxtpx:hr>108</gpxtpx:hr>
          </gpxtpx:TrackPointExtension>
        </extensions>
      </trkpt>
      <trkpt lat="48.70707" lon="1.78302">
        <ele>166.8</ele>
        <time>2026-01-31T13:52:21Z</time>
        <extensions>
          <gpxtpx:TrackPointExtension xmlns:gpxtpx="http://www.garmin.com/xmlschemas/TrackPointExtension/v1">
            <gpxtpx:hr>108</gpxtpx:hr>
          </gpxtpx:TrackPointExtension>
        </extensions>
      </trkpt>
      <trkpt lat="48.70707" lon="1.78306">
        <ele>166.8</ele>
        <time>2026-01-31T13:52:23Z</time>
        <extensions>
          <gpxtpx:TrackPointExtension xmlns:gpxtpx="http://www.garmin.com/xmlschemas/TrackPointExtension/v1">
            <gpxtpx:hr>108</gpxtpx:hr>
          </gpxtpx:TrackPointExtension>
        </extensions>
      </trkpt>
      <trkpt lat="48.70708" lon="1.78309">
        <ele>166.8</ele>
        <time>2026-01-31T13:52:26Z</time>
        <extensions>
          <gpxtpx:TrackPointExtension xmlns:gpxtpx="http://www.garmin.com/xmlschemas/TrackPointExtension/v1">
            <gpxtpx:hr>107</gpxtpx:hr>
          </gpxtpx:TrackPointExtension>
        </extensions>
      </trkpt>
      <trkpt lat="48.70709" lon="1.78312">
        <ele>166.8</ele>
        <time>2026-01-31T13:52:28Z</time>
        <extensions>
          <gpxtpx:TrackPointExtension xmlns:gpxtpx="http://www.garmin.com/xmlschemas/TrackPointExtension/v1">
            <gpxtpx:hr>107</gpxtpx:hr>
          </gpxtpx:TrackPointExtension>
        </extensions>
      </trkpt>
      <trkpt lat="48.7071" lon="1.78316">
        <ele>167</ele>
        <time>2026-01-31T13:52:30Z</time>
        <extensions>
          <gpxtpx:TrackPointExtension xmlns:gpxtpx="http://www.garmin.com/xmlschemas/TrackPointExtension/v1">
            <gpxtpx:hr>107</gpxtpx:hr>
          </gpxtpx:TrackPointExtension>
        </extensions>
      </trkpt>
      <trkpt lat="48.70711" lon="1.7832">
        <ele>167.2</ele>
        <time>2026-01-31T13:52:32Z</time>
        <extensions>
          <gpxtpx:TrackPointExtension xmlns:gpxtpx="http://www.garmin.com/xmlschemas/TrackPointExtension/v1">
            <gpxtpx:hr>107</gpxtpx:hr>
          </gpxtpx:TrackPointExtension>
        </extensions>
      </trkpt>
      <trkpt lat="48.70712" lon="1.78323">
        <ele>167.4</ele>
        <time>2026-01-31T13:52:34Z</time>
        <extensions>
          <gpxtpx:TrackPointExtension xmlns:gpxtpx="http://www.garmin.com/xmlschemas/TrackPointExtension/v1">
            <gpxtpx:hr>107</gpxtpx:hr>
          </gpxtpx:TrackPointExtension>
        </extensions>
      </trkpt>
      <trkpt lat="48.70713" lon="1.78327">
        <ele>167.6</ele>
        <time>2026-01-31T13:52:36Z</time>
        <extensions>
          <gpxtpx:TrackPointExtension xmlns:gpxtpx="http://www.garmin.com/xmlschemas/TrackPointExtension/v1">
            <gpxtpx:hr>107</gpxtpx:hr>
          </gpxtpx:TrackPointExtension>
        </extensions>
      </trkpt>
      <trkpt lat="48.70714" lon="1.7833">
        <ele>168</ele>
        <time>2026-01-31T13:52:38Z</time>
        <extensions>
          <gpxtpx:TrackPointExtension xmlns:gpxtpx="http://www.garmin.com/xmlschemas/TrackPointExtension/v1">
            <gpxtpx:hr>107</gpxtpx:hr>
          </gpxtpx:TrackPointExtension>
        </extensions>
      </trkpt>
      <trkpt lat="48.70715" lon="1.78333">
        <ele>168.2</ele>
        <time>2026-01-31T13:52:40Z</time>
        <extensions>
          <gpxtpx:TrackPointExtension xmlns:gpxtpx="http://www.garmin.com/xmlschemas/TrackPointExtension/v1">
            <gpxtpx:hr>107</gpxtpx:hr>
          </gpxtpx:TrackPointExtension>
        </extensions>
      </trkpt>
      <trkpt lat="48.70716" lon="1.78336">
        <ele>168.6</ele>
        <time>2026-01-31T13:52:42Z</time>
        <extensions>
          <gpxtpx:TrackPointExtension xmlns:gpxtpx="http://www.garmin.com/xmlschemas/TrackPointExtension/v1">
            <gpxtpx:hr>107</gpxtpx:hr>
          </gpxtpx:TrackPointExtension>
        </extensions>
      </trkpt>
      <trkpt lat="48.70716" lon="1.78339">
        <ele>169</ele>
        <time>2026-01-31T13:52:44Z</time>
        <extensions>
          <gpxtpx:TrackPointExtension xmlns:gpxtpx="http://www.garmin.com/xmlschemas/TrackPointExtension/v1">
            <gpxtpx:hr>107</gpxtpx:hr>
          </gpxtpx:TrackPointExtension>
        </extensions>
      </trkpt>
      <trkpt lat="48.70718" lon="1.78343">
        <ele>169.6</ele>
        <time>2026-01-31T13:52:48Z</time>
        <extensions>
          <gpxtpx:TrackPointExtension xmlns:gpxtpx="http://www.garmin.com/xmlschemas/TrackPointExtension/v1">
            <gpxtpx:hr>108</gpxtpx:hr>
          </gpxtpx:TrackPointExtension>
        </extensions>
      </trkpt>
      <trkpt lat="48.7072" lon="1.78344">
        <ele>170.2</ele>
        <time>2026-01-31T13:52:53Z</time>
        <extensions>
          <gpxtpx:TrackPointExtension xmlns:gpxtpx="http://www.garmin.com/xmlschemas/TrackPointExtension/v1">
            <gpxtpx:hr>107</gpxtpx:hr>
          </gpxtpx:TrackPointExtension>
        </extensions>
      </trkpt>
      <trkpt lat="48.70721" lon="1.78346">
        <ele>169.6</ele>
        <time>2026-01-31T13:53:33Z</time>
        <extensions>
          <gpxtpx:TrackPointExtension xmlns:gpxtpx="http://www.garmin.com/xmlschemas/TrackPointExtension/v1">
            <gpxtpx:hr>99</gpxtpx:hr>
          </gpxtpx:TrackPointExtension>
        </extensions>
      </trkpt>
      <trkpt lat="48.70722" lon="1.7835">
        <ele>169.6</ele>
        <time>2026-01-31T13:53:35Z</time>
        <extensions>
          <gpxtpx:TrackPointExtension xmlns:gpxtpx="http://www.garmin.com/xmlschemas/TrackPointExtension/v1">
            <gpxtpx:hr>99</gpxtpx:hr>
          </gpxtpx:TrackPointExtension>
        </extensions>
      </trkpt>
      <trkpt lat="48.70724" lon="1.78355">
        <ele>169.6</ele>
        <time>2026-01-31T13:53:37Z</time>
        <extensions>
          <gpxtpx:TrackPointExtension xmlns:gpxtpx="http://www.garmin.com/xmlschemas/TrackPointExtension/v1">
            <gpxtpx:hr>99</gpxtpx:hr>
          </gpxtpx:TrackPointExtension>
        </extensions>
      </trkpt>
      <trkpt lat="48.70725" lon="1.78358">
        <ele>169.4</ele>
        <time>2026-01-31T13:53:38Z</time>
        <extensions>
          <gpxtpx:TrackPointExtension xmlns:gpxtpx="http://www.garmin.com/xmlschemas/TrackPointExtension/v1">
            <gpxtpx:hr>99</gpxtpx:hr>
          </gpxtpx:TrackPointExtension>
        </extensions>
      </trkpt>
      <trkpt lat="48.70726" lon="1.7836">
        <ele>169.4</ele>
        <time>2026-01-31T13:53:39Z</time>
        <extensions>
          <gpxtpx:TrackPointExtension xmlns:gpxtpx="http://www.garmin.com/xmlschemas/TrackPointExtension/v1">
            <gpxtpx:hr>99</gpxtpx:hr>
          </gpxtpx:TrackPointExtension>
        </extensions>
      </trkpt>
      <trkpt lat="48.70728" lon="1.78365">
        <ele>169.2</ele>
        <time>2026-01-31T13:53:41Z</time>
        <extensions>
          <gpxtpx:TrackPointExtension xmlns:gpxtpx="http://www.garmin.com/xmlschemas/TrackPointExtension/v1">
            <gpxtpx:hr>99</gpxtpx:hr>
          </gpxtpx:TrackPointExtension>
        </extensions>
      </trkpt>
      <trkpt lat="48.70729" lon="1.78368">
        <ele>169</ele>
        <time>2026-01-31T13:53:43Z</time>
        <extensions>
          <gpxtpx:TrackPointExtension xmlns:gpxtpx="http://www.garmin.com/xmlschemas/TrackPointExtension/v1">
            <gpxtpx:hr>99</gpxtpx:hr>
          </gpxtpx:TrackPointExtension>
        </extensions>
      </trkpt>
      <trkpt lat="48.7073" lon="1.78372">
        <ele>168.8</ele>
        <time>2026-01-31T13:53:45Z</time>
        <extensions>
          <gpxtpx:TrackPointExtension xmlns:gpxtpx="http://www.garmin.com/xmlschemas/TrackPointExtension/v1">
            <gpxtpx:hr>99</gpxtpx:hr>
          </gpxtpx:TrackPointExtension>
        </extensions>
      </trkpt>
      <trkpt lat="48.70731" lon="1.78375">
        <ele>168.6</ele>
        <time>2026-01-31T13:53:47Z</time>
        <extensions>
          <gpxtpx:TrackPointExtension xmlns:gpxtpx="http://www.garmin.com/xmlschemas/TrackPointExtension/v1">
            <gpxtpx:hr>99</gpxtpx:hr>
          </gpxtpx:TrackPointExtension>
        </extensions>
      </trkpt>
      <trkpt lat="48.70732" lon="1.78378">
        <ele>168.6</ele>
        <time>2026-01-31T13:53:49Z</time>
        <extensions>
          <gpxtpx:TrackPointExtension xmlns:gpxtpx="http://www.garmin.com/xmlschemas/TrackPointExtension/v1">
            <gpxtpx:hr>100</gpxtpx:hr>
          </gpxtpx:TrackPointExtension>
        </extensions>
      </trkpt>
      <trkpt lat="48.70734" lon="1.78381">
        <ele>168.6</ele>
        <time>2026-01-31T13:53:51Z</time>
        <extensions>
          <gpxtpx:TrackPointExtension xmlns:gpxtpx="http://www.garmin.com/xmlschemas/TrackPointExtension/v1">
            <gpxtpx:hr>100</gpxtpx:hr>
          </gpxtpx:TrackPointExtension>
        </extensions>
      </trkpt>
      <trkpt lat="48.70735" lon="1.78384">
        <ele>168.6</ele>
        <time>2026-01-31T13:53:53Z</time>
        <extensions>
          <gpxtpx:TrackPointExtension xmlns:gpxtpx="http://www.garmin.com/xmlschemas/TrackPointExtension/v1">
            <gpxtpx:hr>100</gpxtpx:hr>
          </gpxtpx:TrackPointExtension>
        </extensions>
      </trkpt>
      <trkpt lat="48.70736" lon="1.78388">
        <ele>168.6</ele>
        <time>2026-01-31T13:53:55Z</time>
        <extensions>
          <gpxtpx:TrackPointExtension xmlns:gpxtpx="http://www.garmin.com/xmlschemas/TrackPointExtension/v1">
            <gpxtpx:hr>100</gpxtpx:hr>
          </gpxtpx:TrackPointExtension>
        </extensions>
      </trkpt>
      <trkpt lat="48.70738" lon="1.78393">
        <ele>168.4</ele>
        <time>2026-01-31T13:53:57Z</time>
        <extensions>
          <gpxtpx:TrackPointExtension xmlns:gpxtpx="http://www.garmin.com/xmlschemas/TrackPointExtension/v1">
            <gpxtpx:hr>100</gpxtpx:hr>
          </gpxtpx:TrackPointExtension>
        </extensions>
      </trkpt>
      <trkpt lat="48.70739" lon="1.78396">
        <ele>168.4</ele>
        <time>2026-01-31T13:53:59Z</time>
        <extensions>
          <gpxtpx:TrackPointExtension xmlns:gpxtpx="http://www.garmin.com/xmlschemas/TrackPointExtension/v1">
            <gpxtpx:hr>100</gpxtpx:hr>
          </gpxtpx:TrackPointExtension>
        </extensions>
      </trkpt>
      <trkpt lat="48.70741" lon="1.784">
        <ele>168</ele>
        <time>2026-01-31T13:54:01Z</time>
        <extensions>
          <gpxtpx:TrackPointExtension xmlns:gpxtpx="http://www.garmin.com/xmlschemas/TrackPointExtension/v1">
            <gpxtpx:hr>100</gpxtpx:hr>
          </gpxtpx:TrackPointExtension>
        </extensions>
      </trkpt>
      <trkpt lat="48.70742" lon="1.78403">
        <ele>168</ele>
        <time>2026-01-31T13:54:03Z</time>
        <extensions>
          <gpxtpx:TrackPointExtension xmlns:gpxtpx="http://www.garmin.com/xmlschemas/TrackPointExtension/v1">
            <gpxtpx:hr>100</gpxtpx:hr>
          </gpxtpx:TrackPointExtension>
        </extensions>
      </trkpt>
      <trkpt lat="48.70744" lon="1.78407">
        <ele>168</ele>
        <time>2026-01-31T13:54:05Z</time>
        <extensions>
          <gpxtpx:TrackPointExtension xmlns:gpxtpx="http://www.garmin.com/xmlschemas/TrackPointExtension/v1">
            <gpxtpx:hr>101</gpxtpx:hr>
          </gpxtpx:TrackPointExtension>
        </extensions>
      </trkpt>
      <trkpt lat="48.70745" lon="1.7841">
        <ele>168</ele>
        <time>2026-01-31T13:54:07Z</time>
        <extensions>
          <gpxtpx:TrackPointExtension xmlns:gpxtpx="http://www.garmin.com/xmlschemas/TrackPointExtension/v1">
            <gpxtpx:hr>101</gpxtpx:hr>
          </gpxtpx:TrackPointExtension>
        </extensions>
      </trkpt>
      <trkpt lat="48.70747" lon="1.78413">
        <ele>168</ele>
        <time>2026-01-31T13:54:09Z</time>
        <extensions>
          <gpxtpx:TrackPointExtension xmlns:gpxtpx="http://www.garmin.com/xmlschemas/TrackPointExtension/v1">
            <gpxtpx:hr>101</gpxtpx:hr>
          </gpxtpx:TrackPointExtension>
        </extensions>
      </trkpt>
      <trkpt lat="48.70748" lon="1.78417">
        <ele>168.2</ele>
        <time>2026-01-31T13:54:11Z</time>
        <extensions>
          <gpxtpx:TrackPointExtension xmlns:gpxtpx="http://www.garmin.com/xmlschemas/TrackPointExtension/v1">
            <gpxtpx:hr>101</gpxtpx:hr>
          </gpxtpx:TrackPointExtension>
        </extensions>
      </trkpt>
      <trkpt lat="48.7075" lon="1.78421">
        <ele>168.4</ele>
        <time>2026-01-31T13:54:13Z</time>
        <extensions>
          <gpxtpx:TrackPointExtension xmlns:gpxtpx="http://www.garmin.com/xmlschemas/TrackPointExtension/v1">
            <gpxtpx:hr>101</gpxtpx:hr>
          </gpxtpx:TrackPointExtension>
        </extensions>
      </trkpt>
      <trkpt lat="48.70752" lon="1.78425">
        <ele>168.6</ele>
        <time>2026-01-31T13:54:15Z</time>
        <extensions>
          <gpxtpx:TrackPointExtension xmlns:gpxtpx="http://www.garmin.com/xmlschemas/TrackPointExtension/v1">
            <gpxtpx:hr>102</gpxtpx:hr>
          </gpxtpx:TrackPointExtension>
        </extensions>
      </trkpt>
      <trkpt lat="48.70753" lon="1.78429">
        <ele>168.6</ele>
        <time>2026-01-31T13:54:17Z</time>
        <extensions>
          <gpxtpx:TrackPointExtension xmlns:gpxtpx="http://www.garmin.com/xmlschemas/TrackPointExtension/v1">
            <gpxtpx:hr>102</gpxtpx:hr>
          </gpxtpx:TrackPointExtension>
        </extensions>
      </trkpt>
      <trkpt lat="48.70754" lon="1.78433">
        <ele>168.8</ele>
        <time>2026-01-31T13:54:19Z</time>
        <extensions>
          <gpxtpx:TrackPointExtension xmlns:gpxtpx="http://www.garmin.com/xmlschemas/TrackPointExtension/v1">
            <gpxtpx:hr>102</gpxtpx:hr>
          </gpxtpx:TrackPointExtension>
        </extensions>
      </trkpt>
      <trkpt lat="48.70755" lon="1.78437">
        <ele>168.8</ele>
        <time>2026-01-31T13:54:21Z</time>
        <extensions>
          <gpxtpx:TrackPointExtension xmlns:gpxtpx="http://www.garmin.com/xmlschemas/TrackPointExtension/v1">
            <gpxtpx:hr>103</gpxtpx:hr>
          </gpxtpx:TrackPointExtension>
        </extensions>
      </trkpt>
      <trkpt lat="48.70756" lon="1.78441">
        <ele>168.8</ele>
        <time>2026-01-31T13:54:23Z</time>
        <extensions>
          <gpxtpx:TrackPointExtension xmlns:gpxtpx="http://www.garmin.com/xmlschemas/TrackPointExtension/v1">
            <gpxtpx:hr>103</gpxtpx:hr>
          </gpxtpx:TrackPointExtension>
        </extensions>
      </trkpt>
      <trkpt lat="48.70757" lon="1.78445">
        <ele>168.8</ele>
        <time>2026-01-31T13:54:25Z</time>
        <extensions>
          <gpxtpx:TrackPointExtension xmlns:gpxtpx="http://www.garmin.com/xmlschemas/TrackPointExtension/v1">
            <gpxtpx:hr>103</gpxtpx:hr>
          </gpxtpx:TrackPointExtension>
        </extensions>
      </trkpt>
      <trkpt lat="48.70758" lon="1.78449">
        <ele>168.8</ele>
        <time>2026-01-31T13:54:27Z</time>
        <extensions>
          <gpxtpx:TrackPointExtension xmlns:gpxtpx="http://www.garmin.com/xmlschemas/TrackPointExtension/v1">
            <gpxtpx:hr>103</gpxtpx:hr>
          </gpxtpx:TrackPointExtension>
        </extensions>
      </trkpt>
      <trkpt lat="48.7076" lon="1.78453">
        <ele>168.8</ele>
        <time>2026-01-31T13:54:29Z</time>
        <extensions>
          <gpxtpx:TrackPointExtension xmlns:gpxtpx="http://www.garmin.com/xmlschemas/TrackPointExtension/v1">
            <gpxtpx:hr>104</gpxtpx:hr>
          </gpxtpx:TrackPointExtension>
        </extensions>
      </trkpt>
      <trkpt lat="48.70762" lon="1.78457">
        <ele>169</ele>
        <time>2026-01-31T13:54:31Z</time>
        <extensions>
          <gpxtpx:TrackPointExtension xmlns:gpxtpx="http://www.garmin.com/xmlschemas/TrackPointExtension/v1">
            <gpxtpx:hr>104</gpxtpx:hr>
          </gpxtpx:TrackPointExtension>
        </extensions>
      </trkpt>
      <trkpt lat="48.70764" lon="1.78461">
        <ele>169.2</ele>
        <time>2026-01-31T13:54:33Z</time>
        <extensions>
          <gpxtpx:TrackPointExtension xmlns:gpxtpx="http://www.garmin.com/xmlschemas/TrackPointExtension/v1">
            <gpxtpx:hr>104</gpxtpx:hr>
          </gpxtpx:TrackPointExtension>
        </extensions>
      </trkpt>
      <trkpt lat="48.70764" lon="1.78464">
        <ele>169.4</ele>
        <time>2026-01-31T13:54:35Z</time>
        <extensions>
          <gpxtpx:TrackPointExtension xmlns:gpxtpx="http://www.garmin.com/xmlschemas/TrackPointExtension/v1">
            <gpxtpx:hr>104</gpxtpx:hr>
          </gpxtpx:TrackPointExtension>
        </extensions>
      </trkpt>
      <trkpt lat="48.70765" lon="1.78468">
        <ele>169.6</ele>
        <time>2026-01-31T13:54:37Z</time>
        <extensions>
          <gpxtpx:TrackPointExtension xmlns:gpxtpx="http://www.garmin.com/xmlschemas/TrackPointExtension/v1">
            <gpxtpx:hr>105</gpxtpx:hr>
          </gpxtpx:TrackPointExtension>
        </extensions>
      </trkpt>
      <trkpt lat="48.70766" lon="1.78472">
        <ele>169.6</ele>
        <time>2026-01-31T13:54:39Z</time>
        <extensions>
          <gpxtpx:TrackPointExtension xmlns:gpxtpx="http://www.garmin.com/xmlschemas/TrackPointExtension/v1">
            <gpxtpx:hr>105</gpxtpx:hr>
          </gpxtpx:TrackPointExtension>
        </extensions>
      </trkpt>
      <trkpt lat="48.70767" lon="1.78477">
        <ele>169.8</ele>
        <time>2026-01-31T13:54:41Z</time>
        <extensions>
          <gpxtpx:TrackPointExtension xmlns:gpxtpx="http://www.garmin.com/xmlschemas/TrackPointExtension/v1">
            <gpxtpx:hr>105</gpxtpx:hr>
          </gpxtpx:TrackPointExtension>
        </extensions>
      </trkpt>
      <trkpt lat="48.70768" lon="1.78481">
        <ele>169.8</ele>
        <time>2026-01-31T13:54:43Z</time>
        <extensions>
          <gpxtpx:TrackPointExtension xmlns:gpxtpx="http://www.garmin.com/xmlschemas/TrackPointExtension/v1">
            <gpxtpx:hr>106</gpxtpx:hr>
          </gpxtpx:TrackPointExtension>
        </extensions>
      </trkpt>
      <trkpt lat="48.7077" lon="1.78485">
        <ele>169.8</ele>
        <time>2026-01-31T13:54:45Z</time>
        <extensions>
          <gpxtpx:TrackPointExtension xmlns:gpxtpx="http://www.garmin.com/xmlschemas/TrackPointExtension/v1">
            <gpxtpx:hr>107</gpxtpx:hr>
          </gpxtpx:TrackPointExtension>
        </extensions>
      </trkpt>
      <trkpt lat="48.70771" lon="1.78488">
        <ele>170</ele>
        <time>2026-01-31T13:54:47Z</time>
        <extensions>
          <gpxtpx:TrackPointExtension xmlns:gpxtpx="http://www.garmin.com/xmlschemas/TrackPointExtension/v1">
            <gpxtpx:hr>108</gpxtpx:hr>
          </gpxtpx:TrackPointExtension>
        </extensions>
      </trkpt>
      <trkpt lat="48.70772" lon="1.78491">
        <ele>170</ele>
        <time>2026-01-31T13:54:49Z</time>
        <extensions>
          <gpxtpx:TrackPointExtension xmlns:gpxtpx="http://www.garmin.com/xmlschemas/TrackPointExtension/v1">
            <gpxtpx:hr>110</gpxtpx:hr>
          </gpxtpx:TrackPointExtension>
        </extensions>
      </trkpt>
      <trkpt lat="48.70773" lon="1.78494">
        <ele>170.2</ele>
        <time>2026-01-31T13:54:51Z</time>
        <extensions>
          <gpxtpx:TrackPointExtension xmlns:gpxtpx="http://www.garmin.com/xmlschemas/TrackPointExtension/v1">
            <gpxtpx:hr>110</gpxtpx:hr>
          </gpxtpx:TrackPointExtension>
        </extensions>
      </trkpt>
      <trkpt lat="48.70774" lon="1.78497">
        <ele>170.2</ele>
        <time>2026-01-31T13:54:53Z</time>
        <extensions>
          <gpxtpx:TrackPointExtension xmlns:gpxtpx="http://www.garmin.com/xmlschemas/TrackPointExtension/v1">
            <gpxtpx:hr>110</gpxtpx:hr>
          </gpxtpx:TrackPointExtension>
        </extensions>
      </trkpt>
      <trkpt lat="48.70775" lon="1.78501">
        <ele>170.4</ele>
        <time>2026-01-31T13:54:55Z</time>
        <extensions>
          <gpxtpx:TrackPointExtension xmlns:gpxtpx="http://www.garmin.com/xmlschemas/TrackPointExtension/v1">
            <gpxtpx:hr>110</gpxtpx:hr>
          </gpxtpx:TrackPointExtension>
        </extensions>
      </trkpt>
      <trkpt lat="48.70776" lon="1.78505">
        <ele>170.4</ele>
        <time>2026-01-31T13:54:57Z</time>
        <extensions>
          <gpxtpx:TrackPointExtension xmlns:gpxtpx="http://www.garmin.com/xmlschemas/TrackPointExtension/v1">
            <gpxtpx:hr>110</gpxtpx:hr>
          </gpxtpx:TrackPointExtension>
        </extensions>
      </trkpt>
      <trkpt lat="48.70776" lon="1.78509">
        <ele>170.4</ele>
        <time>2026-01-31T13:54:59Z</time>
        <extensions>
          <gpxtpx:TrackPointExtension xmlns:gpxtpx="http://www.garmin.com/xmlschemas/TrackPointExtension/v1">
            <gpxtpx:hr>110</gpxtpx:hr>
          </gpxtpx:TrackPointExtension>
        </extensions>
      </trkpt>
      <trkpt lat="48.70777" lon="1.78512">
        <ele>170.4</ele>
        <time>2026-01-31T13:55:01Z</time>
        <extensions>
          <gpxtpx:TrackPointExtension xmlns:gpxtpx="http://www.garmin.com/xmlschemas/TrackPointExtension/v1">
            <gpxtpx:hr>110</gpxtpx:hr>
          </gpxtpx:TrackPointExtension>
        </extensions>
      </trkpt>
      <trkpt lat="48.70778" lon="1.78516">
        <ele>170.4</ele>
        <time>2026-01-31T13:55:03Z</time>
        <extensions>
          <gpxtpx:TrackPointExtension xmlns:gpxtpx="http://www.garmin.com/xmlschemas/TrackPointExtension/v1">
            <gpxtpx:hr>110</gpxtpx:hr>
          </gpxtpx:TrackPointExtension>
        </extensions>
      </trkpt>
      <trkpt lat="48.7078" lon="1.7852">
        <ele>170.6</ele>
        <time>2026-01-31T13:55:05Z</time>
        <extensions>
          <gpxtpx:TrackPointExtension xmlns:gpxtpx="http://www.garmin.com/xmlschemas/TrackPointExtension/v1">
            <gpxtpx:hr>110</gpxtpx:hr>
          </gpxtpx:TrackPointExtension>
        </extensions>
      </trkpt>
      <trkpt lat="48.70781" lon="1.78524">
        <ele>170.6</ele>
        <time>2026-01-31T13:55:07Z</time>
        <extensions>
          <gpxtpx:TrackPointExtension xmlns:gpxtpx="http://www.garmin.com/xmlschemas/TrackPointExtension/v1">
            <gpxtpx:hr>110</gpxtpx:hr>
          </gpxtpx:TrackPointExtension>
        </extensions>
      </trkpt>
      <trkpt lat="48.70782" lon="1.78528">
        <ele>170.8</ele>
        <time>2026-01-31T13:55:09Z</time>
        <extensions>
          <gpxtpx:TrackPointExtension xmlns:gpxtpx="http://www.garmin.com/xmlschemas/TrackPointExtension/v1">
            <gpxtpx:hr>111</gpxtpx:hr>
          </gpxtpx:TrackPointExtension>
        </extensions>
      </trkpt>
      <trkpt lat="48.70784" lon="1.78531">
        <ele>170.8</ele>
        <time>2026-01-31T13:55:11Z</time>
        <extensions>
          <gpxtpx:TrackPointExtension xmlns:gpxtpx="http://www.garmin.com/xmlschemas/TrackPointExtension/v1">
            <gpxtpx:hr>111</gpxtpx:hr>
          </gpxtpx:TrackPointExtension>
        </extensions>
      </trkpt>
      <trkpt lat="48.70786" lon="1.78535">
        <ele>170.8</ele>
        <time>2026-01-31T13:55:13Z</time>
        <extensions>
          <gpxtpx:TrackPointExtension xmlns:gpxtpx="http://www.garmin.com/xmlschemas/TrackPointExtension/v1">
            <gpxtpx:hr>111</gpxtpx:hr>
          </gpxtpx:TrackPointExtension>
        </extensions>
      </trkpt>
      <trkpt lat="48.70788" lon="1.78539">
        <ele>170.8</ele>
        <time>2026-01-31T13:55:15Z</time>
        <extensions>
          <gpxtpx:TrackPointExtension xmlns:gpxtpx="http://www.garmin.com/xmlschemas/TrackPointExtension/v1">
            <gpxtpx:hr>112</gpxtpx:hr>
          </gpxtpx:TrackPointExtension>
        </extensions>
      </trkpt>
      <trkpt lat="48.70789" lon="1.78543">
        <ele>171</ele>
        <time>2026-01-31T13:55:17Z</time>
        <extensions>
          <gpxtpx:TrackPointExtension xmlns:gpxtpx="http://www.garmin.com/xmlschemas/TrackPointExtension/v1">
            <gpxtpx:hr>112</gpxtpx:hr>
          </gpxtpx:TrackPointExtension>
        </extensions>
      </trkpt>
      <trkpt lat="48.7079" lon="1.78547">
        <ele>171</ele>
        <time>2026-01-31T13:55:19Z</time>
        <extensions>
          <gpxtpx:TrackPointExtension xmlns:gpxtpx="http://www.garmin.com/xmlschemas/TrackPointExtension/v1">
            <gpxtpx:hr>112</gpxtpx:hr>
          </gpxtpx:TrackPointExtension>
        </extensions>
      </trkpt>
      <trkpt lat="48.70791" lon="1.7855">
        <ele>170.8</ele>
        <time>2026-01-31T13:55:21Z</time>
        <extensions>
          <gpxtpx:TrackPointExtension xmlns:gpxtpx="http://www.garmin.com/xmlschemas/TrackPointExtension/v1">
            <gpxtpx:hr>113</gpxtpx:hr>
          </gpxtpx:TrackPointExtension>
        </extensions>
      </trkpt>
      <trkpt lat="48.70792" lon="1.78554">
        <ele>170.6</ele>
        <time>2026-01-31T13:55:23Z</time>
        <extensions>
          <gpxtpx:TrackPointExtension xmlns:gpxtpx="http://www.garmin.com/xmlschemas/TrackPointExtension/v1">
            <gpxtpx:hr>112</gpxtpx:hr>
          </gpxtpx:TrackPointExtension>
        </extensions>
      </trkpt>
      <trkpt lat="48.70792" lon="1.78557">
        <ele>170.6</ele>
        <time>2026-01-31T13:55:25Z</time>
        <extensions>
          <gpxtpx:TrackPointExtension xmlns:gpxtpx="http://www.garmin.com/xmlschemas/TrackPointExtension/v1">
            <gpxtpx:hr>113</gpxtpx:hr>
          </gpxtpx:TrackPointExtension>
        </extensions>
      </trkpt>
      <trkpt lat="48.70794" lon="1.7856">
        <ele>170.8</ele>
        <time>2026-01-31T13:55:27Z</time>
        <extensions>
          <gpxtpx:TrackPointExtension xmlns:gpxtpx="http://www.garmin.com/xmlschemas/TrackPointExtension/v1">
            <gpxtpx:hr>113</gpxtpx:hr>
          </gpxtpx:TrackPointExtension>
        </extensions>
      </trkpt>
      <trkpt lat="48.70794" lon="1.78563">
        <ele>171</ele>
        <time>2026-01-31T13:55:35Z</time>
        <extensions>
          <gpxtpx:TrackPointExtension xmlns:gpxtpx="http://www.garmin.com/xmlschemas/TrackPointExtension/v1">
            <gpxtpx:hr>113</gpxtpx:hr>
          </gpxtpx:TrackPointExtension>
        </extensions>
      </trkpt>
      <trkpt lat="48.70795" lon="1.78565">
        <ele>171</ele>
        <time>2026-01-31T13:55:39Z</time>
        <extensions>
          <gpxtpx:TrackPointExtension xmlns:gpxtpx="http://www.garmin.com/xmlschemas/TrackPointExtension/v1">
            <gpxtpx:hr>112</gpxtpx:hr>
          </gpxtpx:TrackPointExtension>
        </extensions>
      </trkpt>
      <trkpt lat="48.70796" lon="1.78569">
        <ele>170.8</ele>
        <time>2026-01-31T13:55:42Z</time>
        <extensions>
          <gpxtpx:TrackPointExtension xmlns:gpxtpx="http://www.garmin.com/xmlschemas/TrackPointExtension/v1">
            <gpxtpx:hr>111</gpxtpx:hr>
          </gpxtpx:TrackPointExtension>
        </extensions>
      </trkpt>
      <trkpt lat="48.70797" lon="1.78572">
        <ele>170.8</ele>
        <time>2026-01-31T13:55:44Z</time>
        <extensions>
          <gpxtpx:TrackPointExtension xmlns:gpxtpx="http://www.garmin.com/xmlschemas/TrackPointExtension/v1">
            <gpxtpx:hr>111</gpxtpx:hr>
          </gpxtpx:TrackPointExtension>
        </extensions>
      </trkpt>
      <trkpt lat="48.70798" lon="1.78576">
        <ele>170.6</ele>
        <time>2026-01-31T13:55:46Z</time>
        <extensions>
          <gpxtpx:TrackPointExtension xmlns:gpxtpx="http://www.garmin.com/xmlschemas/TrackPointExtension/v1">
            <gpxtpx:hr>111</gpxtpx:hr>
          </gpxtpx:TrackPointExtension>
        </extensions>
      </trkpt>
      <trkpt lat="48.70798" lon="1.78578">
        <ele>170.6</ele>
        <time>2026-01-31T13:55:48Z</time>
        <extensions>
          <gpxtpx:TrackPointExtension xmlns:gpxtpx="http://www.garmin.com/xmlschemas/TrackPointExtension/v1">
            <gpxtpx:hr>111</gpxtpx:hr>
          </gpxtpx:TrackPointExtension>
        </extensions>
      </trkpt>
      <trkpt lat="48.70799" lon="1.78582">
        <ele>170.4</ele>
        <time>2026-01-31T13:55:52Z</time>
        <extensions>
          <gpxtpx:TrackPointExtension xmlns:gpxtpx="http://www.garmin.com/xmlschemas/TrackPointExtension/v1">
            <gpxtpx:hr>111</gpxtpx:hr>
          </gpxtpx:TrackPointExtension>
        </extensions>
      </trkpt>
      <trkpt lat="48.70801" lon="1.78585">
        <ele>170.4</ele>
        <time>2026-01-31T13:55:55Z</time>
        <extensions>
          <gpxtpx:TrackPointExtension xmlns:gpxtpx="http://www.garmin.com/xmlschemas/TrackPointExtension/v1">
            <gpxtpx:hr>111</gpxtpx:hr>
          </gpxtpx:TrackPointExtension>
        </extensions>
      </trkpt>
      <trkpt lat="48.70802" lon="1.78588">
        <ele>170.2</ele>
        <time>2026-01-31T13:55:57Z</time>
        <extensions>
          <gpxtpx:TrackPointExtension xmlns:gpxtpx="http://www.garmin.com/xmlschemas/TrackPointExtension/v1">
            <gpxtpx:hr>111</gpxtpx:hr>
          </gpxtpx:TrackPointExtension>
        </extensions>
      </trkpt>
      <trkpt lat="48.70803" lon="1.78591">
        <ele>170</ele>
        <time>2026-01-31T13:55:59Z</time>
        <extensions>
          <gpxtpx:TrackPointExtension xmlns:gpxtpx="http://www.garmin.com/xmlschemas/TrackPointExtension/v1">
            <gpxtpx:hr>111</gpxtpx:hr>
          </gpxtpx:TrackPointExtension>
        </extensions>
      </trkpt>
      <trkpt lat="48.70803" lon="1.78596">
        <ele>170</ele>
        <time>2026-01-31T13:56:01Z</time>
        <extensions>
          <gpxtpx:TrackPointExtension xmlns:gpxtpx="http://www.garmin.com/xmlschemas/TrackPointExtension/v1">
            <gpxtpx:hr>111</gpxtpx:hr>
          </gpxtpx:TrackPointExtension>
        </extensions>
      </trkpt>
      <trkpt lat="48.70803" lon="1.786">
        <ele>170</ele>
        <time>2026-01-31T13:56:03Z</time>
        <extensions>
          <gpxtpx:TrackPointExtension xmlns:gpxtpx="http://www.garmin.com/xmlschemas/TrackPointExtension/v1">
            <gpxtpx:hr>111</gpxtpx:hr>
          </gpxtpx:TrackPointExtension>
        </extensions>
      </trkpt>
      <trkpt lat="48.70802" lon="1.78605">
        <ele>170</ele>
        <time>2026-01-31T13:56:05Z</time>
        <extensions>
          <gpxtpx:TrackPointExtension xmlns:gpxtpx="http://www.garmin.com/xmlschemas/TrackPointExtension/v1">
            <gpxtpx:hr>111</gpxtpx:hr>
          </gpxtpx:TrackPointExtension>
        </extensions>
      </trkpt>
      <trkpt lat="48.70802" lon="1.78609">
        <ele>170</ele>
        <time>2026-01-31T13:56:07Z</time>
        <extensions>
          <gpxtpx:TrackPointExtension xmlns:gpxtpx="http://www.garmin.com/xmlschemas/TrackPointExtension/v1">
            <gpxtpx:hr>110</gpxtpx:hr>
          </gpxtpx:TrackPointExtension>
        </extensions>
      </trkpt>
      <trkpt lat="48.70801" lon="1.78612">
        <ele>170</ele>
        <time>2026-01-31T13:56:09Z</time>
        <extensions>
          <gpxtpx:TrackPointExtension xmlns:gpxtpx="http://www.garmin.com/xmlschemas/TrackPointExtension/v1">
            <gpxtpx:hr>111</gpxtpx:hr>
          </gpxtpx:TrackPointExtension>
        </extensions>
      </trkpt>
      <trkpt lat="48.70801" lon="1.78616">
        <ele>170</ele>
        <time>2026-01-31T13:56:11Z</time>
        <extensions>
          <gpxtpx:TrackPointExtension xmlns:gpxtpx="http://www.garmin.com/xmlschemas/TrackPointExtension/v1">
            <gpxtpx:hr>110</gpxtpx:hr>
          </gpxtpx:TrackPointExtension>
        </extensions>
      </trkpt>
      <trkpt lat="48.708" lon="1.78619">
        <ele>170</ele>
        <time>2026-01-31T13:56:13Z</time>
        <extensions>
          <gpxtpx:TrackPointExtension xmlns:gpxtpx="http://www.garmin.com/xmlschemas/TrackPointExtension/v1">
            <gpxtpx:hr>110</gpxtpx:hr>
          </gpxtpx:TrackPointExtension>
        </extensions>
      </trkpt>
      <trkpt lat="48.70801" lon="1.78623">
        <ele>170.2</ele>
        <time>2026-01-31T13:56:15Z</time>
        <extensions>
          <gpxtpx:TrackPointExtension xmlns:gpxtpx="http://www.garmin.com/xmlschemas/TrackPointExtension/v1">
            <gpxtpx:hr>110</gpxtpx:hr>
          </gpxtpx:TrackPointExtension>
        </extensions>
      </trkpt>
      <trkpt lat="48.70801" lon="1.78627">
        <ele>170.2</ele>
        <time>2026-01-31T13:56:17Z</time>
        <extensions>
          <gpxtpx:TrackPointExtension xmlns:gpxtpx="http://www.garmin.com/xmlschemas/TrackPointExtension/v1">
            <gpxtpx:hr>110</gpxtpx:hr>
          </gpxtpx:TrackPointExtension>
        </extensions>
      </trkpt>
      <trkpt lat="48.70802" lon="1.78631">
        <ele>170.2</ele>
        <time>2026-01-31T13:56:19Z</time>
        <extensions>
          <gpxtpx:TrackPointExtension xmlns:gpxtpx="http://www.garmin.com/xmlschemas/TrackPointExtension/v1">
            <gpxtpx:hr>110</gpxtpx:hr>
          </gpxtpx:TrackPointExtension>
        </extensions>
      </trkpt>
      <trkpt lat="48.70803" lon="1.78635">
        <ele>170.2</ele>
        <time>2026-01-31T13:56:21Z</time>
        <extensions>
          <gpxtpx:TrackPointExtension xmlns:gpxtpx="http://www.garmin.com/xmlschemas/TrackPointExtension/v1">
            <gpxtpx:hr>110</gpxtpx:hr>
          </gpxtpx:TrackPointExtension>
        </extensions>
      </trkpt>
      <trkpt lat="48.70804" lon="1.78639">
        <ele>170.4</ele>
        <time>2026-01-31T13:56:23Z</time>
        <extensions>
          <gpxtpx:TrackPointExtension xmlns:gpxtpx="http://www.garmin.com/xmlschemas/TrackPointExtension/v1">
            <gpxtpx:hr>110</gpxtpx:hr>
          </gpxtpx:TrackPointExtension>
        </extensions>
      </trkpt>
      <trkpt lat="48.70804" lon="1.78642">
        <ele>170.6</ele>
        <time>2026-01-31T13:56:26Z</time>
        <extensions>
          <gpxtpx:TrackPointExtension xmlns:gpxtpx="http://www.garmin.com/xmlschemas/TrackPointExtension/v1">
            <gpxtpx:hr>110</gpxtpx:hr>
          </gpxtpx:TrackPointExtension>
        </extensions>
      </trkpt>
      <trkpt lat="48.70801" lon="1.7864">
        <ele>170.6</ele>
        <time>2026-01-31T13:58:28Z</time>
      </trkpt>
      <trkpt lat="48.70803" lon="1.7864">
        <ele>170.6</ele>
        <time>2026-01-31T13:58:35Z</time>
      </trkpt>
      <trkpt lat="48.70804" lon="1.78642">
        <ele>172.4</ele>
        <time>2026-01-31T13:59:00Z</time>
      </trkpt>
      <trkpt lat="48.70803" lon="1.7864">
        <ele>171.8</ele>
        <time>2026-01-31T13:59:12Z</time>
      </trkpt>
      <trkpt lat="48.70803" lon="1.78637">
        <ele>172.2</ele>
        <time>2026-01-31T13:59:16Z</time>
      </trkpt>
      <trkpt lat="48.708" lon="1.78637">
        <ele>172.6</ele>
        <time>2026-01-31T13:59:34Z</time>
      </trkpt>
      <trkpt lat="48.70796" lon="1.78642">
        <ele>166</ele>
        <time>2026-01-31T14:04:36Z</time>
      </trkpt>
    </trkseg>
  </trk>
</gpx>